<?xml version="1.0" encoding="UTF-8" standalone="no" ?>
<gpx xmlns="http://www.topografix.com/GPX/1/1" xmlns:xsi="http://www.w3.org/2001/XMLSchema-instance" xsi:schemaLocation="http://www.topografix.com/GPX/1/1 http://www.topografix.com/GPX/1/1/gpx.xsd" version="1.1" creator="VisuGPX - https://www.visugpx.com">
  <metadata>
    <name>Balade hivernale</name>
    <desc><![CDATA[Balade effectuée du 9 décembre 2022 au 7 janvier 2023.]]></desc>
  </metadata>
  <trk>
    <name><![CDATA[Bouguenais - Saint-Jean de Monts]]></name>
    <extensions>
      <line xmlns="http://www.topografix.com/GPX/gpx_style/0/2">
        <color>0000ff</color>
        <width>4</width>
      </line>
    </extensions>
    <trkseg>
      <trkpt lat="47.17673" lon="-1.63437">
        <ele>60.157554</ele>
        <time>2022-12-17T09:58:41.246Z</time>
      </trkpt>
      <trkpt lat="47.17686" lon="-1.63431">
        <ele>60.157554</ele>
        <time>2022-12-17T09:58:50.343Z</time>
      </trkpt>
      <trkpt lat="47.17696" lon="-1.63425">
        <ele>60.157554</ele>
        <time>2022-12-17T09:58:54.342Z</time>
      </trkpt>
      <trkpt lat="47.17705" lon="-1.63421">
        <ele>60.157554</ele>
        <time>2022-12-17T09:58:57.340Z</time>
      </trkpt>
      <trkpt lat="47.17714" lon="-1.63415">
        <ele>60.157554</ele>
        <time>2022-12-17T09:59:00.340Z</time>
      </trkpt>
      <trkpt lat="47.17724" lon="-1.63411">
        <ele>60.157554</ele>
        <time>2022-12-17T09:59:03.342Z</time>
      </trkpt>
      <trkpt lat="47.17734" lon="-1.63404">
        <ele>60.157554</ele>
        <time>2022-12-17T09:59:07.356Z</time>
      </trkpt>
      <trkpt lat="47.17741" lon="-1.63396">
        <ele>60.157554</ele>
        <time>2022-12-17T09:59:10.341Z</time>
      </trkpt>
      <trkpt lat="47.17745" lon="-1.63379">
        <ele>60.157554</ele>
        <time>2022-12-17T09:59:14.343Z</time>
      </trkpt>
      <trkpt lat="47.17746" lon="-1.63363">
        <ele>60.30434</ele>
        <time>2022-12-17T09:59:19.355Z</time>
      </trkpt>
      <trkpt lat="47.1774" lon="-1.63351">
        <ele>60.525794</ele>
        <time>2022-12-17T09:59:23.342Z</time>
      </trkpt>
      <trkpt lat="47.17731" lon="-1.6334">
        <ele>60.754988</ele>
        <time>2022-12-17T09:59:27.359Z</time>
      </trkpt>
      <trkpt lat="47.17723" lon="-1.63331">
        <ele>60.97155</ele>
        <time>2022-12-17T09:59:31.343Z</time>
      </trkpt>
      <trkpt lat="47.17714" lon="-1.63321">
        <ele>61.188631</ele>
        <time>2022-12-17T09:59:35.356Z</time>
      </trkpt>
      <trkpt lat="47.17706" lon="-1.63312">
        <ele>61.404929</ele>
        <time>2022-12-17T09:59:39.351Z</time>
      </trkpt>
      <trkpt lat="47.17699" lon="-1.63303">
        <ele>61.591337</ele>
        <time>2022-12-17T09:59:44.348Z</time>
      </trkpt>
      <trkpt lat="47.17691" lon="-1.63293">
        <ele>61.818404</ele>
        <time>2022-12-17T09:59:50.364Z</time>
      </trkpt>
      <trkpt lat="47.17682" lon="-1.63288">
        <ele>62.006383</ele>
        <time>2022-12-17T09:59:53.341Z</time>
      </trkpt>
      <trkpt lat="47.17673" lon="-1.63289">
        <ele>62.20934</ele>
        <time>2022-12-17T09:59:57.349Z</time>
      </trkpt>
      <trkpt lat="47.17662" lon="-1.63289">
        <ele>62.417979</ele>
        <time>2022-12-17T10:00:02.346Z</time>
      </trkpt>
      <trkpt lat="47.17652" lon="-1.6329">
        <ele>62.637412</ele>
        <time>2022-12-17T10:00:07.341Z</time>
      </trkpt>
      <trkpt lat="47.17642" lon="-1.63291">
        <ele>62.840174</ele>
        <time>2022-12-17T10:00:11.350Z</time>
      </trkpt>
      <trkpt lat="47.17632" lon="-1.63292">
        <ele>63.043243</ele>
        <time>2022-12-17T10:00:15.360Z</time>
      </trkpt>
      <trkpt lat="47.17622" lon="-1.63292">
        <ele>63.258167</ele>
        <time>2022-12-17T10:00:19.345Z</time>
      </trkpt>
      <trkpt lat="47.17612" lon="-1.63292">
        <ele>63.470865</ele>
        <time>2022-12-17T10:00:23.343Z</time>
      </trkpt>
      <trkpt lat="47.17602" lon="-1.63292">
        <ele>63.671174</ele>
        <time>2022-12-17T10:00:27.358Z</time>
      </trkpt>
      <trkpt lat="47.17592" lon="-1.63294">
        <ele>63.86807</ele>
        <time>2022-12-17T10:00:31.351Z</time>
      </trkpt>
      <trkpt lat="47.17583" lon="-1.63296">
        <ele>64.259072</ele>
        <time>2022-12-17T10:00:35.343Z</time>
      </trkpt>
      <trkpt lat="47.17574" lon="-1.633">
        <ele>64.638265</ele>
        <time>2022-12-17T10:00:39.340Z</time>
      </trkpt>
      <trkpt lat="47.17565" lon="-1.63306">
        <ele>65.038997</ele>
        <time>2022-12-17T10:00:43.344Z</time>
      </trkpt>
      <trkpt lat="47.17556" lon="-1.6331">
        <ele>65.429826</ele>
        <time>2022-12-17T10:00:47.341Z</time>
      </trkpt>
      <trkpt lat="47.17548" lon="-1.63317">
        <ele>65.808379</ele>
        <time>2022-12-17T10:00:51.342Z</time>
      </trkpt>
      <trkpt lat="47.1754" lon="-1.63323">
        <ele>66.198676</ele>
        <time>2022-12-17T10:00:55.356Z</time>
      </trkpt>
      <trkpt lat="47.17532" lon="-1.63331">
        <ele>66.574136</ele>
        <time>2022-12-17T10:00:59.349Z</time>
      </trkpt>
      <trkpt lat="47.17524" lon="-1.63337">
        <ele>66.966651</ele>
        <time>2022-12-17T10:01:03.355Z</time>
      </trkpt>
      <trkpt lat="47.17515" lon="-1.63344">
        <ele>67.388587</ele>
        <time>2022-12-17T10:01:08.357Z</time>
      </trkpt>
      <trkpt lat="47.17507" lon="-1.63351">
        <ele>67.77343</ele>
        <time>2022-12-17T10:01:13.341Z</time>
      </trkpt>
      <trkpt lat="47.17499" lon="-1.63358">
        <ele>68.153768</ele>
        <time>2022-12-17T10:01:18.360Z</time>
      </trkpt>
      <trkpt lat="47.1749" lon="-1.63365">
        <ele>68.572067</ele>
        <time>2022-12-17T10:01:23.356Z</time>
      </trkpt>
      <trkpt lat="47.1748" lon="-1.63372">
        <ele>69.030829</ele>
        <time>2022-12-17T10:01:28.349Z</time>
      </trkpt>
      <trkpt lat="47.17472" lon="-1.63379">
        <ele>69.411167</ele>
        <time>2022-12-17T10:01:32.340Z</time>
      </trkpt>
      <trkpt lat="47.17464" lon="-1.63386">
        <ele>69.795743</ele>
        <time>2022-12-17T10:01:36.358Z</time>
      </trkpt>
      <trkpt lat="47.17455" lon="-1.63394">
        <ele>70.247611</ele>
        <time>2022-12-17T10:01:40.363Z</time>
      </trkpt>
      <trkpt lat="47.17446" lon="-1.634">
        <ele>70.631267</ele>
        <time>2022-12-17T10:01:43.342Z</time>
      </trkpt>
      <trkpt lat="47.17437" lon="-1.63404">
        <ele>71.016588</ele>
        <time>2022-12-17T10:01:46.361Z</time>
      </trkpt>
      <trkpt lat="47.17429" lon="-1.63408">
        <ele>71.336417</ele>
        <time>2022-12-17T10:01:49.360Z</time>
      </trkpt>
      <trkpt lat="47.1742" lon="-1.63412">
        <ele>71.468346</ele>
        <time>2022-12-17T10:01:52.342Z</time>
      </trkpt>
      <trkpt lat="47.1741" lon="-1.63418">
        <ele>71.614435</ele>
        <time>2022-12-17T10:01:55.344Z</time>
      </trkpt>
      <trkpt lat="47.174" lon="-1.63424">
        <ele>71.76852</ele>
        <time>2022-12-17T10:01:58.359Z</time>
      </trkpt>
      <trkpt lat="47.17391" lon="-1.6343">
        <ele>71.912895</ele>
        <time>2022-12-17T10:02:01.361Z</time>
      </trkpt>
      <trkpt lat="47.17381" lon="-1.6344">
        <ele>72.072078</ele>
        <time>2022-12-17T10:02:05.349Z</time>
      </trkpt>
      <trkpt lat="47.17374" lon="-1.63449">
        <ele>72.212287</ele>
        <time>2022-12-17T10:02:08.349Z</time>
      </trkpt>
      <trkpt lat="47.17366" lon="-1.63459">
        <ele>72.36296</ele>
        <time>2022-12-17T10:02:11.354Z</time>
      </trkpt>
      <trkpt lat="47.17358" lon="-1.6347">
        <ele>72.511878</ele>
        <time>2022-12-17T10:02:14.360Z</time>
      </trkpt>
      <trkpt lat="47.17351" lon="-1.6348">
        <ele>72.654302</ele>
        <time>2022-12-17T10:02:17.359Z</time>
      </trkpt>
      <trkpt lat="47.17344" lon="-1.6349">
        <ele>72.791664</ele>
        <time>2022-12-17T10:02:20.350Z</time>
      </trkpt>
      <trkpt lat="47.17336" lon="-1.63499">
        <ele>72.930178</ele>
        <time>2022-12-17T10:02:23.362Z</time>
      </trkpt>
      <trkpt lat="47.17328" lon="-1.63511">
        <ele>73.093298</ele>
        <time>2022-12-17T10:02:27.363Z</time>
      </trkpt>
      <trkpt lat="47.1732" lon="-1.63521">
        <ele>73.234404</ele>
        <time>2022-12-17T10:02:31.358Z</time>
      </trkpt>
      <trkpt lat="47.17313" lon="-1.6353">
        <ele>73.37951</ele>
        <time>2022-12-17T10:02:36.347Z</time>
      </trkpt>
      <trkpt lat="47.17302" lon="-1.63538">
        <ele>73.54169</ele>
        <time>2022-12-17T10:03:35.354Z</time>
      </trkpt>
      <trkpt lat="47.17294" lon="-1.63545">
        <ele>73.67144</ele>
        <time>2022-12-17T10:03:38.352Z</time>
      </trkpt>
      <trkpt lat="47.17287" lon="-1.63556">
        <ele>73.818899</ele>
        <time>2022-12-17T10:03:41.349Z</time>
      </trkpt>
      <trkpt lat="47.1728" lon="-1.63566">
        <ele>73.99077</ele>
        <time>2022-12-17T10:03:44.349Z</time>
      </trkpt>
      <trkpt lat="47.17273" lon="-1.63576">
        <ele>74.158802</ele>
        <time>2022-12-17T10:03:47.350Z</time>
      </trkpt>
      <trkpt lat="47.17265" lon="-1.63585">
        <ele>74.335267</ele>
        <time>2022-12-17T10:03:50.353Z</time>
      </trkpt>
      <trkpt lat="47.17257" lon="-1.63595">
        <ele>74.523994</ele>
        <time>2022-12-17T10:03:53.353Z</time>
      </trkpt>
      <trkpt lat="47.17248" lon="-1.63604">
        <ele>74.708096</ele>
        <time>2022-12-17T10:03:56.354Z</time>
      </trkpt>
      <trkpt lat="47.17239" lon="-1.63612">
        <ele>74.890505</ele>
        <time>2022-12-17T10:03:59.347Z</time>
      </trkpt>
      <trkpt lat="47.17232" lon="-1.6362">
        <ele>75.057786</ele>
        <time>2022-12-17T10:04:02.351Z</time>
      </trkpt>
      <trkpt lat="47.17224" lon="-1.63629">
        <ele>75.233562</ele>
        <time>2022-12-17T10:04:05.351Z</time>
      </trkpt>
      <trkpt lat="47.17216" lon="-1.63638">
        <ele>75.410004</ele>
        <time>2022-12-17T10:04:08.353Z</time>
      </trkpt>
      <trkpt lat="47.17205" lon="-1.63647">
        <ele>75.620746</ele>
        <time>2022-12-17T10:04:12.365Z</time>
      </trkpt>
      <trkpt lat="47.17198" lon="-1.63655">
        <ele>75.78867</ele>
        <time>2022-12-17T10:04:15.348Z</time>
      </trkpt>
      <trkpt lat="47.17189" lon="-1.63664">
        <ele>75.972275</ele>
        <time>2022-12-17T10:04:18.352Z</time>
      </trkpt>
      <trkpt lat="47.1718" lon="-1.63674">
        <ele>76.170682</ele>
        <time>2022-12-17T10:04:22.352Z</time>
      </trkpt>
      <trkpt lat="47.17172" lon="-1.63684">
        <ele>76.365767</ele>
        <time>2022-12-17T10:04:27.348Z</time>
      </trkpt>
      <trkpt lat="47.17165" lon="-1.63697">
        <ele>76.552902</ele>
        <time>2022-12-17T10:04:31.350Z</time>
      </trkpt>
      <trkpt lat="47.17158" lon="-1.63707">
        <ele>76.7246</ele>
        <time>2022-12-17T10:04:34.351Z</time>
      </trkpt>
      <trkpt lat="47.17148" lon="-1.63713">
        <ele>76.924995</ele>
        <time>2022-12-17T10:04:37.363Z</time>
      </trkpt>
      <trkpt lat="47.17138" lon="-1.6372">
        <ele>77.00437</ele>
        <time>2022-12-17T10:04:40.364Z</time>
      </trkpt>
      <trkpt lat="47.17129" lon="-1.6373">
        <ele>76.991429</ele>
        <time>2022-12-17T10:04:43.354Z</time>
      </trkpt>
      <trkpt lat="47.17119" lon="-1.6374">
        <ele>76.977941</ele>
        <time>2022-12-17T10:04:46.359Z</time>
      </trkpt>
      <trkpt lat="47.17109" lon="-1.6375">
        <ele>76.964542</ele>
        <time>2022-12-17T10:04:49.350Z</time>
      </trkpt>
      <trkpt lat="47.17099" lon="-1.6376">
        <ele>76.950991</ele>
        <time>2022-12-17T10:04:52.351Z</time>
      </trkpt>
      <trkpt lat="47.17089" lon="-1.63769">
        <ele>76.938003</ele>
        <time>2022-12-17T10:04:55.361Z</time>
      </trkpt>
      <trkpt lat="47.17081" lon="-1.63777">
        <ele>76.926655</ele>
        <time>2022-12-17T10:04:58.352Z</time>
      </trkpt>
      <trkpt lat="47.17073" lon="-1.63787">
        <ele>76.914808</ele>
        <time>2022-12-17T10:05:02.355Z</time>
      </trkpt>
      <trkpt lat="47.17064" lon="-1.63779">
        <ele>76.903009</ele>
        <time>2022-12-17T10:05:06.349Z</time>
      </trkpt>
      <trkpt lat="47.17056" lon="-1.6377">
        <ele>76.892147</ele>
        <time>2022-12-17T10:05:09.353Z</time>
      </trkpt>
      <trkpt lat="47.17047" lon="-1.63761">
        <ele>76.879542</ele>
        <time>2022-12-17T10:05:12.353Z</time>
      </trkpt>
      <trkpt lat="47.17036" lon="-1.63755">
        <ele>76.866271</ele>
        <time>2022-12-17T10:05:15.372Z</time>
      </trkpt>
      <trkpt lat="47.17024" lon="-1.63751">
        <ele>76.851985</ele>
        <time>2022-12-17T10:05:18.350Z</time>
      </trkpt>
      <trkpt lat="47.17011" lon="-1.63745">
        <ele>76.837269</ele>
        <time>2022-12-17T10:05:21.354Z</time>
      </trkpt>
      <trkpt lat="47.17002" lon="-1.63742">
        <ele>76.826738</ele>
        <time>2022-12-17T10:05:23.350Z</time>
      </trkpt>
      <trkpt lat="47.16993" lon="-1.63739">
        <ele>76.815713</ele>
        <time>2022-12-17T10:05:25.351Z</time>
      </trkpt>
      <trkpt lat="47.16984" lon="-1.63735">
        <ele>76.797374</ele>
        <time>2022-12-17T10:05:27.358Z</time>
      </trkpt>
      <trkpt lat="47.16971" lon="-1.63729">
        <ele>76.73475</ele>
        <time>2022-12-17T10:05:30.364Z</time>
      </trkpt>
      <trkpt lat="47.16962" lon="-1.63726">
        <ele>76.688921</ele>
        <time>2022-12-17T10:05:32.365Z</time>
      </trkpt>
      <trkpt lat="47.16952" lon="-1.63723">
        <ele>76.642983</ele>
        <time>2022-12-17T10:05:34.368Z</time>
      </trkpt>
      <trkpt lat="47.16942" lon="-1.63719">
        <ele>76.596751</ele>
        <time>2022-12-17T10:05:36.361Z</time>
      </trkpt>
      <trkpt lat="47.16933" lon="-1.63716">
        <ele>76.548949</ele>
        <time>2022-12-17T10:05:38.354Z</time>
      </trkpt>
      <trkpt lat="47.16922" lon="-1.63712">
        <ele>76.499925</ele>
        <time>2022-12-17T10:05:40.371Z</time>
      </trkpt>
      <trkpt lat="47.16912" lon="-1.63708">
        <ele>76.449617</ele>
        <time>2022-12-17T10:05:42.352Z</time>
      </trkpt>
      <trkpt lat="47.16902" lon="-1.63705">
        <ele>76.403477</ele>
        <time>2022-12-17T10:05:44.354Z</time>
      </trkpt>
      <trkpt lat="47.16893" lon="-1.63702">
        <ele>76.359693</ele>
        <time>2022-12-17T10:05:46.351Z</time>
      </trkpt>
      <trkpt lat="47.16881" lon="-1.63697">
        <ele>76.300736</ele>
        <time>2022-12-17T10:05:49.354Z</time>
      </trkpt>
      <trkpt lat="47.16869" lon="-1.63693">
        <ele>76.244207</ele>
        <time>2022-12-17T10:05:52.353Z</time>
      </trkpt>
      <trkpt lat="47.16857" lon="-1.63687">
        <ele>76.182864</ele>
        <time>2022-12-17T10:05:55.352Z</time>
      </trkpt>
      <trkpt lat="47.16844" lon="-1.63683">
        <ele>76.122305</ele>
        <time>2022-12-17T10:05:58.349Z</time>
      </trkpt>
      <trkpt lat="47.16831" lon="-1.63679">
        <ele>76.058791</ele>
        <time>2022-12-17T10:06:01.349Z</time>
      </trkpt>
      <trkpt lat="47.16818" lon="-1.63674">
        <ele>75.995725</ele>
        <time>2022-12-17T10:06:04.351Z</time>
      </trkpt>
      <trkpt lat="47.16809" lon="-1.63671">
        <ele>75.949029</ele>
        <time>2022-12-17T10:06:06.353Z</time>
      </trkpt>
      <trkpt lat="47.16797" lon="-1.63665">
        <ele>75.866175</ele>
        <time>2022-12-17T10:06:09.356Z</time>
      </trkpt>
      <trkpt lat="47.16786" lon="-1.63661">
        <ele>75.793199</ele>
        <time>2022-12-17T10:06:12.350Z</time>
      </trkpt>
      <trkpt lat="47.16777" lon="-1.63656">
        <ele>75.725084</ele>
        <time>2022-12-17T10:06:15.362Z</time>
      </trkpt>
      <trkpt lat="47.16767" lon="-1.63653">
        <ele>75.663035</ele>
        <time>2022-12-17T10:06:18.362Z</time>
      </trkpt>
      <trkpt lat="47.16758" lon="-1.6365">
        <ele>75.601006</ele>
        <time>2022-12-17T10:06:21.367Z</time>
      </trkpt>
      <trkpt lat="47.16749" lon="-1.63648">
        <ele>75.53962</ele>
        <time>2022-12-17T10:06:24.354Z</time>
      </trkpt>
      <trkpt lat="47.16739" lon="-1.63644">
        <ele>75.471197</ele>
        <time>2022-12-17T10:06:28.351Z</time>
      </trkpt>
      <trkpt lat="47.16727" lon="-1.6364">
        <ele>75.393025</ele>
        <time>2022-12-17T10:06:32.351Z</time>
      </trkpt>
      <trkpt lat="47.16716" lon="-1.63635">
        <ele>75.314696</ele>
        <time>2022-12-17T10:06:35.352Z</time>
      </trkpt>
      <trkpt lat="47.16703" lon="-1.63628">
        <ele>75.226895</ele>
        <time>2022-12-17T10:06:38.348Z</time>
      </trkpt>
      <trkpt lat="47.16692" lon="-1.63618">
        <ele>75.139462</ele>
        <time>2022-12-17T10:06:41.350Z</time>
      </trkpt>
      <trkpt lat="47.16684" lon="-1.63609">
        <ele>75.077617</ele>
        <time>2022-12-17T10:06:43.356Z</time>
      </trkpt>
      <trkpt lat="47.16676" lon="-1.636">
        <ele>75.009734</ele>
        <time>2022-12-17T10:06:46.358Z</time>
      </trkpt>
      <trkpt lat="47.16685" lon="-1.63604">
        <ele>74.948832</ele>
        <time>2022-12-17T10:06:58.352Z</time>
      </trkpt>
      <trkpt lat="47.16692" lon="-1.63615">
        <ele>74.881585</ele>
        <time>2022-12-17T10:07:02.352Z</time>
      </trkpt>
      <trkpt lat="47.16701" lon="-1.63621">
        <ele>74.814263</ele>
        <time>2022-12-17T10:07:05.365Z</time>
      </trkpt>
      <trkpt lat="47.16712" lon="-1.63628">
        <ele>74.81228</ele>
        <time>2022-12-17T10:07:08.349Z</time>
      </trkpt>
      <trkpt lat="47.16721" lon="-1.63633">
        <ele>74.849018</ele>
        <time>2022-12-17T10:07:11.349Z</time>
      </trkpt>
      <trkpt lat="47.16729" lon="-1.63643">
        <ele>74.886663</ele>
        <time>2022-12-17T10:07:15.381Z</time>
      </trkpt>
      <trkpt lat="47.1673" lon="-1.6366">
        <ele>74.928544</ele>
        <time>2022-12-17T10:07:19.367Z</time>
      </trkpt>
      <trkpt lat="47.16726" lon="-1.63675">
        <ele>74.968226</ele>
        <time>2022-12-17T10:07:22.357Z</time>
      </trkpt>
      <trkpt lat="47.1672" lon="-1.63691">
        <ele>75.011154</ele>
        <time>2022-12-17T10:07:25.362Z</time>
      </trkpt>
      <trkpt lat="47.16714" lon="-1.63708">
        <ele>75.059323</ele>
        <time>2022-12-17T10:07:28.345Z</time>
      </trkpt>
      <trkpt lat="47.16711" lon="-1.63721">
        <ele>75.093036</ele>
        <time>2022-12-17T10:07:30.355Z</time>
      </trkpt>
      <trkpt lat="47.16707" lon="-1.63739">
        <ele>75.139576</ele>
        <time>2022-12-17T10:07:33.358Z</time>
      </trkpt>
      <trkpt lat="47.16703" lon="-1.63754">
        <ele>75.179392</ele>
        <time>2022-12-17T10:07:36.351Z</time>
      </trkpt>
      <trkpt lat="47.16699" lon="-1.63769">
        <ele>75.217167</ele>
        <time>2022-12-17T10:07:39.355Z</time>
      </trkpt>
      <trkpt lat="47.16695" lon="-1.63784">
        <ele>75.256949</ele>
        <time>2022-12-17T10:07:42.353Z</time>
      </trkpt>
      <trkpt lat="47.16692" lon="-1.63796">
        <ele>75.290177</ele>
        <time>2022-12-17T10:07:45.356Z</time>
      </trkpt>
      <trkpt lat="47.16689" lon="-1.63809">
        <ele>75.322842</ele>
        <time>2022-12-17T10:07:48.359Z</time>
      </trkpt>
      <trkpt lat="47.16687" lon="-1.63823">
        <ele>75.35928</ele>
        <time>2022-12-17T10:07:51.353Z</time>
      </trkpt>
      <trkpt lat="47.16684" lon="-1.63839">
        <ele>75.399445</ele>
        <time>2022-12-17T10:07:54.359Z</time>
      </trkpt>
      <trkpt lat="47.16681" lon="-1.63856">
        <ele>75.464628</ele>
        <time>2022-12-17T10:07:57.365Z</time>
      </trkpt>
      <trkpt lat="47.16677" lon="-1.63873">
        <ele>75.738031</ele>
        <time>2022-12-17T10:08:00.354Z</time>
      </trkpt>
      <trkpt lat="47.16674" lon="-1.63891">
        <ele>76.015202</ele>
        <time>2022-12-17T10:08:03.354Z</time>
      </trkpt>
      <trkpt lat="47.16669" lon="-1.6391">
        <ele>76.307858</ele>
        <time>2022-12-17T10:08:06.353Z</time>
      </trkpt>
      <trkpt lat="47.16666" lon="-1.63922">
        <ele>76.507431</ele>
        <time>2022-12-17T10:08:08.349Z</time>
      </trkpt>
      <trkpt lat="47.16662" lon="-1.63941">
        <ele>76.794453</ele>
        <time>2022-12-17T10:08:11.355Z</time>
      </trkpt>
      <trkpt lat="47.16657" lon="-1.63957">
        <ele>77.060948</ele>
        <time>2022-12-17T10:08:14.349Z</time>
      </trkpt>
      <trkpt lat="47.16652" lon="-1.63973">
        <ele>77.323404</ele>
        <time>2022-12-17T10:08:17.346Z</time>
      </trkpt>
      <trkpt lat="47.16647" lon="-1.63987">
        <ele>77.566023</ele>
        <time>2022-12-17T10:08:20.351Z</time>
      </trkpt>
      <trkpt lat="47.16642" lon="-1.64001">
        <ele>77.793288</ele>
        <time>2022-12-17T10:08:23.356Z</time>
      </trkpt>
      <trkpt lat="47.16637" lon="-1.64014">
        <ele>78.023914</ele>
        <time>2022-12-17T10:08:26.360Z</time>
      </trkpt>
      <trkpt lat="47.16631" lon="-1.64028">
        <ele>78.26793</ele>
        <time>2022-12-17T10:08:29.348Z</time>
      </trkpt>
      <trkpt lat="47.16625" lon="-1.64041">
        <ele>78.510693</ele>
        <time>2022-12-17T10:08:32.356Z</time>
      </trkpt>
      <trkpt lat="47.16618" lon="-1.64055">
        <ele>78.762008</ele>
        <time>2022-12-17T10:08:35.365Z</time>
      </trkpt>
      <trkpt lat="47.16611" lon="-1.6407">
        <ele>79.018249</ele>
        <time>2022-12-17T10:08:38.355Z</time>
      </trkpt>
      <trkpt lat="47.16605" lon="-1.64084">
        <ele>79.280797</ele>
        <time>2022-12-17T10:08:41.352Z</time>
      </trkpt>
      <trkpt lat="47.16598" lon="-1.64099">
        <ele>79.19664</ele>
        <time>2022-12-17T10:08:44.356Z</time>
      </trkpt>
      <trkpt lat="47.16592" lon="-1.64113">
        <ele>78.903971</ele>
        <time>2022-12-17T10:08:47.352Z</time>
      </trkpt>
      <trkpt lat="47.16584" lon="-1.64128">
        <ele>78.587166</ele>
        <time>2022-12-17T10:08:50.352Z</time>
      </trkpt>
      <trkpt lat="47.16579" lon="-1.64139">
        <ele>78.343712</ele>
        <time>2022-12-17T10:08:52.352Z</time>
      </trkpt>
      <trkpt lat="47.16572" lon="-1.64151">
        <ele>78.087093</ele>
        <time>2022-12-17T10:08:54.367Z</time>
      </trkpt>
      <trkpt lat="47.16566" lon="-1.64164">
        <ele>77.815379</ele>
        <time>2022-12-17T10:08:56.370Z</time>
      </trkpt>
      <trkpt lat="47.16558" lon="-1.64178">
        <ele>77.520063</ele>
        <time>2022-12-17T10:08:58.349Z</time>
      </trkpt>
      <trkpt lat="47.16549" lon="-1.64191">
        <ele>77.197658</ele>
        <time>2022-12-17T10:09:00.355Z</time>
      </trkpt>
      <trkpt lat="47.16541" lon="-1.64205">
        <ele>76.87402</ele>
        <time>2022-12-17T10:09:02.352Z</time>
      </trkpt>
      <trkpt lat="47.16531" lon="-1.64219">
        <ele>76.532723</ele>
        <time>2022-12-17T10:09:04.359Z</time>
      </trkpt>
      <trkpt lat="47.16521" lon="-1.64234">
        <ele>76.181882</ele>
        <time>2022-12-17T10:09:06.352Z</time>
      </trkpt>
      <trkpt lat="47.1651" lon="-1.64247">
        <ele>75.826487</ele>
        <time>2022-12-17T10:09:08.352Z</time>
      </trkpt>
      <trkpt lat="47.165" lon="-1.64261">
        <ele>75.482709</ele>
        <time>2022-12-17T10:09:10.347Z</time>
      </trkpt>
      <trkpt lat="47.16489" lon="-1.64273">
        <ele>75.143338</ele>
        <time>2022-12-17T10:09:12.354Z</time>
      </trkpt>
      <trkpt lat="47.16479" lon="-1.64286">
        <ele>74.845917</ele>
        <time>2022-12-17T10:09:14.350Z</time>
      </trkpt>
      <trkpt lat="47.1647" lon="-1.64298">
        <ele>74.691055</ele>
        <time>2022-12-17T10:09:16.357Z</time>
      </trkpt>
      <trkpt lat="47.1646" lon="-1.6431">
        <ele>74.543811</ele>
        <time>2022-12-17T10:09:18.357Z</time>
      </trkpt>
      <trkpt lat="47.16452" lon="-1.64321">
        <ele>74.405418</ele>
        <time>2022-12-17T10:09:20.350Z</time>
      </trkpt>
      <trkpt lat="47.16443" lon="-1.64331">
        <ele>74.26752</ele>
        <time>2022-12-17T10:09:22.366Z</time>
      </trkpt>
      <trkpt lat="47.16435" lon="-1.64342">
        <ele>74.13296</ele>
        <time>2022-12-17T10:09:24.360Z</time>
      </trkpt>
      <trkpt lat="47.16427" lon="-1.64353">
        <ele>73.995677</ele>
        <time>2022-12-17T10:09:26.364Z</time>
      </trkpt>
      <trkpt lat="47.16419" lon="-1.64364">
        <ele>73.865484</ele>
        <time>2022-12-17T10:09:28.353Z</time>
      </trkpt>
      <trkpt lat="47.16412" lon="-1.64375">
        <ele>73.737565</ele>
        <time>2022-12-17T10:09:30.360Z</time>
      </trkpt>
      <trkpt lat="47.16405" lon="-1.64386">
        <ele>73.619467</ele>
        <time>2022-12-17T10:09:32.354Z</time>
      </trkpt>
      <trkpt lat="47.16399" lon="-1.64398">
        <ele>73.493724</ele>
        <time>2022-12-17T10:09:34.350Z</time>
      </trkpt>
      <trkpt lat="47.16393" lon="-1.64411">
        <ele>73.357834</ele>
        <time>2022-12-17T10:09:36.353Z</time>
      </trkpt>
      <trkpt lat="47.16386" lon="-1.64425">
        <ele>73.222628</ele>
        <time>2022-12-17T10:09:38.361Z</time>
      </trkpt>
      <trkpt lat="47.1638" lon="-1.64439">
        <ele>73.075745</ele>
        <time>2022-12-17T10:09:40.357Z</time>
      </trkpt>
      <trkpt lat="47.16373" lon="-1.64453">
        <ele>72.935041</ele>
        <time>2022-12-17T10:09:42.347Z</time>
      </trkpt>
      <trkpt lat="47.16366" lon="-1.64468">
        <ele>72.788857</ele>
        <time>2022-12-17T10:09:44.352Z</time>
      </trkpt>
      <trkpt lat="47.16359" lon="-1.64483">
        <ele>72.664795</ele>
        <time>2022-12-17T10:09:46.355Z</time>
      </trkpt>
      <trkpt lat="47.16352" lon="-1.64498">
        <ele>72.60275</ele>
        <time>2022-12-17T10:09:48.353Z</time>
      </trkpt>
      <trkpt lat="47.16345" lon="-1.64513">
        <ele>72.541564</ele>
        <time>2022-12-17T10:09:50.356Z</time>
      </trkpt>
      <trkpt lat="47.16337" lon="-1.64527">
        <ele>72.479137</ele>
        <time>2022-12-17T10:09:52.372Z</time>
      </trkpt>
      <trkpt lat="47.16329" lon="-1.64542">
        <ele>72.416406</ele>
        <time>2022-12-17T10:09:54.362Z</time>
      </trkpt>
      <trkpt lat="47.16321" lon="-1.64558">
        <ele>72.351255</ele>
        <time>2022-12-17T10:09:56.352Z</time>
      </trkpt>
      <trkpt lat="47.16313" lon="-1.64572">
        <ele>72.287997</ele>
        <time>2022-12-17T10:09:58.350Z</time>
      </trkpt>
      <trkpt lat="47.16306" lon="-1.64587">
        <ele>72.228062</ele>
        <time>2022-12-17T10:10:00.362Z</time>
      </trkpt>
      <trkpt lat="47.16299" lon="-1.64601">
        <ele>72.170172</ele>
        <time>2022-12-17T10:10:02.354Z</time>
      </trkpt>
      <trkpt lat="47.16293" lon="-1.64614">
        <ele>72.115348</ele>
        <time>2022-12-17T10:10:04.349Z</time>
      </trkpt>
      <trkpt lat="47.16285" lon="-1.64627">
        <ele>72.059987</ele>
        <time>2022-12-17T10:10:06.371Z</time>
      </trkpt>
      <trkpt lat="47.1628" lon="-1.64639">
        <ele>72.010428</ele>
        <time>2022-12-17T10:10:08.349Z</time>
      </trkpt>
      <trkpt lat="47.16273" lon="-1.6465">
        <ele>71.961191</ele>
        <time>2022-12-17T10:10:10.354Z</time>
      </trkpt>
      <trkpt lat="47.16267" lon="-1.64663">
        <ele>71.907333</ele>
        <time>2022-12-17T10:10:12.353Z</time>
      </trkpt>
      <trkpt lat="47.1626" lon="-1.64676">
        <ele>71.852719</ele>
        <time>2022-12-17T10:10:14.355Z</time>
      </trkpt>
      <trkpt lat="47.16254" lon="-1.64689">
        <ele>71.801772</ele>
        <time>2022-12-17T10:10:16.369Z</time>
      </trkpt>
      <trkpt lat="47.16248" lon="-1.647">
        <ele>71.827338</ele>
        <time>2022-12-17T10:10:18.354Z</time>
      </trkpt>
      <trkpt lat="47.16242" lon="-1.64711">
        <ele>71.860624</ele>
        <time>2022-12-17T10:10:20.351Z</time>
      </trkpt>
      <trkpt lat="47.16236" lon="-1.64724">
        <ele>71.896352</ele>
        <time>2022-12-17T10:10:22.345Z</time>
      </trkpt>
      <trkpt lat="47.16229" lon="-1.64736">
        <ele>71.933112</ele>
        <time>2022-12-17T10:10:24.359Z</time>
      </trkpt>
      <trkpt lat="47.16223" lon="-1.64749">
        <ele>71.969662</ele>
        <time>2022-12-17T10:10:26.361Z</time>
      </trkpt>
      <trkpt lat="47.16216" lon="-1.64761">
        <ele>72.005633</ele>
        <time>2022-12-17T10:10:28.362Z</time>
      </trkpt>
      <trkpt lat="47.1621" lon="-1.64774">
        <ele>72.043319</ele>
        <time>2022-12-17T10:10:30.358Z</time>
      </trkpt>
      <trkpt lat="47.16203" lon="-1.64786">
        <ele>72.080449</ele>
        <time>2022-12-17T10:10:32.357Z</time>
      </trkpt>
      <trkpt lat="47.16197" lon="-1.64799">
        <ele>72.116356</ele>
        <time>2022-12-17T10:10:34.354Z</time>
      </trkpt>
      <trkpt lat="47.1619" lon="-1.64811">
        <ele>72.153544</ele>
        <time>2022-12-17T10:10:36.359Z</time>
      </trkpt>
      <trkpt lat="47.16184" lon="-1.64823">
        <ele>72.188454</ele>
        <time>2022-12-17T10:10:38.349Z</time>
      </trkpt>
      <trkpt lat="47.16178" lon="-1.64835">
        <ele>72.222255</ele>
        <time>2022-12-17T10:10:40.353Z</time>
      </trkpt>
      <trkpt lat="47.16173" lon="-1.64847">
        <ele>72.255463</ele>
        <time>2022-12-17T10:10:42.352Z</time>
      </trkpt>
      <trkpt lat="47.16167" lon="-1.64858">
        <ele>72.289094</ele>
        <time>2022-12-17T10:10:44.358Z</time>
      </trkpt>
      <trkpt lat="47.16161" lon="-1.6487">
        <ele>72.324091</ele>
        <time>2022-12-17T10:10:46.361Z</time>
      </trkpt>
      <trkpt lat="47.16154" lon="-1.64883">
        <ele>72.361012</ele>
        <time>2022-12-17T10:10:48.351Z</time>
      </trkpt>
      <trkpt lat="47.16147" lon="-1.64895">
        <ele>72.398996</ele>
        <time>2022-12-17T10:10:50.350Z</time>
      </trkpt>
      <trkpt lat="47.16141" lon="-1.64908">
        <ele>72.392282</ele>
        <time>2022-12-17T10:10:52.355Z</time>
      </trkpt>
      <trkpt lat="47.16134" lon="-1.6492">
        <ele>72.355979</ele>
        <time>2022-12-17T10:10:54.353Z</time>
      </trkpt>
      <trkpt lat="47.16128" lon="-1.64933">
        <ele>72.320295</ele>
        <time>2022-12-17T10:10:56.362Z</time>
      </trkpt>
      <trkpt lat="47.16122" lon="-1.64944">
        <ele>72.287145</ele>
        <time>2022-12-17T10:10:58.353Z</time>
      </trkpt>
      <trkpt lat="47.16116" lon="-1.64956">
        <ele>72.254877</ele>
        <time>2022-12-17T10:11:00.353Z</time>
      </trkpt>
      <trkpt lat="47.16109" lon="-1.64971">
        <ele>72.210963</ele>
        <time>2022-12-17T10:11:03.353Z</time>
      </trkpt>
      <trkpt lat="47.161" lon="-1.64986">
        <ele>72.165044</ele>
        <time>2022-12-17T10:11:06.371Z</time>
      </trkpt>
      <trkpt lat="47.16093" lon="-1.64997">
        <ele>72.132621</ele>
        <time>2022-12-17T10:11:08.355Z</time>
      </trkpt>
      <trkpt lat="47.16087" lon="-1.65009">
        <ele>72.0988</ele>
        <time>2022-12-17T10:11:10.354Z</time>
      </trkpt>
      <trkpt lat="47.16082" lon="-1.6502">
        <ele>72.066716</ele>
        <time>2022-12-17T10:11:12.357Z</time>
      </trkpt>
      <trkpt lat="47.16076" lon="-1.65031">
        <ele>72.035541</ele>
        <time>2022-12-17T10:11:14.350Z</time>
      </trkpt>
      <trkpt lat="47.1607" lon="-1.65043">
        <ele>72.001312</ele>
        <time>2022-12-17T10:11:16.353Z</time>
      </trkpt>
      <trkpt lat="47.16064" lon="-1.65055">
        <ele>71.966937</ele>
        <time>2022-12-17T10:11:18.363Z</time>
      </trkpt>
      <trkpt lat="47.16057" lon="-1.65067">
        <ele>71.930728</ele>
        <time>2022-12-17T10:11:20.352Z</time>
      </trkpt>
      <trkpt lat="47.16051" lon="-1.6508">
        <ele>71.893489</ele>
        <time>2022-12-17T10:11:22.352Z</time>
      </trkpt>
      <trkpt lat="47.16044" lon="-1.65094">
        <ele>71.853615</ele>
        <time>2022-12-17T10:11:24.355Z</time>
      </trkpt>
      <trkpt lat="47.16037" lon="-1.65107">
        <ele>71.816402</ele>
        <time>2022-12-17T10:11:26.361Z</time>
      </trkpt>
      <trkpt lat="47.16032" lon="-1.6512">
        <ele>71.868558</ele>
        <time>2022-12-17T10:11:28.348Z</time>
      </trkpt>
      <trkpt lat="47.16025" lon="-1.65132">
        <ele>71.953982</ele>
        <time>2022-12-17T10:11:30.352Z</time>
      </trkpt>
      <trkpt lat="47.1602" lon="-1.65143">
        <ele>72.031953</ele>
        <time>2022-12-17T10:11:32.356Z</time>
      </trkpt>
      <trkpt lat="47.16014" lon="-1.65154">
        <ele>72.108502</ele>
        <time>2022-12-17T10:11:34.352Z</time>
      </trkpt>
      <trkpt lat="47.16006" lon="-1.6517">
        <ele>72.217643</ele>
        <time>2022-12-17T10:11:37.355Z</time>
      </trkpt>
      <trkpt lat="47.16001" lon="-1.6518">
        <ele>72.292649</ele>
        <time>2022-12-17T10:11:39.361Z</time>
      </trkpt>
      <trkpt lat="47.15994" lon="-1.65191">
        <ele>72.374086</ele>
        <time>2022-12-17T10:11:41.369Z</time>
      </trkpt>
      <trkpt lat="47.15989" lon="-1.65204">
        <ele>72.458499</ele>
        <time>2022-12-17T10:11:43.350Z</time>
      </trkpt>
      <trkpt lat="47.15983" lon="-1.65216">
        <ele>72.542009</ele>
        <time>2022-12-17T10:11:45.352Z</time>
      </trkpt>
      <trkpt lat="47.15977" lon="-1.65227">
        <ele>72.620587</ele>
        <time>2022-12-17T10:11:47.356Z</time>
      </trkpt>
      <trkpt lat="47.15972" lon="-1.65239">
        <ele>72.698534</ele>
        <time>2022-12-17T10:11:49.367Z</time>
      </trkpt>
      <trkpt lat="47.15966" lon="-1.6525">
        <ele>72.779242</ele>
        <time>2022-12-17T10:11:51.366Z</time>
      </trkpt>
      <trkpt lat="47.15961" lon="-1.65263">
        <ele>72.860952</ele>
        <time>2022-12-17T10:11:53.357Z</time>
      </trkpt>
      <trkpt lat="47.15955" lon="-1.65274">
        <ele>72.941708</ele>
        <time>2022-12-17T10:11:55.352Z</time>
      </trkpt>
      <trkpt lat="47.1595" lon="-1.65286">
        <ele>73.022409</ele>
        <time>2022-12-17T10:11:57.354Z</time>
      </trkpt>
      <trkpt lat="47.15945" lon="-1.65298">
        <ele>73.100917</ele>
        <time>2022-12-17T10:11:59.354Z</time>
      </trkpt>
      <trkpt lat="47.15939" lon="-1.6531">
        <ele>73.179877</ele>
        <time>2022-12-17T10:12:01.353Z</time>
      </trkpt>
      <trkpt lat="47.15933" lon="-1.65321">
        <ele>73.259241</ele>
        <time>2022-12-17T10:12:03.359Z</time>
      </trkpt>
      <trkpt lat="47.15928" lon="-1.65333">
        <ele>73.338911</ele>
        <time>2022-12-17T10:12:05.366Z</time>
      </trkpt>
      <trkpt lat="47.15923" lon="-1.65345">
        <ele>73.416822</ele>
        <time>2022-12-17T10:12:07.359Z</time>
      </trkpt>
      <trkpt lat="47.15917" lon="-1.65357">
        <ele>73.498809</ele>
        <time>2022-12-17T10:12:09.352Z</time>
      </trkpt>
      <trkpt lat="47.15912" lon="-1.65369">
        <ele>73.57805</ele>
        <time>2022-12-17T10:12:11.355Z</time>
      </trkpt>
      <trkpt lat="47.15907" lon="-1.65381">
        <ele>73.655529</ele>
        <time>2022-12-17T10:12:13.364Z</time>
      </trkpt>
      <trkpt lat="47.15902" lon="-1.65392">
        <ele>73.731111</ele>
        <time>2022-12-17T10:12:15.355Z</time>
      </trkpt>
      <trkpt lat="47.15896" lon="-1.65403">
        <ele>73.806736</ele>
        <time>2022-12-17T10:12:17.355Z</time>
      </trkpt>
      <trkpt lat="47.15891" lon="-1.65415">
        <ele>73.884143</ele>
        <time>2022-12-17T10:12:19.373Z</time>
      </trkpt>
      <trkpt lat="47.15885" lon="-1.65427">
        <ele>73.965238</ele>
        <time>2022-12-17T10:12:21.352Z</time>
      </trkpt>
      <trkpt lat="47.1588" lon="-1.65438">
        <ele>74.040812</ele>
        <time>2022-12-17T10:12:23.353Z</time>
      </trkpt>
      <trkpt lat="47.15875" lon="-1.6545">
        <ele>74.117821</ele>
        <time>2022-12-17T10:12:25.355Z</time>
      </trkpt>
      <trkpt lat="47.1587" lon="-1.65462">
        <ele>74.194777</ele>
        <time>2022-12-17T10:12:27.357Z</time>
      </trkpt>
      <trkpt lat="47.15865" lon="-1.65473">
        <ele>74.268619</ele>
        <time>2022-12-17T10:12:29.357Z</time>
      </trkpt>
      <trkpt lat="47.15858" lon="-1.65489">
        <ele>74.375868</ele>
        <time>2022-12-17T10:12:32.352Z</time>
      </trkpt>
      <trkpt lat="47.15853" lon="-1.65501">
        <ele>74.453276</ele>
        <time>2022-12-17T10:12:34.351Z</time>
      </trkpt>
      <trkpt lat="47.15845" lon="-1.65517">
        <ele>74.560912</ele>
        <time>2022-12-17T10:12:37.359Z</time>
      </trkpt>
      <trkpt lat="47.15838" lon="-1.65532">
        <ele>74.659848</ele>
        <time>2022-12-17T10:12:40.353Z</time>
      </trkpt>
      <trkpt lat="47.15833" lon="-1.65547">
        <ele>74.756407</ele>
        <time>2022-12-17T10:12:43.355Z</time>
      </trkpt>
      <trkpt lat="47.15827" lon="-1.65558">
        <ele>74.794532</ele>
        <time>2022-12-17T10:12:45.357Z</time>
      </trkpt>
      <trkpt lat="47.15821" lon="-1.65573">
        <ele>74.847345</ele>
        <time>2022-12-17T10:12:48.354Z</time>
      </trkpt>
      <trkpt lat="47.15814" lon="-1.65589">
        <ele>74.900868</ele>
        <time>2022-12-17T10:12:51.353Z</time>
      </trkpt>
      <trkpt lat="47.15806" lon="-1.65604">
        <ele>74.955112</ele>
        <time>2022-12-17T10:12:54.356Z</time>
      </trkpt>
      <trkpt lat="47.158" lon="-1.65618">
        <ele>75.003186</ele>
        <time>2022-12-17T10:12:57.353Z</time>
      </trkpt>
      <trkpt lat="47.15793" lon="-1.65634">
        <ele>75.054406</ele>
        <time>2022-12-17T10:13:00.359Z</time>
      </trkpt>
      <trkpt lat="47.15786" lon="-1.65649">
        <ele>75.107453</ele>
        <time>2022-12-17T10:13:03.352Z</time>
      </trkpt>
      <trkpt lat="47.15779" lon="-1.65662">
        <ele>75.155104</ele>
        <time>2022-12-17T10:13:06.366Z</time>
      </trkpt>
      <trkpt lat="47.15773" lon="-1.65675">
        <ele>75.199431</ele>
        <time>2022-12-17T10:13:09.359Z</time>
      </trkpt>
      <trkpt lat="47.15768" lon="-1.65687">
        <ele>75.240635</ele>
        <time>2022-12-17T10:13:12.354Z</time>
      </trkpt>
      <trkpt lat="47.15761" lon="-1.65701">
        <ele>75.291082</ele>
        <time>2022-12-17T10:13:16.366Z</time>
      </trkpt>
      <trkpt lat="47.15751" lon="-1.6571">
        <ele>75.341324</ele>
        <time>2022-12-17T10:13:19.464Z</time>
      </trkpt>
      <trkpt lat="47.15741" lon="-1.65721">
        <ele>75.392781</ele>
        <time>2022-12-17T10:13:22.357Z</time>
      </trkpt>
      <trkpt lat="47.15731" lon="-1.65733">
        <ele>75.445383</ele>
        <time>2022-12-17T10:13:25.354Z</time>
      </trkpt>
      <trkpt lat="47.15722" lon="-1.65743">
        <ele>75.49594</ele>
        <time>2022-12-17T10:13:28.371Z</time>
      </trkpt>
      <trkpt lat="47.15713" lon="-1.65754">
        <ele>75.47058</ele>
        <time>2022-12-17T10:13:31.370Z</time>
      </trkpt>
      <trkpt lat="47.15702" lon="-1.65765">
        <ele>75.395047</ele>
        <time>2022-12-17T10:13:34.374Z</time>
      </trkpt>
      <trkpt lat="47.15695" lon="-1.65774">
        <ele>75.341696</ele>
        <time>2022-12-17T10:13:36.423Z</time>
      </trkpt>
      <trkpt lat="47.15688" lon="-1.65783">
        <ele>75.284805</ele>
        <time>2022-12-17T10:13:38.376Z</time>
      </trkpt>
      <trkpt lat="47.15677" lon="-1.65795">
        <ele>75.206229</ele>
        <time>2022-12-17T10:13:41.361Z</time>
      </trkpt>
      <trkpt lat="47.15667" lon="-1.65806">
        <ele>75.133482</ele>
        <time>2022-12-17T10:13:44.374Z</time>
      </trkpt>
      <trkpt lat="47.1566" lon="-1.65815">
        <ele>75.079431</ele>
        <time>2022-12-17T10:13:46.373Z</time>
      </trkpt>
      <trkpt lat="47.15652" lon="-1.65822">
        <ele>75.025818</ele>
        <time>2022-12-17T10:13:48.374Z</time>
      </trkpt>
      <trkpt lat="47.15642" lon="-1.65835">
        <ele>74.948097</ele>
        <time>2022-12-17T10:13:51.370Z</time>
      </trkpt>
      <trkpt lat="47.15634" lon="-1.65843">
        <ele>74.893303</ele>
        <time>2022-12-17T10:13:53.420Z</time>
      </trkpt>
      <trkpt lat="47.15624" lon="-1.65856">
        <ele>74.814431</ele>
        <time>2022-12-17T10:13:56.374Z</time>
      </trkpt>
      <trkpt lat="47.15616" lon="-1.65864">
        <ele>74.761809</ele>
        <time>2022-12-17T10:13:58.375Z</time>
      </trkpt>
      <trkpt lat="47.15606" lon="-1.65875">
        <ele>74.684408</ele>
        <time>2022-12-17T10:14:01.373Z</time>
      </trkpt>
      <trkpt lat="47.15595" lon="-1.65887">
        <ele>74.609528</ele>
        <time>2022-12-17T10:14:04.355Z</time>
      </trkpt>
      <trkpt lat="47.15589" lon="-1.65896">
        <ele>74.556684</ele>
        <time>2022-12-17T10:14:06.363Z</time>
      </trkpt>
      <trkpt lat="47.15578" lon="-1.65908">
        <ele>74.47788</ele>
        <time>2022-12-17T10:14:09.431Z</time>
      </trkpt>
      <trkpt lat="47.1557" lon="-1.65916">
        <ele>74.50587</ele>
        <time>2022-12-17T10:14:11.371Z</time>
      </trkpt>
      <trkpt lat="47.15559" lon="-1.65928">
        <ele>74.56952</ele>
        <time>2022-12-17T10:14:14.371Z</time>
      </trkpt>
      <trkpt lat="47.15551" lon="-1.65936">
        <ele>74.61183</ele>
        <time>2022-12-17T10:14:16.354Z</time>
      </trkpt>
      <trkpt lat="47.15542" lon="-1.65947">
        <ele>74.669198</ele>
        <time>2022-12-17T10:14:19.370Z</time>
      </trkpt>
      <trkpt lat="47.15532" lon="-1.6596">
        <ele>74.728474</ele>
        <time>2022-12-17T10:14:22.352Z</time>
      </trkpt>
      <trkpt lat="47.15524" lon="-1.65969">
        <ele>74.774124</ele>
        <time>2022-12-17T10:14:24.372Z</time>
      </trkpt>
      <trkpt lat="47.15517" lon="-1.65978">
        <ele>74.816404</ele>
        <time>2022-12-17T10:14:26.371Z</time>
      </trkpt>
      <trkpt lat="47.1551" lon="-1.65986">
        <ele>74.857993</ele>
        <time>2022-12-17T10:14:28.371Z</time>
      </trkpt>
      <trkpt lat="47.155" lon="-1.65998">
        <ele>74.919083</ele>
        <time>2022-12-17T10:14:31.370Z</time>
      </trkpt>
      <trkpt lat="47.15492" lon="-1.66007">
        <ele>74.963283</ele>
        <time>2022-12-17T10:14:33.366Z</time>
      </trkpt>
      <trkpt lat="47.15484" lon="-1.66016">
        <ele>75.008762</ele>
        <time>2022-12-17T10:14:35.373Z</time>
      </trkpt>
      <trkpt lat="47.15477" lon="-1.66024">
        <ele>75.051815</ele>
        <time>2022-12-17T10:14:37.370Z</time>
      </trkpt>
      <trkpt lat="47.1547" lon="-1.66032">
        <ele>75.093959</ele>
        <time>2022-12-17T10:14:39.356Z</time>
      </trkpt>
      <trkpt lat="47.15462" lon="-1.66041">
        <ele>75.140352</ele>
        <time>2022-12-17T10:14:41.374Z</time>
      </trkpt>
      <trkpt lat="47.15454" lon="-1.6605">
        <ele>75.186024</ele>
        <time>2022-12-17T10:14:43.378Z</time>
      </trkpt>
      <trkpt lat="47.15443" lon="-1.66062">
        <ele>75.246172</ele>
        <time>2022-12-17T10:14:46.374Z</time>
      </trkpt>
      <trkpt lat="47.15436" lon="-1.6607">
        <ele>75.288482</ele>
        <time>2022-12-17T10:14:48.360Z</time>
      </trkpt>
      <trkpt lat="47.15426" lon="-1.66082">
        <ele>75.376185</ele>
        <time>2022-12-17T10:14:51.372Z</time>
      </trkpt>
      <trkpt lat="47.15416" lon="-1.66093">
        <ele>75.464091</ele>
        <time>2022-12-17T10:14:54.373Z</time>
      </trkpt>
      <trkpt lat="47.15406" lon="-1.66104">
        <ele>75.550219</ele>
        <time>2022-12-17T10:14:57.371Z</time>
      </trkpt>
      <trkpt lat="47.15396" lon="-1.66117">
        <ele>75.645552</ele>
        <time>2022-12-17T10:15:00.375Z</time>
      </trkpt>
      <trkpt lat="47.15389" lon="-1.66126">
        <ele>75.712096</ele>
        <time>2022-12-17T10:15:02.383Z</time>
      </trkpt>
      <trkpt lat="47.15381" lon="-1.66134">
        <ele>75.778336</ele>
        <time>2022-12-17T10:15:04.359Z</time>
      </trkpt>
      <trkpt lat="47.15374" lon="-1.66143">
        <ele>75.846478</ele>
        <time>2022-12-17T10:15:06.371Z</time>
      </trkpt>
      <trkpt lat="47.15364" lon="-1.66156">
        <ele>75.939848</ele>
        <time>2022-12-17T10:15:09.375Z</time>
      </trkpt>
      <trkpt lat="47.15354" lon="-1.66168">
        <ele>76.029589</ele>
        <time>2022-12-17T10:15:12.374Z</time>
      </trkpt>
      <trkpt lat="47.15344" lon="-1.66179">
        <ele>76.119125</ele>
        <time>2022-12-17T10:15:15.352Z</time>
      </trkpt>
      <trkpt lat="47.15336" lon="-1.6619">
        <ele>76.199582</ele>
        <time>2022-12-17T10:15:18.368Z</time>
      </trkpt>
      <trkpt lat="47.15328" lon="-1.66201">
        <ele>76.273139</ele>
        <time>2022-12-17T10:15:21.381Z</time>
      </trkpt>
      <trkpt lat="47.15321" lon="-1.66212">
        <ele>76.343402</ele>
        <time>2022-12-17T10:15:24.371Z</time>
      </trkpt>
      <trkpt lat="47.15315" lon="-1.66226">
        <ele>76.426357</ele>
        <time>2022-12-17T10:15:28.373Z</time>
      </trkpt>
      <trkpt lat="47.15309" lon="-1.66238">
        <ele>76.498564</ele>
        <time>2022-12-17T10:15:32.358Z</time>
      </trkpt>
      <trkpt lat="47.15305" lon="-1.66251">
        <ele>76.563093</ele>
        <time>2022-12-17T10:16:45.370Z</time>
      </trkpt>
      <trkpt lat="47.15297" lon="-1.66262">
        <ele>76.572408</ele>
        <time>2022-12-17T10:16:50.352Z</time>
      </trkpt>
      <trkpt lat="47.1529" lon="-1.66273">
        <ele>76.578193</ele>
        <time>2022-12-17T10:16:53.352Z</time>
      </trkpt>
      <trkpt lat="47.15283" lon="-1.66287">
        <ele>76.584986</ele>
        <time>2022-12-17T10:16:56.369Z</time>
      </trkpt>
      <trkpt lat="47.15276" lon="-1.66304">
        <ele>76.592456</ele>
        <time>2022-12-17T10:16:59.355Z</time>
      </trkpt>
      <trkpt lat="47.15271" lon="-1.66315">
        <ele>76.597657</ele>
        <time>2022-12-17T10:17:01.358Z</time>
      </trkpt>
      <trkpt lat="47.15263" lon="-1.66331">
        <ele>76.605265</ele>
        <time>2022-12-17T10:17:04.353Z</time>
      </trkpt>
      <trkpt lat="47.15255" lon="-1.66347">
        <ele>76.612721</ele>
        <time>2022-12-17T10:17:07.372Z</time>
      </trkpt>
      <trkpt lat="47.15248" lon="-1.66362">
        <ele>76.619922</ele>
        <time>2022-12-17T10:17:10.352Z</time>
      </trkpt>
      <trkpt lat="47.1524" lon="-1.66377">
        <ele>76.626964</ele>
        <time>2022-12-17T10:17:13.349Z</time>
      </trkpt>
      <trkpt lat="47.15232" lon="-1.66393">
        <ele>76.634479</ele>
        <time>2022-12-17T10:17:16.369Z</time>
      </trkpt>
      <trkpt lat="47.15225" lon="-1.66409">
        <ele>76.641837</ele>
        <time>2022-12-17T10:17:19.375Z</time>
      </trkpt>
      <trkpt lat="47.15217" lon="-1.66424">
        <ele>76.649411</ele>
        <time>2022-12-17T10:17:22.358Z</time>
      </trkpt>
      <trkpt lat="47.15209" lon="-1.6644">
        <ele>76.656962</ele>
        <time>2022-12-17T10:17:25.351Z</time>
      </trkpt>
      <trkpt lat="47.152" lon="-1.66456">
        <ele>76.66465</ele>
        <time>2022-12-17T10:17:28.362Z</time>
      </trkpt>
      <trkpt lat="47.15194" lon="-1.66469">
        <ele>76.606257</ele>
        <time>2022-12-17T10:17:31.353Z</time>
      </trkpt>
      <trkpt lat="47.15187" lon="-1.66485">
        <ele>76.476339</ele>
        <time>2022-12-17T10:17:34.352Z</time>
      </trkpt>
      <trkpt lat="47.1518" lon="-1.66498">
        <ele>76.357489</ele>
        <time>2022-12-17T10:17:37.351Z</time>
      </trkpt>
      <trkpt lat="47.15173" lon="-1.6651">
        <ele>76.249468</ele>
        <time>2022-12-17T10:17:40.352Z</time>
      </trkpt>
      <trkpt lat="47.15168" lon="-1.66522">
        <ele>76.150472</ele>
        <time>2022-12-17T10:17:43.358Z</time>
      </trkpt>
      <trkpt lat="47.15164" lon="-1.66537">
        <ele>76.032729</ele>
        <time>2022-12-17T10:17:46.354Z</time>
      </trkpt>
      <trkpt lat="47.15158" lon="-1.66554">
        <ele>75.897179</ele>
        <time>2022-12-17T10:17:49.373Z</time>
      </trkpt>
      <trkpt lat="47.15153" lon="-1.66566">
        <ele>75.796477</ele>
        <time>2022-12-17T10:17:51.373Z</time>
      </trkpt>
      <trkpt lat="47.15147" lon="-1.66577">
        <ele>75.696772</ele>
        <time>2022-12-17T10:17:53.351Z</time>
      </trkpt>
      <trkpt lat="47.1514" lon="-1.66593">
        <ele>75.560969</ele>
        <time>2022-12-17T10:17:56.351Z</time>
      </trkpt>
      <trkpt lat="47.15133" lon="-1.66609">
        <ele>75.431614</ele>
        <time>2022-12-17T10:17:59.354Z</time>
      </trkpt>
      <trkpt lat="47.15125" lon="-1.66624">
        <ele>75.29465</ele>
        <time>2022-12-17T10:18:02.356Z</time>
      </trkpt>
      <trkpt lat="47.15118" lon="-1.66641">
        <ele>75.154193</ele>
        <time>2022-12-17T10:18:05.365Z</time>
      </trkpt>
      <trkpt lat="47.15112" lon="-1.66652">
        <ele>75.057627</ele>
        <time>2022-12-17T10:18:07.362Z</time>
      </trkpt>
      <trkpt lat="47.15107" lon="-1.66664">
        <ele>74.957548</ele>
        <time>2022-12-17T10:18:09.352Z</time>
      </trkpt>
      <trkpt lat="47.15101" lon="-1.66676">
        <ele>74.855712</ele>
        <time>2022-12-17T10:18:11.351Z</time>
      </trkpt>
      <trkpt lat="47.15096" lon="-1.66687">
        <ele>74.738875</ele>
        <time>2022-12-17T10:18:13.352Z</time>
      </trkpt>
      <trkpt lat="47.15091" lon="-1.66699">
        <ele>74.595553</ele>
        <time>2022-12-17T10:18:15.352Z</time>
      </trkpt>
      <trkpt lat="47.15085" lon="-1.6671">
        <ele>74.451311</ele>
        <time>2022-12-17T10:18:17.352Z</time>
      </trkpt>
      <trkpt lat="47.1508" lon="-1.66721">
        <ele>74.313854</ele>
        <time>2022-12-17T10:18:19.352Z</time>
      </trkpt>
      <trkpt lat="47.15071" lon="-1.66734">
        <ele>74.1184</ele>
        <time>2022-12-17T10:18:22.355Z</time>
      </trkpt>
      <trkpt lat="47.15061" lon="-1.66746">
        <ele>73.933405</ele>
        <time>2022-12-17T10:18:25.359Z</time>
      </trkpt>
      <trkpt lat="47.15051" lon="-1.66754">
        <ele>73.752911</ele>
        <time>2022-12-17T10:18:28.356Z</time>
      </trkpt>
      <trkpt lat="47.15042" lon="-1.66763">
        <ele>73.58259</ele>
        <time>2022-12-17T10:18:31.353Z</time>
      </trkpt>
      <trkpt lat="47.15031" lon="-1.66773">
        <ele>73.397306</ele>
        <time>2022-12-17T10:18:34.356Z</time>
      </trkpt>
      <trkpt lat="47.15023" lon="-1.66789">
        <ele>73.1954</ele>
        <time>2022-12-17T10:18:37.353Z</time>
      </trkpt>
      <trkpt lat="47.15017" lon="-1.668">
        <ele>73.050991</ele>
        <time>2022-12-17T10:18:39.369Z</time>
      </trkpt>
      <trkpt lat="47.15012" lon="-1.6681">
        <ele>72.913532</ele>
        <time>2022-12-17T10:18:41.351Z</time>
      </trkpt>
      <trkpt lat="47.15006" lon="-1.66821">
        <ele>72.769123</ele>
        <time>2022-12-17T10:18:43.359Z</time>
      </trkpt>
      <trkpt lat="47.14999" lon="-1.66831">
        <ele>72.628521</ele>
        <time>2022-12-17T10:18:45.364Z</time>
      </trkpt>
      <trkpt lat="47.14988" lon="-1.6684">
        <ele>72.438142</ele>
        <time>2022-12-17T10:18:48.356Z</time>
      </trkpt>
      <trkpt lat="47.14977" lon="-1.66849">
        <ele>72.243196</ele>
        <time>2022-12-17T10:18:51.354Z</time>
      </trkpt>
      <trkpt lat="47.14965" lon="-1.66858">
        <ele>72.054574</ele>
        <time>2022-12-17T10:18:54.348Z</time>
      </trkpt>
      <trkpt lat="47.14954" lon="-1.66868">
        <ele>71.968046</ele>
        <time>2022-12-17T10:18:57.360Z</time>
      </trkpt>
      <trkpt lat="47.14943" lon="-1.66878">
        <ele>71.883625</ele>
        <time>2022-12-17T10:19:00.354Z</time>
      </trkpt>
      <trkpt lat="47.14935" lon="-1.66885">
        <ele>71.823104</ele>
        <time>2022-12-17T10:19:02.380Z</time>
      </trkpt>
      <trkpt lat="47.14924" lon="-1.66894">
        <ele>71.739257</ele>
        <time>2022-12-17T10:19:05.355Z</time>
      </trkpt>
      <trkpt lat="47.14912" lon="-1.669">
        <ele>71.654886</ele>
        <time>2022-12-17T10:19:08.354Z</time>
      </trkpt>
      <trkpt lat="47.14899" lon="-1.669">
        <ele>71.574934</ele>
        <time>2022-12-17T10:19:11.354Z</time>
      </trkpt>
      <trkpt lat="47.14888" lon="-1.669">
        <ele>71.498904</ele>
        <time>2022-12-17T10:19:14.370Z</time>
      </trkpt>
      <trkpt lat="47.14876" lon="-1.66902">
        <ele>71.422856</ele>
        <time>2022-12-17T10:19:17.350Z</time>
      </trkpt>
      <trkpt lat="47.14864" lon="-1.66907">
        <ele>71.340963</ele>
        <time>2022-12-17T10:19:20.353Z</time>
      </trkpt>
      <trkpt lat="47.14855" lon="-1.66911">
        <ele>71.279578</ele>
        <time>2022-12-17T10:19:22.355Z</time>
      </trkpt>
      <trkpt lat="47.14846" lon="-1.66915">
        <ele>71.218331</ele>
        <time>2022-12-17T10:19:24.353Z</time>
      </trkpt>
      <trkpt lat="47.14836" lon="-1.6692">
        <ele>71.150562</ele>
        <time>2022-12-17T10:19:26.368Z</time>
      </trkpt>
      <trkpt lat="47.14827" lon="-1.66924">
        <ele>71.086057</ele>
        <time>2022-12-17T10:19:28.355Z</time>
      </trkpt>
      <trkpt lat="47.14818" lon="-1.66927">
        <ele>71.025169</ele>
        <time>2022-12-17T10:19:30.355Z</time>
      </trkpt>
      <trkpt lat="47.14809" lon="-1.66932">
        <ele>70.962259</ele>
        <time>2022-12-17T10:19:32.359Z</time>
      </trkpt>
      <trkpt lat="47.14797" lon="-1.66938">
        <ele>70.878261</ele>
        <time>2022-12-17T10:19:35.370Z</time>
      </trkpt>
      <trkpt lat="47.14785" lon="-1.66943">
        <ele>70.789506</ele>
        <time>2022-12-17T10:19:38.353Z</time>
      </trkpt>
      <trkpt lat="47.14772" lon="-1.66948">
        <ele>70.698896</ele>
        <time>2022-12-17T10:19:41.354Z</time>
      </trkpt>
      <trkpt lat="47.14763" lon="-1.66951">
        <ele>70.632196</ele>
        <time>2022-12-17T10:19:43.358Z</time>
      </trkpt>
      <trkpt lat="47.14753" lon="-1.66955">
        <ele>70.56424</ele>
        <time>2022-12-17T10:19:45.359Z</time>
      </trkpt>
      <trkpt lat="47.14744" lon="-1.66958">
        <ele>70.499881</ele>
        <time>2022-12-17T10:19:47.358Z</time>
      </trkpt>
      <trkpt lat="47.14735" lon="-1.66962">
        <ele>70.433215</ele>
        <time>2022-12-17T10:19:49.354Z</time>
      </trkpt>
      <trkpt lat="47.14725" lon="-1.66967">
        <ele>70.362646</ele>
        <time>2022-12-17T10:19:51.360Z</time>
      </trkpt>
      <trkpt lat="47.14716" lon="-1.66971">
        <ele>70.29389</ele>
        <time>2022-12-17T10:19:53.358Z</time>
      </trkpt>
      <trkpt lat="47.14707" lon="-1.66976">
        <ele>70.226408</ele>
        <time>2022-12-17T10:19:55.354Z</time>
      </trkpt>
      <trkpt lat="47.14698" lon="-1.66979">
        <ele>70.160842</ele>
        <time>2022-12-17T10:19:57.376Z</time>
      </trkpt>
      <trkpt lat="47.14688" lon="-1.66985">
        <ele>70.087513</ele>
        <time>2022-12-17T10:19:59.357Z</time>
      </trkpt>
      <trkpt lat="47.14678" lon="-1.66989">
        <ele>70.019066</ele>
        <time>2022-12-17T10:20:01.350Z</time>
      </trkpt>
      <trkpt lat="47.14668" lon="-1.66994">
        <ele>69.945716</ele>
        <time>2022-12-17T10:20:03.356Z</time>
      </trkpt>
      <trkpt lat="47.14659" lon="-1.66999">
        <ele>69.879481</ele>
        <time>2022-12-17T10:20:05.377Z</time>
      </trkpt>
      <trkpt lat="47.14647" lon="-1.67004">
        <ele>69.791529</ele>
        <time>2022-12-17T10:20:08.355Z</time>
      </trkpt>
      <trkpt lat="47.14635" lon="-1.67009">
        <ele>69.707449</ele>
        <time>2022-12-17T10:20:11.352Z</time>
      </trkpt>
      <trkpt lat="47.14623" lon="-1.67011">
        <ele>69.599658</ele>
        <time>2022-12-17T10:20:14.353Z</time>
      </trkpt>
      <trkpt lat="47.14614" lon="-1.67006">
        <ele>69.430811</ele>
        <time>2022-12-17T10:20:17.354Z</time>
      </trkpt>
      <trkpt lat="47.14606" lon="-1.66999">
        <ele>69.282483</ele>
        <time>2022-12-17T10:20:20.355Z</time>
      </trkpt>
      <trkpt lat="47.146" lon="-1.66987">
        <ele>69.118933</ele>
        <time>2022-12-17T10:20:25.355Z</time>
      </trkpt>
      <trkpt lat="47.14595" lon="-1.66965">
        <ele>68.85248</ele>
        <time>2022-12-17T10:20:47.368Z</time>
      </trkpt>
      <trkpt lat="47.14591" lon="-1.66951">
        <ele>68.686636</ele>
        <time>2022-12-17T10:20:50.353Z</time>
      </trkpt>
      <trkpt lat="47.14587" lon="-1.66937">
        <ele>68.517538</ele>
        <time>2022-12-17T10:20:53.354Z</time>
      </trkpt>
      <trkpt lat="47.14582" lon="-1.66921">
        <ele>68.323734</ele>
        <time>2022-12-17T10:20:57.355Z</time>
      </trkpt>
      <trkpt lat="47.14573" lon="-1.66916">
        <ele>68.169781</ele>
        <time>2022-12-17T10:21:01.354Z</time>
      </trkpt>
      <trkpt lat="47.14563" lon="-1.6692">
        <ele>67.992301</ele>
        <time>2022-12-17T10:21:04.354Z</time>
      </trkpt>
      <trkpt lat="47.14551" lon="-1.66927">
        <ele>67.78333</ele>
        <time>2022-12-17T10:21:07.353Z</time>
      </trkpt>
      <trkpt lat="47.1454" lon="-1.66936">
        <ele>67.56935</ele>
        <time>2022-12-17T10:21:10.359Z</time>
      </trkpt>
      <trkpt lat="47.14528" lon="-1.66946">
        <ele>67.344489</ele>
        <time>2022-12-17T10:21:13.352Z</time>
      </trkpt>
      <trkpt lat="47.1452" lon="-1.66954">
        <ele>67.190172</ele>
        <time>2022-12-17T10:21:15.350Z</time>
      </trkpt>
      <trkpt lat="47.14513" lon="-1.66963">
        <ele>67.036132</ele>
        <time>2022-12-17T10:21:17.377Z</time>
      </trkpt>
      <trkpt lat="47.14505" lon="-1.66978">
        <ele>66.814298</ele>
        <time>2022-12-17T10:21:20.361Z</time>
      </trkpt>
      <trkpt lat="47.145" lon="-1.6699">
        <ele>66.667643</ele>
        <time>2022-12-17T10:21:22.356Z</time>
      </trkpt>
      <trkpt lat="47.14493" lon="-1.67006">
        <ele>66.61915</ele>
        <time>2022-12-17T10:21:25.357Z</time>
      </trkpt>
      <trkpt lat="47.14486" lon="-1.67022">
        <ele>66.569686</ele>
        <time>2022-12-17T10:21:28.350Z</time>
      </trkpt>
      <trkpt lat="47.14477" lon="-1.67037">
        <ele>66.520238</ele>
        <time>2022-12-17T10:21:31.352Z</time>
      </trkpt>
      <trkpt lat="47.14469" lon="-1.67046">
        <ele>66.48351</ele>
        <time>2022-12-17T10:21:33.350Z</time>
      </trkpt>
      <trkpt lat="47.14461" lon="-1.67055">
        <ele>66.445815</ele>
        <time>2022-12-17T10:21:35.353Z</time>
      </trkpt>
      <trkpt lat="47.1445" lon="-1.67065">
        <ele>66.39705</ele>
        <time>2022-12-17T10:21:38.370Z</time>
      </trkpt>
      <trkpt lat="47.14442" lon="-1.67071">
        <ele>66.362021</ele>
        <time>2022-12-17T10:21:40.359Z</time>
      </trkpt>
      <trkpt lat="47.14433" lon="-1.67078">
        <ele>66.325061</ele>
        <time>2022-12-17T10:21:42.389Z</time>
      </trkpt>
      <trkpt lat="47.14424" lon="-1.67085">
        <ele>66.28589</ele>
        <time>2022-12-17T10:21:44.353Z</time>
      </trkpt>
      <trkpt lat="47.14414" lon="-1.67091">
        <ele>66.247357</ele>
        <time>2022-12-17T10:21:46.350Z</time>
      </trkpt>
      <trkpt lat="47.14404" lon="-1.67097">
        <ele>66.20896</ele>
        <time>2022-12-17T10:21:48.352Z</time>
      </trkpt>
      <trkpt lat="47.14395" lon="-1.67104">
        <ele>66.16869</ele>
        <time>2022-12-17T10:21:50.360Z</time>
      </trkpt>
      <trkpt lat="47.14386" lon="-1.67111">
        <ele>66.130532</ele>
        <time>2022-12-17T10:21:52.365Z</time>
      </trkpt>
      <trkpt lat="47.14376" lon="-1.67117">
        <ele>66.092032</ele>
        <time>2022-12-17T10:21:54.362Z</time>
      </trkpt>
      <trkpt lat="47.14367" lon="-1.67124">
        <ele>66.052644</ele>
        <time>2022-12-17T10:21:56.356Z</time>
      </trkpt>
      <trkpt lat="47.14358" lon="-1.67131">
        <ele>66.015437</ele>
        <time>2022-12-17T10:21:58.359Z</time>
      </trkpt>
      <trkpt lat="47.14349" lon="-1.67138">
        <ele>65.914708</ele>
        <time>2022-12-17T10:22:00.360Z</time>
      </trkpt>
      <trkpt lat="47.1434" lon="-1.67144">
        <ele>65.778349</ele>
        <time>2022-12-17T10:22:02.366Z</time>
      </trkpt>
      <trkpt lat="47.14332" lon="-1.67151">
        <ele>65.641553</ele>
        <time>2022-12-17T10:22:04.354Z</time>
      </trkpt>
      <trkpt lat="47.14323" lon="-1.67157">
        <ele>65.500983</ele>
        <time>2022-12-17T10:22:06.356Z</time>
      </trkpt>
      <trkpt lat="47.14313" lon="-1.67164">
        <ele>65.357885</ele>
        <time>2022-12-17T10:22:08.360Z</time>
      </trkpt>
      <trkpt lat="47.14304" lon="-1.6717">
        <ele>65.218045</ele>
        <time>2022-12-17T10:22:10.371Z</time>
      </trkpt>
      <trkpt lat="47.14295" lon="-1.67175">
        <ele>65.077671</ele>
        <time>2022-12-17T10:22:12.359Z</time>
      </trkpt>
      <trkpt lat="47.14286" lon="-1.67181">
        <ele>64.942462</ele>
        <time>2022-12-17T10:22:14.361Z</time>
      </trkpt>
      <trkpt lat="47.14277" lon="-1.67188">
        <ele>64.80099</ele>
        <time>2022-12-17T10:22:16.357Z</time>
      </trkpt>
      <trkpt lat="47.14268" lon="-1.67194">
        <ele>64.658289</ele>
        <time>2022-12-17T10:22:18.361Z</time>
      </trkpt>
      <trkpt lat="47.1426" lon="-1.67201">
        <ele>64.527753</ele>
        <time>2022-12-17T10:22:20.362Z</time>
      </trkpt>
      <trkpt lat="47.1425" lon="-1.67209">
        <ele>64.363513</ele>
        <time>2022-12-17T10:22:23.360Z</time>
      </trkpt>
      <trkpt lat="47.14239" lon="-1.67215">
        <ele>64.204619</ele>
        <time>2022-12-17T10:22:26.355Z</time>
      </trkpt>
      <trkpt lat="47.14229" lon="-1.67222">
        <ele>64.044258</ele>
        <time>2022-12-17T10:22:29.362Z</time>
      </trkpt>
      <trkpt lat="47.14219" lon="-1.67229">
        <ele>63.883032</ele>
        <time>2022-12-17T10:22:32.403Z</time>
      </trkpt>
      <trkpt lat="47.1421" lon="-1.67239">
        <ele>63.736322</ele>
        <time>2022-12-17T10:22:35.373Z</time>
      </trkpt>
      <trkpt lat="47.1421" lon="-1.67252">
        <ele>63.603386</ele>
        <time>2022-12-17T10:22:38.368Z</time>
      </trkpt>
      <trkpt lat="47.14217" lon="-1.67268">
        <ele>63.485372</ele>
        <time>2022-12-17T10:22:41.354Z</time>
      </trkpt>
      <trkpt lat="47.14224" lon="-1.67285">
        <ele>63.546463</ele>
        <time>2022-12-17T10:22:44.366Z</time>
      </trkpt>
      <trkpt lat="47.14229" lon="-1.67297">
        <ele>63.588459</ele>
        <time>2022-12-17T10:22:46.353Z</time>
      </trkpt>
      <trkpt lat="47.14233" lon="-1.67308">
        <ele>63.629984</ele>
        <time>2022-12-17T10:22:48.360Z</time>
      </trkpt>
      <trkpt lat="47.14238" lon="-1.67321">
        <ele>63.674025</ele>
        <time>2022-12-17T10:22:50.370Z</time>
      </trkpt>
      <trkpt lat="47.14244" lon="-1.67333">
        <ele>63.717283</ele>
        <time>2022-12-17T10:22:52.373Z</time>
      </trkpt>
      <trkpt lat="47.14249" lon="-1.67345">
        <ele>63.7608</ele>
        <time>2022-12-17T10:22:54.361Z</time>
      </trkpt>
      <trkpt lat="47.14253" lon="-1.67357">
        <ele>63.802651</ele>
        <time>2022-12-17T10:22:56.361Z</time>
      </trkpt>
      <trkpt lat="47.14257" lon="-1.67368">
        <ele>63.843947</ele>
        <time>2022-12-17T10:22:58.370Z</time>
      </trkpt>
      <trkpt lat="47.14262" lon="-1.6738">
        <ele>63.886169</ele>
        <time>2022-12-17T10:23:00.361Z</time>
      </trkpt>
      <trkpt lat="47.14267" lon="-1.67391">
        <ele>63.927694</ele>
        <time>2022-12-17T10:23:02.365Z</time>
      </trkpt>
      <trkpt lat="47.14272" lon="-1.67404">
        <ele>63.971799</ele>
        <time>2022-12-17T10:23:04.360Z</time>
      </trkpt>
      <trkpt lat="47.14277" lon="-1.67416">
        <ele>64.014295</ele>
        <time>2022-12-17T10:23:06.357Z</time>
      </trkpt>
      <trkpt lat="47.14281" lon="-1.67428">
        <ele>64.056764</ele>
        <time>2022-12-17T10:23:08.356Z</time>
      </trkpt>
      <trkpt lat="47.14285" lon="-1.67441">
        <ele>64.100846</ele>
        <time>2022-12-17T10:23:10.369Z</time>
      </trkpt>
      <trkpt lat="47.14289" lon="-1.67454">
        <ele>64.144</ele>
        <time>2022-12-17T10:23:12.353Z</time>
      </trkpt>
      <trkpt lat="47.14294" lon="-1.67467">
        <ele>64.189189</ele>
        <time>2022-12-17T10:23:14.355Z</time>
      </trkpt>
      <trkpt lat="47.14298" lon="-1.6748">
        <ele>64.233818</ele>
        <time>2022-12-17T10:23:16.362Z</time>
      </trkpt>
      <trkpt lat="47.14302" lon="-1.67493">
        <ele>64.277419</ele>
        <time>2022-12-17T10:23:18.355Z</time>
      </trkpt>
      <trkpt lat="47.14304" lon="-1.67507">
        <ele>64.183047</ele>
        <time>2022-12-17T10:23:20.356Z</time>
      </trkpt>
      <trkpt lat="47.14306" lon="-1.67521">
        <ele>64.07151</ele>
        <time>2022-12-17T10:23:22.381Z</time>
      </trkpt>
      <trkpt lat="47.14308" lon="-1.67535">
        <ele>63.950902</ele>
        <time>2022-12-17T10:23:24.360Z</time>
      </trkpt>
      <trkpt lat="47.1431" lon="-1.67549">
        <ele>63.83296</ele>
        <time>2022-12-17T10:23:26.359Z</time>
      </trkpt>
      <trkpt lat="47.14313" lon="-1.67564">
        <ele>63.709709</ele>
        <time>2022-12-17T10:23:28.371Z</time>
      </trkpt>
      <trkpt lat="47.14314" lon="-1.67579">
        <ele>63.586701</ele>
        <time>2022-12-17T10:23:30.373Z</time>
      </trkpt>
      <trkpt lat="47.14314" lon="-1.67592">
        <ele>63.472855</ele>
        <time>2022-12-17T10:23:32.352Z</time>
      </trkpt>
      <trkpt lat="47.14315" lon="-1.67607">
        <ele>63.355142</ele>
        <time>2022-12-17T10:23:34.353Z</time>
      </trkpt>
      <trkpt lat="47.14317" lon="-1.6762">
        <ele>63.24251</ele>
        <time>2022-12-17T10:23:36.359Z</time>
      </trkpt>
      <trkpt lat="47.14317" lon="-1.67634">
        <ele>63.126952</ele>
        <time>2022-12-17T10:23:38.358Z</time>
      </trkpt>
      <trkpt lat="47.14318" lon="-1.67648">
        <ele>63.012364</ele>
        <time>2022-12-17T10:23:40.349Z</time>
      </trkpt>
      <trkpt lat="47.1432" lon="-1.67662">
        <ele>62.895224</ele>
        <time>2022-12-17T10:23:42.375Z</time>
      </trkpt>
      <trkpt lat="47.14323" lon="-1.67676">
        <ele>62.781551</ele>
        <time>2022-12-17T10:23:44.367Z</time>
      </trkpt>
      <trkpt lat="47.14326" lon="-1.67689">
        <ele>62.663323</ele>
        <time>2022-12-17T10:23:46.366Z</time>
      </trkpt>
      <trkpt lat="47.14329" lon="-1.67703">
        <ele>62.541596</ele>
        <time>2022-12-17T10:23:48.358Z</time>
      </trkpt>
      <trkpt lat="47.14332" lon="-1.67716">
        <ele>62.431879</ele>
        <time>2022-12-17T10:23:50.373Z</time>
      </trkpt>
      <trkpt lat="47.14337" lon="-1.67732">
        <ele>62.285682</ele>
        <time>2022-12-17T10:23:53.361Z</time>
      </trkpt>
      <trkpt lat="47.14342" lon="-1.67748">
        <ele>62.142987</ele>
        <time>2022-12-17T10:23:56.354Z</time>
      </trkpt>
      <trkpt lat="47.14346" lon="-1.67765">
        <ele>62.09018</ele>
        <time>2022-12-17T10:23:59.370Z</time>
      </trkpt>
      <trkpt lat="47.1435" lon="-1.6778">
        <ele>62.056305</ele>
        <time>2022-12-17T10:24:02.366Z</time>
      </trkpt>
      <trkpt lat="47.14355" lon="-1.67797">
        <ele>62.020665</ele>
        <time>2022-12-17T10:24:05.368Z</time>
      </trkpt>
      <trkpt lat="47.1436" lon="-1.67814">
        <ele>61.983624</ele>
        <time>2022-12-17T10:24:08.365Z</time>
      </trkpt>
      <trkpt lat="47.14363" lon="-1.67831">
        <ele>61.948282</ele>
        <time>2022-12-17T10:24:11.355Z</time>
      </trkpt>
      <trkpt lat="47.14369" lon="-1.67846">
        <ele>61.914344</ele>
        <time>2022-12-17T10:24:14.357Z</time>
      </trkpt>
      <trkpt lat="47.14377" lon="-1.67859">
        <ele>61.879121</ele>
        <time>2022-12-17T10:24:17.356Z</time>
      </trkpt>
      <trkpt lat="47.1438" lon="-1.67876">
        <ele>61.844851</ele>
        <time>2022-12-17T10:24:20.361Z</time>
      </trkpt>
      <trkpt lat="47.14376" lon="-1.67892">
        <ele>61.808974</ele>
        <time>2022-12-17T10:24:23.362Z</time>
      </trkpt>
      <trkpt lat="47.14366" lon="-1.67902">
        <ele>61.774102</ele>
        <time>2022-12-17T10:24:26.370Z</time>
      </trkpt>
      <trkpt lat="47.14354" lon="-1.67901">
        <ele>61.739733</ele>
        <time>2022-12-17T10:24:29.356Z</time>
      </trkpt>
      <trkpt lat="47.14343" lon="-1.67895">
        <ele>61.70502</ele>
        <time>2022-12-17T10:24:32.360Z</time>
      </trkpt>
      <trkpt lat="47.14331" lon="-1.67896">
        <ele>61.669913</ele>
        <time>2022-12-17T10:24:35.373Z</time>
      </trkpt>
      <trkpt lat="47.1432" lon="-1.67904">
        <ele>61.633508</ele>
        <time>2022-12-17T10:24:38.354Z</time>
      </trkpt>
      <trkpt lat="47.1431" lon="-1.67914">
        <ele>61.599002</ele>
        <time>2022-12-17T10:24:41.361Z</time>
      </trkpt>
      <trkpt lat="47.14303" lon="-1.67924">
        <ele>61.568151</ele>
        <time>2022-12-17T10:24:45.355Z</time>
      </trkpt>
      <trkpt lat="47.14298" lon="-1.67939">
        <ele>61.532573</ele>
        <time>2022-12-17T10:24:50.361Z</time>
      </trkpt>
      <trkpt lat="47.14298" lon="-1.67954">
        <ele>61.500736</ele>
        <time>2022-12-17T10:24:54.371Z</time>
      </trkpt>
      <trkpt lat="47.14299" lon="-1.67961">
        <ele>61.486025</ele>
        <time>2022-12-17T10:25:16.653Z</time>
      </trkpt>
      <trkpt lat="47.14293" lon="-1.67942">
        <ele>61.442394</ele>
        <time>2022-12-17T11:00:38.416Z</time>
      </trkpt>
      <trkpt lat="47.14296" lon="-1.6793">
        <ele>61.414039</ele>
        <time>2022-12-17T11:00:42.369Z</time>
      </trkpt>
      <trkpt lat="47.14301" lon="-1.67919">
        <ele>61.385837</ele>
        <time>2022-12-17T11:00:47.369Z</time>
      </trkpt>
      <trkpt lat="47.14309" lon="-1.67908">
        <ele>61.35152</ele>
        <time>2022-12-17T11:00:53.369Z</time>
      </trkpt>
      <trkpt lat="47.14317" lon="-1.67898">
        <ele>61.317889</ele>
        <time>2022-12-17T11:00:58.374Z</time>
      </trkpt>
      <trkpt lat="47.14326" lon="-1.67889">
        <ele>61.284177</ele>
        <time>2022-12-17T11:01:03.374Z</time>
      </trkpt>
      <trkpt lat="47.14335" lon="-1.67883">
        <ele>61.253686</ele>
        <time>2022-12-17T11:01:08.368Z</time>
      </trkpt>
      <trkpt lat="47.1434" lon="-1.6787">
        <ele>61.222004</ele>
        <time>2022-12-17T11:01:14.364Z</time>
      </trkpt>
      <trkpt lat="47.14343" lon="-1.67858">
        <ele>61.192818</ele>
        <time>2022-12-17T11:01:18.366Z</time>
      </trkpt>
      <trkpt lat="47.1435" lon="-1.67848">
        <ele>61.164184</ele>
        <time>2022-12-17T11:01:22.379Z</time>
      </trkpt>
      <trkpt lat="47.1436" lon="-1.67843">
        <ele>61.129003</ele>
        <time>2022-12-17T11:01:27.368Z</time>
      </trkpt>
      <trkpt lat="47.1437" lon="-1.67849">
        <ele>61.097296</ele>
        <time>2022-12-17T11:01:31.368Z</time>
      </trkpt>
      <trkpt lat="47.14377" lon="-1.67857">
        <ele>61.06709</ele>
        <time>2022-12-17T11:01:35.367Z</time>
      </trkpt>
      <trkpt lat="47.14381" lon="-1.6787">
        <ele>61.038162</ele>
        <time>2022-12-17T11:01:39.372Z</time>
      </trkpt>
      <trkpt lat="47.14379" lon="-1.67886">
        <ele>61.024665</ele>
        <time>2022-12-17T11:01:44.366Z</time>
      </trkpt>
      <trkpt lat="47.14373" lon="-1.67897">
        <ele>61.018765</ele>
        <time>2022-12-17T11:01:48.379Z</time>
      </trkpt>
      <trkpt lat="47.14364" lon="-1.67904">
        <ele>61.013337</ele>
        <time>2022-12-17T11:01:51.371Z</time>
      </trkpt>
      <trkpt lat="47.14354" lon="-1.67904">
        <ele>61.007406</ele>
        <time>2022-12-17T11:01:54.376Z</time>
      </trkpt>
      <trkpt lat="47.14345" lon="-1.67896">
        <ele>61.001312</ele>
        <time>2022-12-17T11:01:57.372Z</time>
      </trkpt>
      <trkpt lat="47.1434" lon="-1.67883">
        <ele>60.995373</ele>
        <time>2022-12-17T11:02:00.387Z</time>
      </trkpt>
      <trkpt lat="47.14338" lon="-1.67868">
        <ele>60.98942</ele>
        <time>2022-12-17T11:02:03.363Z</time>
      </trkpt>
      <trkpt lat="47.1434" lon="-1.67855">
        <ele>60.984174</ele>
        <time>2022-12-17T11:02:06.362Z</time>
      </trkpt>
      <trkpt lat="47.14343" lon="-1.67838">
        <ele>60.977185</ele>
        <time>2022-12-17T11:02:10.367Z</time>
      </trkpt>
      <trkpt lat="47.14344" lon="-1.67823">
        <ele>60.971489</ele>
        <time>2022-12-17T11:02:13.382Z</time>
      </trkpt>
      <trkpt lat="47.14343" lon="-1.67808">
        <ele>60.965606</ele>
        <time>2022-12-17T11:02:16.372Z</time>
      </trkpt>
      <trkpt lat="47.14343" lon="-1.67793">
        <ele>60.959605</ele>
        <time>2022-12-17T11:02:19.375Z</time>
      </trkpt>
      <trkpt lat="47.14341" lon="-1.67777">
        <ele>60.95334</ele>
        <time>2022-12-17T11:02:23.364Z</time>
      </trkpt>
      <trkpt lat="47.14337" lon="-1.67762">
        <ele>60.946945</ele>
        <time>2022-12-17T11:02:27.373Z</time>
      </trkpt>
      <trkpt lat="47.14334" lon="-1.67749">
        <ele>60.94144</ele>
        <time>2022-12-17T11:02:30.363Z</time>
      </trkpt>
      <trkpt lat="47.14331" lon="-1.67734">
        <ele>60.935355</ele>
        <time>2022-12-17T11:02:33.377Z</time>
      </trkpt>
      <trkpt lat="47.14328" lon="-1.67719">
        <ele>60.929498</ele>
        <time>2022-12-17T11:02:36.367Z</time>
      </trkpt>
      <trkpt lat="47.14323" lon="-1.67706">
        <ele>60.905832</ele>
        <time>2022-12-17T11:02:39.374Z</time>
      </trkpt>
      <trkpt lat="47.14318" lon="-1.67691">
        <ele>60.852952</ele>
        <time>2022-12-17T11:02:42.369Z</time>
      </trkpt>
      <trkpt lat="47.14314" lon="-1.67675">
        <ele>60.79873</ele>
        <time>2022-12-17T11:02:45.374Z</time>
      </trkpt>
      <trkpt lat="47.14312" lon="-1.67658">
        <ele>60.740882</ele>
        <time>2022-12-17T11:02:48.366Z</time>
      </trkpt>
      <trkpt lat="47.14311" lon="-1.67644">
        <ele>60.698034</ele>
        <time>2022-12-17T11:02:50.374Z</time>
      </trkpt>
      <trkpt lat="47.1431" lon="-1.67631">
        <ele>60.653831</ele>
        <time>2022-12-17T11:02:52.366Z</time>
      </trkpt>
      <trkpt lat="47.14309" lon="-1.67616">
        <ele>60.608056</ele>
        <time>2022-12-17T11:02:54.369Z</time>
      </trkpt>
      <trkpt lat="47.14308" lon="-1.67603">
        <ele>60.564093</ele>
        <time>2022-12-17T11:02:56.364Z</time>
      </trkpt>
      <trkpt lat="47.14307" lon="-1.67583">
        <ele>60.501138</ele>
        <time>2022-12-17T11:02:59.370Z</time>
      </trkpt>
      <trkpt lat="47.14305" lon="-1.67565">
        <ele>60.439996</ele>
        <time>2022-12-17T11:03:02.366Z</time>
      </trkpt>
      <trkpt lat="47.14303" lon="-1.67546">
        <ele>60.378303</ele>
        <time>2022-12-17T11:03:05.362Z</time>
      </trkpt>
      <trkpt lat="47.143" lon="-1.67526">
        <ele>60.314276</ele>
        <time>2022-12-17T11:03:08.366Z</time>
      </trkpt>
      <trkpt lat="47.14298" lon="-1.67513">
        <ele>60.271368</ele>
        <time>2022-12-17T11:03:10.375Z</time>
      </trkpt>
      <trkpt lat="47.14294" lon="-1.67495">
        <ele>60.208759</ele>
        <time>2022-12-17T11:03:13.371Z</time>
      </trkpt>
      <trkpt lat="47.14289" lon="-1.67477">
        <ele>60.147025</ele>
        <time>2022-12-17T11:03:16.375Z</time>
      </trkpt>
      <trkpt lat="47.14284" lon="-1.6746">
        <ele>60.087729</ele>
        <time>2022-12-17T11:03:19.366Z</time>
      </trkpt>
      <trkpt lat="47.14279" lon="-1.67444">
        <ele>59.840965</ele>
        <time>2022-12-17T11:03:22.368Z</time>
      </trkpt>
      <trkpt lat="47.14273" lon="-1.67427">
        <ele>59.546597</ele>
        <time>2022-12-17T11:03:25.379Z</time>
      </trkpt>
      <trkpt lat="47.14267" lon="-1.67412">
        <ele>59.255612</ele>
        <time>2022-12-17T11:03:28.377Z</time>
      </trkpt>
      <trkpt lat="47.14261" lon="-1.67398">
        <ele>58.978303</ele>
        <time>2022-12-17T11:03:31.382Z</time>
      </trkpt>
      <trkpt lat="47.14255" lon="-1.67384">
        <ele>58.714644</ele>
        <time>2022-12-17T11:03:34.385Z</time>
      </trkpt>
      <trkpt lat="47.1425" lon="-1.67369">
        <ele>58.438576</ele>
        <time>2022-12-17T11:03:37.379Z</time>
      </trkpt>
      <trkpt lat="47.14244" lon="-1.67354">
        <ele>58.153815</ele>
        <time>2022-12-17T11:03:40.372Z</time>
      </trkpt>
      <trkpt lat="47.14238" lon="-1.67338">
        <ele>57.856447</ele>
        <time>2022-12-17T11:03:43.381Z</time>
      </trkpt>
      <trkpt lat="47.14232" lon="-1.67323">
        <ele>57.568242</ele>
        <time>2022-12-17T11:03:46.378Z</time>
      </trkpt>
      <trkpt lat="47.14225" lon="-1.67308">
        <ele>57.272367</ele>
        <time>2022-12-17T11:03:49.367Z</time>
      </trkpt>
      <trkpt lat="47.14218" lon="-1.67293">
        <ele>56.975144</ele>
        <time>2022-12-17T11:03:52.388Z</time>
      </trkpt>
      <trkpt lat="47.14214" lon="-1.6728">
        <ele>56.73643</ele>
        <time>2022-12-17T11:03:55.370Z</time>
      </trkpt>
      <trkpt lat="47.14209" lon="-1.67266">
        <ele>56.476069</ele>
        <time>2022-12-17T11:03:58.368Z</time>
      </trkpt>
      <trkpt lat="47.14203" lon="-1.67254">
        <ele>56.242253</ele>
        <time>2022-12-17T11:04:01.379Z</time>
      </trkpt>
      <trkpt lat="47.14194" lon="-1.67247">
        <ele>55.986118</ele>
        <time>2022-12-17T11:04:04.364Z</time>
      </trkpt>
      <trkpt lat="47.14181" lon="-1.67247">
        <ele>55.728299</ele>
        <time>2022-12-17T11:04:07.364Z</time>
      </trkpt>
      <trkpt lat="47.14169" lon="-1.67248">
        <ele>55.600677</ele>
        <time>2022-12-17T11:04:10.362Z</time>
      </trkpt>
      <trkpt lat="47.14156" lon="-1.67249">
        <ele>55.466147</ele>
        <time>2022-12-17T11:04:13.376Z</time>
      </trkpt>
      <trkpt lat="47.14146" lon="-1.67253">
        <ele>55.359914</ele>
        <time>2022-12-17T11:04:15.365Z</time>
      </trkpt>
      <trkpt lat="47.14137" lon="-1.67255">
        <ele>55.268509</ele>
        <time>2022-12-17T11:04:17.362Z</time>
      </trkpt>
      <trkpt lat="47.14128" lon="-1.67255">
        <ele>55.173148</ele>
        <time>2022-12-17T11:04:19.364Z</time>
      </trkpt>
      <trkpt lat="47.14118" lon="-1.67256">
        <ele>55.078319</ele>
        <time>2022-12-17T11:04:21.365Z</time>
      </trkpt>
      <trkpt lat="47.14108" lon="-1.67257">
        <ele>54.975599</ele>
        <time>2022-12-17T11:04:23.370Z</time>
      </trkpt>
      <trkpt lat="47.14099" lon="-1.6726">
        <ele>54.875984</ele>
        <time>2022-12-17T11:04:25.366Z</time>
      </trkpt>
      <trkpt lat="47.14088" lon="-1.6726">
        <ele>54.76831</ele>
        <time>2022-12-17T11:04:27.368Z</time>
      </trkpt>
      <trkpt lat="47.14078" lon="-1.67262">
        <ele>54.663062</ele>
        <time>2022-12-17T11:04:29.370Z</time>
      </trkpt>
      <trkpt lat="47.14068" lon="-1.67262">
        <ele>54.556288</ele>
        <time>2022-12-17T11:04:31.368Z</time>
      </trkpt>
      <trkpt lat="47.14057" lon="-1.67264">
        <ele>54.448658</ele>
        <time>2022-12-17T11:04:33.370Z</time>
      </trkpt>
      <trkpt lat="47.14047" lon="-1.67265">
        <ele>54.337788</ele>
        <time>2022-12-17T11:04:35.364Z</time>
      </trkpt>
      <trkpt lat="47.14036" lon="-1.67267">
        <ele>54.227368</ele>
        <time>2022-12-17T11:04:37.358Z</time>
      </trkpt>
      <trkpt lat="47.14025" lon="-1.67269">
        <ele>54.1105</ele>
        <time>2022-12-17T11:04:39.366Z</time>
      </trkpt>
      <trkpt lat="47.14013" lon="-1.6727">
        <ele>53.995616</ele>
        <time>2022-12-17T11:04:41.363Z</time>
      </trkpt>
      <trkpt lat="47.14002" lon="-1.67272">
        <ele>53.895332</ele>
        <time>2022-12-17T11:04:43.391Z</time>
      </trkpt>
      <trkpt lat="47.13991" lon="-1.67273">
        <ele>53.838391</ele>
        <time>2022-12-17T11:04:45.368Z</time>
      </trkpt>
      <trkpt lat="47.1398" lon="-1.67274">
        <ele>53.78167</ele>
        <time>2022-12-17T11:04:47.367Z</time>
      </trkpt>
      <trkpt lat="47.13969" lon="-1.67274">
        <ele>53.723942</ele>
        <time>2022-12-17T11:04:49.374Z</time>
      </trkpt>
      <trkpt lat="47.13957" lon="-1.67276">
        <ele>53.664821</ele>
        <time>2022-12-17T11:04:51.369Z</time>
      </trkpt>
      <trkpt lat="47.13946" lon="-1.67278">
        <ele>53.605339</ele>
        <time>2022-12-17T11:04:53.368Z</time>
      </trkpt>
      <trkpt lat="47.13934" lon="-1.6728">
        <ele>53.546296</ele>
        <time>2022-12-17T11:04:55.364Z</time>
      </trkpt>
      <trkpt lat="47.13923" lon="-1.67282">
        <ele>53.489114</ele>
        <time>2022-12-17T11:04:57.370Z</time>
      </trkpt>
      <trkpt lat="47.13912" lon="-1.67286">
        <ele>53.430103</ele>
        <time>2022-12-17T11:04:59.380Z</time>
      </trkpt>
      <trkpt lat="47.13901" lon="-1.6729">
        <ele>53.375971</ele>
        <time>2022-12-17T11:05:01.370Z</time>
      </trkpt>
      <trkpt lat="47.13891" lon="-1.67292">
        <ele>53.321773</ele>
        <time>2022-12-17T11:05:03.365Z</time>
      </trkpt>
      <trkpt lat="47.13881" lon="-1.67296">
        <ele>53.268715</ele>
        <time>2022-12-17T11:05:05.374Z</time>
      </trkpt>
      <trkpt lat="47.1387" lon="-1.67297">
        <ele>53.213332</ele>
        <time>2022-12-17T11:05:07.373Z</time>
      </trkpt>
      <trkpt lat="47.1386" lon="-1.67301">
        <ele>53.163077</ele>
        <time>2022-12-17T11:05:09.381Z</time>
      </trkpt>
      <trkpt lat="47.13851" lon="-1.67303">
        <ele>53.113303</ele>
        <time>2022-12-17T11:05:11.374Z</time>
      </trkpt>
      <trkpt lat="47.13842" lon="-1.67305">
        <ele>53.065716</ele>
        <time>2022-12-17T11:05:13.367Z</time>
      </trkpt>
      <trkpt lat="47.1383" lon="-1.67308">
        <ele>53.005524</ele>
        <time>2022-12-17T11:05:16.381Z</time>
      </trkpt>
      <trkpt lat="47.13819" lon="-1.67312">
        <ele>53.072797</ele>
        <time>2022-12-17T11:05:19.371Z</time>
      </trkpt>
      <trkpt lat="47.13809" lon="-1.67315">
        <ele>53.177938</ele>
        <time>2022-12-17T11:05:22.371Z</time>
      </trkpt>
      <trkpt lat="47.13798" lon="-1.6732">
        <ele>53.287535</ele>
        <time>2022-12-17T11:05:25.374Z</time>
      </trkpt>
      <trkpt lat="47.13791" lon="-1.67334">
        <ele>53.398413</ele>
        <time>2022-12-17T11:05:28.371Z</time>
      </trkpt>
      <trkpt lat="47.13789" lon="-1.67353">
        <ele>53.52819</ele>
        <time>2022-12-17T11:05:31.368Z</time>
      </trkpt>
      <trkpt lat="47.13788" lon="-1.67367">
        <ele>53.618627</ele>
        <time>2022-12-17T11:05:33.370Z</time>
      </trkpt>
      <trkpt lat="47.13785" lon="-1.67386">
        <ele>53.747816</ele>
        <time>2022-12-17T11:05:36.385Z</time>
      </trkpt>
      <trkpt lat="47.13783" lon="-1.67405">
        <ele>53.871912</ele>
        <time>2022-12-17T11:05:39.365Z</time>
      </trkpt>
      <trkpt lat="47.13782" lon="-1.67418">
        <ele>53.95837</ele>
        <time>2022-12-17T11:05:41.371Z</time>
      </trkpt>
      <trkpt lat="47.1378" lon="-1.67438">
        <ele>54.086602</ele>
        <time>2022-12-17T11:05:44.385Z</time>
      </trkpt>
      <trkpt lat="47.13778" lon="-1.67457">
        <ele>54.21249</ele>
        <time>2022-12-17T11:05:47.371Z</time>
      </trkpt>
      <trkpt lat="47.13778" lon="-1.67475">
        <ele>54.334835</ele>
        <time>2022-12-17T11:05:50.362Z</time>
      </trkpt>
      <trkpt lat="47.13778" lon="-1.67495">
        <ele>54.460346</ele>
        <time>2022-12-17T11:05:53.366Z</time>
      </trkpt>
      <trkpt lat="47.13778" lon="-1.67514">
        <ele>54.585827</ele>
        <time>2022-12-17T11:05:56.364Z</time>
      </trkpt>
      <trkpt lat="47.13779" lon="-1.67533">
        <ele>54.708579</ele>
        <time>2022-12-17T11:05:59.365Z</time>
      </trkpt>
      <trkpt lat="47.13781" lon="-1.6755">
        <ele>54.813167</ele>
        <time>2022-12-17T11:06:02.367Z</time>
      </trkpt>
      <trkpt lat="47.13781" lon="-1.67566">
        <ele>54.907676</ele>
        <time>2022-12-17T11:06:05.376Z</time>
      </trkpt>
      <trkpt lat="47.13783" lon="-1.67583">
        <ele>55.00434</ele>
        <time>2022-12-17T11:06:08.366Z</time>
      </trkpt>
      <trkpt lat="47.13784" lon="-1.676">
        <ele>55.103817</ele>
        <time>2022-12-17T11:06:11.373Z</time>
      </trkpt>
      <trkpt lat="47.13785" lon="-1.67618">
        <ele>55.20844</ele>
        <time>2022-12-17T11:06:14.367Z</time>
      </trkpt>
      <trkpt lat="47.13786" lon="-1.67636">
        <ele>55.312415</ele>
        <time>2022-12-17T11:06:17.374Z</time>
      </trkpt>
      <trkpt lat="47.13787" lon="-1.67654">
        <ele>55.418272</ele>
        <time>2022-12-17T11:06:20.364Z</time>
      </trkpt>
      <trkpt lat="47.13788" lon="-1.6767">
        <ele>55.516095</ele>
        <time>2022-12-17T11:06:23.369Z</time>
      </trkpt>
      <trkpt lat="47.13789" lon="-1.67686">
        <ele>55.606212</ele>
        <time>2022-12-17T11:06:26.373Z</time>
      </trkpt>
      <trkpt lat="47.1379" lon="-1.67702">
        <ele>55.700139</ele>
        <time>2022-12-17T11:06:29.376Z</time>
      </trkpt>
      <trkpt lat="47.1379" lon="-1.67719">
        <ele>55.799931</ele>
        <time>2022-12-17T11:06:32.368Z</time>
      </trkpt>
      <trkpt lat="47.13792" lon="-1.67737">
        <ele>55.90489</ele>
        <time>2022-12-17T11:06:35.376Z</time>
      </trkpt>
      <trkpt lat="47.13793" lon="-1.67754">
        <ele>56.006017</ele>
        <time>2022-12-17T11:06:38.388Z</time>
      </trkpt>
      <trkpt lat="47.13794" lon="-1.67771">
        <ele>56.106737</ele>
        <time>2022-12-17T11:06:41.377Z</time>
      </trkpt>
      <trkpt lat="47.13795" lon="-1.67788">
        <ele>56.206716</ele>
        <time>2022-12-17T11:06:44.383Z</time>
      </trkpt>
      <trkpt lat="47.13796" lon="-1.67806">
        <ele>56.20288</ele>
        <time>2022-12-17T11:06:47.372Z</time>
      </trkpt>
      <trkpt lat="47.13798" lon="-1.67824">
        <ele>56.071782</ele>
        <time>2022-12-17T11:06:50.376Z</time>
      </trkpt>
      <trkpt lat="47.13799" lon="-1.67843">
        <ele>55.937634</ele>
        <time>2022-12-17T11:06:53.380Z</time>
      </trkpt>
      <trkpt lat="47.13799" lon="-1.67856">
        <ele>55.8439</ele>
        <time>2022-12-17T11:06:55.392Z</time>
      </trkpt>
      <trkpt lat="47.138" lon="-1.6787">
        <ele>55.747725</ele>
        <time>2022-12-17T11:06:57.373Z</time>
      </trkpt>
      <trkpt lat="47.13801" lon="-1.67884">
        <ele>55.645803</ele>
        <time>2022-12-17T11:06:59.364Z</time>
      </trkpt>
      <trkpt lat="47.13802" lon="-1.67898">
        <ele>55.542108</ele>
        <time>2022-12-17T11:07:01.372Z</time>
      </trkpt>
      <trkpt lat="47.13803" lon="-1.67912">
        <ele>55.445826</ele>
        <time>2022-12-17T11:07:03.370Z</time>
      </trkpt>
      <trkpt lat="47.13805" lon="-1.67925">
        <ele>55.350241</ele>
        <time>2022-12-17T11:07:05.370Z</time>
      </trkpt>
      <trkpt lat="47.13806" lon="-1.67939">
        <ele>55.250538</ele>
        <time>2022-12-17T11:07:07.394Z</time>
      </trkpt>
      <trkpt lat="47.13807" lon="-1.67952">
        <ele>55.155272</ele>
        <time>2022-12-17T11:07:09.384Z</time>
      </trkpt>
      <trkpt lat="47.13809" lon="-1.67966">
        <ele>55.054442</ele>
        <time>2022-12-17T11:07:11.373Z</time>
      </trkpt>
      <trkpt lat="47.1381" lon="-1.6798">
        <ele>54.958746</ele>
        <time>2022-12-17T11:07:13.379Z</time>
      </trkpt>
      <trkpt lat="47.13813" lon="-1.67993">
        <ele>54.861313</ele>
        <time>2022-12-17T11:07:15.386Z</time>
      </trkpt>
      <trkpt lat="47.13817" lon="-1.6801">
        <ele>54.732762</ele>
        <time>2022-12-17T11:07:18.370Z</time>
      </trkpt>
      <trkpt lat="47.13821" lon="-1.68027">
        <ele>54.606563</ele>
        <time>2022-12-17T11:07:21.370Z</time>
      </trkpt>
      <trkpt lat="47.13826" lon="-1.68042">
        <ele>54.482378</ele>
        <time>2022-12-17T11:07:24.366Z</time>
      </trkpt>
      <trkpt lat="47.13832" lon="-1.68055">
        <ele>54.386262</ele>
        <time>2022-12-17T11:07:27.376Z</time>
      </trkpt>
      <trkpt lat="47.13838" lon="-1.68067">
        <ele>54.390987</ele>
        <time>2022-12-17T11:07:30.377Z</time>
      </trkpt>
      <trkpt lat="47.13844" lon="-1.6808">
        <ele>54.396327</ele>
        <time>2022-12-17T11:07:33.385Z</time>
      </trkpt>
      <trkpt lat="47.13851" lon="-1.68095">
        <ele>54.402019</ele>
        <time>2022-12-17T11:07:36.382Z</time>
      </trkpt>
      <trkpt lat="47.13857" lon="-1.68112">
        <ele>54.408115</ele>
        <time>2022-12-17T11:07:39.366Z</time>
      </trkpt>
      <trkpt lat="47.13865" lon="-1.68128">
        <ele>54.414442</ele>
        <time>2022-12-17T11:07:42.379Z</time>
      </trkpt>
      <trkpt lat="47.13872" lon="-1.68145">
        <ele>54.420921</ele>
        <time>2022-12-17T11:07:45.373Z</time>
      </trkpt>
      <trkpt lat="47.13876" lon="-1.68157">
        <ele>54.425364</ele>
        <time>2022-12-17T11:07:47.388Z</time>
      </trkpt>
      <trkpt lat="47.13881" lon="-1.68168">
        <ele>54.429689</ele>
        <time>2022-12-17T11:07:49.368Z</time>
      </trkpt>
      <trkpt lat="47.13888" lon="-1.68184">
        <ele>54.435722</ele>
        <time>2022-12-17T11:07:52.368Z</time>
      </trkpt>
      <trkpt lat="47.13895" lon="-1.68198">
        <ele>54.441061</ele>
        <time>2022-12-17T11:07:55.370Z</time>
      </trkpt>
      <trkpt lat="47.139" lon="-1.68211">
        <ele>54.446145</ele>
        <time>2022-12-17T11:07:58.382Z</time>
      </trkpt>
      <trkpt lat="47.13906" lon="-1.68226">
        <ele>54.451676</ele>
        <time>2022-12-17T11:08:01.380Z</time>
      </trkpt>
      <trkpt lat="47.13912" lon="-1.68242">
        <ele>54.457597</ele>
        <time>2022-12-17T11:08:04.366Z</time>
      </trkpt>
      <trkpt lat="47.13918" lon="-1.68259">
        <ele>54.463865</ele>
        <time>2022-12-17T11:08:07.366Z</time>
      </trkpt>
      <trkpt lat="47.13924" lon="-1.68269">
        <ele>54.468182</ele>
        <time>2022-12-17T11:08:09.368Z</time>
      </trkpt>
      <trkpt lat="47.13931" lon="-1.68286">
        <ele>54.495248</ele>
        <time>2022-12-17T11:08:12.370Z</time>
      </trkpt>
      <trkpt lat="47.13936" lon="-1.68298">
        <ele>54.52774</ele>
        <time>2022-12-17T11:08:14.368Z</time>
      </trkpt>
      <trkpt lat="47.13942" lon="-1.68311">
        <ele>54.562337</ele>
        <time>2022-12-17T11:08:16.370Z</time>
      </trkpt>
      <trkpt lat="47.13947" lon="-1.68324">
        <ele>54.597287</ele>
        <time>2022-12-17T11:08:18.367Z</time>
      </trkpt>
      <trkpt lat="47.13952" lon="-1.68339">
        <ele>54.635276</ele>
        <time>2022-12-17T11:08:20.370Z</time>
      </trkpt>
      <trkpt lat="47.13959" lon="-1.68354">
        <ele>54.674931</ele>
        <time>2022-12-17T11:08:22.364Z</time>
      </trkpt>
      <trkpt lat="47.13965" lon="-1.68369">
        <ele>54.713529</ele>
        <time>2022-12-17T11:08:24.364Z</time>
      </trkpt>
      <trkpt lat="47.13971" lon="-1.68384">
        <ele>54.75357</ele>
        <time>2022-12-17T11:08:26.371Z</time>
      </trkpt>
      <trkpt lat="47.13977" lon="-1.68398">
        <ele>54.791346</ele>
        <time>2022-12-17T11:08:28.366Z</time>
      </trkpt>
      <trkpt lat="47.13983" lon="-1.6841">
        <ele>54.825392</ele>
        <time>2022-12-17T11:08:30.364Z</time>
      </trkpt>
      <trkpt lat="47.13993" lon="-1.68423">
        <ele>54.870704</ele>
        <time>2022-12-17T11:08:33.368Z</time>
      </trkpt>
      <trkpt lat="47.13999" lon="-1.68433">
        <ele>54.900515</ele>
        <time>2022-12-17T11:08:35.377Z</time>
      </trkpt>
      <trkpt lat="47.14005" lon="-1.68443">
        <ele>54.930972</ele>
        <time>2022-12-17T11:08:37.369Z</time>
      </trkpt>
      <trkpt lat="47.14012" lon="-1.68451">
        <ele>54.961288</ele>
        <time>2022-12-17T11:08:39.369Z</time>
      </trkpt>
      <trkpt lat="47.14021" lon="-1.68465">
        <ele>55.002904</ele>
        <time>2022-12-17T11:08:42.365Z</time>
      </trkpt>
      <trkpt lat="47.14029" lon="-1.68479">
        <ele>55.044607</ele>
        <time>2022-12-17T11:08:45.369Z</time>
      </trkpt>
      <trkpt lat="47.14036" lon="-1.68491">
        <ele>55.056387</ele>
        <time>2022-12-17T11:08:48.370Z</time>
      </trkpt>
      <trkpt lat="47.14042" lon="-1.68503">
        <ele>54.999869</ele>
        <time>2022-12-17T11:08:51.365Z</time>
      </trkpt>
      <trkpt lat="47.14049" lon="-1.68514">
        <ele>54.945476</ele>
        <time>2022-12-17T11:08:54.367Z</time>
      </trkpt>
      <trkpt lat="47.14057" lon="-1.68524">
        <ele>54.891211</ele>
        <time>2022-12-17T11:08:57.369Z</time>
      </trkpt>
      <trkpt lat="47.14066" lon="-1.68537">
        <ele>54.824822</ele>
        <time>2022-12-17T11:09:00.369Z</time>
      </trkpt>
      <trkpt lat="47.14075" lon="-1.68551">
        <ele>54.754313</ele>
        <time>2022-12-17T11:09:03.376Z</time>
      </trkpt>
      <trkpt lat="47.14084" lon="-1.68563">
        <ele>54.687129</ele>
        <time>2022-12-17T11:09:06.366Z</time>
      </trkpt>
      <trkpt lat="47.14093" lon="-1.68575">
        <ele>54.625508</ele>
        <time>2022-12-17T11:09:09.369Z</time>
      </trkpt>
      <trkpt lat="47.14103" lon="-1.68587">
        <ele>54.557646</ele>
        <time>2022-12-17T11:09:12.376Z</time>
      </trkpt>
      <trkpt lat="47.14109" lon="-1.68596">
        <ele>54.508627</ele>
        <time>2022-12-17T11:09:14.369Z</time>
      </trkpt>
      <trkpt lat="47.14115" lon="-1.68607">
        <ele>54.460213</ele>
        <time>2022-12-17T11:09:16.372Z</time>
      </trkpt>
      <trkpt lat="47.14122" lon="-1.68616">
        <ele>54.410915</ele>
        <time>2022-12-17T11:09:18.366Z</time>
      </trkpt>
      <trkpt lat="47.1413" lon="-1.68631">
        <ele>54.342833</ele>
        <time>2022-12-17T11:09:21.375Z</time>
      </trkpt>
      <trkpt lat="47.14138" lon="-1.68643">
        <ele>54.279333</ele>
        <time>2022-12-17T11:09:24.376Z</time>
      </trkpt>
      <trkpt lat="47.14147" lon="-1.68654">
        <ele>54.218201</ele>
        <time>2022-12-17T11:09:27.368Z</time>
      </trkpt>
      <trkpt lat="47.14154" lon="-1.68666">
        <ele>54.159907</ele>
        <time>2022-12-17T11:09:30.391Z</time>
      </trkpt>
      <trkpt lat="47.14161" lon="-1.68676">
        <ele>54.116132</ele>
        <time>2022-12-17T11:09:33.369Z</time>
      </trkpt>
      <trkpt lat="47.14167" lon="-1.6869">
        <ele>54.236511</ele>
        <time>2022-12-17T11:09:37.368Z</time>
      </trkpt>
      <trkpt lat="47.14173" lon="-1.68703">
        <ele>54.348805</ele>
        <time>2022-12-17T11:09:40.374Z</time>
      </trkpt>
      <trkpt lat="47.1418" lon="-1.68718">
        <ele>54.47431</ele>
        <time>2022-12-17T11:09:43.365Z</time>
      </trkpt>
      <trkpt lat="47.14187" lon="-1.68734">
        <ele>54.603541</ele>
        <time>2022-12-17T11:09:46.368Z</time>
      </trkpt>
      <trkpt lat="47.14192" lon="-1.68752">
        <ele>54.739658</ele>
        <time>2022-12-17T11:09:49.372Z</time>
      </trkpt>
      <trkpt lat="47.14198" lon="-1.6877">
        <ele>54.876832</ele>
        <time>2022-12-17T11:09:52.368Z</time>
      </trkpt>
      <trkpt lat="47.14203" lon="-1.68788">
        <ele>55.013391</ele>
        <time>2022-12-17T11:09:55.380Z</time>
      </trkpt>
      <trkpt lat="47.14206" lon="-1.68806">
        <ele>55.141317</ele>
        <time>2022-12-17T11:09:58.380Z</time>
      </trkpt>
      <trkpt lat="47.14208" lon="-1.68823">
        <ele>55.265724</ele>
        <time>2022-12-17T11:10:01.376Z</time>
      </trkpt>
      <trkpt lat="47.14211" lon="-1.68841">
        <ele>55.389349</ele>
        <time>2022-12-17T11:10:04.380Z</time>
      </trkpt>
      <trkpt lat="47.14214" lon="-1.68856">
        <ele>55.49993</ele>
        <time>2022-12-17T11:10:07.385Z</time>
      </trkpt>
      <trkpt lat="47.14217" lon="-1.6887">
        <ele>55.600449</ele>
        <time>2022-12-17T11:10:10.366Z</time>
      </trkpt>
      <trkpt lat="47.14219" lon="-1.68884">
        <ele>55.702047</ele>
        <time>2022-12-17T11:10:13.375Z</time>
      </trkpt>
      <trkpt lat="47.14223" lon="-1.68899">
        <ele>55.811138</ele>
        <time>2022-12-17T11:10:16.383Z</time>
      </trkpt>
      <trkpt lat="47.14226" lon="-1.68914">
        <ele>55.924844</ele>
        <time>2022-12-17T11:10:19.390Z</time>
      </trkpt>
      <trkpt lat="47.14229" lon="-1.68928">
        <ele>56.107607</ele>
        <time>2022-12-17T11:10:22.374Z</time>
      </trkpt>
      <trkpt lat="47.14222" lon="-1.68938">
        <ele>56.329299</ele>
        <time>2022-12-17T11:10:27.379Z</time>
      </trkpt>
      <trkpt lat="47.14212" lon="-1.68942">
        <ele>56.557178</ele>
        <time>2022-12-17T11:10:30.380Z</time>
      </trkpt>
      <trkpt lat="47.14202" lon="-1.68951">
        <ele>56.818217</ele>
        <time>2022-12-17T11:10:33.367Z</time>
      </trkpt>
      <trkpt lat="47.14194" lon="-1.68964">
        <ele>57.078479</ele>
        <time>2022-12-17T11:10:36.378Z</time>
      </trkpt>
      <trkpt lat="47.14188" lon="-1.68978">
        <ele>57.324103</ele>
        <time>2022-12-17T11:10:39.368Z</time>
      </trkpt>
      <trkpt lat="47.14182" lon="-1.68991">
        <ele>57.572229</ele>
        <time>2022-12-17T11:10:42.367Z</time>
      </trkpt>
      <trkpt lat="47.14176" lon="-1.69005">
        <ele>57.810659</ele>
        <time>2022-12-17T11:10:45.375Z</time>
      </trkpt>
      <trkpt lat="47.14171" lon="-1.69017">
        <ele>58.034342</ele>
        <time>2022-12-17T11:10:48.366Z</time>
      </trkpt>
      <trkpt lat="47.14167" lon="-1.69033">
        <ele>58.292154</ele>
        <time>2022-12-17T11:10:52.368Z</time>
      </trkpt>
      <trkpt lat="47.14164" lon="-1.69046">
        <ele>58.494192</ele>
        <time>2022-12-17T11:10:55.367Z</time>
      </trkpt>
      <trkpt lat="47.14162" lon="-1.6906">
        <ele>58.712324</ele>
        <time>2022-12-17T11:10:58.367Z</time>
      </trkpt>
      <trkpt lat="47.14159" lon="-1.69074">
        <ele>58.926049</ele>
        <time>2022-12-17T11:11:01.377Z</time>
      </trkpt>
      <trkpt lat="47.14158" lon="-1.69088">
        <ele>59.134333</ele>
        <time>2022-12-17T11:11:04.368Z</time>
      </trkpt>
      <trkpt lat="47.14156" lon="-1.69102">
        <ele>59.354927</ele>
        <time>2022-12-17T11:11:07.401Z</time>
      </trkpt>
      <trkpt lat="47.14153" lon="-1.69116">
        <ele>59.580576</ele>
        <time>2022-12-17T11:11:11.386Z</time>
      </trkpt>
      <trkpt lat="47.14151" lon="-1.69132">
        <ele>59.826286</ele>
        <time>2022-12-17T11:11:15.375Z</time>
      </trkpt>
      <trkpt lat="47.14149" lon="-1.69148">
        <ele>59.976274</ele>
        <time>2022-12-17T11:11:19.393Z</time>
      </trkpt>
      <trkpt lat="47.14148" lon="-1.69161">
        <ele>60.036909</ele>
        <time>2022-12-17T11:11:22.370Z</time>
      </trkpt>
      <trkpt lat="47.14146" lon="-1.69176">
        <ele>60.104625</ele>
        <time>2022-12-17T11:11:26.379Z</time>
      </trkpt>
      <trkpt lat="47.14143" lon="-1.6919">
        <ele>60.172871</ele>
        <time>2022-12-17T11:11:29.373Z</time>
      </trkpt>
      <trkpt lat="47.14141" lon="-1.69205">
        <ele>60.240524</ele>
        <time>2022-12-17T11:11:32.366Z</time>
      </trkpt>
      <trkpt lat="47.14139" lon="-1.69219">
        <ele>60.306855</ele>
        <time>2022-12-17T11:11:35.377Z</time>
      </trkpt>
      <trkpt lat="47.14136" lon="-1.69236">
        <ele>60.385181</ele>
        <time>2022-12-17T11:11:39.368Z</time>
      </trkpt>
      <trkpt lat="47.14134" lon="-1.69249">
        <ele>60.44683</ele>
        <time>2022-12-17T11:11:42.372Z</time>
      </trkpt>
      <trkpt lat="47.14131" lon="-1.69263">
        <ele>60.510024</ele>
        <time>2022-12-17T11:11:45.367Z</time>
      </trkpt>
      <trkpt lat="47.14128" lon="-1.6928">
        <ele>60.588861</ele>
        <time>2022-12-17T11:11:49.377Z</time>
      </trkpt>
      <trkpt lat="47.14126" lon="-1.69293">
        <ele>60.64876</ele>
        <time>2022-12-17T11:11:52.371Z</time>
      </trkpt>
      <trkpt lat="47.14124" lon="-1.69307">
        <ele>60.714704</ele>
        <time>2022-12-17T11:11:55.379Z</time>
      </trkpt>
      <trkpt lat="47.14122" lon="-1.69323">
        <ele>60.788879</ele>
        <time>2022-12-17T11:11:58.381Z</time>
      </trkpt>
      <trkpt lat="47.1412" lon="-1.69339">
        <ele>60.862235</ele>
        <time>2022-12-17T11:12:01.380Z</time>
      </trkpt>
      <trkpt lat="47.14118" lon="-1.69355">
        <ele>60.934129</ele>
        <time>2022-12-17T11:12:04.394Z</time>
      </trkpt>
      <trkpt lat="47.14114" lon="-1.69369">
        <ele>61.002586</ele>
        <time>2022-12-17T11:12:07.371Z</time>
      </trkpt>
      <trkpt lat="47.14112" lon="-1.69384">
        <ele>61.069358</ele>
        <time>2022-12-17T11:12:10.373Z</time>
      </trkpt>
      <trkpt lat="47.14111" lon="-1.69399">
        <ele>61.102437</ele>
        <time>2022-12-17T11:12:13.383Z</time>
      </trkpt>
      <trkpt lat="47.14109" lon="-1.69414">
        <ele>60.817385</ele>
        <time>2022-12-17T11:12:16.369Z</time>
      </trkpt>
      <trkpt lat="47.14109" lon="-1.69429">
        <ele>60.518304</ele>
        <time>2022-12-17T11:12:19.371Z</time>
      </trkpt>
      <trkpt lat="47.14107" lon="-1.69444">
        <ele>60.219827</ele>
        <time>2022-12-17T11:12:22.385Z</time>
      </trkpt>
      <trkpt lat="47.14105" lon="-1.69461">
        <ele>59.903142</ele>
        <time>2022-12-17T11:12:25.376Z</time>
      </trkpt>
      <trkpt lat="47.14104" lon="-1.69477">
        <ele>59.584159</ele>
        <time>2022-12-17T11:12:28.379Z</time>
      </trkpt>
      <trkpt lat="47.14103" lon="-1.69496">
        <ele>59.223224</ele>
        <time>2022-12-17T11:12:31.382Z</time>
      </trkpt>
      <trkpt lat="47.141" lon="-1.69509">
        <ele>58.950456</ele>
        <time>2022-12-17T11:12:33.362Z</time>
      </trkpt>
      <trkpt lat="47.14099" lon="-1.69523">
        <ele>58.676651</ele>
        <time>2022-12-17T11:12:35.378Z</time>
      </trkpt>
      <trkpt lat="47.14097" lon="-1.69539">
        <ele>58.377703</ele>
        <time>2022-12-17T11:12:37.365Z</time>
      </trkpt>
      <trkpt lat="47.14095" lon="-1.69555">
        <ele>58.064014</ele>
        <time>2022-12-17T11:12:39.374Z</time>
      </trkpt>
      <trkpt lat="47.14094" lon="-1.6957">
        <ele>57.777931</ele>
        <time>2022-12-17T11:12:41.381Z</time>
      </trkpt>
      <trkpt lat="47.14094" lon="-1.69583">
        <ele>57.513616</ele>
        <time>2022-12-17T11:12:43.365Z</time>
      </trkpt>
      <trkpt lat="47.14093" lon="-1.69597">
        <ele>57.246418</ele>
        <time>2022-12-17T11:12:45.382Z</time>
      </trkpt>
      <trkpt lat="47.14094" lon="-1.69617">
        <ele>56.871611</ele>
        <time>2022-12-17T11:12:48.373Z</time>
      </trkpt>
      <trkpt lat="47.14095" lon="-1.6963">
        <ele>56.603983</ele>
        <time>2022-12-17T11:12:50.375Z</time>
      </trkpt>
      <trkpt lat="47.14098" lon="-1.69648">
        <ele>56.252719</ele>
        <time>2022-12-17T11:12:53.377Z</time>
      </trkpt>
      <trkpt lat="47.141" lon="-1.69667">
        <ele>56.01783</ele>
        <time>2022-12-17T11:12:56.367Z</time>
      </trkpt>
      <trkpt lat="47.14102" lon="-1.6968">
        <ele>55.977937</ele>
        <time>2022-12-17T11:12:58.366Z</time>
      </trkpt>
      <trkpt lat="47.14103" lon="-1.69697">
        <ele>55.930764</ele>
        <time>2022-12-17T11:13:01.371Z</time>
      </trkpt>
      <trkpt lat="47.14105" lon="-1.6971">
        <ele>55.892634</ele>
        <time>2022-12-17T11:13:04.365Z</time>
      </trkpt>
      <trkpt lat="47.14105" lon="-1.69724">
        <ele>55.849863</ele>
        <time>2022-12-17T11:13:09.364Z</time>
      </trkpt>
      <trkpt lat="47.14095" lon="-1.69728">
        <ele>55.806992</ele>
        <time>2022-12-17T11:13:12.368Z</time>
      </trkpt>
      <trkpt lat="47.14085" lon="-1.69729">
        <ele>55.763482</ele>
        <time>2022-12-17T11:13:15.369Z</time>
      </trkpt>
      <trkpt lat="47.14075" lon="-1.69729">
        <ele>55.721753</ele>
        <time>2022-12-17T11:13:18.364Z</time>
      </trkpt>
      <trkpt lat="47.14063" lon="-1.6973">
        <ele>55.673211</ele>
        <time>2022-12-17T11:13:21.377Z</time>
      </trkpt>
      <trkpt lat="47.14051" lon="-1.6973">
        <ele>55.618833</ele>
        <time>2022-12-17T11:13:24.370Z</time>
      </trkpt>
      <trkpt lat="47.14038" lon="-1.69729">
        <ele>55.567313</ele>
        <time>2022-12-17T11:13:27.373Z</time>
      </trkpt>
      <trkpt lat="47.14026" lon="-1.69728">
        <ele>55.516194</ele>
        <time>2022-12-17T11:13:30.389Z</time>
      </trkpt>
      <trkpt lat="47.14014" lon="-1.69727">
        <ele>55.463899</ele>
        <time>2022-12-17T11:13:33.380Z</time>
      </trkpt>
      <trkpt lat="47.14001" lon="-1.69727">
        <ele>55.41121</ele>
        <time>2022-12-17T11:13:36.369Z</time>
      </trkpt>
      <trkpt lat="47.13988" lon="-1.69726">
        <ele>55.355382</ele>
        <time>2022-12-17T11:13:39.372Z</time>
      </trkpt>
      <trkpt lat="47.13975" lon="-1.69723">
        <ele>55.298482</ele>
        <time>2022-12-17T11:13:42.386Z</time>
      </trkpt>
      <trkpt lat="47.13966" lon="-1.69722">
        <ele>55.26985</ele>
        <time>2022-12-17T11:13:44.370Z</time>
      </trkpt>
      <trkpt lat="47.13956" lon="-1.69721">
        <ele>55.247204</ele>
        <time>2022-12-17T11:13:46.368Z</time>
      </trkpt>
      <trkpt lat="47.13946" lon="-1.6972">
        <ele>55.222432</ele>
        <time>2022-12-17T11:13:48.369Z</time>
      </trkpt>
      <trkpt lat="47.13934" lon="-1.69719">
        <ele>55.194758</ele>
        <time>2022-12-17T11:13:50.372Z</time>
      </trkpt>
      <trkpt lat="47.13922" lon="-1.69718">
        <ele>55.167191</ele>
        <time>2022-12-17T11:13:52.372Z</time>
      </trkpt>
      <trkpt lat="47.13911" lon="-1.69717">
        <ele>55.141487</ele>
        <time>2022-12-17T11:13:54.390Z</time>
      </trkpt>
      <trkpt lat="47.139" lon="-1.69718">
        <ele>55.115343</ele>
        <time>2022-12-17T11:13:56.375Z</time>
      </trkpt>
      <trkpt lat="47.1389" lon="-1.69719">
        <ele>55.09196</ele>
        <time>2022-12-17T11:13:58.372Z</time>
      </trkpt>
      <trkpt lat="47.13878" lon="-1.69724">
        <ele>55.062131</ele>
        <time>2022-12-17T11:14:01.372Z</time>
      </trkpt>
      <trkpt lat="47.13869" lon="-1.69726">
        <ele>55.040411</ele>
        <time>2022-12-17T11:14:03.369Z</time>
      </trkpt>
      <trkpt lat="47.13857" lon="-1.6973">
        <ele>55.011854</ele>
        <time>2022-12-17T11:14:06.377Z</time>
      </trkpt>
      <trkpt lat="47.13848" lon="-1.69731">
        <ele>54.990115</ele>
        <time>2022-12-17T11:14:08.378Z</time>
      </trkpt>
      <trkpt lat="47.13838" lon="-1.6973">
        <ele>54.966706</ele>
        <time>2022-12-17T11:14:10.370Z</time>
      </trkpt>
      <trkpt lat="47.13828" lon="-1.69728">
        <ele>54.942744</ele>
        <time>2022-12-17T11:14:12.369Z</time>
      </trkpt>
      <trkpt lat="47.13818" lon="-1.69728">
        <ele>54.918948</ele>
        <time>2022-12-17T11:14:14.372Z</time>
      </trkpt>
      <trkpt lat="47.13808" lon="-1.69727">
        <ele>54.895156</ele>
        <time>2022-12-17T11:14:16.367Z</time>
      </trkpt>
      <trkpt lat="47.13797" lon="-1.69728">
        <ele>54.869951</ele>
        <time>2022-12-17T11:14:18.372Z</time>
      </trkpt>
      <trkpt lat="47.13786" lon="-1.69727">
        <ele>54.749014</ele>
        <time>2022-12-17T11:14:20.383Z</time>
      </trkpt>
      <trkpt lat="47.13775" lon="-1.69725">
        <ele>54.525542</ele>
        <time>2022-12-17T11:14:22.382Z</time>
      </trkpt>
      <trkpt lat="47.13763" lon="-1.69726">
        <ele>54.307075</ele>
        <time>2022-12-17T11:14:24.369Z</time>
      </trkpt>
      <trkpt lat="47.13752" lon="-1.69729">
        <ele>54.091836</ele>
        <time>2022-12-17T11:14:26.379Z</time>
      </trkpt>
      <trkpt lat="47.1374" lon="-1.69732">
        <ele>53.873868</ele>
        <time>2022-12-17T11:14:28.374Z</time>
      </trkpt>
      <trkpt lat="47.13729" lon="-1.69734">
        <ele>53.665481</ele>
        <time>2022-12-17T11:14:30.386Z</time>
      </trkpt>
      <trkpt lat="47.1372" lon="-1.69736">
        <ele>53.486526</ele>
        <time>2022-12-17T11:14:32.373Z</time>
      </trkpt>
      <trkpt lat="47.1371" lon="-1.69738">
        <ele>53.30551</ele>
        <time>2022-12-17T11:14:34.366Z</time>
      </trkpt>
      <trkpt lat="47.13701" lon="-1.6974">
        <ele>53.126243</ele>
        <time>2022-12-17T11:14:36.379Z</time>
      </trkpt>
      <trkpt lat="47.13691" lon="-1.6974">
        <ele>52.947468</ele>
        <time>2022-12-17T11:14:38.375Z</time>
      </trkpt>
      <trkpt lat="47.13681" lon="-1.69741">
        <ele>52.759301</ele>
        <time>2022-12-17T11:14:40.376Z</time>
      </trkpt>
      <trkpt lat="47.13671" lon="-1.69741">
        <ele>52.563754</ele>
        <time>2022-12-17T11:14:42.369Z</time>
      </trkpt>
      <trkpt lat="47.13661" lon="-1.6974">
        <ele>52.365843</ele>
        <time>2022-12-17T11:14:44.399Z</time>
      </trkpt>
      <trkpt lat="47.1365" lon="-1.6974">
        <ele>52.158889</ele>
        <time>2022-12-17T11:14:46.378Z</time>
      </trkpt>
      <trkpt lat="47.13638" lon="-1.6974">
        <ele>51.950135</ele>
        <time>2022-12-17T11:14:48.383Z</time>
      </trkpt>
      <trkpt lat="47.13627" lon="-1.69739">
        <ele>51.733787</ele>
        <time>2022-12-17T11:14:50.381Z</time>
      </trkpt>
      <trkpt lat="47.13615" lon="-1.6974">
        <ele>51.507943</ele>
        <time>2022-12-17T11:14:52.369Z</time>
      </trkpt>
      <trkpt lat="47.13604" lon="-1.69739">
        <ele>51.332551</ele>
        <time>2022-12-17T11:14:54.376Z</time>
      </trkpt>
      <trkpt lat="47.13591" lon="-1.6974">
        <ele>51.152074</ele>
        <time>2022-12-17T11:14:56.377Z</time>
      </trkpt>
      <trkpt lat="47.1358" lon="-1.6974">
        <ele>50.977536</ele>
        <time>2022-12-17T11:14:58.391Z</time>
      </trkpt>
      <trkpt lat="47.13569" lon="-1.6974">
        <ele>50.814833</ele>
        <time>2022-12-17T11:15:00.378Z</time>
      </trkpt>
      <trkpt lat="47.13558" lon="-1.6974">
        <ele>50.659409</ele>
        <time>2022-12-17T11:15:02.371Z</time>
      </trkpt>
      <trkpt lat="47.13548" lon="-1.69741">
        <ele>50.508419</ele>
        <time>2022-12-17T11:15:04.367Z</time>
      </trkpt>
      <trkpt lat="47.13538" lon="-1.69741">
        <ele>50.364889</ele>
        <time>2022-12-17T11:15:06.374Z</time>
      </trkpt>
      <trkpt lat="47.13528" lon="-1.69741">
        <ele>50.218236</ele>
        <time>2022-12-17T11:15:08.380Z</time>
      </trkpt>
      <trkpt lat="47.13518" lon="-1.69741">
        <ele>50.073196</ele>
        <time>2022-12-17T11:15:10.369Z</time>
      </trkpt>
      <trkpt lat="47.13508" lon="-1.69741">
        <ele>49.923792</ele>
        <time>2022-12-17T11:15:12.368Z</time>
      </trkpt>
      <trkpt lat="47.13498" lon="-1.69742">
        <ele>49.769951</ele>
        <time>2022-12-17T11:15:14.379Z</time>
      </trkpt>
      <trkpt lat="47.13488" lon="-1.69742">
        <ele>49.627924</ele>
        <time>2022-12-17T11:15:16.389Z</time>
      </trkpt>
      <trkpt lat="47.13479" lon="-1.69742">
        <ele>49.484419</ele>
        <time>2022-12-17T11:15:18.382Z</time>
      </trkpt>
      <trkpt lat="47.13469" lon="-1.69746">
        <ele>49.33139</ele>
        <time>2022-12-17T11:15:20.371Z</time>
      </trkpt>
      <trkpt lat="47.13455" lon="-1.6975">
        <ele>49.122799</ele>
        <time>2022-12-17T11:15:23.389Z</time>
      </trkpt>
      <trkpt lat="47.13445" lon="-1.69753">
        <ele>48.974823</ele>
        <time>2022-12-17T11:15:25.368Z</time>
      </trkpt>
      <trkpt lat="47.13436" lon="-1.69757">
        <ele>48.832317</ele>
        <time>2022-12-17T11:15:27.374Z</time>
      </trkpt>
      <trkpt lat="47.13426" lon="-1.69761">
        <ele>48.921086</ele>
        <time>2022-12-17T11:15:29.374Z</time>
      </trkpt>
      <trkpt lat="47.13415" lon="-1.69767">
        <ele>49.050381</ele>
        <time>2022-12-17T11:15:31.374Z</time>
      </trkpt>
      <trkpt lat="47.13404" lon="-1.69773">
        <ele>49.184245</ele>
        <time>2022-12-17T11:15:33.371Z</time>
      </trkpt>
      <trkpt lat="47.13394" lon="-1.69777">
        <ele>49.304222</ele>
        <time>2022-12-17T11:15:35.380Z</time>
      </trkpt>
      <trkpt lat="47.13385" lon="-1.69783">
        <ele>49.412164</ele>
        <time>2022-12-17T11:15:37.383Z</time>
      </trkpt>
      <trkpt lat="47.13373" lon="-1.6979">
        <ele>49.562086</ele>
        <time>2022-12-17T11:15:40.382Z</time>
      </trkpt>
      <trkpt lat="47.1336" lon="-1.69798">
        <ele>49.711815</ele>
        <time>2022-12-17T11:15:43.368Z</time>
      </trkpt>
      <trkpt lat="47.13351" lon="-1.69802">
        <ele>49.818356</ele>
        <time>2022-12-17T11:15:45.374Z</time>
      </trkpt>
      <trkpt lat="47.13342" lon="-1.69807">
        <ele>49.929149</ele>
        <time>2022-12-17T11:15:47.384Z</time>
      </trkpt>
      <trkpt lat="47.13333" lon="-1.69812">
        <ele>50.039696</ele>
        <time>2022-12-17T11:15:49.373Z</time>
      </trkpt>
      <trkpt lat="47.1332" lon="-1.69818">
        <ele>50.18827</ele>
        <time>2022-12-17T11:15:52.376Z</time>
      </trkpt>
      <trkpt lat="47.13312" lon="-1.69824">
        <ele>50.290457</ele>
        <time>2022-12-17T11:15:54.370Z</time>
      </trkpt>
      <trkpt lat="47.13299" lon="-1.69831">
        <ele>50.443024</ele>
        <time>2022-12-17T11:15:57.370Z</time>
      </trkpt>
      <trkpt lat="47.13287" lon="-1.69836">
        <ele>50.585337</ele>
        <time>2022-12-17T11:16:00.372Z</time>
      </trkpt>
      <trkpt lat="47.13278" lon="-1.69842">
        <ele>50.695332</ele>
        <time>2022-12-17T11:16:02.371Z</time>
      </trkpt>
      <trkpt lat="47.13267" lon="-1.69847">
        <ele>50.824436</ele>
        <time>2022-12-17T11:16:05.374Z</time>
      </trkpt>
      <trkpt lat="47.13258" lon="-1.69851">
        <ele>50.794382</ele>
        <time>2022-12-17T11:16:08.373Z</time>
      </trkpt>
      <trkpt lat="47.1325" lon="-1.69855">
        <ele>50.736769</ele>
        <time>2022-12-17T11:16:11.374Z</time>
      </trkpt>
      <trkpt lat="47.1324" lon="-1.69861">
        <ele>50.675195</ele>
        <time>2022-12-17T11:16:14.369Z</time>
      </trkpt>
      <trkpt lat="47.13228" lon="-1.69867">
        <ele>50.59316</ele>
        <time>2022-12-17T11:16:17.368Z</time>
      </trkpt>
      <trkpt lat="47.13219" lon="-1.69873">
        <ele>50.531848</ele>
        <time>2022-12-17T11:16:19.369Z</time>
      </trkpt>
      <trkpt lat="47.1321" lon="-1.69877">
        <ele>50.470502</ele>
        <time>2022-12-17T11:16:21.381Z</time>
      </trkpt>
      <trkpt lat="47.13199" lon="-1.69883">
        <ele>50.401722</ele>
        <time>2022-12-17T11:16:23.368Z</time>
      </trkpt>
      <trkpt lat="47.13187" lon="-1.6989">
        <ele>50.32086</ele>
        <time>2022-12-17T11:16:25.379Z</time>
      </trkpt>
      <trkpt lat="47.13176" lon="-1.69896">
        <ele>50.243776</ele>
        <time>2022-12-17T11:16:27.381Z</time>
      </trkpt>
      <trkpt lat="47.13166" lon="-1.69901">
        <ele>50.17709</ele>
        <time>2022-12-17T11:16:29.381Z</time>
      </trkpt>
      <trkpt lat="47.13154" lon="-1.69907">
        <ele>50.104494</ele>
        <time>2022-12-17T11:16:31.380Z</time>
      </trkpt>
      <trkpt lat="47.13144" lon="-1.69912">
        <ele>50.036901</ele>
        <time>2022-12-17T11:16:33.375Z</time>
      </trkpt>
      <trkpt lat="47.13134" lon="-1.69917">
        <ele>49.9711</ele>
        <time>2022-12-17T11:16:35.373Z</time>
      </trkpt>
      <trkpt lat="47.13124" lon="-1.69922">
        <ele>49.905731</ele>
        <time>2022-12-17T11:16:37.376Z</time>
      </trkpt>
      <trkpt lat="47.13116" lon="-1.69928">
        <ele>49.848029</ele>
        <time>2022-12-17T11:16:39.386Z</time>
      </trkpt>
      <trkpt lat="47.13103" lon="-1.69935">
        <ele>49.763055</ele>
        <time>2022-12-17T11:16:42.371Z</time>
      </trkpt>
      <trkpt lat="47.13095" lon="-1.6994">
        <ele>49.69076</ele>
        <time>2022-12-17T11:16:44.368Z</time>
      </trkpt>
      <trkpt lat="47.13085" lon="-1.69946">
        <ele>49.573896</ele>
        <time>2022-12-17T11:16:46.389Z</time>
      </trkpt>
      <trkpt lat="47.13076" lon="-1.6995">
        <ele>49.458871</ele>
        <time>2022-12-17T11:16:48.383Z</time>
      </trkpt>
      <trkpt lat="47.13068" lon="-1.69955">
        <ele>49.350781</ele>
        <time>2022-12-17T11:16:50.374Z</time>
      </trkpt>
      <trkpt lat="47.13054" lon="-1.6996">
        <ele>49.186298</ele>
        <time>2022-12-17T11:16:53.382Z</time>
      </trkpt>
      <trkpt lat="47.13045" lon="-1.69964">
        <ele>49.07424</ele>
        <time>2022-12-17T11:16:55.380Z</time>
      </trkpt>
      <trkpt lat="47.13035" lon="-1.69969">
        <ele>48.954855</ele>
        <time>2022-12-17T11:16:57.396Z</time>
      </trkpt>
      <trkpt lat="47.13026" lon="-1.69974">
        <ele>48.835915</ele>
        <time>2022-12-17T11:16:59.375Z</time>
      </trkpt>
      <trkpt lat="47.13017" lon="-1.69978">
        <ele>48.725669</ele>
        <time>2022-12-17T11:17:01.393Z</time>
      </trkpt>
      <trkpt lat="47.13008" lon="-1.69983">
        <ele>48.617365</ele>
        <time>2022-12-17T11:17:03.379Z</time>
      </trkpt>
      <trkpt lat="47.13" lon="-1.69987">
        <ele>48.508679</ele>
        <time>2022-12-17T11:17:05.372Z</time>
      </trkpt>
      <trkpt lat="47.12987" lon="-1.69995">
        <ele>48.346447</ele>
        <time>2022-12-17T11:17:08.382Z</time>
      </trkpt>
      <trkpt lat="47.12978" lon="-1.70001">
        <ele>48.227191</ele>
        <time>2022-12-17T11:17:10.394Z</time>
      </trkpt>
      <trkpt lat="47.12969" lon="-1.70005">
        <ele>48.114471</ele>
        <time>2022-12-17T11:17:12.373Z</time>
      </trkpt>
      <trkpt lat="47.12959" lon="-1.70009">
        <ele>48.000387</ele>
        <time>2022-12-17T11:17:14.371Z</time>
      </trkpt>
      <trkpt lat="47.1295" lon="-1.70015">
        <ele>47.879933</ele>
        <time>2022-12-17T11:17:16.391Z</time>
      </trkpt>
      <trkpt lat="47.1294" lon="-1.7002">
        <ele>47.753399</ele>
        <time>2022-12-17T11:17:18.392Z</time>
      </trkpt>
      <trkpt lat="47.1293" lon="-1.70024">
        <ele>47.639244</ele>
        <time>2022-12-17T11:17:20.381Z</time>
      </trkpt>
      <trkpt lat="47.12922" lon="-1.70029">
        <ele>47.602107</ele>
        <time>2022-12-17T11:17:22.373Z</time>
      </trkpt>
      <trkpt lat="47.12911" lon="-1.70037">
        <ele>47.596957</ele>
        <time>2022-12-17T11:17:25.388Z</time>
      </trkpt>
      <trkpt lat="47.12898" lon="-1.70043">
        <ele>47.591474</ele>
        <time>2022-12-17T11:17:28.384Z</time>
      </trkpt>
      <trkpt lat="47.12889" lon="-1.70047">
        <ele>47.587755</ele>
        <time>2022-12-17T11:17:30.388Z</time>
      </trkpt>
      <trkpt lat="47.1288" lon="-1.70051">
        <ele>47.583965</ele>
        <time>2022-12-17T11:17:32.381Z</time>
      </trkpt>
      <trkpt lat="47.1287" lon="-1.70055">
        <ele>47.579684</ele>
        <time>2022-12-17T11:17:34.389Z</time>
      </trkpt>
      <trkpt lat="47.12858" lon="-1.70061">
        <ele>47.574332</ele>
        <time>2022-12-17T11:17:37.374Z</time>
      </trkpt>
      <trkpt lat="47.12849" lon="-1.70067">
        <ele>47.570181</ele>
        <time>2022-12-17T11:17:39.383Z</time>
      </trkpt>
      <trkpt lat="47.12839" lon="-1.70072">
        <ele>47.565991</ele>
        <time>2022-12-17T11:17:41.383Z</time>
      </trkpt>
      <trkpt lat="47.1283" lon="-1.70076">
        <ele>47.561877</ele>
        <time>2022-12-17T11:17:43.384Z</time>
      </trkpt>
      <trkpt lat="47.12821" lon="-1.7008">
        <ele>47.557909</ele>
        <time>2022-12-17T11:17:45.382Z</time>
      </trkpt>
      <trkpt lat="47.12812" lon="-1.70085">
        <ele>47.55398</ele>
        <time>2022-12-17T11:17:47.382Z</time>
      </trkpt>
      <trkpt lat="47.12801" lon="-1.70089">
        <ele>47.549588</ele>
        <time>2022-12-17T11:17:49.383Z</time>
      </trkpt>
      <trkpt lat="47.12792" lon="-1.70094">
        <ele>47.545582</ele>
        <time>2022-12-17T11:17:51.378Z</time>
      </trkpt>
      <trkpt lat="47.12783" lon="-1.70098">
        <ele>47.54171</ele>
        <time>2022-12-17T11:17:53.386Z</time>
      </trkpt>
      <trkpt lat="47.12774" lon="-1.70103">
        <ele>47.537577</ele>
        <time>2022-12-17T11:17:55.395Z</time>
      </trkpt>
      <trkpt lat="47.12765" lon="-1.70109">
        <ele>47.533736</ele>
        <time>2022-12-17T11:17:57.385Z</time>
      </trkpt>
      <trkpt lat="47.12755" lon="-1.70115">
        <ele>47.559242</ele>
        <time>2022-12-17T11:17:59.377Z</time>
      </trkpt>
      <trkpt lat="47.12745" lon="-1.7012">
        <ele>47.66261</ele>
        <time>2022-12-17T11:18:01.381Z</time>
      </trkpt>
      <trkpt lat="47.12735" lon="-1.70126">
        <ele>47.760446</ele>
        <time>2022-12-17T11:18:03.382Z</time>
      </trkpt>
      <trkpt lat="47.12726" lon="-1.7013">
        <ele>47.850292</ele>
        <time>2022-12-17T11:18:05.387Z</time>
      </trkpt>
      <trkpt lat="47.12716" lon="-1.70136">
        <ele>47.950987</ele>
        <time>2022-12-17T11:18:07.386Z</time>
      </trkpt>
      <trkpt lat="47.12706" lon="-1.70141">
        <ele>48.051904</ele>
        <time>2022-12-17T11:18:09.383Z</time>
      </trkpt>
      <trkpt lat="47.12697" lon="-1.70146">
        <ele>48.145487</ele>
        <time>2022-12-17T11:18:11.387Z</time>
      </trkpt>
      <trkpt lat="47.12687" lon="-1.70152">
        <ele>48.252041</ele>
        <time>2022-12-17T11:18:13.385Z</time>
      </trkpt>
      <trkpt lat="47.12677" lon="-1.70157">
        <ele>48.349297</ele>
        <time>2022-12-17T11:18:15.373Z</time>
      </trkpt>
      <trkpt lat="47.12667" lon="-1.70162">
        <ele>48.452459</ele>
        <time>2022-12-17T11:18:17.389Z</time>
      </trkpt>
      <trkpt lat="47.12657" lon="-1.70166">
        <ele>48.546619</ele>
        <time>2022-12-17T11:18:19.389Z</time>
      </trkpt>
      <trkpt lat="47.12648" lon="-1.70171">
        <ele>48.638466</ele>
        <time>2022-12-17T11:18:21.381Z</time>
      </trkpt>
      <trkpt lat="47.12635" lon="-1.70178">
        <ele>48.766116</ele>
        <time>2022-12-17T11:18:24.371Z</time>
      </trkpt>
      <trkpt lat="47.12627" lon="-1.70183">
        <ele>48.852142</ele>
        <time>2022-12-17T11:18:26.378Z</time>
      </trkpt>
      <trkpt lat="47.12616" lon="-1.70191">
        <ele>48.966704</ele>
        <time>2022-12-17T11:18:29.376Z</time>
      </trkpt>
      <trkpt lat="47.12606" lon="-1.70197">
        <ele>49.069019</ele>
        <time>2022-12-17T11:18:32.370Z</time>
      </trkpt>
      <trkpt lat="47.12597" lon="-1.702">
        <ele>49.158879</ele>
        <time>2022-12-17T11:18:37.388Z</time>
      </trkpt>
      <trkpt lat="47.12583" lon="-1.70204">
        <ele>49.164527</ele>
        <time>2022-12-17T11:19:17.372Z</time>
      </trkpt>
      <trkpt lat="47.12573" lon="-1.70209">
        <ele>49.054085</ele>
        <time>2022-12-17T11:19:21.386Z</time>
      </trkpt>
      <trkpt lat="47.12564" lon="-1.70214">
        <ele>48.946151</ele>
        <time>2022-12-17T11:19:24.362Z</time>
      </trkpt>
      <trkpt lat="47.12552" lon="-1.7022">
        <ele>48.81961</ele>
        <time>2022-12-17T11:19:27.360Z</time>
      </trkpt>
      <trkpt lat="47.12541" lon="-1.70227">
        <ele>48.686028</ele>
        <time>2022-12-17T11:19:30.368Z</time>
      </trkpt>
      <trkpt lat="47.12529" lon="-1.70233">
        <ele>48.549881</ele>
        <time>2022-12-17T11:19:33.375Z</time>
      </trkpt>
      <trkpt lat="47.12518" lon="-1.70239">
        <ele>48.426094</ele>
        <time>2022-12-17T11:19:36.374Z</time>
      </trkpt>
      <trkpt lat="47.12507" lon="-1.70246">
        <ele>48.295726</ele>
        <time>2022-12-17T11:19:39.386Z</time>
      </trkpt>
      <trkpt lat="47.12497" lon="-1.70251">
        <ele>48.187017</ele>
        <time>2022-12-17T11:19:41.377Z</time>
      </trkpt>
      <trkpt lat="47.12489" lon="-1.70257">
        <ele>48.08849</ele>
        <time>2022-12-17T11:19:43.381Z</time>
      </trkpt>
      <trkpt lat="47.1248" lon="-1.70261">
        <ele>47.983163</ele>
        <time>2022-12-17T11:19:45.383Z</time>
      </trkpt>
      <trkpt lat="47.12471" lon="-1.70266">
        <ele>47.88215</ele>
        <time>2022-12-17T11:19:47.366Z</time>
      </trkpt>
      <trkpt lat="47.12462" lon="-1.70272">
        <ele>47.778495</ele>
        <time>2022-12-17T11:19:49.364Z</time>
      </trkpt>
      <trkpt lat="47.12454" lon="-1.70278">
        <ele>47.678268</ele>
        <time>2022-12-17T11:19:51.395Z</time>
      </trkpt>
      <trkpt lat="47.12445" lon="-1.70288">
        <ele>47.5629</ele>
        <time>2022-12-17T11:19:53.384Z</time>
      </trkpt>
      <trkpt lat="47.12437" lon="-1.70298">
        <ele>47.449837</ele>
        <time>2022-12-17T11:19:55.383Z</time>
      </trkpt>
      <trkpt lat="47.12431" lon="-1.70308">
        <ele>47.350008</ele>
        <time>2022-12-17T11:19:57.365Z</time>
      </trkpt>
      <trkpt lat="47.12426" lon="-1.70319">
        <ele>47.296822</ele>
        <time>2022-12-17T11:19:59.382Z</time>
      </trkpt>
      <trkpt lat="47.12421" lon="-1.70332">
        <ele>47.278201</ele>
        <time>2022-12-17T11:20:01.366Z</time>
      </trkpt>
      <trkpt lat="47.12417" lon="-1.70344">
        <ele>47.260276</ele>
        <time>2022-12-17T11:20:03.369Z</time>
      </trkpt>
      <trkpt lat="47.12413" lon="-1.70361">
        <ele>47.238146</ele>
        <time>2022-12-17T11:20:06.367Z</time>
      </trkpt>
      <trkpt lat="47.1241" lon="-1.70373">
        <ele>47.22124</ele>
        <time>2022-12-17T11:20:08.389Z</time>
      </trkpt>
      <trkpt lat="47.12407" lon="-1.70387">
        <ele>47.202746</ele>
        <time>2022-12-17T11:20:10.384Z</time>
      </trkpt>
      <trkpt lat="47.12403" lon="-1.70401">
        <ele>47.183482</ele>
        <time>2022-12-17T11:20:12.363Z</time>
      </trkpt>
      <trkpt lat="47.12401" lon="-1.70414">
        <ele>47.166148</ele>
        <time>2022-12-17T11:20:14.366Z</time>
      </trkpt>
      <trkpt lat="47.12398" lon="-1.70429">
        <ele>47.146817</ele>
        <time>2022-12-17T11:20:16.368Z</time>
      </trkpt>
      <trkpt lat="47.12395" lon="-1.70443">
        <ele>47.127496</ele>
        <time>2022-12-17T11:20:18.385Z</time>
      </trkpt>
      <trkpt lat="47.12392" lon="-1.70458">
        <ele>47.107921</ele>
        <time>2022-12-17T11:20:20.388Z</time>
      </trkpt>
      <trkpt lat="47.12388" lon="-1.70471">
        <ele>47.089712</ele>
        <time>2022-12-17T11:20:22.364Z</time>
      </trkpt>
      <trkpt lat="47.12385" lon="-1.70484">
        <ele>47.07166</ele>
        <time>2022-12-17T11:20:24.383Z</time>
      </trkpt>
      <trkpt lat="47.12379" lon="-1.70503">
        <ele>47.046182</ele>
        <time>2022-12-17T11:20:27.368Z</time>
      </trkpt>
      <trkpt lat="47.12375" lon="-1.70515">
        <ele>47.027854</ele>
        <time>2022-12-17T11:20:29.364Z</time>
      </trkpt>
      <trkpt lat="47.12369" lon="-1.70527">
        <ele>47.00961</ele>
        <time>2022-12-17T11:20:31.393Z</time>
      </trkpt>
      <trkpt lat="47.12364" lon="-1.70539">
        <ele>46.991576</ele>
        <time>2022-12-17T11:20:33.399Z</time>
      </trkpt>
      <trkpt lat="47.12358" lon="-1.7055">
        <ele>46.973751</ele>
        <time>2022-12-17T11:20:35.397Z</time>
      </trkpt>
      <trkpt lat="47.12352" lon="-1.70561">
        <ele>47.096292</ele>
        <time>2022-12-17T11:20:37.377Z</time>
      </trkpt>
      <trkpt lat="47.12345" lon="-1.70573">
        <ele>47.281452</ele>
        <time>2022-12-17T11:20:39.383Z</time>
      </trkpt>
      <trkpt lat="47.12339" lon="-1.70583">
        <ele>47.454712</ele>
        <time>2022-12-17T11:20:41.364Z</time>
      </trkpt>
      <trkpt lat="47.12332" lon="-1.70593">
        <ele>47.63449</ele>
        <time>2022-12-17T11:20:43.391Z</time>
      </trkpt>
      <trkpt lat="47.12325" lon="-1.70604">
        <ele>47.815517</ele>
        <time>2022-12-17T11:20:45.387Z</time>
      </trkpt>
      <trkpt lat="47.12318" lon="-1.70615">
        <ele>47.9992</ele>
        <time>2022-12-17T11:20:47.383Z</time>
      </trkpt>
      <trkpt lat="47.12311" lon="-1.70625">
        <ele>48.176848</ele>
        <time>2022-12-17T11:20:49.383Z</time>
      </trkpt>
      <trkpt lat="47.12304" lon="-1.70635">
        <ele>48.352249</ele>
        <time>2022-12-17T11:20:51.390Z</time>
      </trkpt>
      <trkpt lat="47.12297" lon="-1.70645">
        <ele>48.530327</ele>
        <time>2022-12-17T11:20:53.374Z</time>
      </trkpt>
      <trkpt lat="47.1229" lon="-1.70656">
        <ele>48.713489</ele>
        <time>2022-12-17T11:20:55.373Z</time>
      </trkpt>
      <trkpt lat="47.12283" lon="-1.70666">
        <ele>48.891032</ele>
        <time>2022-12-17T11:20:57.388Z</time>
      </trkpt>
      <trkpt lat="47.12276" lon="-1.70677">
        <ele>49.076844</ele>
        <time>2022-12-17T11:20:59.383Z</time>
      </trkpt>
      <trkpt lat="47.12269" lon="-1.70687">
        <ele>49.251384</ele>
        <time>2022-12-17T11:21:01.386Z</time>
      </trkpt>
      <trkpt lat="47.12262" lon="-1.70697">
        <ele>49.422064</ele>
        <time>2022-12-17T11:21:03.382Z</time>
      </trkpt>
      <trkpt lat="47.12255" lon="-1.70706">
        <ele>49.594042</ele>
        <time>2022-12-17T11:21:05.372Z</time>
      </trkpt>
      <trkpt lat="47.12248" lon="-1.70715">
        <ele>49.761557</ele>
        <time>2022-12-17T11:21:07.384Z</time>
      </trkpt>
      <trkpt lat="47.12241" lon="-1.70723">
        <ele>49.925575</ele>
        <time>2022-12-17T11:21:09.368Z</time>
      </trkpt>
      <trkpt lat="47.1223" lon="-1.70735">
        <ele>50.164342</ele>
        <time>2022-12-17T11:21:12.366Z</time>
      </trkpt>
      <trkpt lat="47.12222" lon="-1.70743">
        <ele>50.2939</ele>
        <time>2022-12-17T11:21:14.365Z</time>
      </trkpt>
      <trkpt lat="47.12215" lon="-1.7075">
        <ele>50.408021</ele>
        <time>2022-12-17T11:21:16.369Z</time>
      </trkpt>
      <trkpt lat="47.12207" lon="-1.70756">
        <ele>50.521098</ele>
        <time>2022-12-17T11:21:18.388Z</time>
      </trkpt>
      <trkpt lat="47.12196" lon="-1.70763">
        <ele>50.663784</ele>
        <time>2022-12-17T11:21:21.393Z</time>
      </trkpt>
      <trkpt lat="47.12186" lon="-1.70771">
        <ele>50.804515</ele>
        <time>2022-12-17T11:21:24.389Z</time>
      </trkpt>
      <trkpt lat="47.12176" lon="-1.70779">
        <ele>50.950253</ele>
        <time>2022-12-17T11:21:27.381Z</time>
      </trkpt>
      <trkpt lat="47.12165" lon="-1.70787">
        <ele>51.105984</ele>
        <time>2022-12-17T11:21:30.388Z</time>
      </trkpt>
      <trkpt lat="47.12154" lon="-1.70795">
        <ele>51.263975</ele>
        <time>2022-12-17T11:21:33.387Z</time>
      </trkpt>
      <trkpt lat="47.12142" lon="-1.70802">
        <ele>51.423486</ele>
        <time>2022-12-17T11:21:36.385Z</time>
      </trkpt>
      <trkpt lat="47.1213" lon="-1.70809">
        <ele>51.581664</ele>
        <time>2022-12-17T11:21:39.393Z</time>
      </trkpt>
      <trkpt lat="47.12119" lon="-1.70816">
        <ele>51.738531</ele>
        <time>2022-12-17T11:21:42.364Z</time>
      </trkpt>
      <trkpt lat="47.12107" lon="-1.70824">
        <ele>51.896943</ele>
        <time>2022-12-17T11:21:45.394Z</time>
      </trkpt>
      <trkpt lat="47.12095" lon="-1.70832">
        <ele>52.059063</ele>
        <time>2022-12-17T11:21:48.396Z</time>
      </trkpt>
      <trkpt lat="47.12083" lon="-1.7084">
        <ele>52.225837</ele>
        <time>2022-12-17T11:21:51.381Z</time>
      </trkpt>
      <trkpt lat="47.12071" lon="-1.70847">
        <ele>52.391122</ele>
        <time>2022-12-17T11:21:54.383Z</time>
      </trkpt>
      <trkpt lat="47.12063" lon="-1.70853">
        <ele>52.414183</ele>
        <time>2022-12-17T11:21:56.395Z</time>
      </trkpt>
      <trkpt lat="47.12055" lon="-1.70859">
        <ele>52.284677</ele>
        <time>2022-12-17T11:21:58.369Z</time>
      </trkpt>
      <trkpt lat="47.12046" lon="-1.70864">
        <ele>52.152851</ele>
        <time>2022-12-17T11:22:00.367Z</time>
      </trkpt>
      <trkpt lat="47.12037" lon="-1.70869">
        <ele>52.018775</ele>
        <time>2022-12-17T11:22:02.361Z</time>
      </trkpt>
      <trkpt lat="47.12029" lon="-1.70875">
        <ele>51.890133</ele>
        <time>2022-12-17T11:22:04.385Z</time>
      </trkpt>
      <trkpt lat="47.12017" lon="-1.70883">
        <ele>51.70515</ele>
        <time>2022-12-17T11:22:07.373Z</time>
      </trkpt>
      <trkpt lat="47.12005" lon="-1.70891">
        <ele>51.515909</ele>
        <time>2022-12-17T11:22:10.368Z</time>
      </trkpt>
      <trkpt lat="47.11996" lon="-1.70897">
        <ele>51.38203</ele>
        <time>2022-12-17T11:22:12.364Z</time>
      </trkpt>
      <trkpt lat="47.11987" lon="-1.70903">
        <ele>51.245299</ele>
        <time>2022-12-17T11:22:14.395Z</time>
      </trkpt>
      <trkpt lat="47.11978" lon="-1.70909">
        <ele>51.099508</ele>
        <time>2022-12-17T11:22:16.379Z</time>
      </trkpt>
      <trkpt lat="47.11968" lon="-1.70915">
        <ele>50.942729</ele>
        <time>2022-12-17T11:22:18.394Z</time>
      </trkpt>
      <trkpt lat="47.11958" lon="-1.70922">
        <ele>50.787842</ele>
        <time>2022-12-17T11:22:20.364Z</time>
      </trkpt>
      <trkpt lat="47.11947" lon="-1.70929">
        <ele>50.621371</ele>
        <time>2022-12-17T11:22:22.361Z</time>
      </trkpt>
      <trkpt lat="47.11936" lon="-1.70936">
        <ele>50.447783</ele>
        <time>2022-12-17T11:22:24.366Z</time>
      </trkpt>
      <trkpt lat="47.11924" lon="-1.70944">
        <ele>50.266647</ele>
        <time>2022-12-17T11:22:26.366Z</time>
      </trkpt>
      <trkpt lat="47.11913" lon="-1.70952">
        <ele>50.090167</ele>
        <time>2022-12-17T11:22:28.383Z</time>
      </trkpt>
      <trkpt lat="47.11902" lon="-1.70959">
        <ele>49.924453</ele>
        <time>2022-12-17T11:22:30.388Z</time>
      </trkpt>
      <trkpt lat="47.11891" lon="-1.70965">
        <ele>49.992816</ele>
        <time>2022-12-17T11:22:32.364Z</time>
      </trkpt>
      <trkpt lat="47.11881" lon="-1.70971">
        <ele>50.0661</ele>
        <time>2022-12-17T11:22:34.372Z</time>
      </trkpt>
      <trkpt lat="47.11871" lon="-1.70978">
        <ele>50.133674</ele>
        <time>2022-12-17T11:22:36.404Z</time>
      </trkpt>
      <trkpt lat="47.11861" lon="-1.70985">
        <ele>50.205121</ele>
        <time>2022-12-17T11:22:38.388Z</time>
      </trkpt>
      <trkpt lat="47.11851" lon="-1.70991">
        <ele>50.276568</ele>
        <time>2022-12-17T11:22:40.385Z</time>
      </trkpt>
      <trkpt lat="47.1184" lon="-1.70997">
        <ele>50.348456</ele>
        <time>2022-12-17T11:22:42.365Z</time>
      </trkpt>
      <trkpt lat="47.1183" lon="-1.71004">
        <ele>50.421486</ele>
        <time>2022-12-17T11:22:44.389Z</time>
      </trkpt>
      <trkpt lat="47.1182" lon="-1.7101">
        <ele>50.491996</ele>
        <time>2022-12-17T11:22:46.387Z</time>
      </trkpt>
      <trkpt lat="47.11809" lon="-1.71016">
        <ele>50.563729</ele>
        <time>2022-12-17T11:22:48.378Z</time>
      </trkpt>
      <trkpt lat="47.11799" lon="-1.71024">
        <ele>50.635156</ele>
        <time>2022-12-17T11:22:50.388Z</time>
      </trkpt>
      <trkpt lat="47.11789" lon="-1.7103">
        <ele>50.70356</ele>
        <time>2022-12-17T11:22:52.365Z</time>
      </trkpt>
      <trkpt lat="47.1178" lon="-1.71037">
        <ele>50.770758</ele>
        <time>2022-12-17T11:22:54.384Z</time>
      </trkpt>
      <trkpt lat="47.1177" lon="-1.71043">
        <ele>50.838352</ele>
        <time>2022-12-17T11:22:56.380Z</time>
      </trkpt>
      <trkpt lat="47.11761" lon="-1.71048">
        <ele>50.901679</ele>
        <time>2022-12-17T11:22:58.383Z</time>
      </trkpt>
      <trkpt lat="47.11752" lon="-1.71054">
        <ele>50.967391</ele>
        <time>2022-12-17T11:23:00.392Z</time>
      </trkpt>
      <trkpt lat="47.11742" lon="-1.71061">
        <ele>51.03346</ele>
        <time>2022-12-17T11:23:02.365Z</time>
      </trkpt>
      <trkpt lat="47.11733" lon="-1.71067">
        <ele>51.050319</ele>
        <time>2022-12-17T11:23:04.386Z</time>
      </trkpt>
      <trkpt lat="47.11723" lon="-1.71074">
        <ele>51.005794</ele>
        <time>2022-12-17T11:23:06.388Z</time>
      </trkpt>
      <trkpt lat="47.11715" lon="-1.71079">
        <ele>50.966499</ele>
        <time>2022-12-17T11:23:08.370Z</time>
      </trkpt>
      <trkpt lat="47.11707" lon="-1.71085">
        <ele>50.927752</ele>
        <time>2022-12-17T11:23:10.381Z</time>
      </trkpt>
      <trkpt lat="47.11695" lon="-1.71092">
        <ele>50.872418</ele>
        <time>2022-12-17T11:23:13.390Z</time>
      </trkpt>
      <trkpt lat="47.11686" lon="-1.71098">
        <ele>50.832389</ele>
        <time>2022-12-17T11:23:15.380Z</time>
      </trkpt>
      <trkpt lat="47.11678" lon="-1.71103">
        <ele>50.793995</ele>
        <time>2022-12-17T11:23:17.393Z</time>
      </trkpt>
      <trkpt lat="47.1167" lon="-1.71109">
        <ele>50.753706</ele>
        <time>2022-12-17T11:23:19.393Z</time>
      </trkpt>
      <trkpt lat="47.11661" lon="-1.71115">
        <ele>50.712904</ele>
        <time>2022-12-17T11:23:21.394Z</time>
      </trkpt>
      <trkpt lat="47.11653" lon="-1.71123">
        <ele>50.671743</ele>
        <time>2022-12-17T11:23:23.391Z</time>
      </trkpt>
      <trkpt lat="47.11641" lon="-1.71132">
        <ele>50.613185</ele>
        <time>2022-12-17T11:23:26.387Z</time>
      </trkpt>
      <trkpt lat="47.11632" lon="-1.7114">
        <ele>50.570102</ele>
        <time>2022-12-17T11:23:28.380Z</time>
      </trkpt>
      <trkpt lat="47.11624" lon="-1.71147">
        <ele>50.527907</ele>
        <time>2022-12-17T11:23:30.388Z</time>
      </trkpt>
      <trkpt lat="47.11615" lon="-1.71155">
        <ele>50.484547</ele>
        <time>2022-12-17T11:23:32.364Z</time>
      </trkpt>
      <trkpt lat="47.11607" lon="-1.71164">
        <ele>50.440334</ele>
        <time>2022-12-17T11:23:34.395Z</time>
      </trkpt>
      <trkpt lat="47.11598" lon="-1.71174">
        <ele>50.394046</ele>
        <time>2022-12-17T11:23:36.393Z</time>
      </trkpt>
      <trkpt lat="47.1159" lon="-1.71184">
        <ele>50.347896</ele>
        <time>2022-12-17T11:23:38.386Z</time>
      </trkpt>
      <trkpt lat="47.11582" lon="-1.71194">
        <ele>50.30171</ele>
        <time>2022-12-17T11:23:40.378Z</time>
      </trkpt>
      <trkpt lat="47.11573" lon="-1.71205">
        <ele>50.122472</ele>
        <time>2022-12-17T11:23:42.362Z</time>
      </trkpt>
      <trkpt lat="47.11565" lon="-1.71217">
        <ele>49.924653</ele>
        <time>2022-12-17T11:23:44.371Z</time>
      </trkpt>
      <trkpt lat="47.11557" lon="-1.71228">
        <ele>49.732038</ele>
        <time>2022-12-17T11:23:46.385Z</time>
      </trkpt>
      <trkpt lat="47.11549" lon="-1.71241">
        <ele>49.537502</ele>
        <time>2022-12-17T11:23:48.385Z</time>
      </trkpt>
      <trkpt lat="47.11542" lon="-1.71254">
        <ele>49.344127</ele>
        <time>2022-12-17T11:23:50.385Z</time>
      </trkpt>
      <trkpt lat="47.11535" lon="-1.71266">
        <ele>49.164021</ele>
        <time>2022-12-17T11:23:52.366Z</time>
      </trkpt>
      <trkpt lat="47.11529" lon="-1.71278">
        <ele>48.999623</ele>
        <time>2022-12-17T11:23:54.384Z</time>
      </trkpt>
      <trkpt lat="47.11523" lon="-1.7129">
        <ele>48.828688</ele>
        <time>2022-12-17T11:23:56.364Z</time>
      </trkpt>
      <trkpt lat="47.11517" lon="-1.71302">
        <ele>48.662162</ele>
        <time>2022-12-17T11:23:58.366Z</time>
      </trkpt>
      <trkpt lat="47.11511" lon="-1.71314">
        <ele>48.487345</ele>
        <time>2022-12-17T11:24:00.372Z</time>
      </trkpt>
      <trkpt lat="47.11504" lon="-1.71326">
        <ele>48.31396</ele>
        <time>2022-12-17T11:24:02.365Z</time>
      </trkpt>
      <trkpt lat="47.11498" lon="-1.71338">
        <ele>48.131456</ele>
        <time>2022-12-17T11:24:04.380Z</time>
      </trkpt>
      <trkpt lat="47.11491" lon="-1.71351">
        <ele>47.948135</ele>
        <time>2022-12-17T11:24:06.385Z</time>
      </trkpt>
      <trkpt lat="47.11485" lon="-1.71364">
        <ele>47.761061</ele>
        <time>2022-12-17T11:24:08.382Z</time>
      </trkpt>
      <trkpt lat="47.11478" lon="-1.71378">
        <ele>47.574905</ele>
        <time>2022-12-17T11:24:10.385Z</time>
      </trkpt>
      <trkpt lat="47.11471" lon="-1.71391">
        <ele>47.384996</ele>
        <time>2022-12-17T11:24:12.368Z</time>
      </trkpt>
      <trkpt lat="47.11464" lon="-1.71405">
        <ele>47.260593</ele>
        <time>2022-12-17T11:24:14.369Z</time>
      </trkpt>
      <trkpt lat="47.11457" lon="-1.71418">
        <ele>47.22139</ele>
        <time>2022-12-17T11:24:16.366Z</time>
      </trkpt>
      <trkpt lat="47.1145" lon="-1.71431">
        <ele>47.180224</ele>
        <time>2022-12-17T11:24:18.380Z</time>
      </trkpt>
      <trkpt lat="47.11443" lon="-1.71445">
        <ele>47.140041</ele>
        <time>2022-12-17T11:24:20.369Z</time>
      </trkpt>
      <trkpt lat="47.11437" lon="-1.71458">
        <ele>47.099493</ele>
        <time>2022-12-17T11:24:22.367Z</time>
      </trkpt>
      <trkpt lat="47.1143" lon="-1.71472">
        <ele>47.057778</ele>
        <time>2022-12-17T11:24:24.370Z</time>
      </trkpt>
      <trkpt lat="47.11423" lon="-1.71486">
        <ele>47.016996</ele>
        <time>2022-12-17T11:24:26.375Z</time>
      </trkpt>
      <trkpt lat="47.11416" lon="-1.71499">
        <ele>46.975933</ele>
        <time>2022-12-17T11:24:28.369Z</time>
      </trkpt>
      <trkpt lat="47.11409" lon="-1.71513">
        <ele>46.934604</ele>
        <time>2022-12-17T11:24:30.388Z</time>
      </trkpt>
      <trkpt lat="47.11402" lon="-1.71527">
        <ele>46.892274</ele>
        <time>2022-12-17T11:24:32.365Z</time>
      </trkpt>
      <trkpt lat="47.11395" lon="-1.71542">
        <ele>46.84795</ele>
        <time>2022-12-17T11:24:34.382Z</time>
      </trkpt>
      <trkpt lat="47.11387" lon="-1.71556">
        <ele>46.804305</ele>
        <time>2022-12-17T11:24:36.367Z</time>
      </trkpt>
      <trkpt lat="47.1138" lon="-1.71569">
        <ele>46.764577</ele>
        <time>2022-12-17T11:24:38.376Z</time>
      </trkpt>
      <trkpt lat="47.11374" lon="-1.71582">
        <ele>46.725841</ele>
        <time>2022-12-17T11:24:40.380Z</time>
      </trkpt>
      <trkpt lat="47.11368" lon="-1.71595">
        <ele>46.689275</ele>
        <time>2022-12-17T11:24:42.366Z</time>
      </trkpt>
      <trkpt lat="47.11362" lon="-1.71605">
        <ele>46.656174</ele>
        <time>2022-12-17T11:24:44.366Z</time>
      </trkpt>
      <trkpt lat="47.11356" lon="-1.71616">
        <ele>46.72195</ele>
        <time>2022-12-17T11:24:46.368Z</time>
      </trkpt>
      <trkpt lat="47.11349" lon="-1.71632">
        <ele>46.918566</ele>
        <time>2022-12-17T11:24:49.375Z</time>
      </trkpt>
      <trkpt lat="47.11343" lon="-1.71643">
        <ele>47.058789</ele>
        <time>2022-12-17T11:24:51.383Z</time>
      </trkpt>
      <trkpt lat="47.11337" lon="-1.71654">
        <ele>47.201615</ele>
        <time>2022-12-17T11:24:53.373Z</time>
      </trkpt>
      <trkpt lat="47.11331" lon="-1.71666">
        <ele>47.347267</ele>
        <time>2022-12-17T11:24:55.371Z</time>
      </trkpt>
      <trkpt lat="47.11325" lon="-1.71677">
        <ele>47.491879</ele>
        <time>2022-12-17T11:24:57.394Z</time>
      </trkpt>
      <trkpt lat="47.11319" lon="-1.71689">
        <ele>47.642109</ele>
        <time>2022-12-17T11:24:59.380Z</time>
      </trkpt>
      <trkpt lat="47.11313" lon="-1.71701">
        <ele>47.791604</ele>
        <time>2022-12-17T11:25:01.385Z</time>
      </trkpt>
      <trkpt lat="47.11307" lon="-1.71713">
        <ele>47.945279</ele>
        <time>2022-12-17T11:25:03.369Z</time>
      </trkpt>
      <trkpt lat="47.11301" lon="-1.71725">
        <ele>48.092209</ele>
        <time>2022-12-17T11:25:05.390Z</time>
      </trkpt>
      <trkpt lat="47.11295" lon="-1.71737">
        <ele>48.236649</ele>
        <time>2022-12-17T11:25:07.379Z</time>
      </trkpt>
      <trkpt lat="47.11289" lon="-1.71749">
        <ele>48.388846</ele>
        <time>2022-12-17T11:25:09.384Z</time>
      </trkpt>
      <trkpt lat="47.11282" lon="-1.7176">
        <ele>48.538438</ele>
        <time>2022-12-17T11:25:11.381Z</time>
      </trkpt>
      <trkpt lat="47.11277" lon="-1.71772">
        <ele>48.680335</ele>
        <time>2022-12-17T11:25:13.387Z</time>
      </trkpt>
      <trkpt lat="47.11272" lon="-1.71783">
        <ele>48.816385</ele>
        <time>2022-12-17T11:25:15.383Z</time>
      </trkpt>
      <trkpt lat="47.11266" lon="-1.71794">
        <ele>48.948374</ele>
        <time>2022-12-17T11:25:17.376Z</time>
      </trkpt>
      <trkpt lat="47.1126" lon="-1.71809">
        <ele>49.131923</ele>
        <time>2022-12-17T11:25:20.378Z</time>
      </trkpt>
      <trkpt lat="47.11254" lon="-1.71823">
        <ele>49.304542</ele>
        <time>2022-12-17T11:25:23.382Z</time>
      </trkpt>
      <trkpt lat="47.11249" lon="-1.71837">
        <ele>49.730861</ele>
        <time>2022-12-17T11:25:26.369Z</time>
      </trkpt>
      <trkpt lat="47.11244" lon="-1.71851">
        <ele>50.132962</ele>
        <time>2022-12-17T11:25:29.386Z</time>
      </trkpt>
      <trkpt lat="47.1124" lon="-1.71865">
        <ele>50.530227</ele>
        <time>2022-12-17T11:25:32.365Z</time>
      </trkpt>
      <trkpt lat="47.11236" lon="-1.71878">
        <ele>50.920943</ele>
        <time>2022-12-17T11:25:35.363Z</time>
      </trkpt>
      <trkpt lat="47.11232" lon="-1.71892">
        <ele>51.323648</ele>
        <time>2022-12-17T11:25:38.364Z</time>
      </trkpt>
      <trkpt lat="47.11228" lon="-1.71906">
        <ele>51.727403</ele>
        <time>2022-12-17T11:25:41.384Z</time>
      </trkpt>
      <trkpt lat="47.11226" lon="-1.71919">
        <ele>52.100701</ele>
        <time>2022-12-17T11:25:44.383Z</time>
      </trkpt>
      <trkpt lat="47.11222" lon="-1.71932">
        <ele>52.482808</ele>
        <time>2022-12-17T11:25:47.385Z</time>
      </trkpt>
      <trkpt lat="47.11219" lon="-1.71946">
        <ele>52.881388</ele>
        <time>2022-12-17T11:25:50.371Z</time>
      </trkpt>
      <trkpt lat="47.11215" lon="-1.7196">
        <ele>53.266249</ele>
        <time>2022-12-17T11:25:53.390Z</time>
      </trkpt>
      <trkpt lat="47.11213" lon="-1.71973">
        <ele>53.628137</ele>
        <time>2022-12-17T11:25:56.370Z</time>
      </trkpt>
      <trkpt lat="47.11209" lon="-1.71988">
        <ele>54.067376</ele>
        <time>2022-12-17T11:26:00.387Z</time>
      </trkpt>
      <trkpt lat="47.11206" lon="-1.72001">
        <ele>54.425337</ele>
        <time>2022-12-17T11:26:03.385Z</time>
      </trkpt>
      <trkpt lat="47.11203" lon="-1.72015">
        <ele>54.82134</ele>
        <time>2022-12-17T11:26:06.387Z</time>
      </trkpt>
      <trkpt lat="47.112" lon="-1.72028">
        <ele>55.213551</ele>
        <time>2022-12-17T11:26:09.388Z</time>
      </trkpt>
      <trkpt lat="47.11196" lon="-1.72043">
        <ele>55.634985</ele>
        <time>2022-12-17T11:26:12.365Z</time>
      </trkpt>
      <trkpt lat="47.11192" lon="-1.72059">
        <ele>56.079217</ele>
        <time>2022-12-17T11:26:15.371Z</time>
      </trkpt>
      <trkpt lat="47.11189" lon="-1.72075">
        <ele>56.376302</ele>
        <time>2022-12-17T11:26:18.373Z</time>
      </trkpt>
      <trkpt lat="47.11185" lon="-1.72091">
        <ele>56.360544</ele>
        <time>2022-12-17T11:26:21.368Z</time>
      </trkpt>
      <trkpt lat="47.11181" lon="-1.72106">
        <ele>56.34457</ele>
        <time>2022-12-17T11:26:24.388Z</time>
      </trkpt>
      <trkpt lat="47.11177" lon="-1.72123">
        <ele>56.327963</ele>
        <time>2022-12-17T11:26:27.387Z</time>
      </trkpt>
      <trkpt lat="47.11173" lon="-1.72139">
        <ele>56.310917</ele>
        <time>2022-12-17T11:26:30.375Z</time>
      </trkpt>
      <trkpt lat="47.11168" lon="-1.72157">
        <ele>56.29322</ele>
        <time>2022-12-17T11:26:33.386Z</time>
      </trkpt>
      <trkpt lat="47.11164" lon="-1.72175">
        <ele>56.274929</ele>
        <time>2022-12-17T11:26:36.377Z</time>
      </trkpt>
      <trkpt lat="47.1116" lon="-1.72192">
        <ele>56.257325</ele>
        <time>2022-12-17T11:26:39.385Z</time>
      </trkpt>
      <trkpt lat="47.11156" lon="-1.72208">
        <ele>56.240935</ele>
        <time>2022-12-17T11:26:42.369Z</time>
      </trkpt>
      <trkpt lat="47.11152" lon="-1.72225">
        <ele>56.223693</ele>
        <time>2022-12-17T11:26:45.385Z</time>
      </trkpt>
      <trkpt lat="47.11148" lon="-1.72244">
        <ele>56.205092</ele>
        <time>2022-12-17T11:26:48.366Z</time>
      </trkpt>
      <trkpt lat="47.11144" lon="-1.72258">
        <ele>56.190287</ele>
        <time>2022-12-17T11:26:50.366Z</time>
      </trkpt>
      <trkpt lat="47.1114" lon="-1.72273">
        <ele>56.175382</ele>
        <time>2022-12-17T11:26:52.372Z</time>
      </trkpt>
      <trkpt lat="47.11137" lon="-1.72288">
        <ele>56.160404</ele>
        <time>2022-12-17T11:26:54.366Z</time>
      </trkpt>
      <trkpt lat="47.11133" lon="-1.72303">
        <ele>56.145103</ele>
        <time>2022-12-17T11:26:56.385Z</time>
      </trkpt>
      <trkpt lat="47.11128" lon="-1.72321">
        <ele>56.140175</ele>
        <time>2022-12-17T11:26:59.390Z</time>
      </trkpt>
      <trkpt lat="47.11125" lon="-1.72335">
        <ele>56.196215</ele>
        <time>2022-12-17T11:27:01.384Z</time>
      </trkpt>
      <trkpt lat="47.11122" lon="-1.72348">
        <ele>56.253727</ele>
        <time>2022-12-17T11:27:03.387Z</time>
      </trkpt>
      <trkpt lat="47.11118" lon="-1.72363">
        <ele>56.312615</ele>
        <time>2022-12-17T11:27:05.368Z</time>
      </trkpt>
      <trkpt lat="47.11115" lon="-1.72377">
        <ele>56.371868</ele>
        <time>2022-12-17T11:27:07.377Z</time>
      </trkpt>
      <trkpt lat="47.11112" lon="-1.72391">
        <ele>56.42912</ele>
        <time>2022-12-17T11:27:09.377Z</time>
      </trkpt>
      <trkpt lat="47.11109" lon="-1.72406">
        <ele>56.48878</ele>
        <time>2022-12-17T11:27:11.365Z</time>
      </trkpt>
      <trkpt lat="47.11105" lon="-1.72421">
        <ele>56.550063</ele>
        <time>2022-12-17T11:27:13.387Z</time>
      </trkpt>
      <trkpt lat="47.11102" lon="-1.72435">
        <ele>56.607484</ele>
        <time>2022-12-17T11:27:15.379Z</time>
      </trkpt>
      <trkpt lat="47.11099" lon="-1.72449">
        <ele>56.667144</ele>
        <time>2022-12-17T11:27:17.383Z</time>
      </trkpt>
      <trkpt lat="47.11096" lon="-1.72463">
        <ele>56.72382</ele>
        <time>2022-12-17T11:27:19.385Z</time>
      </trkpt>
      <trkpt lat="47.11093" lon="-1.72477">
        <ele>56.781793</ele>
        <time>2022-12-17T11:27:21.385Z</time>
      </trkpt>
      <trkpt lat="47.1109" lon="-1.72491">
        <ele>56.83852</ele>
        <time>2022-12-17T11:27:23.379Z</time>
      </trkpt>
      <trkpt lat="47.11087" lon="-1.72507">
        <ele>56.900487</ele>
        <time>2022-12-17T11:27:25.387Z</time>
      </trkpt>
      <trkpt lat="47.11085" lon="-1.72522">
        <ele>56.96102</ele>
        <time>2022-12-17T11:27:27.398Z</time>
      </trkpt>
      <trkpt lat="47.11084" lon="-1.72536">
        <ele>57.017738</ele>
        <time>2022-12-17T11:27:29.379Z</time>
      </trkpt>
      <trkpt lat="47.11084" lon="-1.7255">
        <ele>57.071245</ele>
        <time>2022-12-17T11:27:31.368Z</time>
      </trkpt>
      <trkpt lat="47.11086" lon="-1.72564">
        <ele>57.125979</ele>
        <time>2022-12-17T11:27:33.366Z</time>
      </trkpt>
      <trkpt lat="47.11088" lon="-1.72578">
        <ele>57.152173</ele>
        <time>2022-12-17T11:27:35.378Z</time>
      </trkpt>
      <trkpt lat="47.11091" lon="-1.72591">
        <ele>57.1433</ele>
        <time>2022-12-17T11:27:37.392Z</time>
      </trkpt>
      <trkpt lat="47.11097" lon="-1.72609">
        <ele>57.130286</ele>
        <time>2022-12-17T11:27:40.384Z</time>
      </trkpt>
      <trkpt lat="47.11099" lon="-1.72622">
        <ele>57.120877</ele>
        <time>2022-12-17T11:27:42.365Z</time>
      </trkpt>
      <trkpt lat="47.11103" lon="-1.72636">
        <ele>57.11123</ele>
        <time>2022-12-17T11:27:44.378Z</time>
      </trkpt>
      <trkpt lat="47.11106" lon="-1.72649">
        <ele>57.101989</ele>
        <time>2022-12-17T11:27:46.390Z</time>
      </trkpt>
      <trkpt lat="47.11109" lon="-1.72662">
        <ele>57.092838</ele>
        <time>2022-12-17T11:27:48.377Z</time>
      </trkpt>
      <trkpt lat="47.11112" lon="-1.72675">
        <ele>57.083754</ele>
        <time>2022-12-17T11:27:50.387Z</time>
      </trkpt>
      <trkpt lat="47.11116" lon="-1.72688">
        <ele>57.074517</ele>
        <time>2022-12-17T11:27:52.366Z</time>
      </trkpt>
      <trkpt lat="47.11119" lon="-1.72702">
        <ele>57.064693</ele>
        <time>2022-12-17T11:27:54.387Z</time>
      </trkpt>
      <trkpt lat="47.11123" lon="-1.72716">
        <ele>57.054921</ele>
        <time>2022-12-17T11:27:56.374Z</time>
      </trkpt>
      <trkpt lat="47.11127" lon="-1.72729">
        <ele>57.045257</ele>
        <time>2022-12-17T11:27:58.370Z</time>
      </trkpt>
      <trkpt lat="47.11131" lon="-1.72743">
        <ele>57.035357</ele>
        <time>2022-12-17T11:28:00.390Z</time>
      </trkpt>
      <trkpt lat="47.11135" lon="-1.72757">
        <ele>57.025456</ele>
        <time>2022-12-17T11:28:02.368Z</time>
      </trkpt>
      <trkpt lat="47.11138" lon="-1.72771">
        <ele>57.015275</ele>
        <time>2022-12-17T11:28:04.384Z</time>
      </trkpt>
      <trkpt lat="47.11141" lon="-1.72786">
        <ele>57.005254</ele>
        <time>2022-12-17T11:28:06.386Z</time>
      </trkpt>
      <trkpt lat="47.11145" lon="-1.728">
        <ele>56.99539</ele>
        <time>2022-12-17T11:28:08.382Z</time>
      </trkpt>
      <trkpt lat="47.11148" lon="-1.72813">
        <ele>56.986044</ele>
        <time>2022-12-17T11:28:10.385Z</time>
      </trkpt>
      <trkpt lat="47.11151" lon="-1.72827">
        <ele>56.975164</ele>
        <time>2022-12-17T11:28:12.371Z</time>
      </trkpt>
      <trkpt lat="47.11155" lon="-1.72839">
        <ele>56.963984</ele>
        <time>2022-12-17T11:28:14.386Z</time>
      </trkpt>
      <trkpt lat="47.11158" lon="-1.72853">
        <ele>56.952076</ele>
        <time>2022-12-17T11:28:16.370Z</time>
      </trkpt>
      <trkpt lat="47.1116" lon="-1.72868">
        <ele>56.939583</ele>
        <time>2022-12-17T11:28:18.371Z</time>
      </trkpt>
      <trkpt lat="47.11163" lon="-1.72882">
        <ele>56.927326</ele>
        <time>2022-12-17T11:28:20.390Z</time>
      </trkpt>
      <trkpt lat="47.11166" lon="-1.72896">
        <ele>56.915609</ele>
        <time>2022-12-17T11:28:22.371Z</time>
      </trkpt>
      <trkpt lat="47.1117" lon="-1.7291">
        <ele>56.903119</ele>
        <time>2022-12-17T11:28:24.372Z</time>
      </trkpt>
      <trkpt lat="47.11172" lon="-1.72924">
        <ele>56.891008</ele>
        <time>2022-12-17T11:28:26.370Z</time>
      </trkpt>
      <trkpt lat="47.11177" lon="-1.72943">
        <ele>56.874674</ele>
        <time>2022-12-17T11:28:29.381Z</time>
      </trkpt>
      <trkpt lat="47.1118" lon="-1.72956">
        <ele>56.863701</ele>
        <time>2022-12-17T11:28:31.384Z</time>
      </trkpt>
      <trkpt lat="47.11183" lon="-1.72975">
        <ele>56.847197</ele>
        <time>2022-12-17T11:28:34.377Z</time>
      </trkpt>
      <trkpt lat="47.11187" lon="-1.72988">
        <ele>56.835789</ele>
        <time>2022-12-17T11:28:36.382Z</time>
      </trkpt>
      <trkpt lat="47.1119" lon="-1.73001">
        <ele>56.824551</ele>
        <time>2022-12-17T11:28:38.389Z</time>
      </trkpt>
      <trkpt lat="47.11194" lon="-1.7302">
        <ele>56.808092</ele>
        <time>2022-12-17T11:28:41.384Z</time>
      </trkpt>
      <trkpt lat="47.11199" lon="-1.73037">
        <ele>56.792699</ele>
        <time>2022-12-17T11:28:44.380Z</time>
      </trkpt>
      <trkpt lat="47.11203" lon="-1.73054">
        <ele>56.778389</ele>
        <time>2022-12-17T11:28:47.386Z</time>
      </trkpt>
      <trkpt lat="47.11206" lon="-1.73071">
        <ele>56.745141</ele>
        <time>2022-12-17T11:28:50.380Z</time>
      </trkpt>
      <trkpt lat="47.1121" lon="-1.73087">
        <ele>56.47651</ele>
        <time>2022-12-17T11:28:53.377Z</time>
      </trkpt>
      <trkpt lat="47.11213" lon="-1.73103">
        <ele>56.213093</ele>
        <time>2022-12-17T11:28:56.389Z</time>
      </trkpt>
      <trkpt lat="47.11217" lon="-1.7312">
        <ele>55.934635</ele>
        <time>2022-12-17T11:29:00.387Z</time>
      </trkpt>
      <trkpt lat="47.11221" lon="-1.73135">
        <ele>55.68242</ele>
        <time>2022-12-17T11:29:03.374Z</time>
      </trkpt>
      <trkpt lat="47.11224" lon="-1.73152">
        <ele>55.395546</ele>
        <time>2022-12-17T11:29:06.365Z</time>
      </trkpt>
      <trkpt lat="47.11227" lon="-1.73165">
        <ele>55.180658</ele>
        <time>2022-12-17T11:29:08.386Z</time>
      </trkpt>
      <trkpt lat="47.11231" lon="-1.73178">
        <ele>54.957637</ele>
        <time>2022-12-17T11:29:10.388Z</time>
      </trkpt>
      <trkpt lat="47.11234" lon="-1.73191">
        <ele>54.748703</ele>
        <time>2022-12-17T11:29:12.367Z</time>
      </trkpt>
      <trkpt lat="47.11238" lon="-1.73203">
        <ele>54.537097</ele>
        <time>2022-12-17T11:29:14.381Z</time>
      </trkpt>
      <trkpt lat="47.1124" lon="-1.73217">
        <ele>54.307725</ele>
        <time>2022-12-17T11:29:16.383Z</time>
      </trkpt>
      <trkpt lat="47.11243" lon="-1.73231">
        <ele>54.077091</ele>
        <time>2022-12-17T11:29:18.368Z</time>
      </trkpt>
      <trkpt lat="47.11246" lon="-1.73244">
        <ele>53.86111</ele>
        <time>2022-12-17T11:29:20.387Z</time>
      </trkpt>
      <trkpt lat="47.1125" lon="-1.73259">
        <ele>53.614483</ele>
        <time>2022-12-17T11:29:22.365Z</time>
      </trkpt>
      <trkpt lat="47.11254" lon="-1.73273">
        <ele>53.375712</ele>
        <time>2022-12-17T11:29:24.383Z</time>
      </trkpt>
      <trkpt lat="47.11256" lon="-1.73287">
        <ele>53.143306</ele>
        <time>2022-12-17T11:29:26.387Z</time>
      </trkpt>
      <trkpt lat="47.11258" lon="-1.73303">
        <ele>52.89264</ele>
        <time>2022-12-17T11:29:28.369Z</time>
      </trkpt>
      <trkpt lat="47.11259" lon="-1.73318">
        <ele>52.644468</ele>
        <time>2022-12-17T11:29:30.391Z</time>
      </trkpt>
      <trkpt lat="47.1126" lon="-1.73334">
        <ele>52.485057</ele>
        <time>2022-12-17T11:29:32.370Z</time>
      </trkpt>
      <trkpt lat="47.11263" lon="-1.73354">
        <ele>52.31783</ele>
        <time>2022-12-17T11:29:35.376Z</time>
      </trkpt>
      <trkpt lat="47.11262" lon="-1.73369">
        <ele>52.187973</ele>
        <time>2022-12-17T11:29:37.384Z</time>
      </trkpt>
      <trkpt lat="47.11263" lon="-1.73383">
        <ele>52.063498</ele>
        <time>2022-12-17T11:29:39.386Z</time>
      </trkpt>
      <trkpt lat="47.11264" lon="-1.73398">
        <ele>51.935268</ele>
        <time>2022-12-17T11:29:41.386Z</time>
      </trkpt>
      <trkpt lat="47.11264" lon="-1.73412">
        <ele>51.817456</ele>
        <time>2022-12-17T11:29:43.391Z</time>
      </trkpt>
      <trkpt lat="47.11266" lon="-1.73428">
        <ele>51.675161</ele>
        <time>2022-12-17T11:29:45.391Z</time>
      </trkpt>
      <trkpt lat="47.11267" lon="-1.73441">
        <ele>51.557289</ele>
        <time>2022-12-17T11:29:47.383Z</time>
      </trkpt>
      <trkpt lat="47.11268" lon="-1.73455">
        <ele>51.437755</ele>
        <time>2022-12-17T11:29:49.386Z</time>
      </trkpt>
      <trkpt lat="47.1127" lon="-1.73469">
        <ele>51.319655</ele>
        <time>2022-12-17T11:29:51.378Z</time>
      </trkpt>
      <trkpt lat="47.1127" lon="-1.73488">
        <ele>51.156091</ele>
        <time>2022-12-17T11:29:54.389Z</time>
      </trkpt>
      <trkpt lat="47.11271" lon="-1.73501">
        <ele>51.040686</ele>
        <time>2022-12-17T11:29:56.392Z</time>
      </trkpt>
      <trkpt lat="47.11271" lon="-1.73519">
        <ele>50.890192</ele>
        <time>2022-12-17T11:29:59.385Z</time>
      </trkpt>
      <trkpt lat="47.11271" lon="-1.73534">
        <ele>50.761663</ele>
        <time>2022-12-17T11:30:02.368Z</time>
      </trkpt>
      <trkpt lat="47.11274" lon="-1.73547">
        <ele>50.639539</ele>
        <time>2022-12-17T11:30:06.370Z</time>
      </trkpt>
      <trkpt lat="47.11276" lon="-1.73561">
        <ele>50.519202</ele>
        <time>2022-12-17T11:30:11.386Z</time>
      </trkpt>
      <trkpt lat="47.11275" lon="-1.73563">
        <ele>50.50075</ele>
        <time>2022-12-17T11:30:23.291Z</time>
      </trkpt>
      <trkpt lat="47.11287" lon="-1.73578">
        <ele>50.322306</ele>
        <time>2022-12-17T11:34:00.381Z</time>
      </trkpt>
      <trkpt lat="47.11297" lon="-1.73586">
        <ele>50.297018</ele>
        <time>2022-12-17T11:34:05.379Z</time>
      </trkpt>
      <trkpt lat="47.11303" lon="-1.73597">
        <ele>50.276269</ele>
        <time>2022-12-17T11:34:08.391Z</time>
      </trkpt>
      <trkpt lat="47.1131" lon="-1.7361">
        <ele>50.253401</ele>
        <time>2022-12-17T11:34:11.391Z</time>
      </trkpt>
      <trkpt lat="47.11316" lon="-1.73621">
        <ele>50.231986</ele>
        <time>2022-12-17T11:34:14.382Z</time>
      </trkpt>
      <trkpt lat="47.11322" lon="-1.73633">
        <ele>50.209781</ele>
        <time>2022-12-17T11:34:17.371Z</time>
      </trkpt>
      <trkpt lat="47.11329" lon="-1.73647">
        <ele>50.184207</ele>
        <time>2022-12-17T11:34:20.728Z</time>
      </trkpt>
      <trkpt lat="47.11337" lon="-1.73662">
        <ele>50.157226</ele>
        <time>2022-12-17T11:34:23.376Z</time>
      </trkpt>
      <trkpt lat="47.11345" lon="-1.73677">
        <ele>50.128542</ele>
        <time>2022-12-17T11:34:26.380Z</time>
      </trkpt>
      <trkpt lat="47.11351" lon="-1.73689">
        <ele>50.10709</ele>
        <time>2022-12-17T11:34:28.376Z</time>
      </trkpt>
      <trkpt lat="47.11356" lon="-1.737">
        <ele>50.087444</ele>
        <time>2022-12-17T11:34:30.381Z</time>
      </trkpt>
      <trkpt lat="47.11364" lon="-1.73715">
        <ele>50.059301</ele>
        <time>2022-12-17T11:34:33.376Z</time>
      </trkpt>
      <trkpt lat="47.11371" lon="-1.73729">
        <ele>50.034079</ele>
        <time>2022-12-17T11:34:36.378Z</time>
      </trkpt>
      <trkpt lat="47.11378" lon="-1.73745">
        <ele>50.005234</ele>
        <time>2022-12-17T11:34:39.379Z</time>
      </trkpt>
      <trkpt lat="47.11382" lon="-1.73758">
        <ele>49.985251</ele>
        <time>2022-12-17T11:34:41.381Z</time>
      </trkpt>
      <trkpt lat="47.11386" lon="-1.7377">
        <ele>49.965599</ele>
        <time>2022-12-17T11:34:43.375Z</time>
      </trkpt>
      <trkpt lat="47.1139" lon="-1.73782">
        <ele>49.945747</ele>
        <time>2022-12-17T11:34:45.392Z</time>
      </trkpt>
      <trkpt lat="47.11395" lon="-1.73799">
        <ele>49.762219</ele>
        <time>2022-12-17T11:34:48.380Z</time>
      </trkpt>
      <trkpt lat="47.114" lon="-1.73814">
        <ele>49.555115</ele>
        <time>2022-12-17T11:34:51.380Z</time>
      </trkpt>
      <trkpt lat="47.11405" lon="-1.73831">
        <ele>49.310468</ele>
        <time>2022-12-17T11:34:54.391Z</time>
      </trkpt>
      <trkpt lat="47.11411" lon="-1.73848">
        <ele>49.070325</ele>
        <time>2022-12-17T11:34:57.380Z</time>
      </trkpt>
      <trkpt lat="47.11415" lon="-1.73863">
        <ele>48.84911</ele>
        <time>2022-12-17T11:35:00.383Z</time>
      </trkpt>
      <trkpt lat="47.1142" lon="-1.73878">
        <ele>48.645487</ele>
        <time>2022-12-17T11:35:03.375Z</time>
      </trkpt>
      <trkpt lat="47.11424" lon="-1.7389">
        <ele>48.464684</ele>
        <time>2022-12-17T11:35:06.385Z</time>
      </trkpt>
      <trkpt lat="47.11428" lon="-1.73902">
        <ele>48.291109</ele>
        <time>2022-12-17T11:35:09.387Z</time>
      </trkpt>
      <trkpt lat="47.11434" lon="-1.73917">
        <ele>48.069654</ele>
        <time>2022-12-17T11:35:12.380Z</time>
      </trkpt>
      <trkpt lat="47.11438" lon="-1.73931">
        <ele>47.877142</ele>
        <time>2022-12-17T11:35:14.398Z</time>
      </trkpt>
      <trkpt lat="47.11443" lon="-1.73943">
        <ele>47.691293</ele>
        <time>2022-12-17T11:35:16.387Z</time>
      </trkpt>
      <trkpt lat="47.1145" lon="-1.73955">
        <ele>47.492574</ele>
        <time>2022-12-17T11:35:18.396Z</time>
      </trkpt>
      <trkpt lat="47.11456" lon="-1.73966">
        <ele>47.311946</ele>
        <time>2022-12-17T11:35:20.395Z</time>
      </trkpt>
      <trkpt lat="47.11463" lon="-1.73974">
        <ele>47.136665</ele>
        <time>2022-12-17T11:35:22.374Z</time>
      </trkpt>
      <trkpt lat="47.11475" lon="-1.73983">
        <ele>46.88156</ele>
        <time>2022-12-17T11:35:25.378Z</time>
      </trkpt>
      <trkpt lat="47.11486" lon="-1.73991">
        <ele>46.656013</ele>
        <time>2022-12-17T11:35:28.391Z</time>
      </trkpt>
      <trkpt lat="47.11495" lon="-1.73994">
        <ele>46.573403</ele>
        <time>2022-12-17T11:35:31.377Z</time>
      </trkpt>
      <trkpt lat="47.11502" lon="-1.74003">
        <ele>46.735298</ele>
        <time>2022-12-17T11:35:49.378Z</time>
      </trkpt>
      <trkpt lat="47.11493" lon="-1.74001">
        <ele>46.895703</ele>
        <time>2022-12-17T11:36:08.383Z</time>
      </trkpt>
      <trkpt lat="47.11484" lon="-1.73997">
        <ele>47.06843</ele>
        <time>2022-12-17T11:36:13.392Z</time>
      </trkpt>
      <trkpt lat="47.11474" lon="-1.73993">
        <ele>47.247464</ele>
        <time>2022-12-17T11:36:17.386Z</time>
      </trkpt>
      <trkpt lat="47.11464" lon="-1.73985">
        <ele>47.441902</ele>
        <time>2022-12-17T11:36:21.389Z</time>
      </trkpt>
      <trkpt lat="47.11455" lon="-1.73976">
        <ele>47.626318</ele>
        <time>2022-12-17T11:36:25.390Z</time>
      </trkpt>
      <trkpt lat="47.11447" lon="-1.73966">
        <ele>47.823608</ele>
        <time>2022-12-17T11:36:29.392Z</time>
      </trkpt>
      <trkpt lat="47.11439" lon="-1.73954">
        <ele>48.019442</ele>
        <time>2022-12-17T11:36:33.390Z</time>
      </trkpt>
      <trkpt lat="47.11433" lon="-1.7394">
        <ele>48.220536</ele>
        <time>2022-12-17T11:36:37.386Z</time>
      </trkpt>
      <trkpt lat="47.11428" lon="-1.73927">
        <ele>48.395842</ele>
        <time>2022-12-17T11:36:41.382Z</time>
      </trkpt>
      <trkpt lat="47.11425" lon="-1.73914">
        <ele>48.56666</ele>
        <time>2022-12-17T11:36:45.377Z</time>
      </trkpt>
      <trkpt lat="47.11422" lon="-1.73899">
        <ele>48.749811</ele>
        <time>2022-12-17T11:36:49.390Z</time>
      </trkpt>
      <trkpt lat="47.11418" lon="-1.73887">
        <ele>48.912406</ele>
        <time>2022-12-17T11:36:53.390Z</time>
      </trkpt>
      <trkpt lat="47.11415" lon="-1.73871">
        <ele>49.112177</ele>
        <time>2022-12-17T11:36:58.374Z</time>
      </trkpt>
      <trkpt lat="47.1141" lon="-1.73857">
        <ele>49.302186</ele>
        <time>2022-12-17T11:37:02.380Z</time>
      </trkpt>
      <trkpt lat="47.11406" lon="-1.73844">
        <ele>49.467652</ele>
        <time>2022-12-17T11:37:05.374Z</time>
      </trkpt>
      <trkpt lat="47.11401" lon="-1.73831">
        <ele>49.646111</ele>
        <time>2022-12-17T11:37:08.377Z</time>
      </trkpt>
      <trkpt lat="47.11396" lon="-1.73817">
        <ele>49.874597</ele>
        <time>2022-12-17T11:37:11.379Z</time>
      </trkpt>
      <trkpt lat="47.11392" lon="-1.73803">
        <ele>50.119168</ele>
        <time>2022-12-17T11:37:14.403Z</time>
      </trkpt>
      <trkpt lat="47.11388" lon="-1.73789">
        <ele>50.369221</ele>
        <time>2022-12-17T11:37:17.376Z</time>
      </trkpt>
      <trkpt lat="47.11383" lon="-1.73775">
        <ele>50.611744</ele>
        <time>2022-12-17T11:37:20.379Z</time>
      </trkpt>
      <trkpt lat="47.11379" lon="-1.73761">
        <ele>50.863857</ele>
        <time>2022-12-17T11:37:23.392Z</time>
      </trkpt>
      <trkpt lat="47.11374" lon="-1.73746">
        <ele>51.117984</ele>
        <time>2022-12-17T11:37:26.381Z</time>
      </trkpt>
      <trkpt lat="47.11369" lon="-1.73732">
        <ele>51.371374</ele>
        <time>2022-12-17T11:37:29.389Z</time>
      </trkpt>
      <trkpt lat="47.11363" lon="-1.73721">
        <ele>51.592893</ele>
        <time>2022-12-17T11:37:32.376Z</time>
      </trkpt>
      <trkpt lat="47.11356" lon="-1.73707">
        <ele>51.868075</ele>
        <time>2022-12-17T11:37:36.379Z</time>
      </trkpt>
      <trkpt lat="47.1135" lon="-1.73694">
        <ele>52.109161</ele>
        <time>2022-12-17T11:37:39.374Z</time>
      </trkpt>
      <trkpt lat="47.11344" lon="-1.73681">
        <ele>52.369961</ele>
        <time>2022-12-17T11:37:42.374Z</time>
      </trkpt>
      <trkpt lat="47.11337" lon="-1.73668">
        <ele>52.629472</ele>
        <time>2022-12-17T11:37:45.394Z</time>
      </trkpt>
      <trkpt lat="47.11331" lon="-1.73656">
        <ele>52.863064</ele>
        <time>2022-12-17T11:37:48.382Z</time>
      </trkpt>
      <trkpt lat="47.11326" lon="-1.73645">
        <ele>53.081958</ele>
        <time>2022-12-17T11:37:51.380Z</time>
      </trkpt>
      <trkpt lat="47.11319" lon="-1.73632">
        <ele>53.330024</ele>
        <time>2022-12-17T11:37:54.382Z</time>
      </trkpt>
      <trkpt lat="47.11313" lon="-1.73619">
        <ele>53.585547</ele>
        <time>2022-12-17T11:37:57.389Z</time>
      </trkpt>
      <trkpt lat="47.11308" lon="-1.73606">
        <ele>53.828151</ele>
        <time>2022-12-17T11:38:00.389Z</time>
      </trkpt>
      <trkpt lat="47.11301" lon="-1.73595">
        <ele>53.718947</ele>
        <time>2022-12-17T11:38:03.377Z</time>
      </trkpt>
      <trkpt lat="47.11295" lon="-1.73582">
        <ele>53.487847</ele>
        <time>2022-12-17T11:38:07.380Z</time>
      </trkpt>
      <trkpt lat="47.11288" lon="-1.73569">
        <ele>53.261828</ele>
        <time>2022-12-17T11:38:11.395Z</time>
      </trkpt>
      <trkpt lat="47.11282" lon="-1.73559">
        <ele>53.067278</ele>
        <time>2022-12-17T11:38:15.380Z</time>
      </trkpt>
      <trkpt lat="47.11273" lon="-1.73556">
        <ele>52.86329</ele>
        <time>2022-12-17T11:38:19.369Z</time>
      </trkpt>
      <trkpt lat="47.11262" lon="-1.73557">
        <ele>52.639724</ele>
        <time>2022-12-17T11:38:23.379Z</time>
      </trkpt>
      <trkpt lat="47.11239" lon="-1.73559">
        <ele>52.136372</ele>
        <time>2022-12-17T11:38:49.381Z</time>
      </trkpt>
      <trkpt lat="47.11228" lon="-1.73559">
        <ele>51.901645</ele>
        <time>2022-12-17T11:38:52.381Z</time>
      </trkpt>
      <trkpt lat="47.11217" lon="-1.73559">
        <ele>51.669078</ele>
        <time>2022-12-17T11:38:55.376Z</time>
      </trkpt>
      <trkpt lat="47.11205" lon="-1.73558">
        <ele>51.432287</ele>
        <time>2022-12-17T11:38:58.407Z</time>
      </trkpt>
      <trkpt lat="47.11194" lon="-1.73557">
        <ele>51.193059</ele>
        <time>2022-12-17T11:39:01.398Z</time>
      </trkpt>
      <trkpt lat="47.11183" lon="-1.73558">
        <ele>50.966719</ele>
        <time>2022-12-17T11:39:04.375Z</time>
      </trkpt>
      <trkpt lat="47.11172" lon="-1.73557">
        <ele>50.733726</ele>
        <time>2022-12-17T11:39:07.378Z</time>
      </trkpt>
      <trkpt lat="47.1116" lon="-1.73558">
        <ele>50.465157</ele>
        <time>2022-12-17T11:39:10.395Z</time>
      </trkpt>
      <trkpt lat="47.1115" lon="-1.73557">
        <ele>50.264318</ele>
        <time>2022-12-17T11:39:12.383Z</time>
      </trkpt>
      <trkpt lat="47.11141" lon="-1.73557">
        <ele>50.080382</ele>
        <time>2022-12-17T11:39:14.400Z</time>
      </trkpt>
      <trkpt lat="47.11131" lon="-1.73556">
        <ele>50.10215</ele>
        <time>2022-12-17T11:39:16.375Z</time>
      </trkpt>
      <trkpt lat="47.11122" lon="-1.73556">
        <ele>50.123892</ele>
        <time>2022-12-17T11:39:18.382Z</time>
      </trkpt>
      <trkpt lat="47.1111" lon="-1.73551">
        <ele>50.153601</ele>
        <time>2022-12-17T11:39:21.403Z</time>
      </trkpt>
      <trkpt lat="47.11097" lon="-1.73548">
        <ele>50.182859</ele>
        <time>2022-12-17T11:39:24.396Z</time>
      </trkpt>
      <trkpt lat="47.11089" lon="-1.73544">
        <ele>50.203944</ele>
        <time>2022-12-17T11:39:26.376Z</time>
      </trkpt>
      <trkpt lat="47.11076" lon="-1.73538">
        <ele>50.234836</ele>
        <time>2022-12-17T11:39:29.400Z</time>
      </trkpt>
      <trkpt lat="47.11067" lon="-1.73535">
        <ele>50.256409</ele>
        <time>2022-12-17T11:39:31.390Z</time>
      </trkpt>
      <trkpt lat="47.11055" lon="-1.73529">
        <ele>50.286526</ele>
        <time>2022-12-17T11:39:34.379Z</time>
      </trkpt>
      <trkpt lat="47.11046" lon="-1.73525">
        <ele>50.307788</ele>
        <time>2022-12-17T11:39:36.375Z</time>
      </trkpt>
      <trkpt lat="47.11034" lon="-1.73519">
        <ele>50.338515</ele>
        <time>2022-12-17T11:39:39.377Z</time>
      </trkpt>
      <trkpt lat="47.11022" lon="-1.73513">
        <ele>50.368095</ele>
        <time>2022-12-17T11:39:42.378Z</time>
      </trkpt>
      <trkpt lat="47.1101" lon="-1.73507">
        <ele>50.396676</ele>
        <time>2022-12-17T11:39:45.382Z</time>
      </trkpt>
      <trkpt lat="47.11" lon="-1.73502">
        <ele>50.422514</ele>
        <time>2022-12-17T11:39:48.380Z</time>
      </trkpt>
      <trkpt lat="47.1099" lon="-1.73498">
        <ele>50.447566</ele>
        <time>2022-12-17T11:39:51.377Z</time>
      </trkpt>
      <trkpt lat="47.10978" lon="-1.73494">
        <ele>50.475874</ele>
        <time>2022-12-17T11:39:54.375Z</time>
      </trkpt>
      <trkpt lat="47.10965" lon="-1.73493">
        <ele>50.589686</ele>
        <time>2022-12-17T11:39:57.375Z</time>
      </trkpt>
      <trkpt lat="47.10955" lon="-1.73495">
        <ele>50.850383</ele>
        <time>2022-12-17T11:39:59.392Z</time>
      </trkpt>
      <trkpt lat="47.10942" lon="-1.73497">
        <ele>51.21826</ele>
        <time>2022-12-17T11:40:02.371Z</time>
      </trkpt>
      <trkpt lat="47.1093" lon="-1.73501">
        <ele>51.565731</ele>
        <time>2022-12-17T11:40:05.383Z</time>
      </trkpt>
      <trkpt lat="47.10918" lon="-1.73503">
        <ele>51.889935</ele>
        <time>2022-12-17T11:40:08.376Z</time>
      </trkpt>
      <trkpt lat="47.10907" lon="-1.73507">
        <ele>52.215745</ele>
        <time>2022-12-17T11:40:11.378Z</time>
      </trkpt>
      <trkpt lat="47.10895" lon="-1.7351">
        <ele>52.54717</ele>
        <time>2022-12-17T11:40:14.382Z</time>
      </trkpt>
      <trkpt lat="47.10883" lon="-1.73513">
        <ele>52.870416</ele>
        <time>2022-12-17T11:40:17.383Z</time>
      </trkpt>
      <trkpt lat="47.10872" lon="-1.73517">
        <ele>53.189094</ele>
        <time>2022-12-17T11:40:20.378Z</time>
      </trkpt>
      <trkpt lat="47.10862" lon="-1.73521">
        <ele>53.491513</ele>
        <time>2022-12-17T11:40:23.391Z</time>
      </trkpt>
      <trkpt lat="47.10851" lon="-1.73523">
        <ele>53.79552</ele>
        <time>2022-12-17T11:40:26.381Z</time>
      </trkpt>
      <trkpt lat="47.10841" lon="-1.73526">
        <ele>54.081078</ele>
        <time>2022-12-17T11:40:29.379Z</time>
      </trkpt>
      <trkpt lat="47.10829" lon="-1.73531">
        <ele>54.40681</ele>
        <time>2022-12-17T11:40:32.386Z</time>
      </trkpt>
      <trkpt lat="47.10819" lon="-1.73537">
        <ele>54.704386</ele>
        <time>2022-12-17T11:40:35.384Z</time>
      </trkpt>
      <trkpt lat="47.1081" lon="-1.73543">
        <ele>54.989547</ele>
        <time>2022-12-17T11:40:38.389Z</time>
      </trkpt>
      <trkpt lat="47.10801" lon="-1.7355">
        <ele>55.257153</ele>
        <time>2022-12-17T11:40:41.381Z</time>
      </trkpt>
      <trkpt lat="47.10792" lon="-1.73557">
        <ele>55.522097</ele>
        <time>2022-12-17T11:40:44.374Z</time>
      </trkpt>
      <trkpt lat="47.10784" lon="-1.73565">
        <ele>55.71243</ele>
        <time>2022-12-17T11:40:47.381Z</time>
      </trkpt>
      <trkpt lat="47.10775" lon="-1.73573">
        <ele>55.90186</ele>
        <time>2022-12-17T11:40:50.379Z</time>
      </trkpt>
      <trkpt lat="47.10766" lon="-1.73581">
        <ele>56.094723</ele>
        <time>2022-12-17T11:40:53.391Z</time>
      </trkpt>
      <trkpt lat="47.10759" lon="-1.73589">
        <ele>56.276206</ele>
        <time>2022-12-17T11:40:56.379Z</time>
      </trkpt>
      <trkpt lat="47.10751" lon="-1.73597">
        <ele>56.452023</ele>
        <time>2022-12-17T11:40:59.388Z</time>
      </trkpt>
      <trkpt lat="47.10743" lon="-1.73604">
        <ele>56.630344</ele>
        <time>2022-12-17T11:41:02.378Z</time>
      </trkpt>
      <trkpt lat="47.10733" lon="-1.73612">
        <ele>56.833881</ele>
        <time>2022-12-17T11:41:06.388Z</time>
      </trkpt>
      <trkpt lat="47.10724" lon="-1.73621">
        <ele>57.039026</ele>
        <time>2022-12-17T11:41:10.378Z</time>
      </trkpt>
      <trkpt lat="47.10715" lon="-1.7363">
        <ele>57.251629</ele>
        <time>2022-12-17T11:41:14.391Z</time>
      </trkpt>
      <trkpt lat="47.10705" lon="-1.73638">
        <ele>57.455369</ele>
        <time>2022-12-17T11:41:18.377Z</time>
      </trkpt>
      <trkpt lat="47.10696" lon="-1.73646">
        <ele>57.656101</ele>
        <time>2022-12-17T11:41:22.390Z</time>
      </trkpt>
      <trkpt lat="47.10687" lon="-1.73653">
        <ele>57.855185</ele>
        <time>2022-12-17T11:41:26.383Z</time>
      </trkpt>
      <trkpt lat="47.10676" lon="-1.7366">
        <ele>58.066056</ele>
        <time>2022-12-17T11:41:30.392Z</time>
      </trkpt>
      <trkpt lat="47.10668" lon="-1.73665">
        <ele>58.235888</ele>
        <time>2022-12-17T11:41:33.377Z</time>
      </trkpt>
      <trkpt lat="47.1066" lon="-1.7367">
        <ele>58.406779</ele>
        <time>2022-12-17T11:41:36.393Z</time>
      </trkpt>
      <trkpt lat="47.1065" lon="-1.73674">
        <ele>58.587951</ele>
        <time>2022-12-17T11:41:39.381Z</time>
      </trkpt>
      <trkpt lat="47.10642" lon="-1.7368">
        <ele>58.764366</ele>
        <time>2022-12-17T11:41:42.378Z</time>
      </trkpt>
      <trkpt lat="47.10634" lon="-1.73688">
        <ele>58.887145</ele>
        <time>2022-12-17T11:41:45.380Z</time>
      </trkpt>
      <trkpt lat="47.10626" lon="-1.73697">
        <ele>58.955842</ele>
        <time>2022-12-17T11:41:48.393Z</time>
      </trkpt>
      <trkpt lat="47.10615" lon="-1.73697">
        <ele>59.028228</ele>
        <time>2022-12-17T11:41:51.403Z</time>
      </trkpt>
      <trkpt lat="47.10605" lon="-1.73689">
        <ele>59.101845</ele>
        <time>2022-12-17T11:41:54.392Z</time>
      </trkpt>
      <trkpt lat="47.10595" lon="-1.73686">
        <ele>59.174781</ele>
        <time>2022-12-17T11:41:57.394Z</time>
      </trkpt>
      <trkpt lat="47.10583" lon="-1.73685">
        <ele>59.252683</ele>
        <time>2022-12-17T11:42:00.381Z</time>
      </trkpt>
      <trkpt lat="47.10571" lon="-1.73684">
        <ele>59.336644</ele>
        <time>2022-12-17T11:42:03.379Z</time>
      </trkpt>
      <trkpt lat="47.10559" lon="-1.73685">
        <ele>59.418495</ele>
        <time>2022-12-17T11:42:06.378Z</time>
      </trkpt>
      <trkpt lat="47.10546" lon="-1.73684">
        <ele>59.504484</ele>
        <time>2022-12-17T11:42:09.386Z</time>
      </trkpt>
      <trkpt lat="47.10533" lon="-1.73683">
        <ele>59.593157</ele>
        <time>2022-12-17T11:42:12.370Z</time>
      </trkpt>
      <trkpt lat="47.10521" lon="-1.73683">
        <ele>59.677733</ele>
        <time>2022-12-17T11:42:15.372Z</time>
      </trkpt>
      <trkpt lat="47.10507" lon="-1.73684">
        <ele>59.767083</ele>
        <time>2022-12-17T11:42:18.377Z</time>
      </trkpt>
      <trkpt lat="47.10498" lon="-1.73684">
        <ele>59.829993</ele>
        <time>2022-12-17T11:42:20.381Z</time>
      </trkpt>
      <trkpt lat="47.10488" lon="-1.73685">
        <ele>59.894973</ele>
        <time>2022-12-17T11:42:22.369Z</time>
      </trkpt>
      <trkpt lat="47.10479" lon="-1.73685">
        <ele>59.957249</ele>
        <time>2022-12-17T11:42:24.380Z</time>
      </trkpt>
      <trkpt lat="47.10469" lon="-1.73686">
        <ele>60.025832</ele>
        <time>2022-12-17T11:42:26.379Z</time>
      </trkpt>
      <trkpt lat="47.10459" lon="-1.73688">
        <ele>60.048367</ele>
        <time>2022-12-17T11:42:28.390Z</time>
      </trkpt>
      <trkpt lat="47.10449" lon="-1.7369">
        <ele>59.990546</ele>
        <time>2022-12-17T11:42:30.382Z</time>
      </trkpt>
      <trkpt lat="47.10439" lon="-1.73691">
        <ele>59.937059</ele>
        <time>2022-12-17T11:42:32.378Z</time>
      </trkpt>
      <trkpt lat="47.10429" lon="-1.73694">
        <ele>59.87879</ele>
        <time>2022-12-17T11:42:34.401Z</time>
      </trkpt>
      <trkpt lat="47.10418" lon="-1.73697">
        <ele>59.818291</ele>
        <time>2022-12-17T11:42:36.379Z</time>
      </trkpt>
      <trkpt lat="47.10407" lon="-1.737">
        <ele>59.759949</ele>
        <time>2022-12-17T11:42:38.380Z</time>
      </trkpt>
      <trkpt lat="47.10397" lon="-1.73705">
        <ele>59.70055</ele>
        <time>2022-12-17T11:42:40.390Z</time>
      </trkpt>
      <trkpt lat="47.10386" lon="-1.7371">
        <ele>59.63847</ele>
        <time>2022-12-17T11:42:42.372Z</time>
      </trkpt>
      <trkpt lat="47.10376" lon="-1.73714">
        <ele>59.580552</ele>
        <time>2022-12-17T11:42:44.375Z</time>
      </trkpt>
      <trkpt lat="47.10366" lon="-1.73719">
        <ele>59.524104</ele>
        <time>2022-12-17T11:42:46.387Z</time>
      </trkpt>
      <trkpt lat="47.10357" lon="-1.73723">
        <ele>59.468926</ele>
        <time>2022-12-17T11:42:48.379Z</time>
      </trkpt>
      <trkpt lat="47.10347" lon="-1.73727">
        <ele>59.416051</ele>
        <time>2022-12-17T11:42:50.380Z</time>
      </trkpt>
      <trkpt lat="47.10338" lon="-1.7373">
        <ele>59.363271</ele>
        <time>2022-12-17T11:42:52.371Z</time>
      </trkpt>
      <trkpt lat="47.10325" lon="-1.73736">
        <ele>59.289102</ele>
        <time>2022-12-17T11:42:55.409Z</time>
      </trkpt>
      <trkpt lat="47.10317" lon="-1.7374">
        <ele>59.238755</ele>
        <time>2022-12-17T11:42:57.380Z</time>
      </trkpt>
      <trkpt lat="47.10307" lon="-1.73744">
        <ele>59.185264</ele>
        <time>2022-12-17T11:42:59.397Z</time>
      </trkpt>
      <trkpt lat="47.10297" lon="-1.73748">
        <ele>59.129345</ele>
        <time>2022-12-17T11:43:01.389Z</time>
      </trkpt>
      <trkpt lat="47.10288" lon="-1.73752">
        <ele>59.074215</ele>
        <time>2022-12-17T11:43:03.375Z</time>
      </trkpt>
      <trkpt lat="47.10278" lon="-1.73755">
        <ele>59.030875</ele>
        <time>2022-12-17T11:43:05.386Z</time>
      </trkpt>
      <trkpt lat="47.10268" lon="-1.7376">
        <ele>58.984163</ele>
        <time>2022-12-17T11:43:07.388Z</time>
      </trkpt>
      <trkpt lat="47.10257" lon="-1.73763">
        <ele>58.935805</ele>
        <time>2022-12-17T11:43:09.377Z</time>
      </trkpt>
      <trkpt lat="47.10246" lon="-1.73765">
        <ele>58.887855</ele>
        <time>2022-12-17T11:43:11.376Z</time>
      </trkpt>
      <trkpt lat="47.10235" lon="-1.73767">
        <ele>58.838268</ele>
        <time>2022-12-17T11:43:13.390Z</time>
      </trkpt>
      <trkpt lat="47.10224" lon="-1.73768">
        <ele>58.789016</ele>
        <time>2022-12-17T11:43:15.369Z</time>
      </trkpt>
      <trkpt lat="47.10213" lon="-1.73769">
        <ele>58.738707</ele>
        <time>2022-12-17T11:43:17.391Z</time>
      </trkpt>
      <trkpt lat="47.10202" lon="-1.7377">
        <ele>58.689307</ele>
        <time>2022-12-17T11:43:19.395Z</time>
      </trkpt>
      <trkpt lat="47.10191" lon="-1.73772">
        <ele>58.642167</ele>
        <time>2022-12-17T11:43:21.374Z</time>
      </trkpt>
      <trkpt lat="47.10181" lon="-1.73773">
        <ele>58.596713</ele>
        <time>2022-12-17T11:43:23.377Z</time>
      </trkpt>
      <trkpt lat="47.10171" lon="-1.73775">
        <ele>58.553838</ele>
        <time>2022-12-17T11:43:25.387Z</time>
      </trkpt>
      <trkpt lat="47.10162" lon="-1.73778">
        <ele>58.512417</ele>
        <time>2022-12-17T11:43:27.399Z</time>
      </trkpt>
      <trkpt lat="47.10153" lon="-1.73782">
        <ele>58.469842</ele>
        <time>2022-12-17T11:43:29.392Z</time>
      </trkpt>
      <trkpt lat="47.10144" lon="-1.73787">
        <ele>58.424552</ele>
        <time>2022-12-17T11:43:31.365Z</time>
      </trkpt>
      <trkpt lat="47.10134" lon="-1.73794">
        <ele>58.378356</ele>
        <time>2022-12-17T11:43:33.381Z</time>
      </trkpt>
      <trkpt lat="47.10126" lon="-1.73801">
        <ele>58.33508</ele>
        <time>2022-12-17T11:43:35.373Z</time>
      </trkpt>
      <trkpt lat="47.10117" lon="-1.73809">
        <ele>58.290352</ele>
        <time>2022-12-17T11:43:37.369Z</time>
      </trkpt>
      <trkpt lat="47.10108" lon="-1.73817">
        <ele>58.158242</ele>
        <time>2022-12-17T11:43:39.377Z</time>
      </trkpt>
      <trkpt lat="47.101" lon="-1.73826">
        <ele>58.004946</ele>
        <time>2022-12-17T11:43:41.378Z</time>
      </trkpt>
      <trkpt lat="47.10091" lon="-1.73834">
        <ele>57.849167</ele>
        <time>2022-12-17T11:43:43.384Z</time>
      </trkpt>
      <trkpt lat="47.10082" lon="-1.73844">
        <ele>57.684588</ele>
        <time>2022-12-17T11:43:45.376Z</time>
      </trkpt>
      <trkpt lat="47.10073" lon="-1.73854">
        <ele>57.51414</ele>
        <time>2022-12-17T11:43:47.376Z</time>
      </trkpt>
      <trkpt lat="47.10064" lon="-1.73864">
        <ele>57.348975</ele>
        <time>2022-12-17T11:43:49.377Z</time>
      </trkpt>
      <trkpt lat="47.10055" lon="-1.73875">
        <ele>57.177262</ele>
        <time>2022-12-17T11:43:51.386Z</time>
      </trkpt>
      <trkpt lat="47.10045" lon="-1.73884">
        <ele>57.01211</ele>
        <time>2022-12-17T11:43:53.380Z</time>
      </trkpt>
      <trkpt lat="47.10037" lon="-1.73894">
        <ele>56.856864</ele>
        <time>2022-12-17T11:43:55.386Z</time>
      </trkpt>
      <trkpt lat="47.10029" lon="-1.73903">
        <ele>56.703493</ele>
        <time>2022-12-17T11:43:57.391Z</time>
      </trkpt>
      <trkpt lat="47.10021" lon="-1.73913">
        <ele>56.553667</ele>
        <time>2022-12-17T11:43:59.393Z</time>
      </trkpt>
      <trkpt lat="47.10013" lon="-1.73922">
        <ele>56.398421</ele>
        <time>2022-12-17T11:44:01.376Z</time>
      </trkpt>
      <trkpt lat="47.10005" lon="-1.73932">
        <ele>56.242542</ele>
        <time>2022-12-17T11:44:03.379Z</time>
      </trkpt>
      <trkpt lat="47.09996" lon="-1.73942">
        <ele>56.086243</ele>
        <time>2022-12-17T11:44:05.380Z</time>
      </trkpt>
      <trkpt lat="47.09988" lon="-1.73951">
        <ele>55.935328</ele>
        <time>2022-12-17T11:44:07.395Z</time>
      </trkpt>
      <trkpt lat="47.0998" lon="-1.7396">
        <ele>55.787161</ele>
        <time>2022-12-17T11:44:09.386Z</time>
      </trkpt>
      <trkpt lat="47.09973" lon="-1.73968">
        <ele>55.652781</ele>
        <time>2022-12-17T11:44:11.382Z</time>
      </trkpt>
      <trkpt lat="47.09965" lon="-1.73977">
        <ele>55.679608</ele>
        <time>2022-12-17T11:44:13.391Z</time>
      </trkpt>
      <trkpt lat="47.09958" lon="-1.73985">
        <ele>55.721099</ele>
        <time>2022-12-17T11:44:15.397Z</time>
      </trkpt>
      <trkpt lat="47.0995" lon="-1.73993">
        <ele>55.763295</ele>
        <time>2022-12-17T11:44:17.388Z</time>
      </trkpt>
      <trkpt lat="47.09942" lon="-1.74001">
        <ele>55.805338</ele>
        <time>2022-12-17T11:44:19.377Z</time>
      </trkpt>
      <trkpt lat="47.09934" lon="-1.74008">
        <ele>55.845864</ele>
        <time>2022-12-17T11:44:21.375Z</time>
      </trkpt>
      <trkpt lat="47.09926" lon="-1.74016">
        <ele>55.886764</ele>
        <time>2022-12-17T11:44:23.375Z</time>
      </trkpt>
      <trkpt lat="47.09918" lon="-1.74023">
        <ele>55.929549</ele>
        <time>2022-12-17T11:44:25.381Z</time>
      </trkpt>
      <trkpt lat="47.09909" lon="-1.74029">
        <ele>55.971212</ele>
        <time>2022-12-17T11:44:27.374Z</time>
      </trkpt>
      <trkpt lat="47.09901" lon="-1.74036">
        <ele>56.011785</ele>
        <time>2022-12-17T11:44:29.380Z</time>
      </trkpt>
      <trkpt lat="47.09893" lon="-1.74044">
        <ele>56.055293</ele>
        <time>2022-12-17T11:44:31.387Z</time>
      </trkpt>
      <trkpt lat="47.09884" lon="-1.74053">
        <ele>56.102096</ele>
        <time>2022-12-17T11:44:33.380Z</time>
      </trkpt>
      <trkpt lat="47.09876" lon="-1.74063">
        <ele>56.149423</ele>
        <time>2022-12-17T11:44:35.375Z</time>
      </trkpt>
      <trkpt lat="47.09869" lon="-1.74074">
        <ele>56.19479</ele>
        <time>2022-12-17T11:44:37.382Z</time>
      </trkpt>
      <trkpt lat="47.09862" lon="-1.74085">
        <ele>56.238866</ele>
        <time>2022-12-17T11:44:39.390Z</time>
      </trkpt>
      <trkpt lat="47.09855" lon="-1.74097">
        <ele>56.285658</ele>
        <time>2022-12-17T11:44:41.376Z</time>
      </trkpt>
      <trkpt lat="47.09848" lon="-1.74107">
        <ele>56.329767</ele>
        <time>2022-12-17T11:44:43.377Z</time>
      </trkpt>
      <trkpt lat="47.09841" lon="-1.74118">
        <ele>56.375081</ele>
        <time>2022-12-17T11:44:45.369Z</time>
      </trkpt>
      <trkpt lat="47.09834" lon="-1.74128">
        <ele>56.418146</ele>
        <time>2022-12-17T11:44:47.389Z</time>
      </trkpt>
      <trkpt lat="47.09827" lon="-1.74138">
        <ele>56.469388</ele>
        <time>2022-12-17T11:44:49.373Z</time>
      </trkpt>
      <trkpt lat="47.0982" lon="-1.74147">
        <ele>56.522177</ele>
        <time>2022-12-17T11:44:51.373Z</time>
      </trkpt>
      <trkpt lat="47.09812" lon="-1.74156">
        <ele>56.575873</ele>
        <time>2022-12-17T11:44:53.375Z</time>
      </trkpt>
      <trkpt lat="47.09805" lon="-1.74165">
        <ele>56.627452</ele>
        <time>2022-12-17T11:44:55.390Z</time>
      </trkpt>
      <trkpt lat="47.09798" lon="-1.74172">
        <ele>56.6778</ele>
        <time>2022-12-17T11:44:57.396Z</time>
      </trkpt>
      <trkpt lat="47.09787" lon="-1.74183">
        <ele>56.749147</ele>
        <time>2022-12-17T11:45:00.377Z</time>
      </trkpt>
      <trkpt lat="47.09775" lon="-1.74193">
        <ele>56.824201</ele>
        <time>2022-12-17T11:45:03.390Z</time>
      </trkpt>
      <trkpt lat="47.09764" lon="-1.74204">
        <ele>56.896614</ele>
        <time>2022-12-17T11:45:06.379Z</time>
      </trkpt>
      <trkpt lat="47.09754" lon="-1.74215">
        <ele>56.967686</ele>
        <time>2022-12-17T11:45:09.373Z</time>
      </trkpt>
      <trkpt lat="47.09743" lon="-1.74225">
        <ele>57.039668</ele>
        <time>2022-12-17T11:45:12.370Z</time>
      </trkpt>
      <trkpt lat="47.09733" lon="-1.74236">
        <ele>57.109639</ele>
        <time>2022-12-17T11:45:15.380Z</time>
      </trkpt>
      <trkpt lat="47.09722" lon="-1.74246">
        <ele>57.179489</ele>
        <time>2022-12-17T11:45:18.384Z</time>
      </trkpt>
      <trkpt lat="47.09712" lon="-1.74256">
        <ele>57.246141</ele>
        <time>2022-12-17T11:45:21.388Z</time>
      </trkpt>
      <trkpt lat="47.09702" lon="-1.74266">
        <ele>57.315321</ele>
        <time>2022-12-17T11:45:24.377Z</time>
      </trkpt>
      <trkpt lat="47.09691" lon="-1.74276">
        <ele>57.387339</ele>
        <time>2022-12-17T11:45:27.381Z</time>
      </trkpt>
      <trkpt lat="47.09681" lon="-1.74288">
        <ele>57.45916</ele>
        <time>2022-12-17T11:45:30.388Z</time>
      </trkpt>
      <trkpt lat="47.0967" lon="-1.74299">
        <ele>57.533709</ele>
        <time>2022-12-17T11:45:33.379Z</time>
      </trkpt>
      <trkpt lat="47.09661" lon="-1.74306">
        <ele>57.588627</ele>
        <time>2022-12-17T11:45:35.393Z</time>
      </trkpt>
      <trkpt lat="47.09653" lon="-1.74312">
        <ele>57.640538</ele>
        <time>2022-12-17T11:45:37.377Z</time>
      </trkpt>
      <trkpt lat="47.0964" lon="-1.7432">
        <ele>57.717619</ele>
        <time>2022-12-17T11:45:40.380Z</time>
      </trkpt>
      <trkpt lat="47.09628" lon="-1.74326">
        <ele>57.790551</ele>
        <time>2022-12-17T11:45:43.371Z</time>
      </trkpt>
      <trkpt lat="47.09616" lon="-1.74329">
        <ele>57.857249</ele>
        <time>2022-12-17T11:45:46.385Z</time>
      </trkpt>
      <trkpt lat="47.09605" lon="-1.74333">
        <ele>57.924404</ele>
        <time>2022-12-17T11:45:49.393Z</time>
      </trkpt>
      <trkpt lat="47.09592" lon="-1.74337">
        <ele>57.997855</ele>
        <time>2022-12-17T11:45:52.370Z</time>
      </trkpt>
      <trkpt lat="47.09582" lon="-1.74339">
        <ele>58.054286</ele>
        <time>2022-12-17T11:45:54.396Z</time>
      </trkpt>
      <trkpt lat="47.09573" lon="-1.74342">
        <ele>58.105844</ele>
        <time>2022-12-17T11:45:56.377Z</time>
      </trkpt>
      <trkpt lat="47.09559" lon="-1.74348">
        <ele>58.183819</ele>
        <time>2022-12-17T11:45:59.390Z</time>
      </trkpt>
      <trkpt lat="47.09551" lon="-1.74353">
        <ele>58.237086</ele>
        <time>2022-12-17T11:46:01.378Z</time>
      </trkpt>
      <trkpt lat="47.09541" lon="-1.74357">
        <ele>58.291551</ele>
        <time>2022-12-17T11:46:03.386Z</time>
      </trkpt>
      <trkpt lat="47.09532" lon="-1.74363">
        <ele>58.3493</ele>
        <time>2022-12-17T11:46:05.381Z</time>
      </trkpt>
      <trkpt lat="47.09522" lon="-1.74368">
        <ele>58.407475</ele>
        <time>2022-12-17T11:46:07.369Z</time>
      </trkpt>
      <trkpt lat="47.09512" lon="-1.74374">
        <ele>58.410908</ele>
        <time>2022-12-17T11:46:09.388Z</time>
      </trkpt>
      <trkpt lat="47.09503" lon="-1.74379">
        <ele>58.356053</ele>
        <time>2022-12-17T11:46:11.385Z</time>
      </trkpt>
      <trkpt lat="47.09493" lon="-1.74385">
        <ele>58.298847</ele>
        <time>2022-12-17T11:46:13.377Z</time>
      </trkpt>
      <trkpt lat="47.09483" lon="-1.74391">
        <ele>58.241642</ele>
        <time>2022-12-17T11:46:15.386Z</time>
      </trkpt>
      <trkpt lat="47.09474" lon="-1.74398">
        <ele>58.187214</ele>
        <time>2022-12-17T11:46:17.381Z</time>
      </trkpt>
      <trkpt lat="47.09466" lon="-1.74405">
        <ele>58.135669</ele>
        <time>2022-12-17T11:46:19.388Z</time>
      </trkpt>
      <trkpt lat="47.09458" lon="-1.74412">
        <ele>58.084264</ele>
        <time>2022-12-17T11:46:21.385Z</time>
      </trkpt>
      <trkpt lat="47.09449" lon="-1.74419">
        <ele>58.035126</ele>
        <time>2022-12-17T11:46:23.381Z</time>
      </trkpt>
      <trkpt lat="47.09442" lon="-1.74427">
        <ele>57.985832</ele>
        <time>2022-12-17T11:46:25.372Z</time>
      </trkpt>
      <trkpt lat="47.09435" lon="-1.74437">
        <ele>57.9337</ele>
        <time>2022-12-17T11:46:27.375Z</time>
      </trkpt>
      <trkpt lat="47.09428" lon="-1.74446">
        <ele>57.883888</ele>
        <time>2022-12-17T11:46:29.387Z</time>
      </trkpt>
      <trkpt lat="47.09421" lon="-1.74456">
        <ele>57.832815</ele>
        <time>2022-12-17T11:46:31.390Z</time>
      </trkpt>
      <trkpt lat="47.09415" lon="-1.74466">
        <ele>57.780386</ele>
        <time>2022-12-17T11:46:33.383Z</time>
      </trkpt>
      <trkpt lat="47.09408" lon="-1.74476">
        <ele>57.727612</ele>
        <time>2022-12-17T11:46:35.380Z</time>
      </trkpt>
      <trkpt lat="47.09398" lon="-1.74491">
        <ele>57.653899</ele>
        <time>2022-12-17T11:46:38.379Z</time>
      </trkpt>
      <trkpt lat="47.09391" lon="-1.74501">
        <ele>57.600657</ele>
        <time>2022-12-17T11:46:40.386Z</time>
      </trkpt>
      <trkpt lat="47.09385" lon="-1.74512">
        <ele>57.550476</ele>
        <time>2022-12-17T11:46:42.391Z</time>
      </trkpt>
      <trkpt lat="47.09376" lon="-1.74526">
        <ele>57.477569</ele>
        <time>2022-12-17T11:46:45.383Z</time>
      </trkpt>
      <trkpt lat="47.0937" lon="-1.74536">
        <ele>57.445473</ele>
        <time>2022-12-17T11:46:47.394Z</time>
      </trkpt>
      <trkpt lat="47.09363" lon="-1.74546">
        <ele>57.414598</ele>
        <time>2022-12-17T11:46:49.376Z</time>
      </trkpt>
      <trkpt lat="47.09357" lon="-1.74556">
        <ele>57.383556</ele>
        <time>2022-12-17T11:46:51.392Z</time>
      </trkpt>
      <trkpt lat="47.09348" lon="-1.74571">
        <ele>57.337954</ele>
        <time>2022-12-17T11:46:54.404Z</time>
      </trkpt>
      <trkpt lat="47.09341" lon="-1.74581">
        <ele>57.304843</ele>
        <time>2022-12-17T11:46:56.395Z</time>
      </trkpt>
      <trkpt lat="47.09334" lon="-1.74592">
        <ele>57.272003</ele>
        <time>2022-12-17T11:46:58.395Z</time>
      </trkpt>
      <trkpt lat="47.09327" lon="-1.74603">
        <ele>57.238777</ele>
        <time>2022-12-17T11:47:00.376Z</time>
      </trkpt>
      <trkpt lat="47.09321" lon="-1.74613">
        <ele>57.207008</ele>
        <time>2022-12-17T11:47:02.373Z</time>
      </trkpt>
      <trkpt lat="47.09312" lon="-1.74628">
        <ele>57.162376</ele>
        <time>2022-12-17T11:47:05.374Z</time>
      </trkpt>
      <trkpt lat="47.09306" lon="-1.74638">
        <ele>57.131765</ele>
        <time>2022-12-17T11:47:07.378Z</time>
      </trkpt>
      <trkpt lat="47.09299" lon="-1.74649">
        <ele>57.098758</ele>
        <time>2022-12-17T11:47:09.378Z</time>
      </trkpt>
      <trkpt lat="47.09292" lon="-1.74659">
        <ele>57.065382</ele>
        <time>2022-12-17T11:47:11.380Z</time>
      </trkpt>
      <trkpt lat="47.09285" lon="-1.74669">
        <ele>57.03136</ele>
        <time>2022-12-17T11:47:13.392Z</time>
      </trkpt>
      <trkpt lat="47.09277" lon="-1.74679">
        <ele>56.998775</ele>
        <time>2022-12-17T11:47:15.390Z</time>
      </trkpt>
      <trkpt lat="47.0927" lon="-1.7469">
        <ele>56.963891</ele>
        <time>2022-12-17T11:47:17.377Z</time>
      </trkpt>
      <trkpt lat="47.09263" lon="-1.747">
        <ele>56.93123</ele>
        <time>2022-12-17T11:47:19.378Z</time>
      </trkpt>
      <trkpt lat="47.09256" lon="-1.7471">
        <ele>56.899439</ele>
        <time>2022-12-17T11:47:21.380Z</time>
      </trkpt>
      <trkpt lat="47.09248" lon="-1.7472">
        <ele>56.889499</ele>
        <time>2022-12-17T11:47:23.387Z</time>
      </trkpt>
      <trkpt lat="47.09241" lon="-1.74731">
        <ele>56.940375</ele>
        <time>2022-12-17T11:47:25.383Z</time>
      </trkpt>
      <trkpt lat="47.09233" lon="-1.74741">
        <ele>56.990936</ele>
        <time>2022-12-17T11:47:27.373Z</time>
      </trkpt>
      <trkpt lat="47.09226" lon="-1.74751">
        <ele>57.039</ele>
        <time>2022-12-17T11:47:29.386Z</time>
      </trkpt>
      <trkpt lat="47.09219" lon="-1.7476">
        <ele>57.088521</ele>
        <time>2022-12-17T11:47:31.373Z</time>
      </trkpt>
      <trkpt lat="47.09209" lon="-1.74774">
        <ele>57.155753</ele>
        <time>2022-12-17T11:47:34.392Z</time>
      </trkpt>
      <trkpt lat="47.09199" lon="-1.74787">
        <ele>57.221215</ele>
        <time>2022-12-17T11:47:37.387Z</time>
      </trkpt>
      <trkpt lat="47.09189" lon="-1.748">
        <ele>57.286502</ele>
        <time>2022-12-17T11:47:40.373Z</time>
      </trkpt>
      <trkpt lat="47.09182" lon="-1.7481">
        <ele>57.333977</ele>
        <time>2022-12-17T11:47:42.375Z</time>
      </trkpt>
      <trkpt lat="47.09175" lon="-1.74819">
        <ele>57.379971</ele>
        <time>2022-12-17T11:47:44.392Z</time>
      </trkpt>
      <trkpt lat="47.09168" lon="-1.74826">
        <ele>57.424308</ele>
        <time>2022-12-17T11:47:46.383Z</time>
      </trkpt>
      <trkpt lat="47.0916" lon="-1.74835">
        <ele>57.472232</ele>
        <time>2022-12-17T11:47:48.381Z</time>
      </trkpt>
      <trkpt lat="47.09152" lon="-1.74843">
        <ele>57.520358</ele>
        <time>2022-12-17T11:47:50.381Z</time>
      </trkpt>
      <trkpt lat="47.09144" lon="-1.7485">
        <ele>57.565873</ele>
        <time>2022-12-17T11:47:52.372Z</time>
      </trkpt>
      <trkpt lat="47.09136" lon="-1.74857">
        <ele>57.613946</ele>
        <time>2022-12-17T11:47:54.374Z</time>
      </trkpt>
      <trkpt lat="47.09127" lon="-1.74865">
        <ele>57.662972</ele>
        <time>2022-12-17T11:47:56.390Z</time>
      </trkpt>
      <trkpt lat="47.09119" lon="-1.74872">
        <ele>57.711293</ele>
        <time>2022-12-17T11:47:58.378Z</time>
      </trkpt>
      <trkpt lat="47.0911" lon="-1.7488">
        <ele>57.760319</ele>
        <time>2022-12-17T11:48:00.394Z</time>
      </trkpt>
      <trkpt lat="47.09102" lon="-1.74888">
        <ele>57.569527</ele>
        <time>2022-12-17T11:48:02.385Z</time>
      </trkpt>
      <trkpt lat="47.09094" lon="-1.74894">
        <ele>57.381052</ele>
        <time>2022-12-17T11:48:04.390Z</time>
      </trkpt>
      <trkpt lat="47.09086" lon="-1.74901">
        <ele>57.179124</ele>
        <time>2022-12-17T11:48:06.386Z</time>
      </trkpt>
      <trkpt lat="47.09077" lon="-1.74909">
        <ele>56.97647</ele>
        <time>2022-12-17T11:48:08.371Z</time>
      </trkpt>
      <trkpt lat="47.09069" lon="-1.74917">
        <ele>56.767071</ele>
        <time>2022-12-17T11:48:10.395Z</time>
      </trkpt>
      <trkpt lat="47.09059" lon="-1.74925">
        <ele>56.545221</ele>
        <time>2022-12-17T11:48:12.371Z</time>
      </trkpt>
      <trkpt lat="47.0905" lon="-1.74933">
        <ele>56.32265</ele>
        <time>2022-12-17T11:48:14.366Z</time>
      </trkpt>
      <trkpt lat="47.09041" lon="-1.74942">
        <ele>56.089599</ele>
        <time>2022-12-17T11:48:16.377Z</time>
      </trkpt>
      <trkpt lat="47.09031" lon="-1.74951">
        <ele>55.855015</ele>
        <time>2022-12-17T11:48:18.374Z</time>
      </trkpt>
      <trkpt lat="47.09021" lon="-1.7496">
        <ele>55.613503</ele>
        <time>2022-12-17T11:48:20.398Z</time>
      </trkpt>
      <trkpt lat="47.09011" lon="-1.74968">
        <ele>55.377398</ele>
        <time>2022-12-17T11:48:22.373Z</time>
      </trkpt>
      <trkpt lat="47.09001" lon="-1.74977">
        <ele>55.132095</ele>
        <time>2022-12-17T11:48:24.378Z</time>
      </trkpt>
      <trkpt lat="47.08991" lon="-1.74986">
        <ele>54.885022</ele>
        <time>2022-12-17T11:48:26.390Z</time>
      </trkpt>
      <trkpt lat="47.0898" lon="-1.74996">
        <ele>54.621579</ele>
        <time>2022-12-17T11:48:28.376Z</time>
      </trkpt>
      <trkpt lat="47.08968" lon="-1.75005">
        <ele>54.351616</ele>
        <time>2022-12-17T11:48:30.409Z</time>
      </trkpt>
      <trkpt lat="47.08957" lon="-1.75014">
        <ele>54.086061</ele>
        <time>2022-12-17T11:48:32.365Z</time>
      </trkpt>
      <trkpt lat="47.08946" lon="-1.75024">
        <ele>53.884721</ele>
        <time>2022-12-17T11:48:34.386Z</time>
      </trkpt>
      <trkpt lat="47.08935" lon="-1.75034">
        <ele>53.686664</ele>
        <time>2022-12-17T11:48:36.384Z</time>
      </trkpt>
      <trkpt lat="47.08925" lon="-1.75044">
        <ele>53.494717</ele>
        <time>2022-12-17T11:48:38.386Z</time>
      </trkpt>
      <trkpt lat="47.08916" lon="-1.75056">
        <ele>53.306518</ele>
        <time>2022-12-17T11:48:40.381Z</time>
      </trkpt>
      <trkpt lat="47.08907" lon="-1.75067">
        <ele>53.126549</ele>
        <time>2022-12-17T11:48:42.367Z</time>
      </trkpt>
      <trkpt lat="47.08898" lon="-1.75079">
        <ele>52.950021</ele>
        <time>2022-12-17T11:48:44.376Z</time>
      </trkpt>
      <trkpt lat="47.08891" lon="-1.75091">
        <ele>52.786256</ele>
        <time>2022-12-17T11:48:46.380Z</time>
      </trkpt>
      <trkpt lat="47.08885" lon="-1.75103">
        <ele>52.625417</ele>
        <time>2022-12-17T11:48:48.385Z</time>
      </trkpt>
      <trkpt lat="47.08878" lon="-1.75115">
        <ele>52.466608</ele>
        <time>2022-12-17T11:48:50.386Z</time>
      </trkpt>
      <trkpt lat="47.08871" lon="-1.75126">
        <ele>52.312723</ele>
        <time>2022-12-17T11:48:52.377Z</time>
      </trkpt>
      <trkpt lat="47.08865" lon="-1.75138">
        <ele>52.148618</ele>
        <time>2022-12-17T11:48:54.400Z</time>
      </trkpt>
      <trkpt lat="47.08858" lon="-1.75151">
        <ele>51.978252</ele>
        <time>2022-12-17T11:48:56.380Z</time>
      </trkpt>
      <trkpt lat="47.08851" lon="-1.75163">
        <ele>51.805942</ele>
        <time>2022-12-17T11:48:58.391Z</time>
      </trkpt>
      <trkpt lat="47.08843" lon="-1.75176">
        <ele>51.63218</ele>
        <time>2022-12-17T11:49:00.379Z</time>
      </trkpt>
      <trkpt lat="47.08836" lon="-1.75189">
        <ele>51.454873</ele>
        <time>2022-12-17T11:49:02.368Z</time>
      </trkpt>
      <trkpt lat="47.08829" lon="-1.75203">
        <ele>51.301606</ele>
        <time>2022-12-17T11:49:04.375Z</time>
      </trkpt>
      <trkpt lat="47.08821" lon="-1.75216">
        <ele>51.316971</ele>
        <time>2022-12-17T11:49:06.389Z</time>
      </trkpt>
      <trkpt lat="47.08813" lon="-1.75229">
        <ele>51.332449</ele>
        <time>2022-12-17T11:49:08.392Z</time>
      </trkpt>
      <trkpt lat="47.08805" lon="-1.75242">
        <ele>51.348045</ele>
        <time>2022-12-17T11:49:10.388Z</time>
      </trkpt>
      <trkpt lat="47.08798" lon="-1.75256">
        <ele>51.363054</ele>
        <time>2022-12-17T11:49:12.370Z</time>
      </trkpt>
      <trkpt lat="47.08791" lon="-1.75268">
        <ele>51.377206</ele>
        <time>2022-12-17T11:49:14.394Z</time>
      </trkpt>
      <trkpt lat="47.08783" lon="-1.7528">
        <ele>51.392004</ele>
        <time>2022-12-17T11:49:16.388Z</time>
      </trkpt>
      <trkpt lat="47.08775" lon="-1.75292">
        <ele>51.406933</ele>
        <time>2022-12-17T11:49:18.394Z</time>
      </trkpt>
      <trkpt lat="47.08767" lon="-1.75304">
        <ele>51.421523</ele>
        <time>2022-12-17T11:49:20.379Z</time>
      </trkpt>
      <trkpt lat="47.08758" lon="-1.75316">
        <ele>51.437134</ele>
        <time>2022-12-17T11:49:22.383Z</time>
      </trkpt>
      <trkpt lat="47.08749" lon="-1.75326">
        <ele>51.451749</ele>
        <time>2022-12-17T11:49:24.381Z</time>
      </trkpt>
      <trkpt lat="47.0874" lon="-1.75335">
        <ele>51.466052</ele>
        <time>2022-12-17T11:49:26.381Z</time>
      </trkpt>
      <trkpt lat="47.08731" lon="-1.75344">
        <ele>51.480039</ele>
        <time>2022-12-17T11:49:28.390Z</time>
      </trkpt>
      <trkpt lat="47.08723" lon="-1.75353">
        <ele>51.493453</ele>
        <time>2022-12-17T11:49:30.386Z</time>
      </trkpt>
      <trkpt lat="47.08715" lon="-1.75362">
        <ele>51.506135</ele>
        <time>2022-12-17T11:49:32.369Z</time>
      </trkpt>
      <trkpt lat="47.08705" lon="-1.75369">
        <ele>51.520031</ele>
        <time>2022-12-17T11:49:34.382Z</time>
      </trkpt>
      <trkpt lat="47.08697" lon="-1.75379">
        <ele>51.535541</ele>
        <time>2022-12-17T11:49:36.381Z</time>
      </trkpt>
      <trkpt lat="47.08687" lon="-1.75386">
        <ele>51.562333</ele>
        <time>2022-12-17T11:49:38.396Z</time>
      </trkpt>
      <trkpt lat="47.08678" lon="-1.75393">
        <ele>51.590288</ele>
        <time>2022-12-17T11:49:40.387Z</time>
      </trkpt>
      <trkpt lat="47.08668" lon="-1.75401">
        <ele>51.618868</ele>
        <time>2022-12-17T11:49:42.374Z</time>
      </trkpt>
      <trkpt lat="47.08659" lon="-1.75407">
        <ele>51.646503</ele>
        <time>2022-12-17T11:49:44.384Z</time>
      </trkpt>
      <trkpt lat="47.08648" lon="-1.75414">
        <ele>51.675799</ele>
        <time>2022-12-17T11:49:46.376Z</time>
      </trkpt>
      <trkpt lat="47.08638" lon="-1.7542">
        <ele>51.704876</ele>
        <time>2022-12-17T11:49:48.390Z</time>
      </trkpt>
      <trkpt lat="47.08628" lon="-1.75424">
        <ele>51.73089</ele>
        <time>2022-12-17T11:49:50.389Z</time>
      </trkpt>
      <trkpt lat="47.08618" lon="-1.75429">
        <ele>51.758652</ele>
        <time>2022-12-17T11:49:52.372Z</time>
      </trkpt>
      <trkpt lat="47.08607" lon="-1.75434">
        <ele>51.788003</ele>
        <time>2022-12-17T11:49:54.386Z</time>
      </trkpt>
      <trkpt lat="47.08596" lon="-1.75438">
        <ele>51.817508</ele>
        <time>2022-12-17T11:49:56.389Z</time>
      </trkpt>
      <trkpt lat="47.08585" lon="-1.75442">
        <ele>51.846427</ele>
        <time>2022-12-17T11:49:58.376Z</time>
      </trkpt>
      <trkpt lat="47.08575" lon="-1.75445">
        <ele>51.874082</ele>
        <time>2022-12-17T11:50:00.391Z</time>
      </trkpt>
      <trkpt lat="47.08564" lon="-1.75449">
        <ele>51.901818</ele>
        <time>2022-12-17T11:50:02.375Z</time>
      </trkpt>
      <trkpt lat="47.08554" lon="-1.75452">
        <ele>51.92889</ele>
        <time>2022-12-17T11:50:04.388Z</time>
      </trkpt>
      <trkpt lat="47.08544" lon="-1.75455">
        <ele>51.956265</ele>
        <time>2022-12-17T11:50:06.385Z</time>
      </trkpt>
      <trkpt lat="47.08534" lon="-1.75458">
        <ele>51.983122</ele>
        <time>2022-12-17T11:50:08.380Z</time>
      </trkpt>
      <trkpt lat="47.08523" lon="-1.75462">
        <ele>52.042559</ele>
        <time>2022-12-17T11:50:10.382Z</time>
      </trkpt>
      <trkpt lat="47.08514" lon="-1.75464">
        <ele>52.131944</ele>
        <time>2022-12-17T11:50:12.373Z</time>
      </trkpt>
      <trkpt lat="47.08503" lon="-1.75467">
        <ele>52.226762</ele>
        <time>2022-12-17T11:50:14.380Z</time>
      </trkpt>
      <trkpt lat="47.08495" lon="-1.7547">
        <ele>52.31015</ele>
        <time>2022-12-17T11:50:16.390Z</time>
      </trkpt>
      <trkpt lat="47.08482" lon="-1.75472">
        <ele>52.425839</ele>
        <time>2022-12-17T11:50:19.393Z</time>
      </trkpt>
      <trkpt lat="47.0847" lon="-1.75475">
        <ele>52.537216</ele>
        <time>2022-12-17T11:50:22.370Z</time>
      </trkpt>
      <trkpt lat="47.08457" lon="-1.75477">
        <ele>52.654884</ele>
        <time>2022-12-17T11:50:25.393Z</time>
      </trkpt>
      <trkpt lat="47.08444" lon="-1.75478">
        <ele>52.77451</ele>
        <time>2022-12-17T11:50:28.382Z</time>
      </trkpt>
      <trkpt lat="47.08432" lon="-1.75477">
        <ele>52.88863</ele>
        <time>2022-12-17T11:50:31.382Z</time>
      </trkpt>
      <trkpt lat="47.08419" lon="-1.75476">
        <ele>53.005539</ele>
        <time>2022-12-17T11:50:34.383Z</time>
      </trkpt>
      <trkpt lat="47.08407" lon="-1.75475">
        <ele>53.118042</ele>
        <time>2022-12-17T11:50:37.390Z</time>
      </trkpt>
      <trkpt lat="47.08394" lon="-1.75474">
        <ele>53.237545</ele>
        <time>2022-12-17T11:50:40.393Z</time>
      </trkpt>
      <trkpt lat="47.08381" lon="-1.75474">
        <ele>53.353333</ele>
        <time>2022-12-17T11:50:43.378Z</time>
      </trkpt>
      <trkpt lat="47.08372" lon="-1.75475">
        <ele>53.439795</ele>
        <time>2022-12-17T11:50:45.381Z</time>
      </trkpt>
      <trkpt lat="47.08363" lon="-1.75476">
        <ele>53.526619</ele>
        <time>2022-12-17T11:50:47.375Z</time>
      </trkpt>
      <trkpt lat="47.0835" lon="-1.75479">
        <ele>53.645279</ele>
        <time>2022-12-17T11:50:50.388Z</time>
      </trkpt>
      <trkpt lat="47.08341" lon="-1.75479">
        <ele>53.556776</ele>
        <time>2022-12-17T11:50:52.371Z</time>
      </trkpt>
      <trkpt lat="47.08327" lon="-1.75481">
        <ele>53.405426</ele>
        <time>2022-12-17T11:50:55.385Z</time>
      </trkpt>
      <trkpt lat="47.08316" lon="-1.75482">
        <ele>53.273341</ele>
        <time>2022-12-17T11:50:58.389Z</time>
      </trkpt>
      <trkpt lat="47.08304" lon="-1.75483">
        <ele>53.138957</ele>
        <time>2022-12-17T11:51:01.377Z</time>
      </trkpt>
      <trkpt lat="47.08291" lon="-1.75485">
        <ele>52.99833</ele>
        <time>2022-12-17T11:51:04.384Z</time>
      </trkpt>
      <trkpt lat="47.08278" lon="-1.75486">
        <ele>52.849376</ele>
        <time>2022-12-17T11:51:07.369Z</time>
      </trkpt>
      <trkpt lat="47.08269" lon="-1.75487">
        <ele>52.747794</ele>
        <time>2022-12-17T11:51:09.385Z</time>
      </trkpt>
      <trkpt lat="47.08255" lon="-1.7549">
        <ele>52.592163</ele>
        <time>2022-12-17T11:51:12.372Z</time>
      </trkpt>
      <trkpt lat="47.08246" lon="-1.75491">
        <ele>52.489456</ele>
        <time>2022-12-17T11:51:14.370Z</time>
      </trkpt>
      <trkpt lat="47.08237" lon="-1.75492">
        <ele>52.385464</ele>
        <time>2022-12-17T11:51:16.395Z</time>
      </trkpt>
      <trkpt lat="47.08228" lon="-1.75492">
        <ele>52.280642</ele>
        <time>2022-12-17T11:51:18.384Z</time>
      </trkpt>
      <trkpt lat="47.08218" lon="-1.75492">
        <ele>52.174695</ele>
        <time>2022-12-17T11:51:20.382Z</time>
      </trkpt>
      <trkpt lat="47.08209" lon="-1.75493">
        <ele>52.066267</ele>
        <time>2022-12-17T11:51:22.369Z</time>
      </trkpt>
      <trkpt lat="47.08199" lon="-1.75495">
        <ele>51.956598</ele>
        <time>2022-12-17T11:51:24.381Z</time>
      </trkpt>
      <trkpt lat="47.0819" lon="-1.75495">
        <ele>51.849392</ele>
        <time>2022-12-17T11:51:26.401Z</time>
      </trkpt>
      <trkpt lat="47.0818" lon="-1.75497">
        <ele>51.734673</ele>
        <time>2022-12-17T11:51:28.376Z</time>
      </trkpt>
      <trkpt lat="47.0817" lon="-1.75498">
        <ele>51.625255</ele>
        <time>2022-12-17T11:51:30.389Z</time>
      </trkpt>
      <trkpt lat="47.0816" lon="-1.755">
        <ele>51.370973</ele>
        <time>2022-12-17T11:51:32.372Z</time>
      </trkpt>
      <trkpt lat="47.08151" lon="-1.75501">
        <ele>51.131993</ele>
        <time>2022-12-17T11:51:34.392Z</time>
      </trkpt>
      <trkpt lat="47.08142" lon="-1.75502">
        <ele>50.902728</ele>
        <time>2022-12-17T11:51:36.384Z</time>
      </trkpt>
      <trkpt lat="47.08131" lon="-1.75503">
        <ele>50.645914</ele>
        <time>2022-12-17T11:51:38.375Z</time>
      </trkpt>
      <trkpt lat="47.08121" lon="-1.75505">
        <ele>50.378729</ele>
        <time>2022-12-17T11:51:40.387Z</time>
      </trkpt>
      <trkpt lat="47.08111" lon="-1.75505">
        <ele>50.122211</ele>
        <time>2022-12-17T11:51:42.404Z</time>
      </trkpt>
      <trkpt lat="47.081" lon="-1.75507">
        <ele>49.836559</ele>
        <time>2022-12-17T11:51:44.378Z</time>
      </trkpt>
      <trkpt lat="47.08089" lon="-1.75508">
        <ele>49.554063</ele>
        <time>2022-12-17T11:51:46.384Z</time>
      </trkpt>
      <trkpt lat="47.08077" lon="-1.75509">
        <ele>49.266758</ele>
        <time>2022-12-17T11:51:48.388Z</time>
      </trkpt>
      <trkpt lat="47.08065" lon="-1.75509">
        <ele>48.96486</ele>
        <time>2022-12-17T11:51:50.380Z</time>
      </trkpt>
      <trkpt lat="47.08053" lon="-1.75508">
        <ele>48.644011</ele>
        <time>2022-12-17T11:51:52.370Z</time>
      </trkpt>
      <trkpt lat="47.0804" lon="-1.75504">
        <ele>48.326486</ele>
        <time>2022-12-17T11:51:54.378Z</time>
      </trkpt>
      <trkpt lat="47.08028" lon="-1.75499">
        <ele>47.992003</ele>
        <time>2022-12-17T11:51:56.379Z</time>
      </trkpt>
      <trkpt lat="47.08015" lon="-1.75493">
        <ele>47.653013</ele>
        <time>2022-12-17T11:51:58.374Z</time>
      </trkpt>
      <trkpt lat="47.08003" lon="-1.75485">
        <ele>47.320333</ele>
        <time>2022-12-17T11:52:00.367Z</time>
      </trkpt>
      <trkpt lat="47.07992" lon="-1.75476">
        <ele>47.107477</ele>
        <time>2022-12-17T11:52:02.383Z</time>
      </trkpt>
      <trkpt lat="47.07981" lon="-1.75468">
        <ele>47.303736</ele>
        <time>2022-12-17T11:52:04.396Z</time>
      </trkpt>
      <trkpt lat="47.0797" lon="-1.75458">
        <ele>47.504205</ele>
        <time>2022-12-17T11:52:06.393Z</time>
      </trkpt>
      <trkpt lat="47.07959" lon="-1.7545">
        <ele>47.703079</ele>
        <time>2022-12-17T11:52:08.377Z</time>
      </trkpt>
      <trkpt lat="47.07948" lon="-1.75442">
        <ele>47.894074</ele>
        <time>2022-12-17T11:52:10.377Z</time>
      </trkpt>
      <trkpt lat="47.07938" lon="-1.75434">
        <ele>48.080784</ele>
        <time>2022-12-17T11:52:12.373Z</time>
      </trkpt>
      <trkpt lat="47.07928" lon="-1.75427">
        <ele>48.258996</ele>
        <time>2022-12-17T11:52:14.382Z</time>
      </trkpt>
      <trkpt lat="47.07917" lon="-1.75422">
        <ele>48.436101</ele>
        <time>2022-12-17T11:52:16.377Z</time>
      </trkpt>
      <trkpt lat="47.07906" lon="-1.75418">
        <ele>48.615218</ele>
        <time>2022-12-17T11:52:18.373Z</time>
      </trkpt>
      <trkpt lat="47.07895" lon="-1.75415">
        <ele>48.796508</ele>
        <time>2022-12-17T11:52:20.389Z</time>
      </trkpt>
      <trkpt lat="47.07884" lon="-1.75412">
        <ele>48.974643</ele>
        <time>2022-12-17T11:52:22.376Z</time>
      </trkpt>
      <trkpt lat="47.07874" lon="-1.75411">
        <ele>49.146396</ele>
        <time>2022-12-17T11:52:24.389Z</time>
      </trkpt>
      <trkpt lat="47.07863" lon="-1.7541">
        <ele>49.312689</ele>
        <time>2022-12-17T11:52:26.382Z</time>
      </trkpt>
      <trkpt lat="47.07853" lon="-1.75412">
        <ele>49.484763</ele>
        <time>2022-12-17T11:52:28.397Z</time>
      </trkpt>
      <trkpt lat="47.07843" lon="-1.75414">
        <ele>49.641689</ele>
        <time>2022-12-17T11:52:30.382Z</time>
      </trkpt>
      <trkpt lat="47.07834" lon="-1.75416">
        <ele>49.791967</ele>
        <time>2022-12-17T11:52:32.375Z</time>
      </trkpt>
      <trkpt lat="47.07824" lon="-1.75419">
        <ele>49.94251</ele>
        <time>2022-12-17T11:52:34.375Z</time>
      </trkpt>
      <trkpt lat="47.07812" lon="-1.75424">
        <ele>50.221377</ele>
        <time>2022-12-17T11:52:37.381Z</time>
      </trkpt>
      <trkpt lat="47.07803" lon="-1.75427">
        <ele>50.41831</ele>
        <time>2022-12-17T11:52:39.379Z</time>
      </trkpt>
      <trkpt lat="47.0779" lon="-1.75432">
        <ele>50.708678</ele>
        <time>2022-12-17T11:52:42.372Z</time>
      </trkpt>
      <trkpt lat="47.07781" lon="-1.75435">
        <ele>50.907964</ele>
        <time>2022-12-17T11:52:44.384Z</time>
      </trkpt>
      <trkpt lat="47.07768" lon="-1.7544">
        <ele>51.194664</ele>
        <time>2022-12-17T11:52:47.387Z</time>
      </trkpt>
      <trkpt lat="47.07756" lon="-1.75445">
        <ele>51.46793</ele>
        <time>2022-12-17T11:52:50.392Z</time>
      </trkpt>
      <trkpt lat="47.07743" lon="-1.7545">
        <ele>51.749665</ele>
        <time>2022-12-17T11:52:53.372Z</time>
      </trkpt>
      <trkpt lat="47.07731" lon="-1.75456">
        <ele>52.024358</ele>
        <time>2022-12-17T11:52:56.389Z</time>
      </trkpt>
      <trkpt lat="47.07719" lon="-1.75461">
        <ele>52.290398</ele>
        <time>2022-12-17T11:52:59.387Z</time>
      </trkpt>
      <trkpt lat="47.07708" lon="-1.75466">
        <ele>52.542333</ele>
        <time>2022-12-17T11:53:02.376Z</time>
      </trkpt>
      <trkpt lat="47.07698" lon="-1.75469">
        <ele>52.7671</ele>
        <time>2022-12-17T11:53:05.390Z</time>
      </trkpt>
      <trkpt lat="47.07688" lon="-1.75473">
        <ele>52.987693</ele>
        <time>2022-12-17T11:53:08.373Z</time>
      </trkpt>
      <trkpt lat="47.07678" lon="-1.75476">
        <ele>53.214354</ele>
        <time>2022-12-17T11:53:11.369Z</time>
      </trkpt>
      <trkpt lat="47.07668" lon="-1.7548">
        <ele>53.427406</ele>
        <time>2022-12-17T11:53:14.392Z</time>
      </trkpt>
      <trkpt lat="47.07659" lon="-1.75484">
        <ele>53.625566</ele>
        <time>2022-12-17T11:53:17.370Z</time>
      </trkpt>
      <trkpt lat="47.0765" lon="-1.75488">
        <ele>53.832964</ele>
        <time>2022-12-17T11:53:20.372Z</time>
      </trkpt>
      <trkpt lat="47.07641" lon="-1.75491">
        <ele>54.077456</ele>
        <time>2022-12-17T11:53:23.378Z</time>
      </trkpt>
      <trkpt lat="47.07631" lon="-1.75494">
        <ele>54.316419</ele>
        <time>2022-12-17T11:53:26.387Z</time>
      </trkpt>
      <trkpt lat="47.0762" lon="-1.75498">
        <ele>54.601839</ele>
        <time>2022-12-17T11:53:30.383Z</time>
      </trkpt>
      <trkpt lat="47.07611" lon="-1.75502">
        <ele>54.826606</ele>
        <time>2022-12-17T11:53:33.375Z</time>
      </trkpt>
      <trkpt lat="47.07602" lon="-1.75506">
        <ele>55.059528</ele>
        <time>2022-12-17T11:53:36.372Z</time>
      </trkpt>
      <trkpt lat="47.07593" lon="-1.7551">
        <ele>55.290945</ele>
        <time>2022-12-17T11:53:39.371Z</time>
      </trkpt>
      <trkpt lat="47.07584" lon="-1.75513">
        <ele>55.518326</ele>
        <time>2022-12-17T11:53:42.372Z</time>
      </trkpt>
      <trkpt lat="47.07575" lon="-1.75517">
        <ele>55.751574</ele>
        <time>2022-12-17T11:53:45.376Z</time>
      </trkpt>
      <trkpt lat="47.07566" lon="-1.7552">
        <ele>55.979354</ele>
        <time>2022-12-17T11:53:48.379Z</time>
      </trkpt>
      <trkpt lat="47.07557" lon="-1.75524">
        <ele>56.206735</ele>
        <time>2022-12-17T11:53:51.378Z</time>
      </trkpt>
      <trkpt lat="47.07548" lon="-1.75527">
        <ele>56.432134</ele>
        <time>2022-12-17T11:53:54.385Z</time>
      </trkpt>
      <trkpt lat="47.07539" lon="-1.7553">
        <ele>56.667467</ele>
        <time>2022-12-17T11:53:58.393Z</time>
      </trkpt>
      <trkpt lat="47.07528" lon="-1.75535">
        <ele>56.932769</ele>
        <time>2022-12-17T11:54:02.372Z</time>
      </trkpt>
      <trkpt lat="47.07519" lon="-1.75538">
        <ele>57.154718</ele>
        <time>2022-12-17T11:54:05.379Z</time>
      </trkpt>
      <trkpt lat="47.07508" lon="-1.75543">
        <ele>57.442213</ele>
        <time>2022-12-17T11:54:09.371Z</time>
      </trkpt>
      <trkpt lat="47.07498" lon="-1.75547">
        <ele>57.714592</ele>
        <time>2022-12-17T11:54:13.371Z</time>
      </trkpt>
      <trkpt lat="47.07488" lon="-1.7555">
        <ele>57.960976</ele>
        <time>2022-12-17T11:54:17.379Z</time>
      </trkpt>
      <trkpt lat="47.07477" lon="-1.75553">
        <ele>58.223325</ele>
        <time>2022-12-17T11:54:21.378Z</time>
      </trkpt>
      <trkpt lat="47.07466" lon="-1.75557">
        <ele>58.510492</ele>
        <time>2022-12-17T11:54:25.397Z</time>
      </trkpt>
      <trkpt lat="47.07455" lon="-1.75561">
        <ele>58.800343</ele>
        <time>2022-12-17T11:54:29.387Z</time>
      </trkpt>
      <trkpt lat="47.07444" lon="-1.75566">
        <ele>59.078942</ele>
        <time>2022-12-17T11:54:33.372Z</time>
      </trkpt>
      <trkpt lat="47.07433" lon="-1.75571">
        <ele>59.375953</ele>
        <time>2022-12-17T11:54:37.386Z</time>
      </trkpt>
      <trkpt lat="47.07424" lon="-1.75576">
        <ele>59.616554</ele>
        <time>2022-12-17T11:54:40.384Z</time>
      </trkpt>
      <trkpt lat="47.07415" lon="-1.75579">
        <ele>59.848323</ele>
        <time>2022-12-17T11:54:43.390Z</time>
      </trkpt>
      <trkpt lat="47.07407" lon="-1.75582">
        <ele>60.077224</ele>
        <time>2022-12-17T11:54:46.379Z</time>
      </trkpt>
      <trkpt lat="47.07397" lon="-1.75585">
        <ele>60.313486</ele>
        <time>2022-12-17T11:54:49.378Z</time>
      </trkpt>
      <trkpt lat="47.07388" lon="-1.75589">
        <ele>60.55958</ele>
        <time>2022-12-17T11:54:52.374Z</time>
      </trkpt>
      <trkpt lat="47.07378" lon="-1.75592">
        <ele>60.809329</ele>
        <time>2022-12-17T11:54:55.374Z</time>
      </trkpt>
      <trkpt lat="47.07369" lon="-1.75596">
        <ele>61.050634</ele>
        <time>2022-12-17T11:54:58.392Z</time>
      </trkpt>
      <trkpt lat="47.0736" lon="-1.75599">
        <ele>61.283655</ele>
        <time>2022-12-17T11:55:01.373Z</time>
      </trkpt>
      <trkpt lat="47.07351" lon="-1.75602">
        <ele>61.528648</ele>
        <time>2022-12-17T11:55:04.386Z</time>
      </trkpt>
      <trkpt lat="47.07342" lon="-1.75605">
        <ele>61.767059</ele>
        <time>2022-12-17T11:55:07.386Z</time>
      </trkpt>
      <trkpt lat="47.07332" lon="-1.75609">
        <ele>62.009318</ele>
        <time>2022-12-17T11:55:10.398Z</time>
      </trkpt>
      <trkpt lat="47.07323" lon="-1.75613">
        <ele>62.250163</ele>
        <time>2022-12-17T11:55:13.376Z</time>
      </trkpt>
      <trkpt lat="47.07313" lon="-1.75618">
        <ele>62.510889</ele>
        <time>2022-12-17T11:55:16.393Z</time>
      </trkpt>
      <trkpt lat="47.07304" lon="-1.75623">
        <ele>62.761612</ele>
        <time>2022-12-17T11:55:19.373Z</time>
      </trkpt>
      <trkpt lat="47.07294" lon="-1.75629">
        <ele>62.885284</ele>
        <time>2022-12-17T11:55:22.373Z</time>
      </trkpt>
      <trkpt lat="47.07284" lon="-1.75636">
        <ele>63.006318</ele>
        <time>2022-12-17T11:55:25.372Z</time>
      </trkpt>
      <trkpt lat="47.07274" lon="-1.75644">
        <ele>63.129053</ele>
        <time>2022-12-17T11:55:28.376Z</time>
      </trkpt>
      <trkpt lat="47.07265" lon="-1.75653">
        <ele>63.253578</ele>
        <time>2022-12-17T11:55:31.386Z</time>
      </trkpt>
      <trkpt lat="47.07256" lon="-1.75662">
        <ele>63.373779</ele>
        <time>2022-12-17T11:55:34.370Z</time>
      </trkpt>
      <trkpt lat="47.07247" lon="-1.75671">
        <ele>63.493919</ele>
        <time>2022-12-17T11:55:37.385Z</time>
      </trkpt>
      <trkpt lat="47.07238" lon="-1.75681">
        <ele>63.612392</ele>
        <time>2022-12-17T11:55:40.374Z</time>
      </trkpt>
      <trkpt lat="47.07229" lon="-1.75691">
        <ele>63.737091</ele>
        <time>2022-12-17T11:55:43.371Z</time>
      </trkpt>
      <trkpt lat="47.07221" lon="-1.75702">
        <ele>63.860944</ele>
        <time>2022-12-17T11:55:46.371Z</time>
      </trkpt>
      <trkpt lat="47.07212" lon="-1.75712">
        <ele>63.977628</ele>
        <time>2022-12-17T11:55:49.378Z</time>
      </trkpt>
      <trkpt lat="47.07204" lon="-1.75721">
        <ele>64.092059</ele>
        <time>2022-12-17T11:55:52.369Z</time>
      </trkpt>
      <trkpt lat="47.07195" lon="-1.75732">
        <ele>64.216672</ele>
        <time>2022-12-17T11:55:55.383Z</time>
      </trkpt>
      <trkpt lat="47.07186" lon="-1.75743">
        <ele>64.346183</ele>
        <time>2022-12-17T11:55:58.373Z</time>
      </trkpt>
      <trkpt lat="47.07177" lon="-1.75753">
        <ele>64.46896</ele>
        <time>2022-12-17T11:56:01.373Z</time>
      </trkpt>
      <trkpt lat="47.07169" lon="-1.75761">
        <ele>64.579349</ele>
        <time>2022-12-17T11:56:04.377Z</time>
      </trkpt>
      <trkpt lat="47.07161" lon="-1.7577">
        <ele>64.686786</ele>
        <time>2022-12-17T11:56:07.378Z</time>
      </trkpt>
      <trkpt lat="47.07153" lon="-1.7578">
        <ele>64.775043</ele>
        <time>2022-12-17T11:56:10.371Z</time>
      </trkpt>
      <trkpt lat="47.07145" lon="-1.75791">
        <ele>64.841208</ele>
        <time>2022-12-17T11:56:13.378Z</time>
      </trkpt>
      <trkpt lat="47.07136" lon="-1.75802">
        <ele>64.911321</ele>
        <time>2022-12-17T11:56:16.372Z</time>
      </trkpt>
      <trkpt lat="47.07127" lon="-1.75812">
        <ele>64.979386</ele>
        <time>2022-12-17T11:56:19.381Z</time>
      </trkpt>
      <trkpt lat="47.07117" lon="-1.75824">
        <ele>65.052559</ele>
        <time>2022-12-17T11:56:22.373Z</time>
      </trkpt>
      <trkpt lat="47.07108" lon="-1.75834">
        <ele>65.120598</ele>
        <time>2022-12-17T11:56:25.390Z</time>
      </trkpt>
      <trkpt lat="47.07099" lon="-1.75845">
        <ele>65.190191</ele>
        <time>2022-12-17T11:56:28.379Z</time>
      </trkpt>
      <trkpt lat="47.0709" lon="-1.75854">
        <ele>65.253909</ele>
        <time>2022-12-17T11:56:31.376Z</time>
      </trkpt>
      <trkpt lat="47.07082" lon="-1.75863">
        <ele>65.31524</ele>
        <time>2022-12-17T11:56:34.390Z</time>
      </trkpt>
      <trkpt lat="47.07073" lon="-1.75874">
        <ele>65.383305</ele>
        <time>2022-12-17T11:56:37.378Z</time>
      </trkpt>
      <trkpt lat="47.07064" lon="-1.75884">
        <ele>65.454709</ele>
        <time>2022-12-17T11:56:40.384Z</time>
      </trkpt>
      <trkpt lat="47.07054" lon="-1.75895">
        <ele>65.525894</ele>
        <time>2022-12-17T11:56:43.398Z</time>
      </trkpt>
      <trkpt lat="47.07045" lon="-1.75905">
        <ele>65.596082</ele>
        <time>2022-12-17T11:56:46.390Z</time>
      </trkpt>
      <trkpt lat="47.07036" lon="-1.75917">
        <ele>65.666391</ele>
        <time>2022-12-17T11:56:49.382Z</time>
      </trkpt>
      <trkpt lat="47.07027" lon="-1.75927">
        <ele>65.733196</ele>
        <time>2022-12-17T11:56:52.368Z</time>
      </trkpt>
      <trkpt lat="47.07019" lon="-1.75937">
        <ele>65.798141</ele>
        <time>2022-12-17T11:56:55.394Z</time>
      </trkpt>
      <trkpt lat="47.0701" lon="-1.75947">
        <ele>65.993189</ele>
        <time>2022-12-17T11:56:58.383Z</time>
      </trkpt>
      <trkpt lat="47.07001" lon="-1.75958">
        <ele>66.236144</ele>
        <time>2022-12-17T11:57:01.386Z</time>
      </trkpt>
      <trkpt lat="47.06992" lon="-1.75968">
        <ele>66.481565</ele>
        <time>2022-12-17T11:57:04.371Z</time>
      </trkpt>
      <trkpt lat="47.06983" lon="-1.75979">
        <ele>66.728773</ele>
        <time>2022-12-17T11:57:07.379Z</time>
      </trkpt>
      <trkpt lat="47.06974" lon="-1.7599">
        <ele>66.980091</ele>
        <time>2022-12-17T11:57:10.387Z</time>
      </trkpt>
      <trkpt lat="47.06965" lon="-1.75999">
        <ele>67.215117</ele>
        <time>2022-12-17T11:57:13.379Z</time>
      </trkpt>
      <trkpt lat="47.06958" lon="-1.76008">
        <ele>67.414906</ele>
        <time>2022-12-17T11:57:16.378Z</time>
      </trkpt>
      <trkpt lat="47.0695" lon="-1.76017">
        <ele>67.626711</ele>
        <time>2022-12-17T11:57:20.377Z</time>
      </trkpt>
      <trkpt lat="47.06941" lon="-1.76024">
        <ele>67.851048</ele>
        <time>2022-12-17T11:57:24.377Z</time>
      </trkpt>
      <trkpt lat="47.06931" lon="-1.76034">
        <ele>68.097703</ele>
        <time>2022-12-17T11:57:28.375Z</time>
      </trkpt>
      <trkpt lat="47.06923" lon="-1.7604">
        <ele>68.291845</ele>
        <time>2022-12-17T11:57:31.385Z</time>
      </trkpt>
      <trkpt lat="47.06915" lon="-1.76046">
        <ele>68.484388</ele>
        <time>2022-12-17T11:57:34.382Z</time>
      </trkpt>
      <trkpt lat="47.06907" lon="-1.76052">
        <ele>68.677553</ele>
        <time>2022-12-17T11:57:37.389Z</time>
      </trkpt>
      <trkpt lat="47.06896" lon="-1.7606">
        <ele>68.935929</ele>
        <time>2022-12-17T11:57:41.377Z</time>
      </trkpt>
      <trkpt lat="47.06887" lon="-1.76065">
        <ele>69.147554</ele>
        <time>2022-12-17T11:57:44.390Z</time>
      </trkpt>
      <trkpt lat="47.06878" lon="-1.7607">
        <ele>69.345121</ele>
        <time>2022-12-17T11:57:47.393Z</time>
      </trkpt>
      <trkpt lat="47.06867" lon="-1.76075">
        <ele>69.59195</ele>
        <time>2022-12-17T11:57:51.382Z</time>
      </trkpt>
      <trkpt lat="47.06856" lon="-1.7608">
        <ele>69.893517</ele>
        <time>2022-12-17T11:57:55.373Z</time>
      </trkpt>
      <trkpt lat="47.06846" lon="-1.76085">
        <ele>70.178937</ele>
        <time>2022-12-17T11:57:59.382Z</time>
      </trkpt>
      <trkpt lat="47.06836" lon="-1.76089">
        <ele>70.467514</ele>
        <time>2022-12-17T11:58:03.389Z</time>
      </trkpt>
      <trkpt lat="47.06826" lon="-1.76094">
        <ele>70.760771</ele>
        <time>2022-12-17T11:58:07.374Z</time>
      </trkpt>
      <trkpt lat="47.06816" lon="-1.76097">
        <ele>71.022151</ele>
        <time>2022-12-17T11:58:11.403Z</time>
      </trkpt>
      <trkpt lat="47.06806" lon="-1.76101">
        <ele>71.322254</ele>
        <time>2022-12-17T11:58:15.374Z</time>
      </trkpt>
      <trkpt lat="47.06795" lon="-1.76106">
        <ele>71.621273</ele>
        <time>2022-12-17T11:58:19.383Z</time>
      </trkpt>
      <trkpt lat="47.06785" lon="-1.7611">
        <ele>71.921876</ele>
        <time>2022-12-17T11:58:23.385Z</time>
      </trkpt>
      <trkpt lat="47.06775" lon="-1.76115">
        <ele>72.21199</ele>
        <time>2022-12-17T11:58:27.418Z</time>
      </trkpt>
      <trkpt lat="47.06765" lon="-1.76119">
        <ele>72.489073</ele>
        <time>2022-12-17T11:58:31.376Z</time>
      </trkpt>
      <trkpt lat="47.06755" lon="-1.76123">
        <ele>72.757206</ele>
        <time>2022-12-17T11:58:35.368Z</time>
      </trkpt>
      <trkpt lat="47.06746" lon="-1.76127">
        <ele>73.019667</ele>
        <time>2022-12-17T11:58:39.395Z</time>
      </trkpt>
      <trkpt lat="47.06737" lon="-1.76131">
        <ele>73.284172</ele>
        <time>2022-12-17T11:58:43.394Z</time>
      </trkpt>
      <trkpt lat="47.06728" lon="-1.76135">
        <ele>73.550735</ele>
        <time>2022-12-17T11:58:47.369Z</time>
      </trkpt>
      <trkpt lat="47.06718" lon="-1.7614">
        <ele>73.830942</ele>
        <time>2022-12-17T11:58:51.379Z</time>
      </trkpt>
      <trkpt lat="47.06708" lon="-1.76145">
        <ele>74.12584</ele>
        <time>2022-12-17T11:58:55.376Z</time>
      </trkpt>
      <trkpt lat="47.06698" lon="-1.76149">
        <ele>74.411261</ele>
        <time>2022-12-17T11:58:59.375Z</time>
      </trkpt>
      <trkpt lat="47.06687" lon="-1.76154">
        <ele>74.643097</ele>
        <time>2022-12-17T11:59:03.384Z</time>
      </trkpt>
      <trkpt lat="47.06677" lon="-1.76158">
        <ele>74.810563</ele>
        <time>2022-12-17T11:59:07.387Z</time>
      </trkpt>
      <trkpt lat="47.06667" lon="-1.76164">
        <ele>74.978899</ele>
        <time>2022-12-17T11:59:11.374Z</time>
      </trkpt>
      <trkpt lat="47.06657" lon="-1.76168">
        <ele>75.142805</ele>
        <time>2022-12-17T11:59:15.370Z</time>
      </trkpt>
      <trkpt lat="47.06647" lon="-1.76172">
        <ele>75.303118</ele>
        <time>2022-12-17T11:59:19.385Z</time>
      </trkpt>
      <trkpt lat="47.06637" lon="-1.76177">
        <ele>75.470274</ele>
        <time>2022-12-17T11:59:23.373Z</time>
      </trkpt>
      <trkpt lat="47.06626" lon="-1.76181">
        <ele>75.645257</ele>
        <time>2022-12-17T11:59:27.380Z</time>
      </trkpt>
      <trkpt lat="47.06616" lon="-1.76185">
        <ele>75.814263</ele>
        <time>2022-12-17T11:59:31.373Z</time>
      </trkpt>
      <trkpt lat="47.06606" lon="-1.7619">
        <ele>75.97756</ele>
        <time>2022-12-17T11:59:35.393Z</time>
      </trkpt>
      <trkpt lat="47.06595" lon="-1.76196">
        <ele>76.153653</ele>
        <time>2022-12-17T11:59:39.384Z</time>
      </trkpt>
      <trkpt lat="47.06584" lon="-1.76201">
        <ele>76.340494</ele>
        <time>2022-12-17T11:59:43.390Z</time>
      </trkpt>
      <trkpt lat="47.06575" lon="-1.76206">
        <ele>76.492686</ele>
        <time>2022-12-17T11:59:46.372Z</time>
      </trkpt>
      <trkpt lat="47.06565" lon="-1.76209">
        <ele>76.653018</ele>
        <time>2022-12-17T11:59:49.373Z</time>
      </trkpt>
      <trkpt lat="47.06556" lon="-1.76213">
        <ele>76.802729</ele>
        <time>2022-12-17T11:59:52.370Z</time>
      </trkpt>
      <trkpt lat="47.06547" lon="-1.76218">
        <ele>76.947511</ele>
        <time>2022-12-17T11:59:55.373Z</time>
      </trkpt>
      <trkpt lat="47.06538" lon="-1.76222">
        <ele>77.095425</ele>
        <time>2022-12-17T11:59:58.390Z</time>
      </trkpt>
      <trkpt lat="47.06529" lon="-1.76226">
        <ele>77.244302</ele>
        <time>2022-12-17T12:00:01.383Z</time>
      </trkpt>
      <trkpt lat="47.06519" lon="-1.76232">
        <ele>77.347844</ele>
        <time>2022-12-17T12:00:04.370Z</time>
      </trkpt>
      <trkpt lat="47.06507" lon="-1.76237">
        <ele>77.098273</ele>
        <time>2022-12-17T12:00:07.371Z</time>
      </trkpt>
      <trkpt lat="47.06495" lon="-1.76243">
        <ele>76.8386</ele>
        <time>2022-12-17T12:00:10.371Z</time>
      </trkpt>
      <trkpt lat="47.06482" lon="-1.76249">
        <ele>76.563701</ele>
        <time>2022-12-17T12:00:13.369Z</time>
      </trkpt>
      <trkpt lat="47.06473" lon="-1.76253">
        <ele>76.375288</ele>
        <time>2022-12-17T12:00:15.382Z</time>
      </trkpt>
      <trkpt lat="47.06465" lon="-1.76258">
        <ele>76.181699</ele>
        <time>2022-12-17T12:00:17.377Z</time>
      </trkpt>
      <trkpt lat="47.06455" lon="-1.76262">
        <ele>75.987914</ele>
        <time>2022-12-17T12:00:19.387Z</time>
      </trkpt>
      <trkpt lat="47.06446" lon="-1.76266">
        <ele>75.79494</ele>
        <time>2022-12-17T12:00:21.391Z</time>
      </trkpt>
      <trkpt lat="47.06437" lon="-1.76272">
        <ele>75.591357</ele>
        <time>2022-12-17T12:00:23.391Z</time>
      </trkpt>
      <trkpt lat="47.06427" lon="-1.76277">
        <ele>75.374379</ele>
        <time>2022-12-17T12:00:25.380Z</time>
      </trkpt>
      <trkpt lat="47.06417" lon="-1.76282">
        <ele>75.160214</ele>
        <time>2022-12-17T12:00:27.380Z</time>
      </trkpt>
      <trkpt lat="47.06407" lon="-1.76287">
        <ele>74.943673</ele>
        <time>2022-12-17T12:00:29.382Z</time>
      </trkpt>
      <trkpt lat="47.06396" lon="-1.76292">
        <ele>74.720265</ele>
        <time>2022-12-17T12:00:31.389Z</time>
      </trkpt>
      <trkpt lat="47.06386" lon="-1.76297">
        <ele>74.491727</ele>
        <time>2022-12-17T12:00:33.379Z</time>
      </trkpt>
      <trkpt lat="47.06375" lon="-1.76302">
        <ele>74.265966</ele>
        <time>2022-12-17T12:00:35.384Z</time>
      </trkpt>
      <trkpt lat="47.06365" lon="-1.76309">
        <ele>74.038752</ele>
        <time>2022-12-17T12:00:37.396Z</time>
      </trkpt>
      <trkpt lat="47.06355" lon="-1.76314">
        <ele>73.816097</ele>
        <time>2022-12-17T12:00:39.380Z</time>
      </trkpt>
      <trkpt lat="47.06344" lon="-1.76319">
        <ele>73.627223</ele>
        <time>2022-12-17T12:00:41.374Z</time>
      </trkpt>
      <trkpt lat="47.06333" lon="-1.76325">
        <ele>73.442162</ele>
        <time>2022-12-17T12:00:43.368Z</time>
      </trkpt>
      <trkpt lat="47.06322" lon="-1.7633">
        <ele>73.268974</ele>
        <time>2022-12-17T12:00:45.383Z</time>
      </trkpt>
      <trkpt lat="47.06311" lon="-1.76335">
        <ele>73.09176</ele>
        <time>2022-12-17T12:00:47.387Z</time>
      </trkpt>
      <trkpt lat="47.06301" lon="-1.7634">
        <ele>72.919709</ele>
        <time>2022-12-17T12:00:49.373Z</time>
      </trkpt>
      <trkpt lat="47.0629" lon="-1.76345">
        <ele>72.755335</ele>
        <time>2022-12-17T12:00:51.383Z</time>
      </trkpt>
      <trkpt lat="47.0628" lon="-1.76349">
        <ele>72.586834</ele>
        <time>2022-12-17T12:00:53.372Z</time>
      </trkpt>
      <trkpt lat="47.0627" lon="-1.76353">
        <ele>72.425685</ele>
        <time>2022-12-17T12:00:55.376Z</time>
      </trkpt>
      <trkpt lat="47.0626" lon="-1.76357">
        <ele>72.263976</ele>
        <time>2022-12-17T12:00:57.395Z</time>
      </trkpt>
      <trkpt lat="47.0625" lon="-1.76362">
        <ele>72.106411</ele>
        <time>2022-12-17T12:00:59.383Z</time>
      </trkpt>
      <trkpt lat="47.0624" lon="-1.76366">
        <ele>71.947593</ele>
        <time>2022-12-17T12:01:01.391Z</time>
      </trkpt>
      <trkpt lat="47.0623" lon="-1.7637">
        <ele>71.794697</ele>
        <time>2022-12-17T12:01:03.375Z</time>
      </trkpt>
      <trkpt lat="47.06221" lon="-1.76375">
        <ele>71.643182</ele>
        <time>2022-12-17T12:01:05.393Z</time>
      </trkpt>
      <trkpt lat="47.06212" lon="-1.76379">
        <ele>71.491195</ele>
        <time>2022-12-17T12:01:07.390Z</time>
      </trkpt>
      <trkpt lat="47.06202" lon="-1.76384">
        <ele>71.3327</ele>
        <time>2022-12-17T12:01:09.380Z</time>
      </trkpt>
      <trkpt lat="47.06192" lon="-1.76389">
        <ele>71.162765</ele>
        <time>2022-12-17T12:01:11.390Z</time>
      </trkpt>
      <trkpt lat="47.06181" lon="-1.76394">
        <ele>70.986848</ele>
        <time>2022-12-17T12:01:13.378Z</time>
      </trkpt>
      <trkpt lat="47.0617" lon="-1.76399">
        <ele>70.864378</ele>
        <time>2022-12-17T12:01:15.377Z</time>
      </trkpt>
      <trkpt lat="47.0616" lon="-1.76404">
        <ele>70.750188</ele>
        <time>2022-12-17T12:01:17.389Z</time>
      </trkpt>
      <trkpt lat="47.06149" lon="-1.76409">
        <ele>70.631627</ele>
        <time>2022-12-17T12:01:19.390Z</time>
      </trkpt>
      <trkpt lat="47.06138" lon="-1.76414">
        <ele>70.510931</ele>
        <time>2022-12-17T12:01:21.382Z</time>
      </trkpt>
      <trkpt lat="47.06127" lon="-1.76419">
        <ele>70.392798</ele>
        <time>2022-12-17T12:01:23.388Z</time>
      </trkpt>
      <trkpt lat="47.06115" lon="-1.76424">
        <ele>70.271861</ele>
        <time>2022-12-17T12:01:25.380Z</time>
      </trkpt>
      <trkpt lat="47.06104" lon="-1.76429">
        <ele>70.150444</ele>
        <time>2022-12-17T12:01:27.384Z</time>
      </trkpt>
      <trkpt lat="47.06093" lon="-1.76435">
        <ele>70.027351</ele>
        <time>2022-12-17T12:01:29.392Z</time>
      </trkpt>
      <trkpt lat="47.06083" lon="-1.76439">
        <ele>69.91548</ele>
        <time>2022-12-17T12:01:31.380Z</time>
      </trkpt>
      <trkpt lat="47.06072" lon="-1.76444">
        <ele>69.797902</ele>
        <time>2022-12-17T12:01:33.395Z</time>
      </trkpt>
      <trkpt lat="47.06061" lon="-1.7645">
        <ele>69.683065</ele>
        <time>2022-12-17T12:01:35.372Z</time>
      </trkpt>
      <trkpt lat="47.0605" lon="-1.76455">
        <ele>69.561647</ele>
        <time>2022-12-17T12:01:37.381Z</time>
      </trkpt>
      <trkpt lat="47.0604" lon="-1.76459">
        <ele>69.450251</ele>
        <time>2022-12-17T12:01:39.381Z</time>
      </trkpt>
      <trkpt lat="47.0603" lon="-1.76464">
        <ele>69.343842</ele>
        <time>2022-12-17T12:01:41.393Z</time>
      </trkpt>
      <trkpt lat="47.0602" lon="-1.76469">
        <ele>69.235072</ele>
        <time>2022-12-17T12:01:43.376Z</time>
      </trkpt>
      <trkpt lat="47.0601" lon="-1.76474">
        <ele>69.124268</ele>
        <time>2022-12-17T12:01:45.385Z</time>
      </trkpt>
      <trkpt lat="47.06" lon="-1.76479">
        <ele>69.009476</ele>
        <time>2022-12-17T12:01:47.376Z</time>
      </trkpt>
      <trkpt lat="47.0599" lon="-1.76484">
        <ele>68.895274</ele>
        <time>2022-12-17T12:01:49.372Z</time>
      </trkpt>
      <trkpt lat="47.0598" lon="-1.76489">
        <ele>68.782828</ele>
        <time>2022-12-17T12:01:51.382Z</time>
      </trkpt>
      <trkpt lat="47.05971" lon="-1.76494">
        <ele>68.676276</ele>
        <time>2022-12-17T12:01:53.380Z</time>
      </trkpt>
      <trkpt lat="47.05962" lon="-1.76498">
        <ele>68.569556</ele>
        <time>2022-12-17T12:01:55.374Z</time>
      </trkpt>
      <trkpt lat="47.05952" lon="-1.76503">
        <ele>68.460542</ele>
        <time>2022-12-17T12:01:57.384Z</time>
      </trkpt>
      <trkpt lat="47.05942" lon="-1.76507">
        <ele>68.350391</ele>
        <time>2022-12-17T12:01:59.385Z</time>
      </trkpt>
      <trkpt lat="47.05932" lon="-1.76512">
        <ele>68.233457</ele>
        <time>2022-12-17T12:02:01.391Z</time>
      </trkpt>
      <trkpt lat="47.05922" lon="-1.76517">
        <ele>68.113099</ele>
        <time>2022-12-17T12:02:03.392Z</time>
      </trkpt>
      <trkpt lat="47.05911" lon="-1.76522">
        <ele>67.994085</ele>
        <time>2022-12-17T12:02:05.388Z</time>
      </trkpt>
      <trkpt lat="47.059" lon="-1.76527">
        <ele>67.86834</ele>
        <time>2022-12-17T12:02:07.372Z</time>
      </trkpt>
      <trkpt lat="47.05889" lon="-1.76533">
        <ele>67.742414</ele>
        <time>2022-12-17T12:02:09.383Z</time>
      </trkpt>
      <trkpt lat="47.05878" lon="-1.76538">
        <ele>67.614375</ele>
        <time>2022-12-17T12:02:11.382Z</time>
      </trkpt>
      <trkpt lat="47.05867" lon="-1.76544">
        <ele>67.487366</ele>
        <time>2022-12-17T12:02:13.376Z</time>
      </trkpt>
      <trkpt lat="47.05856" lon="-1.76549">
        <ele>67.360642</ele>
        <time>2022-12-17T12:02:15.382Z</time>
      </trkpt>
      <trkpt lat="47.05845" lon="-1.76554">
        <ele>67.23868</ele>
        <time>2022-12-17T12:02:17.387Z</time>
      </trkpt>
      <trkpt lat="47.05834" lon="-1.76559">
        <ele>67.089</ele>
        <time>2022-12-17T12:02:19.371Z</time>
      </trkpt>
      <trkpt lat="47.05823" lon="-1.76564">
        <ele>66.855234</ele>
        <time>2022-12-17T12:02:21.392Z</time>
      </trkpt>
      <trkpt lat="47.05813" lon="-1.76569">
        <ele>66.626835</ele>
        <time>2022-12-17T12:02:23.377Z</time>
      </trkpt>
      <trkpt lat="47.05802" lon="-1.76574">
        <ele>66.397803</ele>
        <time>2022-12-17T12:02:25.374Z</time>
      </trkpt>
      <trkpt lat="47.05791" lon="-1.7658">
        <ele>66.161229</ele>
        <time>2022-12-17T12:02:27.378Z</time>
      </trkpt>
      <trkpt lat="47.05781" lon="-1.76586">
        <ele>65.931413</ele>
        <time>2022-12-17T12:02:29.394Z</time>
      </trkpt>
      <trkpt lat="47.05769" lon="-1.76592">
        <ele>65.68725</ele>
        <time>2022-12-17T12:02:31.394Z</time>
      </trkpt>
      <trkpt lat="47.05758" lon="-1.76597">
        <ele>65.446528</ele>
        <time>2022-12-17T12:02:33.387Z</time>
      </trkpt>
      <trkpt lat="47.05747" lon="-1.76602">
        <ele>65.20457</ele>
        <time>2022-12-17T12:02:35.386Z</time>
      </trkpt>
      <trkpt lat="47.05735" lon="-1.76607">
        <ele>64.960668</ele>
        <time>2022-12-17T12:02:37.383Z</time>
      </trkpt>
      <trkpt lat="47.05724" lon="-1.76612">
        <ele>64.720343</ele>
        <time>2022-12-17T12:02:39.396Z</time>
      </trkpt>
      <trkpt lat="47.05713" lon="-1.76618">
        <ele>64.474706</ele>
        <time>2022-12-17T12:02:41.386Z</time>
      </trkpt>
      <trkpt lat="47.05701" lon="-1.76622">
        <ele>64.235154</ele>
        <time>2022-12-17T12:02:43.387Z</time>
      </trkpt>
      <trkpt lat="47.0569" lon="-1.76628">
        <ele>63.999446</ele>
        <time>2022-12-17T12:02:45.372Z</time>
      </trkpt>
      <trkpt lat="47.05679" lon="-1.76633">
        <ele>63.768048</ele>
        <time>2022-12-17T12:02:47.374Z</time>
      </trkpt>
      <trkpt lat="47.05669" lon="-1.76638">
        <ele>63.539015</ele>
        <time>2022-12-17T12:02:49.374Z</time>
      </trkpt>
      <trkpt lat="47.05659" lon="-1.76644">
        <ele>63.496653</ele>
        <time>2022-12-17T12:02:51.374Z</time>
      </trkpt>
      <trkpt lat="47.05648" lon="-1.7665">
        <ele>63.522015</ele>
        <time>2022-12-17T12:02:53.374Z</time>
      </trkpt>
      <trkpt lat="47.05639" lon="-1.76654">
        <ele>63.544715</ele>
        <time>2022-12-17T12:02:55.369Z</time>
      </trkpt>
      <trkpt lat="47.05629" lon="-1.76657">
        <ele>63.567186</ele>
        <time>2022-12-17T12:02:57.380Z</time>
      </trkpt>
      <trkpt lat="47.0562" lon="-1.76662">
        <ele>63.590723</ele>
        <time>2022-12-17T12:02:59.369Z</time>
      </trkpt>
      <trkpt lat="47.0561" lon="-1.76668">
        <ele>63.614856</ele>
        <time>2022-12-17T12:03:01.374Z</time>
      </trkpt>
      <trkpt lat="47.056" lon="-1.76672">
        <ele>63.639632</ele>
        <time>2022-12-17T12:03:03.381Z</time>
      </trkpt>
      <trkpt lat="47.0559" lon="-1.76676">
        <ele>63.663223</ele>
        <time>2022-12-17T12:03:05.394Z</time>
      </trkpt>
      <trkpt lat="47.05579" lon="-1.76682">
        <ele>63.690006</ele>
        <time>2022-12-17T12:03:07.371Z</time>
      </trkpt>
      <trkpt lat="47.05569" lon="-1.76687">
        <ele>63.71514</ele>
        <time>2022-12-17T12:03:09.394Z</time>
      </trkpt>
      <trkpt lat="47.05559" lon="-1.76691">
        <ele>63.737547</ele>
        <time>2022-12-17T12:03:11.382Z</time>
      </trkpt>
      <trkpt lat="47.0555" lon="-1.76695">
        <ele>63.760915</ele>
        <time>2022-12-17T12:03:13.376Z</time>
      </trkpt>
      <trkpt lat="47.05539" lon="-1.76699">
        <ele>63.785439</ele>
        <time>2022-12-17T12:03:15.378Z</time>
      </trkpt>
      <trkpt lat="47.05529" lon="-1.76704">
        <ele>63.809427</ele>
        <time>2022-12-17T12:03:17.369Z</time>
      </trkpt>
      <trkpt lat="47.0552" lon="-1.76708">
        <ele>63.83259</ele>
        <time>2022-12-17T12:03:19.386Z</time>
      </trkpt>
      <trkpt lat="47.0551" lon="-1.76714">
        <ele>63.856778</ele>
        <time>2022-12-17T12:03:21.374Z</time>
      </trkpt>
      <trkpt lat="47.05501" lon="-1.76718">
        <ele>63.878899</ele>
        <time>2022-12-17T12:03:23.399Z</time>
      </trkpt>
      <trkpt lat="47.05492" lon="-1.76722">
        <ele>63.921055</ele>
        <time>2022-12-17T12:03:25.376Z</time>
      </trkpt>
      <trkpt lat="47.05483" lon="-1.76726">
        <ele>63.995618</ele>
        <time>2022-12-17T12:03:27.382Z</time>
      </trkpt>
      <trkpt lat="47.05473" lon="-1.7673">
        <ele>64.075334</ele>
        <time>2022-12-17T12:03:29.383Z</time>
      </trkpt>
      <trkpt lat="47.05464" lon="-1.76734">
        <ele>64.149289</ele>
        <time>2022-12-17T12:03:31.376Z</time>
      </trkpt>
      <trkpt lat="47.05455" lon="-1.76738">
        <ele>64.224951</ele>
        <time>2022-12-17T12:03:33.416Z</time>
      </trkpt>
      <trkpt lat="47.05446" lon="-1.76743">
        <ele>64.299685</ele>
        <time>2022-12-17T12:03:35.381Z</time>
      </trkpt>
      <trkpt lat="47.05438" lon="-1.76747">
        <ele>64.373272</ele>
        <time>2022-12-17T12:03:37.374Z</time>
      </trkpt>
      <trkpt lat="47.05428" lon="-1.76753">
        <ele>64.451181</ele>
        <time>2022-12-17T12:03:39.379Z</time>
      </trkpt>
      <trkpt lat="47.05419" lon="-1.76757">
        <ele>64.527019</ele>
        <time>2022-12-17T12:03:41.376Z</time>
      </trkpt>
      <trkpt lat="47.05411" lon="-1.76761">
        <ele>64.60109</ele>
        <time>2022-12-17T12:03:43.385Z</time>
      </trkpt>
      <trkpt lat="47.05399" lon="-1.76768">
        <ele>64.696538</ele>
        <time>2022-12-17T12:03:46.374Z</time>
      </trkpt>
      <trkpt lat="47.05387" lon="-1.76773">
        <ele>64.802221</ele>
        <time>2022-12-17T12:03:49.378Z</time>
      </trkpt>
      <trkpt lat="47.05375" lon="-1.76779">
        <ele>64.901249</ele>
        <time>2022-12-17T12:03:52.373Z</time>
      </trkpt>
      <trkpt lat="47.05363" lon="-1.76785">
        <ele>65.000531</ele>
        <time>2022-12-17T12:03:55.388Z</time>
      </trkpt>
      <trkpt lat="47.05351" lon="-1.7679">
        <ele>65.097812</ele>
        <time>2022-12-17T12:03:58.385Z</time>
      </trkpt>
      <trkpt lat="47.05339" lon="-1.76795">
        <ele>65.199534</ele>
        <time>2022-12-17T12:04:01.383Z</time>
      </trkpt>
      <trkpt lat="47.05327" lon="-1.76801">
        <ele>65.300782</ele>
        <time>2022-12-17T12:04:04.388Z</time>
      </trkpt>
      <trkpt lat="47.05315" lon="-1.76807">
        <ele>65.320957</ele>
        <time>2022-12-17T12:04:07.388Z</time>
      </trkpt>
      <trkpt lat="47.05302" lon="-1.76813">
        <ele>65.316439</ele>
        <time>2022-12-17T12:04:10.391Z</time>
      </trkpt>
      <trkpt lat="47.05293" lon="-1.76817">
        <ele>65.313349</ele>
        <time>2022-12-17T12:04:12.372Z</time>
      </trkpt>
      <trkpt lat="47.05284" lon="-1.76821">
        <ele>65.310323</ele>
        <time>2022-12-17T12:04:14.380Z</time>
      </trkpt>
      <trkpt lat="47.05275" lon="-1.76825">
        <ele>65.307275</ele>
        <time>2022-12-17T12:04:16.377Z</time>
      </trkpt>
      <trkpt lat="47.05263" lon="-1.76832">
        <ele>65.302789</ele>
        <time>2022-12-17T12:04:19.379Z</time>
      </trkpt>
      <trkpt lat="47.0525" lon="-1.76837">
        <ele>65.298358</ele>
        <time>2022-12-17T12:04:22.374Z</time>
      </trkpt>
      <trkpt lat="47.05241" lon="-1.76841">
        <ele>65.295332</ele>
        <time>2022-12-17T12:04:24.378Z</time>
      </trkpt>
      <trkpt lat="47.05232" lon="-1.76846">
        <ele>65.292152</ele>
        <time>2022-12-17T12:04:26.382Z</time>
      </trkpt>
      <trkpt lat="47.05223" lon="-1.7685">
        <ele>65.289017</ele>
        <time>2022-12-17T12:04:28.375Z</time>
      </trkpt>
      <trkpt lat="47.05214" lon="-1.76855">
        <ele>65.285867</ele>
        <time>2022-12-17T12:04:30.387Z</time>
      </trkpt>
      <trkpt lat="47.05205" lon="-1.76859">
        <ele>65.282655</ele>
        <time>2022-12-17T12:04:32.374Z</time>
      </trkpt>
      <trkpt lat="47.05196" lon="-1.76863">
        <ele>65.27959</ele>
        <time>2022-12-17T12:04:34.379Z</time>
      </trkpt>
      <trkpt lat="47.05186" lon="-1.76867">
        <ele>65.276322</ele>
        <time>2022-12-17T12:04:36.394Z</time>
      </trkpt>
      <trkpt lat="47.05177" lon="-1.76872">
        <ele>65.273166</ele>
        <time>2022-12-17T12:04:38.388Z</time>
      </trkpt>
      <trkpt lat="47.05168" lon="-1.76876">
        <ele>65.269985</ele>
        <time>2022-12-17T12:04:40.384Z</time>
      </trkpt>
      <trkpt lat="47.05159" lon="-1.76881">
        <ele>65.266765</ele>
        <time>2022-12-17T12:04:42.375Z</time>
      </trkpt>
      <trkpt lat="47.0515" lon="-1.76885">
        <ele>65.314171</ele>
        <time>2022-12-17T12:04:44.376Z</time>
      </trkpt>
      <trkpt lat="47.05141" lon="-1.7689">
        <ele>65.470962</ele>
        <time>2022-12-17T12:04:46.393Z</time>
      </trkpt>
      <trkpt lat="47.05128" lon="-1.76896">
        <ele>65.681549</ele>
        <time>2022-12-17T12:04:49.381Z</time>
      </trkpt>
      <trkpt lat="47.05116" lon="-1.76901">
        <ele>65.868195</ele>
        <time>2022-12-17T12:04:52.373Z</time>
      </trkpt>
      <trkpt lat="47.05105" lon="-1.76907">
        <ele>66.061995</ele>
        <time>2022-12-17T12:04:55.387Z</time>
      </trkpt>
      <trkpt lat="47.05093" lon="-1.76913">
        <ele>66.252138</ele>
        <time>2022-12-17T12:04:58.382Z</time>
      </trkpt>
      <trkpt lat="47.05081" lon="-1.76919">
        <ele>66.448876</ele>
        <time>2022-12-17T12:05:01.389Z</time>
      </trkpt>
      <trkpt lat="47.05071" lon="-1.76924">
        <ele>66.617233</ele>
        <time>2022-12-17T12:05:04.392Z</time>
      </trkpt>
      <trkpt lat="47.05062" lon="-1.76928">
        <ele>66.759385</ele>
        <time>2022-12-17T12:05:06.383Z</time>
      </trkpt>
      <trkpt lat="47.0505" lon="-1.76934">
        <ele>66.962718</ele>
        <time>2022-12-17T12:05:09.380Z</time>
      </trkpt>
      <trkpt lat="47.05037" lon="-1.76941">
        <ele>67.17189</ele>
        <time>2022-12-17T12:05:12.372Z</time>
      </trkpt>
      <trkpt lat="47.05029" lon="-1.76945">
        <ele>67.314395</ele>
        <time>2022-12-17T12:05:14.378Z</time>
      </trkpt>
      <trkpt lat="47.0502" lon="-1.7695">
        <ele>67.459497</ele>
        <time>2022-12-17T12:05:16.377Z</time>
      </trkpt>
      <trkpt lat="47.05011" lon="-1.76953">
        <ele>67.603588</ele>
        <time>2022-12-17T12:05:18.388Z</time>
      </trkpt>
      <trkpt lat="47.05003" lon="-1.76958">
        <ele>67.744672</ele>
        <time>2022-12-17T12:05:20.372Z</time>
      </trkpt>
      <trkpt lat="47.04994" lon="-1.76963">
        <ele>67.885708</ele>
        <time>2022-12-17T12:05:22.373Z</time>
      </trkpt>
      <trkpt lat="47.04981" lon="-1.76969">
        <ele>68.087892</ele>
        <time>2022-12-17T12:05:25.374Z</time>
      </trkpt>
      <trkpt lat="47.04972" lon="-1.76974">
        <ele>68.186042</ele>
        <time>2022-12-17T12:05:27.376Z</time>
      </trkpt>
      <trkpt lat="47.04964" lon="-1.76978">
        <ele>68.281279</ele>
        <time>2022-12-17T12:05:29.379Z</time>
      </trkpt>
      <trkpt lat="47.04954" lon="-1.76982">
        <ele>68.380506</ele>
        <time>2022-12-17T12:05:31.378Z</time>
      </trkpt>
      <trkpt lat="47.04945" lon="-1.76986">
        <ele>68.47772</ele>
        <time>2022-12-17T12:05:33.386Z</time>
      </trkpt>
      <trkpt lat="47.04936" lon="-1.76991">
        <ele>68.578811</ele>
        <time>2022-12-17T12:05:35.382Z</time>
      </trkpt>
      <trkpt lat="47.04927" lon="-1.76995">
        <ele>68.67526</ele>
        <time>2022-12-17T12:05:37.383Z</time>
      </trkpt>
      <trkpt lat="47.04919" lon="-1.76999">
        <ele>68.769529</ele>
        <time>2022-12-17T12:05:39.376Z</time>
      </trkpt>
      <trkpt lat="47.0491" lon="-1.77004">
        <ele>68.862874</ele>
        <time>2022-12-17T12:05:41.379Z</time>
      </trkpt>
      <trkpt lat="47.04901" lon="-1.77008">
        <ele>68.963506</ele>
        <time>2022-12-17T12:05:43.383Z</time>
      </trkpt>
      <trkpt lat="47.04891" lon="-1.77011">
        <ele>69.062045</ele>
        <time>2022-12-17T12:05:45.393Z</time>
      </trkpt>
      <trkpt lat="47.04882" lon="-1.77016">
        <ele>69.159966</ele>
        <time>2022-12-17T12:05:47.380Z</time>
      </trkpt>
      <trkpt lat="47.04873" lon="-1.77021">
        <ele>69.261004</ele>
        <time>2022-12-17T12:05:49.380Z</time>
      </trkpt>
      <trkpt lat="47.04864" lon="-1.77025">
        <ele>69.364172</ele>
        <time>2022-12-17T12:05:51.373Z</time>
      </trkpt>
      <trkpt lat="47.04854" lon="-1.77029">
        <ele>69.462414</ele>
        <time>2022-12-17T12:05:53.383Z</time>
      </trkpt>
      <trkpt lat="47.04845" lon="-1.77033">
        <ele>69.562027</ele>
        <time>2022-12-17T12:05:55.395Z</time>
      </trkpt>
      <trkpt lat="47.04836" lon="-1.77037">
        <ele>69.659724</ele>
        <time>2022-12-17T12:05:57.432Z</time>
      </trkpt>
      <trkpt lat="47.04827" lon="-1.7704">
        <ele>69.755612</ele>
        <time>2022-12-17T12:05:59.385Z</time>
      </trkpt>
      <trkpt lat="47.04818" lon="-1.77046">
        <ele>69.8574</ele>
        <time>2022-12-17T12:06:01.377Z</time>
      </trkpt>
      <trkpt lat="47.04809" lon="-1.77051">
        <ele>69.907512</ele>
        <time>2022-12-17T12:06:03.383Z</time>
      </trkpt>
      <trkpt lat="47.048" lon="-1.77056">
        <ele>69.84932</ele>
        <time>2022-12-17T12:06:05.398Z</time>
      </trkpt>
      <trkpt lat="47.04791" lon="-1.7706">
        <ele>69.796325</ele>
        <time>2022-12-17T12:06:07.374Z</time>
      </trkpt>
      <trkpt lat="47.04782" lon="-1.77065">
        <ele>69.740147</ele>
        <time>2022-12-17T12:06:09.385Z</time>
      </trkpt>
      <trkpt lat="47.04772" lon="-1.7707">
        <ele>69.6826</ele>
        <time>2022-12-17T12:06:11.385Z</time>
      </trkpt>
      <trkpt lat="47.04763" lon="-1.77074">
        <ele>69.627604</ele>
        <time>2022-12-17T12:06:13.384Z</time>
      </trkpt>
      <trkpt lat="47.04754" lon="-1.77078">
        <ele>69.573509</ele>
        <time>2022-12-17T12:06:15.375Z</time>
      </trkpt>
      <trkpt lat="47.04742" lon="-1.77085">
        <ele>69.49965</ele>
        <time>2022-12-17T12:06:18.378Z</time>
      </trkpt>
      <trkpt lat="47.04731" lon="-1.7709">
        <ele>69.430368</ele>
        <time>2022-12-17T12:06:21.373Z</time>
      </trkpt>
      <trkpt lat="47.04719" lon="-1.77096">
        <ele>69.360666</ele>
        <time>2022-12-17T12:06:24.374Z</time>
      </trkpt>
      <trkpt lat="47.04707" lon="-1.77102">
        <ele>69.2887</ele>
        <time>2022-12-17T12:06:27.383Z</time>
      </trkpt>
      <trkpt lat="47.04695" lon="-1.77108">
        <ele>69.21638</ele>
        <time>2022-12-17T12:06:30.382Z</time>
      </trkpt>
      <trkpt lat="47.04684" lon="-1.77114">
        <ele>69.14449</ele>
        <time>2022-12-17T12:06:33.392Z</time>
      </trkpt>
      <trkpt lat="47.04671" lon="-1.77119">
        <ele>69.070837</ele>
        <time>2022-12-17T12:06:36.382Z</time>
      </trkpt>
      <trkpt lat="47.04659" lon="-1.77125">
        <ele>68.996396</ele>
        <time>2022-12-17T12:06:39.395Z</time>
      </trkpt>
      <trkpt lat="47.04647" lon="-1.77131">
        <ele>68.924263</ele>
        <time>2022-12-17T12:06:42.375Z</time>
      </trkpt>
      <trkpt lat="47.04636" lon="-1.77136">
        <ele>68.960133</ele>
        <time>2022-12-17T12:06:45.388Z</time>
      </trkpt>
      <trkpt lat="47.04624" lon="-1.77142">
        <ele>69.097582</ele>
        <time>2022-12-17T12:06:48.378Z</time>
      </trkpt>
      <trkpt lat="47.04613" lon="-1.77147">
        <ele>69.240477</ele>
        <time>2022-12-17T12:06:51.381Z</time>
      </trkpt>
      <trkpt lat="47.04601" lon="-1.77153">
        <ele>69.387489</ele>
        <time>2022-12-17T12:06:54.388Z</time>
      </trkpt>
      <trkpt lat="47.04589" lon="-1.77158">
        <ele>69.532183</ele>
        <time>2022-12-17T12:06:57.381Z</time>
      </trkpt>
      <trkpt lat="47.04576" lon="-1.77165">
        <ele>69.683259</ele>
        <time>2022-12-17T12:07:00.385Z</time>
      </trkpt>
      <trkpt lat="47.04564" lon="-1.77171">
        <ele>69.83514</ele>
        <time>2022-12-17T12:07:03.380Z</time>
      </trkpt>
      <trkpt lat="47.04552" lon="-1.77179">
        <ele>69.987416</ele>
        <time>2022-12-17T12:07:06.381Z</time>
      </trkpt>
      <trkpt lat="47.0454" lon="-1.77186">
        <ele>70.135729</ele>
        <time>2022-12-17T12:07:09.384Z</time>
      </trkpt>
      <trkpt lat="47.04529" lon="-1.77194">
        <ele>70.279036</ele>
        <time>2022-12-17T12:07:12.371Z</time>
      </trkpt>
      <trkpt lat="47.04518" lon="-1.77202">
        <ele>70.420609</ele>
        <time>2022-12-17T12:07:15.384Z</time>
      </trkpt>
      <trkpt lat="47.04507" lon="-1.7721">
        <ele>70.563949</ele>
        <time>2022-12-17T12:07:18.377Z</time>
      </trkpt>
      <trkpt lat="47.04496" lon="-1.77217">
        <ele>70.705522</ele>
        <time>2022-12-17T12:07:21.385Z</time>
      </trkpt>
      <trkpt lat="47.04486" lon="-1.77225">
        <ele>70.836706</ele>
        <time>2022-12-17T12:07:24.385Z</time>
      </trkpt>
      <trkpt lat="47.04476" lon="-1.77232">
        <ele>70.969235</ele>
        <time>2022-12-17T12:07:27.390Z</time>
      </trkpt>
      <trkpt lat="47.04465" lon="-1.7724">
        <ele>71.087511</ele>
        <time>2022-12-17T12:07:30.372Z</time>
      </trkpt>
      <trkpt lat="47.04454" lon="-1.77247">
        <ele>71.207485</ele>
        <time>2022-12-17T12:07:33.379Z</time>
      </trkpt>
      <trkpt lat="47.04443" lon="-1.77255">
        <ele>71.324217</ele>
        <time>2022-12-17T12:07:36.378Z</time>
      </trkpt>
      <trkpt lat="47.04432" lon="-1.77262">
        <ele>71.446583</ele>
        <time>2022-12-17T12:07:39.386Z</time>
      </trkpt>
      <trkpt lat="47.04421" lon="-1.7727">
        <ele>71.564496</ele>
        <time>2022-12-17T12:07:42.373Z</time>
      </trkpt>
      <trkpt lat="47.04411" lon="-1.77278">
        <ele>71.680653</ele>
        <time>2022-12-17T12:07:45.382Z</time>
      </trkpt>
      <trkpt lat="47.044" lon="-1.77286">
        <ele>71.802125</ele>
        <time>2022-12-17T12:07:48.374Z</time>
      </trkpt>
      <trkpt lat="47.04388" lon="-1.77294">
        <ele>71.929185</ele>
        <time>2022-12-17T12:07:51.386Z</time>
      </trkpt>
      <trkpt lat="47.04377" lon="-1.77302">
        <ele>72.047134</ele>
        <time>2022-12-17T12:07:54.386Z</time>
      </trkpt>
      <trkpt lat="47.04367" lon="-1.77309">
        <ele>72.156525</ele>
        <time>2022-12-17T12:07:57.387Z</time>
      </trkpt>
      <trkpt lat="47.04357" lon="-1.77316">
        <ele>72.272369</ele>
        <time>2022-12-17T12:08:00.391Z</time>
      </trkpt>
      <trkpt lat="47.04346" lon="-1.77324">
        <ele>72.391464</ele>
        <time>2022-12-17T12:08:03.385Z</time>
      </trkpt>
      <trkpt lat="47.04334" lon="-1.77332">
        <ele>72.514725</ele>
        <time>2022-12-17T12:08:06.382Z</time>
      </trkpt>
      <trkpt lat="47.04323" lon="-1.7734">
        <ele>72.642364</ele>
        <time>2022-12-17T12:08:09.380Z</time>
      </trkpt>
      <trkpt lat="47.04311" lon="-1.77349">
        <ele>72.725616</ele>
        <time>2022-12-17T12:08:12.375Z</time>
      </trkpt>
      <trkpt lat="47.04299" lon="-1.77357">
        <ele>72.594768</ele>
        <time>2022-12-17T12:08:15.377Z</time>
      </trkpt>
      <trkpt lat="47.04291" lon="-1.77363">
        <ele>72.501001</ele>
        <time>2022-12-17T12:08:17.381Z</time>
      </trkpt>
      <trkpt lat="47.04282" lon="-1.77369">
        <ele>72.403869</ele>
        <time>2022-12-17T12:08:19.380Z</time>
      </trkpt>
      <trkpt lat="47.04274" lon="-1.77375">
        <ele>72.309804</ele>
        <time>2022-12-17T12:08:21.376Z</time>
      </trkpt>
      <trkpt lat="47.04265" lon="-1.7738">
        <ele>72.219465</ele>
        <time>2022-12-17T12:08:23.376Z</time>
      </trkpt>
      <trkpt lat="47.04256" lon="-1.77385">
        <ele>72.123688</ele>
        <time>2022-12-17T12:08:25.386Z</time>
      </trkpt>
      <trkpt lat="47.04248" lon="-1.77391">
        <ele>72.032329</ele>
        <time>2022-12-17T12:08:27.391Z</time>
      </trkpt>
      <trkpt lat="47.0424" lon="-1.77397">
        <ele>71.940256</ele>
        <time>2022-12-17T12:08:29.392Z</time>
      </trkpt>
      <trkpt lat="47.04229" lon="-1.77405">
        <ele>71.813544</ele>
        <time>2022-12-17T12:08:32.372Z</time>
      </trkpt>
      <trkpt lat="47.04221" lon="-1.77411">
        <ele>71.721889</ele>
        <time>2022-12-17T12:08:34.390Z</time>
      </trkpt>
      <trkpt lat="47.04212" lon="-1.77417">
        <ele>71.629935</ele>
        <time>2022-12-17T12:08:36.370Z</time>
      </trkpt>
      <trkpt lat="47.04204" lon="-1.77423">
        <ele>71.535208</ele>
        <time>2022-12-17T12:08:38.397Z</time>
      </trkpt>
      <trkpt lat="47.04196" lon="-1.77429">
        <ele>71.443511</ele>
        <time>2022-12-17T12:08:40.388Z</time>
      </trkpt>
      <trkpt lat="47.04187" lon="-1.77435">
        <ele>71.349446</ele>
        <time>2022-12-17T12:08:42.372Z</time>
      </trkpt>
      <trkpt lat="47.04179" lon="-1.7744">
        <ele>71.254711</ele>
        <time>2022-12-17T12:08:44.385Z</time>
      </trkpt>
      <trkpt lat="47.0417" lon="-1.77446">
        <ele>71.156379</ele>
        <time>2022-12-17T12:08:46.385Z</time>
      </trkpt>
      <trkpt lat="47.04162" lon="-1.77452">
        <ele>71.063764</ele>
        <time>2022-12-17T12:08:48.379Z</time>
      </trkpt>
      <trkpt lat="47.04153" lon="-1.77457">
        <ele>70.969846</ele>
        <time>2022-12-17T12:08:50.398Z</time>
      </trkpt>
      <trkpt lat="47.04145" lon="-1.77463">
        <ele>70.876588</ele>
        <time>2022-12-17T12:08:52.380Z</time>
      </trkpt>
      <trkpt lat="47.04136" lon="-1.77468">
        <ele>70.781243</ele>
        <time>2022-12-17T12:08:54.374Z</time>
      </trkpt>
      <trkpt lat="47.04124" lon="-1.77476">
        <ele>70.649866</ele>
        <time>2022-12-17T12:08:57.376Z</time>
      </trkpt>
      <trkpt lat="47.04114" lon="-1.77483">
        <ele>70.532724</ele>
        <time>2022-12-17T12:09:00.373Z</time>
      </trkpt>
      <trkpt lat="47.04105" lon="-1.77491">
        <ele>70.425736</ele>
        <time>2022-12-17T12:09:03.388Z</time>
      </trkpt>
      <trkpt lat="47.04095" lon="-1.77499">
        <ele>70.311866</ele>
        <time>2022-12-17T12:09:06.381Z</time>
      </trkpt>
      <trkpt lat="47.04083" lon="-1.77505">
        <ele>70.18836</ele>
        <time>2022-12-17T12:09:09.379Z</time>
      </trkpt>
      <trkpt lat="47.04071" lon="-1.77513">
        <ele>70.05387</ele>
        <time>2022-12-17T12:09:12.373Z</time>
      </trkpt>
      <trkpt lat="47.04063" lon="-1.7752">
        <ele>69.958855</ele>
        <time>2022-12-17T12:09:14.382Z</time>
      </trkpt>
      <trkpt lat="47.04054" lon="-1.77526">
        <ele>69.858101</ele>
        <time>2022-12-17T12:09:16.374Z</time>
      </trkpt>
      <trkpt lat="47.04045" lon="-1.77532">
        <ele>69.757664</ele>
        <time>2022-12-17T12:09:18.367Z</time>
      </trkpt>
      <trkpt lat="47.04036" lon="-1.77539">
        <ele>69.654781</ele>
        <time>2022-12-17T12:09:20.394Z</time>
      </trkpt>
      <trkpt lat="47.04027" lon="-1.77545">
        <ele>69.558577</ele>
        <time>2022-12-17T12:09:22.374Z</time>
      </trkpt>
      <trkpt lat="47.04017" lon="-1.77552">
        <ele>69.448126</ele>
        <time>2022-12-17T12:09:24.395Z</time>
      </trkpt>
      <trkpt lat="47.04007" lon="-1.77559">
        <ele>69.328838</ele>
        <time>2022-12-17T12:09:26.395Z</time>
      </trkpt>
      <trkpt lat="47.03997" lon="-1.77567">
        <ele>69.212528</ele>
        <time>2022-12-17T12:09:28.382Z</time>
      </trkpt>
      <trkpt lat="47.03986" lon="-1.77574">
        <ele>69.074184</ele>
        <time>2022-12-17T12:09:30.380Z</time>
      </trkpt>
      <trkpt lat="47.03976" lon="-1.77582">
        <ele>68.850978</ele>
        <time>2022-12-17T12:09:32.370Z</time>
      </trkpt>
      <trkpt lat="47.03965" lon="-1.77589">
        <ele>68.629606</ele>
        <time>2022-12-17T12:09:34.377Z</time>
      </trkpt>
      <trkpt lat="47.03954" lon="-1.77596">
        <ele>68.400752</ele>
        <time>2022-12-17T12:09:36.386Z</time>
      </trkpt>
      <trkpt lat="47.03943" lon="-1.77604">
        <ele>68.166832</ele>
        <time>2022-12-17T12:09:38.404Z</time>
      </trkpt>
      <trkpt lat="47.03932" lon="-1.77612">
        <ele>67.934047</ele>
        <time>2022-12-17T12:09:40.394Z</time>
      </trkpt>
      <trkpt lat="47.0392" lon="-1.7762">
        <ele>67.679475</ele>
        <time>2022-12-17T12:09:42.375Z</time>
      </trkpt>
      <trkpt lat="47.03908" lon="-1.77629">
        <ele>67.422656</ele>
        <time>2022-12-17T12:09:44.383Z</time>
      </trkpt>
      <trkpt lat="47.03896" lon="-1.77639">
        <ele>67.152569</ele>
        <time>2022-12-17T12:09:46.388Z</time>
      </trkpt>
      <trkpt lat="47.03883" lon="-1.77648">
        <ele>66.886034</ele>
        <time>2022-12-17T12:09:48.390Z</time>
      </trkpt>
      <trkpt lat="47.03871" lon="-1.77656">
        <ele>66.624506</ele>
        <time>2022-12-17T12:09:50.392Z</time>
      </trkpt>
      <trkpt lat="47.03858" lon="-1.77664">
        <ele>66.360702</ele>
        <time>2022-12-17T12:09:52.391Z</time>
      </trkpt>
      <trkpt lat="47.03846" lon="-1.77673">
        <ele>66.100459</ele>
        <time>2022-12-17T12:09:54.382Z</time>
      </trkpt>
      <trkpt lat="47.03833" lon="-1.77681">
        <ele>65.831937</ele>
        <time>2022-12-17T12:09:56.384Z</time>
      </trkpt>
      <trkpt lat="47.03821" lon="-1.77689">
        <ele>65.664374</ele>
        <time>2022-12-17T12:09:58.383Z</time>
      </trkpt>
      <trkpt lat="47.03809" lon="-1.77697">
        <ele>65.627917</ele>
        <time>2022-12-17T12:10:00.388Z</time>
      </trkpt>
      <trkpt lat="47.03798" lon="-1.77706">
        <ele>65.591415</ele>
        <time>2022-12-17T12:10:02.376Z</time>
      </trkpt>
      <trkpt lat="47.03787" lon="-1.77714">
        <ele>65.554456</ele>
        <time>2022-12-17T12:10:04.390Z</time>
      </trkpt>
      <trkpt lat="47.03776" lon="-1.77722">
        <ele>65.520008</ele>
        <time>2022-12-17T12:10:06.395Z</time>
      </trkpt>
      <trkpt lat="47.03765" lon="-1.7773">
        <ele>65.485559</ele>
        <time>2022-12-17T12:10:08.379Z</time>
      </trkpt>
      <trkpt lat="47.03755" lon="-1.77737">
        <ele>65.452319</ele>
        <time>2022-12-17T12:10:10.375Z</time>
      </trkpt>
      <trkpt lat="47.03745" lon="-1.77742">
        <ele>65.423261</ele>
        <time>2022-12-17T12:10:12.374Z</time>
      </trkpt>
      <trkpt lat="47.03736" lon="-1.77749">
        <ele>65.392863</ele>
        <time>2022-12-17T12:10:14.397Z</time>
      </trkpt>
      <trkpt lat="47.03726" lon="-1.77756">
        <ele>65.36073</ele>
        <time>2022-12-17T12:10:16.396Z</time>
      </trkpt>
      <trkpt lat="47.03716" lon="-1.77764">
        <ele>65.328791</ele>
        <time>2022-12-17T12:10:18.375Z</time>
      </trkpt>
      <trkpt lat="47.03706" lon="-1.77772">
        <ele>65.295451</ele>
        <time>2022-12-17T12:10:20.381Z</time>
      </trkpt>
      <trkpt lat="47.03695" lon="-1.77779">
        <ele>65.261608</ele>
        <time>2022-12-17T12:10:22.371Z</time>
      </trkpt>
      <trkpt lat="47.03685" lon="-1.77786">
        <ele>65.228697</ele>
        <time>2022-12-17T12:10:24.392Z</time>
      </trkpt>
      <trkpt lat="47.03674" lon="-1.77793">
        <ele>65.194243</ele>
        <time>2022-12-17T12:10:26.397Z</time>
      </trkpt>
      <trkpt lat="47.03663" lon="-1.77802">
        <ele>65.152886</ele>
        <time>2022-12-17T12:10:28.388Z</time>
      </trkpt>
      <trkpt lat="47.03652" lon="-1.7781">
        <ele>65.041057</ele>
        <time>2022-12-17T12:10:30.380Z</time>
      </trkpt>
      <trkpt lat="47.0364" lon="-1.77818">
        <ele>64.928679</ele>
        <time>2022-12-17T12:10:32.381Z</time>
      </trkpt>
      <trkpt lat="47.03628" lon="-1.77826">
        <ele>64.812114</ele>
        <time>2022-12-17T12:10:34.399Z</time>
      </trkpt>
      <trkpt lat="47.03617" lon="-1.77835">
        <ele>64.699615</ele>
        <time>2022-12-17T12:10:36.389Z</time>
      </trkpt>
      <trkpt lat="47.03606" lon="-1.77843">
        <ele>64.590133</ele>
        <time>2022-12-17T12:10:38.389Z</time>
      </trkpt>
      <trkpt lat="47.03594" lon="-1.77851">
        <ele>64.480143</ele>
        <time>2022-12-17T12:10:40.396Z</time>
      </trkpt>
      <trkpt lat="47.03583" lon="-1.77859">
        <ele>64.37226</ele>
        <time>2022-12-17T12:10:42.375Z</time>
      </trkpt>
      <trkpt lat="47.03573" lon="-1.77866">
        <ele>64.273011</ele>
        <time>2022-12-17T12:10:44.378Z</time>
      </trkpt>
      <trkpt lat="47.03563" lon="-1.77874">
        <ele>64.17321</ele>
        <time>2022-12-17T12:10:46.387Z</time>
      </trkpt>
      <trkpt lat="47.03554" lon="-1.77881">
        <ele>64.078975</ele>
        <time>2022-12-17T12:10:48.386Z</time>
      </trkpt>
      <trkpt lat="47.03545" lon="-1.77889">
        <ele>63.987551</ele>
        <time>2022-12-17T12:10:50.389Z</time>
      </trkpt>
      <trkpt lat="47.03536" lon="-1.77896">
        <ele>63.897953</ele>
        <time>2022-12-17T12:10:52.378Z</time>
      </trkpt>
      <trkpt lat="47.03526" lon="-1.77904">
        <ele>63.805178</ele>
        <time>2022-12-17T12:10:54.377Z</time>
      </trkpt>
      <trkpt lat="47.03518" lon="-1.77911">
        <ele>63.716204</ele>
        <time>2022-12-17T12:10:56.390Z</time>
      </trkpt>
      <trkpt lat="47.03509" lon="-1.77919">
        <ele>63.626475</ele>
        <time>2022-12-17T12:10:58.395Z</time>
      </trkpt>
      <trkpt lat="47.03501" lon="-1.77927">
        <ele>63.544956</ele>
        <time>2022-12-17T12:11:00.394Z</time>
      </trkpt>
      <trkpt lat="47.03492" lon="-1.77937">
        <ele>63.464408</ele>
        <time>2022-12-17T12:11:02.376Z</time>
      </trkpt>
      <trkpt lat="47.03483" lon="-1.77946">
        <ele>63.381443</ele>
        <time>2022-12-17T12:11:04.380Z</time>
      </trkpt>
      <trkpt lat="47.03473" lon="-1.77956">
        <ele>63.297636</ele>
        <time>2022-12-17T12:11:06.391Z</time>
      </trkpt>
      <trkpt lat="47.03463" lon="-1.77966">
        <ele>63.207061</ele>
        <time>2022-12-17T12:11:08.404Z</time>
      </trkpt>
      <trkpt lat="47.03453" lon="-1.77975">
        <ele>63.119427</ele>
        <time>2022-12-17T12:11:10.381Z</time>
      </trkpt>
      <trkpt lat="47.03443" lon="-1.77985">
        <ele>63.027823</ele>
        <time>2022-12-17T12:11:12.374Z</time>
      </trkpt>
      <trkpt lat="47.03432" lon="-1.77994">
        <ele>62.937779</ele>
        <time>2022-12-17T12:11:14.395Z</time>
      </trkpt>
      <trkpt lat="47.03421" lon="-1.78005">
        <ele>62.842206</ele>
        <time>2022-12-17T12:11:16.403Z</time>
      </trkpt>
      <trkpt lat="47.03411" lon="-1.78014">
        <ele>62.75409</ele>
        <time>2022-12-17T12:11:18.390Z</time>
      </trkpt>
      <trkpt lat="47.03401" lon="-1.78024">
        <ele>62.663659</ele>
        <time>2022-12-17T12:11:20.385Z</time>
      </trkpt>
      <trkpt lat="47.0339" lon="-1.78033">
        <ele>62.571851</ele>
        <time>2022-12-17T12:11:22.377Z</time>
      </trkpt>
      <trkpt lat="47.0338" lon="-1.78043">
        <ele>62.481801</ele>
        <time>2022-12-17T12:11:24.379Z</time>
      </trkpt>
      <trkpt lat="47.0337" lon="-1.78053">
        <ele>62.390415</ele>
        <time>2022-12-17T12:11:26.383Z</time>
      </trkpt>
      <trkpt lat="47.03359" lon="-1.78063">
        <ele>62.297787</ele>
        <time>2022-12-17T12:11:28.385Z</time>
      </trkpt>
      <trkpt lat="47.03348" lon="-1.78073">
        <ele>62.199728</ele>
        <time>2022-12-17T12:11:30.384Z</time>
      </trkpt>
      <trkpt lat="47.03337" lon="-1.78084">
        <ele>62.09901</ele>
        <time>2022-12-17T12:11:32.373Z</time>
      </trkpt>
      <trkpt lat="47.03326" lon="-1.78094">
        <ele>61.99774</ele>
        <time>2022-12-17T12:11:34.377Z</time>
      </trkpt>
      <trkpt lat="47.03315" lon="-1.78104">
        <ele>61.897667</ele>
        <time>2022-12-17T12:11:36.390Z</time>
      </trkpt>
      <trkpt lat="47.03305" lon="-1.78115">
        <ele>61.798618</ele>
        <time>2022-12-17T12:11:38.388Z</time>
      </trkpt>
      <trkpt lat="47.03294" lon="-1.78124">
        <ele>61.702948</ele>
        <time>2022-12-17T12:11:40.381Z</time>
      </trkpt>
      <trkpt lat="47.03284" lon="-1.78134">
        <ele>61.609345</ele>
        <time>2022-12-17T12:11:42.375Z</time>
      </trkpt>
      <trkpt lat="47.03274" lon="-1.78144">
        <ele>61.515741</ele>
        <time>2022-12-17T12:11:44.382Z</time>
      </trkpt>
      <trkpt lat="47.03264" lon="-1.78154">
        <ele>61.418863</ele>
        <time>2022-12-17T12:11:46.375Z</time>
      </trkpt>
      <trkpt lat="47.03254" lon="-1.78165">
        <ele>61.324506</ele>
        <time>2022-12-17T12:11:48.389Z</time>
      </trkpt>
      <trkpt lat="47.03244" lon="-1.78172">
        <ele>61.240418</ele>
        <time>2022-12-17T12:11:50.372Z</time>
      </trkpt>
      <trkpt lat="47.03235" lon="-1.78182">
        <ele>61.152495</ele>
        <time>2022-12-17T12:11:52.374Z</time>
      </trkpt>
      <trkpt lat="47.03226" lon="-1.7819">
        <ele>61.07018</ele>
        <time>2022-12-17T12:11:54.381Z</time>
      </trkpt>
      <trkpt lat="47.03217" lon="-1.78199">
        <ele>60.990668</ele>
        <time>2022-12-17T12:11:56.392Z</time>
      </trkpt>
      <trkpt lat="47.03209" lon="-1.78207">
        <ele>60.911801</ele>
        <time>2022-12-17T12:11:58.389Z</time>
      </trkpt>
      <trkpt lat="47.032" lon="-1.78215">
        <ele>60.818216</ele>
        <time>2022-12-17T12:12:00.391Z</time>
      </trkpt>
      <trkpt lat="47.03192" lon="-1.78223">
        <ele>60.729478</ele>
        <time>2022-12-17T12:12:02.376Z</time>
      </trkpt>
      <trkpt lat="47.03183" lon="-1.7823">
        <ele>60.628981</ele>
        <time>2022-12-17T12:12:04.391Z</time>
      </trkpt>
      <trkpt lat="47.03175" lon="-1.78239">
        <ele>60.5343</ele>
        <time>2022-12-17T12:12:06.388Z</time>
      </trkpt>
      <trkpt lat="47.03164" lon="-1.78249">
        <ele>60.402775</ele>
        <time>2022-12-17T12:12:09.387Z</time>
      </trkpt>
      <trkpt lat="47.03156" lon="-1.78256">
        <ele>60.31079</ele>
        <time>2022-12-17T12:12:11.380Z</time>
      </trkpt>
      <trkpt lat="47.03148" lon="-1.78264">
        <ele>60.219174</ele>
        <time>2022-12-17T12:12:13.395Z</time>
      </trkpt>
      <trkpt lat="47.0314" lon="-1.78271">
        <ele>60.12781</ele>
        <time>2022-12-17T12:12:15.382Z</time>
      </trkpt>
      <trkpt lat="47.03133" lon="-1.78278">
        <ele>60.036798</ele>
        <time>2022-12-17T12:12:17.386Z</time>
      </trkpt>
      <trkpt lat="47.03125" lon="-1.78286">
        <ele>59.947559</ele>
        <time>2022-12-17T12:12:19.372Z</time>
      </trkpt>
      <trkpt lat="47.03117" lon="-1.78293">
        <ele>59.854652</ele>
        <time>2022-12-17T12:12:21.392Z</time>
      </trkpt>
      <trkpt lat="47.03106" lon="-1.78303">
        <ele>59.73038</ele>
        <time>2022-12-17T12:12:24.383Z</time>
      </trkpt>
      <trkpt lat="47.03095" lon="-1.78314">
        <ele>59.599979</ele>
        <time>2022-12-17T12:12:27.376Z</time>
      </trkpt>
      <trkpt lat="47.03084" lon="-1.78324">
        <ele>59.47416</ele>
        <time>2022-12-17T12:12:30.372Z</time>
      </trkpt>
      <trkpt lat="47.03074" lon="-1.78334">
        <ele>59.351326</ele>
        <time>2022-12-17T12:12:33.379Z</time>
      </trkpt>
      <trkpt lat="47.03063" lon="-1.78345">
        <ele>59.223594</ele>
        <time>2022-12-17T12:12:36.397Z</time>
      </trkpt>
      <trkpt lat="47.03056" lon="-1.78352">
        <ele>59.134956</ele>
        <time>2022-12-17T12:12:38.388Z</time>
      </trkpt>
      <trkpt lat="47.03047" lon="-1.7836">
        <ele>58.867517</ele>
        <time>2022-12-17T12:12:40.402Z</time>
      </trkpt>
      <trkpt lat="47.03039" lon="-1.78368">
        <ele>58.519948</ele>
        <time>2022-12-17T12:12:42.374Z</time>
      </trkpt>
      <trkpt lat="47.0303" lon="-1.78376">
        <ele>58.167422</ele>
        <time>2022-12-17T12:12:44.398Z</time>
      </trkpt>
      <trkpt lat="47.0302" lon="-1.78384">
        <ele>57.750004</ele>
        <time>2022-12-17T12:12:46.387Z</time>
      </trkpt>
      <trkpt lat="47.03009" lon="-1.78394">
        <ele>57.319363</ele>
        <time>2022-12-17T12:12:48.381Z</time>
      </trkpt>
      <trkpt lat="47.03" lon="-1.78405">
        <ele>56.901605</ele>
        <time>2022-12-17T12:12:50.385Z</time>
      </trkpt>
      <trkpt lat="47.02989" lon="-1.78416">
        <ele>56.441428</ele>
        <time>2022-12-17T12:12:52.372Z</time>
      </trkpt>
      <trkpt lat="47.02977" lon="-1.78426">
        <ele>55.965681</ele>
        <time>2022-12-17T12:12:54.397Z</time>
      </trkpt>
      <trkpt lat="47.02965" lon="-1.78438">
        <ele>55.463312</ele>
        <time>2022-12-17T12:12:56.404Z</time>
      </trkpt>
      <trkpt lat="47.02953" lon="-1.7845">
        <ele>54.946332</ele>
        <time>2022-12-17T12:12:58.375Z</time>
      </trkpt>
      <trkpt lat="47.02941" lon="-1.78461">
        <ele>54.450441</ele>
        <time>2022-12-17T12:13:00.372Z</time>
      </trkpt>
      <trkpt lat="47.02928" lon="-1.78474">
        <ele>53.918771</ele>
        <time>2022-12-17T12:13:02.375Z</time>
      </trkpt>
      <trkpt lat="47.02915" lon="-1.78485">
        <ele>53.390704</ele>
        <time>2022-12-17T12:13:04.371Z</time>
      </trkpt>
      <trkpt lat="47.02903" lon="-1.78498">
        <ele>52.852316</ele>
        <time>2022-12-17T12:13:06.376Z</time>
      </trkpt>
      <trkpt lat="47.0289" lon="-1.78511">
        <ele>52.756041</ele>
        <time>2022-12-17T12:13:08.383Z</time>
      </trkpt>
      <trkpt lat="47.02877" lon="-1.78523">
        <ele>52.684619</ele>
        <time>2022-12-17T12:13:10.380Z</time>
      </trkpt>
      <trkpt lat="47.02863" lon="-1.78536">
        <ele>52.606843</ele>
        <time>2022-12-17T12:13:12.374Z</time>
      </trkpt>
      <trkpt lat="47.0285" lon="-1.78548">
        <ele>52.533661</ele>
        <time>2022-12-17T12:13:14.379Z</time>
      </trkpt>
      <trkpt lat="47.02836" lon="-1.7856">
        <ele>52.456701</ele>
        <time>2022-12-17T12:13:16.378Z</time>
      </trkpt>
      <trkpt lat="47.02822" lon="-1.78571">
        <ele>52.381604</ele>
        <time>2022-12-17T12:13:18.373Z</time>
      </trkpt>
      <trkpt lat="47.02807" lon="-1.78582">
        <ele>52.302597</ele>
        <time>2022-12-17T12:13:20.373Z</time>
      </trkpt>
      <trkpt lat="47.02792" lon="-1.78592">
        <ele>52.22476</ele>
        <time>2022-12-17T12:13:22.373Z</time>
      </trkpt>
      <trkpt lat="47.02778" lon="-1.78601">
        <ele>52.149435</ele>
        <time>2022-12-17T12:13:24.403Z</time>
      </trkpt>
      <trkpt lat="47.02765" lon="-1.7861">
        <ele>52.082507</ele>
        <time>2022-12-17T12:13:26.384Z</time>
      </trkpt>
      <trkpt lat="47.02752" lon="-1.78619">
        <ele>52.014272</ele>
        <time>2022-12-17T12:13:28.369Z</time>
      </trkpt>
      <trkpt lat="47.0274" lon="-1.78627">
        <ele>51.980814</ele>
        <time>2022-12-17T12:13:30.383Z</time>
      </trkpt>
      <trkpt lat="47.02729" lon="-1.78634">
        <ele>52.003737</ele>
        <time>2022-12-17T12:13:32.371Z</time>
      </trkpt>
      <trkpt lat="47.02719" lon="-1.7864">
        <ele>52.024501</ele>
        <time>2022-12-17T12:13:34.371Z</time>
      </trkpt>
      <trkpt lat="47.02709" lon="-1.78646">
        <ele>52.044348</ele>
        <time>2022-12-17T12:13:36.371Z</time>
      </trkpt>
      <trkpt lat="47.02699" lon="-1.78652">
        <ele>52.065204</ele>
        <time>2022-12-17T12:13:38.392Z</time>
      </trkpt>
      <trkpt lat="47.0269" lon="-1.78659">
        <ele>52.084093</ele>
        <time>2022-12-17T12:13:40.388Z</time>
      </trkpt>
      <trkpt lat="47.0268" lon="-1.78666">
        <ele>52.103652</ele>
        <time>2022-12-17T12:13:42.372Z</time>
      </trkpt>
      <trkpt lat="47.02671" lon="-1.78671">
        <ele>52.121567</ele>
        <time>2022-12-17T12:13:44.391Z</time>
      </trkpt>
      <trkpt lat="47.02663" lon="-1.78676">
        <ele>52.138839</ele>
        <time>2022-12-17T12:13:46.381Z</time>
      </trkpt>
      <trkpt lat="47.02654" lon="-1.78682">
        <ele>52.157158</ele>
        <time>2022-12-17T12:13:48.387Z</time>
      </trkpt>
      <trkpt lat="47.02645" lon="-1.78688">
        <ele>52.176159</ele>
        <time>2022-12-17T12:13:50.378Z</time>
      </trkpt>
      <trkpt lat="47.02632" lon="-1.78697">
        <ele>52.20181</ele>
        <time>2022-12-17T12:13:53.391Z</time>
      </trkpt>
      <trkpt lat="47.02623" lon="-1.78704">
        <ele>52.220652</ele>
        <time>2022-12-17T12:13:55.375Z</time>
      </trkpt>
      <trkpt lat="47.02615" lon="-1.78709">
        <ele>52.238316</ele>
        <time>2022-12-17T12:13:57.380Z</time>
      </trkpt>
      <trkpt lat="47.02602" lon="-1.78717">
        <ele>52.263425</ele>
        <time>2022-12-17T12:14:00.395Z</time>
      </trkpt>
      <trkpt lat="47.02594" lon="-1.78722">
        <ele>52.280158</ele>
        <time>2022-12-17T12:14:02.374Z</time>
      </trkpt>
      <trkpt lat="47.02582" lon="-1.78731">
        <ele>52.304413</ele>
        <time>2022-12-17T12:14:05.400Z</time>
      </trkpt>
      <trkpt lat="47.0257" lon="-1.78738">
        <ele>52.239721</ele>
        <time>2022-12-17T12:14:08.400Z</time>
      </trkpt>
      <trkpt lat="47.02559" lon="-1.78745">
        <ele>52.156454</ele>
        <time>2022-12-17T12:14:11.387Z</time>
      </trkpt>
      <trkpt lat="47.02546" lon="-1.78752">
        <ele>52.068942</ele>
        <time>2022-12-17T12:14:14.380Z</time>
      </trkpt>
      <trkpt lat="47.02538" lon="-1.78759">
        <ele>52.006361</ele>
        <time>2022-12-17T12:14:16.384Z</time>
      </trkpt>
      <trkpt lat="47.02529" lon="-1.78765">
        <ele>51.946339</ele>
        <time>2022-12-17T12:14:18.386Z</time>
      </trkpt>
      <trkpt lat="47.02521" lon="-1.7877">
        <ele>51.886213</ele>
        <time>2022-12-17T12:14:20.379Z</time>
      </trkpt>
      <trkpt lat="47.02511" lon="-1.78775">
        <ele>51.821076</ele>
        <time>2022-12-17T12:14:22.375Z</time>
      </trkpt>
      <trkpt lat="47.025" lon="-1.78782">
        <ele>51.737293</ele>
        <time>2022-12-17T12:14:25.386Z</time>
      </trkpt>
      <trkpt lat="47.02488" lon="-1.78791">
        <ele>51.654133</ele>
        <time>2022-12-17T12:14:28.383Z</time>
      </trkpt>
      <trkpt lat="47.02477" lon="-1.78799">
        <ele>51.570449</ele>
        <time>2022-12-17T12:14:31.373Z</time>
      </trkpt>
      <trkpt lat="47.02468" lon="-1.78804">
        <ele>51.509765</ele>
        <time>2022-12-17T12:14:33.379Z</time>
      </trkpt>
      <trkpt lat="47.0246" lon="-1.7881">
        <ele>51.448962</ele>
        <time>2022-12-17T12:14:35.394Z</time>
      </trkpt>
      <trkpt lat="47.02452" lon="-1.78816">
        <ele>51.389334</ele>
        <time>2022-12-17T12:14:37.372Z</time>
      </trkpt>
      <trkpt lat="47.02439" lon="-1.78824">
        <ele>51.30227</ele>
        <time>2022-12-17T12:14:40.409Z</time>
      </trkpt>
      <trkpt lat="47.02431" lon="-1.78829">
        <ele>51.24102</ele>
        <time>2022-12-17T12:14:42.375Z</time>
      </trkpt>
      <trkpt lat="47.02422" lon="-1.78835">
        <ele>51.17863</ele>
        <time>2022-12-17T12:14:44.382Z</time>
      </trkpt>
      <trkpt lat="47.02414" lon="-1.7884">
        <ele>51.106727</ele>
        <time>2022-12-17T12:14:46.391Z</time>
      </trkpt>
      <trkpt lat="47.02403" lon="-1.78847">
        <ele>50.96158</ele>
        <time>2022-12-17T12:14:49.387Z</time>
      </trkpt>
      <trkpt lat="47.02393" lon="-1.78854">
        <ele>50.827958</ele>
        <time>2022-12-17T12:14:52.376Z</time>
      </trkpt>
      <trkpt lat="47.02382" lon="-1.78861">
        <ele>50.682175</ele>
        <time>2022-12-17T12:14:55.372Z</time>
      </trkpt>
      <trkpt lat="47.02371" lon="-1.78868">
        <ele>50.53906</ele>
        <time>2022-12-17T12:14:58.389Z</time>
      </trkpt>
      <trkpt lat="47.02359" lon="-1.78876">
        <ele>50.379099</ele>
        <time>2022-12-17T12:15:01.383Z</time>
      </trkpt>
      <trkpt lat="47.0235" lon="-1.78881">
        <ele>50.268195</ele>
        <time>2022-12-17T12:15:03.394Z</time>
      </trkpt>
      <trkpt lat="47.02338" lon="-1.7889">
        <ele>50.107408</ele>
        <time>2022-12-17T12:15:06.379Z</time>
      </trkpt>
      <trkpt lat="47.02327" lon="-1.78897">
        <ele>49.956206</ele>
        <time>2022-12-17T12:15:09.377Z</time>
      </trkpt>
      <trkpt lat="47.02316" lon="-1.78904">
        <ele>49.809172</ele>
        <time>2022-12-17T12:15:12.372Z</time>
      </trkpt>
      <trkpt lat="47.02305" lon="-1.78912">
        <ele>49.66029</ele>
        <time>2022-12-17T12:15:15.394Z</time>
      </trkpt>
      <trkpt lat="47.02296" lon="-1.78918">
        <ele>49.551293</ele>
        <time>2022-12-17T12:15:17.384Z</time>
      </trkpt>
      <trkpt lat="47.02288" lon="-1.78924">
        <ele>49.431432</ele>
        <time>2022-12-17T12:15:19.380Z</time>
      </trkpt>
      <trkpt lat="47.02279" lon="-1.78931">
        <ele>49.309011</ele>
        <time>2022-12-17T12:15:21.383Z</time>
      </trkpt>
      <trkpt lat="47.0227" lon="-1.78938">
        <ele>49.18635</ele>
        <time>2022-12-17T12:15:23.384Z</time>
      </trkpt>
      <trkpt lat="47.02261" lon="-1.78946">
        <ele>49.059312</ele>
        <time>2022-12-17T12:15:25.383Z</time>
      </trkpt>
      <trkpt lat="47.02252" lon="-1.78954">
        <ele>48.956563</ele>
        <time>2022-12-17T12:15:27.384Z</time>
      </trkpt>
      <trkpt lat="47.02243" lon="-1.78963">
        <ele>48.93962</ele>
        <time>2022-12-17T12:15:29.390Z</time>
      </trkpt>
      <trkpt lat="47.02235" lon="-1.78972">
        <ele>48.922926</ele>
        <time>2022-12-17T12:15:31.384Z</time>
      </trkpt>
      <trkpt lat="47.02227" lon="-1.78983">
        <ele>48.905754</ele>
        <time>2022-12-17T12:15:33.384Z</time>
      </trkpt>
      <trkpt lat="47.02219" lon="-1.78994">
        <ele>48.888393</ele>
        <time>2022-12-17T12:15:35.397Z</time>
      </trkpt>
      <trkpt lat="47.02212" lon="-1.79006">
        <ele>48.871122</ele>
        <time>2022-12-17T12:15:37.381Z</time>
      </trkpt>
      <trkpt lat="47.02205" lon="-1.79018">
        <ele>48.854383</ele>
        <time>2022-12-17T12:15:39.385Z</time>
      </trkpt>
      <trkpt lat="47.02198" lon="-1.7903">
        <ele>48.837431</ele>
        <time>2022-12-17T12:15:41.385Z</time>
      </trkpt>
      <trkpt lat="47.02192" lon="-1.79044">
        <ele>48.820159</ele>
        <time>2022-12-17T12:15:43.393Z</time>
      </trkpt>
      <trkpt lat="47.02187" lon="-1.79057">
        <ele>48.803594</ele>
        <time>2022-12-17T12:15:45.381Z</time>
      </trkpt>
      <trkpt lat="47.02182" lon="-1.79071">
        <ele>48.786098</ele>
        <time>2022-12-17T12:15:47.366Z</time>
      </trkpt>
      <trkpt lat="47.02178" lon="-1.79086">
        <ele>48.769654</ele>
        <time>2022-12-17T12:15:49.383Z</time>
      </trkpt>
      <trkpt lat="47.02174" lon="-1.79098">
        <ele>48.755242</ele>
        <time>2022-12-17T12:15:51.375Z</time>
      </trkpt>
      <trkpt lat="47.0217" lon="-1.79115">
        <ele>48.735749</ele>
        <time>2022-12-17T12:15:54.382Z</time>
      </trkpt>
      <trkpt lat="47.02166" lon="-1.7913">
        <ele>48.718168</ele>
        <time>2022-12-17T12:15:57.396Z</time>
      </trkpt>
      <trkpt lat="47.02162" lon="-1.79144">
        <ele>48.702501</ele>
        <time>2022-12-17T12:16:00.385Z</time>
      </trkpt>
      <trkpt lat="47.02159" lon="-1.79157">
        <ele>48.687051</ele>
        <time>2022-12-17T12:16:03.380Z</time>
      </trkpt>
      <trkpt lat="47.02155" lon="-1.7917">
        <ele>48.663354</ele>
        <time>2022-12-17T12:16:06.373Z</time>
      </trkpt>
      <trkpt lat="47.02152" lon="-1.79184">
        <ele>48.606942</ele>
        <time>2022-12-17T12:16:09.379Z</time>
      </trkpt>
      <trkpt lat="47.02147" lon="-1.79199">
        <ele>48.546656</ele>
        <time>2022-12-17T12:16:12.373Z</time>
      </trkpt>
      <trkpt lat="47.02143" lon="-1.79215">
        <ele>48.482788</ele>
        <time>2022-12-17T12:16:15.399Z</time>
      </trkpt>
      <trkpt lat="47.02139" lon="-1.79231">
        <ele>48.417229</ele>
        <time>2022-12-17T12:16:18.382Z</time>
      </trkpt>
      <trkpt lat="47.02135" lon="-1.79247">
        <ele>48.354673</ele>
        <time>2022-12-17T12:16:21.376Z</time>
      </trkpt>
      <trkpt lat="47.0213" lon="-1.79263">
        <ele>48.289403</ele>
        <time>2022-12-17T12:16:24.381Z</time>
      </trkpt>
      <trkpt lat="47.02126" lon="-1.79277">
        <ele>48.234314</ele>
        <time>2022-12-17T12:16:26.388Z</time>
      </trkpt>
      <trkpt lat="47.02123" lon="-1.79291">
        <ele>48.179707</ele>
        <time>2022-12-17T12:16:28.379Z</time>
      </trkpt>
      <trkpt lat="47.0212" lon="-1.79304">
        <ele>48.125987</ele>
        <time>2022-12-17T12:16:30.376Z</time>
      </trkpt>
      <trkpt lat="47.02117" lon="-1.79318">
        <ele>48.07279</ele>
        <time>2022-12-17T12:16:32.375Z</time>
      </trkpt>
      <trkpt lat="47.02114" lon="-1.79331">
        <ele>48.020482</ele>
        <time>2022-12-17T12:16:34.374Z</time>
      </trkpt>
      <trkpt lat="47.0211" lon="-1.79349">
        <ele>47.949267</ele>
        <time>2022-12-17T12:16:37.383Z</time>
      </trkpt>
      <trkpt lat="47.02106" lon="-1.79364">
        <ele>47.890581</ele>
        <time>2022-12-17T12:16:40.388Z</time>
      </trkpt>
      <trkpt lat="47.02103" lon="-1.79379">
        <ele>47.832929</ele>
        <time>2022-12-17T12:16:43.388Z</time>
      </trkpt>
      <trkpt lat="47.021" lon="-1.79392">
        <ele>47.782024</ele>
        <time>2022-12-17T12:16:46.393Z</time>
      </trkpt>
      <trkpt lat="47.02096" lon="-1.79403">
        <ele>47.732065</ele>
        <time>2022-12-17T12:16:49.387Z</time>
      </trkpt>
      <trkpt lat="47.02087" lon="-1.79411">
        <ele>47.712209</ele>
        <time>2022-12-17T12:16:52.385Z</time>
      </trkpt>
      <trkpt lat="47.02076" lon="-1.79411">
        <ele>47.804483</ele>
        <time>2022-12-17T12:16:55.393Z</time>
      </trkpt>
      <trkpt lat="47.02065" lon="-1.79408">
        <ele>47.902843</ele>
        <time>2022-12-17T12:16:58.387Z</time>
      </trkpt>
      <trkpt lat="47.02055" lon="-1.79405">
        <ele>47.985732</ele>
        <time>2022-12-17T12:17:01.384Z</time>
      </trkpt>
      <trkpt lat="47.02044" lon="-1.79405">
        <ele>48.074609</ele>
        <time>2022-12-17T12:17:04.400Z</time>
      </trkpt>
      <trkpt lat="47.02034" lon="-1.79405">
        <ele>48.162675</ele>
        <time>2022-12-17T12:17:07.381Z</time>
      </trkpt>
      <trkpt lat="47.02023" lon="-1.79408">
        <ele>48.25536</ele>
        <time>2022-12-17T12:17:10.388Z</time>
      </trkpt>
      <trkpt lat="47.02013" lon="-1.79412">
        <ele>48.344666</ele>
        <time>2022-12-17T12:17:13.384Z</time>
      </trkpt>
      <trkpt lat="47.02003" lon="-1.79415">
        <ele>48.430246</ele>
        <time>2022-12-17T12:17:16.385Z</time>
      </trkpt>
      <trkpt lat="47.01992" lon="-1.79418">
        <ele>48.51747</ele>
        <time>2022-12-17T12:17:19.389Z</time>
      </trkpt>
      <trkpt lat="47.01983" lon="-1.7942">
        <ele>48.598937</ele>
        <time>2022-12-17T12:17:22.374Z</time>
      </trkpt>
      <trkpt lat="47.01973" lon="-1.79422">
        <ele>48.678156</ele>
        <time>2022-12-17T12:17:25.393Z</time>
      </trkpt>
      <trkpt lat="47.01964" lon="-1.79425">
        <ele>48.762591</ele>
        <time>2022-12-17T12:17:28.374Z</time>
      </trkpt>
      <trkpt lat="47.01954" lon="-1.79429">
        <ele>48.847729</ele>
        <time>2022-12-17T12:17:31.392Z</time>
      </trkpt>
      <trkpt lat="47.01943" lon="-1.79435">
        <ele>48.946147</ele>
        <time>2022-12-17T12:17:35.381Z</time>
      </trkpt>
      <trkpt lat="47.01932" lon="-1.79441">
        <ele>49.041828</ele>
        <time>2022-12-17T12:17:39.379Z</time>
      </trkpt>
      <trkpt lat="47.01921" lon="-1.79447">
        <ele>49.138079</ele>
        <time>2022-12-17T12:17:43.393Z</time>
      </trkpt>
      <trkpt lat="47.01911" lon="-1.79454">
        <ele>49.419087</ele>
        <time>2022-12-17T12:17:47.381Z</time>
      </trkpt>
      <trkpt lat="47.01903" lon="-1.79461">
        <ele>49.863982</ele>
        <time>2022-12-17T12:17:50.376Z</time>
      </trkpt>
      <trkpt lat="47.01893" lon="-1.79468">
        <ele>50.396399</ele>
        <time>2022-12-17T12:17:54.380Z</time>
      </trkpt>
      <trkpt lat="47.01883" lon="-1.79475">
        <ele>50.898835</ele>
        <time>2022-12-17T12:17:58.383Z</time>
      </trkpt>
      <trkpt lat="47.01874" lon="-1.79483">
        <ele>51.40972</ele>
        <time>2022-12-17T12:18:02.374Z</time>
      </trkpt>
      <trkpt lat="47.01865" lon="-1.79492">
        <ele>51.935431</ele>
        <time>2022-12-17T12:18:06.393Z</time>
      </trkpt>
      <trkpt lat="47.01856" lon="-1.795">
        <ele>52.443171</ele>
        <time>2022-12-17T12:18:10.390Z</time>
      </trkpt>
      <trkpt lat="47.01847" lon="-1.79508">
        <ele>52.934228</ele>
        <time>2022-12-17T12:18:14.382Z</time>
      </trkpt>
      <trkpt lat="47.01838" lon="-1.79515">
        <ele>53.453744</ele>
        <time>2022-12-17T12:18:19.374Z</time>
      </trkpt>
      <trkpt lat="47.01829" lon="-1.79522">
        <ele>53.939013</ele>
        <time>2022-12-17T12:18:23.380Z</time>
      </trkpt>
      <trkpt lat="47.01819" lon="-1.79531">
        <ele>54.478087</ele>
        <time>2022-12-17T12:18:28.385Z</time>
      </trkpt>
      <trkpt lat="47.01811" lon="-1.79535">
        <ele>54.911304</ele>
        <time>2022-12-17T12:18:32.386Z</time>
      </trkpt>
      <trkpt lat="47.01802" lon="-1.79542">
        <ele>55.376444</ele>
        <time>2022-12-17T12:18:36.372Z</time>
      </trkpt>
      <trkpt lat="47.01793" lon="-1.79548">
        <ele>55.8415</ele>
        <time>2022-12-17T12:18:40.382Z</time>
      </trkpt>
      <trkpt lat="47.01784" lon="-1.79554">
        <ele>56.306898</ele>
        <time>2022-12-17T12:18:44.376Z</time>
      </trkpt>
      <trkpt lat="47.01776" lon="-1.7956">
        <ele>56.767577</ele>
        <time>2022-12-17T12:18:48.383Z</time>
      </trkpt>
      <trkpt lat="47.01767" lon="-1.79567">
        <ele>57.222713</ele>
        <time>2022-12-17T12:18:52.376Z</time>
      </trkpt>
      <trkpt lat="47.01758" lon="-1.79573">
        <ele>57.714956</ele>
        <time>2022-12-17T12:18:56.397Z</time>
      </trkpt>
      <trkpt lat="47.01749" lon="-1.79581">
        <ele>57.940007</ele>
        <time>2022-12-17T12:19:00.383Z</time>
      </trkpt>
      <trkpt lat="47.0174" lon="-1.79587">
        <ele>58.08694</ele>
        <time>2022-12-17T12:19:04.381Z</time>
      </trkpt>
      <trkpt lat="47.0173" lon="-1.79592">
        <ele>58.231664</ele>
        <time>2022-12-17T12:19:08.378Z</time>
      </trkpt>
      <trkpt lat="47.01721" lon="-1.79595">
        <ele>58.371114</ele>
        <time>2022-12-17T12:19:12.374Z</time>
      </trkpt>
      <trkpt lat="47.01711" lon="-1.79599">
        <ele>58.522794</ele>
        <time>2022-12-17T12:19:16.385Z</time>
      </trkpt>
      <trkpt lat="47.017" lon="-1.79604">
        <ele>58.691517</ele>
        <time>2022-12-17T12:19:20.377Z</time>
      </trkpt>
      <trkpt lat="47.01688" lon="-1.79607">
        <ele>58.867184</ele>
        <time>2022-12-17T12:19:24.375Z</time>
      </trkpt>
      <trkpt lat="47.01678" lon="-1.7961">
        <ele>59.004798</ele>
        <time>2022-12-17T12:19:27.384Z</time>
      </trkpt>
      <trkpt lat="47.01669" lon="-1.79615">
        <ele>59.15192</ele>
        <time>2022-12-17T12:19:30.398Z</time>
      </trkpt>
      <trkpt lat="47.01659" lon="-1.79619">
        <ele>59.297202</ele>
        <time>2022-12-17T12:19:33.386Z</time>
      </trkpt>
      <trkpt lat="47.0165" lon="-1.79624">
        <ele>59.440944</ele>
        <time>2022-12-17T12:19:36.384Z</time>
      </trkpt>
      <trkpt lat="47.0164" lon="-1.79629">
        <ele>59.588725</ele>
        <time>2022-12-17T12:19:39.395Z</time>
      </trkpt>
      <trkpt lat="47.0163" lon="-1.79635">
        <ele>59.748738</ele>
        <time>2022-12-17T12:19:42.377Z</time>
      </trkpt>
      <trkpt lat="47.01619" lon="-1.7964">
        <ele>59.916903</ele>
        <time>2022-12-17T12:19:45.374Z</time>
      </trkpt>
      <trkpt lat="47.01608" lon="-1.79647">
        <ele>60.091525</ele>
        <time>2022-12-17T12:19:48.391Z</time>
      </trkpt>
      <trkpt lat="47.01596" lon="-1.79653">
        <ele>60.270562</ele>
        <time>2022-12-17T12:19:51.393Z</time>
      </trkpt>
      <trkpt lat="47.01584" lon="-1.7966">
        <ele>60.446523</ele>
        <time>2022-12-17T12:19:54.376Z</time>
      </trkpt>
      <trkpt lat="47.01573" lon="-1.79669">
        <ele>60.601172</ele>
        <time>2022-12-17T12:19:57.384Z</time>
      </trkpt>
      <trkpt lat="47.01562" lon="-1.79679">
        <ele>60.758893</ele>
        <time>2022-12-17T12:20:00.377Z</time>
      </trkpt>
      <trkpt lat="47.01552" lon="-1.7969">
        <ele>60.915145</ele>
        <time>2022-12-17T12:20:03.385Z</time>
      </trkpt>
      <trkpt lat="47.01542" lon="-1.79704">
        <ele>61.076921</ele>
        <time>2022-12-17T12:20:06.387Z</time>
      </trkpt>
      <trkpt lat="47.01534" lon="-1.79717">
        <ele>61.223306</ele>
        <time>2022-12-17T12:20:09.381Z</time>
      </trkpt>
      <trkpt lat="47.01528" lon="-1.79729">
        <ele>61.349845</ele>
        <time>2022-12-17T12:20:12.375Z</time>
      </trkpt>
      <trkpt lat="47.01523" lon="-1.79742">
        <ele>61.472393</ele>
        <time>2022-12-17T12:20:15.374Z</time>
      </trkpt>
      <trkpt lat="47.01517" lon="-1.79755">
        <ele>61.601661</ele>
        <time>2022-12-17T12:20:18.375Z</time>
      </trkpt>
      <trkpt lat="47.01511" lon="-1.79768">
        <ele>61.735092</ele>
        <time>2022-12-17T12:20:21.381Z</time>
      </trkpt>
      <trkpt lat="47.01505" lon="-1.79782">
        <ele>61.871878</ele>
        <time>2022-12-17T12:20:24.396Z</time>
      </trkpt>
      <trkpt lat="47.01499" lon="-1.79796">
        <ele>62.008382</ele>
        <time>2022-12-17T12:20:27.381Z</time>
      </trkpt>
      <trkpt lat="47.01493" lon="-1.79811">
        <ele>62.148782</ele>
        <time>2022-12-17T12:20:30.385Z</time>
      </trkpt>
      <trkpt lat="47.01487" lon="-1.79826">
        <ele>62.294552</ele>
        <time>2022-12-17T12:20:33.375Z</time>
      </trkpt>
      <trkpt lat="47.0148" lon="-1.7984">
        <ele>62.437632</ele>
        <time>2022-12-17T12:20:36.382Z</time>
      </trkpt>
      <trkpt lat="47.01474" lon="-1.79855">
        <ele>62.584054</ele>
        <time>2022-12-17T12:20:39.373Z</time>
      </trkpt>
      <trkpt lat="47.01467" lon="-1.79871">
        <ele>62.46947</ele>
        <time>2022-12-17T12:20:42.372Z</time>
      </trkpt>
      <trkpt lat="47.0146" lon="-1.79885">
        <ele>62.315575</ele>
        <time>2022-12-17T12:20:45.394Z</time>
      </trkpt>
      <trkpt lat="47.01453" lon="-1.79899">
        <ele>62.166788</ele>
        <time>2022-12-17T12:20:48.385Z</time>
      </trkpt>
      <trkpt lat="47.01445" lon="-1.79912">
        <ele>62.015141</ele>
        <time>2022-12-17T12:20:51.383Z</time>
      </trkpt>
      <trkpt lat="47.01437" lon="-1.79926">
        <ele>61.855427</ele>
        <time>2022-12-17T12:20:54.380Z</time>
      </trkpt>
      <trkpt lat="47.01429" lon="-1.79942">
        <ele>61.684193</ele>
        <time>2022-12-17T12:20:57.386Z</time>
      </trkpt>
      <trkpt lat="47.01423" lon="-1.79953">
        <ele>61.562019</ele>
        <time>2022-12-17T12:20:59.380Z</time>
      </trkpt>
      <trkpt lat="47.01416" lon="-1.79964">
        <ele>61.437847</ele>
        <time>2022-12-17T12:21:01.386Z</time>
      </trkpt>
      <trkpt lat="47.0141" lon="-1.79975">
        <ele>61.308582</ele>
        <time>2022-12-17T12:21:03.385Z</time>
      </trkpt>
      <trkpt lat="47.01404" lon="-1.79987">
        <ele>61.182584</ele>
        <time>2022-12-17T12:21:05.380Z</time>
      </trkpt>
      <trkpt lat="47.01398" lon="-1.79998">
        <ele>61.059588</ele>
        <time>2022-12-17T12:21:07.389Z</time>
      </trkpt>
      <trkpt lat="47.01391" lon="-1.8001">
        <ele>60.923548</ele>
        <time>2022-12-17T12:21:09.394Z</time>
      </trkpt>
      <trkpt lat="47.01385" lon="-1.80021">
        <ele>60.799501</ele>
        <time>2022-12-17T12:21:11.376Z</time>
      </trkpt>
      <trkpt lat="47.01378" lon="-1.80033">
        <ele>60.670084</ele>
        <time>2022-12-17T12:21:13.393Z</time>
      </trkpt>
      <trkpt lat="47.01372" lon="-1.80043">
        <ele>60.544366</ele>
        <time>2022-12-17T12:21:15.376Z</time>
      </trkpt>
      <trkpt lat="47.01366" lon="-1.80055">
        <ele>60.419186</ele>
        <time>2022-12-17T12:21:17.376Z</time>
      </trkpt>
      <trkpt lat="47.0136" lon="-1.80066">
        <ele>60.274018</ele>
        <time>2022-12-17T12:21:19.376Z</time>
      </trkpt>
      <trkpt lat="47.01354" lon="-1.80078">
        <ele>60.042275</ele>
        <time>2022-12-17T12:21:21.388Z</time>
      </trkpt>
      <trkpt lat="47.01347" lon="-1.8009">
        <ele>59.797865</ele>
        <time>2022-12-17T12:21:23.398Z</time>
      </trkpt>
      <trkpt lat="47.01341" lon="-1.801">
        <ele>59.57302</ele>
        <time>2022-12-17T12:21:25.380Z</time>
      </trkpt>
      <trkpt lat="47.01335" lon="-1.80111">
        <ele>59.348719</ele>
        <time>2022-12-17T12:21:27.399Z</time>
      </trkpt>
      <trkpt lat="47.01329" lon="-1.80122">
        <ele>59.136171</ele>
        <time>2022-12-17T12:21:29.379Z</time>
      </trkpt>
      <trkpt lat="47.01323" lon="-1.80132">
        <ele>58.922148</ele>
        <time>2022-12-17T12:21:31.396Z</time>
      </trkpt>
      <trkpt lat="47.01317" lon="-1.80144">
        <ele>58.693311</ele>
        <time>2022-12-17T12:21:33.389Z</time>
      </trkpt>
      <trkpt lat="47.01311" lon="-1.80155">
        <ele>58.477408</ele>
        <time>2022-12-17T12:21:35.382Z</time>
      </trkpt>
      <trkpt lat="47.01306" lon="-1.80166">
        <ele>58.251122</ele>
        <time>2022-12-17T12:21:37.382Z</time>
      </trkpt>
      <trkpt lat="47.013" lon="-1.80177">
        <ele>58.028276</ele>
        <time>2022-12-17T12:21:39.398Z</time>
      </trkpt>
      <trkpt lat="47.01293" lon="-1.80188">
        <ele>57.799804</ele>
        <time>2022-12-17T12:21:41.403Z</time>
      </trkpt>
      <trkpt lat="47.01288" lon="-1.802">
        <ele>57.574787</ele>
        <time>2022-12-17T12:21:43.380Z</time>
      </trkpt>
      <trkpt lat="47.01282" lon="-1.80211">
        <ele>57.348501</ele>
        <time>2022-12-17T12:21:45.384Z</time>
      </trkpt>
      <trkpt lat="47.01276" lon="-1.80222">
        <ele>57.124417</ele>
        <time>2022-12-17T12:21:47.383Z</time>
      </trkpt>
      <trkpt lat="47.0127" lon="-1.80234">
        <ele>56.904782</ele>
        <time>2022-12-17T12:21:49.381Z</time>
      </trkpt>
      <trkpt lat="47.01265" lon="-1.80246">
        <ele>56.674683</ele>
        <time>2022-12-17T12:21:51.380Z</time>
      </trkpt>
      <trkpt lat="47.01259" lon="-1.80259">
        <ele>56.43283</ele>
        <time>2022-12-17T12:21:53.387Z</time>
      </trkpt>
      <trkpt lat="47.01254" lon="-1.80272">
        <ele>56.193366</ele>
        <time>2022-12-17T12:21:55.401Z</time>
      </trkpt>
      <trkpt lat="47.01249" lon="-1.80284">
        <ele>56.145003</ele>
        <time>2022-12-17T12:21:57.385Z</time>
      </trkpt>
      <trkpt lat="47.01244" lon="-1.80298">
        <ele>56.139725</ele>
        <time>2022-12-17T12:21:59.392Z</time>
      </trkpt>
      <trkpt lat="47.0124" lon="-1.80311">
        <ele>56.134476</ele>
        <time>2022-12-17T12:22:01.382Z</time>
      </trkpt>
      <trkpt lat="47.01237" lon="-1.80325">
        <ele>56.129306</ele>
        <time>2022-12-17T12:22:03.383Z</time>
      </trkpt>
      <trkpt lat="47.01234" lon="-1.80339">
        <ele>56.124372</ele>
        <time>2022-12-17T12:22:05.386Z</time>
      </trkpt>
      <trkpt lat="47.01231" lon="-1.80352">
        <ele>56.119464</ele>
        <time>2022-12-17T12:22:07.385Z</time>
      </trkpt>
      <trkpt lat="47.01229" lon="-1.80367">
        <ele>56.114074</ele>
        <time>2022-12-17T12:22:09.400Z</time>
      </trkpt>
      <trkpt lat="47.01226" lon="-1.80381">
        <ele>56.109167</ele>
        <time>2022-12-17T12:22:11.380Z</time>
      </trkpt>
      <trkpt lat="47.01224" lon="-1.80394">
        <ele>56.104289</ele>
        <time>2022-12-17T12:22:13.387Z</time>
      </trkpt>
      <trkpt lat="47.01221" lon="-1.80408">
        <ele>56.099464</ele>
        <time>2022-12-17T12:22:15.392Z</time>
      </trkpt>
      <trkpt lat="47.01219" lon="-1.80421">
        <ele>56.094625</ele>
        <time>2022-12-17T12:22:17.393Z</time>
      </trkpt>
      <trkpt lat="47.01216" lon="-1.80434">
        <ele>56.090001</ele>
        <time>2022-12-17T12:22:19.381Z</time>
      </trkpt>
      <trkpt lat="47.01214" lon="-1.80448">
        <ele>56.085013</ele>
        <time>2022-12-17T12:22:21.380Z</time>
      </trkpt>
      <trkpt lat="47.01211" lon="-1.8046">
        <ele>56.080384</ele>
        <time>2022-12-17T12:22:23.382Z</time>
      </trkpt>
      <trkpt lat="47.01208" lon="-1.80479">
        <ele>56.073575</ele>
        <time>2022-12-17T12:22:26.377Z</time>
      </trkpt>
      <trkpt lat="47.01205" lon="-1.80492">
        <ele>56.068946</ele>
        <time>2022-12-17T12:22:28.383Z</time>
      </trkpt>
      <trkpt lat="47.01202" lon="-1.8051">
        <ele>56.062395</ele>
        <time>2022-12-17T12:22:31.381Z</time>
      </trkpt>
      <trkpt lat="47.01199" lon="-1.8053">
        <ele>55.955097</ele>
        <time>2022-12-17T12:22:34.396Z</time>
      </trkpt>
      <trkpt lat="47.01197" lon="-1.80543">
        <ele>55.658632</ele>
        <time>2022-12-17T12:22:36.385Z</time>
      </trkpt>
      <trkpt lat="47.01195" lon="-1.80557">
        <ele>55.358204</ele>
        <time>2022-12-17T12:22:38.385Z</time>
      </trkpt>
      <trkpt lat="47.01192" lon="-1.8057">
        <ele>55.060483</ele>
        <time>2022-12-17T12:22:40.384Z</time>
      </trkpt>
      <trkpt lat="47.0119" lon="-1.80584">
        <ele>54.7552</ele>
        <time>2022-12-17T12:22:42.376Z</time>
      </trkpt>
      <trkpt lat="47.01186" lon="-1.80597">
        <ele>54.450097</ele>
        <time>2022-12-17T12:22:44.380Z</time>
      </trkpt>
      <trkpt lat="47.01183" lon="-1.80611">
        <ele>54.137435</ele>
        <time>2022-12-17T12:22:46.393Z</time>
      </trkpt>
      <trkpt lat="47.01179" lon="-1.80623">
        <ele>53.837421</ele>
        <time>2022-12-17T12:22:48.380Z</time>
      </trkpt>
      <trkpt lat="47.01174" lon="-1.80637">
        <ele>53.507331</ele>
        <time>2022-12-17T12:22:50.393Z</time>
      </trkpt>
      <trkpt lat="47.01169" lon="-1.80648">
        <ele>53.224724</ele>
        <time>2022-12-17T12:22:52.374Z</time>
      </trkpt>
      <trkpt lat="47.01164" lon="-1.80662">
        <ele>52.888968</ele>
        <time>2022-12-17T12:22:54.386Z</time>
      </trkpt>
      <trkpt lat="47.01157" lon="-1.80675">
        <ele>52.527922</ele>
        <time>2022-12-17T12:22:56.373Z</time>
      </trkpt>
      <trkpt lat="47.0115" lon="-1.80688">
        <ele>52.166875</ele>
        <time>2022-12-17T12:22:58.392Z</time>
      </trkpt>
      <trkpt lat="47.01142" lon="-1.80702">
        <ele>51.78643</ele>
        <time>2022-12-17T12:23:00.376Z</time>
      </trkpt>
      <trkpt lat="47.01134" lon="-1.80718">
        <ele>51.366544</ele>
        <time>2022-12-17T12:23:02.377Z</time>
      </trkpt>
      <trkpt lat="47.01125" lon="-1.80733">
        <ele>50.931387</ele>
        <time>2022-12-17T12:23:04.375Z</time>
      </trkpt>
      <trkpt lat="47.01116" lon="-1.80748">
        <ele>50.503626</ele>
        <time>2022-12-17T12:23:06.394Z</time>
      </trkpt>
      <trkpt lat="47.01108" lon="-1.80764">
        <ele>50.269714</ele>
        <time>2022-12-17T12:23:08.402Z</time>
      </trkpt>
      <trkpt lat="47.01099" lon="-1.80779">
        <ele>50.109683</ele>
        <time>2022-12-17T12:23:10.381Z</time>
      </trkpt>
      <trkpt lat="47.01091" lon="-1.80792">
        <ele>49.963632</ele>
        <time>2022-12-17T12:23:12.377Z</time>
      </trkpt>
      <trkpt lat="47.01083" lon="-1.80807">
        <ele>49.805749</ele>
        <time>2022-12-17T12:23:14.392Z</time>
      </trkpt>
      <trkpt lat="47.01074" lon="-1.80822">
        <ele>49.643839</ele>
        <time>2022-12-17T12:23:16.385Z</time>
      </trkpt>
      <trkpt lat="47.01065" lon="-1.80837">
        <ele>49.486078</ele>
        <time>2022-12-17T12:23:18.398Z</time>
      </trkpt>
      <trkpt lat="47.01058" lon="-1.80852">
        <ele>49.336489</ele>
        <time>2022-12-17T12:23:20.383Z</time>
      </trkpt>
      <trkpt lat="47.0105" lon="-1.80865">
        <ele>49.196584</ele>
        <time>2022-12-17T12:23:22.374Z</time>
      </trkpt>
      <trkpt lat="47.01043" lon="-1.80878">
        <ele>49.056533</ele>
        <time>2022-12-17T12:23:24.381Z</time>
      </trkpt>
      <trkpt lat="47.01035" lon="-1.80893">
        <ele>48.903092</ele>
        <time>2022-12-17T12:23:26.394Z</time>
      </trkpt>
      <trkpt lat="47.01027" lon="-1.80906">
        <ele>48.765867</ele>
        <time>2022-12-17T12:23:28.398Z</time>
      </trkpt>
      <trkpt lat="47.0102" lon="-1.80919">
        <ele>48.628474</ele>
        <time>2022-12-17T12:23:30.375Z</time>
      </trkpt>
      <trkpt lat="47.01013" lon="-1.8093">
        <ele>48.508066</ele>
        <time>2022-12-17T12:23:32.376Z</time>
      </trkpt>
      <trkpt lat="47.01007" lon="-1.80941">
        <ele>48.392902</ele>
        <time>2022-12-17T12:23:34.380Z</time>
      </trkpt>
      <trkpt lat="47.01001" lon="-1.80953">
        <ele>48.270895</ele>
        <time>2022-12-17T12:23:36.373Z</time>
      </trkpt>
      <trkpt lat="47.00994" lon="-1.80965">
        <ele>48.262127</ele>
        <time>2022-12-17T12:23:38.389Z</time>
      </trkpt>
      <trkpt lat="47.00988" lon="-1.80977">
        <ele>48.286828</ele>
        <time>2022-12-17T12:23:40.374Z</time>
      </trkpt>
      <trkpt lat="47.0098" lon="-1.8099">
        <ele>48.313696</ele>
        <time>2022-12-17T12:23:42.377Z</time>
      </trkpt>
      <trkpt lat="47.00974" lon="-1.81">
        <ele>48.335737</ele>
        <time>2022-12-17T12:23:44.378Z</time>
      </trkpt>
      <trkpt lat="47.00968" lon="-1.81012">
        <ele>48.359173</ele>
        <time>2022-12-17T12:23:46.390Z</time>
      </trkpt>
      <trkpt lat="47.00961" lon="-1.81023">
        <ele>48.382359</ele>
        <time>2022-12-17T12:23:48.396Z</time>
      </trkpt>
      <trkpt lat="47.00955" lon="-1.81034">
        <ele>48.406126</ele>
        <time>2022-12-17T12:23:50.391Z</time>
      </trkpt>
      <trkpt lat="47.00948" lon="-1.81046">
        <ele>48.431085</ele>
        <time>2022-12-17T12:23:52.376Z</time>
      </trkpt>
      <trkpt lat="47.00941" lon="-1.81058">
        <ele>48.455025</ele>
        <time>2022-12-17T12:23:54.384Z</time>
      </trkpt>
      <trkpt lat="47.00935" lon="-1.81069">
        <ele>48.478597</ele>
        <time>2022-12-17T12:23:56.385Z</time>
      </trkpt>
      <trkpt lat="47.00929" lon="-1.81082">
        <ele>48.502774</ele>
        <time>2022-12-17T12:23:58.382Z</time>
      </trkpt>
      <trkpt lat="47.00922" lon="-1.81094">
        <ele>48.527341</ele>
        <time>2022-12-17T12:24:00.375Z</time>
      </trkpt>
      <trkpt lat="47.00915" lon="-1.81105">
        <ele>48.551393</ele>
        <time>2022-12-17T12:24:02.385Z</time>
      </trkpt>
      <trkpt lat="47.00908" lon="-1.81117">
        <ele>48.576929</ele>
        <time>2022-12-17T12:24:04.389Z</time>
      </trkpt>
      <trkpt lat="47.00902" lon="-1.8113">
        <ele>48.601371</ele>
        <time>2022-12-17T12:24:06.391Z</time>
      </trkpt>
      <trkpt lat="47.00895" lon="-1.81142">
        <ele>48.627027</ele>
        <time>2022-12-17T12:24:08.384Z</time>
      </trkpt>
      <trkpt lat="47.00888" lon="-1.81154">
        <ele>48.651443</ele>
        <time>2022-12-17T12:24:10.390Z</time>
      </trkpt>
      <trkpt lat="47.00881" lon="-1.81165">
        <ele>48.663214</ele>
        <time>2022-12-17T12:24:12.382Z</time>
      </trkpt>
      <trkpt lat="47.00875" lon="-1.81177">
        <ele>48.664915</ele>
        <time>2022-12-17T12:24:14.374Z</time>
      </trkpt>
      <trkpt lat="47.00868" lon="-1.8119">
        <ele>48.666792</ele>
        <time>2022-12-17T12:24:16.397Z</time>
      </trkpt>
      <trkpt lat="47.00861" lon="-1.81203">
        <ele>48.668627</ele>
        <time>2022-12-17T12:24:18.392Z</time>
      </trkpt>
      <trkpt lat="47.00854" lon="-1.81215">
        <ele>48.670425</ele>
        <time>2022-12-17T12:24:20.397Z</time>
      </trkpt>
      <trkpt lat="47.00847" lon="-1.81227">
        <ele>48.672155</ele>
        <time>2022-12-17T12:24:22.374Z</time>
      </trkpt>
      <trkpt lat="47.00841" lon="-1.8124">
        <ele>48.674011</ele>
        <time>2022-12-17T12:24:24.381Z</time>
      </trkpt>
      <trkpt lat="47.00834" lon="-1.81253">
        <ele>48.675889</ele>
        <time>2022-12-17T12:24:26.384Z</time>
      </trkpt>
      <trkpt lat="47.00826" lon="-1.81266">
        <ele>48.67779</ele>
        <time>2022-12-17T12:24:28.386Z</time>
      </trkpt>
      <trkpt lat="47.00819" lon="-1.8128">
        <ele>48.679692</ele>
        <time>2022-12-17T12:24:30.380Z</time>
      </trkpt>
      <trkpt lat="47.00813" lon="-1.81294">
        <ele>48.681612</ele>
        <time>2022-12-17T12:24:32.375Z</time>
      </trkpt>
      <trkpt lat="47.00807" lon="-1.81308">
        <ele>48.683416</ele>
        <time>2022-12-17T12:24:34.381Z</time>
      </trkpt>
      <trkpt lat="47.00802" lon="-1.81322">
        <ele>48.685234</ele>
        <time>2022-12-17T12:24:36.384Z</time>
      </trkpt>
      <trkpt lat="47.00798" lon="-1.81336">
        <ele>48.686966</ele>
        <time>2022-12-17T12:24:38.385Z</time>
      </trkpt>
      <trkpt lat="47.00793" lon="-1.81349">
        <ele>48.688671</ele>
        <time>2022-12-17T12:24:40.392Z</time>
      </trkpt>
      <trkpt lat="47.00789" lon="-1.81363">
        <ele>48.690427</ele>
        <time>2022-12-17T12:24:42.376Z</time>
      </trkpt>
      <trkpt lat="47.00784" lon="-1.81378">
        <ele>48.698054</ele>
        <time>2022-12-17T12:24:44.389Z</time>
      </trkpt>
      <trkpt lat="47.0078" lon="-1.81393">
        <ele>48.756023</ele>
        <time>2022-12-17T12:24:46.382Z</time>
      </trkpt>
      <trkpt lat="47.00775" lon="-1.81407">
        <ele>48.811529</ele>
        <time>2022-12-17T12:24:48.415Z</time>
      </trkpt>
      <trkpt lat="47.00771" lon="-1.81422">
        <ele>48.86948</ele>
        <time>2022-12-17T12:24:50.398Z</time>
      </trkpt>
      <trkpt lat="47.00767" lon="-1.81436">
        <ele>48.923292</ele>
        <time>2022-12-17T12:24:52.377Z</time>
      </trkpt>
      <trkpt lat="47.00762" lon="-1.81449">
        <ele>48.972441</ele>
        <time>2022-12-17T12:24:54.386Z</time>
      </trkpt>
      <trkpt lat="47.00758" lon="-1.81461">
        <ele>49.01956</ele>
        <time>2022-12-17T12:24:56.378Z</time>
      </trkpt>
      <trkpt lat="47.00752" lon="-1.81478">
        <ele>49.087369</ele>
        <time>2022-12-17T12:24:59.387Z</time>
      </trkpt>
      <trkpt lat="47.00744" lon="-1.81495">
        <ele>49.157876</ele>
        <time>2022-12-17T12:25:02.379Z</time>
      </trkpt>
      <trkpt lat="47.00739" lon="-1.81507">
        <ele>49.208954</ele>
        <time>2022-12-17T12:25:04.387Z</time>
      </trkpt>
      <trkpt lat="47.00733" lon="-1.81519">
        <ele>49.260304</ele>
        <time>2022-12-17T12:25:06.383Z</time>
      </trkpt>
      <trkpt lat="47.00727" lon="-1.81531">
        <ele>49.313968</ele>
        <time>2022-12-17T12:25:08.403Z</time>
      </trkpt>
      <trkpt lat="47.00721" lon="-1.81542">
        <ele>49.364937</ele>
        <time>2022-12-17T12:25:10.398Z</time>
      </trkpt>
      <trkpt lat="47.00715" lon="-1.81553">
        <ele>49.413792</ele>
        <time>2022-12-17T12:25:12.374Z</time>
      </trkpt>
      <trkpt lat="47.00709" lon="-1.81565">
        <ele>49.465258</ele>
        <time>2022-12-17T12:25:14.402Z</time>
      </trkpt>
      <trkpt lat="47.00702" lon="-1.81576">
        <ele>49.517318</ele>
        <time>2022-12-17T12:25:16.389Z</time>
      </trkpt>
      <trkpt lat="47.00697" lon="-1.81588">
        <ele>49.566725</ele>
        <time>2022-12-17T12:25:18.388Z</time>
      </trkpt>
      <trkpt lat="47.0069" lon="-1.81599">
        <ele>49.614317</ele>
        <time>2022-12-17T12:25:20.380Z</time>
      </trkpt>
      <trkpt lat="47.00684" lon="-1.81612">
        <ele>49.519832</ele>
        <time>2022-12-17T12:25:22.377Z</time>
      </trkpt>
      <trkpt lat="47.00677" lon="-1.81624">
        <ele>49.421987</ele>
        <time>2022-12-17T12:25:24.378Z</time>
      </trkpt>
      <trkpt lat="47.00671" lon="-1.81635">
        <ele>49.329929</ele>
        <time>2022-12-17T12:25:26.391Z</time>
      </trkpt>
      <trkpt lat="47.00664" lon="-1.81646">
        <ele>49.232761</ele>
        <time>2022-12-17T12:25:28.400Z</time>
      </trkpt>
      <trkpt lat="47.00657" lon="-1.81657">
        <ele>49.139598</ele>
        <time>2022-12-17T12:25:30.383Z</time>
      </trkpt>
      <trkpt lat="47.0065" lon="-1.81667">
        <ele>49.050429</ele>
        <time>2022-12-17T12:25:32.372Z</time>
      </trkpt>
      <trkpt lat="47.00643" lon="-1.81677">
        <ele>48.963495</ele>
        <time>2022-12-17T12:25:34.386Z</time>
      </trkpt>
      <trkpt lat="47.00633" lon="-1.8169">
        <ele>48.838259</ele>
        <time>2022-12-17T12:25:37.391Z</time>
      </trkpt>
      <trkpt lat="47.00624" lon="-1.81703">
        <ele>48.721421</ele>
        <time>2022-12-17T12:25:40.382Z</time>
      </trkpt>
      <trkpt lat="47.00615" lon="-1.81716">
        <ele>48.60414</ele>
        <time>2022-12-17T12:25:43.379Z</time>
      </trkpt>
      <trkpt lat="47.00605" lon="-1.81729">
        <ele>48.481145</ele>
        <time>2022-12-17T12:25:46.382Z</time>
      </trkpt>
      <trkpt lat="47.00596" lon="-1.81743">
        <ele>48.357938</ele>
        <time>2022-12-17T12:25:49.376Z</time>
      </trkpt>
      <trkpt lat="47.00589" lon="-1.81753">
        <ele>48.271748</ele>
        <time>2022-12-17T12:25:51.378Z</time>
      </trkpt>
      <trkpt lat="47.00583" lon="-1.81763">
        <ele>48.184947</ele>
        <time>2022-12-17T12:25:53.387Z</time>
      </trkpt>
      <trkpt lat="47.00575" lon="-1.81773">
        <ele>48.092525</ele>
        <time>2022-12-17T12:25:55.391Z</time>
      </trkpt>
      <trkpt lat="47.00568" lon="-1.81783">
        <ele>47.998966</ele>
        <time>2022-12-17T12:25:57.399Z</time>
      </trkpt>
      <trkpt lat="47.00561" lon="-1.81793">
        <ele>47.958715</ele>
        <time>2022-12-17T12:25:59.388Z</time>
      </trkpt>
      <trkpt lat="47.00554" lon="-1.81803">
        <ele>47.955541</ele>
        <time>2022-12-17T12:26:01.394Z</time>
      </trkpt>
      <trkpt lat="47.00546" lon="-1.81813">
        <ele>47.952196</ele>
        <time>2022-12-17T12:26:03.390Z</time>
      </trkpt>
      <trkpt lat="47.0054" lon="-1.81822">
        <ele>47.948949</ele>
        <time>2022-12-17T12:26:05.386Z</time>
      </trkpt>
      <trkpt lat="47.00532" lon="-1.81831">
        <ele>47.945909</ele>
        <time>2022-12-17T12:26:07.386Z</time>
      </trkpt>
      <trkpt lat="47.00523" lon="-1.81845">
        <ele>47.941331</ele>
        <time>2022-12-17T12:26:10.398Z</time>
      </trkpt>
      <trkpt lat="47.00516" lon="-1.81855">
        <ele>47.938149</ele>
        <time>2022-12-17T12:26:12.376Z</time>
      </trkpt>
      <trkpt lat="47.00509" lon="-1.81864">
        <ele>47.934813</ele>
        <time>2022-12-17T12:26:14.407Z</time>
      </trkpt>
      <trkpt lat="47.00502" lon="-1.81874">
        <ele>47.931443</ele>
        <time>2022-12-17T12:26:16.382Z</time>
      </trkpt>
      <trkpt lat="47.00494" lon="-1.81884">
        <ele>47.928088</ele>
        <time>2022-12-17T12:26:18.390Z</time>
      </trkpt>
      <trkpt lat="47.00487" lon="-1.81894">
        <ele>47.92468</ele>
        <time>2022-12-17T12:26:20.389Z</time>
      </trkpt>
      <trkpt lat="47.0048" lon="-1.81904">
        <ele>47.921474</ele>
        <time>2022-12-17T12:26:22.378Z</time>
      </trkpt>
      <trkpt lat="47.00473" lon="-1.81913">
        <ele>47.918327</ele>
        <time>2022-12-17T12:26:24.384Z</time>
      </trkpt>
      <trkpt lat="47.00466" lon="-1.81923">
        <ele>47.915081</ele>
        <time>2022-12-17T12:26:26.396Z</time>
      </trkpt>
      <trkpt lat="47.00459" lon="-1.81932">
        <ele>47.911832</ele>
        <time>2022-12-17T12:26:28.393Z</time>
      </trkpt>
      <trkpt lat="47.00452" lon="-1.81942">
        <ele>47.908497</ele>
        <time>2022-12-17T12:26:30.390Z</time>
      </trkpt>
      <trkpt lat="47.00446" lon="-1.81952">
        <ele>47.905402</ele>
        <time>2022-12-17T12:26:32.377Z</time>
      </trkpt>
      <trkpt lat="47.00439" lon="-1.81961">
        <ele>47.902256</ele>
        <time>2022-12-17T12:26:34.395Z</time>
      </trkpt>
      <trkpt lat="47.00432" lon="-1.81971">
        <ele>47.941611</ele>
        <time>2022-12-17T12:26:36.383Z</time>
      </trkpt>
      <trkpt lat="47.00425" lon="-1.8198">
        <ele>48.082927</ele>
        <time>2022-12-17T12:26:38.389Z</time>
      </trkpt>
      <trkpt lat="47.00418" lon="-1.8199">
        <ele>48.223787</ele>
        <time>2022-12-17T12:26:40.395Z</time>
      </trkpt>
      <trkpt lat="47.00411" lon="-1.81998">
        <ele>48.36353</ele>
        <time>2022-12-17T12:26:42.373Z</time>
      </trkpt>
      <trkpt lat="47.00404" lon="-1.82008">
        <ele>48.506875</ele>
        <time>2022-12-17T12:26:44.394Z</time>
      </trkpt>
      <trkpt lat="47.00397" lon="-1.82017">
        <ele>48.644898</ele>
        <time>2022-12-17T12:26:46.396Z</time>
      </trkpt>
      <trkpt lat="47.00388" lon="-1.82029">
        <ele>48.834061</ele>
        <time>2022-12-17T12:26:49.397Z</time>
      </trkpt>
      <trkpt lat="47.00379" lon="-1.82042">
        <ele>49.020927</ele>
        <time>2022-12-17T12:26:52.377Z</time>
      </trkpt>
      <trkpt lat="47.0037" lon="-1.82055">
        <ele>49.210647</ele>
        <time>2022-12-17T12:26:55.381Z</time>
      </trkpt>
      <trkpt lat="47.00361" lon="-1.82069">
        <ele>49.404727</ele>
        <time>2022-12-17T12:26:58.384Z</time>
      </trkpt>
      <trkpt lat="47.00351" lon="-1.82081">
        <ele>49.595261</ele>
        <time>2022-12-17T12:27:01.387Z</time>
      </trkpt>
      <trkpt lat="47.00342" lon="-1.82094">
        <ele>49.780419</ele>
        <time>2022-12-17T12:27:04.376Z</time>
      </trkpt>
      <trkpt lat="47.00333" lon="-1.82105">
        <ele>49.958566</ele>
        <time>2022-12-17T12:27:07.381Z</time>
      </trkpt>
      <trkpt lat="47.00325" lon="-1.82118">
        <ele>50.141507</ele>
        <time>2022-12-17T12:27:10.389Z</time>
      </trkpt>
      <trkpt lat="47.00315" lon="-1.8213">
        <ele>50.329149</ele>
        <time>2022-12-17T12:27:13.385Z</time>
      </trkpt>
      <trkpt lat="47.00306" lon="-1.82143">
        <ele>50.518313</ele>
        <time>2022-12-17T12:27:16.380Z</time>
      </trkpt>
      <trkpt lat="47.00297" lon="-1.82155">
        <ele>50.580818</ele>
        <time>2022-12-17T12:27:19.383Z</time>
      </trkpt>
      <trkpt lat="47.00289" lon="-1.82166">
        <ele>50.566578</ele>
        <time>2022-12-17T12:27:22.375Z</time>
      </trkpt>
      <trkpt lat="47.00286" lon="-1.82179">
        <ele>50.554088</ele>
        <time>2022-12-17T12:27:25.378Z</time>
      </trkpt>
      <trkpt lat="47.00282" lon="-1.8219">
        <ele>50.541921</ele>
        <time>2022-12-17T12:27:28.384Z</time>
      </trkpt>
      <trkpt lat="47.00272" lon="-1.82196">
        <ele>50.528673</ele>
        <time>2022-12-17T12:27:31.375Z</time>
      </trkpt>
      <trkpt lat="47.00264" lon="-1.82207">
        <ele>50.513281</ele>
        <time>2022-12-17T12:27:34.379Z</time>
      </trkpt>
      <trkpt lat="47.00255" lon="-1.8222">
        <ele>50.496227</ele>
        <time>2022-12-17T12:27:37.392Z</time>
      </trkpt>
      <trkpt lat="47.00246" lon="-1.82234">
        <ele>50.478468</ele>
        <time>2022-12-17T12:27:40.390Z</time>
      </trkpt>
      <trkpt lat="47.00236" lon="-1.82247">
        <ele>50.460997</ele>
        <time>2022-12-17T12:27:43.393Z</time>
      </trkpt>
      <trkpt lat="47.00228" lon="-1.82261">
        <ele>50.444125</ele>
        <time>2022-12-17T12:27:46.386Z</time>
      </trkpt>
      <trkpt lat="47.0022" lon="-1.82275">
        <ele>50.427846</ele>
        <time>2022-12-17T12:27:49.379Z</time>
      </trkpt>
      <trkpt lat="47.00213" lon="-1.82288">
        <ele>50.412157</ele>
        <time>2022-12-17T12:27:52.378Z</time>
      </trkpt>
      <trkpt lat="47.00206" lon="-1.82302">
        <ele>50.397013</ele>
        <time>2022-12-17T12:27:55.377Z</time>
      </trkpt>
      <trkpt lat="47.00204" lon="-1.82316">
        <ele>50.383054</ele>
        <time>2022-12-17T12:27:58.377Z</time>
      </trkpt>
      <trkpt lat="47.00208" lon="-1.82332">
        <ele>50.367934</ele>
        <time>2022-12-17T12:28:01.386Z</time>
      </trkpt>
      <trkpt lat="47.00209" lon="-1.82347">
        <ele>50.353991</ele>
        <time>2022-12-17T12:28:04.382Z</time>
      </trkpt>
      <trkpt lat="47.00208" lon="-1.82363">
        <ele>50.211675</ele>
        <time>2022-12-17T12:28:07.387Z</time>
      </trkpt>
      <trkpt lat="47.002" lon="-1.82377">
        <ele>50.009737</ele>
        <time>2022-12-17T12:28:10.384Z</time>
      </trkpt>
      <trkpt lat="47.00189" lon="-1.82384">
        <ele>49.785802</ele>
        <time>2022-12-17T12:28:13.377Z</time>
      </trkpt>
      <trkpt lat="47.0018" lon="-1.82383">
        <ele>49.62671</ele>
        <time>2022-12-17T12:28:15.389Z</time>
      </trkpt>
      <trkpt lat="47.0017" lon="-1.82381">
        <ele>49.462997</ele>
        <time>2022-12-17T12:28:17.390Z</time>
      </trkpt>
      <trkpt lat="47.00161" lon="-1.82374">
        <ele>49.281408</ele>
        <time>2022-12-17T12:28:19.381Z</time>
      </trkpt>
      <trkpt lat="47.00151" lon="-1.82371">
        <ele>49.107446</ele>
        <time>2022-12-17T12:28:21.376Z</time>
      </trkpt>
      <trkpt lat="47.00141" lon="-1.82375">
        <ele>48.92689</ele>
        <time>2022-12-17T12:28:23.389Z</time>
      </trkpt>
      <trkpt lat="47.00132" lon="-1.82383">
        <ele>48.739535</ele>
        <time>2022-12-17T12:28:25.379Z</time>
      </trkpt>
      <trkpt lat="47.00124" lon="-1.82393">
        <ele>48.547407</ele>
        <time>2022-12-17T12:28:27.385Z</time>
      </trkpt>
      <trkpt lat="47.00116" lon="-1.82405">
        <ele>48.356269</ele>
        <time>2022-12-17T12:28:29.377Z</time>
      </trkpt>
      <trkpt lat="47.00109" lon="-1.82416">
        <ele>48.181286</ele>
        <time>2022-12-17T12:28:31.387Z</time>
      </trkpt>
      <trkpt lat="47.00102" lon="-1.82427">
        <ele>48.000454</ele>
        <time>2022-12-17T12:28:33.391Z</time>
      </trkpt>
      <trkpt lat="47.00095" lon="-1.82437">
        <ele>47.824308</ele>
        <time>2022-12-17T12:28:35.396Z</time>
      </trkpt>
      <trkpt lat="47.00087" lon="-1.82447">
        <ele>47.650247</ele>
        <time>2022-12-17T12:28:37.376Z</time>
      </trkpt>
      <trkpt lat="47.0008" lon="-1.82456">
        <ele>47.483698</ele>
        <time>2022-12-17T12:28:39.398Z</time>
      </trkpt>
      <trkpt lat="47.00073" lon="-1.82466">
        <ele>47.312845</ele>
        <time>2022-12-17T12:28:41.399Z</time>
      </trkpt>
      <trkpt lat="47.00066" lon="-1.82475">
        <ele>47.244208</ele>
        <time>2022-12-17T12:28:43.388Z</time>
      </trkpt>
      <trkpt lat="47.00058" lon="-1.82484">
        <ele>47.312976</ele>
        <time>2022-12-17T12:28:45.388Z</time>
      </trkpt>
      <trkpt lat="47.00051" lon="-1.82496">
        <ele>47.388251</ele>
        <time>2022-12-17T12:28:47.380Z</time>
      </trkpt>
      <trkpt lat="47.00044" lon="-1.82507">
        <ele>47.46113</ele>
        <time>2022-12-17T12:28:49.399Z</time>
      </trkpt>
      <trkpt lat="47.00037" lon="-1.82518">
        <ele>47.53252</ele>
        <time>2022-12-17T12:28:51.376Z</time>
      </trkpt>
      <trkpt lat="47.0003" lon="-1.82528">
        <ele>47.604231</ele>
        <time>2022-12-17T12:28:53.386Z</time>
      </trkpt>
      <trkpt lat="47.00022" lon="-1.82538">
        <ele>47.678187</ele>
        <time>2022-12-17T12:28:55.386Z</time>
      </trkpt>
      <trkpt lat="47.00015" lon="-1.82548">
        <ele>47.74806</ele>
        <time>2022-12-17T12:28:57.383Z</time>
      </trkpt>
      <trkpt lat="47.00007" lon="-1.82559">
        <ele>47.822541</ele>
        <time>2022-12-17T12:28:59.390Z</time>
      </trkpt>
      <trkpt lat="46.99998" lon="-1.82567">
        <ele>47.896522</ele>
        <time>2022-12-17T12:29:01.380Z</time>
      </trkpt>
      <trkpt lat="46.99989" lon="-1.82575">
        <ele>47.970787</ele>
        <time>2022-12-17T12:29:03.376Z</time>
      </trkpt>
      <trkpt lat="46.99979" lon="-1.82586">
        <ele>48.060625</ele>
        <time>2022-12-17T12:29:06.385Z</time>
      </trkpt>
      <trkpt lat="46.99969" lon="-1.82596">
        <ele>48.14525</ele>
        <time>2022-12-17T12:29:09.383Z</time>
      </trkpt>
      <trkpt lat="46.9996" lon="-1.82605">
        <ele>48.21856</ele>
        <time>2022-12-17T12:29:12.375Z</time>
      </trkpt>
      <trkpt lat="46.99952" lon="-1.82614">
        <ele>48.291158</ele>
        <time>2022-12-17T12:29:15.382Z</time>
      </trkpt>
      <trkpt lat="46.99943" lon="-1.82624">
        <ele>48.36929</ele>
        <time>2022-12-17T12:29:18.377Z</time>
      </trkpt>
      <trkpt lat="46.99933" lon="-1.82633">
        <ele>48.453574</ele>
        <time>2022-12-17T12:29:21.377Z</time>
      </trkpt>
      <trkpt lat="46.99923" lon="-1.82642">
        <ele>48.392175</ele>
        <time>2022-12-17T12:29:24.375Z</time>
      </trkpt>
      <trkpt lat="46.99912" lon="-1.8265">
        <ele>48.257921</ele>
        <time>2022-12-17T12:29:27.391Z</time>
      </trkpt>
      <trkpt lat="46.999" lon="-1.82654">
        <ele>48.114775</ele>
        <time>2022-12-17T12:29:30.387Z</time>
      </trkpt>
      <trkpt lat="46.99888" lon="-1.82657">
        <ele>47.979287</ele>
        <time>2022-12-17T12:29:33.381Z</time>
      </trkpt>
      <trkpt lat="46.99876" lon="-1.82659">
        <ele>47.843003</ele>
        <time>2022-12-17T12:29:36.383Z</time>
      </trkpt>
      <trkpt lat="46.99864" lon="-1.82662">
        <ele>47.705501</ele>
        <time>2022-12-17T12:29:39.380Z</time>
      </trkpt>
      <trkpt lat="46.99851" lon="-1.82663">
        <ele>47.560957</ele>
        <time>2022-12-17T12:29:42.377Z</time>
      </trkpt>
      <trkpt lat="46.99838" lon="-1.82665">
        <ele>47.411736</ele>
        <time>2022-12-17T12:29:45.389Z</time>
      </trkpt>
      <trkpt lat="46.99828" lon="-1.82665">
        <ele>47.306906</ele>
        <time>2022-12-17T12:29:47.385Z</time>
      </trkpt>
      <trkpt lat="46.99819" lon="-1.82666">
        <ele>47.197346</ele>
        <time>2022-12-17T12:29:49.382Z</time>
      </trkpt>
      <trkpt lat="46.99809" lon="-1.82667">
        <ele>47.08471</ele>
        <time>2022-12-17T12:29:51.385Z</time>
      </trkpt>
      <trkpt lat="46.99798" lon="-1.82668">
        <ele>46.970599</ele>
        <time>2022-12-17T12:29:53.389Z</time>
      </trkpt>
      <trkpt lat="46.99787" lon="-1.82669">
        <ele>46.846323</ele>
        <time>2022-12-17T12:29:55.384Z</time>
      </trkpt>
      <trkpt lat="46.99777" lon="-1.8267">
        <ele>46.724663</ele>
        <time>2022-12-17T12:29:57.386Z</time>
      </trkpt>
      <trkpt lat="46.99766" lon="-1.82672">
        <ele>46.606544</ele>
        <time>2022-12-17T12:29:59.392Z</time>
      </trkpt>
      <trkpt lat="46.99756" lon="-1.82674">
        <ele>46.491873</ele>
        <time>2022-12-17T12:30:01.385Z</time>
      </trkpt>
      <trkpt lat="46.99746" lon="-1.82675">
        <ele>46.402615</ele>
        <time>2022-12-17T12:30:03.390Z</time>
      </trkpt>
      <trkpt lat="46.99737" lon="-1.82675">
        <ele>46.321905</ele>
        <time>2022-12-17T12:30:05.385Z</time>
      </trkpt>
      <trkpt lat="46.99723" lon="-1.82674">
        <ele>46.214347</ele>
        <time>2022-12-17T12:30:08.389Z</time>
      </trkpt>
      <trkpt lat="46.99714" lon="-1.82672">
        <ele>46.137453</ele>
        <time>2022-12-17T12:30:10.385Z</time>
      </trkpt>
      <trkpt lat="46.99701" lon="-1.82669">
        <ele>46.031899</ele>
        <time>2022-12-17T12:30:13.378Z</time>
      </trkpt>
      <trkpt lat="46.99688" lon="-1.82665">
        <ele>45.922026</ele>
        <time>2022-12-17T12:30:16.389Z</time>
      </trkpt>
      <trkpt lat="46.99679" lon="-1.82662">
        <ele>45.846194</ele>
        <time>2022-12-17T12:30:18.386Z</time>
      </trkpt>
      <trkpt lat="46.9967" lon="-1.82658">
        <ele>45.76986</ele>
        <time>2022-12-17T12:30:20.386Z</time>
      </trkpt>
      <trkpt lat="46.9966" lon="-1.82654">
        <ele>45.683235</ele>
        <time>2022-12-17T12:30:22.379Z</time>
      </trkpt>
      <trkpt lat="46.9965" lon="-1.82649">
        <ele>45.600267</ele>
        <time>2022-12-17T12:30:24.393Z</time>
      </trkpt>
      <trkpt lat="46.99641" lon="-1.82642">
        <ele>45.517494</ele>
        <time>2022-12-17T12:30:26.390Z</time>
      </trkpt>
      <trkpt lat="46.99632" lon="-1.82633">
        <ele>45.429239</ele>
        <time>2022-12-17T12:30:28.379Z</time>
      </trkpt>
      <trkpt lat="46.99623" lon="-1.82625">
        <ele>45.341078</ele>
        <time>2022-12-17T12:30:30.391Z</time>
      </trkpt>
      <trkpt lat="46.99614" lon="-1.82617">
        <ele>45.257343</ele>
        <time>2022-12-17T12:30:32.377Z</time>
      </trkpt>
      <trkpt lat="46.99606" lon="-1.8261">
        <ele>45.178812</ele>
        <time>2022-12-17T12:30:34.397Z</time>
      </trkpt>
      <trkpt lat="46.99599" lon="-1.82602">
        <ele>45.105249</ele>
        <time>2022-12-17T12:30:36.396Z</time>
      </trkpt>
      <trkpt lat="46.99589" lon="-1.8259">
        <ele>45.001433</ele>
        <time>2022-12-17T12:30:39.394Z</time>
      </trkpt>
      <trkpt lat="46.99582" lon="-1.82578">
        <ele>44.999879</ele>
        <time>2022-12-17T12:30:42.379Z</time>
      </trkpt>
      <trkpt lat="46.99576" lon="-1.82568">
        <ele>45.006909</ele>
        <time>2022-12-17T12:30:45.376Z</time>
      </trkpt>
      <trkpt lat="46.99568" lon="-1.82555">
        <ele>45.015679</ele>
        <time>2022-12-17T12:30:49.377Z</time>
      </trkpt>
      <trkpt lat="46.99561" lon="-1.82547">
        <ele>45.022445</ele>
        <time>2022-12-17T12:30:52.384Z</time>
      </trkpt>
      <trkpt lat="46.99555" lon="-1.82535">
        <ele>45.029704</ele>
        <time>2022-12-17T12:30:55.379Z</time>
      </trkpt>
      <trkpt lat="46.99551" lon="-1.82522">
        <ele>45.037254</ele>
        <time>2022-12-17T12:30:58.383Z</time>
      </trkpt>
      <trkpt lat="46.99546" lon="-1.82507">
        <ele>45.045939</ele>
        <time>2022-12-17T12:31:02.376Z</time>
      </trkpt>
      <trkpt lat="46.99544" lon="-1.82492">
        <ele>45.053499</ele>
        <time>2022-12-17T12:31:05.384Z</time>
      </trkpt>
      <trkpt lat="46.99541" lon="-1.82477">
        <ele>45.061913</ele>
        <time>2022-12-17T12:31:08.378Z</time>
      </trkpt>
      <trkpt lat="46.99536" lon="-1.82462">
        <ele>45.070159</ele>
        <time>2022-12-17T12:31:11.380Z</time>
      </trkpt>
      <trkpt lat="46.99531" lon="-1.82448">
        <ele>45.078349</ele>
        <time>2022-12-17T12:31:14.382Z</time>
      </trkpt>
      <trkpt lat="46.99526" lon="-1.82433">
        <ele>45.086941</ele>
        <time>2022-12-17T12:31:17.391Z</time>
      </trkpt>
      <trkpt lat="46.99521" lon="-1.82417">
        <ele>45.095943</ele>
        <time>2022-12-17T12:31:20.377Z</time>
      </trkpt>
      <trkpt lat="46.99516" lon="-1.82402">
        <ele>45.104599</ele>
        <time>2022-12-17T12:31:23.400Z</time>
      </trkpt>
      <trkpt lat="46.99511" lon="-1.82387">
        <ele>45.113395</ele>
        <time>2022-12-17T12:31:26.382Z</time>
      </trkpt>
      <trkpt lat="46.99505" lon="-1.82371">
        <ele>45.122327</ele>
        <time>2022-12-17T12:31:29.389Z</time>
      </trkpt>
      <trkpt lat="46.995" lon="-1.82356">
        <ele>45.103086</ele>
        <time>2022-12-17T12:31:32.376Z</time>
      </trkpt>
      <trkpt lat="46.99495" lon="-1.82341">
        <ele>45.034257</ele>
        <time>2022-12-17T12:31:35.398Z</time>
      </trkpt>
      <trkpt lat="46.99491" lon="-1.82327">
        <ele>44.974582</ele>
        <time>2022-12-17T12:31:38.383Z</time>
      </trkpt>
      <trkpt lat="46.99487" lon="-1.82315">
        <ele>44.918699</ele>
        <time>2022-12-17T12:31:41.392Z</time>
      </trkpt>
      <trkpt lat="46.9948" lon="-1.82302">
        <ele>44.852624</ele>
        <time>2022-12-17T12:31:44.383Z</time>
      </trkpt>
      <trkpt lat="46.99474" lon="-1.82287">
        <ele>44.779332</ele>
        <time>2022-12-17T12:31:47.388Z</time>
      </trkpt>
      <trkpt lat="46.99468" lon="-1.82272">
        <ele>44.7053</ele>
        <time>2022-12-17T12:31:50.390Z</time>
      </trkpt>
      <trkpt lat="46.99461" lon="-1.82257">
        <ele>44.631363</ele>
        <time>2022-12-17T12:31:53.394Z</time>
      </trkpt>
      <trkpt lat="46.99456" lon="-1.82244">
        <ele>44.568995</ele>
        <time>2022-12-17T12:31:56.388Z</time>
      </trkpt>
      <trkpt lat="46.99451" lon="-1.82229">
        <ele>44.501003</ele>
        <time>2022-12-17T12:32:00.401Z</time>
      </trkpt>
      <trkpt lat="46.99446" lon="-1.82215">
        <ele>44.437078</ele>
        <time>2022-12-17T12:32:04.373Z</time>
      </trkpt>
      <trkpt lat="46.99442" lon="-1.82203">
        <ele>44.381657</ele>
        <time>2022-12-17T12:32:08.377Z</time>
      </trkpt>
      <trkpt lat="46.99437" lon="-1.82188">
        <ele>44.31412</ele>
        <time>2022-12-17T12:32:12.377Z</time>
      </trkpt>
      <trkpt lat="46.99428" lon="-1.82179">
        <ele>44.247089</ele>
        <time>2022-12-17T12:32:16.386Z</time>
      </trkpt>
      <trkpt lat="46.99419" lon="-1.82179">
        <ele>44.189644</ele>
        <time>2022-12-17T12:32:19.389Z</time>
      </trkpt>
      <trkpt lat="46.99408" lon="-1.82182">
        <ele>44.124468</ele>
        <time>2022-12-17T12:32:22.374Z</time>
      </trkpt>
      <trkpt lat="46.99396" lon="-1.82186">
        <ele>44.051264</ele>
        <time>2022-12-17T12:32:25.389Z</time>
      </trkpt>
      <trkpt lat="46.99385" lon="-1.8219">
        <ele>44.074446</ele>
        <time>2022-12-17T12:32:28.379Z</time>
      </trkpt>
      <trkpt lat="46.99374" lon="-1.82193">
        <ele>44.110954</ele>
        <time>2022-12-17T12:32:31.388Z</time>
      </trkpt>
      <trkpt lat="46.99362" lon="-1.82196">
        <ele>44.150026</ele>
        <time>2022-12-17T12:32:34.386Z</time>
      </trkpt>
      <trkpt lat="46.99351" lon="-1.82197">
        <ele>44.184335</ele>
        <time>2022-12-17T12:32:37.388Z</time>
      </trkpt>
      <trkpt lat="46.9934" lon="-1.82201">
        <ele>44.221754</ele>
        <time>2022-12-17T12:32:40.383Z</time>
      </trkpt>
      <trkpt lat="46.99328" lon="-1.82204">
        <ele>44.26211</ele>
        <time>2022-12-17T12:32:43.392Z</time>
      </trkpt>
      <trkpt lat="46.99316" lon="-1.82206">
        <ele>44.302496</ele>
        <time>2022-12-17T12:32:46.387Z</time>
      </trkpt>
      <trkpt lat="46.99305" lon="-1.82209">
        <ele>44.338454</ele>
        <time>2022-12-17T12:32:49.385Z</time>
      </trkpt>
      <trkpt lat="46.99296" lon="-1.82213">
        <ele>44.369488</ele>
        <time>2022-12-17T12:32:52.379Z</time>
      </trkpt>
      <trkpt lat="46.99284" lon="-1.82215">
        <ele>44.408379</ele>
        <time>2022-12-17T12:32:56.383Z</time>
      </trkpt>
      <trkpt lat="46.99273" lon="-1.82217">
        <ele>44.444777</ele>
        <time>2022-12-17T12:32:59.394Z</time>
      </trkpt>
      <trkpt lat="46.99262" lon="-1.82219">
        <ele>44.480992</ele>
        <time>2022-12-17T12:33:02.375Z</time>
      </trkpt>
      <trkpt lat="46.9925" lon="-1.82222">
        <ele>44.519174</ele>
        <time>2022-12-17T12:33:05.397Z</time>
      </trkpt>
      <trkpt lat="46.99238" lon="-1.82223">
        <ele>44.558102</ele>
        <time>2022-12-17T12:33:08.397Z</time>
      </trkpt>
      <trkpt lat="46.99226" lon="-1.82225">
        <ele>44.599135</ele>
        <time>2022-12-17T12:33:11.389Z</time>
      </trkpt>
      <trkpt lat="46.99213" lon="-1.82228">
        <ele>44.631527</ele>
        <time>2022-12-17T12:33:14.410Z</time>
      </trkpt>
      <trkpt lat="46.99201" lon="-1.8223">
        <ele>44.644329</ele>
        <time>2022-12-17T12:33:17.385Z</time>
      </trkpt>
      <trkpt lat="46.99189" lon="-1.82232">
        <ele>44.656574</ele>
        <time>2022-12-17T12:33:20.375Z</time>
      </trkpt>
      <trkpt lat="46.99177" lon="-1.82235">
        <ele>44.668505</ele>
        <time>2022-12-17T12:33:23.378Z</time>
      </trkpt>
      <trkpt lat="46.99167" lon="-1.82236">
        <ele>44.679338</ele>
        <time>2022-12-17T12:33:26.399Z</time>
      </trkpt>
      <trkpt lat="46.99157" lon="-1.82238">
        <ele>44.689245</ele>
        <time>2022-12-17T12:33:29.391Z</time>
      </trkpt>
      <trkpt lat="46.99148" lon="-1.8224">
        <ele>44.698936</ele>
        <time>2022-12-17T12:33:32.374Z</time>
      </trkpt>
      <trkpt lat="46.99138" lon="-1.82244">
        <ele>44.709276</ele>
        <time>2022-12-17T12:33:35.381Z</time>
      </trkpt>
      <trkpt lat="46.99128" lon="-1.82248">
        <ele>44.720242</ele>
        <time>2022-12-17T12:33:38.396Z</time>
      </trkpt>
      <trkpt lat="46.99119" lon="-1.82251">
        <ele>44.729684</ele>
        <time>2022-12-17T12:33:41.389Z</time>
      </trkpt>
      <trkpt lat="46.99108" lon="-1.82256">
        <ele>44.741296</ele>
        <time>2022-12-17T12:33:45.386Z</time>
      </trkpt>
      <trkpt lat="46.99099" lon="-1.8226">
        <ele>44.751124</ele>
        <time>2022-12-17T12:33:49.387Z</time>
      </trkpt>
      <trkpt lat="46.99094" lon="-1.82246">
        <ele>44.762455</ele>
        <time>2022-12-17T12:33:54.390Z</time>
      </trkpt>
      <trkpt lat="46.99093" lon="-1.8223">
        <ele>44.773307</ele>
        <time>2022-12-17T12:33:57.376Z</time>
      </trkpt>
      <trkpt lat="46.99093" lon="-1.82215">
        <ele>44.784056</ele>
        <time>2022-12-17T12:34:00.388Z</time>
      </trkpt>
      <trkpt lat="46.99091" lon="-1.82199">
        <ele>44.795223</ele>
        <time>2022-12-17T12:34:03.390Z</time>
      </trkpt>
      <trkpt lat="46.9909" lon="-1.82183">
        <ele>44.80667</ele>
        <time>2022-12-17T12:34:06.395Z</time>
      </trkpt>
      <trkpt lat="46.99089" lon="-1.82166">
        <ele>44.780866</ele>
        <time>2022-12-17T12:34:09.378Z</time>
      </trkpt>
      <trkpt lat="46.99088" lon="-1.8215">
        <ele>44.726819</ele>
        <time>2022-12-17T12:34:12.378Z</time>
      </trkpt>
      <trkpt lat="46.99085" lon="-1.82133">
        <ele>44.669646</ele>
        <time>2022-12-17T12:34:15.387Z</time>
      </trkpt>
      <trkpt lat="46.99083" lon="-1.82116">
        <ele>44.61141</ele>
        <time>2022-12-17T12:34:18.394Z</time>
      </trkpt>
      <trkpt lat="46.9908" lon="-1.82098">
        <ele>44.551882</ele>
        <time>2022-12-17T12:34:21.392Z</time>
      </trkpt>
      <trkpt lat="46.9908" lon="-1.8208">
        <ele>44.491285</ele>
        <time>2022-12-17T12:34:24.384Z</time>
      </trkpt>
      <trkpt lat="46.99081" lon="-1.82062">
        <ele>44.432238</ele>
        <time>2022-12-17T12:34:27.387Z</time>
      </trkpt>
      <trkpt lat="46.99082" lon="-1.82043">
        <ele>44.372176</ele>
        <time>2022-12-17T12:34:30.384Z</time>
      </trkpt>
      <trkpt lat="46.99083" lon="-1.82025">
        <ele>44.310975</ele>
        <time>2022-12-17T12:34:33.386Z</time>
      </trkpt>
      <trkpt lat="46.99084" lon="-1.82007">
        <ele>44.250146</ele>
        <time>2022-12-17T12:34:36.383Z</time>
      </trkpt>
      <trkpt lat="46.99086" lon="-1.8199">
        <ele>44.195841</ele>
        <time>2022-12-17T12:34:39.394Z</time>
      </trkpt>
      <trkpt lat="46.99086" lon="-1.81976">
        <ele>44.149036</ele>
        <time>2022-12-17T12:34:42.376Z</time>
      </trkpt>
      <trkpt lat="46.99087" lon="-1.81963">
        <ele>44.10497</ele>
        <time>2022-12-17T12:34:45.384Z</time>
      </trkpt>
      <trkpt lat="46.99089" lon="-1.81948">
        <ele>44.056345</ele>
        <time>2022-12-17T12:34:48.388Z</time>
      </trkpt>
      <trkpt lat="46.9909" lon="-1.81932">
        <ele>44.003184</ele>
        <time>2022-12-17T12:34:51.382Z</time>
      </trkpt>
      <trkpt lat="46.99092" lon="-1.81916">
        <ele>43.948228</ele>
        <time>2022-12-17T12:34:54.397Z</time>
      </trkpt>
      <trkpt lat="46.99094" lon="-1.81899">
        <ele>43.942754</ele>
        <time>2022-12-17T12:34:57.386Z</time>
      </trkpt>
      <trkpt lat="46.99096" lon="-1.81882">
        <ele>43.941987</ele>
        <time>2022-12-17T12:35:00.382Z</time>
      </trkpt>
      <trkpt lat="46.991" lon="-1.81866">
        <ele>43.941262</ele>
        <time>2022-12-17T12:35:03.395Z</time>
      </trkpt>
      <trkpt lat="46.99104" lon="-1.8185">
        <ele>43.940514</ele>
        <time>2022-12-17T12:35:06.397Z</time>
      </trkpt>
      <trkpt lat="46.99109" lon="-1.81834">
        <ele>43.939742</ele>
        <time>2022-12-17T12:35:09.378Z</time>
      </trkpt>
      <trkpt lat="46.99114" lon="-1.81819">
        <ele>43.939028</ele>
        <time>2022-12-17T12:35:12.381Z</time>
      </trkpt>
      <trkpt lat="46.99121" lon="-1.81806">
        <ele>43.938292</ele>
        <time>2022-12-17T12:35:15.387Z</time>
      </trkpt>
      <trkpt lat="46.9913" lon="-1.81795">
        <ele>43.937542</ele>
        <time>2022-12-17T12:35:18.377Z</time>
      </trkpt>
      <trkpt lat="46.99139" lon="-1.81783">
        <ele>43.936744</ele>
        <time>2022-12-17T12:35:21.388Z</time>
      </trkpt>
      <trkpt lat="46.99148" lon="-1.81771">
        <ele>43.935955</ele>
        <time>2022-12-17T12:35:24.389Z</time>
      </trkpt>
      <trkpt lat="46.99157" lon="-1.81759">
        <ele>43.935184</ele>
        <time>2022-12-17T12:35:27.389Z</time>
      </trkpt>
      <trkpt lat="46.99166" lon="-1.81748">
        <ele>43.934454</ele>
        <time>2022-12-17T12:35:30.385Z</time>
      </trkpt>
      <trkpt lat="46.99173" lon="-1.81739">
        <ele>43.933834</ele>
        <time>2022-12-17T12:35:33.394Z</time>
      </trkpt>
      <trkpt lat="46.99181" lon="-1.81731">
        <ele>43.933255</ele>
        <time>2022-12-17T12:35:36.385Z</time>
      </trkpt>
      <trkpt lat="46.99189" lon="-1.81719">
        <ele>43.932518</ele>
        <time>2022-12-17T12:35:40.379Z</time>
      </trkpt>
      <trkpt lat="46.99187" lon="-1.81702">
        <ele>43.941516</ele>
        <time>2022-12-17T12:35:44.382Z</time>
      </trkpt>
      <trkpt lat="46.99178" lon="-1.81692">
        <ele>43.992053</ele>
        <time>2022-12-17T12:35:47.388Z</time>
      </trkpt>
      <trkpt lat="46.99168" lon="-1.81681">
        <ele>44.047143</ele>
        <time>2022-12-17T12:35:50.395Z</time>
      </trkpt>
      <trkpt lat="46.99159" lon="-1.81671">
        <ele>44.102414</ele>
        <time>2022-12-17T12:35:53.396Z</time>
      </trkpt>
      <trkpt lat="46.99149" lon="-1.81661">
        <ele>44.1557</ele>
        <time>2022-12-17T12:35:56.393Z</time>
      </trkpt>
      <trkpt lat="46.9914" lon="-1.81651">
        <ele>44.207148</ele>
        <time>2022-12-17T12:35:59.396Z</time>
      </trkpt>
      <trkpt lat="46.9913" lon="-1.81642">
        <ele>44.258101</ele>
        <time>2022-12-17T12:36:02.377Z</time>
      </trkpt>
      <trkpt lat="46.99121" lon="-1.81633">
        <ele>44.307717</ele>
        <time>2022-12-17T12:36:05.399Z</time>
      </trkpt>
      <trkpt lat="46.99113" lon="-1.81625">
        <ele>44.35429</ele>
        <time>2022-12-17T12:36:08.383Z</time>
      </trkpt>
      <trkpt lat="46.99103" lon="-1.81615">
        <ele>44.407204</ele>
        <time>2022-12-17T12:36:12.375Z</time>
      </trkpt>
      <trkpt lat="46.99092" lon="-1.81609">
        <ele>44.460203</ele>
        <time>2022-12-17T12:36:16.388Z</time>
      </trkpt>
      <trkpt lat="46.99083" lon="-1.81603">
        <ele>44.505087</ele>
        <time>2022-12-17T12:36:19.381Z</time>
      </trkpt>
      <trkpt lat="46.99074" lon="-1.81597">
        <ele>44.551553</ele>
        <time>2022-12-17T12:36:22.378Z</time>
      </trkpt>
      <trkpt lat="46.99063" lon="-1.8159">
        <ele>44.603601</ele>
        <time>2022-12-17T12:36:26.381Z</time>
      </trkpt>
      <trkpt lat="46.99055" lon="-1.81583">
        <ele>44.647154</ele>
        <time>2022-12-17T12:36:30.388Z</time>
      </trkpt>
      <trkpt lat="46.99046" lon="-1.81576">
        <ele>44.693216</ele>
        <time>2022-12-17T12:36:36.383Z</time>
      </trkpt>
      <trkpt lat="46.99033" lon="-1.81574">
        <ele>44.748341</ele>
        <time>2022-12-17T12:36:40.393Z</time>
      </trkpt>
      <trkpt lat="46.99023" lon="-1.81572">
        <ele>44.789074</ele>
        <time>2022-12-17T12:36:43.390Z</time>
      </trkpt>
      <trkpt lat="46.99012" lon="-1.81568">
        <ele>44.832164</ele>
        <time>2022-12-17T12:36:46.382Z</time>
      </trkpt>
      <trkpt lat="46.99" lon="-1.81565">
        <ele>44.878363</ele>
        <time>2022-12-17T12:36:49.387Z</time>
      </trkpt>
      <trkpt lat="46.98988" lon="-1.81561">
        <ele>44.926281</ele>
        <time>2022-12-17T12:36:52.377Z</time>
      </trkpt>
      <trkpt lat="46.98975" lon="-1.81556">
        <ele>44.975753</ele>
        <time>2022-12-17T12:36:55.389Z</time>
      </trkpt>
      <trkpt lat="46.98966" lon="-1.81552">
        <ele>45.012193</ele>
        <time>2022-12-17T12:36:57.383Z</time>
      </trkpt>
      <trkpt lat="46.98958" lon="-1.81547">
        <ele>45.048183</ele>
        <time>2022-12-17T12:36:59.395Z</time>
      </trkpt>
      <trkpt lat="46.98949" lon="-1.81542">
        <ele>45.085252</ele>
        <time>2022-12-17T12:37:01.383Z</time>
      </trkpt>
      <trkpt lat="46.98939" lon="-1.81536">
        <ele>45.123827</ele>
        <time>2022-12-17T12:37:03.390Z</time>
      </trkpt>
      <trkpt lat="46.9893" lon="-1.8153">
        <ele>45.161263</ele>
        <time>2022-12-17T12:37:05.385Z</time>
      </trkpt>
      <trkpt lat="46.98921" lon="-1.81524">
        <ele>45.199859</ele>
        <time>2022-12-17T12:37:07.377Z</time>
      </trkpt>
      <trkpt lat="46.98912" lon="-1.81518">
        <ele>45.238892</ele>
        <time>2022-12-17T12:37:09.393Z</time>
      </trkpt>
      <trkpt lat="46.98903" lon="-1.81511">
        <ele>45.278611</ele>
        <time>2022-12-17T12:37:11.390Z</time>
      </trkpt>
      <trkpt lat="46.98893" lon="-1.81505">
        <ele>45.317986</ele>
        <time>2022-12-17T12:37:13.377Z</time>
      </trkpt>
      <trkpt lat="46.98885" lon="-1.81498">
        <ele>45.356153</ele>
        <time>2022-12-17T12:37:15.382Z</time>
      </trkpt>
      <trkpt lat="46.98876" lon="-1.81492">
        <ele>45.393353</ele>
        <time>2022-12-17T12:37:17.393Z</time>
      </trkpt>
      <trkpt lat="46.98868" lon="-1.81485">
        <ele>45.429002</ele>
        <time>2022-12-17T12:37:19.395Z</time>
      </trkpt>
      <trkpt lat="46.9886" lon="-1.81478">
        <ele>45.463631</ele>
        <time>2022-12-17T12:37:21.390Z</time>
      </trkpt>
      <trkpt lat="46.98852" lon="-1.81472">
        <ele>45.497261</ele>
        <time>2022-12-17T12:37:23.389Z</time>
      </trkpt>
      <trkpt lat="46.98843" lon="-1.81466">
        <ele>45.532776</ele>
        <time>2022-12-17T12:37:25.383Z</time>
      </trkpt>
      <trkpt lat="46.98834" lon="-1.81459">
        <ele>45.569404</ele>
        <time>2022-12-17T12:37:27.386Z</time>
      </trkpt>
      <trkpt lat="46.98825" lon="-1.81452">
        <ele>45.609261</ele>
        <time>2022-12-17T12:37:29.388Z</time>
      </trkpt>
      <trkpt lat="46.98815" lon="-1.81446">
        <ele>45.64801</ele>
        <time>2022-12-17T12:37:31.388Z</time>
      </trkpt>
      <trkpt lat="46.98806" lon="-1.81439">
        <ele>45.685739</ele>
        <time>2022-12-17T12:37:33.386Z</time>
      </trkpt>
      <trkpt lat="46.98797" lon="-1.81432">
        <ele>45.723912</ele>
        <time>2022-12-17T12:37:35.388Z</time>
      </trkpt>
      <trkpt lat="46.98788" lon="-1.81425">
        <ele>45.761545</ele>
        <time>2022-12-17T12:37:37.396Z</time>
      </trkpt>
      <trkpt lat="46.98779" lon="-1.81418">
        <ele>45.799048</ele>
        <time>2022-12-17T12:37:39.391Z</time>
      </trkpt>
      <trkpt lat="46.98769" lon="-1.81411">
        <ele>45.839767</ele>
        <time>2022-12-17T12:37:41.397Z</time>
      </trkpt>
      <trkpt lat="46.9876" lon="-1.81404">
        <ele>45.878384</ele>
        <time>2022-12-17T12:37:43.387Z</time>
      </trkpt>
      <trkpt lat="46.9875" lon="-1.81397">
        <ele>45.915999</ele>
        <time>2022-12-17T12:37:45.396Z</time>
      </trkpt>
      <trkpt lat="46.98741" lon="-1.8139">
        <ele>45.955411</ele>
        <time>2022-12-17T12:37:47.381Z</time>
      </trkpt>
      <trkpt lat="46.98732" lon="-1.81383">
        <ele>45.99413</ele>
        <time>2022-12-17T12:37:49.382Z</time>
      </trkpt>
      <trkpt lat="46.98722" lon="-1.81375">
        <ele>46.034029</ele>
        <time>2022-12-17T12:37:51.400Z</time>
      </trkpt>
      <trkpt lat="46.98713" lon="-1.81368">
        <ele>46.072996</ele>
        <time>2022-12-17T12:37:53.394Z</time>
      </trkpt>
      <trkpt lat="46.98704" lon="-1.81361">
        <ele>46.100706</ele>
        <time>2022-12-17T12:37:55.384Z</time>
      </trkpt>
      <trkpt lat="46.98695" lon="-1.81354">
        <ele>46.105658</ele>
        <time>2022-12-17T12:37:57.389Z</time>
      </trkpt>
      <trkpt lat="46.98686" lon="-1.81347">
        <ele>46.110656</ele>
        <time>2022-12-17T12:37:59.388Z</time>
      </trkpt>
      <trkpt lat="46.98676" lon="-1.81341">
        <ele>46.11545</ele>
        <time>2022-12-17T12:38:01.382Z</time>
      </trkpt>
      <trkpt lat="46.98668" lon="-1.81335">
        <ele>46.120072</ele>
        <time>2022-12-17T12:38:03.386Z</time>
      </trkpt>
      <trkpt lat="46.9866" lon="-1.81329">
        <ele>46.124408</ele>
        <time>2022-12-17T12:38:05.384Z</time>
      </trkpt>
      <trkpt lat="46.98649" lon="-1.8132">
        <ele>46.130443</ele>
        <time>2022-12-17T12:38:08.394Z</time>
      </trkpt>
      <trkpt lat="46.98638" lon="-1.81311">
        <ele>46.136311</ele>
        <time>2022-12-17T12:38:11.382Z</time>
      </trkpt>
      <trkpt lat="46.98626" lon="-1.81303">
        <ele>46.14232</ele>
        <time>2022-12-17T12:38:14.390Z</time>
      </trkpt>
      <trkpt lat="46.98615" lon="-1.81294">
        <ele>46.148419</ele>
        <time>2022-12-17T12:38:17.395Z</time>
      </trkpt>
      <trkpt lat="46.98604" lon="-1.81286">
        <ele>46.154529</ele>
        <time>2022-12-17T12:38:20.374Z</time>
      </trkpt>
      <trkpt lat="46.98592" lon="-1.81276">
        <ele>46.160785</ele>
        <time>2022-12-17T12:38:23.378Z</time>
      </trkpt>
      <trkpt lat="46.98581" lon="-1.81267">
        <ele>46.167156</ele>
        <time>2022-12-17T12:38:26.392Z</time>
      </trkpt>
      <trkpt lat="46.98569" lon="-1.81259">
        <ele>46.173353</ele>
        <time>2022-12-17T12:38:29.398Z</time>
      </trkpt>
      <trkpt lat="46.98557" lon="-1.81251">
        <ele>46.179608</ele>
        <time>2022-12-17T12:38:32.382Z</time>
      </trkpt>
      <trkpt lat="46.98546" lon="-1.81243">
        <ele>46.186701</ele>
        <time>2022-12-17T12:38:35.387Z</time>
      </trkpt>
      <trkpt lat="46.98536" lon="-1.81237">
        <ele>46.265258</ele>
        <time>2022-12-17T12:38:38.377Z</time>
      </trkpt>
      <trkpt lat="46.98524" lon="-1.81234">
        <ele>46.346666</ele>
        <time>2022-12-17T12:38:41.388Z</time>
      </trkpt>
      <trkpt lat="46.98513" lon="-1.81233">
        <ele>46.42218</ele>
        <time>2022-12-17T12:38:44.379Z</time>
      </trkpt>
      <trkpt lat="46.98505" lon="-1.81222">
        <ele>46.500267</ele>
        <time>2022-12-17T12:38:47.379Z</time>
      </trkpt>
      <trkpt lat="46.98497" lon="-1.81209">
        <ele>46.581298</ele>
        <time>2022-12-17T12:38:50.381Z</time>
      </trkpt>
      <trkpt lat="46.98488" lon="-1.81198">
        <ele>46.661421</ele>
        <time>2022-12-17T12:38:53.398Z</time>
      </trkpt>
      <trkpt lat="46.98478" lon="-1.81189">
        <ele>46.74557</ele>
        <time>2022-12-17T12:38:56.384Z</time>
      </trkpt>
      <trkpt lat="46.98466" lon="-1.81182">
        <ele>46.833424</ele>
        <time>2022-12-17T12:38:59.388Z</time>
      </trkpt>
      <trkpt lat="46.98454" lon="-1.81173">
        <ele>46.923305</ele>
        <time>2022-12-17T12:39:02.378Z</time>
      </trkpt>
      <trkpt lat="46.98442" lon="-1.81165">
        <ele>47.014629</ele>
        <time>2022-12-17T12:39:05.394Z</time>
      </trkpt>
      <trkpt lat="46.9843" lon="-1.81156">
        <ele>47.107826</ele>
        <time>2022-12-17T12:39:08.394Z</time>
      </trkpt>
      <trkpt lat="46.98422" lon="-1.8115">
        <ele>47.171622</ele>
        <time>2022-12-17T12:39:10.391Z</time>
      </trkpt>
      <trkpt lat="46.98414" lon="-1.81144">
        <ele>47.234576</ele>
        <time>2022-12-17T12:39:12.380Z</time>
      </trkpt>
      <trkpt lat="46.98402" lon="-1.81135">
        <ele>47.327994</ele>
        <time>2022-12-17T12:39:15.387Z</time>
      </trkpt>
      <trkpt lat="46.98394" lon="-1.81129">
        <ele>47.392228</ele>
        <time>2022-12-17T12:39:17.385Z</time>
      </trkpt>
      <trkpt lat="46.98382" lon="-1.8112">
        <ele>47.464152</ele>
        <time>2022-12-17T12:39:20.384Z</time>
      </trkpt>
      <trkpt lat="46.98373" lon="-1.81114">
        <ele>47.502435</ele>
        <time>2022-12-17T12:39:22.378Z</time>
      </trkpt>
      <trkpt lat="46.98362" lon="-1.81105">
        <ele>47.557611</ele>
        <time>2022-12-17T12:39:25.382Z</time>
      </trkpt>
      <trkpt lat="46.98352" lon="-1.81097">
        <ele>47.603365</ele>
        <time>2022-12-17T12:39:28.380Z</time>
      </trkpt>
      <trkpt lat="46.98343" lon="-1.81091">
        <ele>47.64886</ele>
        <time>2022-12-17T12:39:31.387Z</time>
      </trkpt>
      <trkpt lat="46.98332" lon="-1.81083">
        <ele>47.699023</ele>
        <time>2022-12-17T12:39:34.378Z</time>
      </trkpt>
      <trkpt lat="46.98321" lon="-1.81074">
        <ele>47.750705</ele>
        <time>2022-12-17T12:39:37.387Z</time>
      </trkpt>
      <trkpt lat="46.9831" lon="-1.81066">
        <ele>47.804152</ele>
        <time>2022-12-17T12:39:40.390Z</time>
      </trkpt>
      <trkpt lat="46.98298" lon="-1.81057">
        <ele>47.859625</ele>
        <time>2022-12-17T12:39:43.380Z</time>
      </trkpt>
      <trkpt lat="46.98286" lon="-1.81049">
        <ele>47.915088</ele>
        <time>2022-12-17T12:39:46.390Z</time>
      </trkpt>
      <trkpt lat="46.98274" lon="-1.8104">
        <ele>47.971443</ele>
        <time>2022-12-17T12:39:49.384Z</time>
      </trkpt>
      <trkpt lat="46.98263" lon="-1.81031">
        <ele>48.02615</ele>
        <time>2022-12-17T12:39:52.377Z</time>
      </trkpt>
      <trkpt lat="46.98251" lon="-1.81023">
        <ele>48.082246</ele>
        <time>2022-12-17T12:39:55.383Z</time>
      </trkpt>
      <trkpt lat="46.98243" lon="-1.81016">
        <ele>48.121808</ele>
        <time>2022-12-17T12:39:57.391Z</time>
      </trkpt>
      <trkpt lat="46.98235" lon="-1.8101">
        <ele>48.160117</ele>
        <time>2022-12-17T12:39:59.390Z</time>
      </trkpt>
      <trkpt lat="46.98223" lon="-1.81001">
        <ele>48.291404</ele>
        <time>2022-12-17T12:40:02.375Z</time>
      </trkpt>
      <trkpt lat="46.98215" lon="-1.80995">
        <ele>48.432368</ele>
        <time>2022-12-17T12:40:04.390Z</time>
      </trkpt>
      <trkpt lat="46.98204" lon="-1.80987">
        <ele>48.627845</ele>
        <time>2022-12-17T12:40:07.389Z</time>
      </trkpt>
      <trkpt lat="46.98193" lon="-1.80979">
        <ele>48.807471</ele>
        <time>2022-12-17T12:40:10.393Z</time>
      </trkpt>
      <trkpt lat="46.98183" lon="-1.80973">
        <ele>48.978304</ele>
        <time>2022-12-17T12:40:13.378Z</time>
      </trkpt>
      <trkpt lat="46.98174" lon="-1.80965">
        <ele>49.142636</ele>
        <time>2022-12-17T12:40:16.390Z</time>
      </trkpt>
      <trkpt lat="46.98164" lon="-1.80958">
        <ele>49.311526</ele>
        <time>2022-12-17T12:40:19.391Z</time>
      </trkpt>
      <trkpt lat="46.98154" lon="-1.8095">
        <ele>49.487979</ele>
        <time>2022-12-17T12:40:22.378Z</time>
      </trkpt>
      <trkpt lat="46.98144" lon="-1.80943">
        <ele>49.663418</ele>
        <time>2022-12-17T12:40:25.402Z</time>
      </trkpt>
      <trkpt lat="46.98134" lon="-1.80937">
        <ele>49.841804</ele>
        <time>2022-12-17T12:40:28.397Z</time>
      </trkpt>
      <trkpt lat="46.98123" lon="-1.80931">
        <ele>50.019511</ele>
        <time>2022-12-17T12:40:31.385Z</time>
      </trkpt>
      <trkpt lat="46.98113" lon="-1.80926">
        <ele>50.184056</ele>
        <time>2022-12-17T12:40:34.384Z</time>
      </trkpt>
      <trkpt lat="46.98104" lon="-1.8092">
        <ele>50.337272</ele>
        <time>2022-12-17T12:40:37.390Z</time>
      </trkpt>
      <trkpt lat="46.98094" lon="-1.80915">
        <ele>50.495993</ele>
        <time>2022-12-17T12:40:40.388Z</time>
      </trkpt>
      <trkpt lat="46.98084" lon="-1.8091">
        <ele>50.659453</ele>
        <time>2022-12-17T12:40:43.389Z</time>
      </trkpt>
      <trkpt lat="46.98074" lon="-1.80905">
        <ele>50.826006</ele>
        <time>2022-12-17T12:40:46.415Z</time>
      </trkpt>
      <trkpt lat="46.98064" lon="-1.80901">
        <ele>50.98887</ele>
        <time>2022-12-17T12:40:49.389Z</time>
      </trkpt>
      <trkpt lat="46.98054" lon="-1.80896">
        <ele>50.970057</ele>
        <time>2022-12-17T12:40:52.376Z</time>
      </trkpt>
      <trkpt lat="46.98044" lon="-1.80892">
        <ele>50.950551</ele>
        <time>2022-12-17T12:40:55.378Z</time>
      </trkpt>
      <trkpt lat="46.98033" lon="-1.80887">
        <ele>50.929983</ele>
        <time>2022-12-17T12:40:58.384Z</time>
      </trkpt>
      <trkpt lat="46.98021" lon="-1.80882">
        <ele>50.907882</ele>
        <time>2022-12-17T12:41:01.391Z</time>
      </trkpt>
      <trkpt lat="46.98009" lon="-1.80876">
        <ele>50.884731</ele>
        <time>2022-12-17T12:41:04.382Z</time>
      </trkpt>
      <trkpt lat="46.97996" lon="-1.8087">
        <ele>50.860075</ele>
        <time>2022-12-17T12:41:07.390Z</time>
      </trkpt>
      <trkpt lat="46.97987" lon="-1.80867">
        <ele>50.84323</ele>
        <time>2022-12-17T12:41:09.392Z</time>
      </trkpt>
      <trkpt lat="46.97979" lon="-1.80863">
        <ele>50.826245</ele>
        <time>2022-12-17T12:41:11.396Z</time>
      </trkpt>
      <trkpt lat="46.9797" lon="-1.80859">
        <ele>50.809224</ele>
        <time>2022-12-17T12:41:13.386Z</time>
      </trkpt>
      <trkpt lat="46.97957" lon="-1.80853">
        <ele>50.785997</ele>
        <time>2022-12-17T12:41:16.396Z</time>
      </trkpt>
      <trkpt lat="46.97946" lon="-1.80849">
        <ele>50.764696</ele>
        <time>2022-12-17T12:41:19.395Z</time>
      </trkpt>
      <trkpt lat="46.97935" lon="-1.80846">
        <ele>50.744006</ele>
        <time>2022-12-17T12:41:22.375Z</time>
      </trkpt>
      <trkpt lat="46.97923" lon="-1.80842">
        <ele>50.721553</ele>
        <time>2022-12-17T12:41:25.380Z</time>
      </trkpt>
      <trkpt lat="46.9791" lon="-1.80837">
        <ele>50.697507</ele>
        <time>2022-12-17T12:41:28.381Z</time>
      </trkpt>
      <trkpt lat="46.97898" lon="-1.80833">
        <ele>50.674136</ele>
        <time>2022-12-17T12:41:31.393Z</time>
      </trkpt>
      <trkpt lat="46.97886" lon="-1.80828">
        <ele>50.612751</ele>
        <time>2022-12-17T12:41:34.389Z</time>
      </trkpt>
      <trkpt lat="46.97873" lon="-1.80823">
        <ele>50.49482</ele>
        <time>2022-12-17T12:41:37.392Z</time>
      </trkpt>
      <trkpt lat="46.97864" lon="-1.80821">
        <ele>50.408186</ele>
        <time>2022-12-17T12:41:39.390Z</time>
      </trkpt>
      <trkpt lat="46.97854" lon="-1.80819">
        <ele>50.318272</ele>
        <time>2022-12-17T12:41:41.385Z</time>
      </trkpt>
      <trkpt lat="46.97845" lon="-1.80816">
        <ele>50.231753</ele>
        <time>2022-12-17T12:41:43.383Z</time>
      </trkpt>
      <trkpt lat="46.97835" lon="-1.80814">
        <ele>50.136319</ele>
        <time>2022-12-17T12:41:45.400Z</time>
      </trkpt>
      <trkpt lat="46.97824" lon="-1.80813">
        <ele>50.037397</ele>
        <time>2022-12-17T12:41:47.379Z</time>
      </trkpt>
      <trkpt lat="46.97813" lon="-1.80811">
        <ele>49.938913</ele>
        <time>2022-12-17T12:41:49.399Z</time>
      </trkpt>
      <trkpt lat="46.97803" lon="-1.8081">
        <ele>49.843157</ele>
        <time>2022-12-17T12:41:51.400Z</time>
      </trkpt>
      <trkpt lat="46.97793" lon="-1.80809">
        <ele>49.749614</ele>
        <time>2022-12-17T12:41:53.397Z</time>
      </trkpt>
      <trkpt lat="46.97783" lon="-1.8081">
        <ele>49.661271</ele>
        <time>2022-12-17T12:41:55.391Z</time>
      </trkpt>
      <trkpt lat="46.97773" lon="-1.80811">
        <ele>49.572246</ele>
        <time>2022-12-17T12:41:57.380Z</time>
      </trkpt>
      <trkpt lat="46.9776" lon="-1.80813">
        <ele>49.447952</ele>
        <time>2022-12-17T12:42:00.387Z</time>
      </trkpt>
      <trkpt lat="46.9775" lon="-1.80815">
        <ele>49.354774</ele>
        <time>2022-12-17T12:42:02.381Z</time>
      </trkpt>
      <trkpt lat="46.97739" lon="-1.80816">
        <ele>49.260227</ele>
        <time>2022-12-17T12:42:04.396Z</time>
      </trkpt>
      <trkpt lat="46.97729" lon="-1.80818">
        <ele>49.165309</ele>
        <time>2022-12-17T12:42:06.408Z</time>
      </trkpt>
      <trkpt lat="46.97719" lon="-1.8082">
        <ele>49.069743</ele>
        <time>2022-12-17T12:42:08.381Z</time>
      </trkpt>
      <trkpt lat="46.97708" lon="-1.80822">
        <ele>48.985078</ele>
        <time>2022-12-17T12:42:10.380Z</time>
      </trkpt>
      <trkpt lat="46.97698" lon="-1.80824">
        <ele>48.920501</ele>
        <time>2022-12-17T12:42:12.390Z</time>
      </trkpt>
      <trkpt lat="46.97688" lon="-1.80826">
        <ele>48.854433</ele>
        <time>2022-12-17T12:42:14.396Z</time>
      </trkpt>
      <trkpt lat="46.97677" lon="-1.80828">
        <ele>48.786911</ele>
        <time>2022-12-17T12:42:16.409Z</time>
      </trkpt>
      <trkpt lat="46.97666" lon="-1.8083">
        <ele>48.717609</ele>
        <time>2022-12-17T12:42:18.395Z</time>
      </trkpt>
      <trkpt lat="46.97656" lon="-1.80832">
        <ele>48.652021</ele>
        <time>2022-12-17T12:42:20.394Z</time>
      </trkpt>
      <trkpt lat="46.97646" lon="-1.80834">
        <ele>48.586684</ele>
        <time>2022-12-17T12:42:22.380Z</time>
      </trkpt>
      <trkpt lat="46.97636" lon="-1.80836">
        <ele>48.522546</ele>
        <time>2022-12-17T12:42:24.389Z</time>
      </trkpt>
      <trkpt lat="46.97627" lon="-1.80838">
        <ele>48.465157</ele>
        <time>2022-12-17T12:42:26.387Z</time>
      </trkpt>
      <trkpt lat="46.97613" lon="-1.8084">
        <ele>48.380829</ele>
        <time>2022-12-17T12:42:29.393Z</time>
      </trkpt>
      <trkpt lat="46.97601" lon="-1.80843">
        <ele>48.303367</ele>
        <time>2022-12-17T12:42:32.380Z</time>
      </trkpt>
      <trkpt lat="46.97589" lon="-1.80846">
        <ele>48.227352</ele>
        <time>2022-12-17T12:42:35.400Z</time>
      </trkpt>
      <trkpt lat="46.97577" lon="-1.80849">
        <ele>48.145315</ele>
        <time>2022-12-17T12:42:38.411Z</time>
      </trkpt>
      <trkpt lat="46.97564" lon="-1.80851">
        <ele>48.063485</ele>
        <time>2022-12-17T12:42:41.388Z</time>
      </trkpt>
      <trkpt lat="46.97551" lon="-1.80853">
        <ele>47.982688</ele>
        <time>2022-12-17T12:42:44.377Z</time>
      </trkpt>
      <trkpt lat="46.97539" lon="-1.80855">
        <ele>47.907818</ele>
        <time>2022-12-17T12:42:47.399Z</time>
      </trkpt>
      <trkpt lat="46.97529" lon="-1.80855">
        <ele>47.840242</ele>
        <time>2022-12-17T12:42:50.392Z</time>
      </trkpt>
      <trkpt lat="46.9752" lon="-1.80849">
        <ele>47.776185</ele>
        <time>2022-12-17T12:42:53.381Z</time>
      </trkpt>
      <trkpt lat="46.97511" lon="-1.8084">
        <ele>47.699434</ele>
        <time>2022-12-17T12:42:57.388Z</time>
      </trkpt>
      <trkpt lat="46.97502" lon="-1.8083">
        <ele>47.622265</ele>
        <time>2022-12-17T12:43:01.401Z</time>
      </trkpt>
      <trkpt lat="46.97494" lon="-1.80825">
        <ele>47.559769</ele>
        <time>2022-12-17T12:43:04.380Z</time>
      </trkpt>
      <trkpt lat="46.97484" lon="-1.80831">
        <ele>47.487401</ele>
        <time>2022-12-17T12:43:07.380Z</time>
      </trkpt>
      <trkpt lat="46.97474" lon="-1.80841">
        <ele>47.403568</ele>
        <time>2022-12-17T12:43:10.390Z</time>
      </trkpt>
      <trkpt lat="46.97463" lon="-1.80852">
        <ele>47.314305</ele>
        <time>2022-12-17T12:43:13.392Z</time>
      </trkpt>
      <trkpt lat="46.97456" lon="-1.80859">
        <ele>47.251896</ele>
        <time>2022-12-17T12:43:15.401Z</time>
      </trkpt>
      <trkpt lat="46.97449" lon="-1.80868">
        <ele>47.18758</ele>
        <time>2022-12-17T12:43:17.397Z</time>
      </trkpt>
      <trkpt lat="46.97441" lon="-1.80877">
        <ele>47.120768</ele>
        <time>2022-12-17T12:43:19.393Z</time>
      </trkpt>
      <trkpt lat="46.97433" lon="-1.80885">
        <ele>47.054462</ele>
        <time>2022-12-17T12:43:21.386Z</time>
      </trkpt>
      <trkpt lat="46.97425" lon="-1.80892">
        <ele>46.990849</ele>
        <time>2022-12-17T12:43:23.397Z</time>
      </trkpt>
      <trkpt lat="46.97417" lon="-1.80899">
        <ele>46.926151</ele>
        <time>2022-12-17T12:43:25.382Z</time>
      </trkpt>
      <trkpt lat="46.9741" lon="-1.80908">
        <ele>46.860442</ele>
        <time>2022-12-17T12:43:27.380Z</time>
      </trkpt>
      <trkpt lat="46.97401" lon="-1.80916">
        <ele>46.791111</ele>
        <time>2022-12-17T12:43:29.402Z</time>
      </trkpt>
      <trkpt lat="46.97393" lon="-1.80924">
        <ele>46.722075</ele>
        <time>2022-12-17T12:43:31.390Z</time>
      </trkpt>
      <trkpt lat="46.97384" lon="-1.80933">
        <ele>46.651296</ele>
        <time>2022-12-17T12:43:33.392Z</time>
      </trkpt>
      <trkpt lat="46.97376" lon="-1.80941">
        <ele>46.608674</ele>
        <time>2022-12-17T12:43:35.396Z</time>
      </trkpt>
      <trkpt lat="46.97367" lon="-1.8095">
        <ele>46.572648</ele>
        <time>2022-12-17T12:43:37.393Z</time>
      </trkpt>
      <trkpt lat="46.97359" lon="-1.80959">
        <ele>46.535031</ele>
        <time>2022-12-17T12:43:39.390Z</time>
      </trkpt>
      <trkpt lat="46.9735" lon="-1.80967">
        <ele>46.499223</ele>
        <time>2022-12-17T12:43:41.397Z</time>
      </trkpt>
      <trkpt lat="46.97343" lon="-1.80974">
        <ele>46.465593</ele>
        <time>2022-12-17T12:43:43.389Z</time>
      </trkpt>
      <trkpt lat="46.97334" lon="-1.80982">
        <ele>46.43042</ele>
        <time>2022-12-17T12:43:45.394Z</time>
      </trkpt>
      <trkpt lat="46.97326" lon="-1.8099">
        <ele>46.394971</ele>
        <time>2022-12-17T12:43:47.388Z</time>
      </trkpt>
      <trkpt lat="46.97319" lon="-1.80999">
        <ele>46.360395</ele>
        <time>2022-12-17T12:43:49.389Z</time>
      </trkpt>
      <trkpt lat="46.97311" lon="-1.81007">
        <ele>46.324085</ele>
        <time>2022-12-17T12:43:51.389Z</time>
      </trkpt>
      <trkpt lat="46.97302" lon="-1.81016">
        <ele>46.286175</ele>
        <time>2022-12-17T12:43:53.400Z</time>
      </trkpt>
      <trkpt lat="46.97293" lon="-1.81025">
        <ele>46.249258</ele>
        <time>2022-12-17T12:43:55.397Z</time>
      </trkpt>
      <trkpt lat="46.97285" lon="-1.81034">
        <ele>46.211932</ele>
        <time>2022-12-17T12:43:57.384Z</time>
      </trkpt>
      <trkpt lat="46.97277" lon="-1.81044">
        <ele>46.173117</ele>
        <time>2022-12-17T12:43:59.394Z</time>
      </trkpt>
      <trkpt lat="46.97268" lon="-1.81053">
        <ele>46.133177</ele>
        <time>2022-12-17T12:44:01.384Z</time>
      </trkpt>
      <trkpt lat="46.97259" lon="-1.81062">
        <ele>46.094517</ele>
        <time>2022-12-17T12:44:03.403Z</time>
      </trkpt>
      <trkpt lat="46.9725" lon="-1.81072">
        <ele>46.053853</ele>
        <time>2022-12-17T12:44:05.385Z</time>
      </trkpt>
      <trkpt lat="46.97241" lon="-1.81081">
        <ele>46.014784</ele>
        <time>2022-12-17T12:44:07.396Z</time>
      </trkpt>
      <trkpt lat="46.97233" lon="-1.81091">
        <ele>46.026804</ele>
        <time>2022-12-17T12:44:09.385Z</time>
      </trkpt>
      <trkpt lat="46.97224" lon="-1.81101">
        <ele>46.092824</ele>
        <time>2022-12-17T12:44:11.397Z</time>
      </trkpt>
      <trkpt lat="46.97215" lon="-1.8111">
        <ele>46.157632</ele>
        <time>2022-12-17T12:44:13.388Z</time>
      </trkpt>
      <trkpt lat="46.97206" lon="-1.81119">
        <ele>46.22269</ele>
        <time>2022-12-17T12:44:15.395Z</time>
      </trkpt>
      <trkpt lat="46.97198" lon="-1.81128">
        <ele>46.285344</ele>
        <time>2022-12-17T12:44:17.389Z</time>
      </trkpt>
      <trkpt lat="46.97189" lon="-1.81137">
        <ele>46.346778</ele>
        <time>2022-12-17T12:44:19.385Z</time>
      </trkpt>
      <trkpt lat="46.97181" lon="-1.81146">
        <ele>46.41014</ele>
        <time>2022-12-17T12:44:21.394Z</time>
      </trkpt>
      <trkpt lat="46.97172" lon="-1.81155">
        <ele>46.472541</ele>
        <time>2022-12-17T12:44:23.393Z</time>
      </trkpt>
      <trkpt lat="46.97164" lon="-1.81165">
        <ele>46.536172</ele>
        <time>2022-12-17T12:44:25.382Z</time>
      </trkpt>
      <trkpt lat="46.97155" lon="-1.81173">
        <ele>46.59863</ele>
        <time>2022-12-17T12:44:27.388Z</time>
      </trkpt>
      <trkpt lat="46.97146" lon="-1.81181">
        <ele>46.658919</ele>
        <time>2022-12-17T12:44:29.390Z</time>
      </trkpt>
      <trkpt lat="46.97138" lon="-1.81189">
        <ele>46.718429</ele>
        <time>2022-12-17T12:44:31.389Z</time>
      </trkpt>
      <trkpt lat="46.9713" lon="-1.81197">
        <ele>46.775065</ele>
        <time>2022-12-17T12:44:33.394Z</time>
      </trkpt>
      <trkpt lat="46.97123" lon="-1.81206">
        <ele>46.835341</ele>
        <time>2022-12-17T12:44:35.403Z</time>
      </trkpt>
      <trkpt lat="46.97114" lon="-1.81215">
        <ele>46.895089</ele>
        <time>2022-12-17T12:44:37.387Z</time>
      </trkpt>
      <trkpt lat="46.97107" lon="-1.81223">
        <ele>46.951003</ele>
        <time>2022-12-17T12:44:39.392Z</time>
      </trkpt>
      <trkpt lat="46.97099" lon="-1.8123">
        <ele>47.005239</ele>
        <time>2022-12-17T12:44:41.386Z</time>
      </trkpt>
      <trkpt lat="46.97092" lon="-1.81238">
        <ele>47.060663</ele>
        <time>2022-12-17T12:44:43.393Z</time>
      </trkpt>
      <trkpt lat="46.97084" lon="-1.81246">
        <ele>47.135321</ele>
        <time>2022-12-17T12:44:45.393Z</time>
      </trkpt>
      <trkpt lat="46.97075" lon="-1.81253">
        <ele>47.21496</ele>
        <time>2022-12-17T12:44:47.392Z</time>
      </trkpt>
      <trkpt lat="46.97066" lon="-1.8126">
        <ele>47.29484</ele>
        <time>2022-12-17T12:44:49.395Z</time>
      </trkpt>
      <trkpt lat="46.97058" lon="-1.81266">
        <ele>47.367947</ele>
        <time>2022-12-17T12:44:51.400Z</time>
      </trkpt>
      <trkpt lat="46.9705" lon="-1.81272">
        <ele>47.441531</ele>
        <time>2022-12-17T12:44:53.393Z</time>
      </trkpt>
      <trkpt lat="46.97041" lon="-1.81278">
        <ele>47.518521</ele>
        <time>2022-12-17T12:44:55.392Z</time>
      </trkpt>
      <trkpt lat="46.97032" lon="-1.81283">
        <ele>47.596325</ele>
        <time>2022-12-17T12:44:57.397Z</time>
      </trkpt>
      <trkpt lat="46.97023" lon="-1.81289">
        <ele>47.678206</ele>
        <time>2022-12-17T12:44:59.391Z</time>
      </trkpt>
      <trkpt lat="46.97014" lon="-1.81293">
        <ele>47.756686</ele>
        <time>2022-12-17T12:45:01.394Z</time>
      </trkpt>
      <trkpt lat="46.97004" lon="-1.81299">
        <ele>47.838216</ele>
        <time>2022-12-17T12:45:03.411Z</time>
      </trkpt>
      <trkpt lat="46.96996" lon="-1.81303">
        <ele>47.910831</ele>
        <time>2022-12-17T12:45:05.399Z</time>
      </trkpt>
      <trkpt lat="46.96987" lon="-1.81308">
        <ele>47.988193</ele>
        <time>2022-12-17T12:45:07.395Z</time>
      </trkpt>
      <trkpt lat="46.96978" lon="-1.81312">
        <ele>48.06488</ele>
        <time>2022-12-17T12:45:09.388Z</time>
      </trkpt>
      <trkpt lat="46.96969" lon="-1.81316">
        <ele>48.13943</ele>
        <time>2022-12-17T12:45:11.396Z</time>
      </trkpt>
      <trkpt lat="46.96959" lon="-1.8132">
        <ele>48.21861</ele>
        <time>2022-12-17T12:45:13.382Z</time>
      </trkpt>
      <trkpt lat="46.9695" lon="-1.81323">
        <ele>48.294122</ele>
        <time>2022-12-17T12:45:15.389Z</time>
      </trkpt>
      <trkpt lat="46.96941" lon="-1.81327">
        <ele>48.371422</ele>
        <time>2022-12-17T12:45:17.395Z</time>
      </trkpt>
      <trkpt lat="46.96932" lon="-1.8133">
        <ele>48.446427</ele>
        <time>2022-12-17T12:45:19.399Z</time>
      </trkpt>
      <trkpt lat="46.96919" lon="-1.81334">
        <ele>48.528557</ele>
        <time>2022-12-17T12:45:22.379Z</time>
      </trkpt>
      <trkpt lat="46.96908" lon="-1.81338">
        <ele>48.556196</ele>
        <time>2022-12-17T12:45:25.395Z</time>
      </trkpt>
      <trkpt lat="46.96897" lon="-1.81341">
        <ele>48.582455</ele>
        <time>2022-12-17T12:45:28.383Z</time>
      </trkpt>
      <trkpt lat="46.96885" lon="-1.81345">
        <ele>48.610515</ele>
        <time>2022-12-17T12:45:31.391Z</time>
      </trkpt>
      <trkpt lat="46.96873" lon="-1.81349">
        <ele>48.639853</ele>
        <time>2022-12-17T12:45:34.381Z</time>
      </trkpt>
      <trkpt lat="46.9686" lon="-1.81353">
        <ele>48.670927</ele>
        <time>2022-12-17T12:45:37.397Z</time>
      </trkpt>
      <trkpt lat="46.96848" lon="-1.81356">
        <ele>48.701828</ele>
        <time>2022-12-17T12:45:40.390Z</time>
      </trkpt>
      <trkpt lat="46.96835" lon="-1.8136">
        <ele>48.733389</ele>
        <time>2022-12-17T12:45:43.386Z</time>
      </trkpt>
      <trkpt lat="46.96826" lon="-1.81363">
        <ele>48.755236</ele>
        <time>2022-12-17T12:45:45.394Z</time>
      </trkpt>
      <trkpt lat="46.96817" lon="-1.81366">
        <ele>48.776691</ele>
        <time>2022-12-17T12:45:47.397Z</time>
      </trkpt>
      <trkpt lat="46.96808" lon="-1.81369">
        <ele>48.798075</ele>
        <time>2022-12-17T12:45:49.395Z</time>
      </trkpt>
      <trkpt lat="46.96799" lon="-1.81371">
        <ele>48.819623</ele>
        <time>2022-12-17T12:45:51.399Z</time>
      </trkpt>
      <trkpt lat="46.96786" lon="-1.81376">
        <ele>48.85156</ele>
        <time>2022-12-17T12:45:54.401Z</time>
      </trkpt>
      <trkpt lat="46.96773" lon="-1.81381">
        <ele>48.883574</ele>
        <time>2022-12-17T12:45:57.386Z</time>
      </trkpt>
      <trkpt lat="46.96763" lon="-1.81385">
        <ele>48.906897</ele>
        <time>2022-12-17T12:45:59.394Z</time>
      </trkpt>
      <trkpt lat="46.9675" lon="-1.81391">
        <ele>48.938932</ele>
        <time>2022-12-17T12:46:02.382Z</time>
      </trkpt>
      <trkpt lat="46.96739" lon="-1.81395">
        <ele>48.911688</ele>
        <time>2022-12-17T12:46:05.382Z</time>
      </trkpt>
      <trkpt lat="46.96727" lon="-1.814">
        <ele>48.868445</ele>
        <time>2022-12-17T12:46:08.392Z</time>
      </trkpt>
      <trkpt lat="46.96714" lon="-1.81407">
        <ele>48.821604</ele>
        <time>2022-12-17T12:46:11.383Z</time>
      </trkpt>
      <trkpt lat="46.96706" lon="-1.81411">
        <ele>48.789729</ele>
        <time>2022-12-17T12:46:13.383Z</time>
      </trkpt>
      <trkpt lat="46.96697" lon="-1.81415">
        <ele>48.757927</ele>
        <time>2022-12-17T12:46:15.382Z</time>
      </trkpt>
      <trkpt lat="46.96688" lon="-1.81419">
        <ele>48.725792</ele>
        <time>2022-12-17T12:46:17.399Z</time>
      </trkpt>
      <trkpt lat="46.96679" lon="-1.81423">
        <ele>48.693125</ele>
        <time>2022-12-17T12:46:19.403Z</time>
      </trkpt>
      <trkpt lat="46.9667" lon="-1.81429">
        <ele>48.658792</ele>
        <time>2022-12-17T12:46:21.391Z</time>
      </trkpt>
      <trkpt lat="46.96661" lon="-1.81434">
        <ele>48.62481</ele>
        <time>2022-12-17T12:46:23.399Z</time>
      </trkpt>
      <trkpt lat="46.96652" lon="-1.81438">
        <ele>48.591719</ele>
        <time>2022-12-17T12:46:25.379Z</time>
      </trkpt>
      <trkpt lat="46.96643" lon="-1.81442">
        <ele>48.559619</ele>
        <time>2022-12-17T12:46:27.392Z</time>
      </trkpt>
      <trkpt lat="46.96635" lon="-1.81448">
        <ele>48.526849</ele>
        <time>2022-12-17T12:46:29.393Z</time>
      </trkpt>
      <trkpt lat="46.96623" lon="-1.81456">
        <ele>48.48015</ele>
        <time>2022-12-17T12:46:32.382Z</time>
      </trkpt>
      <trkpt lat="46.96611" lon="-1.81465">
        <ele>48.436246</ele>
        <time>2022-12-17T12:46:35.398Z</time>
      </trkpt>
      <trkpt lat="46.96604" lon="-1.81471">
        <ele>48.404646</ele>
        <time>2022-12-17T12:46:37.394Z</time>
      </trkpt>
      <trkpt lat="46.96595" lon="-1.81478">
        <ele>48.371603</ele>
        <time>2022-12-17T12:46:39.390Z</time>
      </trkpt>
      <trkpt lat="46.96587" lon="-1.81486">
        <ele>48.337341</ele>
        <time>2022-12-17T12:46:41.389Z</time>
      </trkpt>
      <trkpt lat="46.96579" lon="-1.81495">
        <ele>48.362096</ele>
        <time>2022-12-17T12:46:43.391Z</time>
      </trkpt>
      <trkpt lat="46.9657" lon="-1.81503">
        <ele>48.466194</ele>
        <time>2022-12-17T12:46:45.399Z</time>
      </trkpt>
      <trkpt lat="46.96562" lon="-1.81511">
        <ele>48.56192</ele>
        <time>2022-12-17T12:46:47.390Z</time>
      </trkpt>
      <trkpt lat="46.96555" lon="-1.81519">
        <ele>48.660092</ele>
        <time>2022-12-17T12:46:49.399Z</time>
      </trkpt>
      <trkpt lat="46.96547" lon="-1.81528">
        <ele>48.756231</ele>
        <time>2022-12-17T12:46:51.398Z</time>
      </trkpt>
      <trkpt lat="46.96539" lon="-1.81536">
        <ele>48.850325</ele>
        <time>2022-12-17T12:46:53.401Z</time>
      </trkpt>
      <trkpt lat="46.96529" lon="-1.81547">
        <ele>48.98028</ele>
        <time>2022-12-17T12:46:56.394Z</time>
      </trkpt>
      <trkpt lat="46.9652" lon="-1.81556">
        <ele>49.094333</ele>
        <time>2022-12-17T12:46:59.390Z</time>
      </trkpt>
      <trkpt lat="46.96511" lon="-1.81566">
        <ele>49.206353</ele>
        <time>2022-12-17T12:47:02.381Z</time>
      </trkpt>
      <trkpt lat="46.96502" lon="-1.81576">
        <ele>49.316342</ele>
        <time>2022-12-17T12:47:05.379Z</time>
      </trkpt>
      <trkpt lat="46.96494" lon="-1.81585">
        <ele>49.421842</ele>
        <time>2022-12-17T12:47:08.402Z</time>
      </trkpt>
      <trkpt lat="46.96486" lon="-1.81593">
        <ele>49.515581</ele>
        <time>2022-12-17T12:47:11.398Z</time>
      </trkpt>
      <trkpt lat="46.96477" lon="-1.81603">
        <ele>49.631288</ele>
        <time>2022-12-17T12:47:15.388Z</time>
      </trkpt>
      <trkpt lat="46.96469" lon="-1.81612">
        <ele>49.732332</ele>
        <time>2022-12-17T12:47:19.405Z</time>
      </trkpt>
      <trkpt lat="46.96462" lon="-1.81619">
        <ele>49.824869</ele>
        <time>2022-12-17T12:47:23.384Z</time>
      </trkpt>
      <trkpt lat="46.96452" lon="-1.81628">
        <ele>49.93988</ele>
        <time>2022-12-17T12:47:27.392Z</time>
      </trkpt>
      <trkpt lat="46.96444" lon="-1.81634">
        <ele>50.031045</ele>
        <time>2022-12-17T12:47:30.383Z</time>
      </trkpt>
      <trkpt lat="46.96433" lon="-1.81642">
        <ele>50.18972</ele>
        <time>2022-12-17T12:47:34.380Z</time>
      </trkpt>
      <trkpt lat="46.96424" lon="-1.81648">
        <ele>50.478116</ele>
        <time>2022-12-17T12:47:37.383Z</time>
      </trkpt>
      <trkpt lat="46.96416" lon="-1.81655">
        <ele>50.750949</ele>
        <time>2022-12-17T12:47:40.388Z</time>
      </trkpt>
      <trkpt lat="46.96408" lon="-1.81661">
        <ele>51.02613</ele>
        <time>2022-12-17T12:47:43.384Z</time>
      </trkpt>
      <trkpt lat="46.96399" lon="-1.81666">
        <ele>51.303168</ele>
        <time>2022-12-17T12:47:46.378Z</time>
      </trkpt>
      <trkpt lat="46.9639" lon="-1.81671">
        <ele>51.579588</ele>
        <time>2022-12-17T12:47:49.398Z</time>
      </trkpt>
      <trkpt lat="46.9638" lon="-1.81677">
        <ele>51.907887</ele>
        <time>2022-12-17T12:47:53.399Z</time>
      </trkpt>
      <trkpt lat="46.96369" lon="-1.81683">
        <ele>52.255561</ele>
        <time>2022-12-17T12:47:57.392Z</time>
      </trkpt>
      <trkpt lat="46.9636" lon="-1.81688">
        <ele>52.527927</ele>
        <time>2022-12-17T12:48:00.394Z</time>
      </trkpt>
      <trkpt lat="46.96351" lon="-1.81693">
        <ele>52.805084</ele>
        <time>2022-12-17T12:48:03.381Z</time>
      </trkpt>
      <trkpt lat="46.96343" lon="-1.81698">
        <ele>53.082211</ele>
        <time>2022-12-17T12:48:06.396Z</time>
      </trkpt>
      <trkpt lat="46.96333" lon="-1.81702">
        <ele>53.36625</ele>
        <time>2022-12-17T12:48:09.405Z</time>
      </trkpt>
      <trkpt lat="46.96324" lon="-1.81707">
        <ele>53.667546</ele>
        <time>2022-12-17T12:48:12.379Z</time>
      </trkpt>
      <trkpt lat="46.96314" lon="-1.81714">
        <ele>53.981779</ele>
        <time>2022-12-17T12:48:15.383Z</time>
      </trkpt>
      <trkpt lat="46.96304" lon="-1.8172">
        <ele>54.303368</ele>
        <time>2022-12-17T12:48:18.381Z</time>
      </trkpt>
      <trkpt lat="46.96294" lon="-1.81726">
        <ele>54.624958</ele>
        <time>2022-12-17T12:48:21.384Z</time>
      </trkpt>
      <trkpt lat="46.96283" lon="-1.81732">
        <ele>54.957464</ele>
        <time>2022-12-17T12:48:24.381Z</time>
      </trkpt>
      <trkpt lat="46.96273" lon="-1.81738">
        <ele>55.277112</ele>
        <time>2022-12-17T12:48:27.400Z</time>
      </trkpt>
      <trkpt lat="46.96263" lon="-1.81745">
        <ele>55.584951</ele>
        <time>2022-12-17T12:48:30.396Z</time>
      </trkpt>
      <trkpt lat="46.96253" lon="-1.81751">
        <ele>55.869198</ele>
        <time>2022-12-17T12:48:33.383Z</time>
      </trkpt>
      <trkpt lat="46.96244" lon="-1.81757">
        <ele>56.146142</ele>
        <time>2022-12-17T12:48:36.379Z</time>
      </trkpt>
      <trkpt lat="46.96235" lon="-1.81763">
        <ele>56.40784</ele>
        <time>2022-12-17T12:48:39.399Z</time>
      </trkpt>
      <trkpt lat="46.96226" lon="-1.81769">
        <ele>56.663227</ele>
        <time>2022-12-17T12:48:42.380Z</time>
      </trkpt>
      <trkpt lat="46.96217" lon="-1.81774">
        <ele>56.912597</ele>
        <time>2022-12-17T12:48:45.387Z</time>
      </trkpt>
      <trkpt lat="46.96209" lon="-1.8178">
        <ele>57.156849</ele>
        <time>2022-12-17T12:48:48.384Z</time>
      </trkpt>
      <trkpt lat="46.962" lon="-1.81785">
        <ele>57.399949</ele>
        <time>2022-12-17T12:48:51.383Z</time>
      </trkpt>
      <trkpt lat="46.96192" lon="-1.81791">
        <ele>57.655597</ele>
        <time>2022-12-17T12:48:54.389Z</time>
      </trkpt>
      <trkpt lat="46.96182" lon="-1.81795">
        <ele>57.912194</ele>
        <time>2022-12-17T12:48:57.388Z</time>
      </trkpt>
      <trkpt lat="46.96173" lon="-1.818">
        <ele>58.174492</ele>
        <time>2022-12-17T12:49:00.383Z</time>
      </trkpt>
      <trkpt lat="46.96164" lon="-1.81804">
        <ele>58.436102</ele>
        <time>2022-12-17T12:49:03.388Z</time>
      </trkpt>
      <trkpt lat="46.96154" lon="-1.81807">
        <ele>58.68379</ele>
        <time>2022-12-17T12:49:06.382Z</time>
      </trkpt>
      <trkpt lat="46.96145" lon="-1.8181">
        <ele>58.938412</ele>
        <time>2022-12-17T12:49:09.390Z</time>
      </trkpt>
      <trkpt lat="46.96135" lon="-1.81813">
        <ele>59.201177</ele>
        <time>2022-12-17T12:49:12.382Z</time>
      </trkpt>
      <trkpt lat="46.96125" lon="-1.81816">
        <ele>59.474048</ele>
        <time>2022-12-17T12:49:15.392Z</time>
      </trkpt>
      <trkpt lat="46.96115" lon="-1.81817">
        <ele>59.753846</ele>
        <time>2022-12-17T12:49:18.385Z</time>
      </trkpt>
      <trkpt lat="46.96103" lon="-1.81819">
        <ele>60.062055</ele>
        <time>2022-12-17T12:49:22.385Z</time>
      </trkpt>
      <trkpt lat="46.96092" lon="-1.81821">
        <ele>60.146644</ele>
        <time>2022-12-17T12:49:26.403Z</time>
      </trkpt>
      <trkpt lat="46.96082" lon="-1.81822">
        <ele>60.084984</ele>
        <time>2022-12-17T12:49:29.396Z</time>
      </trkpt>
      <trkpt lat="46.96072" lon="-1.81823">
        <ele>60.022661</ele>
        <time>2022-12-17T12:49:32.388Z</time>
      </trkpt>
      <trkpt lat="46.96061" lon="-1.81825">
        <ele>59.954501</ele>
        <time>2022-12-17T12:49:35.404Z</time>
      </trkpt>
      <trkpt lat="46.9605" lon="-1.81827">
        <ele>59.884522</ele>
        <time>2022-12-17T12:49:38.386Z</time>
      </trkpt>
      <trkpt lat="46.96039" lon="-1.81829">
        <ele>59.817552</ele>
        <time>2022-12-17T12:49:41.400Z</time>
      </trkpt>
      <trkpt lat="46.96029" lon="-1.81832">
        <ele>59.750752</ele>
        <time>2022-12-17T12:49:44.395Z</time>
      </trkpt>
      <trkpt lat="46.96017" lon="-1.81835">
        <ele>59.676941</ele>
        <time>2022-12-17T12:49:47.400Z</time>
      </trkpt>
      <trkpt lat="46.96005" lon="-1.81839">
        <ele>59.597646</ele>
        <time>2022-12-17T12:49:50.408Z</time>
      </trkpt>
      <trkpt lat="46.95992" lon="-1.81843">
        <ele>59.517473</ele>
        <time>2022-12-17T12:49:53.392Z</time>
      </trkpt>
      <trkpt lat="46.95979" lon="-1.81847">
        <ele>59.434178</ele>
        <time>2022-12-17T12:49:56.387Z</time>
      </trkpt>
      <trkpt lat="46.95971" lon="-1.81851">
        <ele>59.377258</ele>
        <time>2022-12-17T12:49:58.381Z</time>
      </trkpt>
      <trkpt lat="46.95962" lon="-1.81855">
        <ele>59.319587</ele>
        <time>2022-12-17T12:50:00.398Z</time>
      </trkpt>
      <trkpt lat="46.95953" lon="-1.81859">
        <ele>59.259405</ele>
        <time>2022-12-17T12:50:02.394Z</time>
      </trkpt>
      <trkpt lat="46.95943" lon="-1.81864">
        <ele>59.193788</ele>
        <time>2022-12-17T12:50:04.382Z</time>
      </trkpt>
      <trkpt lat="46.95935" lon="-1.8187">
        <ele>59.136349</ele>
        <time>2022-12-17T12:50:06.399Z</time>
      </trkpt>
      <trkpt lat="46.95925" lon="-1.81875">
        <ele>59.075154</ele>
        <time>2022-12-17T12:50:08.382Z</time>
      </trkpt>
      <trkpt lat="46.95917" lon="-1.8188">
        <ele>59.08827</ele>
        <time>2022-12-17T12:50:10.396Z</time>
      </trkpt>
      <trkpt lat="46.95908" lon="-1.81885">
        <ele>59.122103</ele>
        <time>2022-12-17T12:50:12.392Z</time>
      </trkpt>
      <trkpt lat="46.959" lon="-1.8189">
        <ele>59.154741</ele>
        <time>2022-12-17T12:50:14.383Z</time>
      </trkpt>
      <trkpt lat="46.95891" lon="-1.81895">
        <ele>59.187326</ele>
        <time>2022-12-17T12:50:16.381Z</time>
      </trkpt>
      <trkpt lat="46.95879" lon="-1.81903">
        <ele>59.233785</ele>
        <time>2022-12-17T12:50:19.396Z</time>
      </trkpt>
      <trkpt lat="46.95868" lon="-1.8191">
        <ele>59.277184</ele>
        <time>2022-12-17T12:50:22.382Z</time>
      </trkpt>
      <trkpt lat="46.95857" lon="-1.81917">
        <ele>59.320849</ele>
        <time>2022-12-17T12:50:25.382Z</time>
      </trkpt>
      <trkpt lat="46.95846" lon="-1.81925">
        <ele>59.364661</ele>
        <time>2022-12-17T12:50:28.380Z</time>
      </trkpt>
      <trkpt lat="46.95835" lon="-1.81934">
        <ele>59.411517</ele>
        <time>2022-12-17T12:50:31.382Z</time>
      </trkpt>
      <trkpt lat="46.95823" lon="-1.81943">
        <ele>59.459831</ele>
        <time>2022-12-17T12:50:34.382Z</time>
      </trkpt>
      <trkpt lat="46.95815" lon="-1.81949">
        <ele>59.492231</ele>
        <time>2022-12-17T12:50:36.388Z</time>
      </trkpt>
      <trkpt lat="46.95807" lon="-1.81956">
        <ele>59.524793</ele>
        <time>2022-12-17T12:50:38.386Z</time>
      </trkpt>
      <trkpt lat="46.95799" lon="-1.81963">
        <ele>59.55859</ele>
        <time>2022-12-17T12:50:40.398Z</time>
      </trkpt>
      <trkpt lat="46.95788" lon="-1.81972">
        <ele>59.604605</ele>
        <time>2022-12-17T12:50:43.402Z</time>
      </trkpt>
      <trkpt lat="46.95776" lon="-1.81982">
        <ele>59.653508</ele>
        <time>2022-12-17T12:50:46.381Z</time>
      </trkpt>
      <trkpt lat="46.95768" lon="-1.81988">
        <ele>59.686817</ele>
        <time>2022-12-17T12:50:48.391Z</time>
      </trkpt>
      <trkpt lat="46.95759" lon="-1.81995">
        <ele>59.746103</ele>
        <time>2022-12-17T12:50:50.393Z</time>
      </trkpt>
      <trkpt lat="46.95751" lon="-1.82001">
        <ele>59.839528</ele>
        <time>2022-12-17T12:50:52.384Z</time>
      </trkpt>
      <trkpt lat="46.95743" lon="-1.82008">
        <ele>59.9436</ele>
        <time>2022-12-17T12:50:54.392Z</time>
      </trkpt>
      <trkpt lat="46.95735" lon="-1.82015">
        <ele>60.040807</ele>
        <time>2022-12-17T12:50:56.390Z</time>
      </trkpt>
      <trkpt lat="46.95723" lon="-1.82024">
        <ele>60.173621</ele>
        <time>2022-12-17T12:50:59.402Z</time>
      </trkpt>
      <trkpt lat="46.95713" lon="-1.82033">
        <ele>60.299683</ele>
        <time>2022-12-17T12:51:02.381Z</time>
      </trkpt>
      <trkpt lat="46.95701" lon="-1.82042">
        <ele>60.438356</ele>
        <time>2022-12-17T12:51:05.403Z</time>
      </trkpt>
      <trkpt lat="46.95693" lon="-1.82049">
        <ele>60.535117</ele>
        <time>2022-12-17T12:51:07.400Z</time>
      </trkpt>
      <trkpt lat="46.95685" lon="-1.82055">
        <ele>60.637244</ele>
        <time>2022-12-17T12:51:09.386Z</time>
      </trkpt>
      <trkpt lat="46.95677" lon="-1.82063">
        <ele>60.735737</ele>
        <time>2022-12-17T12:51:11.392Z</time>
      </trkpt>
      <trkpt lat="46.95669" lon="-1.82069">
        <ele>60.831574</ele>
        <time>2022-12-17T12:51:13.400Z</time>
      </trkpt>
      <trkpt lat="46.9566" lon="-1.82075">
        <ele>60.931123</ele>
        <time>2022-12-17T12:51:15.390Z</time>
      </trkpt>
      <trkpt lat="46.95649" lon="-1.82086">
        <ele>61.069316</ele>
        <time>2022-12-17T12:51:18.400Z</time>
      </trkpt>
      <trkpt lat="46.95639" lon="-1.82095">
        <ele>61.19398</ele>
        <time>2022-12-17T12:51:21.404Z</time>
      </trkpt>
      <trkpt lat="46.9563" lon="-1.82104">
        <ele>61.306189</ele>
        <time>2022-12-17T12:51:24.396Z</time>
      </trkpt>
      <trkpt lat="46.9562" lon="-1.82114">
        <ele>61.428853</ele>
        <time>2022-12-17T12:51:27.398Z</time>
      </trkpt>
      <trkpt lat="46.9561" lon="-1.82124">
        <ele>61.562173</ele>
        <time>2022-12-17T12:51:30.402Z</time>
      </trkpt>
      <trkpt lat="46.95599" lon="-1.82135">
        <ele>61.436888</ele>
        <time>2022-12-17T12:51:33.399Z</time>
      </trkpt>
      <trkpt lat="46.95592" lon="-1.82143">
        <ele>61.302843</ele>
        <time>2022-12-17T12:51:35.396Z</time>
      </trkpt>
      <trkpt lat="46.95584" lon="-1.82151">
        <ele>61.170554</ele>
        <time>2022-12-17T12:51:37.390Z</time>
      </trkpt>
      <trkpt lat="46.95577" lon="-1.82159">
        <ele>61.037104</ele>
        <time>2022-12-17T12:51:39.389Z</time>
      </trkpt>
      <trkpt lat="46.95569" lon="-1.82166">
        <ele>60.905025</ele>
        <time>2022-12-17T12:51:41.389Z</time>
      </trkpt>
      <trkpt lat="46.95558" lon="-1.82178">
        <ele>60.708311</ele>
        <time>2022-12-17T12:51:44.403Z</time>
      </trkpt>
      <trkpt lat="46.9555" lon="-1.82186">
        <ele>60.570798</ele>
        <time>2022-12-17T12:51:46.401Z</time>
      </trkpt>
      <trkpt lat="46.95542" lon="-1.82194">
        <ele>60.437334</ele>
        <time>2022-12-17T12:51:48.396Z</time>
      </trkpt>
      <trkpt lat="46.95534" lon="-1.82202">
        <ele>60.298571</ele>
        <time>2022-12-17T12:51:50.399Z</time>
      </trkpt>
      <trkpt lat="46.95527" lon="-1.82209">
        <ele>60.163291</ele>
        <time>2022-12-17T12:51:52.386Z</time>
      </trkpt>
      <trkpt lat="46.95519" lon="-1.82217">
        <ele>60.025616</ele>
        <time>2022-12-17T12:51:54.393Z</time>
      </trkpt>
      <trkpt lat="46.95511" lon="-1.82226">
        <ele>59.885796</ele>
        <time>2022-12-17T12:51:56.396Z</time>
      </trkpt>
      <trkpt lat="46.95503" lon="-1.82234">
        <ele>59.747712</ele>
        <time>2022-12-17T12:51:58.393Z</time>
      </trkpt>
      <trkpt lat="46.95495" lon="-1.82242">
        <ele>59.612432</ele>
        <time>2022-12-17T12:52:00.392Z</time>
      </trkpt>
      <trkpt lat="46.95488" lon="-1.8225">
        <ele>59.475502</ele>
        <time>2022-12-17T12:52:02.382Z</time>
      </trkpt>
      <trkpt lat="46.95477" lon="-1.82261">
        <ele>59.293333</ele>
        <time>2022-12-17T12:52:05.397Z</time>
      </trkpt>
      <trkpt lat="46.95467" lon="-1.82273">
        <ele>59.101795</ele>
        <time>2022-12-17T12:52:08.395Z</time>
      </trkpt>
      <trkpt lat="46.9546" lon="-1.82282">
        <ele>59.011712</ele>
        <time>2022-12-17T12:52:10.406Z</time>
      </trkpt>
      <trkpt lat="46.95449" lon="-1.82295">
        <ele>59.073672</ele>
        <time>2022-12-17T12:52:13.381Z</time>
      </trkpt>
      <trkpt lat="46.95441" lon="-1.82305">
        <ele>59.119855</ele>
        <time>2022-12-17T12:52:15.382Z</time>
      </trkpt>
      <trkpt lat="46.95435" lon="-1.82315">
        <ele>59.16385</ele>
        <time>2022-12-17T12:52:17.384Z</time>
      </trkpt>
      <trkpt lat="46.95428" lon="-1.82325">
        <ele>59.206983</ele>
        <time>2022-12-17T12:52:19.398Z</time>
      </trkpt>
      <trkpt lat="46.95421" lon="-1.82336">
        <ele>59.251851</ele>
        <time>2022-12-17T12:52:21.399Z</time>
      </trkpt>
      <trkpt lat="46.95415" lon="-1.82348">
        <ele>59.298747</ele>
        <time>2022-12-17T12:52:23.394Z</time>
      </trkpt>
      <trkpt lat="46.95408" lon="-1.8236">
        <ele>59.343884</ele>
        <time>2022-12-17T12:52:25.389Z</time>
      </trkpt>
      <trkpt lat="46.95402" lon="-1.82371">
        <ele>59.38882</ele>
        <time>2022-12-17T12:52:27.389Z</time>
      </trkpt>
      <trkpt lat="46.95396" lon="-1.82382">
        <ele>59.432894</ele>
        <time>2022-12-17T12:52:29.387Z</time>
      </trkpt>
      <trkpt lat="46.9539" lon="-1.82394">
        <ele>59.477238</ele>
        <time>2022-12-17T12:52:31.399Z</time>
      </trkpt>
      <trkpt lat="46.95384" lon="-1.82406">
        <ele>59.523134</ele>
        <time>2022-12-17T12:52:33.391Z</time>
      </trkpt>
      <trkpt lat="46.95378" lon="-1.82416">
        <ele>59.564851</ele>
        <time>2022-12-17T12:52:35.387Z</time>
      </trkpt>
      <trkpt lat="46.95372" lon="-1.82427">
        <ele>59.608165</ele>
        <time>2022-12-17T12:52:37.398Z</time>
      </trkpt>
      <trkpt lat="46.95366" lon="-1.82438">
        <ele>59.651025</ele>
        <time>2022-12-17T12:52:39.391Z</time>
      </trkpt>
      <trkpt lat="46.9536" lon="-1.8245">
        <ele>59.694682</ele>
        <time>2022-12-17T12:52:41.395Z</time>
      </trkpt>
      <trkpt lat="46.95354" lon="-1.82461">
        <ele>59.738819</ele>
        <time>2022-12-17T12:52:43.409Z</time>
      </trkpt>
      <trkpt lat="46.95348" lon="-1.82472">
        <ele>59.780614</ele>
        <time>2022-12-17T12:52:45.386Z</time>
      </trkpt>
      <trkpt lat="46.95342" lon="-1.82483">
        <ele>59.796474</ele>
        <time>2022-12-17T12:52:47.386Z</time>
      </trkpt>
      <trkpt lat="46.95336" lon="-1.82494">
        <ele>59.76675</ele>
        <time>2022-12-17T12:52:49.392Z</time>
      </trkpt>
      <trkpt lat="46.9533" lon="-1.82505">
        <ele>59.737511</ele>
        <time>2022-12-17T12:52:51.398Z</time>
      </trkpt>
      <trkpt lat="46.95324" lon="-1.82516">
        <ele>59.70908</ele>
        <time>2022-12-17T12:52:53.382Z</time>
      </trkpt>
      <trkpt lat="46.95319" lon="-1.82526">
        <ele>59.681423</ele>
        <time>2022-12-17T12:52:55.397Z</time>
      </trkpt>
      <trkpt lat="46.9531" lon="-1.82541">
        <ele>59.642587</ele>
        <time>2022-12-17T12:52:58.397Z</time>
      </trkpt>
      <trkpt lat="46.95302" lon="-1.82553">
        <ele>59.606694</ele>
        <time>2022-12-17T12:53:01.392Z</time>
      </trkpt>
      <trkpt lat="46.95295" lon="-1.82566">
        <ele>59.571829</ele>
        <time>2022-12-17T12:53:04.403Z</time>
      </trkpt>
      <trkpt lat="46.95287" lon="-1.82579">
        <ele>59.535727</ele>
        <time>2022-12-17T12:53:07.394Z</time>
      </trkpt>
      <trkpt lat="46.95279" lon="-1.82591">
        <ele>59.498708</ele>
        <time>2022-12-17T12:53:10.403Z</time>
      </trkpt>
      <trkpt lat="46.95271" lon="-1.82605">
        <ele>59.462563</ele>
        <time>2022-12-17T12:53:13.390Z</time>
      </trkpt>
      <trkpt lat="46.95266" lon="-1.82619">
        <ele>59.42811</ele>
        <time>2022-12-17T12:53:16.387Z</time>
      </trkpt>
      <trkpt lat="46.95259" lon="-1.82631">
        <ele>59.396345</ele>
        <time>2022-12-17T12:53:19.382Z</time>
      </trkpt>
      <trkpt lat="46.95254" lon="-1.82642">
        <ele>59.368716</ele>
        <time>2022-12-17T12:53:22.387Z</time>
      </trkpt>
      <trkpt lat="46.95246" lon="-1.82651">
        <ele>59.337915</ele>
        <time>2022-12-17T12:53:26.402Z</time>
      </trkpt>
      <trkpt lat="46.9524" lon="-1.82661">
        <ele>59.31071</ele>
        <time>2022-12-17T12:53:51.605Z</time>
      </trkpt>
      <trkpt lat="46.95227" lon="-1.82666">
        <ele>59.268356</ele>
        <time>2022-12-17T13:06:30.398Z</time>
      </trkpt>
      <trkpt lat="46.95218" lon="-1.82678">
        <ele>59.291706</ele>
        <time>2022-12-17T13:06:34.398Z</time>
      </trkpt>
      <trkpt lat="46.9521" lon="-1.82686">
        <ele>59.326092</ele>
        <time>2022-12-17T13:06:37.390Z</time>
      </trkpt>
      <trkpt lat="46.952" lon="-1.82691">
        <ele>59.363889</ele>
        <time>2022-12-17T13:06:40.402Z</time>
      </trkpt>
      <trkpt lat="46.95191" lon="-1.82695">
        <ele>59.399186</ele>
        <time>2022-12-17T13:06:43.403Z</time>
      </trkpt>
      <trkpt lat="46.95182" lon="-1.82699">
        <ele>59.434975</ele>
        <time>2022-12-17T13:06:46.399Z</time>
      </trkpt>
      <trkpt lat="46.95172" lon="-1.82705">
        <ele>59.472716</ele>
        <time>2022-12-17T13:06:49.408Z</time>
      </trkpt>
      <trkpt lat="46.95162" lon="-1.82711">
        <ele>59.512376</ele>
        <time>2022-12-17T13:06:52.391Z</time>
      </trkpt>
      <trkpt lat="46.95152" lon="-1.82718">
        <ele>59.550589</ele>
        <time>2022-12-17T13:06:55.403Z</time>
      </trkpt>
      <trkpt lat="46.95142" lon="-1.82724">
        <ele>59.590151</ele>
        <time>2022-12-17T13:06:58.392Z</time>
      </trkpt>
      <trkpt lat="46.95132" lon="-1.82731">
        <ele>59.630716</ele>
        <time>2022-12-17T13:07:01.407Z</time>
      </trkpt>
      <trkpt lat="46.95122" lon="-1.82736">
        <ele>59.671927</ele>
        <time>2022-12-17T13:07:04.408Z</time>
      </trkpt>
      <trkpt lat="46.9511" lon="-1.82742">
        <ele>59.715787</ele>
        <time>2022-12-17T13:07:07.398Z</time>
      </trkpt>
      <trkpt lat="46.95099" lon="-1.82749">
        <ele>59.75905</ele>
        <time>2022-12-17T13:07:10.399Z</time>
      </trkpt>
      <trkpt lat="46.95088" lon="-1.82755">
        <ele>59.803586</ele>
        <time>2022-12-17T13:07:13.400Z</time>
      </trkpt>
      <trkpt lat="46.95076" lon="-1.82761">
        <ele>59.848474</ele>
        <time>2022-12-17T13:07:16.406Z</time>
      </trkpt>
      <trkpt lat="46.95065" lon="-1.82768">
        <ele>59.891675</ele>
        <time>2022-12-17T13:07:19.396Z</time>
      </trkpt>
      <trkpt lat="46.95054" lon="-1.82774">
        <ele>59.972731</ele>
        <time>2022-12-17T13:07:22.388Z</time>
      </trkpt>
      <trkpt lat="46.95044" lon="-1.82781">
        <ele>60.08988</ele>
        <time>2022-12-17T13:07:25.400Z</time>
      </trkpt>
      <trkpt lat="46.95034" lon="-1.82789">
        <ele>60.207006</ele>
        <time>2022-12-17T13:07:28.409Z</time>
      </trkpt>
      <trkpt lat="46.95024" lon="-1.82795">
        <ele>60.318587</ele>
        <time>2022-12-17T13:07:31.398Z</time>
      </trkpt>
      <trkpt lat="46.95015" lon="-1.82802">
        <ele>60.421902</ele>
        <time>2022-12-17T13:07:34.394Z</time>
      </trkpt>
      <trkpt lat="46.95007" lon="-1.82809">
        <ele>60.520366</ele>
        <time>2022-12-17T13:07:37.393Z</time>
      </trkpt>
      <trkpt lat="46.94999" lon="-1.82816">
        <ele>60.614076</ele>
        <time>2022-12-17T13:07:40.393Z</time>
      </trkpt>
      <trkpt lat="46.94991" lon="-1.82822">
        <ele>60.708613</ele>
        <time>2022-12-17T13:07:43.408Z</time>
      </trkpt>
      <trkpt lat="46.94983" lon="-1.82829">
        <ele>60.802796</ele>
        <time>2022-12-17T13:07:46.401Z</time>
      </trkpt>
      <trkpt lat="46.94975" lon="-1.82836">
        <ele>60.901609</ele>
        <time>2022-12-17T13:07:49.394Z</time>
      </trkpt>
      <trkpt lat="46.94966" lon="-1.82843">
        <ele>61.002913</ele>
        <time>2022-12-17T13:07:52.392Z</time>
      </trkpt>
      <trkpt lat="46.94958" lon="-1.8285">
        <ele>61.10408</ele>
        <time>2022-12-17T13:07:55.398Z</time>
      </trkpt>
      <trkpt lat="46.94949" lon="-1.82857">
        <ele>61.2073</ele>
        <time>2022-12-17T13:07:58.408Z</time>
      </trkpt>
      <trkpt lat="46.9494" lon="-1.82863">
        <ele>61.308467</ele>
        <time>2022-12-17T13:08:01.397Z</time>
      </trkpt>
      <trkpt lat="46.94932" lon="-1.82869">
        <ele>61.403981</ele>
        <time>2022-12-17T13:08:04.409Z</time>
      </trkpt>
      <trkpt lat="46.94923" lon="-1.82875">
        <ele>61.502311</ele>
        <time>2022-12-17T13:08:07.394Z</time>
      </trkpt>
      <trkpt lat="46.94913" lon="-1.82881">
        <ele>61.611363</ele>
        <time>2022-12-17T13:08:10.403Z</time>
      </trkpt>
      <trkpt lat="46.94904" lon="-1.82886">
        <ele>61.719194</ele>
        <time>2022-12-17T13:08:13.401Z</time>
      </trkpt>
      <trkpt lat="46.94893" lon="-1.82892">
        <ele>61.754945</ele>
        <time>2022-12-17T13:08:16.391Z</time>
      </trkpt>
      <trkpt lat="46.94883" lon="-1.82898">
        <ele>61.730988</ele>
        <time>2022-12-17T13:08:19.397Z</time>
      </trkpt>
      <trkpt lat="46.94871" lon="-1.82905">
        <ele>61.703889</ele>
        <time>2022-12-17T13:08:22.390Z</time>
      </trkpt>
      <trkpt lat="46.94859" lon="-1.82911">
        <ele>61.67543</ele>
        <time>2022-12-17T13:08:25.411Z</time>
      </trkpt>
      <trkpt lat="46.9485" lon="-1.82916">
        <ele>61.655062</ele>
        <time>2022-12-17T13:08:27.409Z</time>
      </trkpt>
      <trkpt lat="46.94841" lon="-1.82921">
        <ele>61.635502</ele>
        <time>2022-12-17T13:08:29.392Z</time>
      </trkpt>
      <trkpt lat="46.94833" lon="-1.82926">
        <ele>61.615782</ele>
        <time>2022-12-17T13:08:31.398Z</time>
      </trkpt>
      <trkpt lat="46.94824" lon="-1.8293">
        <ele>61.595652</ele>
        <time>2022-12-17T13:08:33.415Z</time>
      </trkpt>
      <trkpt lat="46.94815" lon="-1.82935">
        <ele>61.575732</ele>
        <time>2022-12-17T13:08:35.393Z</time>
      </trkpt>
      <trkpt lat="46.94806" lon="-1.8294">
        <ele>61.553495</ele>
        <time>2022-12-17T13:08:37.404Z</time>
      </trkpt>
      <trkpt lat="46.94797" lon="-1.82945">
        <ele>61.534037</ele>
        <time>2022-12-17T13:08:39.404Z</time>
      </trkpt>
      <trkpt lat="46.94788" lon="-1.82949">
        <ele>61.512541</ele>
        <time>2022-12-17T13:08:41.404Z</time>
      </trkpt>
      <trkpt lat="46.94779" lon="-1.82955">
        <ele>61.491944</ele>
        <time>2022-12-17T13:08:43.423Z</time>
      </trkpt>
      <trkpt lat="46.94769" lon="-1.8296">
        <ele>61.470211</ele>
        <time>2022-12-17T13:08:45.423Z</time>
      </trkpt>
      <trkpt lat="46.9476" lon="-1.82964">
        <ele>61.448121</ele>
        <time>2022-12-17T13:08:47.398Z</time>
      </trkpt>
      <trkpt lat="46.9475" lon="-1.82969">
        <ele>61.426486</ele>
        <time>2022-12-17T13:08:49.396Z</time>
      </trkpt>
      <trkpt lat="46.9474" lon="-1.82974">
        <ele>61.403738</ele>
        <time>2022-12-17T13:08:51.409Z</time>
      </trkpt>
      <trkpt lat="46.94732" lon="-1.82979">
        <ele>61.384028</ele>
        <time>2022-12-17T13:08:53.396Z</time>
      </trkpt>
      <trkpt lat="46.94722" lon="-1.82984">
        <ele>61.535222</ele>
        <time>2022-12-17T13:08:55.412Z</time>
      </trkpt>
      <trkpt lat="46.94713" lon="-1.82988">
        <ele>61.710633</ele>
        <time>2022-12-17T13:08:57.413Z</time>
      </trkpt>
      <trkpt lat="46.94704" lon="-1.82992">
        <ele>61.876487</ele>
        <time>2022-12-17T13:08:59.405Z</time>
      </trkpt>
      <trkpt lat="46.94692" lon="-1.82997">
        <ele>62.096413</ele>
        <time>2022-12-17T13:09:02.395Z</time>
      </trkpt>
      <trkpt lat="46.94681" lon="-1.83003">
        <ele>62.305451</ele>
        <time>2022-12-17T13:09:05.394Z</time>
      </trkpt>
      <trkpt lat="46.94669" lon="-1.83008">
        <ele>62.520984</ele>
        <time>2022-12-17T13:09:08.402Z</time>
      </trkpt>
      <trkpt lat="46.94657" lon="-1.83014">
        <ele>62.742613</ele>
        <time>2022-12-17T13:09:11.401Z</time>
      </trkpt>
      <trkpt lat="46.94646" lon="-1.83019">
        <ele>62.958145</ele>
        <time>2022-12-17T13:09:14.407Z</time>
      </trkpt>
      <trkpt lat="46.94634" lon="-1.83024">
        <ele>63.179119</ele>
        <time>2022-12-17T13:09:17.400Z</time>
      </trkpt>
      <trkpt lat="46.94621" lon="-1.8303">
        <ele>63.40723</ele>
        <time>2022-12-17T13:09:20.409Z</time>
      </trkpt>
      <trkpt lat="46.94609" lon="-1.83035">
        <ele>63.63499</ele>
        <time>2022-12-17T13:09:23.407Z</time>
      </trkpt>
      <trkpt lat="46.94596" lon="-1.83042">
        <ele>63.874894</ele>
        <time>2022-12-17T13:09:26.404Z</time>
      </trkpt>
      <trkpt lat="46.94587" lon="-1.83046">
        <ele>64.043576</ele>
        <time>2022-12-17T13:09:28.406Z</time>
      </trkpt>
      <trkpt lat="46.94578" lon="-1.8305">
        <ele>64.208353</ele>
        <time>2022-12-17T13:09:30.407Z</time>
      </trkpt>
      <trkpt lat="46.94566" lon="-1.83057">
        <ele>64.441205</ele>
        <time>2022-12-17T13:09:33.418Z</time>
      </trkpt>
      <trkpt lat="46.94554" lon="-1.83064">
        <ele>64.635319</ele>
        <time>2022-12-17T13:09:36.413Z</time>
      </trkpt>
      <trkpt lat="46.94545" lon="-1.83069">
        <ele>64.735497</ele>
        <time>2022-12-17T13:09:38.410Z</time>
      </trkpt>
      <trkpt lat="46.94537" lon="-1.83074">
        <ele>64.834385</ele>
        <time>2022-12-17T13:09:40.424Z</time>
      </trkpt>
      <trkpt lat="46.94528" lon="-1.8308">
        <ele>64.944192</ele>
        <time>2022-12-17T13:09:42.398Z</time>
      </trkpt>
      <trkpt lat="46.94516" lon="-1.83088">
        <ele>65.088197</ele>
        <time>2022-12-17T13:09:45.416Z</time>
      </trkpt>
      <trkpt lat="46.94505" lon="-1.83095">
        <ele>65.217755</ele>
        <time>2022-12-17T13:09:48.411Z</time>
      </trkpt>
      <trkpt lat="46.94495" lon="-1.83101">
        <ele>65.333848</ele>
        <time>2022-12-17T13:09:51.396Z</time>
      </trkpt>
      <trkpt lat="46.94484" lon="-1.83108">
        <ele>65.459002</ele>
        <time>2022-12-17T13:09:54.405Z</time>
      </trkpt>
      <trkpt lat="46.94474" lon="-1.83115">
        <ele>65.582176</ele>
        <time>2022-12-17T13:09:57.401Z</time>
      </trkpt>
      <trkpt lat="46.94464" lon="-1.83122">
        <ele>65.704991</ele>
        <time>2022-12-17T13:10:00.403Z</time>
      </trkpt>
      <trkpt lat="46.94453" lon="-1.83129">
        <ele>65.828475</ele>
        <time>2022-12-17T13:10:03.409Z</time>
      </trkpt>
      <trkpt lat="46.94443" lon="-1.83135">
        <ele>65.950739</ele>
        <time>2022-12-17T13:10:06.405Z</time>
      </trkpt>
      <trkpt lat="46.94433" lon="-1.83143">
        <ele>66.07192</ele>
        <time>2022-12-17T13:10:09.404Z</time>
      </trkpt>
      <trkpt lat="46.94423" lon="-1.83149">
        <ele>66.189012</ele>
        <time>2022-12-17T13:10:12.394Z</time>
      </trkpt>
      <trkpt lat="46.94413" lon="-1.83155">
        <ele>66.305402</ele>
        <time>2022-12-17T13:10:15.413Z</time>
      </trkpt>
      <trkpt lat="46.94404" lon="-1.83161">
        <ele>66.422494</ele>
        <time>2022-12-17T13:10:18.402Z</time>
      </trkpt>
      <trkpt lat="46.94395" lon="-1.83167">
        <ele>66.526142</ele>
        <time>2022-12-17T13:10:21.408Z</time>
      </trkpt>
      <trkpt lat="46.94385" lon="-1.83173">
        <ele>66.780304</ele>
        <time>2022-12-17T13:10:25.404Z</time>
      </trkpt>
      <trkpt lat="46.94374" lon="-1.83181">
        <ele>67.071691</ele>
        <time>2022-12-17T13:10:29.394Z</time>
      </trkpt>
      <trkpt lat="46.94364" lon="-1.83187">
        <ele>67.340925</ele>
        <time>2022-12-17T13:10:33.412Z</time>
      </trkpt>
      <trkpt lat="46.94355" lon="-1.83193">
        <ele>67.566182</ele>
        <time>2022-12-17T13:10:37.400Z</time>
      </trkpt>
      <trkpt lat="46.94346" lon="-1.83199">
        <ele>67.810089</ele>
        <time>2022-12-17T13:10:41.394Z</time>
      </trkpt>
      <trkpt lat="46.94337" lon="-1.83205">
        <ele>68.054357</ele>
        <time>2022-12-17T13:10:45.414Z</time>
      </trkpt>
      <trkpt lat="46.94328" lon="-1.83211">
        <ele>68.279085</ele>
        <time>2022-12-17T13:10:49.394Z</time>
      </trkpt>
      <trkpt lat="46.94319" lon="-1.83217">
        <ele>68.520128</ele>
        <time>2022-12-17T13:10:53.389Z</time>
      </trkpt>
      <trkpt lat="46.94309" lon="-1.83223">
        <ele>68.768534</ele>
        <time>2022-12-17T13:10:57.408Z</time>
      </trkpt>
      <trkpt lat="46.94299" lon="-1.8323">
        <ele>69.039689</ele>
        <time>2022-12-17T13:11:01.407Z</time>
      </trkpt>
      <trkpt lat="46.94288" lon="-1.83237">
        <ele>69.324056</ele>
        <time>2022-12-17T13:11:05.405Z</time>
      </trkpt>
      <trkpt lat="46.94279" lon="-1.83243">
        <ele>69.561073</ele>
        <time>2022-12-17T13:11:08.420Z</time>
      </trkpt>
      <trkpt lat="46.94269" lon="-1.83248">
        <ele>69.812401</ele>
        <time>2022-12-17T13:11:11.401Z</time>
      </trkpt>
      <trkpt lat="46.94258" lon="-1.83255">
        <ele>70.094659</ele>
        <time>2022-12-17T13:11:14.411Z</time>
      </trkpt>
      <trkpt lat="46.94247" lon="-1.83261">
        <ele>70.391509</ele>
        <time>2022-12-17T13:11:17.410Z</time>
      </trkpt>
      <trkpt lat="46.94235" lon="-1.83267">
        <ele>70.699187</ele>
        <time>2022-12-17T13:11:20.439Z</time>
      </trkpt>
      <trkpt lat="46.94222" lon="-1.83273">
        <ele>70.923704</ele>
        <time>2022-12-17T13:11:23.398Z</time>
      </trkpt>
      <trkpt lat="46.9421" lon="-1.83279">
        <ele>71.079461</ele>
        <time>2022-12-17T13:11:26.411Z</time>
      </trkpt>
      <trkpt lat="46.94198" lon="-1.83284">
        <ele>71.233988</ele>
        <time>2022-12-17T13:11:29.415Z</time>
      </trkpt>
      <trkpt lat="46.94186" lon="-1.83289">
        <ele>71.383441</ele>
        <time>2022-12-17T13:11:32.396Z</time>
      </trkpt>
      <trkpt lat="46.94174" lon="-1.83293">
        <ele>71.538181</ele>
        <time>2022-12-17T13:11:35.407Z</time>
      </trkpt>
      <trkpt lat="46.94161" lon="-1.83297">
        <ele>71.691934</ele>
        <time>2022-12-17T13:11:38.398Z</time>
      </trkpt>
      <trkpt lat="46.94148" lon="-1.83302">
        <ele>71.853974</ele>
        <time>2022-12-17T13:11:41.414Z</time>
      </trkpt>
      <trkpt lat="46.94135" lon="-1.83307">
        <ele>72.015813</ele>
        <time>2022-12-17T13:11:44.412Z</time>
      </trkpt>
      <trkpt lat="46.94123" lon="-1.83311">
        <ele>72.175662</ele>
        <time>2022-12-17T13:11:47.399Z</time>
      </trkpt>
      <trkpt lat="46.9411" lon="-1.83315">
        <ele>72.330213</ele>
        <time>2022-12-17T13:11:50.408Z</time>
      </trkpt>
      <trkpt lat="46.94098" lon="-1.83319">
        <ele>72.480148</ele>
        <time>2022-12-17T13:11:53.409Z</time>
      </trkpt>
      <trkpt lat="46.94087" lon="-1.83323">
        <ele>72.618026</ele>
        <time>2022-12-17T13:11:56.401Z</time>
      </trkpt>
      <trkpt lat="46.94076" lon="-1.83327">
        <ele>72.759801</ele>
        <time>2022-12-17T13:11:59.393Z</time>
      </trkpt>
      <trkpt lat="46.94064" lon="-1.83331">
        <ele>72.904515</ele>
        <time>2022-12-17T13:12:02.391Z</time>
      </trkpt>
      <trkpt lat="46.94052" lon="-1.83335">
        <ele>73.084496</ele>
        <time>2022-12-17T13:12:05.399Z</time>
      </trkpt>
      <trkpt lat="46.94041" lon="-1.83339">
        <ele>73.383456</ele>
        <time>2022-12-17T13:12:08.415Z</time>
      </trkpt>
      <trkpt lat="46.94029" lon="-1.83344">
        <ele>73.680222</ele>
        <time>2022-12-17T13:12:11.406Z</time>
      </trkpt>
      <trkpt lat="46.94018" lon="-1.83348">
        <ele>73.96757</ele>
        <time>2022-12-17T13:12:14.408Z</time>
      </trkpt>
      <trkpt lat="46.94007" lon="-1.83352">
        <ele>74.250861</ele>
        <time>2022-12-17T13:12:17.400Z</time>
      </trkpt>
      <trkpt lat="46.93996" lon="-1.83356">
        <ele>74.521694</ele>
        <time>2022-12-17T13:12:20.405Z</time>
      </trkpt>
      <trkpt lat="46.93985" lon="-1.8336">
        <ele>74.79775</ele>
        <time>2022-12-17T13:12:23.398Z</time>
      </trkpt>
      <trkpt lat="46.93975" lon="-1.83363">
        <ele>75.061488</ele>
        <time>2022-12-17T13:12:26.404Z</time>
      </trkpt>
      <trkpt lat="46.93965" lon="-1.83367">
        <ele>75.325579</ele>
        <time>2022-12-17T13:12:29.416Z</time>
      </trkpt>
      <trkpt lat="46.93954" lon="-1.8337">
        <ele>75.588641</ele>
        <time>2022-12-17T13:12:32.396Z</time>
      </trkpt>
      <trkpt lat="46.93944" lon="-1.83372">
        <ele>75.850197</ele>
        <time>2022-12-17T13:12:35.399Z</time>
      </trkpt>
      <trkpt lat="46.93933" lon="-1.83375">
        <ele>76.126776</ele>
        <time>2022-12-17T13:12:38.404Z</time>
      </trkpt>
      <trkpt lat="46.93922" lon="-1.83379">
        <ele>76.410642</ele>
        <time>2022-12-17T13:12:41.416Z</time>
      </trkpt>
      <trkpt lat="46.93911" lon="-1.83382">
        <ele>76.694507</ele>
        <time>2022-12-17T13:12:44.410Z</time>
      </trkpt>
      <trkpt lat="46.93899" lon="-1.83385">
        <ele>76.977704</ele>
        <time>2022-12-17T13:12:47.400Z</time>
      </trkpt>
      <trkpt lat="46.93888" lon="-1.83388">
        <ele>77.252643</ele>
        <time>2022-12-17T13:12:50.407Z</time>
      </trkpt>
      <trkpt lat="46.9388" lon="-1.83391">
        <ele>77.477546</ele>
        <time>2022-12-17T13:12:53.401Z</time>
      </trkpt>
      <trkpt lat="46.93868" lon="-1.83394">
        <ele>77.530521</ele>
        <time>2022-12-17T13:12:57.409Z</time>
      </trkpt>
      <trkpt lat="46.93859" lon="-1.83397">
        <ele>77.569332</ele>
        <time>2022-12-17T13:13:00.411Z</time>
      </trkpt>
      <trkpt lat="46.9385" lon="-1.834">
        <ele>77.608516</ele>
        <time>2022-12-17T13:13:03.407Z</time>
      </trkpt>
      <trkpt lat="46.93841" lon="-1.83403">
        <ele>77.647022</ele>
        <time>2022-12-17T13:13:06.393Z</time>
      </trkpt>
      <trkpt lat="46.93833" lon="-1.83407">
        <ele>77.685045</ele>
        <time>2022-12-17T13:13:09.407Z</time>
      </trkpt>
      <trkpt lat="46.93821" lon="-1.83411">
        <ele>77.73485</ele>
        <time>2022-12-17T13:13:13.407Z</time>
      </trkpt>
      <trkpt lat="46.93811" lon="-1.83417">
        <ele>77.781574</ele>
        <time>2022-12-17T13:13:17.407Z</time>
      </trkpt>
      <trkpt lat="46.93801" lon="-1.83423">
        <ele>77.827187</ele>
        <time>2022-12-17T13:13:21.409Z</time>
      </trkpt>
      <trkpt lat="46.93793" lon="-1.83429">
        <ele>77.86662</ele>
        <time>2022-12-17T13:13:24.389Z</time>
      </trkpt>
      <trkpt lat="46.93784" lon="-1.83435">
        <ele>77.9087</ele>
        <time>2022-12-17T13:13:27.408Z</time>
      </trkpt>
      <trkpt lat="46.93774" lon="-1.83442">
        <ele>77.953206</ele>
        <time>2022-12-17T13:13:30.411Z</time>
      </trkpt>
      <trkpt lat="46.93765" lon="-1.8345">
        <ele>77.999937</ele>
        <time>2022-12-17T13:13:33.400Z</time>
      </trkpt>
      <trkpt lat="46.93755" lon="-1.83458">
        <ele>78.0482</ele>
        <time>2022-12-17T13:13:36.401Z</time>
      </trkpt>
      <trkpt lat="46.93745" lon="-1.83468">
        <ele>78.097219</ele>
        <time>2022-12-17T13:13:39.407Z</time>
      </trkpt>
      <trkpt lat="46.93736" lon="-1.83478">
        <ele>78.147911</ele>
        <time>2022-12-17T13:13:42.396Z</time>
      </trkpt>
      <trkpt lat="46.93726" lon="-1.8349">
        <ele>78.201588</ele>
        <time>2022-12-17T13:13:45.397Z</time>
      </trkpt>
      <trkpt lat="46.93716" lon="-1.83504">
        <ele>78.259019</ele>
        <time>2022-12-17T13:13:48.399Z</time>
      </trkpt>
      <trkpt lat="46.93708" lon="-1.83517">
        <ele>78.317935</ele>
        <time>2022-12-17T13:13:51.407Z</time>
      </trkpt>
      <trkpt lat="46.937" lon="-1.8353">
        <ele>78.376215</ele>
        <time>2022-12-17T13:13:54.413Z</time>
      </trkpt>
      <trkpt lat="46.93692" lon="-1.83545">
        <ele>78.436071</ele>
        <time>2022-12-17T13:13:57.400Z</time>
      </trkpt>
      <trkpt lat="46.93685" lon="-1.83561">
        <ele>78.499542</ele>
        <time>2022-12-17T13:14:00.400Z</time>
      </trkpt>
      <trkpt lat="46.9368" lon="-1.83572">
        <ele>78.543653</ele>
        <time>2022-12-17T13:14:02.403Z</time>
      </trkpt>
      <trkpt lat="46.93674" lon="-1.83583">
        <ele>78.587761</ele>
        <time>2022-12-17T13:14:04.410Z</time>
      </trkpt>
      <trkpt lat="46.93668" lon="-1.836">
        <ele>78.649938</ele>
        <time>2022-12-17T13:14:07.398Z</time>
      </trkpt>
      <trkpt lat="46.93661" lon="-1.83614">
        <ele>78.708036</ele>
        <time>2022-12-17T13:14:10.408Z</time>
      </trkpt>
      <trkpt lat="46.93654" lon="-1.8363">
        <ele>78.767798</ele>
        <time>2022-12-17T13:14:13.411Z</time>
      </trkpt>
      <trkpt lat="46.93647" lon="-1.83646">
        <ele>78.830998</ele>
        <time>2022-12-17T13:14:16.411Z</time>
      </trkpt>
      <trkpt lat="46.93639" lon="-1.83662">
        <ele>78.893929</ele>
        <time>2022-12-17T13:14:19.427Z</time>
      </trkpt>
      <trkpt lat="46.93633" lon="-1.83676">
        <ele>78.950143</ele>
        <time>2022-12-17T13:14:22.393Z</time>
      </trkpt>
      <trkpt lat="46.93627" lon="-1.8369">
        <ele>79.002665</ele>
        <time>2022-12-17T13:14:25.404Z</time>
      </trkpt>
      <trkpt lat="46.93625" lon="-1.83706">
        <ele>79.054508</ele>
        <time>2022-12-17T13:14:28.410Z</time>
      </trkpt>
      <trkpt lat="46.93629" lon="-1.83722">
        <ele>79.090646</ele>
        <time>2022-12-17T13:14:31.396Z</time>
      </trkpt>
      <trkpt lat="46.93631" lon="-1.83739">
        <ele>79.01728</ele>
        <time>2022-12-17T13:14:34.417Z</time>
      </trkpt>
      <trkpt lat="46.93626" lon="-1.83754">
        <ele>78.946737</ele>
        <time>2022-12-17T13:14:37.396Z</time>
      </trkpt>
      <trkpt lat="46.93619" lon="-1.83768">
        <ele>78.877517</ele>
        <time>2022-12-17T13:14:40.403Z</time>
      </trkpt>
      <trkpt lat="46.93619" lon="-1.83783">
        <ele>78.814981</ele>
        <time>2022-12-17T13:14:43.401Z</time>
      </trkpt>
      <trkpt lat="46.93622" lon="-1.838">
        <ele>78.741667</ele>
        <time>2022-12-17T13:14:46.399Z</time>
      </trkpt>
      <trkpt lat="46.93626" lon="-1.83819">
        <ele>78.65801</ele>
        <time>2022-12-17T13:14:49.400Z</time>
      </trkpt>
      <trkpt lat="46.93629" lon="-1.83833">
        <ele>78.599188</ele>
        <time>2022-12-17T13:14:51.408Z</time>
      </trkpt>
      <trkpt lat="46.93631" lon="-1.83846">
        <ele>78.543224</ele>
        <time>2022-12-17T13:14:53.411Z</time>
      </trkpt>
      <trkpt lat="46.93634" lon="-1.83859">
        <ele>78.484576</ele>
        <time>2022-12-17T13:14:55.408Z</time>
      </trkpt>
      <trkpt lat="46.93637" lon="-1.83873">
        <ele>78.423019</ele>
        <time>2022-12-17T13:14:57.404Z</time>
      </trkpt>
      <trkpt lat="46.9364" lon="-1.83888">
        <ele>78.359885</ele>
        <time>2022-12-17T13:14:59.404Z</time>
      </trkpt>
      <trkpt lat="46.93643" lon="-1.83902">
        <ele>78.297914</ele>
        <time>2022-12-17T13:15:01.412Z</time>
      </trkpt>
      <trkpt lat="46.93646" lon="-1.83916">
        <ele>78.235323</ele>
        <time>2022-12-17T13:15:03.435Z</time>
      </trkpt>
      <trkpt lat="46.93649" lon="-1.83931">
        <ele>78.172331</ele>
        <time>2022-12-17T13:15:05.401Z</time>
      </trkpt>
      <trkpt lat="46.93652" lon="-1.83945">
        <ele>78.110574</ele>
        <time>2022-12-17T13:15:07.402Z</time>
      </trkpt>
      <trkpt lat="46.93655" lon="-1.83959">
        <ele>78.051608</ele>
        <time>2022-12-17T13:15:09.394Z</time>
      </trkpt>
      <trkpt lat="46.93658" lon="-1.83971">
        <ele>77.999269</ele>
        <time>2022-12-17T13:15:11.413Z</time>
      </trkpt>
      <trkpt lat="46.93661" lon="-1.83986">
        <ele>77.970972</ele>
        <time>2022-12-17T13:15:13.405Z</time>
      </trkpt>
      <trkpt lat="46.93664" lon="-1.84">
        <ele>77.941593</ele>
        <time>2022-12-17T13:15:15.407Z</time>
      </trkpt>
      <trkpt lat="46.93667" lon="-1.84015">
        <ele>77.912224</ele>
        <time>2022-12-17T13:15:17.404Z</time>
      </trkpt>
      <trkpt lat="46.93671" lon="-1.84029">
        <ele>77.882759</ele>
        <time>2022-12-17T13:15:19.409Z</time>
      </trkpt>
      <trkpt lat="46.93674" lon="-1.84044">
        <ele>77.853025</ele>
        <time>2022-12-17T13:15:21.409Z</time>
      </trkpt>
      <trkpt lat="46.93677" lon="-1.84059">
        <ele>77.823032</ele>
        <time>2022-12-17T13:15:23.408Z</time>
      </trkpt>
      <trkpt lat="46.9368" lon="-1.84074">
        <ele>77.792297</ele>
        <time>2022-12-17T13:15:25.427Z</time>
      </trkpt>
      <trkpt lat="46.93683" lon="-1.8409">
        <ele>77.760196</ele>
        <time>2022-12-17T13:15:27.410Z</time>
      </trkpt>
      <trkpt lat="46.93687" lon="-1.84106">
        <ele>77.728631</ele>
        <time>2022-12-17T13:15:29.410Z</time>
      </trkpt>
      <trkpt lat="46.93691" lon="-1.84122">
        <ele>77.69508</ele>
        <time>2022-12-17T13:15:31.412Z</time>
      </trkpt>
      <trkpt lat="46.93694" lon="-1.84138">
        <ele>77.664598</ele>
        <time>2022-12-17T13:15:33.410Z</time>
      </trkpt>
      <trkpt lat="46.93697" lon="-1.84153">
        <ele>77.632766</ele>
        <time>2022-12-17T13:15:35.397Z</time>
      </trkpt>
      <trkpt lat="46.937" lon="-1.84169">
        <ele>77.60191</ele>
        <time>2022-12-17T13:15:37.403Z</time>
      </trkpt>
      <trkpt lat="46.93702" lon="-1.84184">
        <ele>77.57173</ele>
        <time>2022-12-17T13:15:39.397Z</time>
      </trkpt>
      <trkpt lat="46.93705" lon="-1.84198">
        <ele>77.543618</ele>
        <time>2022-12-17T13:15:41.408Z</time>
      </trkpt>
      <trkpt lat="46.93708" lon="-1.84213">
        <ele>77.513997</ele>
        <time>2022-12-17T13:15:43.408Z</time>
      </trkpt>
      <trkpt lat="46.93711" lon="-1.84228">
        <ele>77.458395</ele>
        <time>2022-12-17T13:15:45.404Z</time>
      </trkpt>
      <trkpt lat="46.93714" lon="-1.84244">
        <ele>77.37101</ele>
        <time>2022-12-17T13:15:47.413Z</time>
      </trkpt>
      <trkpt lat="46.93717" lon="-1.84261">
        <ele>77.276829</ele>
        <time>2022-12-17T13:15:49.409Z</time>
      </trkpt>
      <trkpt lat="46.93719" lon="-1.84278">
        <ele>77.185799</ele>
        <time>2022-12-17T13:15:51.406Z</time>
      </trkpt>
      <trkpt lat="46.93721" lon="-1.84295">
        <ele>77.091266</ele>
        <time>2022-12-17T13:15:53.398Z</time>
      </trkpt>
      <trkpt lat="46.93723" lon="-1.84312">
        <ele>76.999735</ele>
        <time>2022-12-17T13:15:55.402Z</time>
      </trkpt>
      <trkpt lat="46.93724" lon="-1.8433">
        <ele>76.903518</ele>
        <time>2022-12-17T13:15:57.406Z</time>
      </trkpt>
      <trkpt lat="46.93725" lon="-1.84348">
        <ele>76.806748</ele>
        <time>2022-12-17T13:15:59.393Z</time>
      </trkpt>
      <trkpt lat="46.93725" lon="-1.84366">
        <ele>76.711255</ele>
        <time>2022-12-17T13:16:01.414Z</time>
      </trkpt>
      <trkpt lat="46.93725" lon="-1.84384">
        <ele>76.615175</ele>
        <time>2022-12-17T13:16:03.401Z</time>
      </trkpt>
      <trkpt lat="46.93725" lon="-1.84401">
        <ele>76.520206</ele>
        <time>2022-12-17T13:16:05.401Z</time>
      </trkpt>
      <trkpt lat="46.93724" lon="-1.84419">
        <ele>76.425042</ele>
        <time>2022-12-17T13:16:07.399Z</time>
      </trkpt>
      <trkpt lat="46.93724" lon="-1.84436">
        <ele>76.334256</ele>
        <time>2022-12-17T13:16:09.417Z</time>
      </trkpt>
      <trkpt lat="46.93723" lon="-1.84452">
        <ele>76.246992</ele>
        <time>2022-12-17T13:16:11.402Z</time>
      </trkpt>
      <trkpt lat="46.9372" lon="-1.84467">
        <ele>76.162072</ele>
        <time>2022-12-17T13:16:13.405Z</time>
      </trkpt>
      <trkpt lat="46.93718" lon="-1.84482">
        <ele>76.073655</ele>
        <time>2022-12-17T13:16:15.405Z</time>
      </trkpt>
      <trkpt lat="46.93714" lon="-1.84498">
        <ele>75.872654</ele>
        <time>2022-12-17T13:16:17.406Z</time>
      </trkpt>
      <trkpt lat="46.93711" lon="-1.84514">
        <ele>75.678044</ele>
        <time>2022-12-17T13:16:19.418Z</time>
      </trkpt>
      <trkpt lat="46.93707" lon="-1.84529">
        <ele>75.476581</ele>
        <time>2022-12-17T13:16:21.410Z</time>
      </trkpt>
      <trkpt lat="46.93704" lon="-1.84545">
        <ele>75.271686</ele>
        <time>2022-12-17T13:16:23.409Z</time>
      </trkpt>
      <trkpt lat="46.937" lon="-1.84562">
        <ele>75.053625</ele>
        <time>2022-12-17T13:16:25.416Z</time>
      </trkpt>
      <trkpt lat="46.93696" lon="-1.8458">
        <ele>74.833852</ele>
        <time>2022-12-17T13:16:27.406Z</time>
      </trkpt>
      <trkpt lat="46.93692" lon="-1.84596">
        <ele>74.619795</ele>
        <time>2022-12-17T13:16:29.422Z</time>
      </trkpt>
      <trkpt lat="46.93688" lon="-1.84612">
        <ele>74.413171</ele>
        <time>2022-12-17T13:16:31.413Z</time>
      </trkpt>
      <trkpt lat="46.93684" lon="-1.84629">
        <ele>74.200074</ele>
        <time>2022-12-17T13:16:33.403Z</time>
      </trkpt>
      <trkpt lat="46.93682" lon="-1.84645">
        <ele>74.001145</ele>
        <time>2022-12-17T13:16:35.412Z</time>
      </trkpt>
      <trkpt lat="46.9368" lon="-1.84661">
        <ele>73.804079</ele>
        <time>2022-12-17T13:16:37.405Z</time>
      </trkpt>
      <trkpt lat="46.93679" lon="-1.84677">
        <ele>73.609577</ele>
        <time>2022-12-17T13:16:39.408Z</time>
      </trkpt>
      <trkpt lat="46.93677" lon="-1.84693">
        <ele>73.414919</ele>
        <time>2022-12-17T13:16:41.397Z</time>
      </trkpt>
      <trkpt lat="46.93676" lon="-1.84708">
        <ele>73.23577</ele>
        <time>2022-12-17T13:16:43.405Z</time>
      </trkpt>
      <trkpt lat="46.93677" lon="-1.84724">
        <ele>73.046254</ele>
        <time>2022-12-17T13:16:45.401Z</time>
      </trkpt>
      <trkpt lat="46.93678" lon="-1.8474">
        <ele>72.891478</ele>
        <time>2022-12-17T13:16:47.400Z</time>
      </trkpt>
      <trkpt lat="46.93679" lon="-1.84755">
        <ele>72.865643</ele>
        <time>2022-12-17T13:16:49.412Z</time>
      </trkpt>
      <trkpt lat="46.9368" lon="-1.8477">
        <ele>72.83904</ele>
        <time>2022-12-17T13:16:51.409Z</time>
      </trkpt>
      <trkpt lat="46.93681" lon="-1.84786">
        <ele>72.812699</ele>
        <time>2022-12-17T13:16:53.415Z</time>
      </trkpt>
      <trkpt lat="46.93682" lon="-1.84801">
        <ele>72.786403</ele>
        <time>2022-12-17T13:16:55.404Z</time>
      </trkpt>
      <trkpt lat="46.93683" lon="-1.84817">
        <ele>72.759872</ele>
        <time>2022-12-17T13:16:57.408Z</time>
      </trkpt>
      <trkpt lat="46.93683" lon="-1.84833">
        <ele>72.732053</ele>
        <time>2022-12-17T13:16:59.403Z</time>
      </trkpt>
      <trkpt lat="46.93683" lon="-1.84849">
        <ele>72.705616</ele>
        <time>2022-12-17T13:17:01.427Z</time>
      </trkpt>
      <trkpt lat="46.93683" lon="-1.84865">
        <ele>72.678492</ele>
        <time>2022-12-17T13:17:03.413Z</time>
      </trkpt>
      <trkpt lat="46.93683" lon="-1.84881">
        <ele>72.651373</ele>
        <time>2022-12-17T13:17:05.407Z</time>
      </trkpt>
      <trkpt lat="46.93683" lon="-1.84898">
        <ele>72.623063</ele>
        <time>2022-12-17T13:17:07.413Z</time>
      </trkpt>
      <trkpt lat="46.93682" lon="-1.84915">
        <ele>72.594017</ele>
        <time>2022-12-17T13:17:09.410Z</time>
      </trkpt>
      <trkpt lat="46.93681" lon="-1.84932">
        <ele>72.563899</ele>
        <time>2022-12-17T13:17:11.410Z</time>
      </trkpt>
      <trkpt lat="46.9368" lon="-1.8495">
        <ele>72.534713</ele>
        <time>2022-12-17T13:17:13.399Z</time>
      </trkpt>
      <trkpt lat="46.93678" lon="-1.84968">
        <ele>72.503642</ele>
        <time>2022-12-17T13:17:15.440Z</time>
      </trkpt>
      <trkpt lat="46.93676" lon="-1.84985">
        <ele>72.473154</ele>
        <time>2022-12-17T13:17:17.413Z</time>
      </trkpt>
      <trkpt lat="46.93673" lon="-1.85004">
        <ele>72.413606</ele>
        <time>2022-12-17T13:17:19.397Z</time>
      </trkpt>
      <trkpt lat="46.9367" lon="-1.85021">
        <ele>72.298322</ele>
        <time>2022-12-17T13:17:21.412Z</time>
      </trkpt>
      <trkpt lat="46.93666" lon="-1.85038">
        <ele>72.184362</ele>
        <time>2022-12-17T13:17:23.413Z</time>
      </trkpt>
      <trkpt lat="46.93663" lon="-1.85055">
        <ele>72.071902</ele>
        <time>2022-12-17T13:17:25.419Z</time>
      </trkpt>
      <trkpt lat="46.9366" lon="-1.85072">
        <ele>71.955381</ele>
        <time>2022-12-17T13:17:27.409Z</time>
      </trkpt>
      <trkpt lat="46.93656" lon="-1.85088">
        <ele>71.845364</ele>
        <time>2022-12-17T13:17:29.398Z</time>
      </trkpt>
      <trkpt lat="46.93652" lon="-1.85104">
        <ele>71.737852</ele>
        <time>2022-12-17T13:17:31.407Z</time>
      </trkpt>
      <trkpt lat="46.93648" lon="-1.85119">
        <ele>71.634595</ele>
        <time>2022-12-17T13:17:33.416Z</time>
      </trkpt>
      <trkpt lat="46.93645" lon="-1.85135">
        <ele>71.527082</ele>
        <time>2022-12-17T13:17:35.403Z</time>
      </trkpt>
      <trkpt lat="46.93641" lon="-1.85151">
        <ele>71.418351</ele>
        <time>2022-12-17T13:17:37.409Z</time>
      </trkpt>
      <trkpt lat="46.93638" lon="-1.85168">
        <ele>71.30712</ele>
        <time>2022-12-17T13:17:39.415Z</time>
      </trkpt>
      <trkpt lat="46.93633" lon="-1.85185">
        <ele>71.1908</ele>
        <time>2022-12-17T13:17:41.400Z</time>
      </trkpt>
      <trkpt lat="46.9363" lon="-1.85202">
        <ele>71.076565</ele>
        <time>2022-12-17T13:17:43.403Z</time>
      </trkpt>
      <trkpt lat="46.93626" lon="-1.85217">
        <ele>70.971147</ele>
        <time>2022-12-17T13:17:45.413Z</time>
      </trkpt>
      <trkpt lat="46.93622" lon="-1.85234">
        <ele>70.855433</ele>
        <time>2022-12-17T13:17:47.404Z</time>
      </trkpt>
      <trkpt lat="46.93618" lon="-1.85251">
        <ele>70.734547</ele>
        <time>2022-12-17T13:17:49.408Z</time>
      </trkpt>
      <trkpt lat="46.93615" lon="-1.85268">
        <ele>70.578705</ele>
        <time>2022-12-17T13:17:51.402Z</time>
      </trkpt>
      <trkpt lat="46.93611" lon="-1.85284">
        <ele>70.427083</ele>
        <time>2022-12-17T13:17:53.399Z</time>
      </trkpt>
      <trkpt lat="46.93609" lon="-1.853">
        <ele>70.278607</ele>
        <time>2022-12-17T13:17:55.413Z</time>
      </trkpt>
      <trkpt lat="46.93606" lon="-1.85316">
        <ele>70.126841</ele>
        <time>2022-12-17T13:17:57.414Z</time>
      </trkpt>
      <trkpt lat="46.93605" lon="-1.85333">
        <ele>69.972565</ele>
        <time>2022-12-17T13:17:59.412Z</time>
      </trkpt>
      <trkpt lat="46.93604" lon="-1.85349">
        <ele>69.826691</ele>
        <time>2022-12-17T13:18:01.414Z</time>
      </trkpt>
      <trkpt lat="46.93604" lon="-1.85366">
        <ele>69.677441</ele>
        <time>2022-12-17T13:18:03.410Z</time>
      </trkpt>
      <trkpt lat="46.93605" lon="-1.85382">
        <ele>69.532547</ele>
        <time>2022-12-17T13:18:05.410Z</time>
      </trkpt>
      <trkpt lat="46.93607" lon="-1.85397">
        <ele>69.393054</ele>
        <time>2022-12-17T13:18:07.406Z</time>
      </trkpt>
      <trkpt lat="46.93609" lon="-1.85412">
        <ele>69.24953</ele>
        <time>2022-12-17T13:18:09.404Z</time>
      </trkpt>
      <trkpt lat="46.93611" lon="-1.8543">
        <ele>69.085929</ele>
        <time>2022-12-17T13:18:11.406Z</time>
      </trkpt>
      <trkpt lat="46.93613" lon="-1.85448">
        <ele>68.924785</ele>
        <time>2022-12-17T13:18:13.422Z</time>
      </trkpt>
      <trkpt lat="46.93616" lon="-1.85466">
        <ele>68.757539</ele>
        <time>2022-12-17T13:18:15.409Z</time>
      </trkpt>
      <trkpt lat="46.93618" lon="-1.85485">
        <ele>68.585488</ele>
        <time>2022-12-17T13:18:17.406Z</time>
      </trkpt>
      <trkpt lat="46.9362" lon="-1.85504">
        <ele>68.41059</ele>
        <time>2022-12-17T13:18:19.392Z</time>
      </trkpt>
      <trkpt lat="46.93621" lon="-1.85523">
        <ele>68.237534</ele>
        <time>2022-12-17T13:18:21.404Z</time>
      </trkpt>
      <trkpt lat="46.93623" lon="-1.85542">
        <ele>68.065997</ele>
        <time>2022-12-17T13:18:23.414Z</time>
      </trkpt>
      <trkpt lat="46.93625" lon="-1.85561">
        <ele>67.900839</ele>
        <time>2022-12-17T13:18:25.404Z</time>
      </trkpt>
      <trkpt lat="46.93626" lon="-1.85579">
        <ele>67.741116</ele>
        <time>2022-12-17T13:18:27.407Z</time>
      </trkpt>
      <trkpt lat="46.93627" lon="-1.85596">
        <ele>67.586102</ele>
        <time>2022-12-17T13:18:29.410Z</time>
      </trkpt>
      <trkpt lat="46.93628" lon="-1.85613">
        <ele>67.440027</ele>
        <time>2022-12-17T13:18:31.408Z</time>
      </trkpt>
      <trkpt lat="46.93629" lon="-1.8563">
        <ele>67.290444</ele>
        <time>2022-12-17T13:18:33.415Z</time>
      </trkpt>
      <trkpt lat="46.9363" lon="-1.85647">
        <ele>67.13622</ele>
        <time>2022-12-17T13:18:35.424Z</time>
      </trkpt>
      <trkpt lat="46.93632" lon="-1.85665">
        <ele>66.971239</ele>
        <time>2022-12-17T13:18:37.398Z</time>
      </trkpt>
      <trkpt lat="46.93633" lon="-1.85684">
        <ele>66.804835</ele>
        <time>2022-12-17T13:18:39.419Z</time>
      </trkpt>
      <trkpt lat="46.93634" lon="-1.85703">
        <ele>66.640328</ele>
        <time>2022-12-17T13:18:41.409Z</time>
      </trkpt>
      <trkpt lat="46.93635" lon="-1.85722">
        <ele>66.470039</ele>
        <time>2022-12-17T13:18:43.406Z</time>
      </trkpt>
      <trkpt lat="46.93637" lon="-1.85741">
        <ele>66.300678</ele>
        <time>2022-12-17T13:18:45.409Z</time>
      </trkpt>
      <trkpt lat="46.93638" lon="-1.8576">
        <ele>66.131374</ele>
        <time>2022-12-17T13:18:47.404Z</time>
      </trkpt>
      <trkpt lat="46.93638" lon="-1.85779">
        <ele>65.987617</ele>
        <time>2022-12-17T13:18:49.400Z</time>
      </trkpt>
      <trkpt lat="46.9364" lon="-1.85796">
        <ele>65.873751</ele>
        <time>2022-12-17T13:18:51.405Z</time>
      </trkpt>
      <trkpt lat="46.93641" lon="-1.85815">
        <ele>65.752514</ele>
        <time>2022-12-17T13:18:53.411Z</time>
      </trkpt>
      <trkpt lat="46.93643" lon="-1.85834">
        <ele>65.627412</ele>
        <time>2022-12-17T13:18:55.413Z</time>
      </trkpt>
      <trkpt lat="46.93644" lon="-1.85853">
        <ele>65.501743</ele>
        <time>2022-12-17T13:18:57.418Z</time>
      </trkpt>
      <trkpt lat="46.93645" lon="-1.85872">
        <ele>65.3742</ele>
        <time>2022-12-17T13:18:59.411Z</time>
      </trkpt>
      <trkpt lat="46.93645" lon="-1.85892">
        <ele>65.245002</ele>
        <time>2022-12-17T13:19:01.402Z</time>
      </trkpt>
      <trkpt lat="46.93646" lon="-1.85912">
        <ele>65.117383</ele>
        <time>2022-12-17T13:19:03.414Z</time>
      </trkpt>
      <trkpt lat="46.93648" lon="-1.8593">
        <ele>64.995363</ele>
        <time>2022-12-17T13:19:05.402Z</time>
      </trkpt>
      <trkpt lat="46.9365" lon="-1.85949">
        <ele>64.871795</ele>
        <time>2022-12-17T13:19:07.409Z</time>
      </trkpt>
      <trkpt lat="46.93651" lon="-1.85967">
        <ele>64.754484</ele>
        <time>2022-12-17T13:19:09.407Z</time>
      </trkpt>
      <trkpt lat="46.93652" lon="-1.85985">
        <ele>64.635467</ele>
        <time>2022-12-17T13:19:11.403Z</time>
      </trkpt>
      <trkpt lat="46.93652" lon="-1.86003">
        <ele>64.520575</ele>
        <time>2022-12-17T13:19:13.405Z</time>
      </trkpt>
      <trkpt lat="46.93653" lon="-1.8602">
        <ele>64.405303</ele>
        <time>2022-12-17T13:19:15.409Z</time>
      </trkpt>
      <trkpt lat="46.93655" lon="-1.86037">
        <ele>64.351186</ele>
        <time>2022-12-17T13:19:17.421Z</time>
      </trkpt>
      <trkpt lat="46.93655" lon="-1.86055">
        <ele>64.405881</ele>
        <time>2022-12-17T13:19:19.411Z</time>
      </trkpt>
      <trkpt lat="46.93657" lon="-1.86073">
        <ele>64.461372</ele>
        <time>2022-12-17T13:19:21.415Z</time>
      </trkpt>
      <trkpt lat="46.93658" lon="-1.86089">
        <ele>64.513826</ele>
        <time>2022-12-17T13:19:23.420Z</time>
      </trkpt>
      <trkpt lat="46.93659" lon="-1.86107">
        <ele>64.567689</ele>
        <time>2022-12-17T13:19:25.406Z</time>
      </trkpt>
      <trkpt lat="46.9366" lon="-1.86125">
        <ele>64.623947</ele>
        <time>2022-12-17T13:19:27.414Z</time>
      </trkpt>
      <trkpt lat="46.93662" lon="-1.86143">
        <ele>64.680364</ele>
        <time>2022-12-17T13:19:29.410Z</time>
      </trkpt>
      <trkpt lat="46.93663" lon="-1.86161">
        <ele>64.737667</ele>
        <time>2022-12-17T13:19:31.409Z</time>
      </trkpt>
      <trkpt lat="46.93664" lon="-1.86179">
        <ele>64.794084</ele>
        <time>2022-12-17T13:19:33.407Z</time>
      </trkpt>
      <trkpt lat="46.93665" lon="-1.86197">
        <ele>64.849184</ele>
        <time>2022-12-17T13:19:35.411Z</time>
      </trkpt>
      <trkpt lat="46.93666" lon="-1.86213">
        <ele>64.898865</ele>
        <time>2022-12-17T13:19:37.406Z</time>
      </trkpt>
      <trkpt lat="46.93667" lon="-1.8623">
        <ele>64.950915</ele>
        <time>2022-12-17T13:19:39.417Z</time>
      </trkpt>
      <trkpt lat="46.93668" lon="-1.86247">
        <ele>65.003997</ele>
        <time>2022-12-17T13:19:41.407Z</time>
      </trkpt>
      <trkpt lat="46.93669" lon="-1.86263">
        <ele>65.054152</ele>
        <time>2022-12-17T13:19:43.420Z</time>
      </trkpt>
      <trkpt lat="46.93669" lon="-1.86278">
        <ele>65.101077</ele>
        <time>2022-12-17T13:19:45.422Z</time>
      </trkpt>
      <trkpt lat="46.9367" lon="-1.86292">
        <ele>65.145215</ele>
        <time>2022-12-17T13:19:47.410Z</time>
      </trkpt>
      <trkpt lat="46.93671" lon="-1.86306">
        <ele>65.089142</ele>
        <time>2022-12-17T13:19:49.403Z</time>
      </trkpt>
      <trkpt lat="46.93672" lon="-1.86326">
        <ele>64.986461</ele>
        <time>2022-12-17T13:19:52.399Z</time>
      </trkpt>
      <trkpt lat="46.93673" lon="-1.86341">
        <ele>64.909265</ele>
        <time>2022-12-17T13:19:54.418Z</time>
      </trkpt>
      <trkpt lat="46.93674" lon="-1.86357">
        <ele>64.830843</ele>
        <time>2022-12-17T13:19:56.410Z</time>
      </trkpt>
      <trkpt lat="46.93675" lon="-1.86372">
        <ele>64.753728</ele>
        <time>2022-12-17T13:19:58.402Z</time>
      </trkpt>
      <trkpt lat="46.93676" lon="-1.86387">
        <ele>64.675028</ele>
        <time>2022-12-17T13:20:00.405Z</time>
      </trkpt>
      <trkpt lat="46.93678" lon="-1.86402">
        <ele>64.598434</ele>
        <time>2022-12-17T13:20:02.398Z</time>
      </trkpt>
      <trkpt lat="46.93679" lon="-1.86417">
        <ele>64.524909</ele>
        <time>2022-12-17T13:20:04.418Z</time>
      </trkpt>
      <trkpt lat="46.93681" lon="-1.86431">
        <ele>64.453578</ele>
        <time>2022-12-17T13:20:06.403Z</time>
      </trkpt>
      <trkpt lat="46.93683" lon="-1.86449">
        <ele>64.360078</ele>
        <time>2022-12-17T13:20:09.401Z</time>
      </trkpt>
      <trkpt lat="46.93684" lon="-1.86465">
        <ele>64.2766</ele>
        <time>2022-12-17T13:20:12.400Z</time>
      </trkpt>
      <trkpt lat="46.93687" lon="-1.86481">
        <ele>64.197546</ele>
        <time>2022-12-17T13:20:15.428Z</time>
      </trkpt>
      <trkpt lat="46.93691" lon="-1.86498">
        <ele>64.105153</ele>
        <time>2022-12-17T13:20:18.408Z</time>
      </trkpt>
      <trkpt lat="46.93694" lon="-1.86517">
        <ele>64.00733</ele>
        <time>2022-12-17T13:20:21.417Z</time>
      </trkpt>
      <trkpt lat="46.93697" lon="-1.86529">
        <ele>63.939291</ele>
        <time>2022-12-17T13:20:23.415Z</time>
      </trkpt>
      <trkpt lat="46.93699" lon="-1.86542">
        <ele>63.87221</ele>
        <time>2022-12-17T13:20:25.408Z</time>
      </trkpt>
      <trkpt lat="46.93702" lon="-1.86555">
        <ele>63.823376</ele>
        <time>2022-12-17T13:20:27.427Z</time>
      </trkpt>
      <trkpt lat="46.93705" lon="-1.86568">
        <ele>63.833974</ele>
        <time>2022-12-17T13:20:29.409Z</time>
      </trkpt>
      <trkpt lat="46.93707" lon="-1.86581">
        <ele>63.84433</ele>
        <time>2022-12-17T13:20:31.409Z</time>
      </trkpt>
      <trkpt lat="46.9371" lon="-1.86595">
        <ele>63.855992</ele>
        <time>2022-12-17T13:20:33.423Z</time>
      </trkpt>
      <trkpt lat="46.93714" lon="-1.8661">
        <ele>63.867684</ele>
        <time>2022-12-17T13:20:35.409Z</time>
      </trkpt>
      <trkpt lat="46.93716" lon="-1.86622">
        <ele>63.878029</ele>
        <time>2022-12-17T13:20:37.412Z</time>
      </trkpt>
      <trkpt lat="46.93719" lon="-1.86641">
        <ele>63.892661</ele>
        <time>2022-12-17T13:20:40.406Z</time>
      </trkpt>
      <trkpt lat="46.93723" lon="-1.86656">
        <ele>63.905279</ele>
        <time>2022-12-17T13:20:43.405Z</time>
      </trkpt>
      <trkpt lat="46.93726" lon="-1.86671">
        <ele>63.917668</ele>
        <time>2022-12-17T13:20:46.393Z</time>
      </trkpt>
      <trkpt lat="46.9373" lon="-1.86689">
        <ele>63.93157</ele>
        <time>2022-12-17T13:20:49.399Z</time>
      </trkpt>
      <trkpt lat="46.93734" lon="-1.86706">
        <ele>63.946012</ele>
        <time>2022-12-17T13:20:52.400Z</time>
      </trkpt>
      <trkpt lat="46.93738" lon="-1.86725">
        <ele>63.960754</ele>
        <time>2022-12-17T13:20:55.405Z</time>
      </trkpt>
      <trkpt lat="46.9374" lon="-1.86744">
        <ele>63.97591</ele>
        <time>2022-12-17T13:20:58.412Z</time>
      </trkpt>
      <trkpt lat="46.93744" lon="-1.86757">
        <ele>63.986734</ele>
        <time>2022-12-17T13:21:00.422Z</time>
      </trkpt>
      <trkpt lat="46.93747" lon="-1.8677">
        <ele>63.99773</ele>
        <time>2022-12-17T13:21:02.397Z</time>
      </trkpt>
      <trkpt lat="46.9375" lon="-1.86784">
        <ele>64.009019</ele>
        <time>2022-12-17T13:21:04.419Z</time>
      </trkpt>
      <trkpt lat="46.93753" lon="-1.86798">
        <ele>64.020714</ele>
        <time>2022-12-17T13:21:06.418Z</time>
      </trkpt>
      <trkpt lat="46.93756" lon="-1.86814">
        <ele>63.99035</ele>
        <time>2022-12-17T13:21:08.408Z</time>
      </trkpt>
      <trkpt lat="46.93759" lon="-1.86828">
        <ele>63.938716</ele>
        <time>2022-12-17T13:21:10.421Z</time>
      </trkpt>
      <trkpt lat="46.93761" lon="-1.86842">
        <ele>63.890159</ele>
        <time>2022-12-17T13:21:12.394Z</time>
      </trkpt>
      <trkpt lat="46.93764" lon="-1.86855">
        <ele>63.841841</ele>
        <time>2022-12-17T13:21:14.420Z</time>
      </trkpt>
      <trkpt lat="46.93767" lon="-1.86869">
        <ele>63.793838</ele>
        <time>2022-12-17T13:21:16.418Z</time>
      </trkpt>
      <trkpt lat="46.93771" lon="-1.86888">
        <ele>63.727516</ele>
        <time>2022-12-17T13:21:19.407Z</time>
      </trkpt>
      <trkpt lat="46.93774" lon="-1.86901">
        <ele>63.680199</ele>
        <time>2022-12-17T13:21:21.410Z</time>
      </trkpt>
      <trkpt lat="46.93776" lon="-1.86914">
        <ele>63.633926</ele>
        <time>2022-12-17T13:21:23.409Z</time>
      </trkpt>
      <trkpt lat="46.93779" lon="-1.86928">
        <ele>63.585498</ele>
        <time>2022-12-17T13:21:25.416Z</time>
      </trkpt>
      <trkpt lat="46.93782" lon="-1.86941">
        <ele>63.537988</ele>
        <time>2022-12-17T13:21:27.410Z</time>
      </trkpt>
      <trkpt lat="46.93784" lon="-1.86955">
        <ele>63.489921</ele>
        <time>2022-12-17T13:21:29.421Z</time>
      </trkpt>
      <trkpt lat="46.93787" lon="-1.86968">
        <ele>63.443507</ele>
        <time>2022-12-17T13:21:31.413Z</time>
      </trkpt>
      <trkpt lat="46.93789" lon="-1.86982">
        <ele>63.394295</ele>
        <time>2022-12-17T13:21:33.411Z</time>
      </trkpt>
      <trkpt lat="46.93791" lon="-1.86996">
        <ele>63.346007</ele>
        <time>2022-12-17T13:21:35.406Z</time>
      </trkpt>
      <trkpt lat="46.93794" lon="-1.8701">
        <ele>63.296176</ele>
        <time>2022-12-17T13:21:37.403Z</time>
      </trkpt>
      <trkpt lat="46.93795" lon="-1.87025">
        <ele>63.245426</ele>
        <time>2022-12-17T13:21:39.415Z</time>
      </trkpt>
      <trkpt lat="46.93797" lon="-1.87039">
        <ele>63.196254</ele>
        <time>2022-12-17T13:21:41.402Z</time>
      </trkpt>
      <trkpt lat="46.938" lon="-1.87053">
        <ele>63.148744</ele>
        <time>2022-12-17T13:21:43.407Z</time>
      </trkpt>
      <trkpt lat="46.93802" lon="-1.87067">
        <ele>63.040649</ele>
        <time>2022-12-17T13:21:45.412Z</time>
      </trkpt>
      <trkpt lat="46.93803" lon="-1.87081">
        <ele>62.89922</ele>
        <time>2022-12-17T13:21:47.411Z</time>
      </trkpt>
      <trkpt lat="46.93805" lon="-1.87095">
        <ele>62.758778</ele>
        <time>2022-12-17T13:21:49.405Z</time>
      </trkpt>
      <trkpt lat="46.93805" lon="-1.8711">
        <ele>62.608227</ele>
        <time>2022-12-17T13:21:51.415Z</time>
      </trkpt>
      <trkpt lat="46.93806" lon="-1.87126">
        <ele>62.450532</ele>
        <time>2022-12-17T13:21:53.406Z</time>
      </trkpt>
      <trkpt lat="46.93807" lon="-1.87142">
        <ele>62.287189</ele>
        <time>2022-12-17T13:21:55.407Z</time>
      </trkpt>
      <trkpt lat="46.93809" lon="-1.87159">
        <ele>62.115766</ele>
        <time>2022-12-17T13:21:57.403Z</time>
      </trkpt>
      <trkpt lat="46.93809" lon="-1.87176">
        <ele>61.943178</ele>
        <time>2022-12-17T13:21:59.402Z</time>
      </trkpt>
      <trkpt lat="46.93811" lon="-1.87194">
        <ele>61.768257</ele>
        <time>2022-12-17T13:22:01.423Z</time>
      </trkpt>
      <trkpt lat="46.93812" lon="-1.87212">
        <ele>61.582431</ele>
        <time>2022-12-17T13:22:03.401Z</time>
      </trkpt>
      <trkpt lat="46.93813" lon="-1.87231">
        <ele>61.397826</ele>
        <time>2022-12-17T13:22:05.399Z</time>
      </trkpt>
      <trkpt lat="46.93813" lon="-1.87248">
        <ele>61.225238</ele>
        <time>2022-12-17T13:22:07.404Z</time>
      </trkpt>
      <trkpt lat="46.93814" lon="-1.87266">
        <ele>61.046781</ele>
        <time>2022-12-17T13:22:09.408Z</time>
      </trkpt>
      <trkpt lat="46.93814" lon="-1.87283">
        <ele>60.875527</ele>
        <time>2022-12-17T13:22:11.420Z</time>
      </trkpt>
      <trkpt lat="46.93814" lon="-1.87301">
        <ele>60.695365</ele>
        <time>2022-12-17T13:22:13.406Z</time>
      </trkpt>
      <trkpt lat="46.93814" lon="-1.8732">
        <ele>60.512845</ele>
        <time>2022-12-17T13:22:15.407Z</time>
      </trkpt>
      <trkpt lat="46.93814" lon="-1.87338">
        <ele>60.382827</ele>
        <time>2022-12-17T13:22:17.409Z</time>
      </trkpt>
      <trkpt lat="46.93813" lon="-1.87355">
        <ele>60.257296</ele>
        <time>2022-12-17T13:22:19.406Z</time>
      </trkpt>
      <trkpt lat="46.93812" lon="-1.87374">
        <ele>60.12458</ele>
        <time>2022-12-17T13:22:21.418Z</time>
      </trkpt>
      <trkpt lat="46.9381" lon="-1.87392">
        <ele>59.993455</ele>
        <time>2022-12-17T13:22:23.406Z</time>
      </trkpt>
      <trkpt lat="46.93808" lon="-1.8741">
        <ele>59.862614</ele>
        <time>2022-12-17T13:22:25.416Z</time>
      </trkpt>
      <trkpt lat="46.93807" lon="-1.87428">
        <ele>59.735017</ele>
        <time>2022-12-17T13:22:27.428Z</time>
      </trkpt>
      <trkpt lat="46.93804" lon="-1.87446">
        <ele>59.606036</ele>
        <time>2022-12-17T13:22:29.403Z</time>
      </trkpt>
      <trkpt lat="46.93803" lon="-1.87465">
        <ele>59.470676</ele>
        <time>2022-12-17T13:22:31.407Z</time>
      </trkpt>
      <trkpt lat="46.93801" lon="-1.87482">
        <ele>59.344329</ele>
        <time>2022-12-17T13:22:33.405Z</time>
      </trkpt>
      <trkpt lat="46.93799" lon="-1.875">
        <ele>59.214616</ele>
        <time>2022-12-17T13:22:35.402Z</time>
      </trkpt>
      <trkpt lat="46.93797" lon="-1.87518">
        <ele>59.083774</ele>
        <time>2022-12-17T13:22:37.406Z</time>
      </trkpt>
      <trkpt lat="46.93796" lon="-1.87536">
        <ele>58.958997</ele>
        <time>2022-12-17T13:22:39.421Z</time>
      </trkpt>
      <trkpt lat="46.93793" lon="-1.87554">
        <ele>58.827911</ele>
        <time>2022-12-17T13:22:41.420Z</time>
      </trkpt>
      <trkpt lat="46.93791" lon="-1.87571">
        <ele>58.701396</ele>
        <time>2022-12-17T13:22:43.418Z</time>
      </trkpt>
      <trkpt lat="46.9379" lon="-1.87589">
        <ele>58.508865</ele>
        <time>2022-12-17T13:22:45.425Z</time>
      </trkpt>
      <trkpt lat="46.93788" lon="-1.87606">
        <ele>58.259918</ele>
        <time>2022-12-17T13:22:47.417Z</time>
      </trkpt>
      <trkpt lat="46.93786" lon="-1.87622">
        <ele>58.02312</ele>
        <time>2022-12-17T13:22:49.408Z</time>
      </trkpt>
      <trkpt lat="46.93785" lon="-1.87637">
        <ele>57.811208</ele>
        <time>2022-12-17T13:22:51.405Z</time>
      </trkpt>
      <trkpt lat="46.93787" lon="-1.87656">
        <ele>57.527044</ele>
        <time>2022-12-17T13:22:54.424Z</time>
      </trkpt>
      <trkpt lat="46.93786" lon="-1.8767">
        <ele>57.326864</ele>
        <time>2022-12-17T13:22:56.417Z</time>
      </trkpt>
      <trkpt lat="46.93783" lon="-1.87684">
        <ele>57.122025</ele>
        <time>2022-12-17T13:22:58.406Z</time>
      </trkpt>
      <trkpt lat="46.93781" lon="-1.87697">
        <ele>56.911095</ele>
        <time>2022-12-17T13:23:00.416Z</time>
      </trkpt>
      <trkpt lat="46.93777" lon="-1.87712">
        <ele>56.684433</ele>
        <time>2022-12-17T13:23:02.399Z</time>
      </trkpt>
      <trkpt lat="46.93772" lon="-1.87726">
        <ele>56.465393</ele>
        <time>2022-12-17T13:23:04.409Z</time>
      </trkpt>
      <trkpt lat="46.93768" lon="-1.8774">
        <ele>56.233463</ele>
        <time>2022-12-17T13:23:06.399Z</time>
      </trkpt>
      <trkpt lat="46.93764" lon="-1.87756">
        <ele>55.989146</ele>
        <time>2022-12-17T13:23:08.409Z</time>
      </trkpt>
      <trkpt lat="46.93759" lon="-1.8777">
        <ele>55.755917</ele>
        <time>2022-12-17T13:23:10.418Z</time>
      </trkpt>
      <trkpt lat="46.93754" lon="-1.87786">
        <ele>55.509525</ele>
        <time>2022-12-17T13:23:12.406Z</time>
      </trkpt>
      <trkpt lat="46.9375" lon="-1.87801">
        <ele>55.264873</ele>
        <time>2022-12-17T13:23:14.400Z</time>
      </trkpt>
      <trkpt lat="46.93746" lon="-1.87817">
        <ele>55.017865</ele>
        <time>2022-12-17T13:23:16.412Z</time>
      </trkpt>
      <trkpt lat="46.93741" lon="-1.87833">
        <ele>54.759211</ele>
        <time>2022-12-17T13:23:18.408Z</time>
      </trkpt>
      <trkpt lat="46.93738" lon="-1.8785">
        <ele>54.462311</ele>
        <time>2022-12-17T13:23:20.414Z</time>
      </trkpt>
      <trkpt lat="46.93735" lon="-1.87866">
        <ele>54.169381</ele>
        <time>2022-12-17T13:23:22.405Z</time>
      </trkpt>
      <trkpt lat="46.93733" lon="-1.87883">
        <ele>53.876205</ele>
        <time>2022-12-17T13:23:24.407Z</time>
      </trkpt>
      <trkpt lat="46.93732" lon="-1.879">
        <ele>53.596694</ele>
        <time>2022-12-17T13:23:26.419Z</time>
      </trkpt>
      <trkpt lat="46.93731" lon="-1.87916">
        <ele>53.313716</ele>
        <time>2022-12-17T13:23:28.408Z</time>
      </trkpt>
      <trkpt lat="46.93731" lon="-1.87932">
        <ele>53.044964</ele>
        <time>2022-12-17T13:23:30.408Z</time>
      </trkpt>
      <trkpt lat="46.93733" lon="-1.87947">
        <ele>52.775301</ele>
        <time>2022-12-17T13:23:32.401Z</time>
      </trkpt>
      <trkpt lat="46.93734" lon="-1.87962">
        <ele>52.517498</ele>
        <time>2022-12-17T13:23:34.420Z</time>
      </trkpt>
      <trkpt lat="46.93737" lon="-1.87976">
        <ele>52.271453</ele>
        <time>2022-12-17T13:23:36.404Z</time>
      </trkpt>
      <trkpt lat="46.93739" lon="-1.8799">
        <ele>52.027215</ele>
        <time>2022-12-17T13:23:38.411Z</time>
      </trkpt>
      <trkpt lat="46.93741" lon="-1.88005">
        <ele>51.775796</ele>
        <time>2022-12-17T13:23:40.405Z</time>
      </trkpt>
      <trkpt lat="46.93745" lon="-1.88023">
        <ele>51.446141</ele>
        <time>2022-12-17T13:23:43.405Z</time>
      </trkpt>
      <trkpt lat="46.93747" lon="-1.88039">
        <ele>51.164617</ele>
        <time>2022-12-17T13:23:46.411Z</time>
      </trkpt>
      <trkpt lat="46.9375" lon="-1.88056">
        <ele>50.854707</ele>
        <time>2022-12-17T13:23:49.420Z</time>
      </trkpt>
      <trkpt lat="46.93753" lon="-1.88076">
        <ele>50.517563</ele>
        <time>2022-12-17T13:23:52.398Z</time>
      </trkpt>
      <trkpt lat="46.93756" lon="-1.8809">
        <ele>50.262343</ele>
        <time>2022-12-17T13:23:54.423Z</time>
      </trkpt>
      <trkpt lat="46.93759" lon="-1.88105">
        <ele>50.055867</ele>
        <time>2022-12-17T13:23:56.426Z</time>
      </trkpt>
      <trkpt lat="46.93761" lon="-1.8812">
        <ele>49.851519</ele>
        <time>2022-12-17T13:23:58.423Z</time>
      </trkpt>
      <trkpt lat="46.93763" lon="-1.88136">
        <ele>49.633644</ele>
        <time>2022-12-17T13:24:00.408Z</time>
      </trkpt>
      <trkpt lat="46.93766" lon="-1.88152">
        <ele>49.403541</ele>
        <time>2022-12-17T13:24:02.399Z</time>
      </trkpt>
      <trkpt lat="46.93769" lon="-1.88169">
        <ele>49.172716</ele>
        <time>2022-12-17T13:24:04.412Z</time>
      </trkpt>
      <trkpt lat="46.93771" lon="-1.88187">
        <ele>48.930611</ele>
        <time>2022-12-17T13:24:06.413Z</time>
      </trkpt>
      <trkpt lat="46.93775" lon="-1.88203">
        <ele>48.695901</ele>
        <time>2022-12-17T13:24:08.418Z</time>
      </trkpt>
      <trkpt lat="46.93778" lon="-1.88221">
        <ele>48.448696</ele>
        <time>2022-12-17T13:24:10.408Z</time>
      </trkpt>
      <trkpt lat="46.9378" lon="-1.88239">
        <ele>48.208594</ele>
        <time>2022-12-17T13:24:12.404Z</time>
      </trkpt>
      <trkpt lat="46.93781" lon="-1.88256">
        <ele>47.975112</ele>
        <time>2022-12-17T13:24:14.403Z</time>
      </trkpt>
      <trkpt lat="46.93781" lon="-1.88274">
        <ele>47.74043</ele>
        <time>2022-12-17T13:24:16.419Z</time>
      </trkpt>
      <trkpt lat="46.93782" lon="-1.8829">
        <ele>47.521</ele>
        <time>2022-12-17T13:24:18.452Z</time>
      </trkpt>
      <trkpt lat="46.93781" lon="-1.88306">
        <ele>47.303447</ele>
        <time>2022-12-17T13:24:20.411Z</time>
      </trkpt>
      <trkpt lat="46.9378" lon="-1.88321">
        <ele>47.09411</ele>
        <time>2022-12-17T13:24:22.400Z</time>
      </trkpt>
      <trkpt lat="46.93779" lon="-1.88337">
        <ele>46.887455</ele>
        <time>2022-12-17T13:24:24.408Z</time>
      </trkpt>
      <trkpt lat="46.93778" lon="-1.88352">
        <ele>46.791797</ele>
        <time>2022-12-17T13:24:26.408Z</time>
      </trkpt>
      <trkpt lat="46.93777" lon="-1.88365">
        <ele>46.951428</ele>
        <time>2022-12-17T13:24:28.404Z</time>
      </trkpt>
      <trkpt lat="46.93776" lon="-1.88379">
        <ele>47.105804</ele>
        <time>2022-12-17T13:24:30.399Z</time>
      </trkpt>
      <trkpt lat="46.93775" lon="-1.88397">
        <ele>47.322819</ele>
        <time>2022-12-17T13:24:33.410Z</time>
      </trkpt>
      <trkpt lat="46.93775" lon="-1.88416">
        <ele>47.531487</ele>
        <time>2022-12-17T13:24:36.404Z</time>
      </trkpt>
      <trkpt lat="46.93777" lon="-1.88434">
        <ele>47.745641</ele>
        <time>2022-12-17T13:24:39.406Z</time>
      </trkpt>
      <trkpt lat="46.93778" lon="-1.88453">
        <ele>47.968582</ele>
        <time>2022-12-17T13:24:42.399Z</time>
      </trkpt>
      <trkpt lat="46.93778" lon="-1.88467">
        <ele>48.121742</ele>
        <time>2022-12-17T13:24:44.401Z</time>
      </trkpt>
      <trkpt lat="46.93778" lon="-1.88486">
        <ele>48.351196</ele>
        <time>2022-12-17T13:24:47.402Z</time>
      </trkpt>
      <trkpt lat="46.93777" lon="-1.885">
        <ele>48.507561</ele>
        <time>2022-12-17T13:24:49.418Z</time>
      </trkpt>
      <trkpt lat="46.93774" lon="-1.88513">
        <ele>48.664432</ele>
        <time>2022-12-17T13:24:51.414Z</time>
      </trkpt>
      <trkpt lat="46.93772" lon="-1.88526">
        <ele>48.820502</ele>
        <time>2022-12-17T13:24:53.417Z</time>
      </trkpt>
      <trkpt lat="46.93771" lon="-1.8854">
        <ele>48.974772</ele>
        <time>2022-12-17T13:24:55.422Z</time>
      </trkpt>
      <trkpt lat="46.9377" lon="-1.88554">
        <ele>49.138009</ele>
        <time>2022-12-17T13:24:57.400Z</time>
      </trkpt>
      <trkpt lat="46.9377" lon="-1.88571">
        <ele>49.331528</ele>
        <time>2022-12-17T13:25:00.400Z</time>
      </trkpt>
      <trkpt lat="46.93768" lon="-1.88584">
        <ele>49.493083</ele>
        <time>2022-12-17T13:25:03.414Z</time>
      </trkpt>
      <trkpt lat="46.93768" lon="-1.886">
        <ele>49.676173</ele>
        <time>2022-12-17T13:25:07.399Z</time>
      </trkpt>
      <trkpt lat="46.9377" lon="-1.88614">
        <ele>49.84203</ele>
        <time>2022-12-17T13:25:12.399Z</time>
      </trkpt>
      <trkpt lat="46.93767" lon="-1.88628">
        <ele>50.025404</ele>
        <time>2022-12-17T13:25:20.402Z</time>
      </trkpt>
      <trkpt lat="46.93757" lon="-1.88633">
        <ele>50.210832</ele>
        <time>2022-12-17T13:25:24.411Z</time>
      </trkpt>
      <trkpt lat="46.93745" lon="-1.88638">
        <ele>50.429157</ele>
        <time>2022-12-17T13:25:28.408Z</time>
      </trkpt>
      <trkpt lat="46.93736" lon="-1.8864">
        <ele>50.602804</ele>
        <time>2022-12-17T13:25:31.401Z</time>
      </trkpt>
      <trkpt lat="46.93727" lon="-1.88644">
        <ele>50.769684</ele>
        <time>2022-12-17T13:25:34.412Z</time>
      </trkpt>
      <trkpt lat="46.93717" lon="-1.88647">
        <ele>50.95085</ele>
        <time>2022-12-17T13:25:37.409Z</time>
      </trkpt>
      <trkpt lat="46.93708" lon="-1.8865">
        <ele>51.125994</ele>
        <time>2022-12-17T13:25:40.404Z</time>
      </trkpt>
      <trkpt lat="46.93698" lon="-1.88653">
        <ele>51.304223</ele>
        <time>2022-12-17T13:25:43.402Z</time>
      </trkpt>
      <trkpt lat="46.93686" lon="-1.88655">
        <ele>51.518781</ele>
        <time>2022-12-17T13:25:47.418Z</time>
      </trkpt>
      <trkpt lat="46.93676" lon="-1.88657">
        <ele>51.703714</ele>
        <time>2022-12-17T13:25:50.400Z</time>
      </trkpt>
      <trkpt lat="46.93667" lon="-1.88659">
        <ele>51.877952</ele>
        <time>2022-12-17T13:25:53.416Z</time>
      </trkpt>
      <trkpt lat="46.93658" lon="-1.88662">
        <ele>52.046016</ele>
        <time>2022-12-17T13:25:56.399Z</time>
      </trkpt>
      <trkpt lat="46.93648" lon="-1.88664">
        <ele>52.220048</ele>
        <time>2022-12-17T13:25:59.407Z</time>
      </trkpt>
      <trkpt lat="46.93639" lon="-1.88666">
        <ele>52.387647</ele>
        <time>2022-12-17T13:26:02.397Z</time>
      </trkpt>
      <trkpt lat="46.9363" lon="-1.88667">
        <ele>52.556498</ele>
        <time>2022-12-17T13:26:05.404Z</time>
      </trkpt>
      <trkpt lat="46.93618" lon="-1.88669">
        <ele>52.772852</ele>
        <time>2022-12-17T13:26:09.415Z</time>
      </trkpt>
      <trkpt lat="46.93609" lon="-1.8867">
        <ele>52.937552</ele>
        <time>2022-12-17T13:26:12.405Z</time>
      </trkpt>
      <trkpt lat="46.93597" lon="-1.88671">
        <ele>53.088538</ele>
        <time>2022-12-17T13:26:16.408Z</time>
      </trkpt>
      <trkpt lat="46.93588" lon="-1.88671">
        <ele>53.169076</ele>
        <time>2022-12-17T13:26:19.405Z</time>
      </trkpt>
      <trkpt lat="46.93578" lon="-1.88671">
        <ele>53.257701</ele>
        <time>2022-12-17T13:26:22.397Z</time>
      </trkpt>
      <trkpt lat="46.93568" lon="-1.88671">
        <ele>53.345432</ele>
        <time>2022-12-17T13:26:25.408Z</time>
      </trkpt>
      <trkpt lat="46.93559" lon="-1.88672">
        <ele>53.431515</ele>
        <time>2022-12-17T13:26:28.400Z</time>
      </trkpt>
      <trkpt lat="46.93548" lon="-1.88674">
        <ele>53.524973</ele>
        <time>2022-12-17T13:26:31.406Z</time>
      </trkpt>
      <trkpt lat="46.93538" lon="-1.88676">
        <ele>53.621051</ele>
        <time>2022-12-17T13:26:34.402Z</time>
      </trkpt>
      <trkpt lat="46.93527" lon="-1.88679">
        <ele>53.715905</ele>
        <time>2022-12-17T13:26:37.408Z</time>
      </trkpt>
      <trkpt lat="46.93516" lon="-1.88682">
        <ele>53.81483</ele>
        <time>2022-12-17T13:26:40.416Z</time>
      </trkpt>
      <trkpt lat="46.93505" lon="-1.88684">
        <ele>53.914263</ele>
        <time>2022-12-17T13:26:43.412Z</time>
      </trkpt>
      <trkpt lat="46.93494" lon="-1.88687">
        <ele>54.015499</ele>
        <time>2022-12-17T13:26:46.411Z</time>
      </trkpt>
      <trkpt lat="46.93482" lon="-1.88691">
        <ele>54.12224</ele>
        <time>2022-12-17T13:26:49.418Z</time>
      </trkpt>
      <trkpt lat="46.9347" lon="-1.88695">
        <ele>54.233806</ele>
        <time>2022-12-17T13:26:52.402Z</time>
      </trkpt>
      <trkpt lat="46.93458" lon="-1.88699">
        <ele>54.343202</ele>
        <time>2022-12-17T13:26:55.426Z</time>
      </trkpt>
      <trkpt lat="46.93447" lon="-1.88703">
        <ele>54.444808</ele>
        <time>2022-12-17T13:26:58.407Z</time>
      </trkpt>
      <trkpt lat="46.93436" lon="-1.88707">
        <ele>54.547178</ele>
        <time>2022-12-17T13:27:01.397Z</time>
      </trkpt>
      <trkpt lat="46.93425" lon="-1.88711">
        <ele>54.613577</ele>
        <time>2022-12-17T13:27:04.415Z</time>
      </trkpt>
      <trkpt lat="46.93413" lon="-1.88713">
        <ele>54.407621</ele>
        <time>2022-12-17T13:27:07.412Z</time>
      </trkpt>
      <trkpt lat="46.934" lon="-1.8871">
        <ele>54.17742</ele>
        <time>2022-12-17T13:27:10.413Z</time>
      </trkpt>
      <trkpt lat="46.93391" lon="-1.88707">
        <ele>54.021502</ele>
        <time>2022-12-17T13:27:12.401Z</time>
      </trkpt>
      <trkpt lat="46.93382" lon="-1.88704">
        <ele>53.857661</ele>
        <time>2022-12-17T13:27:14.408Z</time>
      </trkpt>
      <trkpt lat="46.93369" lon="-1.887">
        <ele>53.633184</ele>
        <time>2022-12-17T13:27:17.419Z</time>
      </trkpt>
      <trkpt lat="46.93357" lon="-1.88697">
        <ele>53.414256</ele>
        <time>2022-12-17T13:27:20.414Z</time>
      </trkpt>
      <trkpt lat="46.93343" lon="-1.88695">
        <ele>53.181691</ele>
        <time>2022-12-17T13:27:23.413Z</time>
      </trkpt>
      <trkpt lat="46.93334" lon="-1.88693">
        <ele>53.02354</ele>
        <time>2022-12-17T13:27:25.410Z</time>
      </trkpt>
      <trkpt lat="46.93325" lon="-1.88691">
        <ele>52.858874</ele>
        <time>2022-12-17T13:27:27.410Z</time>
      </trkpt>
      <trkpt lat="46.93315" lon="-1.88689">
        <ele>52.688633</ele>
        <time>2022-12-17T13:27:29.415Z</time>
      </trkpt>
      <trkpt lat="46.93305" lon="-1.88687">
        <ele>52.515285</ele>
        <time>2022-12-17T13:27:31.406Z</time>
      </trkpt>
      <trkpt lat="46.93295" lon="-1.88685">
        <ele>52.338378</ele>
        <time>2022-12-17T13:27:33.420Z</time>
      </trkpt>
      <trkpt lat="46.93284" lon="-1.88683">
        <ele>52.158934</ele>
        <time>2022-12-17T13:27:35.409Z</time>
      </trkpt>
      <trkpt lat="46.93274" lon="-1.88681">
        <ele>51.978754</ele>
        <time>2022-12-17T13:27:37.415Z</time>
      </trkpt>
      <trkpt lat="46.93264" lon="-1.88679">
        <ele>51.799665</ele>
        <time>2022-12-17T13:27:39.416Z</time>
      </trkpt>
      <trkpt lat="46.93254" lon="-1.88677">
        <ele>51.6338</ele>
        <time>2022-12-17T13:27:41.418Z</time>
      </trkpt>
      <trkpt lat="46.93244" lon="-1.88674">
        <ele>51.488732</ele>
        <time>2022-12-17T13:27:43.418Z</time>
      </trkpt>
      <trkpt lat="46.93233" lon="-1.88673">
        <ele>51.378413</ele>
        <time>2022-12-17T13:27:45.409Z</time>
      </trkpt>
      <trkpt lat="46.93224" lon="-1.88672">
        <ele>51.276454</ele>
        <time>2022-12-17T13:27:47.425Z</time>
      </trkpt>
      <trkpt lat="46.93213" lon="-1.88671">
        <ele>51.168112</ele>
        <time>2022-12-17T13:27:49.409Z</time>
      </trkpt>
      <trkpt lat="46.93203" lon="-1.88669">
        <ele>51.062137</ele>
        <time>2022-12-17T13:27:51.422Z</time>
      </trkpt>
      <trkpt lat="46.93193" lon="-1.88666">
        <ele>50.953756</ele>
        <time>2022-12-17T13:27:53.419Z</time>
      </trkpt>
      <trkpt lat="46.93183" lon="-1.88664">
        <ele>50.844007</ele>
        <time>2022-12-17T13:27:55.414Z</time>
      </trkpt>
      <trkpt lat="46.93173" lon="-1.88663">
        <ele>50.74171</ele>
        <time>2022-12-17T13:27:57.408Z</time>
      </trkpt>
      <trkpt lat="46.93163" lon="-1.88661">
        <ele>50.63656</ele>
        <time>2022-12-17T13:27:59.416Z</time>
      </trkpt>
      <trkpt lat="46.93153" lon="-1.88659">
        <ele>50.531827</ele>
        <time>2022-12-17T13:28:01.408Z</time>
      </trkpt>
      <trkpt lat="46.93143" lon="-1.88658">
        <ele>50.425111</ele>
        <time>2022-12-17T13:28:03.430Z</time>
      </trkpt>
      <trkpt lat="46.93133" lon="-1.88657">
        <ele>50.315971</ele>
        <time>2022-12-17T13:28:05.408Z</time>
      </trkpt>
      <trkpt lat="46.93121" lon="-1.88656">
        <ele>50.19842</ele>
        <time>2022-12-17T13:28:07.421Z</time>
      </trkpt>
      <trkpt lat="46.93111" lon="-1.88655">
        <ele>50.090418</ele>
        <time>2022-12-17T13:28:09.407Z</time>
      </trkpt>
      <trkpt lat="46.93101" lon="-1.88655">
        <ele>49.98562</ele>
        <time>2022-12-17T13:28:11.421Z</time>
      </trkpt>
      <trkpt lat="46.93091" lon="-1.88655">
        <ele>49.878726</ele>
        <time>2022-12-17T13:28:13.419Z</time>
      </trkpt>
      <trkpt lat="46.93081" lon="-1.88656">
        <ele>49.770724</ele>
        <time>2022-12-17T13:28:15.417Z</time>
      </trkpt>
      <trkpt lat="46.9307" lon="-1.88656">
        <ele>49.661696</ele>
        <time>2022-12-17T13:28:17.419Z</time>
      </trkpt>
      <trkpt lat="46.9306" lon="-1.88656">
        <ele>49.788903</ele>
        <time>2022-12-17T13:28:19.413Z</time>
      </trkpt>
      <trkpt lat="46.9305" lon="-1.88656">
        <ele>49.923297</ele>
        <time>2022-12-17T13:28:21.424Z</time>
      </trkpt>
      <trkpt lat="46.93039" lon="-1.88657">
        <ele>50.061678</ele>
        <time>2022-12-17T13:28:23.408Z</time>
      </trkpt>
      <trkpt lat="46.93029" lon="-1.88657">
        <ele>50.19738</ele>
        <time>2022-12-17T13:28:25.405Z</time>
      </trkpt>
      <trkpt lat="46.93019" lon="-1.88657">
        <ele>50.333225</ele>
        <time>2022-12-17T13:28:27.413Z</time>
      </trkpt>
      <trkpt lat="46.93007" lon="-1.88658">
        <ele>50.480916</ele>
        <time>2022-12-17T13:28:29.410Z</time>
      </trkpt>
      <trkpt lat="46.92997" lon="-1.88658">
        <ele>50.612675</ele>
        <time>2022-12-17T13:28:31.419Z</time>
      </trkpt>
      <trkpt lat="46.92987" lon="-1.88659">
        <ele>50.752352</ele>
        <time>2022-12-17T13:28:33.405Z</time>
      </trkpt>
      <trkpt lat="46.92977" lon="-1.88659">
        <ele>50.884127</ele>
        <time>2022-12-17T13:28:35.416Z</time>
      </trkpt>
      <trkpt lat="46.92967" lon="-1.88659">
        <ele>51.006654</ele>
        <time>2022-12-17T13:28:37.410Z</time>
      </trkpt>
      <trkpt lat="46.92958" lon="-1.88658">
        <ele>51.129298</ele>
        <time>2022-12-17T13:28:39.411Z</time>
      </trkpt>
      <trkpt lat="46.92945" lon="-1.88658">
        <ele>51.303205</ele>
        <time>2022-12-17T13:28:42.400Z</time>
      </trkpt>
      <trkpt lat="46.92933" lon="-1.88659">
        <ele>51.466772</ele>
        <time>2022-12-17T13:28:45.423Z</time>
      </trkpt>
      <trkpt lat="46.9292" lon="-1.8866">
        <ele>51.638328</ele>
        <time>2022-12-17T13:28:48.419Z</time>
      </trkpt>
      <trkpt lat="46.92907" lon="-1.8866">
        <ele>51.797782</ele>
        <time>2022-12-17T13:28:51.396Z</time>
      </trkpt>
      <trkpt lat="46.92896" lon="-1.88661">
        <ele>51.94535</ele>
        <time>2022-12-17T13:28:54.405Z</time>
      </trkpt>
      <trkpt lat="46.92885" lon="-1.8866">
        <ele>52.084261</ele>
        <time>2022-12-17T13:28:57.418Z</time>
      </trkpt>
      <trkpt lat="46.92875" lon="-1.8866">
        <ele>52.211981</ele>
        <time>2022-12-17T13:29:00.411Z</time>
      </trkpt>
      <trkpt lat="46.92864" lon="-1.88661">
        <ele>52.343434</ele>
        <time>2022-12-17T13:29:03.405Z</time>
      </trkpt>
      <trkpt lat="46.92853" lon="-1.88661">
        <ele>52.47605</ele>
        <time>2022-12-17T13:29:06.422Z</time>
      </trkpt>
      <trkpt lat="46.92843" lon="-1.88661">
        <ele>52.605</ele>
        <time>2022-12-17T13:29:09.414Z</time>
      </trkpt>
      <trkpt lat="46.92831" lon="-1.8866">
        <ele>52.74245</ele>
        <time>2022-12-17T13:29:12.400Z</time>
      </trkpt>
      <trkpt lat="46.9282" lon="-1.88661">
        <ele>52.881168</ele>
        <time>2022-12-17T13:29:15.404Z</time>
      </trkpt>
      <trkpt lat="46.92808" lon="-1.88662">
        <ele>53.023592</ele>
        <time>2022-12-17T13:29:18.392Z</time>
      </trkpt>
      <trkpt lat="46.92797" lon="-1.88662">
        <ele>53.164769</ele>
        <time>2022-12-17T13:29:21.413Z</time>
      </trkpt>
      <trkpt lat="46.92785" lon="-1.88663">
        <ele>53.29984</ele>
        <time>2022-12-17T13:29:24.402Z</time>
      </trkpt>
      <trkpt lat="46.92774" lon="-1.88662">
        <ele>53.44099</ele>
        <time>2022-12-17T13:29:27.423Z</time>
      </trkpt>
      <trkpt lat="46.92763" lon="-1.88663">
        <ele>53.578492</ele>
        <time>2022-12-17T13:29:30.405Z</time>
      </trkpt>
      <trkpt lat="46.92751" lon="-1.88663">
        <ele>53.72329</ele>
        <time>2022-12-17T13:29:33.410Z</time>
      </trkpt>
      <trkpt lat="46.92738" lon="-1.88664">
        <ele>53.87179</ele>
        <time>2022-12-17T13:29:36.429Z</time>
      </trkpt>
      <trkpt lat="46.92727" lon="-1.88664">
        <ele>54.014117</ele>
        <time>2022-12-17T13:29:39.410Z</time>
      </trkpt>
      <trkpt lat="46.92715" lon="-1.88665">
        <ele>54.15646</ele>
        <time>2022-12-17T13:29:42.403Z</time>
      </trkpt>
      <trkpt lat="46.92703" lon="-1.88665">
        <ele>54.258714</ele>
        <time>2022-12-17T13:29:45.397Z</time>
      </trkpt>
      <trkpt lat="46.92692" lon="-1.88665">
        <ele>54.330935</ele>
        <time>2022-12-17T13:29:48.398Z</time>
      </trkpt>
      <trkpt lat="46.92682" lon="-1.88665">
        <ele>54.391853</ele>
        <time>2022-12-17T13:29:51.408Z</time>
      </trkpt>
      <trkpt lat="46.92672" lon="-1.88664">
        <ele>54.455332</ele>
        <time>2022-12-17T13:29:54.402Z</time>
      </trkpt>
      <trkpt lat="46.92661" lon="-1.88665">
        <ele>54.525701</ele>
        <time>2022-12-17T13:29:57.399Z</time>
      </trkpt>
      <trkpt lat="46.92649" lon="-1.88665">
        <ele>54.596665</ele>
        <time>2022-12-17T13:30:00.400Z</time>
      </trkpt>
      <trkpt lat="46.92639" lon="-1.88664">
        <ele>54.663894</ele>
        <time>2022-12-17T13:30:03.421Z</time>
      </trkpt>
      <trkpt lat="46.92628" lon="-1.88664">
        <ele>54.729834</ele>
        <time>2022-12-17T13:30:06.412Z</time>
      </trkpt>
      <trkpt lat="46.92618" lon="-1.88664">
        <ele>54.794531</ele>
        <time>2022-12-17T13:30:09.423Z</time>
      </trkpt>
      <trkpt lat="46.92609" lon="-1.88664">
        <ele>54.852949</ele>
        <time>2022-12-17T13:30:12.401Z</time>
      </trkpt>
      <trkpt lat="46.92599" lon="-1.88665">
        <ele>54.912136</ele>
        <time>2022-12-17T13:30:15.402Z</time>
      </trkpt>
      <trkpt lat="46.9259" lon="-1.88666">
        <ele>54.97182</ele>
        <time>2022-12-17T13:30:18.402Z</time>
      </trkpt>
      <trkpt lat="46.9258" lon="-1.88666">
        <ele>55.035882</ele>
        <time>2022-12-17T13:30:21.421Z</time>
      </trkpt>
      <trkpt lat="46.9257" lon="-1.88666">
        <ele>55.098705</ele>
        <time>2022-12-17T13:30:24.419Z</time>
      </trkpt>
      <trkpt lat="46.9256" lon="-1.88667">
        <ele>55.159031</ele>
        <time>2022-12-17T13:30:27.421Z</time>
      </trkpt>
      <trkpt lat="46.92551" lon="-1.88666">
        <ele>55.21746</ele>
        <time>2022-12-17T13:30:30.416Z</time>
      </trkpt>
      <trkpt lat="46.92541" lon="-1.88667">
        <ele>55.27525</ele>
        <time>2022-12-17T13:30:33.412Z</time>
      </trkpt>
      <trkpt lat="46.9253" lon="-1.88667">
        <ele>55.345851</ele>
        <time>2022-12-17T13:30:37.414Z</time>
      </trkpt>
      <trkpt lat="46.9252" lon="-1.88667">
        <ele>55.397755</ele>
        <time>2022-12-17T13:30:41.416Z</time>
      </trkpt>
      <trkpt lat="46.9251" lon="-1.88668">
        <ele>55.444229</ele>
        <time>2022-12-17T13:30:44.411Z</time>
      </trkpt>
      <trkpt lat="46.92501" lon="-1.88668">
        <ele>55.491671</ele>
        <time>2022-12-17T13:30:47.408Z</time>
      </trkpt>
      <trkpt lat="46.92491" lon="-1.88667">
        <ele>55.540177</ele>
        <time>2022-12-17T13:30:50.410Z</time>
      </trkpt>
      <trkpt lat="46.92481" lon="-1.88666">
        <ele>55.590088</ele>
        <time>2022-12-17T13:30:53.425Z</time>
      </trkpt>
      <trkpt lat="46.92472" lon="-1.88666">
        <ele>55.638497</ele>
        <time>2022-12-17T13:30:56.412Z</time>
      </trkpt>
      <trkpt lat="46.9246" lon="-1.88667">
        <ele>55.694893</ele>
        <time>2022-12-17T13:30:59.414Z</time>
      </trkpt>
      <trkpt lat="46.92449" lon="-1.88667">
        <ele>55.750789</ele>
        <time>2022-12-17T13:31:02.401Z</time>
      </trkpt>
      <trkpt lat="46.92438" lon="-1.88667">
        <ele>55.804689</ele>
        <time>2022-12-17T13:31:05.399Z</time>
      </trkpt>
      <trkpt lat="46.92428" lon="-1.88668">
        <ele>55.856184</ele>
        <time>2022-12-17T13:31:08.403Z</time>
      </trkpt>
      <trkpt lat="46.92417" lon="-1.88668">
        <ele>55.913087</ele>
        <time>2022-12-17T13:31:11.404Z</time>
      </trkpt>
      <trkpt lat="46.92405" lon="-1.88668">
        <ele>55.969498</ele>
        <time>2022-12-17T13:31:14.407Z</time>
      </trkpt>
      <trkpt lat="46.92392" lon="-1.88669">
        <ele>56.035895</ele>
        <time>2022-12-17T13:31:17.400Z</time>
      </trkpt>
      <trkpt lat="46.92379" lon="-1.88669">
        <ele>56.099276</ele>
        <time>2022-12-17T13:31:20.401Z</time>
      </trkpt>
      <trkpt lat="46.92368" lon="-1.8867">
        <ele>56.157716</ele>
        <time>2022-12-17T13:31:23.409Z</time>
      </trkpt>
      <trkpt lat="46.92356" lon="-1.88669">
        <ele>56.215616</ele>
        <time>2022-12-17T13:31:26.406Z</time>
      </trkpt>
      <trkpt lat="46.92344" lon="-1.8867">
        <ele>56.193716</ele>
        <time>2022-12-17T13:31:29.408Z</time>
      </trkpt>
      <trkpt lat="46.92332" lon="-1.8867">
        <ele>56.106093</ele>
        <time>2022-12-17T13:31:32.398Z</time>
      </trkpt>
      <trkpt lat="46.9232" lon="-1.8867">
        <ele>56.016321</ele>
        <time>2022-12-17T13:31:35.402Z</time>
      </trkpt>
      <trkpt lat="46.92307" lon="-1.88671">
        <ele>55.928731</ele>
        <time>2022-12-17T13:31:38.411Z</time>
      </trkpt>
      <trkpt lat="46.92295" lon="-1.8867">
        <ele>55.838959</ele>
        <time>2022-12-17T13:31:41.427Z</time>
      </trkpt>
      <trkpt lat="46.92282" lon="-1.8867">
        <ele>55.747751</ele>
        <time>2022-12-17T13:31:44.408Z</time>
      </trkpt>
      <trkpt lat="46.92269" lon="-1.8867">
        <ele>55.650028</ele>
        <time>2022-12-17T13:31:47.402Z</time>
      </trkpt>
      <trkpt lat="46.92259" lon="-1.8867">
        <ele>55.579046</ele>
        <time>2022-12-17T13:31:49.398Z</time>
      </trkpt>
      <trkpt lat="46.92249" lon="-1.8867">
        <ele>55.505185</ele>
        <time>2022-12-17T13:31:51.408Z</time>
      </trkpt>
      <trkpt lat="46.92238" lon="-1.8867">
        <ele>55.425558</ele>
        <time>2022-12-17T13:31:53.421Z</time>
      </trkpt>
      <trkpt lat="46.92227" lon="-1.88671">
        <ele>55.345202</ele>
        <time>2022-12-17T13:31:55.418Z</time>
      </trkpt>
      <trkpt lat="46.92216" lon="-1.88671">
        <ele>55.267</ele>
        <time>2022-12-17T13:31:57.409Z</time>
      </trkpt>
      <trkpt lat="46.92205" lon="-1.88671">
        <ele>55.183742</ele>
        <time>2022-12-17T13:31:59.414Z</time>
      </trkpt>
      <trkpt lat="46.92193" lon="-1.88671">
        <ele>55.099047</ele>
        <time>2022-12-17T13:32:01.418Z</time>
      </trkpt>
      <trkpt lat="46.92181" lon="-1.88672">
        <ele>55.01575</ele>
        <time>2022-12-17T13:32:03.424Z</time>
      </trkpt>
      <trkpt lat="46.9217" lon="-1.88673">
        <ele>54.943445</ele>
        <time>2022-12-17T13:32:05.409Z</time>
      </trkpt>
      <trkpt lat="46.92158" lon="-1.88673">
        <ele>54.973859</ele>
        <time>2022-12-17T13:32:07.421Z</time>
      </trkpt>
      <trkpt lat="46.92147" lon="-1.88673">
        <ele>55.005079</ele>
        <time>2022-12-17T13:32:09.424Z</time>
      </trkpt>
      <trkpt lat="46.92136" lon="-1.88673">
        <ele>55.034962</ele>
        <time>2022-12-17T13:32:11.421Z</time>
      </trkpt>
      <trkpt lat="46.92124" lon="-1.88673">
        <ele>55.065653</ele>
        <time>2022-12-17T13:32:13.419Z</time>
      </trkpt>
      <trkpt lat="46.92113" lon="-1.88673">
        <ele>55.095527</ele>
        <time>2022-12-17T13:32:15.420Z</time>
      </trkpt>
      <trkpt lat="46.92102" lon="-1.88673">
        <ele>55.124868</ele>
        <time>2022-12-17T13:32:17.410Z</time>
      </trkpt>
      <trkpt lat="46.92091" lon="-1.88673">
        <ele>55.154204</ele>
        <time>2022-12-17T13:32:19.406Z</time>
      </trkpt>
      <trkpt lat="46.9208" lon="-1.88674">
        <ele>55.184672</ele>
        <time>2022-12-17T13:32:21.413Z</time>
      </trkpt>
      <trkpt lat="46.92069" lon="-1.88675">
        <ele>55.213238</ele>
        <time>2022-12-17T13:32:23.420Z</time>
      </trkpt>
      <trkpt lat="46.92058" lon="-1.88675">
        <ele>55.242579</ele>
        <time>2022-12-17T13:32:25.416Z</time>
      </trkpt>
      <trkpt lat="46.92048" lon="-1.88675">
        <ele>55.271915</ele>
        <time>2022-12-17T13:32:27.410Z</time>
      </trkpt>
      <trkpt lat="46.92038" lon="-1.88675">
        <ele>55.297494</ele>
        <time>2022-12-17T13:32:29.409Z</time>
      </trkpt>
      <trkpt lat="46.92025" lon="-1.88675">
        <ele>55.33223</ele>
        <time>2022-12-17T13:32:32.401Z</time>
      </trkpt>
      <trkpt lat="46.92013" lon="-1.88675">
        <ele>55.366145</ele>
        <time>2022-12-17T13:32:35.410Z</time>
      </trkpt>
      <trkpt lat="46.92" lon="-1.88675">
        <ele>55.398984</ele>
        <time>2022-12-17T13:32:38.418Z</time>
      </trkpt>
      <trkpt lat="46.91988" lon="-1.88675">
        <ele>55.419608</ele>
        <time>2022-12-17T13:32:41.415Z</time>
      </trkpt>
      <trkpt lat="46.91977" lon="-1.88675">
        <ele>55.401847</ele>
        <time>2022-12-17T13:32:44.415Z</time>
      </trkpt>
      <trkpt lat="46.91965" lon="-1.88675">
        <ele>55.384071</ele>
        <time>2022-12-17T13:32:47.426Z</time>
      </trkpt>
      <trkpt lat="46.91952" lon="-1.88675">
        <ele>55.364166</ele>
        <time>2022-12-17T13:32:50.408Z</time>
      </trkpt>
      <trkpt lat="46.91939" lon="-1.88674">
        <ele>55.344864</ele>
        <time>2022-12-17T13:32:53.419Z</time>
      </trkpt>
      <trkpt lat="46.91927" lon="-1.88675">
        <ele>55.325555</ele>
        <time>2022-12-17T13:32:56.408Z</time>
      </trkpt>
      <trkpt lat="46.91915" lon="-1.88676">
        <ele>55.306687</ele>
        <time>2022-12-17T13:32:59.419Z</time>
      </trkpt>
      <trkpt lat="46.91902" lon="-1.88676">
        <ele>55.287854</ele>
        <time>2022-12-17T13:33:02.400Z</time>
      </trkpt>
      <trkpt lat="46.9189" lon="-1.88676">
        <ele>55.269173</ele>
        <time>2022-12-17T13:33:05.406Z</time>
      </trkpt>
      <trkpt lat="46.91878" lon="-1.88677">
        <ele>55.251252</ele>
        <time>2022-12-17T13:33:08.401Z</time>
      </trkpt>
      <trkpt lat="46.91866" lon="-1.88676">
        <ele>55.232872</ele>
        <time>2022-12-17T13:33:11.417Z</time>
      </trkpt>
      <trkpt lat="46.91854" lon="-1.88676">
        <ele>55.214188</ele>
        <time>2022-12-17T13:33:14.411Z</time>
      </trkpt>
      <trkpt lat="46.91843" lon="-1.88677">
        <ele>55.196879</ele>
        <time>2022-12-17T13:33:17.414Z</time>
      </trkpt>
      <trkpt lat="46.91831" lon="-1.88677">
        <ele>55.17927</ele>
        <time>2022-12-17T13:33:20.411Z</time>
      </trkpt>
      <trkpt lat="46.9182" lon="-1.88678">
        <ele>55.161198</ele>
        <time>2022-12-17T13:33:23.414Z</time>
      </trkpt>
      <trkpt lat="46.91808" lon="-1.88678">
        <ele>55.201555</ele>
        <time>2022-12-17T13:33:26.407Z</time>
      </trkpt>
      <trkpt lat="46.91796" lon="-1.88678">
        <ele>55.370697</ele>
        <time>2022-12-17T13:33:29.422Z</time>
      </trkpt>
      <trkpt lat="46.91785" lon="-1.88678">
        <ele>55.548818</ele>
        <time>2022-12-17T13:33:32.395Z</time>
      </trkpt>
      <trkpt lat="46.91773" lon="-1.88679">
        <ele>55.718145</ele>
        <time>2022-12-17T13:33:35.399Z</time>
      </trkpt>
      <trkpt lat="46.91761" lon="-1.88679">
        <ele>55.894769</ele>
        <time>2022-12-17T13:33:38.402Z</time>
      </trkpt>
      <trkpt lat="46.9175" lon="-1.88678">
        <ele>56.067041</ele>
        <time>2022-12-17T13:33:41.417Z</time>
      </trkpt>
      <trkpt lat="46.9174" lon="-1.88678">
        <ele>56.215216</ele>
        <time>2022-12-17T13:33:44.413Z</time>
      </trkpt>
      <trkpt lat="46.91728" lon="-1.88678">
        <ele>56.39184</ele>
        <time>2022-12-17T13:33:48.404Z</time>
      </trkpt>
      <trkpt lat="46.91718" lon="-1.88678">
        <ele>56.538519</ele>
        <time>2022-12-17T13:33:51.401Z</time>
      </trkpt>
      <trkpt lat="46.91709" lon="-1.88679">
        <ele>56.68712</ele>
        <time>2022-12-17T13:33:54.400Z</time>
      </trkpt>
      <trkpt lat="46.91699" lon="-1.88679">
        <ele>56.836823</ele>
        <time>2022-12-17T13:33:57.417Z</time>
      </trkpt>
      <trkpt lat="46.91689" lon="-1.88679">
        <ele>56.980523</ele>
        <time>2022-12-17T13:34:00.415Z</time>
      </trkpt>
      <trkpt lat="46.91679" lon="-1.8868">
        <ele>57.133202</ele>
        <time>2022-12-17T13:34:03.410Z</time>
      </trkpt>
      <trkpt lat="46.91669" lon="-1.8868">
        <ele>57.28454</ele>
        <time>2022-12-17T13:34:06.414Z</time>
      </trkpt>
      <trkpt lat="46.91659" lon="-1.88681">
        <ele>57.434267</ele>
        <time>2022-12-17T13:34:09.410Z</time>
      </trkpt>
      <trkpt lat="46.91649" lon="-1.88681">
        <ele>57.579625</ele>
        <time>2022-12-17T13:34:12.400Z</time>
      </trkpt>
      <trkpt lat="46.9164" lon="-1.88682">
        <ele>57.718914</ele>
        <time>2022-12-17T13:34:15.422Z</time>
      </trkpt>
      <trkpt lat="46.91629" lon="-1.88682">
        <ele>57.848011</ele>
        <time>2022-12-17T13:34:18.401Z</time>
      </trkpt>
      <trkpt lat="46.91618" lon="-1.88682">
        <ele>57.87739</ele>
        <time>2022-12-17T13:34:21.398Z</time>
      </trkpt>
      <trkpt lat="46.91607" lon="-1.88682">
        <ele>57.908722</ele>
        <time>2022-12-17T13:34:24.409Z</time>
      </trkpt>
      <trkpt lat="46.91596" lon="-1.88683">
        <ele>57.940323</ele>
        <time>2022-12-17T13:34:27.412Z</time>
      </trkpt>
      <trkpt lat="46.91584" lon="-1.88683">
        <ele>57.972473</ele>
        <time>2022-12-17T13:34:30.420Z</time>
      </trkpt>
      <trkpt lat="46.91573" lon="-1.88683">
        <ele>58.001574</ele>
        <time>2022-12-17T13:34:33.404Z</time>
      </trkpt>
      <trkpt lat="46.91564" lon="-1.88682">
        <ele>58.029036</ele>
        <time>2022-12-17T13:34:36.403Z</time>
      </trkpt>
      <trkpt lat="46.91553" lon="-1.88683">
        <ele>58.059284</ele>
        <time>2022-12-17T13:34:40.405Z</time>
      </trkpt>
      <trkpt lat="46.91543" lon="-1.88683">
        <ele>58.084793</ele>
        <time>2022-12-17T13:34:44.402Z</time>
      </trkpt>
      <trkpt lat="46.91534" lon="-1.88684">
        <ele>58.110586</ele>
        <time>2022-12-17T13:34:49.424Z</time>
      </trkpt>
      <trkpt lat="46.91525" lon="-1.88683">
        <ele>58.135299</ele>
        <time>2022-12-17T13:34:53.406Z</time>
      </trkpt>
      <trkpt lat="46.91513" lon="-1.88683">
        <ele>58.1683</ele>
        <time>2022-12-17T13:34:57.409Z</time>
      </trkpt>
      <trkpt lat="46.91503" lon="-1.88684">
        <ele>58.196852</ele>
        <time>2022-12-17T13:35:00.414Z</time>
      </trkpt>
      <trkpt lat="46.91492" lon="-1.88684">
        <ele>58.228453</ele>
        <time>2022-12-17T13:35:03.427Z</time>
      </trkpt>
      <trkpt lat="46.91481" lon="-1.88685">
        <ele>58.257861</ele>
        <time>2022-12-17T13:35:06.425Z</time>
      </trkpt>
      <trkpt lat="46.9147" lon="-1.88684">
        <ele>58.287254</ele>
        <time>2022-12-17T13:35:09.421Z</time>
      </trkpt>
      <trkpt lat="46.91459" lon="-1.88684">
        <ele>58.319959</ele>
        <time>2022-12-17T13:35:12.404Z</time>
      </trkpt>
      <trkpt lat="46.91446" lon="-1.88685">
        <ele>58.392984</ele>
        <time>2022-12-17T13:35:15.425Z</time>
      </trkpt>
      <trkpt lat="46.91433" lon="-1.88686">
        <ele>58.522036</ele>
        <time>2022-12-17T13:35:18.424Z</time>
      </trkpt>
      <trkpt lat="46.91419" lon="-1.88686">
        <ele>58.649966</ele>
        <time>2022-12-17T13:35:21.424Z</time>
      </trkpt>
      <trkpt lat="46.9141" lon="-1.88686">
        <ele>58.737495</ele>
        <time>2022-12-17T13:35:23.409Z</time>
      </trkpt>
      <trkpt lat="46.91401" lon="-1.88686">
        <ele>58.830813</ele>
        <time>2022-12-17T13:35:25.412Z</time>
      </trkpt>
      <trkpt lat="46.91392" lon="-1.88686">
        <ele>58.918361</ele>
        <time>2022-12-17T13:35:27.426Z</time>
      </trkpt>
      <trkpt lat="46.91379" lon="-1.88686">
        <ele>59.043401</ele>
        <time>2022-12-17T13:35:30.409Z</time>
      </trkpt>
      <trkpt lat="46.91366" lon="-1.88686">
        <ele>59.164593</ele>
        <time>2022-12-17T13:35:33.405Z</time>
      </trkpt>
      <trkpt lat="46.91353" lon="-1.88687">
        <ele>59.292577</ele>
        <time>2022-12-17T13:35:36.411Z</time>
      </trkpt>
      <trkpt lat="46.91343" lon="-1.88687">
        <ele>59.381087</ele>
        <time>2022-12-17T13:35:38.425Z</time>
      </trkpt>
      <trkpt lat="46.91334" lon="-1.88687">
        <ele>59.469577</ele>
        <time>2022-12-17T13:35:40.413Z</time>
      </trkpt>
      <trkpt lat="46.91325" lon="-1.88688">
        <ele>59.557106</ele>
        <time>2022-12-17T13:35:42.402Z</time>
      </trkpt>
      <trkpt lat="46.91312" lon="-1.88688">
        <ele>59.686098</ele>
        <time>2022-12-17T13:35:45.424Z</time>
      </trkpt>
      <trkpt lat="46.91298" lon="-1.88688">
        <ele>59.816908</ele>
        <time>2022-12-17T13:35:48.416Z</time>
      </trkpt>
      <trkpt lat="46.91289" lon="-1.88688">
        <ele>59.905399</ele>
        <time>2022-12-17T13:35:50.417Z</time>
      </trkpt>
      <trkpt lat="46.9128" lon="-1.88689">
        <ele>59.994967</ele>
        <time>2022-12-17T13:35:52.400Z</time>
      </trkpt>
      <trkpt lat="46.9127" lon="-1.88689">
        <ele>60.041923</ele>
        <time>2022-12-17T13:35:54.422Z</time>
      </trkpt>
      <trkpt lat="46.91261" lon="-1.88689">
        <ele>59.886681</ele>
        <time>2022-12-17T13:35:56.402Z</time>
      </trkpt>
      <trkpt lat="46.91252" lon="-1.88689">
        <ele>59.729737</ele>
        <time>2022-12-17T13:35:58.425Z</time>
      </trkpt>
      <trkpt lat="46.91243" lon="-1.88689">
        <ele>59.576188</ele>
        <time>2022-12-17T13:36:00.402Z</time>
      </trkpt>
      <trkpt lat="46.91229" lon="-1.8869">
        <ele>59.340424</ele>
        <time>2022-12-17T13:36:03.411Z</time>
      </trkpt>
      <trkpt lat="46.9122" lon="-1.8869">
        <ele>59.178295</ele>
        <time>2022-12-17T13:36:05.411Z</time>
      </trkpt>
      <trkpt lat="46.9121" lon="-1.8869">
        <ele>59.009346</ele>
        <time>2022-12-17T13:36:07.412Z</time>
      </trkpt>
      <trkpt lat="46.912" lon="-1.88691">
        <ele>58.835281</ele>
        <time>2022-12-17T13:36:09.408Z</time>
      </trkpt>
      <trkpt lat="46.91189" lon="-1.88692">
        <ele>58.657007</ele>
        <time>2022-12-17T13:36:11.408Z</time>
      </trkpt>
      <trkpt lat="46.91178" lon="-1.88693">
        <ele>58.469227</ele>
        <time>2022-12-17T13:36:13.419Z</time>
      </trkpt>
      <trkpt lat="46.91167" lon="-1.88693">
        <ele>58.278166</ele>
        <time>2022-12-17T13:36:15.410Z</time>
      </trkpt>
      <trkpt lat="46.91156" lon="-1.88693">
        <ele>58.092207</ele>
        <time>2022-12-17T13:36:17.422Z</time>
      </trkpt>
      <trkpt lat="46.91144" lon="-1.88692">
        <ele>57.890879</ele>
        <time>2022-12-17T13:36:19.407Z</time>
      </trkpt>
      <trkpt lat="46.91132" lon="-1.88692">
        <ele>57.681023</ele>
        <time>2022-12-17T13:36:21.408Z</time>
      </trkpt>
      <trkpt lat="46.91119" lon="-1.88692">
        <ele>57.46605</ele>
        <time>2022-12-17T13:36:23.400Z</time>
      </trkpt>
      <trkpt lat="46.91106" lon="-1.88692">
        <ele>57.237432</ele>
        <time>2022-12-17T13:36:25.405Z</time>
      </trkpt>
      <trkpt lat="46.91092" lon="-1.88693">
        <ele>57.000229</ele>
        <time>2022-12-17T13:36:27.419Z</time>
      </trkpt>
      <trkpt lat="46.91078" lon="-1.88694">
        <ele>56.801331</ele>
        <time>2022-12-17T13:36:29.428Z</time>
      </trkpt>
      <trkpt lat="46.91065" lon="-1.88694">
        <ele>56.602673</ele>
        <time>2022-12-17T13:36:31.418Z</time>
      </trkpt>
      <trkpt lat="46.9105" lon="-1.88694">
        <ele>56.395379</ele>
        <time>2022-12-17T13:36:33.415Z</time>
      </trkpt>
      <trkpt lat="46.91036" lon="-1.88695">
        <ele>56.187938</ele>
        <time>2022-12-17T13:36:35.425Z</time>
      </trkpt>
      <trkpt lat="46.91022" lon="-1.88695">
        <ele>55.987844</ele>
        <time>2022-12-17T13:36:37.401Z</time>
      </trkpt>
      <trkpt lat="46.91009" lon="-1.88696">
        <ele>55.796134</ele>
        <time>2022-12-17T13:36:39.402Z</time>
      </trkpt>
      <trkpt lat="46.90996" lon="-1.88695">
        <ele>55.614538</ele>
        <time>2022-12-17T13:36:41.401Z</time>
      </trkpt>
      <trkpt lat="46.90983" lon="-1.88695">
        <ele>55.421641</ele>
        <time>2022-12-17T13:36:43.425Z</time>
      </trkpt>
      <trkpt lat="46.9097" lon="-1.88696">
        <ele>55.241483</ele>
        <time>2022-12-17T13:36:45.422Z</time>
      </trkpt>
      <trkpt lat="46.90958" lon="-1.88696">
        <ele>55.068695</ele>
        <time>2022-12-17T13:36:47.428Z</time>
      </trkpt>
      <trkpt lat="46.90947" lon="-1.88696">
        <ele>54.907441</ele>
        <time>2022-12-17T13:36:49.424Z</time>
      </trkpt>
      <trkpt lat="46.90936" lon="-1.88696">
        <ele>54.753333</ele>
        <time>2022-12-17T13:36:51.408Z</time>
      </trkpt>
      <trkpt lat="46.90925" lon="-1.88697">
        <ele>54.597711</ele>
        <time>2022-12-17T13:36:53.422Z</time>
      </trkpt>
      <trkpt lat="46.90915" lon="-1.88698">
        <ele>54.444739</ele>
        <time>2022-12-17T13:36:55.413Z</time>
      </trkpt>
      <trkpt lat="46.90904" lon="-1.88698">
        <ele>54.402977</ele>
        <time>2022-12-17T13:36:57.418Z</time>
      </trkpt>
      <trkpt lat="46.90893" lon="-1.88699">
        <ele>54.392395</ele>
        <time>2022-12-17T13:36:59.413Z</time>
      </trkpt>
      <trkpt lat="46.90882" lon="-1.88699">
        <ele>54.381519</ele>
        <time>2022-12-17T13:37:01.399Z</time>
      </trkpt>
      <trkpt lat="46.90871" lon="-1.88699">
        <ele>54.371039</ele>
        <time>2022-12-17T13:37:03.411Z</time>
      </trkpt>
      <trkpt lat="46.9086" lon="-1.88699">
        <ele>54.359472</ele>
        <time>2022-12-17T13:37:05.429Z</time>
      </trkpt>
      <trkpt lat="46.90849" lon="-1.88699">
        <ele>54.348397</ele>
        <time>2022-12-17T13:37:07.410Z</time>
      </trkpt>
      <trkpt lat="46.90837" lon="-1.88699">
        <ele>54.337321</ele>
        <time>2022-12-17T13:37:09.420Z</time>
      </trkpt>
      <trkpt lat="46.90825" lon="-1.88699">
        <ele>54.325451</ele>
        <time>2022-12-17T13:37:11.413Z</time>
      </trkpt>
      <trkpt lat="46.90814" lon="-1.88698">
        <ele>54.314078</ele>
        <time>2022-12-17T13:37:13.415Z</time>
      </trkpt>
      <trkpt lat="46.90802" lon="-1.88698">
        <ele>54.302214</ele>
        <time>2022-12-17T13:37:15.410Z</time>
      </trkpt>
      <trkpt lat="46.9079" lon="-1.887">
        <ele>54.290619</ele>
        <time>2022-12-17T13:37:17.414Z</time>
      </trkpt>
      <trkpt lat="46.90778" lon="-1.887">
        <ele>54.279051</ele>
        <time>2022-12-17T13:37:19.407Z</time>
      </trkpt>
      <trkpt lat="46.90767" lon="-1.88701">
        <ele>54.267658</ele>
        <time>2022-12-17T13:37:21.409Z</time>
      </trkpt>
      <trkpt lat="46.90756" lon="-1.887">
        <ele>54.256374</ele>
        <time>2022-12-17T13:37:23.409Z</time>
      </trkpt>
      <trkpt lat="46.90744" lon="-1.887">
        <ele>54.245104</ele>
        <time>2022-12-17T13:37:25.406Z</time>
      </trkpt>
      <trkpt lat="46.90733" lon="-1.887">
        <ele>54.23383</ele>
        <time>2022-12-17T13:37:27.416Z</time>
      </trkpt>
      <trkpt lat="46.90722" lon="-1.887">
        <ele>54.125125</ele>
        <time>2022-12-17T13:37:29.411Z</time>
      </trkpt>
      <trkpt lat="46.9071" lon="-1.887">
        <ele>54.01076</ele>
        <time>2022-12-17T13:37:31.404Z</time>
      </trkpt>
      <trkpt lat="46.90699" lon="-1.88701">
        <ele>53.89927</ele>
        <time>2022-12-17T13:37:33.420Z</time>
      </trkpt>
      <trkpt lat="46.90689" lon="-1.88701">
        <ele>53.790923</ele>
        <time>2022-12-17T13:37:35.404Z</time>
      </trkpt>
      <trkpt lat="46.90678" lon="-1.88701">
        <ele>53.688594</ele>
        <time>2022-12-17T13:37:37.406Z</time>
      </trkpt>
      <trkpt lat="46.90668" lon="-1.88701">
        <ele>53.589268</ele>
        <time>2022-12-17T13:37:39.423Z</time>
      </trkpt>
      <trkpt lat="46.90659" lon="-1.88702">
        <ele>53.498915</ele>
        <time>2022-12-17T13:37:41.408Z</time>
      </trkpt>
      <trkpt lat="46.9065" lon="-1.88702">
        <ele>53.408617</ele>
        <time>2022-12-17T13:37:43.425Z</time>
      </trkpt>
      <trkpt lat="46.90638" lon="-1.88702">
        <ele>53.2832</ele>
        <time>2022-12-17T13:37:46.413Z</time>
      </trkpt>
      <trkpt lat="46.90625" lon="-1.88703">
        <ele>53.152777</ele>
        <time>2022-12-17T13:37:49.412Z</time>
      </trkpt>
      <trkpt lat="46.90616" lon="-1.88702">
        <ele>53.058354</ele>
        <time>2022-12-17T13:37:51.413Z</time>
      </trkpt>
      <trkpt lat="46.90606" lon="-1.88702">
        <ele>52.962045</ele>
        <time>2022-12-17T13:37:53.401Z</time>
      </trkpt>
      <trkpt lat="46.90596" lon="-1.88703">
        <ele>52.863615</ele>
        <time>2022-12-17T13:37:55.403Z</time>
      </trkpt>
      <trkpt lat="46.90586" lon="-1.88703">
        <ele>52.763236</ele>
        <time>2022-12-17T13:37:57.410Z</time>
      </trkpt>
      <trkpt lat="46.90577" lon="-1.88704">
        <ele>52.669815</ele>
        <time>2022-12-17T13:37:59.427Z</time>
      </trkpt>
      <trkpt lat="46.90567" lon="-1.88704">
        <ele>52.568434</ele>
        <time>2022-12-17T13:38:01.418Z</time>
      </trkpt>
      <trkpt lat="46.90557" lon="-1.88704">
        <ele>52.470083</ele>
        <time>2022-12-17T13:38:03.409Z</time>
      </trkpt>
      <trkpt lat="46.90547" lon="-1.88705">
        <ele>52.471422</ele>
        <time>2022-12-17T13:38:05.413Z</time>
      </trkpt>
      <trkpt lat="46.90537" lon="-1.88705">
        <ele>52.544574</ele>
        <time>2022-12-17T13:38:07.407Z</time>
      </trkpt>
      <trkpt lat="46.90527" lon="-1.88705">
        <ele>52.615532</ele>
        <time>2022-12-17T13:38:09.409Z</time>
      </trkpt>
      <trkpt lat="46.90517" lon="-1.88705">
        <ele>52.689476</ele>
        <time>2022-12-17T13:38:11.410Z</time>
      </trkpt>
      <trkpt lat="46.90507" lon="-1.88705">
        <ele>52.761898</ele>
        <time>2022-12-17T13:38:13.400Z</time>
      </trkpt>
      <trkpt lat="46.90497" lon="-1.88705">
        <ele>52.835056</ele>
        <time>2022-12-17T13:38:15.428Z</time>
      </trkpt>
      <trkpt lat="46.90488" lon="-1.88706">
        <ele>52.906029</ele>
        <time>2022-12-17T13:38:17.428Z</time>
      </trkpt>
      <trkpt lat="46.90474" lon="-1.88706">
        <ele>53.003322</ele>
        <time>2022-12-17T13:38:20.421Z</time>
      </trkpt>
      <trkpt lat="46.90461" lon="-1.88707">
        <ele>53.102909</ele>
        <time>2022-12-17T13:38:23.421Z</time>
      </trkpt>
      <trkpt lat="46.90451" lon="-1.88707">
        <ele>53.176062</ele>
        <time>2022-12-17T13:38:25.411Z</time>
      </trkpt>
      <trkpt lat="46.90441" lon="-1.88707">
        <ele>53.248489</ele>
        <time>2022-12-17T13:38:27.420Z</time>
      </trkpt>
      <trkpt lat="46.90431" lon="-1.88707">
        <ele>53.324608</ele>
        <time>2022-12-17T13:38:29.408Z</time>
      </trkpt>
      <trkpt lat="46.9042" lon="-1.88707">
        <ele>53.404343</ele>
        <time>2022-12-17T13:38:31.400Z</time>
      </trkpt>
      <trkpt lat="46.90409" lon="-1.88708">
        <ele>53.479093</ele>
        <time>2022-12-17T13:38:33.422Z</time>
      </trkpt>
      <trkpt lat="46.90399" lon="-1.88709">
        <ele>53.558136</ele>
        <time>2022-12-17T13:38:35.414Z</time>
      </trkpt>
      <trkpt lat="46.90388" lon="-1.88709">
        <ele>53.634947</ele>
        <time>2022-12-17T13:38:37.408Z</time>
      </trkpt>
      <trkpt lat="46.90378" lon="-1.88709">
        <ele>53.712513</ele>
        <time>2022-12-17T13:38:39.417Z</time>
      </trkpt>
      <trkpt lat="46.90367" lon="-1.88709">
        <ele>53.742621</ele>
        <time>2022-12-17T13:38:41.428Z</time>
      </trkpt>
      <trkpt lat="46.90354" lon="-1.88708">
        <ele>53.737272</ele>
        <time>2022-12-17T13:38:44.422Z</time>
      </trkpt>
      <trkpt lat="46.90343" lon="-1.88708">
        <ele>53.73313</ele>
        <time>2022-12-17T13:38:46.404Z</time>
      </trkpt>
      <trkpt lat="46.90334" lon="-1.88708">
        <ele>53.72939</ele>
        <time>2022-12-17T13:38:48.423Z</time>
      </trkpt>
      <trkpt lat="46.90323" lon="-1.88709">
        <ele>53.725084</ele>
        <time>2022-12-17T13:38:50.414Z</time>
      </trkpt>
      <trkpt lat="46.90314" lon="-1.88709">
        <ele>53.72118</ele>
        <time>2022-12-17T13:38:52.406Z</time>
      </trkpt>
      <trkpt lat="46.90303" lon="-1.8871">
        <ele>53.716751</ele>
        <time>2022-12-17T13:38:54.425Z</time>
      </trkpt>
      <trkpt lat="46.90292" lon="-1.88711">
        <ele>53.712526</ele>
        <time>2022-12-17T13:38:56.423Z</time>
      </trkpt>
      <trkpt lat="46.90282" lon="-1.88711">
        <ele>53.708303</ele>
        <time>2022-12-17T13:38:58.405Z</time>
      </trkpt>
      <trkpt lat="46.90271" lon="-1.88711">
        <ele>53.704161</ele>
        <time>2022-12-17T13:39:00.413Z</time>
      </trkpt>
      <trkpt lat="46.90261" lon="-1.88711">
        <ele>53.69985</ele>
        <time>2022-12-17T13:39:02.408Z</time>
      </trkpt>
      <trkpt lat="46.9025" lon="-1.88712">
        <ele>53.695699</ele>
        <time>2022-12-17T13:39:04.421Z</time>
      </trkpt>
      <trkpt lat="46.9024" lon="-1.88713">
        <ele>53.691634</ele>
        <time>2022-12-17T13:39:06.413Z</time>
      </trkpt>
      <trkpt lat="46.9023" lon="-1.88713">
        <ele>53.687409</ele>
        <time>2022-12-17T13:39:08.412Z</time>
      </trkpt>
      <trkpt lat="46.9022" lon="-1.88713">
        <ele>53.683508</ele>
        <time>2022-12-17T13:39:10.409Z</time>
      </trkpt>
      <trkpt lat="46.90211" lon="-1.88713">
        <ele>53.679761</ele>
        <time>2022-12-17T13:39:12.406Z</time>
      </trkpt>
      <trkpt lat="46.90201" lon="-1.88713">
        <ele>53.675656</ele>
        <time>2022-12-17T13:39:14.424Z</time>
      </trkpt>
      <trkpt lat="46.90191" lon="-1.88713">
        <ele>53.612954</ele>
        <time>2022-12-17T13:39:16.416Z</time>
      </trkpt>
      <trkpt lat="46.90181" lon="-1.88714">
        <ele>53.361985</ele>
        <time>2022-12-17T13:39:18.410Z</time>
      </trkpt>
      <trkpt lat="46.9017" lon="-1.88714">
        <ele>53.100955</ele>
        <time>2022-12-17T13:39:20.417Z</time>
      </trkpt>
      <trkpt lat="46.9016" lon="-1.88715">
        <ele>52.849762</ele>
        <time>2022-12-17T13:39:22.408Z</time>
      </trkpt>
      <trkpt lat="46.9015" lon="-1.88715">
        <ele>52.60385</ele>
        <time>2022-12-17T13:39:24.421Z</time>
      </trkpt>
      <trkpt lat="46.9014" lon="-1.88715">
        <ele>52.355502</ele>
        <time>2022-12-17T13:39:26.402Z</time>
      </trkpt>
      <trkpt lat="46.9013" lon="-1.88715">
        <ele>52.107154</ele>
        <time>2022-12-17T13:39:28.415Z</time>
      </trkpt>
      <trkpt lat="46.90117" lon="-1.88715">
        <ele>51.766925</ele>
        <time>2022-12-17T13:39:31.422Z</time>
      </trkpt>
      <trkpt lat="46.90104" lon="-1.88716">
        <ele>51.444075</ele>
        <time>2022-12-17T13:39:34.408Z</time>
      </trkpt>
      <trkpt lat="46.90094" lon="-1.88716">
        <ele>51.212812</ele>
        <time>2022-12-17T13:39:36.424Z</time>
      </trkpt>
      <trkpt lat="46.90084" lon="-1.88716">
        <ele>50.964446</ele>
        <time>2022-12-17T13:39:38.404Z</time>
      </trkpt>
      <trkpt lat="46.90074" lon="-1.88717">
        <ele>50.718581</ele>
        <time>2022-12-17T13:39:40.415Z</time>
      </trkpt>
      <trkpt lat="46.90065" lon="-1.88717">
        <ele>50.482558</ele>
        <time>2022-12-17T13:39:42.410Z</time>
      </trkpt>
      <trkpt lat="46.90055" lon="-1.88717">
        <ele>50.22676</ele>
        <time>2022-12-17T13:39:44.408Z</time>
      </trkpt>
      <trkpt lat="46.90044" lon="-1.88717">
        <ele>49.958416</ele>
        <time>2022-12-17T13:39:46.420Z</time>
      </trkpt>
      <trkpt lat="46.90033" lon="-1.88718">
        <ele>49.682709</ele>
        <time>2022-12-17T13:39:48.408Z</time>
      </trkpt>
      <trkpt lat="46.90022" lon="-1.88717">
        <ele>49.416961</ele>
        <time>2022-12-17T13:39:50.419Z</time>
      </trkpt>
      <trkpt lat="46.90011" lon="-1.88718">
        <ele>49.209694</ele>
        <time>2022-12-17T13:39:52.409Z</time>
      </trkpt>
      <trkpt lat="46.9" lon="-1.88718">
        <ele>49.226033</ele>
        <time>2022-12-17T13:39:54.434Z</time>
      </trkpt>
      <trkpt lat="46.89988" lon="-1.88718">
        <ele>49.243267</ele>
        <time>2022-12-17T13:39:56.413Z</time>
      </trkpt>
      <trkpt lat="46.89977" lon="-1.88718">
        <ele>49.260053</ele>
        <time>2022-12-17T13:39:58.410Z</time>
      </trkpt>
      <trkpt lat="46.89966" lon="-1.88718">
        <ele>49.276102</ele>
        <time>2022-12-17T13:40:00.411Z</time>
      </trkpt>
      <trkpt lat="46.89956" lon="-1.88718">
        <ele>49.291848</ele>
        <time>2022-12-17T13:40:02.408Z</time>
      </trkpt>
      <trkpt lat="46.89945" lon="-1.88718">
        <ele>49.307746</ele>
        <time>2022-12-17T13:40:04.422Z</time>
      </trkpt>
      <trkpt lat="46.89934" lon="-1.88719">
        <ele>49.323937</ele>
        <time>2022-12-17T13:40:06.424Z</time>
      </trkpt>
      <trkpt lat="46.89924" lon="-1.88718">
        <ele>49.339396</ele>
        <time>2022-12-17T13:40:08.423Z</time>
      </trkpt>
      <trkpt lat="46.89913" lon="-1.88719">
        <ele>49.35531</ele>
        <time>2022-12-17T13:40:10.413Z</time>
      </trkpt>
      <trkpt lat="46.89903" lon="-1.88719">
        <ele>49.369718</ele>
        <time>2022-12-17T13:40:12.415Z</time>
      </trkpt>
      <trkpt lat="46.89894" lon="-1.88719">
        <ele>49.38368</ele>
        <time>2022-12-17T13:40:14.416Z</time>
      </trkpt>
      <trkpt lat="46.89885" lon="-1.88719">
        <ele>49.397048</ele>
        <time>2022-12-17T13:40:16.422Z</time>
      </trkpt>
      <trkpt lat="46.89872" lon="-1.88719">
        <ele>49.416515</ele>
        <time>2022-12-17T13:40:19.423Z</time>
      </trkpt>
      <trkpt lat="46.89862" lon="-1.8872">
        <ele>49.430486</ele>
        <time>2022-12-17T13:40:21.421Z</time>
      </trkpt>
      <trkpt lat="46.89849" lon="-1.8872">
        <ele>49.450538</ele>
        <time>2022-12-17T13:40:24.405Z</time>
      </trkpt>
      <trkpt lat="46.8984" lon="-1.8872">
        <ele>49.4645</ele>
        <time>2022-12-17T13:40:26.420Z</time>
      </trkpt>
      <trkpt lat="46.8983" lon="-1.8872">
        <ele>49.458646</ele>
        <time>2022-12-17T13:40:28.431Z</time>
      </trkpt>
      <trkpt lat="46.8982" lon="-1.8872">
        <ele>49.42258</ele>
        <time>2022-12-17T13:40:30.408Z</time>
      </trkpt>
      <trkpt lat="46.8981" lon="-1.88721">
        <ele>49.386465</ele>
        <time>2022-12-17T13:40:32.406Z</time>
      </trkpt>
      <trkpt lat="46.89801" lon="-1.88721">
        <ele>49.349642</ele>
        <time>2022-12-17T13:40:34.414Z</time>
      </trkpt>
      <trkpt lat="46.89791" lon="-1.88722">
        <ele>49.312836</ele>
        <time>2022-12-17T13:40:36.414Z</time>
      </trkpt>
      <trkpt lat="46.89781" lon="-1.88722">
        <ele>49.276375</ele>
        <time>2022-12-17T13:40:38.414Z</time>
      </trkpt>
      <trkpt lat="46.89771" lon="-1.88722">
        <ele>49.23957</ele>
        <time>2022-12-17T13:40:40.425Z</time>
      </trkpt>
      <trkpt lat="46.89761" lon="-1.88723">
        <ele>49.201632</ele>
        <time>2022-12-17T13:40:42.407Z</time>
      </trkpt>
      <trkpt lat="46.8975" lon="-1.88723">
        <ele>49.162968</ele>
        <time>2022-12-17T13:40:44.413Z</time>
      </trkpt>
      <trkpt lat="46.89741" lon="-1.88723">
        <ele>49.127653</ele>
        <time>2022-12-17T13:40:46.411Z</time>
      </trkpt>
      <trkpt lat="46.89727" lon="-1.88724">
        <ele>49.077056</ele>
        <time>2022-12-17T13:40:49.406Z</time>
      </trkpt>
      <trkpt lat="46.89718" lon="-1.88724">
        <ele>49.04247</ele>
        <time>2022-12-17T13:40:51.405Z</time>
      </trkpt>
      <trkpt lat="46.89708" lon="-1.88724">
        <ele>49.007141</ele>
        <time>2022-12-17T13:40:53.409Z</time>
      </trkpt>
      <trkpt lat="46.89699" lon="-1.88722">
        <ele>48.972827</ele>
        <time>2022-12-17T13:40:55.431Z</time>
      </trkpt>
      <trkpt lat="46.89689" lon="-1.88723">
        <ele>48.935612</ele>
        <time>2022-12-17T13:40:57.429Z</time>
      </trkpt>
      <trkpt lat="46.89679" lon="-1.88724">
        <ele>48.898333</ele>
        <time>2022-12-17T13:40:59.412Z</time>
      </trkpt>
      <trkpt lat="46.8967" lon="-1.88725">
        <ele>48.862633</ele>
        <time>2022-12-17T13:41:01.410Z</time>
      </trkpt>
      <trkpt lat="46.8966" lon="-1.88724">
        <ele>48.828047</ele>
        <time>2022-12-17T13:41:03.415Z</time>
      </trkpt>
      <trkpt lat="46.89651" lon="-1.88725">
        <ele>48.77381</ele>
        <time>2022-12-17T13:41:05.421Z</time>
      </trkpt>
      <trkpt lat="46.89641" lon="-1.88724">
        <ele>48.682722</ele>
        <time>2022-12-17T13:41:07.409Z</time>
      </trkpt>
      <trkpt lat="46.8963" lon="-1.88725">
        <ele>48.589802</ele>
        <time>2022-12-17T13:41:09.418Z</time>
      </trkpt>
      <trkpt lat="46.89621" lon="-1.88725">
        <ele>48.500536</ele>
        <time>2022-12-17T13:41:11.427Z</time>
      </trkpt>
      <trkpt lat="46.89611" lon="-1.88725">
        <ele>48.41583</ele>
        <time>2022-12-17T13:41:13.425Z</time>
      </trkpt>
      <trkpt lat="46.89602" lon="-1.88725">
        <ele>48.326537</ele>
        <time>2022-12-17T13:41:15.416Z</time>
      </trkpt>
      <trkpt lat="46.89592" lon="-1.88725">
        <ele>48.239099</ele>
        <time>2022-12-17T13:41:17.417Z</time>
      </trkpt>
      <trkpt lat="46.89583" lon="-1.88726">
        <ele>48.153475</ele>
        <time>2022-12-17T13:41:19.418Z</time>
      </trkpt>
      <trkpt lat="46.8957" lon="-1.88726">
        <ele>48.036892</ele>
        <time>2022-12-17T13:41:22.397Z</time>
      </trkpt>
      <trkpt lat="46.8956" lon="-1.88726">
        <ele>47.950346</ele>
        <time>2022-12-17T13:41:24.421Z</time>
      </trkpt>
      <trkpt lat="46.8955" lon="-1.88727">
        <ele>47.85901</ele>
        <time>2022-12-17T13:41:26.410Z</time>
      </trkpt>
      <trkpt lat="46.89541" lon="-1.88727">
        <ele>47.775196</ele>
        <time>2022-12-17T13:41:28.421Z</time>
      </trkpt>
      <trkpt lat="46.89531" lon="-1.88727">
        <ele>47.684108</ele>
        <time>2022-12-17T13:41:30.411Z</time>
      </trkpt>
      <trkpt lat="46.89521" lon="-1.88728">
        <ele>47.594712</ele>
        <time>2022-12-17T13:41:32.409Z</time>
      </trkpt>
      <trkpt lat="46.89511" lon="-1.88728">
        <ele>47.502722</ele>
        <time>2022-12-17T13:41:34.412Z</time>
      </trkpt>
      <trkpt lat="46.89501" lon="-1.88729">
        <ele>47.411589</ele>
        <time>2022-12-17T13:41:36.416Z</time>
      </trkpt>
      <trkpt lat="46.89491" lon="-1.88729">
        <ele>47.322329</ele>
        <time>2022-12-17T13:41:38.419Z</time>
      </trkpt>
      <trkpt lat="46.89482" lon="-1.88729">
        <ele>47.233071</ele>
        <time>2022-12-17T13:41:40.422Z</time>
      </trkpt>
      <trkpt lat="46.89472" lon="-1.88728">
        <ele>47.167956</ele>
        <time>2022-12-17T13:41:42.406Z</time>
      </trkpt>
      <trkpt lat="46.89461" lon="-1.88729">
        <ele>47.174212</ele>
        <time>2022-12-17T13:41:44.411Z</time>
      </trkpt>
      <trkpt lat="46.89451" lon="-1.88729">
        <ele>47.180651</ele>
        <time>2022-12-17T13:41:46.413Z</time>
      </trkpt>
      <trkpt lat="46.89441" lon="-1.88729">
        <ele>47.18666</ele>
        <time>2022-12-17T13:41:48.416Z</time>
      </trkpt>
      <trkpt lat="46.89426" lon="-1.88729">
        <ele>47.195612</ele>
        <time>2022-12-17T13:41:51.414Z</time>
      </trkpt>
      <trkpt lat="46.89416" lon="-1.88729">
        <ele>47.20205</ele>
        <time>2022-12-17T13:41:53.413Z</time>
      </trkpt>
      <trkpt lat="46.89406" lon="-1.88729">
        <ele>47.208182</ele>
        <time>2022-12-17T13:41:55.419Z</time>
      </trkpt>
      <trkpt lat="46.89397" lon="-1.8873">
        <ele>47.213949</ele>
        <time>2022-12-17T13:41:57.424Z</time>
      </trkpt>
      <trkpt lat="46.89386" lon="-1.8873">
        <ele>47.220204</ele>
        <time>2022-12-17T13:41:59.413Z</time>
      </trkpt>
      <trkpt lat="46.89377" lon="-1.8873">
        <ele>47.226213</ele>
        <time>2022-12-17T13:42:01.416Z</time>
      </trkpt>
      <trkpt lat="46.89367" lon="-1.8873">
        <ele>47.232039</ele>
        <time>2022-12-17T13:42:03.419Z</time>
      </trkpt>
      <trkpt lat="46.89357" lon="-1.8873">
        <ele>47.238174</ele>
        <time>2022-12-17T13:42:05.404Z</time>
      </trkpt>
      <trkpt lat="46.89347" lon="-1.88731">
        <ele>47.244251</ele>
        <time>2022-12-17T13:42:07.421Z</time>
      </trkpt>
      <trkpt lat="46.89336" lon="-1.88732">
        <ele>47.251086</ele>
        <time>2022-12-17T13:42:09.420Z</time>
      </trkpt>
      <trkpt lat="46.89326" lon="-1.88733">
        <ele>47.257096</ele>
        <time>2022-12-17T13:42:11.411Z</time>
      </trkpt>
      <trkpt lat="46.89316" lon="-1.88733">
        <ele>47.26323</ele>
        <time>2022-12-17T13:42:13.401Z</time>
      </trkpt>
      <trkpt lat="46.89307" lon="-1.88734">
        <ele>47.268999</ele>
        <time>2022-12-17T13:42:15.412Z</time>
      </trkpt>
      <trkpt lat="46.89294" lon="-1.88733">
        <ele>47.277394</ele>
        <time>2022-12-17T13:42:18.404Z</time>
      </trkpt>
      <trkpt lat="46.89283" lon="-1.88734">
        <ele>47.366179</ele>
        <time>2022-12-17T13:42:21.406Z</time>
      </trkpt>
      <trkpt lat="46.89271" lon="-1.88734">
        <ele>47.459701</ele>
        <time>2022-12-17T13:42:24.421Z</time>
      </trkpt>
      <trkpt lat="46.89259" lon="-1.88734">
        <ele>47.557914</ele>
        <time>2022-12-17T13:42:27.414Z</time>
      </trkpt>
      <trkpt lat="46.89246" lon="-1.88734">
        <ele>47.656934</ele>
        <time>2022-12-17T13:42:30.407Z</time>
      </trkpt>
      <trkpt lat="46.89233" lon="-1.88735">
        <ele>47.759143</ele>
        <time>2022-12-17T13:42:33.417Z</time>
      </trkpt>
      <trkpt lat="46.8922" lon="-1.88735">
        <ele>47.861289</ele>
        <time>2022-12-17T13:42:36.411Z</time>
      </trkpt>
      <trkpt lat="46.89208" lon="-1.88735">
        <ele>47.954025</ele>
        <time>2022-12-17T13:42:39.424Z</time>
      </trkpt>
      <trkpt lat="46.89199" lon="-1.88736">
        <ele>48.02952</ele>
        <time>2022-12-17T13:42:42.401Z</time>
      </trkpt>
      <trkpt lat="46.89188" lon="-1.88736">
        <ele>48.11439</ele>
        <time>2022-12-17T13:42:45.403Z</time>
      </trkpt>
      <trkpt lat="46.89176" lon="-1.88736">
        <ele>48.209497</ele>
        <time>2022-12-17T13:42:48.419Z</time>
      </trkpt>
      <trkpt lat="46.89164" lon="-1.88736">
        <ele>48.299067</ele>
        <time>2022-12-17T13:42:50.412Z</time>
      </trkpt>
      <trkpt lat="46.89155" lon="-1.88736">
        <ele>48.373716</ele>
        <time>2022-12-17T13:42:52.408Z</time>
      </trkpt>
      <trkpt lat="46.89144" lon="-1.88736">
        <ele>48.457006</ele>
        <time>2022-12-17T13:42:54.422Z</time>
      </trkpt>
      <trkpt lat="46.89134" lon="-1.88735">
        <ele>48.537163</ele>
        <time>2022-12-17T13:42:56.426Z</time>
      </trkpt>
      <trkpt lat="46.89124" lon="-1.88736">
        <ele>48.618105</ele>
        <time>2022-12-17T13:42:58.405Z</time>
      </trkpt>
      <trkpt lat="46.89113" lon="-1.88735">
        <ele>48.70984</ele>
        <time>2022-12-17T13:43:00.410Z</time>
      </trkpt>
      <trkpt lat="46.89103" lon="-1.88735">
        <ele>48.841936</ele>
        <time>2022-12-17T13:43:02.403Z</time>
      </trkpt>
      <trkpt lat="46.89093" lon="-1.88735">
        <ele>48.967826</ele>
        <time>2022-12-17T13:43:04.420Z</time>
      </trkpt>
      <trkpt lat="46.89083" lon="-1.88734">
        <ele>49.089836</ele>
        <time>2022-12-17T13:43:06.423Z</time>
      </trkpt>
      <trkpt lat="46.89073" lon="-1.88734">
        <ele>49.219415</ele>
        <time>2022-12-17T13:43:08.420Z</time>
      </trkpt>
      <trkpt lat="46.89063" lon="-1.88734">
        <ele>49.342694</ele>
        <time>2022-12-17T13:43:10.404Z</time>
      </trkpt>
      <trkpt lat="46.89054" lon="-1.88734">
        <ele>49.460931</ele>
        <time>2022-12-17T13:43:12.406Z</time>
      </trkpt>
      <trkpt lat="46.89044" lon="-1.88734">
        <ele>49.584146</ele>
        <time>2022-12-17T13:43:14.420Z</time>
      </trkpt>
      <trkpt lat="46.89034" lon="-1.88734">
        <ele>49.709937</ele>
        <time>2022-12-17T13:43:16.423Z</time>
      </trkpt>
      <trkpt lat="46.89022" lon="-1.88734">
        <ele>49.866163</ele>
        <time>2022-12-17T13:43:19.402Z</time>
      </trkpt>
      <trkpt lat="46.8901" lon="-1.88733">
        <ele>50.02118</ele>
        <time>2022-12-17T13:43:22.401Z</time>
      </trkpt>
      <trkpt lat="46.88997" lon="-1.88732">
        <ele>50.181451</ele>
        <time>2022-12-17T13:43:25.409Z</time>
      </trkpt>
      <trkpt lat="46.88987" lon="-1.88733">
        <ele>50.31613</ele>
        <time>2022-12-17T13:43:27.402Z</time>
      </trkpt>
      <trkpt lat="46.88974" lon="-1.8873">
        <ele>50.479928</ele>
        <time>2022-12-17T13:43:30.419Z</time>
      </trkpt>
      <trkpt lat="46.8896" lon="-1.88728">
        <ele>50.651396</ele>
        <time>2022-12-17T13:43:33.407Z</time>
      </trkpt>
      <trkpt lat="46.88949" lon="-1.88725">
        <ele>50.801577</ele>
        <time>2022-12-17T13:43:36.418Z</time>
      </trkpt>
      <trkpt lat="46.88937" lon="-1.88722">
        <ele>50.958564</ele>
        <time>2022-12-17T13:43:39.408Z</time>
      </trkpt>
      <trkpt lat="46.88925" lon="-1.88719">
        <ele>51.258178</ele>
        <time>2022-12-17T13:43:42.401Z</time>
      </trkpt>
      <trkpt lat="46.88911" lon="-1.88716">
        <ele>51.611265</ele>
        <time>2022-12-17T13:43:45.416Z</time>
      </trkpt>
      <trkpt lat="46.88901" lon="-1.88715">
        <ele>51.889917</ele>
        <time>2022-12-17T13:43:47.432Z</time>
      </trkpt>
      <trkpt lat="46.88892" lon="-1.88712">
        <ele>52.132467</ele>
        <time>2022-12-17T13:43:49.403Z</time>
      </trkpt>
      <trkpt lat="46.88878" lon="-1.8871">
        <ele>52.490711</ele>
        <time>2022-12-17T13:43:52.402Z</time>
      </trkpt>
      <trkpt lat="46.88869" lon="-1.88708">
        <ele>52.729455</ele>
        <time>2022-12-17T13:43:54.423Z</time>
      </trkpt>
      <trkpt lat="46.88856" lon="-1.88705">
        <ele>53.063867</ele>
        <time>2022-12-17T13:43:57.399Z</time>
      </trkpt>
      <trkpt lat="46.88844" lon="-1.88702">
        <ele>53.385358</ele>
        <time>2022-12-17T13:44:00.403Z</time>
      </trkpt>
      <trkpt lat="46.88833" lon="-1.887">
        <ele>53.697695</ele>
        <time>2022-12-17T13:44:03.405Z</time>
      </trkpt>
      <trkpt lat="46.88821" lon="-1.88698">
        <ele>53.991127</ele>
        <time>2022-12-17T13:44:06.401Z</time>
      </trkpt>
      <trkpt lat="46.8881" lon="-1.88695">
        <ele>54.292119</ele>
        <time>2022-12-17T13:44:09.421Z</time>
      </trkpt>
      <trkpt lat="46.88801" lon="-1.88694">
        <ele>54.529213</ele>
        <time>2022-12-17T13:44:11.416Z</time>
      </trkpt>
      <trkpt lat="46.88788" lon="-1.88692">
        <ele>54.88286</ele>
        <time>2022-12-17T13:44:14.410Z</time>
      </trkpt>
      <trkpt lat="46.88775" lon="-1.88689">
        <ele>55.212671</ele>
        <time>2022-12-17T13:44:17.422Z</time>
      </trkpt>
      <trkpt lat="46.88763" lon="-1.88686">
        <ele>55.541913</ele>
        <time>2022-12-17T13:44:20.412Z</time>
      </trkpt>
      <trkpt lat="46.88752" lon="-1.88684">
        <ele>55.75646</ele>
        <time>2022-12-17T13:44:23.420Z</time>
      </trkpt>
      <trkpt lat="46.88742" lon="-1.88682">
        <ele>55.907694</ele>
        <time>2022-12-17T13:44:26.405Z</time>
      </trkpt>
      <trkpt lat="46.88731" lon="-1.88682">
        <ele>56.062497</ele>
        <time>2022-12-17T13:44:29.421Z</time>
      </trkpt>
      <trkpt lat="46.8872" lon="-1.88681">
        <ele>56.218684</ele>
        <time>2022-12-17T13:44:32.430Z</time>
      </trkpt>
      <trkpt lat="46.8871" lon="-1.88679">
        <ele>56.362059</ele>
        <time>2022-12-17T13:44:35.402Z</time>
      </trkpt>
      <trkpt lat="46.88699" lon="-1.88677">
        <ele>56.524109</ele>
        <time>2022-12-17T13:44:39.417Z</time>
      </trkpt>
      <trkpt lat="46.88688" lon="-1.88674">
        <ele>56.675409</ele>
        <time>2022-12-17T13:44:43.406Z</time>
      </trkpt>
      <trkpt lat="46.88677" lon="-1.88672">
        <ele>56.828055</ele>
        <time>2022-12-17T13:44:47.426Z</time>
      </trkpt>
      <trkpt lat="46.88667" lon="-1.8867">
        <ele>56.984348</ele>
        <time>2022-12-17T13:44:51.401Z</time>
      </trkpt>
      <trkpt lat="46.88657" lon="-1.88668">
        <ele>57.121006</ele>
        <time>2022-12-17T13:44:55.415Z</time>
      </trkpt>
      <trkpt lat="46.88647" lon="-1.88666">
        <ele>57.262072</ele>
        <time>2022-12-17T13:44:59.410Z</time>
      </trkpt>
      <trkpt lat="46.88638" lon="-1.88665">
        <ele>57.392268</ele>
        <time>2022-12-17T13:45:03.434Z</time>
      </trkpt>
      <trkpt lat="46.88629" lon="-1.88663">
        <ele>57.528622</ele>
        <time>2022-12-17T13:45:07.545Z</time>
      </trkpt>
      <trkpt lat="46.88618" lon="-1.88661">
        <ele>57.683</ele>
        <time>2022-12-17T13:45:11.402Z</time>
      </trkpt>
      <trkpt lat="46.88608" lon="-1.88659">
        <ele>57.824581</ele>
        <time>2022-12-17T13:45:15.408Z</time>
      </trkpt>
      <trkpt lat="46.88598" lon="-1.88657">
        <ele>57.962066</ele>
        <time>2022-12-17T13:45:19.411Z</time>
      </trkpt>
      <trkpt lat="46.88587" lon="-1.88655">
        <ele>58.119764</ele>
        <time>2022-12-17T13:45:23.405Z</time>
      </trkpt>
      <trkpt lat="46.88578" lon="-1.88653">
        <ele>58.20662</ele>
        <time>2022-12-17T13:45:26.406Z</time>
      </trkpt>
      <trkpt lat="46.88568" lon="-1.8865">
        <ele>57.984109</ele>
        <time>2022-12-17T13:45:29.409Z</time>
      </trkpt>
      <trkpt lat="46.88558" lon="-1.88649">
        <ele>57.767635</ele>
        <time>2022-12-17T13:45:32.403Z</time>
      </trkpt>
      <trkpt lat="46.88547" lon="-1.88646">
        <ele>57.514829</ele>
        <time>2022-12-17T13:45:35.417Z</time>
      </trkpt>
      <trkpt lat="46.88535" lon="-1.88643">
        <ele>57.243335</ele>
        <time>2022-12-17T13:45:38.405Z</time>
      </trkpt>
      <trkpt lat="46.88525" lon="-1.88641">
        <ele>56.996258</ele>
        <time>2022-12-17T13:45:41.408Z</time>
      </trkpt>
      <trkpt lat="46.88513" lon="-1.88639">
        <ele>56.737075</ele>
        <time>2022-12-17T13:45:44.405Z</time>
      </trkpt>
      <trkpt lat="46.88503" lon="-1.88638">
        <ele>56.494464</ele>
        <time>2022-12-17T13:45:47.409Z</time>
      </trkpt>
      <trkpt lat="46.88492" lon="-1.88636">
        <ele>56.248608</ele>
        <time>2022-12-17T13:45:50.422Z</time>
      </trkpt>
      <trkpt lat="46.88479" lon="-1.88634">
        <ele>55.958972</ele>
        <time>2022-12-17T13:45:53.420Z</time>
      </trkpt>
      <trkpt lat="46.8847" lon="-1.88633">
        <ele>55.743544</ele>
        <time>2022-12-17T13:45:55.418Z</time>
      </trkpt>
      <trkpt lat="46.8846" lon="-1.88631">
        <ele>55.528697</ele>
        <time>2022-12-17T13:45:57.423Z</time>
      </trkpt>
      <trkpt lat="46.88451" lon="-1.88629">
        <ele>55.323818</ele>
        <time>2022-12-17T13:45:59.445Z</time>
      </trkpt>
      <trkpt lat="46.88442" lon="-1.88628">
        <ele>55.11202</ele>
        <time>2022-12-17T13:46:01.427Z</time>
      </trkpt>
      <trkpt lat="46.88431" lon="-1.88627">
        <ele>54.873921</ele>
        <time>2022-12-17T13:46:03.403Z</time>
      </trkpt>
      <trkpt lat="46.88421" lon="-1.88624">
        <ele>54.641413</ele>
        <time>2022-12-17T13:46:05.423Z</time>
      </trkpt>
      <trkpt lat="46.88411" lon="-1.88622">
        <ele>54.408645</ele>
        <time>2022-12-17T13:46:07.427Z</time>
      </trkpt>
      <trkpt lat="46.88401" lon="-1.8862">
        <ele>54.172981</ele>
        <time>2022-12-17T13:46:09.409Z</time>
      </trkpt>
      <trkpt lat="46.88391" lon="-1.88618">
        <ele>54.09971</ele>
        <time>2022-12-17T13:46:11.425Z</time>
      </trkpt>
      <trkpt lat="46.88381" lon="-1.88616">
        <ele>54.029687</ele>
        <time>2022-12-17T13:46:13.426Z</time>
      </trkpt>
      <trkpt lat="46.8837" lon="-1.88614">
        <ele>53.955429</ele>
        <time>2022-12-17T13:46:15.402Z</time>
      </trkpt>
      <trkpt lat="46.88361" lon="-1.88612">
        <ele>53.889116</ele>
        <time>2022-12-17T13:46:17.413Z</time>
      </trkpt>
      <trkpt lat="46.88351" lon="-1.8861">
        <ele>53.820349</ele>
        <time>2022-12-17T13:46:19.424Z</time>
      </trkpt>
      <trkpt lat="46.88342" lon="-1.88608">
        <ele>53.752345</ele>
        <time>2022-12-17T13:46:21.410Z</time>
      </trkpt>
      <trkpt lat="46.88328" lon="-1.88605">
        <ele>53.657349</ele>
        <time>2022-12-17T13:46:24.408Z</time>
      </trkpt>
      <trkpt lat="46.88319" lon="-1.88604">
        <ele>53.591915</ele>
        <time>2022-12-17T13:46:26.409Z</time>
      </trkpt>
      <trkpt lat="46.88309" lon="-1.88602">
        <ele>53.521067</ele>
        <time>2022-12-17T13:46:28.409Z</time>
      </trkpt>
      <trkpt lat="46.88298" lon="-1.886">
        <ele>53.446113</ele>
        <time>2022-12-17T13:46:30.433Z</time>
      </trkpt>
      <trkpt lat="46.88287" lon="-1.88598">
        <ele>53.367558</ele>
        <time>2022-12-17T13:46:32.427Z</time>
      </trkpt>
      <trkpt lat="46.88276" lon="-1.88595">
        <ele>53.288565</ele>
        <time>2022-12-17T13:46:34.414Z</time>
      </trkpt>
      <trkpt lat="46.88265" lon="-1.88592">
        <ele>53.206644</ele>
        <time>2022-12-17T13:46:36.416Z</time>
      </trkpt>
      <trkpt lat="46.88253" lon="-1.8859">
        <ele>53.122745</ele>
        <time>2022-12-17T13:46:38.422Z</time>
      </trkpt>
      <trkpt lat="46.88242" lon="-1.88588">
        <ele>53.046678</ele>
        <time>2022-12-17T13:46:40.419Z</time>
      </trkpt>
      <trkpt lat="46.88232" lon="-1.88585">
        <ele>52.975531</ele>
        <time>2022-12-17T13:46:42.406Z</time>
      </trkpt>
      <trkpt lat="46.88222" lon="-1.88583">
        <ele>52.908669</ele>
        <time>2022-12-17T13:46:44.433Z</time>
      </trkpt>
      <trkpt lat="46.88213" lon="-1.88581">
        <ele>52.898845</ele>
        <time>2022-12-17T13:46:46.484Z</time>
      </trkpt>
      <trkpt lat="46.88203" lon="-1.8858">
        <ele>52.888922</ele>
        <time>2022-12-17T13:46:48.420Z</time>
      </trkpt>
      <trkpt lat="46.88193" lon="-1.88579">
        <ele>52.87835</ele>
        <time>2022-12-17T13:46:50.424Z</time>
      </trkpt>
      <trkpt lat="46.88182" lon="-1.88577">
        <ele>52.867146</ele>
        <time>2022-12-17T13:46:52.448Z</time>
      </trkpt>
      <trkpt lat="46.88171" lon="-1.88575">
        <ele>52.855848</ele>
        <time>2022-12-17T13:46:54.420Z</time>
      </trkpt>
      <trkpt lat="46.8816" lon="-1.88573">
        <ele>52.84505</ele>
        <time>2022-12-17T13:46:56.423Z</time>
      </trkpt>
      <trkpt lat="46.88149" lon="-1.88571">
        <ele>52.833759</ele>
        <time>2022-12-17T13:46:58.424Z</time>
      </trkpt>
      <trkpt lat="46.88138" lon="-1.88569">
        <ele>52.82253</ele>
        <time>2022-12-17T13:47:00.423Z</time>
      </trkpt>
      <trkpt lat="46.88128" lon="-1.88566">
        <ele>52.811765</ele>
        <time>2022-12-17T13:47:02.421Z</time>
      </trkpt>
      <trkpt lat="46.88117" lon="-1.88565">
        <ele>52.800684</ele>
        <time>2022-12-17T13:47:04.427Z</time>
      </trkpt>
      <trkpt lat="46.88106" lon="-1.88562">
        <ele>52.78909</ele>
        <time>2022-12-17T13:47:06.437Z</time>
      </trkpt>
      <trkpt lat="46.88095" lon="-1.8856">
        <ele>52.77798</ele>
        <time>2022-12-17T13:47:08.445Z</time>
      </trkpt>
      <trkpt lat="46.88084" lon="-1.88558">
        <ele>52.76687</ele>
        <time>2022-12-17T13:47:10.426Z</time>
      </trkpt>
      <trkpt lat="46.88074" lon="-1.88556">
        <ele>52.756165</ele>
        <time>2022-12-17T13:47:12.432Z</time>
      </trkpt>
      <trkpt lat="46.88063" lon="-1.88553">
        <ele>52.744547</ele>
        <time>2022-12-17T13:47:14.429Z</time>
      </trkpt>
      <trkpt lat="46.88051" lon="-1.88552">
        <ele>52.73247</ele>
        <time>2022-12-17T13:47:16.432Z</time>
      </trkpt>
      <trkpt lat="46.8804" lon="-1.8855">
        <ele>52.67221</ele>
        <time>2022-12-17T13:47:18.429Z</time>
      </trkpt>
      <trkpt lat="46.88028" lon="-1.88547">
        <ele>52.539368</ele>
        <time>2022-12-17T13:47:20.428Z</time>
      </trkpt>
      <trkpt lat="46.88017" lon="-1.88544">
        <ele>52.408694</ele>
        <time>2022-12-17T13:47:22.411Z</time>
      </trkpt>
      <trkpt lat="46.88006" lon="-1.88542">
        <ele>52.278235</ele>
        <time>2022-12-17T13:47:24.428Z</time>
      </trkpt>
      <trkpt lat="46.87995" lon="-1.88541">
        <ele>52.156502</ele>
        <time>2022-12-17T13:47:26.413Z</time>
      </trkpt>
      <trkpt lat="46.87984" lon="-1.88539">
        <ele>52.035605</ele>
        <time>2022-12-17T13:47:28.423Z</time>
      </trkpt>
      <trkpt lat="46.87975" lon="-1.88536">
        <ele>51.920211</ele>
        <time>2022-12-17T13:47:30.485Z</time>
      </trkpt>
      <trkpt lat="46.87965" lon="-1.88534">
        <ele>51.809239</ele>
        <time>2022-12-17T13:47:32.435Z</time>
      </trkpt>
      <trkpt lat="46.87956" lon="-1.88533">
        <ele>51.702247</ele>
        <time>2022-12-17T13:47:34.421Z</time>
      </trkpt>
      <trkpt lat="46.87943" lon="-1.88531">
        <ele>51.556834</ele>
        <time>2022-12-17T13:47:37.412Z</time>
      </trkpt>
      <trkpt lat="46.87933" lon="-1.88529">
        <ele>51.443009</ele>
        <time>2022-12-17T13:47:39.424Z</time>
      </trkpt>
      <trkpt lat="46.87923" lon="-1.88527">
        <ele>51.323393</ele>
        <time>2022-12-17T13:47:41.417Z</time>
      </trkpt>
      <trkpt lat="46.87913" lon="-1.88525">
        <ele>51.212631</ele>
        <time>2022-12-17T13:47:43.433Z</time>
      </trkpt>
      <trkpt lat="46.87903" lon="-1.88523">
        <ele>51.094639</ele>
        <time>2022-12-17T13:47:45.421Z</time>
      </trkpt>
      <trkpt lat="46.87893" lon="-1.88521">
        <ele>50.981401</ele>
        <time>2022-12-17T13:47:47.422Z</time>
      </trkpt>
      <trkpt lat="46.87884" lon="-1.88519">
        <ele>50.869775</ele>
        <time>2022-12-17T13:47:49.427Z</time>
      </trkpt>
      <trkpt lat="46.87873" lon="-1.88517">
        <ele>50.747462</ele>
        <time>2022-12-17T13:47:51.419Z</time>
      </trkpt>
      <trkpt lat="46.87863" lon="-1.88515">
        <ele>50.693766</ele>
        <time>2022-12-17T13:47:53.424Z</time>
      </trkpt>
      <trkpt lat="46.87853" lon="-1.88514">
        <ele>50.777156</ele>
        <time>2022-12-17T13:47:55.433Z</time>
      </trkpt>
      <trkpt lat="46.87843" lon="-1.88511">
        <ele>50.858685</ele>
        <time>2022-12-17T13:47:57.426Z</time>
      </trkpt>
      <trkpt lat="46.87832" lon="-1.88509">
        <ele>50.945351</ele>
        <time>2022-12-17T13:47:59.435Z</time>
      </trkpt>
      <trkpt lat="46.87821" lon="-1.88506">
        <ele>51.037781</ele>
        <time>2022-12-17T13:48:01.421Z</time>
      </trkpt>
      <trkpt lat="46.87811" lon="-1.88504">
        <ele>51.123205</ele>
        <time>2022-12-17T13:48:03.482Z</time>
      </trkpt>
      <trkpt lat="46.87801" lon="-1.88501">
        <ele>51.209062</ele>
        <time>2022-12-17T13:48:05.436Z</time>
      </trkpt>
      <trkpt lat="46.87792" lon="-1.885">
        <ele>51.284349</ele>
        <time>2022-12-17T13:48:07.423Z</time>
      </trkpt>
      <trkpt lat="46.87783" lon="-1.88498">
        <ele>51.358694</ele>
        <time>2022-12-17T13:48:09.427Z</time>
      </trkpt>
      <trkpt lat="46.87774" lon="-1.88497">
        <ele>51.434051</ele>
        <time>2022-12-17T13:48:11.429Z</time>
      </trkpt>
      <trkpt lat="46.87765" lon="-1.88495">
        <ele>51.508102</ele>
        <time>2022-12-17T13:48:13.424Z</time>
      </trkpt>
      <trkpt lat="46.87755" lon="-1.88493">
        <ele>51.58735</ele>
        <time>2022-12-17T13:48:15.427Z</time>
      </trkpt>
      <trkpt lat="46.87746" lon="-1.88492">
        <ele>51.663389</ele>
        <time>2022-12-17T13:48:17.427Z</time>
      </trkpt>
      <trkpt lat="46.87737" lon="-1.8849">
        <ele>51.737861</ele>
        <time>2022-12-17T13:48:19.422Z</time>
      </trkpt>
      <trkpt lat="46.87727" lon="-1.88488">
        <ele>51.818924</ele>
        <time>2022-12-17T13:48:21.424Z</time>
      </trkpt>
      <trkpt lat="46.87718" lon="-1.88487">
        <ele>51.896797</ele>
        <time>2022-12-17T13:48:23.414Z</time>
      </trkpt>
      <trkpt lat="46.87709" lon="-1.88485">
        <ele>51.972019</ele>
        <time>2022-12-17T13:48:25.469Z</time>
      </trkpt>
      <trkpt lat="46.87696" lon="-1.88483">
        <ele>52.073949</ele>
        <time>2022-12-17T13:48:28.436Z</time>
      </trkpt>
      <trkpt lat="46.87684" lon="-1.8848">
        <ele>52.186318</ele>
        <time>2022-12-17T13:48:31.410Z</time>
      </trkpt>
      <trkpt lat="46.87672" lon="-1.88477">
        <ele>52.306184</ele>
        <time>2022-12-17T13:48:34.429Z</time>
      </trkpt>
      <trkpt lat="46.8766" lon="-1.88474">
        <ele>52.432508</ele>
        <time>2022-12-17T13:48:37.414Z</time>
      </trkpt>
      <trkpt lat="46.87647" lon="-1.88472">
        <ele>52.560932</ele>
        <time>2022-12-17T13:48:40.408Z</time>
      </trkpt>
      <trkpt lat="46.87638" lon="-1.8847">
        <ele>52.651513</ele>
        <time>2022-12-17T13:48:42.413Z</time>
      </trkpt>
      <trkpt lat="46.87629" lon="-1.88468">
        <ele>52.74498</ele>
        <time>2022-12-17T13:48:44.430Z</time>
      </trkpt>
      <trkpt lat="46.87619" lon="-1.88466">
        <ele>52.839263</ele>
        <time>2022-12-17T13:48:46.424Z</time>
      </trkpt>
      <trkpt lat="46.8761" lon="-1.88464">
        <ele>52.934033</ele>
        <time>2022-12-17T13:48:48.419Z</time>
      </trkpt>
      <trkpt lat="46.87598" lon="-1.88462">
        <ele>53.054695</ele>
        <time>2022-12-17T13:48:51.436Z</time>
      </trkpt>
      <trkpt lat="46.87588" lon="-1.8846">
        <ele>53.162894</ele>
        <time>2022-12-17T13:48:54.417Z</time>
      </trkpt>
      <trkpt lat="46.87577" lon="-1.88458">
        <ele>53.271791</ele>
        <time>2022-12-17T13:48:57.404Z</time>
      </trkpt>
      <trkpt lat="46.87566" lon="-1.88455">
        <ele>53.381682</ele>
        <time>2022-12-17T13:49:00.407Z</time>
      </trkpt>
      <trkpt lat="46.87554" lon="-1.88453">
        <ele>53.502179</ele>
        <time>2022-12-17T13:49:03.421Z</time>
      </trkpt>
      <trkpt lat="46.87542" lon="-1.88452">
        <ele>53.629082</ele>
        <time>2022-12-17T13:49:06.401Z</time>
      </trkpt>
      <trkpt lat="46.87528" lon="-1.8845">
        <ele>53.762263</ele>
        <time>2022-12-17T13:49:09.425Z</time>
      </trkpt>
      <trkpt lat="46.87516" lon="-1.88447">
        <ele>53.884729</ele>
        <time>2022-12-17T13:49:12.408Z</time>
      </trkpt>
      <trkpt lat="46.87504" lon="-1.88444">
        <ele>53.883719</ele>
        <time>2022-12-17T13:49:15.420Z</time>
      </trkpt>
      <trkpt lat="46.8749" lon="-1.88443">
        <ele>53.728488</ele>
        <time>2022-12-17T13:49:18.429Z</time>
      </trkpt>
      <trkpt lat="46.87481" lon="-1.88441">
        <ele>53.616314</ele>
        <time>2022-12-17T13:49:20.433Z</time>
      </trkpt>
      <trkpt lat="46.87471" lon="-1.88439">
        <ele>53.501473</ele>
        <time>2022-12-17T13:49:22.432Z</time>
      </trkpt>
      <trkpt lat="46.87461" lon="-1.88437">
        <ele>53.383237</ele>
        <time>2022-12-17T13:49:24.419Z</time>
      </trkpt>
      <trkpt lat="46.87451" lon="-1.88435">
        <ele>53.271641</ele>
        <time>2022-12-17T13:49:26.422Z</time>
      </trkpt>
      <trkpt lat="46.87442" lon="-1.88433">
        <ele>53.155328</ele>
        <time>2022-12-17T13:49:28.429Z</time>
      </trkpt>
      <trkpt lat="46.87432" lon="-1.8843">
        <ele>53.04151</ele>
        <time>2022-12-17T13:49:30.420Z</time>
      </trkpt>
      <trkpt lat="46.87422" lon="-1.88428">
        <ele>52.929336</ele>
        <time>2022-12-17T13:49:32.407Z</time>
      </trkpt>
      <trkpt lat="46.87412" lon="-1.88426">
        <ele>52.808189</ele>
        <time>2022-12-17T13:49:34.420Z</time>
      </trkpt>
      <trkpt lat="46.87402" lon="-1.88424">
        <ele>52.69151</ele>
        <time>2022-12-17T13:49:36.420Z</time>
      </trkpt>
      <trkpt lat="46.87392" lon="-1.88422">
        <ele>52.57508</ele>
        <time>2022-12-17T13:49:38.405Z</time>
      </trkpt>
      <trkpt lat="46.87383" lon="-1.8842">
        <ele>52.462982</ele>
        <time>2022-12-17T13:49:40.482Z</time>
      </trkpt>
      <trkpt lat="46.87373" lon="-1.88418">
        <ele>52.34458</ele>
        <time>2022-12-17T13:49:42.433Z</time>
      </trkpt>
      <trkpt lat="46.87362" lon="-1.88416">
        <ele>52.222718</ele>
        <time>2022-12-17T13:49:44.419Z</time>
      </trkpt>
      <trkpt lat="46.87352" lon="-1.88414">
        <ele>52.100649</ele>
        <time>2022-12-17T13:49:46.439Z</time>
      </trkpt>
      <trkpt lat="46.87341" lon="-1.88413">
        <ele>51.976573</ele>
        <time>2022-12-17T13:49:48.421Z</time>
      </trkpt>
      <trkpt lat="46.87331" lon="-1.8841">
        <ele>51.862558</ele>
        <time>2022-12-17T13:49:50.429Z</time>
      </trkpt>
      <trkpt lat="46.87321" lon="-1.88409">
        <ele>51.902157</ele>
        <time>2022-12-17T13:49:52.410Z</time>
      </trkpt>
      <trkpt lat="46.87311" lon="-1.88408">
        <ele>51.939183</ele>
        <time>2022-12-17T13:49:54.423Z</time>
      </trkpt>
      <trkpt lat="46.87301" lon="-1.88405">
        <ele>51.975789</ele>
        <time>2022-12-17T13:49:56.426Z</time>
      </trkpt>
      <trkpt lat="46.87292" lon="-1.88404">
        <ele>52.009989</ele>
        <time>2022-12-17T13:49:58.436Z</time>
      </trkpt>
      <trkpt lat="46.87283" lon="-1.88402">
        <ele>52.043563</ele>
        <time>2022-12-17T13:50:00.436Z</time>
      </trkpt>
      <trkpt lat="46.87273" lon="-1.884">
        <ele>52.080823</ele>
        <time>2022-12-17T13:50:02.436Z</time>
      </trkpt>
      <trkpt lat="46.87263" lon="-1.88397">
        <ele>52.116987</ele>
        <time>2022-12-17T13:50:04.407Z</time>
      </trkpt>
      <trkpt lat="46.87253" lon="-1.88395">
        <ele>52.153152</ele>
        <time>2022-12-17T13:50:06.423Z</time>
      </trkpt>
      <trkpt lat="46.87243" lon="-1.88393">
        <ele>52.19144</ele>
        <time>2022-12-17T13:50:08.411Z</time>
      </trkpt>
      <trkpt lat="46.87232" lon="-1.88391">
        <ele>52.232094</ele>
        <time>2022-12-17T13:50:10.404Z</time>
      </trkpt>
      <trkpt lat="46.87221" lon="-1.88389">
        <ele>52.272863</ele>
        <time>2022-12-17T13:50:12.406Z</time>
      </trkpt>
      <trkpt lat="46.8721" lon="-1.88387">
        <ele>52.312867</ele>
        <time>2022-12-17T13:50:14.421Z</time>
      </trkpt>
      <trkpt lat="46.872" lon="-1.88386">
        <ele>52.353181</ele>
        <time>2022-12-17T13:50:16.420Z</time>
      </trkpt>
      <trkpt lat="46.87189" lon="-1.88384">
        <ele>52.391536</ele>
        <time>2022-12-17T13:50:18.411Z</time>
      </trkpt>
      <trkpt lat="46.87179" lon="-1.88382">
        <ele>52.430104</ele>
        <time>2022-12-17T13:50:20.421Z</time>
      </trkpt>
      <trkpt lat="46.87168" lon="-1.8838">
        <ele>52.46919</ele>
        <time>2022-12-17T13:50:22.429Z</time>
      </trkpt>
      <trkpt lat="46.87158" lon="-1.88378">
        <ele>52.508712</ele>
        <time>2022-12-17T13:50:24.411Z</time>
      </trkpt>
      <trkpt lat="46.87147" lon="-1.88376">
        <ele>52.543907</ele>
        <time>2022-12-17T13:50:26.418Z</time>
      </trkpt>
      <trkpt lat="46.87136" lon="-1.88374">
        <ele>52.576935</ele>
        <time>2022-12-17T13:50:28.467Z</time>
      </trkpt>
      <trkpt lat="46.87126" lon="-1.88372">
        <ele>52.61004</ele>
        <time>2022-12-17T13:50:30.431Z</time>
      </trkpt>
      <trkpt lat="46.87115" lon="-1.88369">
        <ele>52.6417</ele>
        <time>2022-12-17T13:50:32.409Z</time>
      </trkpt>
      <trkpt lat="46.87105" lon="-1.88367">
        <ele>52.674753</ele>
        <time>2022-12-17T13:50:34.412Z</time>
      </trkpt>
      <trkpt lat="46.87095" lon="-1.88365">
        <ele>52.705432</ele>
        <time>2022-12-17T13:50:36.432Z</time>
      </trkpt>
      <trkpt lat="46.87085" lon="-1.88363">
        <ele>52.735745</ele>
        <time>2022-12-17T13:50:38.416Z</time>
      </trkpt>
      <trkpt lat="46.87076" lon="-1.88361">
        <ele>52.763571</ele>
        <time>2022-12-17T13:50:40.425Z</time>
      </trkpt>
      <trkpt lat="46.87062" lon="-1.88359">
        <ele>52.804459</ele>
        <time>2022-12-17T13:50:43.426Z</time>
      </trkpt>
      <trkpt lat="46.87053" lon="-1.88358">
        <ele>52.831939</ele>
        <time>2022-12-17T13:50:45.416Z</time>
      </trkpt>
      <trkpt lat="46.87044" lon="-1.88356">
        <ele>52.8602</ele>
        <time>2022-12-17T13:50:47.410Z</time>
      </trkpt>
      <trkpt lat="46.87035" lon="-1.88354">
        <ele>52.888132</ele>
        <time>2022-12-17T13:50:49.419Z</time>
      </trkpt>
      <trkpt lat="46.87026" lon="-1.88352">
        <ele>52.915432</ele>
        <time>2022-12-17T13:50:51.411Z</time>
      </trkpt>
      <trkpt lat="46.87016" lon="-1.88351">
        <ele>52.945977</ele>
        <time>2022-12-17T13:50:53.433Z</time>
      </trkpt>
      <trkpt lat="46.87006" lon="-1.88348">
        <ele>52.975905</ele>
        <time>2022-12-17T13:50:55.432Z</time>
      </trkpt>
      <trkpt lat="46.86997" lon="-1.88346">
        <ele>53.004768</ele>
        <time>2022-12-17T13:50:57.412Z</time>
      </trkpt>
      <trkpt lat="46.86987" lon="-1.88344">
        <ele>53.034294</ele>
        <time>2022-12-17T13:50:59.418Z</time>
      </trkpt>
      <trkpt lat="46.86978" lon="-1.88343">
        <ele>53.063979</ele>
        <time>2022-12-17T13:51:01.487Z</time>
      </trkpt>
      <trkpt lat="46.86968" lon="-1.88341">
        <ele>53.010656</ele>
        <time>2022-12-17T13:51:03.426Z</time>
      </trkpt>
      <trkpt lat="46.86955" lon="-1.88339">
        <ele>52.892099</ele>
        <time>2022-12-17T13:51:06.428Z</time>
      </trkpt>
      <trkpt lat="46.86943" lon="-1.88336">
        <ele>52.779892</ele>
        <time>2022-12-17T13:51:09.413Z</time>
      </trkpt>
      <trkpt lat="46.86929" lon="-1.88333">
        <ele>52.661593</ele>
        <time>2022-12-17T13:51:12.413Z</time>
      </trkpt>
      <trkpt lat="46.86916" lon="-1.88332">
        <ele>52.541295</ele>
        <time>2022-12-17T13:51:15.407Z</time>
      </trkpt>
      <trkpt lat="46.86903" lon="-1.88329">
        <ele>52.421057</ele>
        <time>2022-12-17T13:51:18.410Z</time>
      </trkpt>
      <trkpt lat="46.8689" lon="-1.88326">
        <ele>52.303893</ele>
        <time>2022-12-17T13:51:21.434Z</time>
      </trkpt>
      <trkpt lat="46.8688" lon="-1.88325">
        <ele>52.219285</ele>
        <time>2022-12-17T13:51:23.421Z</time>
      </trkpt>
      <trkpt lat="46.86871" lon="-1.88323">
        <ele>52.134543</ele>
        <time>2022-12-17T13:51:25.435Z</time>
      </trkpt>
      <trkpt lat="46.86862" lon="-1.88321">
        <ele>52.049299</ele>
        <time>2022-12-17T13:51:27.431Z</time>
      </trkpt>
      <trkpt lat="46.86852" lon="-1.88319">
        <ele>51.959631</ele>
        <time>2022-12-17T13:51:29.424Z</time>
      </trkpt>
      <trkpt lat="46.86842" lon="-1.88316">
        <ele>51.870654</ele>
        <time>2022-12-17T13:51:31.422Z</time>
      </trkpt>
      <trkpt lat="46.86832" lon="-1.88315">
        <ele>51.780505</ele>
        <time>2022-12-17T13:51:33.438Z</time>
      </trkpt>
      <trkpt lat="46.86823" lon="-1.88313">
        <ele>51.698277</ele>
        <time>2022-12-17T13:51:35.435Z</time>
      </trkpt>
      <trkpt lat="46.86813" lon="-1.88311">
        <ele>51.612714</ele>
        <time>2022-12-17T13:51:37.430Z</time>
      </trkpt>
      <trkpt lat="46.868" lon="-1.8831">
        <ele>51.496731</ele>
        <time>2022-12-17T13:51:40.412Z</time>
      </trkpt>
      <trkpt lat="46.86788" lon="-1.88306">
        <ele>51.25885</ele>
        <time>2022-12-17T13:51:43.436Z</time>
      </trkpt>
      <trkpt lat="46.86776" lon="-1.88304">
        <ele>50.995989</ele>
        <time>2022-12-17T13:51:46.436Z</time>
      </trkpt>
      <trkpt lat="46.86764" lon="-1.88302">
        <ele>50.716904</ele>
        <time>2022-12-17T13:51:49.424Z</time>
      </trkpt>
      <trkpt lat="46.8675" lon="-1.883">
        <ele>50.404837</ele>
        <time>2022-12-17T13:51:52.433Z</time>
      </trkpt>
      <trkpt lat="46.86741" lon="-1.88298">
        <ele>50.200038</ele>
        <time>2022-12-17T13:51:54.436Z</time>
      </trkpt>
      <trkpt lat="46.86732" lon="-1.88296">
        <ele>49.983004</ele>
        <time>2022-12-17T13:51:56.409Z</time>
      </trkpt>
      <trkpt lat="46.86722" lon="-1.88295">
        <ele>49.754101</ele>
        <time>2022-12-17T13:51:58.421Z</time>
      </trkpt>
      <trkpt lat="46.86711" lon="-1.88292">
        <ele>49.517161</ele>
        <time>2022-12-17T13:52:00.483Z</time>
      </trkpt>
      <trkpt lat="46.867" lon="-1.88289">
        <ele>49.254968</ele>
        <time>2022-12-17T13:52:02.413Z</time>
      </trkpt>
      <trkpt lat="46.86688" lon="-1.88287">
        <ele>48.990536</ele>
        <time>2022-12-17T13:52:04.439Z</time>
      </trkpt>
      <trkpt lat="46.86676" lon="-1.88285">
        <ele>48.708377</ele>
        <time>2022-12-17T13:52:06.438Z</time>
      </trkpt>
      <trkpt lat="46.86663" lon="-1.88282">
        <ele>48.418907</ele>
        <time>2022-12-17T13:52:08.430Z</time>
      </trkpt>
      <trkpt lat="46.86651" lon="-1.8828">
        <ele>48.133479</ele>
        <time>2022-12-17T13:52:10.424Z</time>
      </trkpt>
      <trkpt lat="46.86638" lon="-1.88277">
        <ele>47.836653</ele>
        <time>2022-12-17T13:52:12.415Z</time>
      </trkpt>
      <trkpt lat="46.86624" lon="-1.88274">
        <ele>47.521266</ele>
        <time>2022-12-17T13:52:14.429Z</time>
      </trkpt>
      <trkpt lat="46.8661" lon="-1.88271">
        <ele>47.475996</ele>
        <time>2022-12-17T13:52:16.436Z</time>
      </trkpt>
      <trkpt lat="46.86596" lon="-1.88269">
        <ele>47.604017</ele>
        <time>2022-12-17T13:52:18.440Z</time>
      </trkpt>
      <trkpt lat="46.86581" lon="-1.88265">
        <ele>47.73764</ele>
        <time>2022-12-17T13:52:20.424Z</time>
      </trkpt>
      <trkpt lat="46.86567" lon="-1.88263">
        <ele>47.870042</ele>
        <time>2022-12-17T13:52:22.448Z</time>
      </trkpt>
      <trkpt lat="46.86553" lon="-1.8826">
        <ele>47.992395</ele>
        <time>2022-12-17T13:52:24.435Z</time>
      </trkpt>
      <trkpt lat="46.8654" lon="-1.88258">
        <ele>48.113931</ele>
        <time>2022-12-17T13:52:26.429Z</time>
      </trkpt>
      <trkpt lat="46.86527" lon="-1.88255">
        <ele>48.22744</ele>
        <time>2022-12-17T13:52:28.427Z</time>
      </trkpt>
      <trkpt lat="46.86515" lon="-1.88254">
        <ele>48.334004</ele>
        <time>2022-12-17T13:52:30.424Z</time>
      </trkpt>
      <trkpt lat="46.86505" lon="-1.88252">
        <ele>48.425405</ele>
        <time>2022-12-17T13:52:32.426Z</time>
      </trkpt>
      <trkpt lat="46.86496" lon="-1.8825">
        <ele>48.511053</ele>
        <time>2022-12-17T13:52:34.438Z</time>
      </trkpt>
      <trkpt lat="46.86483" lon="-1.88248">
        <ele>48.628866</ele>
        <time>2022-12-17T13:52:37.410Z</time>
      </trkpt>
      <trkpt lat="46.86471" lon="-1.88246">
        <ele>48.73306</ele>
        <time>2022-12-17T13:52:40.431Z</time>
      </trkpt>
      <trkpt lat="46.86461" lon="-1.88244">
        <ele>48.822976</ele>
        <time>2022-12-17T13:52:43.495Z</time>
      </trkpt>
      <trkpt lat="46.8645" lon="-1.88241">
        <ele>48.930161</ele>
        <time>2022-12-17T13:52:47.426Z</time>
      </trkpt>
      <trkpt lat="46.86441" lon="-1.88239">
        <ele>49.011973</ele>
        <time>2022-12-17T13:52:50.414Z</time>
      </trkpt>
      <trkpt lat="46.86431" lon="-1.88238">
        <ele>49.088639</ele>
        <time>2022-12-17T13:52:53.436Z</time>
      </trkpt>
      <trkpt lat="46.86421" lon="-1.88236">
        <ele>49.160744</ele>
        <time>2022-12-17T13:52:56.417Z</time>
      </trkpt>
      <trkpt lat="46.86411" lon="-1.88234">
        <ele>49.23266</ele>
        <time>2022-12-17T13:52:59.479Z</time>
      </trkpt>
      <trkpt lat="46.86402" lon="-1.88232">
        <ele>49.304986</ele>
        <time>2022-12-17T13:53:02.410Z</time>
      </trkpt>
      <trkpt lat="46.86392" lon="-1.8823">
        <ele>49.379373</ele>
        <time>2022-12-17T13:53:05.411Z</time>
      </trkpt>
      <trkpt lat="46.86382" lon="-1.88227">
        <ele>49.452683</ele>
        <time>2022-12-17T13:53:08.431Z</time>
      </trkpt>
      <trkpt lat="46.86372" lon="-1.88225">
        <ele>49.52648</ele>
        <time>2022-12-17T13:53:11.425Z</time>
      </trkpt>
      <trkpt lat="46.86362" lon="-1.88223">
        <ele>49.603149</ele>
        <time>2022-12-17T13:53:14.418Z</time>
      </trkpt>
      <trkpt lat="46.86351" lon="-1.88221">
        <ele>49.684176</ele>
        <time>2022-12-17T13:53:17.427Z</time>
      </trkpt>
      <trkpt lat="46.86341" lon="-1.88219">
        <ele>49.761513</ele>
        <time>2022-12-17T13:53:20.421Z</time>
      </trkpt>
      <trkpt lat="46.86331" lon="-1.88218">
        <ele>49.839124</ele>
        <time>2022-12-17T13:53:23.405Z</time>
      </trkpt>
      <trkpt lat="46.86319" lon="-1.88216">
        <ele>49.922883</ele>
        <time>2022-12-17T13:53:26.410Z</time>
      </trkpt>
      <trkpt lat="46.86308" lon="-1.88214">
        <ele>50.012161</ele>
        <time>2022-12-17T13:53:29.407Z</time>
      </trkpt>
      <trkpt lat="46.86295" lon="-1.88212">
        <ele>50.103047</ele>
        <time>2022-12-17T13:53:32.425Z</time>
      </trkpt>
      <trkpt lat="46.86283" lon="-1.88209">
        <ele>50.199456</ele>
        <time>2022-12-17T13:53:35.430Z</time>
      </trkpt>
      <trkpt lat="46.86274" lon="-1.88208">
        <ele>50.266677</ele>
        <time>2022-12-17T13:53:37.440Z</time>
      </trkpt>
      <trkpt lat="46.86264" lon="-1.88206">
        <ele>50.340661</ele>
        <time>2022-12-17T13:53:39.415Z</time>
      </trkpt>
      <trkpt lat="46.86253" lon="-1.88204">
        <ele>50.304432</ele>
        <time>2022-12-17T13:53:41.421Z</time>
      </trkpt>
      <trkpt lat="46.86242" lon="-1.88202">
        <ele>50.235894</ele>
        <time>2022-12-17T13:53:43.430Z</time>
      </trkpt>
      <trkpt lat="46.86231" lon="-1.88199">
        <ele>50.167648</ele>
        <time>2022-12-17T13:53:45.429Z</time>
      </trkpt>
      <trkpt lat="46.8622" lon="-1.88197">
        <ele>50.097177</ele>
        <time>2022-12-17T13:53:47.411Z</time>
      </trkpt>
      <trkpt lat="46.86208" lon="-1.88195">
        <ele>50.025606</ele>
        <time>2022-12-17T13:53:49.429Z</time>
      </trkpt>
      <trkpt lat="46.86196" lon="-1.88191">
        <ele>49.947285</ele>
        <time>2022-12-17T13:53:51.430Z</time>
      </trkpt>
      <trkpt lat="46.86184" lon="-1.88189">
        <ele>49.876208</ele>
        <time>2022-12-17T13:53:53.440Z</time>
      </trkpt>
      <trkpt lat="46.86172" lon="-1.88187">
        <ele>49.803572</ele>
        <time>2022-12-17T13:53:55.429Z</time>
      </trkpt>
      <trkpt lat="46.86161" lon="-1.88185">
        <ele>49.733765</ele>
        <time>2022-12-17T13:53:57.501Z</time>
      </trkpt>
      <trkpt lat="46.86151" lon="-1.88183">
        <ele>49.668422</ele>
        <time>2022-12-17T13:53:59.425Z</time>
      </trkpt>
      <trkpt lat="46.8614" lon="-1.88181">
        <ele>49.602082</ele>
        <time>2022-12-17T13:54:01.433Z</time>
      </trkpt>
      <trkpt lat="46.86129" lon="-1.88179">
        <ele>49.538392</ele>
        <time>2022-12-17T13:54:03.440Z</time>
      </trkpt>
      <trkpt lat="46.8612" lon="-1.88178">
        <ele>49.479319</ele>
        <time>2022-12-17T13:54:05.436Z</time>
      </trkpt>
      <trkpt lat="46.8611" lon="-1.88175">
        <ele>49.416171</ele>
        <time>2022-12-17T13:54:07.432Z</time>
      </trkpt>
      <trkpt lat="46.861" lon="-1.88173">
        <ele>49.353193</ele>
        <time>2022-12-17T13:54:09.423Z</time>
      </trkpt>
      <trkpt lat="46.8609" lon="-1.8817">
        <ele>49.293738</ele>
        <time>2022-12-17T13:54:11.427Z</time>
      </trkpt>
      <trkpt lat="46.86081" lon="-1.88169">
        <ele>49.251883</ele>
        <time>2022-12-17T13:54:13.483Z</time>
      </trkpt>
      <trkpt lat="46.86072" lon="-1.88167">
        <ele>49.240772</ele>
        <time>2022-12-17T13:54:15.413Z</time>
      </trkpt>
      <trkpt lat="46.86063" lon="-1.88166">
        <ele>49.22984</ele>
        <time>2022-12-17T13:54:17.436Z</time>
      </trkpt>
      <trkpt lat="46.8605" lon="-1.88162">
        <ele>49.213987</ele>
        <time>2022-12-17T13:54:20.427Z</time>
      </trkpt>
      <trkpt lat="46.86038" lon="-1.8816">
        <ele>49.198718</ele>
        <time>2022-12-17T13:54:23.415Z</time>
      </trkpt>
      <trkpt lat="46.86026" lon="-1.88157">
        <ele>49.184026</ele>
        <time>2022-12-17T13:54:26.416Z</time>
      </trkpt>
      <trkpt lat="46.86014" lon="-1.88155">
        <ele>49.169368</ele>
        <time>2022-12-17T13:54:29.428Z</time>
      </trkpt>
      <trkpt lat="46.86001" lon="-1.88153">
        <ele>49.154517</ele>
        <time>2022-12-17T13:54:32.426Z</time>
      </trkpt>
      <trkpt lat="46.85989" lon="-1.88152">
        <ele>49.139476</ele>
        <time>2022-12-17T13:54:35.439Z</time>
      </trkpt>
      <trkpt lat="46.85978" lon="-1.88152">
        <ele>49.125911</ele>
        <time>2022-12-17T13:54:38.438Z</time>
      </trkpt>
      <trkpt lat="46.85967" lon="-1.88153">
        <ele>49.112693</ele>
        <time>2022-12-17T13:54:41.411Z</time>
      </trkpt>
      <trkpt lat="46.85956" lon="-1.88155">
        <ele>49.099167</ele>
        <time>2022-12-17T13:54:44.429Z</time>
      </trkpt>
      <trkpt lat="46.85945" lon="-1.8816">
        <ele>49.08524</ele>
        <time>2022-12-17T13:54:47.416Z</time>
      </trkpt>
      <trkpt lat="46.85936" lon="-1.88167">
        <ele>49.07307</ele>
        <time>2022-12-17T13:54:50.440Z</time>
      </trkpt>
      <trkpt lat="46.85926" lon="-1.88173">
        <ele>49.05979</ele>
        <time>2022-12-17T13:54:54.440Z</time>
      </trkpt>
      <trkpt lat="46.85916" lon="-1.88167">
        <ele>49.046565</ele>
        <time>2022-12-17T13:54:58.421Z</time>
      </trkpt>
      <trkpt lat="46.85904" lon="-1.88165">
        <ele>49.071525</ele>
        <time>2022-12-17T13:55:02.453Z</time>
      </trkpt>
      <trkpt lat="46.85892" lon="-1.88166">
        <ele>49.174474</ele>
        <time>2022-12-17T13:55:06.425Z</time>
      </trkpt>
      <trkpt lat="46.85881" lon="-1.88165">
        <ele>49.276523</ele>
        <time>2022-12-17T13:55:10.432Z</time>
      </trkpt>
      <trkpt lat="46.85872" lon="-1.88163">
        <ele>49.357317</ele>
        <time>2022-12-17T13:55:13.425Z</time>
      </trkpt>
      <trkpt lat="46.8586" lon="-1.88161">
        <ele>49.461377</ele>
        <time>2022-12-17T13:55:17.417Z</time>
      </trkpt>
      <trkpt lat="46.85851" lon="-1.88158">
        <ele>49.541084</ele>
        <time>2022-12-17T13:55:20.430Z</time>
      </trkpt>
      <trkpt lat="46.85842" lon="-1.88155">
        <ele>49.620236</ele>
        <time>2022-12-17T13:55:23.476Z</time>
      </trkpt>
      <trkpt lat="46.85833" lon="-1.88152">
        <ele>49.69883</ele>
        <time>2022-12-17T13:55:26.407Z</time>
      </trkpt>
      <trkpt lat="46.85822" lon="-1.88147">
        <ele>49.803883</ele>
        <time>2022-12-17T13:55:30.412Z</time>
      </trkpt>
      <trkpt lat="46.8581" lon="-1.88142">
        <ele>49.907917</ele>
        <time>2022-12-17T13:55:34.420Z</time>
      </trkpt>
      <trkpt lat="46.85801" lon="-1.88138">
        <ele>49.993728</ele>
        <time>2022-12-17T13:55:37.407Z</time>
      </trkpt>
      <trkpt lat="46.85791" lon="-1.88135">
        <ele>50.080364</ele>
        <time>2022-12-17T13:55:40.419Z</time>
      </trkpt>
      <trkpt lat="46.85782" lon="-1.88131">
        <ele>50.161818</ele>
        <time>2022-12-17T13:55:43.424Z</time>
      </trkpt>
      <trkpt lat="46.85773" lon="-1.88128">
        <ele>50.240927</ele>
        <time>2022-12-17T13:55:46.412Z</time>
      </trkpt>
      <trkpt lat="46.85764" lon="-1.88125">
        <ele>50.320973</ele>
        <time>2022-12-17T13:55:49.436Z</time>
      </trkpt>
      <trkpt lat="46.85753" lon="-1.8812">
        <ele>50.425849</ele>
        <time>2022-12-17T13:55:53.432Z</time>
      </trkpt>
      <trkpt lat="46.85744" lon="-1.88116">
        <ele>50.505131</ele>
        <time>2022-12-17T13:55:56.436Z</time>
      </trkpt>
      <trkpt lat="46.85733" lon="-1.8812">
        <ele>50.603888</ele>
        <time>2022-12-17T13:56:00.492Z</time>
      </trkpt>
      <trkpt lat="46.85731" lon="-1.88127">
        <ele>50.498451</ele>
        <time>2022-12-17T13:56:24.551Z</time>
      </trkpt>
      <trkpt lat="46.85717" lon="-1.88136">
        <ele>50.187098</ele>
        <time>2022-12-17T13:57:50.424Z</time>
      </trkpt>
      <trkpt lat="46.85707" lon="-1.88134">
        <ele>49.974482</ele>
        <time>2022-12-17T13:57:53.421Z</time>
      </trkpt>
      <trkpt lat="46.85695" lon="-1.88136">
        <ele>49.738462</ele>
        <time>2022-12-17T13:57:56.413Z</time>
      </trkpt>
      <trkpt lat="46.85683" lon="-1.88143">
        <ele>49.480876</ele>
        <time>2022-12-17T13:57:59.415Z</time>
      </trkpt>
      <trkpt lat="46.85671" lon="-1.88144">
        <ele>49.224168</ele>
        <time>2022-12-17T13:58:02.412Z</time>
      </trkpt>
      <trkpt lat="46.85657" lon="-1.88146">
        <ele>48.952004</ele>
        <time>2022-12-17T13:58:05.426Z</time>
      </trkpt>
      <trkpt lat="46.85648" lon="-1.8815">
        <ele>48.758194</ele>
        <time>2022-12-17T13:58:07.408Z</time>
      </trkpt>
      <trkpt lat="46.85639" lon="-1.88158">
        <ele>48.544747</ele>
        <time>2022-12-17T13:58:09.405Z</time>
      </trkpt>
      <trkpt lat="46.85632" lon="-1.88171">
        <ele>48.317431</ele>
        <time>2022-12-17T13:58:11.416Z</time>
      </trkpt>
      <trkpt lat="46.85626" lon="-1.88186">
        <ele>48.082875</ele>
        <time>2022-12-17T13:58:13.415Z</time>
      </trkpt>
      <trkpt lat="46.85622" lon="-1.88202">
        <ele>47.849536</ele>
        <time>2022-12-17T13:58:15.409Z</time>
      </trkpt>
      <trkpt lat="46.85618" lon="-1.88217">
        <ele>47.626815</ele>
        <time>2022-12-17T13:58:17.411Z</time>
      </trkpt>
      <trkpt lat="46.85614" lon="-1.88233">
        <ele>47.392738</ele>
        <time>2022-12-17T13:58:19.415Z</time>
      </trkpt>
      <trkpt lat="46.85609" lon="-1.88247">
        <ele>47.171488</ele>
        <time>2022-12-17T13:58:21.416Z</time>
      </trkpt>
      <trkpt lat="46.85604" lon="-1.88259">
        <ele>46.980838</ele>
        <time>2022-12-17T13:58:23.416Z</time>
      </trkpt>
      <trkpt lat="46.85599" lon="-1.8827">
        <ele>46.859874</ele>
        <time>2022-12-17T13:58:25.412Z</time>
      </trkpt>
      <trkpt lat="46.85592" lon="-1.88281">
        <ele>46.73517</ele>
        <time>2022-12-17T13:58:27.414Z</time>
      </trkpt>
      <trkpt lat="46.85586" lon="-1.88292">
        <ele>46.607218</ele>
        <time>2022-12-17T13:58:29.409Z</time>
      </trkpt>
      <trkpt lat="46.85579" lon="-1.88301">
        <ele>46.48355</ele>
        <time>2022-12-17T13:58:31.431Z</time>
      </trkpt>
      <trkpt lat="46.85572" lon="-1.88312">
        <ele>46.35166</ele>
        <time>2022-12-17T13:58:33.417Z</time>
      </trkpt>
      <trkpt lat="46.85566" lon="-1.88323">
        <ele>46.226955</ele>
        <time>2022-12-17T13:58:35.412Z</time>
      </trkpt>
      <trkpt lat="46.8556" lon="-1.88335">
        <ele>46.099417</ele>
        <time>2022-12-17T13:58:37.418Z</time>
      </trkpt>
      <trkpt lat="46.85555" lon="-1.88346">
        <ele>45.971878</ele>
        <time>2022-12-17T13:58:39.407Z</time>
      </trkpt>
      <trkpt lat="46.85549" lon="-1.88359">
        <ele>45.839086</ele>
        <time>2022-12-17T13:58:41.419Z</time>
      </trkpt>
      <trkpt lat="46.85544" lon="-1.88372">
        <ele>45.707899</ele>
        <time>2022-12-17T13:58:43.410Z</time>
      </trkpt>
      <trkpt lat="46.85541" lon="-1.88385">
        <ele>45.583685</ele>
        <time>2022-12-17T13:58:45.423Z</time>
      </trkpt>
      <trkpt lat="46.85537" lon="-1.88398">
        <ele>45.461277</ele>
        <time>2022-12-17T13:58:47.435Z</time>
      </trkpt>
      <trkpt lat="46.85533" lon="-1.88416">
        <ele>45.287352</ele>
        <time>2022-12-17T13:58:50.424Z</time>
      </trkpt>
      <trkpt lat="46.85531" lon="-1.88434">
        <ele>45.130743</ele>
        <time>2022-12-17T13:58:53.410Z</time>
      </trkpt>
      <trkpt lat="46.8553" lon="-1.8845">
        <ele>44.98521</ele>
        <time>2022-12-17T13:58:56.430Z</time>
      </trkpt>
      <trkpt lat="46.85529" lon="-1.88464">
        <ele>44.858172</ele>
        <time>2022-12-17T13:58:59.410Z</time>
      </trkpt>
      <trkpt lat="46.85529" lon="-1.8848">
        <ele>44.719625</ele>
        <time>2022-12-17T13:59:02.415Z</time>
      </trkpt>
      <trkpt lat="46.8553" lon="-1.88497">
        <ele>44.68329</ele>
        <time>2022-12-17T13:59:05.411Z</time>
      </trkpt>
      <trkpt lat="46.85533" lon="-1.88515">
        <ele>44.74997</ele>
        <time>2022-12-17T13:59:08.406Z</time>
      </trkpt>
      <trkpt lat="46.85539" lon="-1.88531">
        <ele>44.814669</ele>
        <time>2022-12-17T13:59:11.426Z</time>
      </trkpt>
      <trkpt lat="46.85546" lon="-1.88547">
        <ele>44.884658</ele>
        <time>2022-12-17T13:59:14.409Z</time>
      </trkpt>
      <trkpt lat="46.85551" lon="-1.8856">
        <ele>44.935128</ele>
        <time>2022-12-17T13:59:16.412Z</time>
      </trkpt>
      <trkpt lat="46.85556" lon="-1.88573">
        <ele>44.989465</ele>
        <time>2022-12-17T13:59:18.431Z</time>
      </trkpt>
      <trkpt lat="46.85561" lon="-1.88586">
        <ele>45.043539</ele>
        <time>2022-12-17T13:59:20.412Z</time>
      </trkpt>
      <trkpt lat="46.85567" lon="-1.88598">
        <ele>45.098935</ele>
        <time>2022-12-17T13:59:22.409Z</time>
      </trkpt>
      <trkpt lat="46.85572" lon="-1.88611">
        <ele>45.151989</ele>
        <time>2022-12-17T13:59:24.411Z</time>
      </trkpt>
      <trkpt lat="46.85576" lon="-1.88625">
        <ele>45.2055</ele>
        <time>2022-12-17T13:59:26.432Z</time>
      </trkpt>
      <trkpt lat="46.85578" lon="-1.88638">
        <ele>45.254396</ele>
        <time>2022-12-17T13:59:28.411Z</time>
      </trkpt>
      <trkpt lat="46.85579" lon="-1.88657">
        <ele>45.323326</ele>
        <time>2022-12-17T13:59:31.421Z</time>
      </trkpt>
      <trkpt lat="46.85577" lon="-1.88676">
        <ele>45.391914</ele>
        <time>2022-12-17T13:59:34.421Z</time>
      </trkpt>
      <trkpt lat="46.85573" lon="-1.88693">
        <ele>45.458406</ele>
        <time>2022-12-17T13:59:37.417Z</time>
      </trkpt>
      <trkpt lat="46.85567" lon="-1.88709">
        <ele>45.523817</ele>
        <time>2022-12-17T13:59:40.415Z</time>
      </trkpt>
      <trkpt lat="46.85561" lon="-1.88723">
        <ele>45.583457</ele>
        <time>2022-12-17T13:59:43.423Z</time>
      </trkpt>
      <trkpt lat="46.85554" lon="-1.88734">
        <ele>45.56626</ele>
        <time>2022-12-17T13:59:46.422Z</time>
      </trkpt>
      <trkpt lat="46.85548" lon="-1.88745">
        <ele>45.527152</ele>
        <time>2022-12-17T13:59:49.415Z</time>
      </trkpt>
      <trkpt lat="46.85544" lon="-1.88757">
        <ele>45.487966</ele>
        <time>2022-12-17T13:59:52.413Z</time>
      </trkpt>
      <trkpt lat="46.85532" lon="-1.88754">
        <ele>45.438475</ele>
        <time>2022-12-17T13:59:56.413Z</time>
      </trkpt>
      <trkpt lat="46.85522" lon="-1.88748">
        <ele>45.393767</ele>
        <time>2022-12-17T13:59:59.409Z</time>
      </trkpt>
      <trkpt lat="46.8551" lon="-1.88749">
        <ele>45.345599</ele>
        <time>2022-12-17T14:00:02.411Z</time>
      </trkpt>
      <trkpt lat="46.85499" lon="-1.88755">
        <ele>45.295947</ele>
        <time>2022-12-17T14:00:05.429Z</time>
      </trkpt>
      <trkpt lat="46.85489" lon="-1.88766">
        <ele>45.243367</ele>
        <time>2022-12-17T14:00:08.412Z</time>
      </trkpt>
      <trkpt lat="46.85478" lon="-1.88774">
        <ele>45.193077</ele>
        <time>2022-12-17T14:00:11.414Z</time>
      </trkpt>
      <trkpt lat="46.85468" lon="-1.88784">
        <ele>45.143195</ele>
        <time>2022-12-17T14:00:14.430Z</time>
      </trkpt>
      <trkpt lat="46.85458" lon="-1.88794">
        <ele>45.093626</ele>
        <time>2022-12-17T14:00:17.424Z</time>
      </trkpt>
      <trkpt lat="46.85448" lon="-1.88803">
        <ele>45.042313</ele>
        <time>2022-12-17T14:00:20.406Z</time>
      </trkpt>
      <trkpt lat="46.85437" lon="-1.88814">
        <ele>44.98788</ele>
        <time>2022-12-17T14:00:23.412Z</time>
      </trkpt>
      <trkpt lat="46.85426" lon="-1.88825">
        <ele>44.93266</ele>
        <time>2022-12-17T14:00:26.417Z</time>
      </trkpt>
      <trkpt lat="46.85415" lon="-1.88834">
        <ele>44.880581</ele>
        <time>2022-12-17T14:00:29.411Z</time>
      </trkpt>
      <trkpt lat="46.85404" lon="-1.88843">
        <ele>44.900717</ele>
        <time>2022-12-17T14:00:32.412Z</time>
      </trkpt>
      <trkpt lat="46.85394" lon="-1.88852">
        <ele>45.015695</ele>
        <time>2022-12-17T14:00:35.414Z</time>
      </trkpt>
      <trkpt lat="46.85383" lon="-1.88862">
        <ele>45.134568</ele>
        <time>2022-12-17T14:00:38.407Z</time>
      </trkpt>
      <trkpt lat="46.85372" lon="-1.88869">
        <ele>45.25057</ele>
        <time>2022-12-17T14:00:41.410Z</time>
      </trkpt>
      <trkpt lat="46.8536" lon="-1.88876">
        <ele>45.368929</ele>
        <time>2022-12-17T14:00:44.411Z</time>
      </trkpt>
      <trkpt lat="46.85349" lon="-1.88882">
        <ele>45.482774</ele>
        <time>2022-12-17T14:00:47.410Z</time>
      </trkpt>
      <trkpt lat="46.85339" lon="-1.88887">
        <ele>45.585536</ele>
        <time>2022-12-17T14:00:50.411Z</time>
      </trkpt>
      <trkpt lat="46.85329" lon="-1.88893">
        <ele>45.679445</ele>
        <time>2022-12-17T14:00:53.411Z</time>
      </trkpt>
      <trkpt lat="46.8532" lon="-1.88898">
        <ele>45.771363</ele>
        <time>2022-12-17T14:00:56.412Z</time>
      </trkpt>
      <trkpt lat="46.85313" lon="-1.88906">
        <ele>45.85978</ele>
        <time>2022-12-17T14:00:59.412Z</time>
      </trkpt>
      <trkpt lat="46.85308" lon="-1.88919">
        <ele>45.952075</ele>
        <time>2022-12-17T14:01:02.409Z</time>
      </trkpt>
      <trkpt lat="46.85301" lon="-1.88931">
        <ele>46.054424</ele>
        <time>2022-12-17T14:01:05.408Z</time>
      </trkpt>
      <trkpt lat="46.85292" lon="-1.88942">
        <ele>46.171272</ele>
        <time>2022-12-17T14:01:08.413Z</time>
      </trkpt>
      <trkpt lat="46.85286" lon="-1.88957">
        <ele>46.278122</ele>
        <time>2022-12-17T14:01:11.417Z</time>
      </trkpt>
      <trkpt lat="46.85281" lon="-1.88972">
        <ele>46.382394</ele>
        <time>2022-12-17T14:01:14.413Z</time>
      </trkpt>
      <trkpt lat="46.85277" lon="-1.88987">
        <ele>46.492</ele>
        <time>2022-12-17T14:01:17.407Z</time>
      </trkpt>
      <trkpt lat="46.85276" lon="-1.89005">
        <ele>46.688537</ele>
        <time>2022-12-17T14:01:20.410Z</time>
      </trkpt>
      <trkpt lat="46.85278" lon="-1.89024">
        <ele>46.978182</ele>
        <time>2022-12-17T14:01:23.405Z</time>
      </trkpt>
      <trkpt lat="46.8528" lon="-1.89037">
        <ele>47.175775</ele>
        <time>2022-12-17T14:01:25.411Z</time>
      </trkpt>
      <trkpt lat="46.85283" lon="-1.89056">
        <ele>47.461926</ele>
        <time>2022-12-17T14:01:28.424Z</time>
      </trkpt>
      <trkpt lat="46.85286" lon="-1.89074">
        <ele>47.747628</ele>
        <time>2022-12-17T14:01:31.406Z</time>
      </trkpt>
      <trkpt lat="46.85288" lon="-1.89092">
        <ele>48.01517</ele>
        <time>2022-12-17T14:01:34.405Z</time>
      </trkpt>
      <trkpt lat="46.85291" lon="-1.89109">
        <ele>48.282854</ele>
        <time>2022-12-17T14:01:37.412Z</time>
      </trkpt>
      <trkpt lat="46.85294" lon="-1.89126">
        <ele>48.551365</ele>
        <time>2022-12-17T14:01:40.412Z</time>
      </trkpt>
      <trkpt lat="46.85297" lon="-1.89143">
        <ele>48.803759</ele>
        <time>2022-12-17T14:01:43.410Z</time>
      </trkpt>
      <trkpt lat="46.85299" lon="-1.89158">
        <ele>49.041991</ele>
        <time>2022-12-17T14:01:46.410Z</time>
      </trkpt>
      <trkpt lat="46.85301" lon="-1.89173">
        <ele>49.26404</ele>
        <time>2022-12-17T14:01:49.416Z</time>
      </trkpt>
      <trkpt lat="46.85303" lon="-1.89188">
        <ele>49.502729</ele>
        <time>2022-12-17T14:01:53.411Z</time>
      </trkpt>
      <trkpt lat="46.85305" lon="-1.89202">
        <ele>49.718425</ele>
        <time>2022-12-17T14:01:57.430Z</time>
      </trkpt>
      <trkpt lat="46.85306" lon="-1.89216">
        <ele>49.921531</ele>
        <time>2022-12-17T14:02:01.437Z</time>
      </trkpt>
      <trkpt lat="46.85304" lon="-1.89231">
        <ele>50.15581</ele>
        <time>2022-12-17T14:02:06.418Z</time>
      </trkpt>
      <trkpt lat="46.853" lon="-1.89242">
        <ele>50.357605</ele>
        <time>2022-12-17T14:02:10.433Z</time>
      </trkpt>
      <trkpt lat="46.85292" lon="-1.89252">
        <ele>50.485368</ele>
        <time>2022-12-17T14:02:14.438Z</time>
      </trkpt>
      <trkpt lat="46.85286" lon="-1.89266">
        <ele>50.413787</ele>
        <time>2022-12-17T14:02:19.430Z</time>
      </trkpt>
      <trkpt lat="46.85286" lon="-1.89279">
        <ele>50.352419</ele>
        <time>2022-12-17T14:02:23.420Z</time>
      </trkpt>
      <trkpt lat="46.85287" lon="-1.89293">
        <ele>50.290853</ele>
        <time>2022-12-17T14:02:26.429Z</time>
      </trkpt>
      <trkpt lat="46.85292" lon="-1.89306">
        <ele>50.220322</ele>
        <time>2022-12-17T14:02:29.410Z</time>
      </trkpt>
      <trkpt lat="46.853" lon="-1.89319">
        <ele>50.144621</ele>
        <time>2022-12-17T14:02:32.411Z</time>
      </trkpt>
      <trkpt lat="46.85307" lon="-1.89332">
        <ele>50.065757</ele>
        <time>2022-12-17T14:02:35.406Z</time>
      </trkpt>
      <trkpt lat="46.85315" lon="-1.89346">
        <ele>49.984242</ele>
        <time>2022-12-17T14:02:38.417Z</time>
      </trkpt>
      <trkpt lat="46.85324" lon="-1.8936">
        <ele>49.902299</ele>
        <time>2022-12-17T14:02:41.415Z</time>
      </trkpt>
      <trkpt lat="46.85332" lon="-1.89374">
        <ele>49.81813</ele>
        <time>2022-12-17T14:02:44.414Z</time>
      </trkpt>
      <trkpt lat="46.8534" lon="-1.89389">
        <ele>49.730622</ele>
        <time>2022-12-17T14:02:47.413Z</time>
      </trkpt>
      <trkpt lat="46.85346" lon="-1.89399">
        <ele>49.668968</ele>
        <time>2022-12-17T14:02:49.413Z</time>
      </trkpt>
      <trkpt lat="46.85352" lon="-1.8941">
        <ele>49.606332</ele>
        <time>2022-12-17T14:02:51.420Z</time>
      </trkpt>
      <trkpt lat="46.85359" lon="-1.89422">
        <ele>49.539374</ele>
        <time>2022-12-17T14:02:53.411Z</time>
      </trkpt>
      <trkpt lat="46.85365" lon="-1.89433">
        <ele>49.471866</ele>
        <time>2022-12-17T14:02:55.421Z</time>
      </trkpt>
      <trkpt lat="46.85372" lon="-1.89445">
        <ele>49.403025</ele>
        <time>2022-12-17T14:02:57.415Z</time>
      </trkpt>
      <trkpt lat="46.85379" lon="-1.89457">
        <ele>49.334049</ele>
        <time>2022-12-17T14:02:59.411Z</time>
      </trkpt>
      <trkpt lat="46.85385" lon="-1.89468">
        <ele>49.192306</ele>
        <time>2022-12-17T14:03:01.420Z</time>
      </trkpt>
      <trkpt lat="46.85392" lon="-1.89479">
        <ele>49.045928</ele>
        <time>2022-12-17T14:03:03.416Z</time>
      </trkpt>
      <trkpt lat="46.85397" lon="-1.8949">
        <ele>48.901303</ele>
        <time>2022-12-17T14:03:05.426Z</time>
      </trkpt>
      <trkpt lat="46.85406" lon="-1.89504">
        <ele>48.703845</ele>
        <time>2022-12-17T14:03:08.410Z</time>
      </trkpt>
      <trkpt lat="46.85415" lon="-1.89518">
        <ele>48.505613</ele>
        <time>2022-12-17T14:03:11.414Z</time>
      </trkpt>
      <trkpt lat="46.85421" lon="-1.89527">
        <ele>48.367355</ele>
        <time>2022-12-17T14:03:14.413Z</time>
      </trkpt>
      <trkpt lat="46.85425" lon="-1.89543">
        <ele>48.186867</ele>
        <time>2022-12-17T14:03:18.436Z</time>
      </trkpt>
      <trkpt lat="46.85419" lon="-1.89555">
        <ele>48.031495</ele>
        <time>2022-12-17T14:03:21.413Z</time>
      </trkpt>
      <trkpt lat="46.8541" lon="-1.89562">
        <ele>47.881493</ele>
        <time>2022-12-17T14:03:24.413Z</time>
      </trkpt>
      <trkpt lat="46.85403" lon="-1.8957">
        <ele>47.739696</ele>
        <time>2022-12-17T14:03:27.423Z</time>
      </trkpt>
      <trkpt lat="46.85396" lon="-1.89581">
        <ele>47.592546</ele>
        <time>2022-12-17T14:03:30.409Z</time>
      </trkpt>
      <trkpt lat="46.85392" lon="-1.89596">
        <ele>47.418051</ele>
        <time>2022-12-17T14:03:34.408Z</time>
      </trkpt>
      <trkpt lat="46.85394" lon="-1.89611">
        <ele>47.259005</ele>
        <time>2022-12-17T14:03:38.426Z</time>
      </trkpt>
      <trkpt lat="46.85403" lon="-1.89616">
        <ele>47.11344</ele>
        <time>2022-12-17T14:03:44.430Z</time>
      </trkpt>
      <trkpt lat="46.85408" lon="-1.89605">
        <ele>46.966392</ele>
        <time>2022-12-17T14:03:49.407Z</time>
      </trkpt>
      <trkpt lat="46.85418" lon="-1.89611">
        <ele>46.796721</ele>
        <time>2022-12-17T14:03:54.414Z</time>
      </trkpt>
      <trkpt lat="46.85427" lon="-1.89615">
        <ele>46.647877</ele>
        <time>2022-12-17T14:03:59.415Z</time>
      </trkpt>
      <trkpt lat="46.85431" lon="-1.89618">
        <ele>46.58542</ele>
        <time>2022-12-17T14:04:15.836Z</time>
      </trkpt>
      <trkpt lat="46.85419" lon="-1.89613">
        <ele>46.524824</ele>
        <time>2022-12-17T15:01:01.422Z</time>
      </trkpt>
      <trkpt lat="46.85409" lon="-1.89611">
        <ele>46.486591</ele>
        <time>2022-12-17T15:01:07.412Z</time>
      </trkpt>
      <trkpt lat="46.85401" lon="-1.89618">
        <ele>46.452836</ele>
        <time>2022-12-17T15:01:17.455Z</time>
      </trkpt>
      <trkpt lat="46.85392" lon="-1.89623">
        <ele>46.418204</ele>
        <time>2022-12-17T15:01:29.426Z</time>
      </trkpt>
      <trkpt lat="46.85381" lon="-1.89622">
        <ele>46.378235</ele>
        <time>2022-12-17T15:01:34.421Z</time>
      </trkpt>
      <trkpt lat="46.85374" lon="-1.89612">
        <ele>46.341787</ele>
        <time>2022-12-17T15:01:38.425Z</time>
      </trkpt>
      <trkpt lat="46.85366" lon="-1.89603">
        <ele>46.304947</ele>
        <time>2022-12-17T15:01:44.420Z</time>
      </trkpt>
      <trkpt lat="46.85367" lon="-1.89589">
        <ele>46.268387</ele>
        <time>2022-12-17T15:01:58.427Z</time>
      </trkpt>
      <trkpt lat="46.85376" lon="-1.89579">
        <ele>46.229189</ele>
        <time>2022-12-17T15:02:05.423Z</time>
      </trkpt>
      <trkpt lat="46.85387" lon="-1.8958">
        <ele>46.188628</ele>
        <time>2022-12-17T15:02:10.420Z</time>
      </trkpt>
      <trkpt lat="46.85395" lon="-1.89572">
        <ele>46.154588</ele>
        <time>2022-12-17T15:02:14.422Z</time>
      </trkpt>
      <trkpt lat="46.85402" lon="-1.8956">
        <ele>46.113571</ele>
        <time>2022-12-17T15:02:18.457Z</time>
      </trkpt>
      <trkpt lat="46.85407" lon="-1.89548">
        <ele>46.079721</ele>
        <time>2022-12-17T15:02:22.430Z</time>
      </trkpt>
      <trkpt lat="46.85413" lon="-1.89537">
        <ele>46.045684</ele>
        <time>2022-12-17T15:02:27.426Z</time>
      </trkpt>
      <trkpt lat="46.85423" lon="-1.89535">
        <ele>46.008245</ele>
        <time>2022-12-17T15:02:31.505Z</time>
      </trkpt>
      <trkpt lat="46.85432" lon="-1.89549">
        <ele>45.958747</ele>
        <time>2022-12-17T15:02:34.426Z</time>
      </trkpt>
      <trkpt lat="46.85438" lon="-1.89559">
        <ele>45.924302</ele>
        <time>2022-12-17T15:02:36.441Z</time>
      </trkpt>
      <trkpt lat="46.85447" lon="-1.89572">
        <ele>45.783406</ele>
        <time>2022-12-17T15:02:39.425Z</time>
      </trkpt>
      <trkpt lat="46.85454" lon="-1.89582">
        <ele>45.648778</ele>
        <time>2022-12-17T15:02:41.419Z</time>
      </trkpt>
      <trkpt lat="46.85463" lon="-1.89595">
        <ele>45.457826</ele>
        <time>2022-12-17T15:02:44.428Z</time>
      </trkpt>
      <trkpt lat="46.85472" lon="-1.89606">
        <ele>45.280506</ele>
        <time>2022-12-17T15:02:47.428Z</time>
      </trkpt>
      <trkpt lat="46.85482" lon="-1.89612">
        <ele>45.121063</ele>
        <time>2022-12-17T15:02:50.430Z</time>
      </trkpt>
      <trkpt lat="46.85493" lon="-1.89614">
        <ele>44.962564</ele>
        <time>2022-12-17T15:02:54.425Z</time>
      </trkpt>
      <trkpt lat="46.85506" lon="-1.8961">
        <ele>44.757615</ele>
        <time>2022-12-17T15:03:24.427Z</time>
      </trkpt>
      <trkpt lat="46.85515" lon="-1.896">
        <ele>44.590414</ele>
        <time>2022-12-17T15:03:28.422Z</time>
      </trkpt>
      <trkpt lat="46.85524" lon="-1.89593">
        <ele>44.447916</ele>
        <time>2022-12-17T15:03:31.446Z</time>
      </trkpt>
      <trkpt lat="46.85533" lon="-1.89591">
        <ele>44.31341</ele>
        <time>2022-12-17T15:03:34.419Z</time>
      </trkpt>
      <trkpt lat="46.85545" lon="-1.89596">
        <ele>44.124807</ele>
        <time>2022-12-17T15:03:37.432Z</time>
      </trkpt>
      <trkpt lat="46.85553" lon="-1.89605">
        <ele>43.975043</ele>
        <time>2022-12-17T15:03:40.417Z</time>
      </trkpt>
      <trkpt lat="46.85558" lon="-1.89617">
        <ele>43.824123</ele>
        <time>2022-12-17T15:03:43.434Z</time>
      </trkpt>
      <trkpt lat="46.85561" lon="-1.89632">
        <ele>43.673156</ele>
        <time>2022-12-17T15:03:46.437Z</time>
      </trkpt>
      <trkpt lat="46.85561" lon="-1.89645">
        <ele>43.537026</ele>
        <time>2022-12-17T15:03:49.423Z</time>
      </trkpt>
      <trkpt lat="46.85558" lon="-1.8966">
        <ele>43.378408</ele>
        <time>2022-12-17T15:03:53.449Z</time>
      </trkpt>
      <trkpt lat="46.85552" lon="-1.89675">
        <ele>43.258007</ele>
        <time>2022-12-17T15:03:57.425Z</time>
      </trkpt>
      <trkpt lat="46.85551" lon="-1.8969">
        <ele>43.340206</ele>
        <time>2022-12-17T15:04:00.430Z</time>
      </trkpt>
      <trkpt lat="46.8555" lon="-1.89704">
        <ele>43.416331</ele>
        <time>2022-12-17T15:04:03.427Z</time>
      </trkpt>
      <trkpt lat="46.85548" lon="-1.89718">
        <ele>43.498656</ele>
        <time>2022-12-17T15:04:07.425Z</time>
      </trkpt>
      <trkpt lat="46.85545" lon="-1.89734">
        <ele>43.591475</ele>
        <time>2022-12-17T15:04:11.429Z</time>
      </trkpt>
      <trkpt lat="46.85543" lon="-1.89752">
        <ele>43.690905</ele>
        <time>2022-12-17T15:04:14.440Z</time>
      </trkpt>
      <trkpt lat="46.85541" lon="-1.89766">
        <ele>43.768345</ele>
        <time>2022-12-17T15:04:16.437Z</time>
      </trkpt>
      <trkpt lat="46.85539" lon="-1.89779">
        <ele>43.844029</ele>
        <time>2022-12-17T15:04:18.432Z</time>
      </trkpt>
      <trkpt lat="46.85538" lon="-1.89793">
        <ele>43.920946</ele>
        <time>2022-12-17T15:04:20.436Z</time>
      </trkpt>
      <trkpt lat="46.85536" lon="-1.89807">
        <ele>43.999076</ele>
        <time>2022-12-17T15:04:22.423Z</time>
      </trkpt>
      <trkpt lat="46.85534" lon="-1.8982">
        <ele>44.073676</ele>
        <time>2022-12-17T15:04:24.430Z</time>
      </trkpt>
      <trkpt lat="46.85532" lon="-1.89839">
        <ele>44.177648</ele>
        <time>2022-12-17T15:04:27.442Z</time>
      </trkpt>
      <trkpt lat="46.85529" lon="-1.89855">
        <ele>44.272962</ele>
        <time>2022-12-17T15:04:30.427Z</time>
      </trkpt>
      <trkpt lat="46.85525" lon="-1.89871">
        <ele>44.366085</ele>
        <time>2022-12-17T15:04:33.431Z</time>
      </trkpt>
      <trkpt lat="46.85521" lon="-1.89888">
        <ele>44.459756</ele>
        <time>2022-12-17T15:04:36.422Z</time>
      </trkpt>
      <trkpt lat="46.85518" lon="-1.89904">
        <ele>44.552376</ele>
        <time>2022-12-17T15:04:39.429Z</time>
      </trkpt>
      <trkpt lat="46.85515" lon="-1.89919">
        <ele>44.642935</ele>
        <time>2022-12-17T15:04:42.428Z</time>
      </trkpt>
      <trkpt lat="46.8551" lon="-1.89936">
        <ele>44.621126</ele>
        <time>2022-12-17T15:04:45.426Z</time>
      </trkpt>
      <trkpt lat="46.85507" lon="-1.89951">
        <ele>44.501694</ele>
        <time>2022-12-17T15:04:48.419Z</time>
      </trkpt>
      <trkpt lat="46.85503" lon="-1.89966">
        <ele>44.378996</ele>
        <time>2022-12-17T15:04:51.443Z</time>
      </trkpt>
      <trkpt lat="46.85499" lon="-1.89982">
        <ele>44.250272</ele>
        <time>2022-12-17T15:04:54.425Z</time>
      </trkpt>
      <trkpt lat="46.85493" lon="-1.9">
        <ele>44.098931</ele>
        <time>2022-12-17T15:04:57.432Z</time>
      </trkpt>
      <trkpt lat="46.8549" lon="-1.90013">
        <ele>43.991527</ele>
        <time>2022-12-17T15:04:59.422Z</time>
      </trkpt>
      <trkpt lat="46.85486" lon="-1.90028">
        <ele>43.875675</ele>
        <time>2022-12-17T15:05:01.437Z</time>
      </trkpt>
      <trkpt lat="46.85482" lon="-1.90043">
        <ele>43.754447</ele>
        <time>2022-12-17T15:05:03.421Z</time>
      </trkpt>
      <trkpt lat="46.85478" lon="-1.90059">
        <ele>43.623695</ele>
        <time>2022-12-17T15:05:05.449Z</time>
      </trkpt>
      <trkpt lat="46.85472" lon="-1.90076">
        <ele>43.479719</ele>
        <time>2022-12-17T15:05:07.430Z</time>
      </trkpt>
      <trkpt lat="46.85467" lon="-1.90092">
        <ele>43.344869</ele>
        <time>2022-12-17T15:05:09.423Z</time>
      </trkpt>
      <trkpt lat="46.85462" lon="-1.90108">
        <ele>43.212345</ele>
        <time>2022-12-17T15:05:11.437Z</time>
      </trkpt>
      <trkpt lat="46.85457" lon="-1.90123">
        <ele>43.085547</ele>
        <time>2022-12-17T15:05:13.419Z</time>
      </trkpt>
      <trkpt lat="46.85451" lon="-1.90137">
        <ele>42.957525</ele>
        <time>2022-12-17T15:05:15.422Z</time>
      </trkpt>
      <trkpt lat="46.85446" lon="-1.90151">
        <ele>42.837989</ele>
        <time>2022-12-17T15:05:17.421Z</time>
      </trkpt>
      <trkpt lat="46.85441" lon="-1.90165">
        <ele>42.724669</ele>
        <time>2022-12-17T15:05:19.424Z</time>
      </trkpt>
      <trkpt lat="46.85437" lon="-1.90177">
        <ele>42.699844</ele>
        <time>2022-12-17T15:05:21.420Z</time>
      </trkpt>
      <trkpt lat="46.85431" lon="-1.90194">
        <ele>42.696913</ele>
        <time>2022-12-17T15:05:24.431Z</time>
      </trkpt>
      <trkpt lat="46.85425" lon="-1.9021">
        <ele>42.694012</ele>
        <time>2022-12-17T15:05:27.454Z</time>
      </trkpt>
      <trkpt lat="46.85418" lon="-1.90227">
        <ele>42.690976</ele>
        <time>2022-12-17T15:05:30.447Z</time>
      </trkpt>
      <trkpt lat="46.85414" lon="-1.90239">
        <ele>42.688765</ele>
        <time>2022-12-17T15:05:32.441Z</time>
      </trkpt>
      <trkpt lat="46.8541" lon="-1.90252">
        <ele>42.686595</ele>
        <time>2022-12-17T15:05:34.426Z</time>
      </trkpt>
      <trkpt lat="46.85406" lon="-1.90264">
        <ele>42.684495</ele>
        <time>2022-12-17T15:05:36.434Z</time>
      </trkpt>
      <trkpt lat="46.85401" lon="-1.90276">
        <ele>42.682246</ele>
        <time>2022-12-17T15:05:38.435Z</time>
      </trkpt>
      <trkpt lat="46.85397" lon="-1.90288">
        <ele>42.679978</ele>
        <time>2022-12-17T15:05:40.425Z</time>
      </trkpt>
      <trkpt lat="46.85391" lon="-1.90301">
        <ele>42.677643</ele>
        <time>2022-12-17T15:05:42.425Z</time>
      </trkpt>
      <trkpt lat="46.85386" lon="-1.90314">
        <ele>42.675302</ele>
        <time>2022-12-17T15:05:44.428Z</time>
      </trkpt>
      <trkpt lat="46.85381" lon="-1.90327">
        <ele>42.672885</ele>
        <time>2022-12-17T15:05:46.425Z</time>
      </trkpt>
      <trkpt lat="46.85375" lon="-1.9034">
        <ele>42.67038</ele>
        <time>2022-12-17T15:05:48.429Z</time>
      </trkpt>
      <trkpt lat="46.85369" lon="-1.90353">
        <ele>42.667823</ele>
        <time>2022-12-17T15:05:50.428Z</time>
      </trkpt>
      <trkpt lat="46.85363" lon="-1.90366">
        <ele>42.665435</ele>
        <time>2022-12-17T15:05:52.419Z</time>
      </trkpt>
      <trkpt lat="46.85357" lon="-1.90378">
        <ele>42.6631</ele>
        <time>2022-12-17T15:05:54.424Z</time>
      </trkpt>
      <trkpt lat="46.85352" lon="-1.90391">
        <ele>42.660646</ele>
        <time>2022-12-17T15:05:56.426Z</time>
      </trkpt>
      <trkpt lat="46.85346" lon="-1.90404">
        <ele>42.652438</ele>
        <time>2022-12-17T15:05:58.422Z</time>
      </trkpt>
      <trkpt lat="46.85339" lon="-1.90416">
        <ele>42.642035</ele>
        <time>2022-12-17T15:06:00.424Z</time>
      </trkpt>
      <trkpt lat="46.85333" lon="-1.90429">
        <ele>42.631207</ele>
        <time>2022-12-17T15:06:02.438Z</time>
      </trkpt>
      <trkpt lat="46.85327" lon="-1.90442">
        <ele>42.620666</ele>
        <time>2022-12-17T15:06:04.439Z</time>
      </trkpt>
      <trkpt lat="46.85321" lon="-1.90455">
        <ele>42.610013</ele>
        <time>2022-12-17T15:06:06.430Z</time>
      </trkpt>
      <trkpt lat="46.85314" lon="-1.90468">
        <ele>42.599164</ele>
        <time>2022-12-17T15:06:08.428Z</time>
      </trkpt>
      <trkpt lat="46.85307" lon="-1.90481">
        <ele>42.588394</ele>
        <time>2022-12-17T15:06:10.430Z</time>
      </trkpt>
      <trkpt lat="46.853" lon="-1.90494">
        <ele>42.577233</ele>
        <time>2022-12-17T15:06:12.423Z</time>
      </trkpt>
      <trkpt lat="46.85294" lon="-1.90506">
        <ele>42.567025</ele>
        <time>2022-12-17T15:06:14.441Z</time>
      </trkpt>
      <trkpt lat="46.85288" lon="-1.90519">
        <ele>42.556367</ele>
        <time>2022-12-17T15:06:16.424Z</time>
      </trkpt>
      <trkpt lat="46.85282" lon="-1.90532">
        <ele>42.545603</ele>
        <time>2022-12-17T15:06:18.428Z</time>
      </trkpt>
      <trkpt lat="46.85274" lon="-1.90545">
        <ele>42.534338</ele>
        <time>2022-12-17T15:06:20.424Z</time>
      </trkpt>
      <trkpt lat="46.85267" lon="-1.90558">
        <ele>42.522752</ele>
        <time>2022-12-17T15:06:22.430Z</time>
      </trkpt>
      <trkpt lat="46.85259" lon="-1.9057">
        <ele>42.511891</ele>
        <time>2022-12-17T15:06:24.425Z</time>
      </trkpt>
      <trkpt lat="46.85252" lon="-1.90583">
        <ele>42.500689</ele>
        <time>2022-12-17T15:06:26.429Z</time>
      </trkpt>
      <trkpt lat="46.85246" lon="-1.90594">
        <ele>42.490982</ele>
        <time>2022-12-17T15:06:28.425Z</time>
      </trkpt>
      <trkpt lat="46.85239" lon="-1.90605">
        <ele>42.474318</ele>
        <time>2022-12-17T15:06:30.427Z</time>
      </trkpt>
      <trkpt lat="46.85232" lon="-1.90617">
        <ele>42.430227</ele>
        <time>2022-12-17T15:06:32.429Z</time>
      </trkpt>
      <trkpt lat="46.85226" lon="-1.90627">
        <ele>42.390878</ele>
        <time>2022-12-17T15:06:34.427Z</time>
      </trkpt>
      <trkpt lat="46.85219" lon="-1.90639">
        <ele>42.346723</ele>
        <time>2022-12-17T15:06:36.440Z</time>
      </trkpt>
      <trkpt lat="46.85212" lon="-1.9065">
        <ele>42.302849</ele>
        <time>2022-12-17T15:06:38.429Z</time>
      </trkpt>
      <trkpt lat="46.85206" lon="-1.90661">
        <ele>42.261039</ele>
        <time>2022-12-17T15:06:40.445Z</time>
      </trkpt>
      <trkpt lat="46.85199" lon="-1.90672">
        <ele>42.216669</ele>
        <time>2022-12-17T15:06:42.425Z</time>
      </trkpt>
      <trkpt lat="46.85193" lon="-1.90684">
        <ele>42.174292</ele>
        <time>2022-12-17T15:06:44.452Z</time>
      </trkpt>
      <trkpt lat="46.85186" lon="-1.90696">
        <ele>42.130359</ele>
        <time>2022-12-17T15:06:46.438Z</time>
      </trkpt>
      <trkpt lat="46.8518" lon="-1.90706">
        <ele>42.090813</ele>
        <time>2022-12-17T15:06:48.433Z</time>
      </trkpt>
      <trkpt lat="46.85174" lon="-1.90717">
        <ele>42.051753</ele>
        <time>2022-12-17T15:06:50.438Z</time>
      </trkpt>
      <trkpt lat="46.85169" lon="-1.90728">
        <ele>42.012251</ele>
        <time>2022-12-17T15:06:52.426Z</time>
      </trkpt>
      <trkpt lat="46.85161" lon="-1.90742">
        <ele>41.958656</ele>
        <time>2022-12-17T15:06:55.430Z</time>
      </trkpt>
      <trkpt lat="46.85154" lon="-1.90756">
        <ele>41.908936</ele>
        <time>2022-12-17T15:06:58.426Z</time>
      </trkpt>
      <trkpt lat="46.85156" lon="-1.9077">
        <ele>41.86716</ele>
        <time>2022-12-17T15:07:01.460Z</time>
      </trkpt>
      <trkpt lat="46.8516" lon="-1.90783">
        <ele>41.827698</ele>
        <time>2022-12-17T15:07:04.426Z</time>
      </trkpt>
      <trkpt lat="46.85151" lon="-1.90793">
        <ele>41.78136</ele>
        <time>2022-12-17T15:07:09.437Z</time>
      </trkpt>
      <trkpt lat="46.85144" lon="-1.90802">
        <ele>41.743052</ele>
        <time>2022-12-17T15:07:12.421Z</time>
      </trkpt>
      <trkpt lat="46.85137" lon="-1.90813">
        <ele>41.762786</ele>
        <time>2022-12-17T15:07:15.429Z</time>
      </trkpt>
      <trkpt lat="46.85128" lon="-1.90826">
        <ele>41.832911</ele>
        <time>2022-12-17T15:07:18.423Z</time>
      </trkpt>
      <trkpt lat="46.8512" lon="-1.90841">
        <ele>41.906343</ele>
        <time>2022-12-17T15:07:21.432Z</time>
      </trkpt>
      <trkpt lat="46.85114" lon="-1.90851">
        <ele>41.959043</ele>
        <time>2022-12-17T15:07:23.429Z</time>
      </trkpt>
      <trkpt lat="46.85105" lon="-1.90866">
        <ele>42.033541</ele>
        <time>2022-12-17T15:07:26.427Z</time>
      </trkpt>
      <trkpt lat="46.85098" lon="-1.90876">
        <ele>42.090988</ele>
        <time>2022-12-17T15:07:28.424Z</time>
      </trkpt>
      <trkpt lat="46.85092" lon="-1.90887">
        <ele>42.145767</ele>
        <time>2022-12-17T15:07:30.445Z</time>
      </trkpt>
      <trkpt lat="46.85085" lon="-1.90898">
        <ele>42.201262</ele>
        <time>2022-12-17T15:07:32.426Z</time>
      </trkpt>
      <trkpt lat="46.85078" lon="-1.90909">
        <ele>42.259479</ele>
        <time>2022-12-17T15:07:34.448Z</time>
      </trkpt>
      <trkpt lat="46.85071" lon="-1.90921">
        <ele>42.319605</ele>
        <time>2022-12-17T15:07:36.423Z</time>
      </trkpt>
      <trkpt lat="46.85064" lon="-1.90933">
        <ele>42.380609</ele>
        <time>2022-12-17T15:07:38.450Z</time>
      </trkpt>
      <trkpt lat="46.85058" lon="-1.90946">
        <ele>42.443042</ele>
        <time>2022-12-17T15:07:40.426Z</time>
      </trkpt>
      <trkpt lat="46.85051" lon="-1.90957">
        <ele>42.502302</ele>
        <time>2022-12-17T15:07:42.433Z</time>
      </trkpt>
      <trkpt lat="46.85044" lon="-1.9097">
        <ele>42.563347</ele>
        <time>2022-12-17T15:07:44.429Z</time>
      </trkpt>
      <trkpt lat="46.85037" lon="-1.90982">
        <ele>42.625091</ele>
        <time>2022-12-17T15:07:46.449Z</time>
      </trkpt>
      <trkpt lat="46.85032" lon="-1.90994">
        <ele>42.680338</ele>
        <time>2022-12-17T15:07:48.449Z</time>
      </trkpt>
      <trkpt lat="46.85026" lon="-1.91004">
        <ele>42.733451</ele>
        <time>2022-12-17T15:07:50.452Z</time>
      </trkpt>
      <trkpt lat="46.85018" lon="-1.91019">
        <ele>42.668311</ele>
        <time>2022-12-17T15:07:53.444Z</time>
      </trkpt>
      <trkpt lat="46.85009" lon="-1.91029">
        <ele>42.593105</ele>
        <time>2022-12-17T15:07:56.428Z</time>
      </trkpt>
      <trkpt lat="46.84998" lon="-1.91036">
        <ele>42.512884</ele>
        <time>2022-12-17T15:07:59.426Z</time>
      </trkpt>
      <trkpt lat="46.84989" lon="-1.91041">
        <ele>42.450676</ele>
        <time>2022-12-17T15:08:01.423Z</time>
      </trkpt>
      <trkpt lat="46.8498" lon="-1.91047">
        <ele>42.387092</ele>
        <time>2022-12-17T15:08:03.424Z</time>
      </trkpt>
      <trkpt lat="46.84972" lon="-1.91055">
        <ele>42.324118</ele>
        <time>2022-12-17T15:08:05.428Z</time>
      </trkpt>
      <trkpt lat="46.84965" lon="-1.91063">
        <ele>42.26321</ele>
        <time>2022-12-17T15:08:07.427Z</time>
      </trkpt>
      <trkpt lat="46.84957" lon="-1.91073">
        <ele>42.196652</ele>
        <time>2022-12-17T15:08:09.428Z</time>
      </trkpt>
      <trkpt lat="46.84949" lon="-1.91083">
        <ele>42.128417</ele>
        <time>2022-12-17T15:08:11.432Z</time>
      </trkpt>
      <trkpt lat="46.84941" lon="-1.91093">
        <ele>42.05541</ele>
        <time>2022-12-17T15:08:13.428Z</time>
      </trkpt>
      <trkpt lat="46.84933" lon="-1.91104">
        <ele>41.980971</ele>
        <time>2022-12-17T15:08:15.450Z</time>
      </trkpt>
      <trkpt lat="46.84924" lon="-1.91114">
        <ele>41.908382</ele>
        <time>2022-12-17T15:08:17.438Z</time>
      </trkpt>
      <trkpt lat="46.84915" lon="-1.91125">
        <ele>41.831975</ele>
        <time>2022-12-17T15:08:19.428Z</time>
      </trkpt>
      <trkpt lat="46.84906" lon="-1.91134">
        <ele>41.759969</ele>
        <time>2022-12-17T15:08:21.461Z</time>
      </trkpt>
      <trkpt lat="46.84898" lon="-1.91144">
        <ele>41.686341</ele>
        <time>2022-12-17T15:08:23.451Z</time>
      </trkpt>
      <trkpt lat="46.84889" lon="-1.91154">
        <ele>41.612989</ele>
        <time>2022-12-17T15:08:25.428Z</time>
      </trkpt>
      <trkpt lat="46.8488" lon="-1.91164">
        <ele>41.557726</ele>
        <time>2022-12-17T15:08:27.428Z</time>
      </trkpt>
      <trkpt lat="46.84871" lon="-1.91175">
        <ele>41.575275</ele>
        <time>2022-12-17T15:08:29.423Z</time>
      </trkpt>
      <trkpt lat="46.84862" lon="-1.91184">
        <ele>41.591337</ele>
        <time>2022-12-17T15:08:31.448Z</time>
      </trkpt>
      <trkpt lat="46.84852" lon="-1.91194">
        <ele>41.608469</ele>
        <time>2022-12-17T15:08:33.425Z</time>
      </trkpt>
      <trkpt lat="46.84843" lon="-1.91204">
        <ele>41.624531</ele>
        <time>2022-12-17T15:08:35.423Z</time>
      </trkpt>
      <trkpt lat="46.84834" lon="-1.91213">
        <ele>41.64095</ele>
        <time>2022-12-17T15:08:37.456Z</time>
      </trkpt>
      <trkpt lat="46.84825" lon="-1.91223">
        <ele>41.658089</ele>
        <time>2022-12-17T15:08:39.423Z</time>
      </trkpt>
      <trkpt lat="46.84815" lon="-1.91231">
        <ele>41.674398</ele>
        <time>2022-12-17T15:08:41.416Z</time>
      </trkpt>
      <trkpt lat="46.84806" lon="-1.9124">
        <ele>41.691368</ele>
        <time>2022-12-17T15:08:43.434Z</time>
      </trkpt>
      <trkpt lat="46.84796" lon="-1.91249">
        <ele>41.707859</ele>
        <time>2022-12-17T15:08:45.421Z</time>
      </trkpt>
      <trkpt lat="46.84787" lon="-1.91258">
        <ele>41.724702</ele>
        <time>2022-12-17T15:08:47.442Z</time>
      </trkpt>
      <trkpt lat="46.84778" lon="-1.91266">
        <ele>41.740079</ele>
        <time>2022-12-17T15:08:49.426Z</time>
      </trkpt>
      <trkpt lat="46.84769" lon="-1.91274">
        <ele>41.755528</ele>
        <time>2022-12-17T15:08:51.422Z</time>
      </trkpt>
      <trkpt lat="46.84761" lon="-1.91281">
        <ele>41.76975</ele>
        <time>2022-12-17T15:08:53.431Z</time>
      </trkpt>
      <trkpt lat="46.84752" lon="-1.91289">
        <ele>41.785066</ele>
        <time>2022-12-17T15:08:55.422Z</time>
      </trkpt>
      <trkpt lat="46.84743" lon="-1.91295">
        <ele>41.799505</ele>
        <time>2022-12-17T15:08:57.423Z</time>
      </trkpt>
      <trkpt lat="46.84733" lon="-1.91302">
        <ele>41.815096</ele>
        <time>2022-12-17T15:08:59.424Z</time>
      </trkpt>
      <trkpt lat="46.84724" lon="-1.9131">
        <ele>41.89327</ele>
        <time>2022-12-17T15:09:01.437Z</time>
      </trkpt>
      <trkpt lat="46.84715" lon="-1.91318">
        <ele>41.996535</ele>
        <time>2022-12-17T15:09:03.425Z</time>
      </trkpt>
      <trkpt lat="46.84706" lon="-1.91325">
        <ele>42.10076</ele>
        <time>2022-12-17T15:09:05.423Z</time>
      </trkpt>
      <trkpt lat="46.84697" lon="-1.91332">
        <ele>42.204882</ele>
        <time>2022-12-17T15:09:07.420Z</time>
      </trkpt>
      <trkpt lat="46.84687" lon="-1.9134">
        <ele>42.313875</ele>
        <time>2022-12-17T15:09:09.422Z</time>
      </trkpt>
      <trkpt lat="46.84677" lon="-1.91347">
        <ele>42.425556</ele>
        <time>2022-12-17T15:09:11.429Z</time>
      </trkpt>
      <trkpt lat="46.84667" lon="-1.91355">
        <ele>42.535115</ele>
        <time>2022-12-17T15:09:13.418Z</time>
      </trkpt>
      <trkpt lat="46.84657" lon="-1.91363">
        <ele>42.643009</ele>
        <time>2022-12-17T15:09:15.429Z</time>
      </trkpt>
      <trkpt lat="46.84647" lon="-1.91371">
        <ele>42.757505</ele>
        <time>2022-12-17T15:09:17.431Z</time>
      </trkpt>
      <trkpt lat="46.84637" lon="-1.91378">
        <ele>42.86734</ele>
        <time>2022-12-17T15:09:19.427Z</time>
      </trkpt>
      <trkpt lat="46.84627" lon="-1.91385">
        <ele>42.977524</ele>
        <time>2022-12-17T15:09:21.424Z</time>
      </trkpt>
      <trkpt lat="46.84617" lon="-1.91393">
        <ele>43.089974</ele>
        <time>2022-12-17T15:09:23.430Z</time>
      </trkpt>
      <trkpt lat="46.84607" lon="-1.91402">
        <ele>43.20685</ele>
        <time>2022-12-17T15:09:25.424Z</time>
      </trkpt>
      <trkpt lat="46.84597" lon="-1.91409">
        <ele>43.314323</ele>
        <time>2022-12-17T15:09:27.450Z</time>
      </trkpt>
      <trkpt lat="46.84588" lon="-1.91415">
        <ele>43.416482</ele>
        <time>2022-12-17T15:09:29.439Z</time>
      </trkpt>
      <trkpt lat="46.84578" lon="-1.91424">
        <ele>43.525531</ele>
        <time>2022-12-17T15:09:31.423Z</time>
      </trkpt>
      <trkpt lat="46.8457" lon="-1.91431">
        <ele>43.601627</ele>
        <time>2022-12-17T15:09:33.434Z</time>
      </trkpt>
      <trkpt lat="46.8456" lon="-1.91439">
        <ele>43.634804</ele>
        <time>2022-12-17T15:09:35.436Z</time>
      </trkpt>
      <trkpt lat="46.8455" lon="-1.91447">
        <ele>43.668889</ele>
        <time>2022-12-17T15:09:37.425Z</time>
      </trkpt>
      <trkpt lat="46.8454" lon="-1.91454">
        <ele>43.703041</ele>
        <time>2022-12-17T15:09:39.428Z</time>
      </trkpt>
      <trkpt lat="46.8453" lon="-1.91462">
        <ele>43.736935</ele>
        <time>2022-12-17T15:09:41.451Z</time>
      </trkpt>
      <trkpt lat="46.8452" lon="-1.9147">
        <ele>43.771202</ele>
        <time>2022-12-17T15:09:43.428Z</time>
      </trkpt>
      <trkpt lat="46.8451" lon="-1.91478">
        <ele>43.804105</ele>
        <time>2022-12-17T15:09:45.432Z</time>
      </trkpt>
      <trkpt lat="46.84501" lon="-1.91486">
        <ele>43.837541</ele>
        <time>2022-12-17T15:09:47.445Z</time>
      </trkpt>
      <trkpt lat="46.8449" lon="-1.91494">
        <ele>43.872425</ele>
        <time>2022-12-17T15:09:49.429Z</time>
      </trkpt>
      <trkpt lat="46.84481" lon="-1.91502">
        <ele>43.906179</ele>
        <time>2022-12-17T15:09:51.435Z</time>
      </trkpt>
      <trkpt lat="46.8447" lon="-1.9151">
        <ele>43.941647</ele>
        <time>2022-12-17T15:09:53.431Z</time>
      </trkpt>
      <trkpt lat="46.84461" lon="-1.91518">
        <ele>43.974676</ele>
        <time>2022-12-17T15:09:55.426Z</time>
      </trkpt>
      <trkpt lat="46.84452" lon="-1.91525">
        <ele>44.005504</ele>
        <time>2022-12-17T15:09:57.445Z</time>
      </trkpt>
      <trkpt lat="46.84442" lon="-1.91533">
        <ele>44.038865</ele>
        <time>2022-12-17T15:09:59.427Z</time>
      </trkpt>
      <trkpt lat="46.84432" lon="-1.91541">
        <ele>44.071678</ele>
        <time>2022-12-17T15:10:01.426Z</time>
      </trkpt>
      <trkpt lat="46.84423" lon="-1.91548">
        <ele>44.103558</ele>
        <time>2022-12-17T15:10:03.425Z</time>
      </trkpt>
      <trkpt lat="46.84414" lon="-1.91556">
        <ele>44.127457</ele>
        <time>2022-12-17T15:10:05.426Z</time>
      </trkpt>
      <trkpt lat="46.84404" lon="-1.91564">
        <ele>44.080265</ele>
        <time>2022-12-17T15:10:07.426Z</time>
      </trkpt>
      <trkpt lat="46.84395" lon="-1.91572">
        <ele>44.037509</ele>
        <time>2022-12-17T15:10:09.427Z</time>
      </trkpt>
      <trkpt lat="46.84386" lon="-1.91578">
        <ele>43.994938</ele>
        <time>2022-12-17T15:10:11.434Z</time>
      </trkpt>
      <trkpt lat="46.84378" lon="-1.91584">
        <ele>43.957344</ele>
        <time>2022-12-17T15:10:13.432Z</time>
      </trkpt>
      <trkpt lat="46.84369" lon="-1.91591">
        <ele>43.918595</ele>
        <time>2022-12-17T15:10:15.426Z</time>
      </trkpt>
      <trkpt lat="46.84361" lon="-1.91598">
        <ele>43.879362</ele>
        <time>2022-12-17T15:10:17.423Z</time>
      </trkpt>
      <trkpt lat="46.84353" lon="-1.91604">
        <ele>43.838276</ele>
        <time>2022-12-17T15:10:19.428Z</time>
      </trkpt>
      <trkpt lat="46.84344" lon="-1.91611">
        <ele>43.797294</ele>
        <time>2022-12-17T15:10:21.429Z</time>
      </trkpt>
      <trkpt lat="46.84335" lon="-1.91618">
        <ele>43.756844</ele>
        <time>2022-12-17T15:10:23.440Z</time>
      </trkpt>
      <trkpt lat="46.84327" lon="-1.91624">
        <ele>43.717258</ele>
        <time>2022-12-17T15:10:25.440Z</time>
      </trkpt>
      <trkpt lat="46.84318" lon="-1.91631">
        <ele>43.676541</ele>
        <time>2022-12-17T15:10:27.431Z</time>
      </trkpt>
      <trkpt lat="46.8431" lon="-1.91637">
        <ele>43.638292</ele>
        <time>2022-12-17T15:10:29.430Z</time>
      </trkpt>
      <trkpt lat="46.84301" lon="-1.91645">
        <ele>43.59625</ele>
        <time>2022-12-17T15:10:31.444Z</time>
      </trkpt>
      <trkpt lat="46.84293" lon="-1.91652">
        <ele>43.554401</ele>
        <time>2022-12-17T15:10:33.454Z</time>
      </trkpt>
      <trkpt lat="46.84283" lon="-1.91659">
        <ele>43.511051</ele>
        <time>2022-12-17T15:10:35.437Z</time>
      </trkpt>
      <trkpt lat="46.84274" lon="-1.91666">
        <ele>43.469466</ele>
        <time>2022-12-17T15:10:37.428Z</time>
      </trkpt>
      <trkpt lat="46.84266" lon="-1.91673">
        <ele>43.42788</ele>
        <time>2022-12-17T15:10:39.431Z</time>
      </trkpt>
      <trkpt lat="46.84256" lon="-1.91679">
        <ele>43.385391</ele>
        <time>2022-12-17T15:10:41.446Z</time>
      </trkpt>
      <trkpt lat="46.84248" lon="-1.91687">
        <ele>43.393813</ele>
        <time>2022-12-17T15:10:43.426Z</time>
      </trkpt>
      <trkpt lat="46.8424" lon="-1.91693">
        <ele>43.402049</ele>
        <time>2022-12-17T15:10:45.426Z</time>
      </trkpt>
      <trkpt lat="46.84231" lon="-1.91699">
        <ele>43.410097</ele>
        <time>2022-12-17T15:10:47.428Z</time>
      </trkpt>
      <trkpt lat="46.84223" lon="-1.91706">
        <ele>43.418946</ele>
        <time>2022-12-17T15:10:49.431Z</time>
      </trkpt>
      <trkpt lat="46.84214" lon="-1.91713">
        <ele>43.427679</ele>
        <time>2022-12-17T15:10:51.451Z</time>
      </trkpt>
      <trkpt lat="46.84205" lon="-1.9172">
        <ele>43.436614</ele>
        <time>2022-12-17T15:10:53.428Z</time>
      </trkpt>
      <trkpt lat="46.84195" lon="-1.91727">
        <ele>43.44575</ele>
        <time>2022-12-17T15:10:55.436Z</time>
      </trkpt>
      <trkpt lat="46.84187" lon="-1.91734">
        <ele>43.454014</ele>
        <time>2022-12-17T15:10:57.446Z</time>
      </trkpt>
      <trkpt lat="46.84177" lon="-1.91741">
        <ele>43.463552</ele>
        <time>2022-12-17T15:10:59.448Z</time>
      </trkpt>
      <trkpt lat="46.84168" lon="-1.91749">
        <ele>43.472935</ele>
        <time>2022-12-17T15:11:01.435Z</time>
      </trkpt>
      <trkpt lat="46.84159" lon="-1.91756">
        <ele>43.482242</ele>
        <time>2022-12-17T15:11:03.429Z</time>
      </trkpt>
      <trkpt lat="46.84149" lon="-1.91764">
        <ele>43.491912</ele>
        <time>2022-12-17T15:11:05.435Z</time>
      </trkpt>
      <trkpt lat="46.84139" lon="-1.91772">
        <ele>43.502117</ele>
        <time>2022-12-17T15:11:07.452Z</time>
      </trkpt>
      <trkpt lat="46.84129" lon="-1.9178">
        <ele>43.511628</ele>
        <time>2022-12-17T15:11:09.429Z</time>
      </trkpt>
      <trkpt lat="46.8412" lon="-1.91789">
        <ele>43.521337</ele>
        <time>2022-12-17T15:11:11.429Z</time>
      </trkpt>
      <trkpt lat="46.8411" lon="-1.91797">
        <ele>43.531141</ele>
        <time>2022-12-17T15:11:13.428Z</time>
      </trkpt>
      <trkpt lat="46.84101" lon="-1.91803">
        <ele>43.539943</ele>
        <time>2022-12-17T15:11:15.432Z</time>
      </trkpt>
      <trkpt lat="46.84093" lon="-1.9181">
        <ele>43.534343</ele>
        <time>2022-12-17T15:11:17.437Z</time>
      </trkpt>
      <trkpt lat="46.84085" lon="-1.91817">
        <ele>43.523657</ele>
        <time>2022-12-17T15:11:19.433Z</time>
      </trkpt>
      <trkpt lat="46.84076" lon="-1.91823">
        <ele>43.511925</ele>
        <time>2022-12-17T15:11:21.429Z</time>
      </trkpt>
      <trkpt lat="46.84067" lon="-1.91831">
        <ele>43.499653</ele>
        <time>2022-12-17T15:11:23.435Z</time>
      </trkpt>
      <trkpt lat="46.84058" lon="-1.91838">
        <ele>43.487071</ele>
        <time>2022-12-17T15:11:25.446Z</time>
      </trkpt>
      <trkpt lat="46.84048" lon="-1.91845">
        <ele>43.47428</ele>
        <time>2022-12-17T15:11:27.430Z</time>
      </trkpt>
      <trkpt lat="46.84039" lon="-1.91853">
        <ele>43.461594</ele>
        <time>2022-12-17T15:11:29.433Z</time>
      </trkpt>
      <trkpt lat="46.84029" lon="-1.9186">
        <ele>43.449512</ele>
        <time>2022-12-17T15:11:31.430Z</time>
      </trkpt>
      <trkpt lat="46.8402" lon="-1.91868">
        <ele>43.436307</ele>
        <time>2022-12-17T15:11:33.431Z</time>
      </trkpt>
      <trkpt lat="46.84011" lon="-1.91874">
        <ele>43.424508</ele>
        <time>2022-12-17T15:11:35.433Z</time>
      </trkpt>
      <trkpt lat="46.84002" lon="-1.91881">
        <ele>43.412788</ele>
        <time>2022-12-17T15:11:37.430Z</time>
      </trkpt>
      <trkpt lat="46.83994" lon="-1.91888">
        <ele>43.401445</ele>
        <time>2022-12-17T15:11:39.431Z</time>
      </trkpt>
      <trkpt lat="46.83984" lon="-1.91895">
        <ele>43.389251</ele>
        <time>2022-12-17T15:11:41.448Z</time>
      </trkpt>
      <trkpt lat="46.83975" lon="-1.91902">
        <ele>43.376534</ele>
        <time>2022-12-17T15:11:43.449Z</time>
      </trkpt>
      <trkpt lat="46.83965" lon="-1.91909">
        <ele>43.36343</ele>
        <time>2022-12-17T15:11:45.449Z</time>
      </trkpt>
      <trkpt lat="46.83955" lon="-1.91916">
        <ele>43.35099</ele>
        <time>2022-12-17T15:11:47.437Z</time>
      </trkpt>
      <trkpt lat="46.83946" lon="-1.91924">
        <ele>43.338415</ele>
        <time>2022-12-17T15:11:49.439Z</time>
      </trkpt>
      <trkpt lat="46.83936" lon="-1.91931">
        <ele>43.296355</ele>
        <time>2022-12-17T15:11:51.445Z</time>
      </trkpt>
      <trkpt lat="46.83926" lon="-1.91937">
        <ele>43.199363</ele>
        <time>2022-12-17T15:11:53.428Z</time>
      </trkpt>
      <trkpt lat="46.83916" lon="-1.91944">
        <ele>43.098563</ele>
        <time>2022-12-17T15:11:55.426Z</time>
      </trkpt>
      <trkpt lat="46.83906" lon="-1.9195">
        <ele>43.005218</ele>
        <time>2022-12-17T15:11:57.426Z</time>
      </trkpt>
      <trkpt lat="46.83897" lon="-1.91955">
        <ele>42.918751</ele>
        <time>2022-12-17T15:11:59.451Z</time>
      </trkpt>
      <trkpt lat="46.83889" lon="-1.91961">
        <ele>42.836082</ele>
        <time>2022-12-17T15:12:01.428Z</time>
      </trkpt>
      <trkpt lat="46.8388" lon="-1.91967">
        <ele>42.752358</ele>
        <time>2022-12-17T15:12:03.438Z</time>
      </trkpt>
      <trkpt lat="46.83871" lon="-1.91971">
        <ele>42.669109</ele>
        <time>2022-12-17T15:12:05.436Z</time>
      </trkpt>
      <trkpt lat="46.83862" lon="-1.91976">
        <ele>42.586906</ele>
        <time>2022-12-17T15:12:07.422Z</time>
      </trkpt>
      <trkpt lat="46.83853" lon="-1.91981">
        <ele>42.49971</ele>
        <time>2022-12-17T15:12:09.429Z</time>
      </trkpt>
      <trkpt lat="46.83844" lon="-1.91987">
        <ele>42.41169</ele>
        <time>2022-12-17T15:12:11.438Z</time>
      </trkpt>
      <trkpt lat="46.83835" lon="-1.91992">
        <ele>42.324923</ele>
        <time>2022-12-17T15:12:13.424Z</time>
      </trkpt>
      <trkpt lat="46.83825" lon="-1.91996">
        <ele>42.236456</ele>
        <time>2022-12-17T15:12:15.431Z</time>
      </trkpt>
      <trkpt lat="46.83815" lon="-1.92001">
        <ele>42.143665</ele>
        <time>2022-12-17T15:12:17.429Z</time>
      </trkpt>
      <trkpt lat="46.83806" lon="-1.92005">
        <ele>42.060331</ele>
        <time>2022-12-17T15:12:19.425Z</time>
      </trkpt>
      <trkpt lat="46.83794" lon="-1.92011">
        <ele>41.943067</ele>
        <time>2022-12-17T15:12:22.426Z</time>
      </trkpt>
      <trkpt lat="46.83783" lon="-1.92016">
        <ele>41.846474</ele>
        <time>2022-12-17T15:12:25.424Z</time>
      </trkpt>
      <trkpt lat="46.83774" lon="-1.9202">
        <ele>41.763989</ele>
        <time>2022-12-17T15:12:28.428Z</time>
      </trkpt>
      <trkpt lat="46.83765" lon="-1.92024">
        <ele>41.746567</ele>
        <time>2022-12-17T15:12:31.425Z</time>
      </trkpt>
      <trkpt lat="46.83755" lon="-1.92029">
        <ele>41.756635</ele>
        <time>2022-12-17T15:12:34.426Z</time>
      </trkpt>
      <trkpt lat="46.83743" lon="-1.92035">
        <ele>41.767684</ele>
        <time>2022-12-17T15:12:37.428Z</time>
      </trkpt>
      <trkpt lat="46.83731" lon="-1.92039">
        <ele>41.779621</ele>
        <time>2022-12-17T15:12:40.429Z</time>
      </trkpt>
      <trkpt lat="46.83717" lon="-1.92043">
        <ele>41.792062</ele>
        <time>2022-12-17T15:12:43.429Z</time>
      </trkpt>
      <trkpt lat="46.83708" lon="-1.92047">
        <ele>41.800925</ele>
        <time>2022-12-17T15:12:45.428Z</time>
      </trkpt>
      <trkpt lat="46.83699" lon="-1.92051">
        <ele>41.809911</ele>
        <time>2022-12-17T15:12:47.449Z</time>
      </trkpt>
      <trkpt lat="46.83689" lon="-1.92055">
        <ele>41.819081</ele>
        <time>2022-12-17T15:12:49.436Z</time>
      </trkpt>
      <trkpt lat="46.8368" lon="-1.92058">
        <ele>41.827969</ele>
        <time>2022-12-17T15:12:51.427Z</time>
      </trkpt>
      <trkpt lat="46.8367" lon="-1.92061">
        <ele>41.836954</ele>
        <time>2022-12-17T15:12:53.434Z</time>
      </trkpt>
      <trkpt lat="46.8366" lon="-1.92064">
        <ele>41.846422</ele>
        <time>2022-12-17T15:12:55.432Z</time>
      </trkpt>
      <trkpt lat="46.83651" lon="-1.92068">
        <ele>41.855266</ele>
        <time>2022-12-17T15:12:57.432Z</time>
      </trkpt>
      <trkpt lat="46.83641" lon="-1.9207">
        <ele>41.864467</ele>
        <time>2022-12-17T15:12:59.432Z</time>
      </trkpt>
      <trkpt lat="46.83631" lon="-1.92073">
        <ele>41.873902</ele>
        <time>2022-12-17T15:13:01.425Z</time>
      </trkpt>
      <trkpt lat="46.8362" lon="-1.92075">
        <ele>41.883704</ele>
        <time>2022-12-17T15:13:03.425Z</time>
      </trkpt>
      <trkpt lat="46.83609" lon="-1.92077">
        <ele>41.89354</ele>
        <time>2022-12-17T15:13:05.427Z</time>
      </trkpt>
      <trkpt lat="46.83599" lon="-1.92079">
        <ele>41.903586</ele>
        <time>2022-12-17T15:13:07.441Z</time>
      </trkpt>
      <trkpt lat="46.83589" lon="-1.92081">
        <ele>41.85273</ele>
        <time>2022-12-17T15:13:09.423Z</time>
      </trkpt>
      <trkpt lat="46.8358" lon="-1.92083">
        <ele>41.787475</ele>
        <time>2022-12-17T15:13:11.428Z</time>
      </trkpt>
      <trkpt lat="46.83571" lon="-1.92085">
        <ele>41.725858</ele>
        <time>2022-12-17T15:13:13.443Z</time>
      </trkpt>
      <trkpt lat="46.83559" lon="-1.92088">
        <ele>41.644844</ele>
        <time>2022-12-17T15:13:16.428Z</time>
      </trkpt>
      <trkpt lat="46.83548" lon="-1.92093">
        <ele>41.564799</ele>
        <time>2022-12-17T15:13:19.437Z</time>
      </trkpt>
      <trkpt lat="46.83538" lon="-1.92093">
        <ele>41.496804</ele>
        <time>2022-12-17T15:13:23.430Z</time>
      </trkpt>
      <trkpt lat="46.83522" lon="-1.92077">
        <ele>41.370534</ele>
        <time>2022-12-17T15:14:22.434Z</time>
      </trkpt>
      <trkpt lat="46.83511" lon="-1.92074">
        <ele>41.29521</ele>
        <time>2022-12-17T15:14:25.447Z</time>
      </trkpt>
      <trkpt lat="46.83499" lon="-1.92076">
        <ele>41.209813</ele>
        <time>2022-12-17T15:14:28.445Z</time>
      </trkpt>
      <trkpt lat="46.8349" lon="-1.92076">
        <ele>41.147201</ele>
        <time>2022-12-17T15:14:30.448Z</time>
      </trkpt>
      <trkpt lat="46.83481" lon="-1.92077">
        <ele>41.084624</ele>
        <time>2022-12-17T15:14:32.430Z</time>
      </trkpt>
      <trkpt lat="46.83471" lon="-1.92078">
        <ele>41.016368</ele>
        <time>2022-12-17T15:14:34.428Z</time>
      </trkpt>
      <trkpt lat="46.8346" lon="-1.92079">
        <ele>40.946264</ele>
        <time>2022-12-17T15:14:36.461Z</time>
      </trkpt>
      <trkpt lat="46.83451" lon="-1.92078">
        <ele>40.880256</ele>
        <time>2022-12-17T15:14:38.449Z</time>
      </trkpt>
      <trkpt lat="46.83441" lon="-1.92079">
        <ele>40.818275</ele>
        <time>2022-12-17T15:14:40.430Z</time>
      </trkpt>
      <trkpt lat="46.83429" lon="-1.9208">
        <ele>40.730447</ele>
        <time>2022-12-17T15:14:43.432Z</time>
      </trkpt>
      <trkpt lat="46.83417" lon="-1.92081">
        <ele>40.698797</ele>
        <time>2022-12-17T15:14:46.452Z</time>
      </trkpt>
      <trkpt lat="46.83406" lon="-1.9208">
        <ele>40.74476</ele>
        <time>2022-12-17T15:14:49.422Z</time>
      </trkpt>
      <trkpt lat="46.83395" lon="-1.9208">
        <ele>40.791922</ele>
        <time>2022-12-17T15:14:52.426Z</time>
      </trkpt>
      <trkpt lat="46.83383" lon="-1.92079">
        <ele>40.837601</ele>
        <time>2022-12-17T15:14:55.453Z</time>
      </trkpt>
      <trkpt lat="46.83371" lon="-1.92079">
        <ele>40.88639</ele>
        <time>2022-12-17T15:14:58.454Z</time>
      </trkpt>
      <trkpt lat="46.83358" lon="-1.92082">
        <ele>40.940257</ele>
        <time>2022-12-17T15:15:01.428Z</time>
      </trkpt>
      <trkpt lat="46.83349" lon="-1.92083">
        <ele>40.979387</ele>
        <time>2022-12-17T15:15:03.464Z</time>
      </trkpt>
      <trkpt lat="46.83339" lon="-1.92083">
        <ele>41.019645</ele>
        <time>2022-12-17T15:15:05.445Z</time>
      </trkpt>
      <trkpt lat="46.83329" lon="-1.92082">
        <ele>41.059551</ele>
        <time>2022-12-17T15:15:07.428Z</time>
      </trkpt>
      <trkpt lat="46.8332" lon="-1.92083">
        <ele>41.096575</ele>
        <time>2022-12-17T15:15:09.427Z</time>
      </trkpt>
      <trkpt lat="46.83307" lon="-1.92082">
        <ele>41.149128</ele>
        <time>2022-12-17T15:15:12.428Z</time>
      </trkpt>
      <trkpt lat="46.83296" lon="-1.92079">
        <ele>41.193675</ele>
        <time>2022-12-17T15:15:15.453Z</time>
      </trkpt>
      <trkpt lat="46.83285" lon="-1.92077">
        <ele>41.238892</ele>
        <time>2022-12-17T15:15:19.425Z</time>
      </trkpt>
      <trkpt lat="46.83278" lon="-1.92066">
        <ele>41.279388</ele>
        <time>2022-12-17T15:15:26.428Z</time>
      </trkpt>
      <trkpt lat="46.8327" lon="-1.92057">
        <ele>41.320912</ele>
        <time>2022-12-17T15:15:33.431Z</time>
      </trkpt>
      <trkpt lat="46.83263" lon="-1.9207">
        <ele>41.365717</ele>
        <time>2022-12-17T15:15:39.424Z</time>
      </trkpt>
      <trkpt lat="46.83262" lon="-1.92083">
        <ele>41.402531</ele>
        <time>2022-12-17T15:15:42.442Z</time>
      </trkpt>
      <trkpt lat="46.83259" lon="-1.921">
        <ele>41.511841</ele>
        <time>2022-12-17T15:15:46.417Z</time>
      </trkpt>
      <trkpt lat="46.83257" lon="-1.92114">
        <ele>41.624989</ele>
        <time>2022-12-17T15:15:49.422Z</time>
      </trkpt>
      <trkpt lat="46.83255" lon="-1.92131">
        <ele>41.748315</ele>
        <time>2022-12-17T15:15:52.431Z</time>
      </trkpt>
      <trkpt lat="46.83253" lon="-1.92147">
        <ele>41.876384</ele>
        <time>2022-12-17T15:15:55.419Z</time>
      </trkpt>
      <trkpt lat="46.83249" lon="-1.92164">
        <ele>42.011489</ele>
        <time>2022-12-17T15:15:58.440Z</time>
      </trkpt>
      <trkpt lat="46.83246" lon="-1.92181">
        <ele>42.144452</ele>
        <time>2022-12-17T15:16:01.423Z</time>
      </trkpt>
      <trkpt lat="46.83242" lon="-1.92198">
        <ele>42.278123</ele>
        <time>2022-12-17T15:16:04.429Z</time>
      </trkpt>
      <trkpt lat="46.8324" lon="-1.92214">
        <ele>42.399833</ele>
        <time>2022-12-17T15:16:07.425Z</time>
      </trkpt>
      <trkpt lat="46.83237" lon="-1.92228">
        <ele>42.508704</ele>
        <time>2022-12-17T15:16:10.431Z</time>
      </trkpt>
      <trkpt lat="46.83235" lon="-1.92243">
        <ele>42.623645</ele>
        <time>2022-12-17T15:16:13.429Z</time>
      </trkpt>
      <trkpt lat="46.83233" lon="-1.9226">
        <ele>42.757608</ele>
        <time>2022-12-17T15:16:16.426Z</time>
      </trkpt>
      <trkpt lat="46.8323" lon="-1.92278">
        <ele>42.893356</ele>
        <time>2022-12-17T15:16:19.424Z</time>
      </trkpt>
      <trkpt lat="46.83227" lon="-1.92296">
        <ele>43.034943</ele>
        <time>2022-12-17T15:16:22.429Z</time>
      </trkpt>
      <trkpt lat="46.83223" lon="-1.92315">
        <ele>43.18567</ele>
        <time>2022-12-17T15:16:25.426Z</time>
      </trkpt>
      <trkpt lat="46.83221" lon="-1.92328">
        <ele>43.286691</ele>
        <time>2022-12-17T15:16:27.430Z</time>
      </trkpt>
      <trkpt lat="46.83218" lon="-1.92341">
        <ele>43.390616</ele>
        <time>2022-12-17T15:16:29.425Z</time>
      </trkpt>
      <trkpt lat="46.83216" lon="-1.92355">
        <ele>43.397001</ele>
        <time>2022-12-17T15:16:31.434Z</time>
      </trkpt>
      <trkpt lat="46.83214" lon="-1.92368">
        <ele>43.399411</ele>
        <time>2022-12-17T15:16:33.428Z</time>
      </trkpt>
      <trkpt lat="46.83212" lon="-1.92381">
        <ele>43.401965</ele>
        <time>2022-12-17T15:16:35.429Z</time>
      </trkpt>
      <trkpt lat="46.8321" lon="-1.92395">
        <ele>43.404601</ele>
        <time>2022-12-17T15:16:37.446Z</time>
      </trkpt>
      <trkpt lat="46.83207" lon="-1.9241">
        <ele>43.407375</ele>
        <time>2022-12-17T15:16:39.441Z</time>
      </trkpt>
      <trkpt lat="46.83204" lon="-1.92424">
        <ele>43.410024</ele>
        <time>2022-12-17T15:16:41.430Z</time>
      </trkpt>
      <trkpt lat="46.83202" lon="-1.92438">
        <ele>43.41266</ele>
        <time>2022-12-17T15:16:43.452Z</time>
      </trkpt>
      <trkpt lat="46.83199" lon="-1.92451">
        <ele>43.415233</ele>
        <time>2022-12-17T15:16:45.435Z</time>
      </trkpt>
      <trkpt lat="46.83196" lon="-1.92465">
        <ele>43.417814</ele>
        <time>2022-12-17T15:16:47.438Z</time>
      </trkpt>
      <trkpt lat="46.83193" lon="-1.92479">
        <ele>43.420613</ele>
        <time>2022-12-17T15:16:49.436Z</time>
      </trkpt>
      <trkpt lat="46.8319" lon="-1.92494">
        <ele>43.423457</ele>
        <time>2022-12-17T15:16:51.421Z</time>
      </trkpt>
      <trkpt lat="46.83187" lon="-1.92509">
        <ele>43.426248</ele>
        <time>2022-12-17T15:16:53.430Z</time>
      </trkpt>
      <trkpt lat="46.83185" lon="-1.92523">
        <ele>43.428964</ele>
        <time>2022-12-17T15:16:55.432Z</time>
      </trkpt>
      <trkpt lat="46.83182" lon="-1.92538">
        <ele>43.431821</ele>
        <time>2022-12-17T15:16:57.425Z</time>
      </trkpt>
      <trkpt lat="46.83179" lon="-1.92553">
        <ele>43.43468</ele>
        <time>2022-12-17T15:16:59.427Z</time>
      </trkpt>
      <trkpt lat="46.83177" lon="-1.92566">
        <ele>43.437135</ele>
        <time>2022-12-17T15:17:01.431Z</time>
      </trkpt>
      <trkpt lat="46.83176" lon="-1.9258">
        <ele>43.439625</ele>
        <time>2022-12-17T15:17:03.425Z</time>
      </trkpt>
      <trkpt lat="46.83173" lon="-1.92593">
        <ele>43.44209</ele>
        <time>2022-12-17T15:17:05.428Z</time>
      </trkpt>
      <trkpt lat="46.8317" lon="-1.92611">
        <ele>43.508871</ele>
        <time>2022-12-17T15:17:08.433Z</time>
      </trkpt>
      <trkpt lat="46.83167" lon="-1.9263">
        <ele>43.592351</ele>
        <time>2022-12-17T15:17:11.426Z</time>
      </trkpt>
      <trkpt lat="46.83164" lon="-1.92643">
        <ele>43.649422</ele>
        <time>2022-12-17T15:17:13.435Z</time>
      </trkpt>
      <trkpt lat="46.83162" lon="-1.92657">
        <ele>43.707943</ele>
        <time>2022-12-17T15:17:15.428Z</time>
      </trkpt>
      <trkpt lat="46.83159" lon="-1.92671">
        <ele>43.769214</ele>
        <time>2022-12-17T15:17:17.427Z</time>
      </trkpt>
      <trkpt lat="46.83156" lon="-1.92685">
        <ele>43.833061</ele>
        <time>2022-12-17T15:17:19.428Z</time>
      </trkpt>
      <trkpt lat="46.83153" lon="-1.927">
        <ele>43.898467</ele>
        <time>2022-12-17T15:17:21.425Z</time>
      </trkpt>
      <trkpt lat="46.83151" lon="-1.92715">
        <ele>43.962606</ele>
        <time>2022-12-17T15:17:23.448Z</time>
      </trkpt>
      <trkpt lat="46.83147" lon="-1.9273">
        <ele>44.029438</ele>
        <time>2022-12-17T15:17:25.448Z</time>
      </trkpt>
      <trkpt lat="46.83144" lon="-1.92744">
        <ele>44.092914</ele>
        <time>2022-12-17T15:17:27.426Z</time>
      </trkpt>
      <trkpt lat="46.83142" lon="-1.92759">
        <ele>44.156284</ele>
        <time>2022-12-17T15:17:29.454Z</time>
      </trkpt>
      <trkpt lat="46.83139" lon="-1.92774">
        <ele>44.219739</ele>
        <time>2022-12-17T15:17:31.428Z</time>
      </trkpt>
      <trkpt lat="46.83136" lon="-1.92788">
        <ele>44.285235</ele>
        <time>2022-12-17T15:17:33.428Z</time>
      </trkpt>
      <trkpt lat="46.83133" lon="-1.92804">
        <ele>44.353689</ele>
        <time>2022-12-17T15:17:35.430Z</time>
      </trkpt>
      <trkpt lat="46.8313" lon="-1.9282">
        <ele>44.423984</ele>
        <time>2022-12-17T15:17:37.427Z</time>
      </trkpt>
      <trkpt lat="46.83127" lon="-1.92836">
        <ele>44.495571</ele>
        <time>2022-12-17T15:17:39.425Z</time>
      </trkpt>
      <trkpt lat="46.83124" lon="-1.92853">
        <ele>44.5322</ele>
        <time>2022-12-17T15:17:41.440Z</time>
      </trkpt>
      <trkpt lat="46.8312" lon="-1.92869">
        <ele>44.446412</ele>
        <time>2022-12-17T15:17:43.432Z</time>
      </trkpt>
      <trkpt lat="46.83117" lon="-1.92884">
        <ele>44.364439</ele>
        <time>2022-12-17T15:17:45.439Z</time>
      </trkpt>
      <trkpt lat="46.83114" lon="-1.929">
        <ele>44.285436</ele>
        <time>2022-12-17T15:17:47.444Z</time>
      </trkpt>
      <trkpt lat="46.83112" lon="-1.92914">
        <ele>44.211694</ele>
        <time>2022-12-17T15:17:49.436Z</time>
      </trkpt>
      <trkpt lat="46.83109" lon="-1.92928">
        <ele>44.138497</ele>
        <time>2022-12-17T15:17:51.424Z</time>
      </trkpt>
      <trkpt lat="46.83107" lon="-1.92941">
        <ele>44.068647</ele>
        <time>2022-12-17T15:17:53.427Z</time>
      </trkpt>
      <trkpt lat="46.83102" lon="-1.92959">
        <ele>43.972226</ele>
        <time>2022-12-17T15:17:56.425Z</time>
      </trkpt>
      <trkpt lat="46.83098" lon="-1.92977">
        <ele>43.87801</ele>
        <time>2022-12-17T15:17:59.449Z</time>
      </trkpt>
      <trkpt lat="46.83095" lon="-1.92995">
        <ele>43.780851</ele>
        <time>2022-12-17T15:18:02.426Z</time>
      </trkpt>
      <trkpt lat="46.83093" lon="-1.93009">
        <ele>43.709954</ele>
        <time>2022-12-17T15:18:04.425Z</time>
      </trkpt>
      <trkpt lat="46.83091" lon="-1.93022">
        <ele>43.642147</ele>
        <time>2022-12-17T15:18:06.448Z</time>
      </trkpt>
      <trkpt lat="46.83089" lon="-1.93036">
        <ele>43.572068</ele>
        <time>2022-12-17T15:18:08.431Z</time>
      </trkpt>
      <trkpt lat="46.83086" lon="-1.93049">
        <ele>43.499443</ele>
        <time>2022-12-17T15:18:10.426Z</time>
      </trkpt>
      <trkpt lat="46.83083" lon="-1.93064">
        <ele>43.423949</ele>
        <time>2022-12-17T15:18:12.425Z</time>
      </trkpt>
      <trkpt lat="46.8308" lon="-1.93079">
        <ele>43.342674</ele>
        <time>2022-12-17T15:18:14.447Z</time>
      </trkpt>
      <trkpt lat="46.83078" lon="-1.93094">
        <ele>43.263373</ele>
        <time>2022-12-17T15:18:16.425Z</time>
      </trkpt>
      <trkpt lat="46.83075" lon="-1.9311">
        <ele>43.246565</ele>
        <time>2022-12-17T15:18:18.425Z</time>
      </trkpt>
      <trkpt lat="46.83072" lon="-1.93127">
        <ele>43.294814</ele>
        <time>2022-12-17T15:18:20.424Z</time>
      </trkpt>
      <trkpt lat="46.83069" lon="-1.93143">
        <ele>43.341568</ele>
        <time>2022-12-17T15:18:22.426Z</time>
      </trkpt>
      <trkpt lat="46.83066" lon="-1.9316">
        <ele>43.389423</ele>
        <time>2022-12-17T15:18:24.435Z</time>
      </trkpt>
      <trkpt lat="46.83062" lon="-1.93174">
        <ele>43.431576</ele>
        <time>2022-12-17T15:18:26.430Z</time>
      </trkpt>
      <trkpt lat="46.8306" lon="-1.93189">
        <ele>43.475224</ele>
        <time>2022-12-17T15:18:28.438Z</time>
      </trkpt>
      <trkpt lat="46.83058" lon="-1.93204">
        <ele>43.516889</ele>
        <time>2022-12-17T15:18:30.434Z</time>
      </trkpt>
      <trkpt lat="46.83056" lon="-1.93218">
        <ele>43.556221</ele>
        <time>2022-12-17T15:18:32.426Z</time>
      </trkpt>
      <trkpt lat="46.83053" lon="-1.93232">
        <ele>43.596279</ele>
        <time>2022-12-17T15:18:34.436Z</time>
      </trkpt>
      <trkpt lat="46.8305" lon="-1.93246">
        <ele>43.637502</ele>
        <time>2022-12-17T15:18:36.428Z</time>
      </trkpt>
      <trkpt lat="46.83048" lon="-1.93261">
        <ele>43.679443</ele>
        <time>2022-12-17T15:18:38.451Z</time>
      </trkpt>
      <trkpt lat="46.83045" lon="-1.93276">
        <ele>43.721895</ele>
        <time>2022-12-17T15:18:40.439Z</time>
      </trkpt>
      <trkpt lat="46.83042" lon="-1.9329">
        <ele>43.763281</ele>
        <time>2022-12-17T15:18:42.429Z</time>
      </trkpt>
      <trkpt lat="46.8304" lon="-1.93305">
        <ele>43.806051</ele>
        <time>2022-12-17T15:18:44.442Z</time>
      </trkpt>
      <trkpt lat="46.83036" lon="-1.9332">
        <ele>43.850953</ele>
        <time>2022-12-17T15:18:46.429Z</time>
      </trkpt>
      <trkpt lat="46.83033" lon="-1.93335">
        <ele>43.894698</ele>
        <time>2022-12-17T15:18:48.438Z</time>
      </trkpt>
      <trkpt lat="46.8303" lon="-1.93351">
        <ele>43.938913</ele>
        <time>2022-12-17T15:18:50.437Z</time>
      </trkpt>
      <trkpt lat="46.83027" lon="-1.93366">
        <ele>43.954669</ele>
        <time>2022-12-17T15:18:52.429Z</time>
      </trkpt>
      <trkpt lat="46.83024" lon="-1.93382">
        <ele>43.956785</ele>
        <time>2022-12-17T15:18:54.432Z</time>
      </trkpt>
      <trkpt lat="46.83021" lon="-1.93398">
        <ele>43.95886</ele>
        <time>2022-12-17T15:18:56.429Z</time>
      </trkpt>
      <trkpt lat="46.83018" lon="-1.93415">
        <ele>43.961022</ele>
        <time>2022-12-17T15:18:58.430Z</time>
      </trkpt>
      <trkpt lat="46.83015" lon="-1.93431">
        <ele>43.963172</ele>
        <time>2022-12-17T15:19:00.429Z</time>
      </trkpt>
      <trkpt lat="46.83012" lon="-1.93446">
        <ele>43.965238</ele>
        <time>2022-12-17T15:19:02.428Z</time>
      </trkpt>
      <trkpt lat="46.83009" lon="-1.93461">
        <ele>43.967257</ele>
        <time>2022-12-17T15:19:04.453Z</time>
      </trkpt>
      <trkpt lat="46.83006" lon="-1.93477">
        <ele>43.969281</ele>
        <time>2022-12-17T15:19:06.433Z</time>
      </trkpt>
      <trkpt lat="46.83004" lon="-1.93492">
        <ele>43.971285</ele>
        <time>2022-12-17T15:19:08.450Z</time>
      </trkpt>
      <trkpt lat="46.83001" lon="-1.93507">
        <ele>43.973272</ele>
        <time>2022-12-17T15:19:10.430Z</time>
      </trkpt>
      <trkpt lat="46.82998" lon="-1.93523">
        <ele>43.975356</ele>
        <time>2022-12-17T15:19:12.444Z</time>
      </trkpt>
      <trkpt lat="46.82995" lon="-1.93538">
        <ele>43.977372</ele>
        <time>2022-12-17T15:19:14.436Z</time>
      </trkpt>
      <trkpt lat="46.82992" lon="-1.93554">
        <ele>43.979426</ele>
        <time>2022-12-17T15:19:16.430Z</time>
      </trkpt>
      <trkpt lat="46.82989" lon="-1.93569">
        <ele>43.981439</ele>
        <time>2022-12-17T15:19:18.432Z</time>
      </trkpt>
      <trkpt lat="46.82987" lon="-1.93584">
        <ele>43.983411</ele>
        <time>2022-12-17T15:19:20.429Z</time>
      </trkpt>
      <trkpt lat="46.82984" lon="-1.93598">
        <ele>43.985329</ele>
        <time>2022-12-17T15:19:22.450Z</time>
      </trkpt>
      <trkpt lat="46.82981" lon="-1.93612">
        <ele>43.981035</ele>
        <time>2022-12-17T15:19:24.433Z</time>
      </trkpt>
      <trkpt lat="46.82979" lon="-1.93625">
        <ele>43.9588</ele>
        <time>2022-12-17T15:19:26.447Z</time>
      </trkpt>
      <trkpt lat="46.82976" lon="-1.93638">
        <ele>43.936004</ele>
        <time>2022-12-17T15:19:28.437Z</time>
      </trkpt>
      <trkpt lat="46.82973" lon="-1.93651">
        <ele>43.913847</ele>
        <time>2022-12-17T15:19:30.457Z</time>
      </trkpt>
      <trkpt lat="46.82971" lon="-1.93664">
        <ele>43.891397</ele>
        <time>2022-12-17T15:19:32.422Z</time>
      </trkpt>
      <trkpt lat="46.82969" lon="-1.93677">
        <ele>43.868193</ele>
        <time>2022-12-17T15:19:34.467Z</time>
      </trkpt>
      <trkpt lat="46.82966" lon="-1.93691">
        <ele>43.84541</ele>
        <time>2022-12-17T15:19:36.442Z</time>
      </trkpt>
      <trkpt lat="46.82964" lon="-1.93704">
        <ele>43.821469</ele>
        <time>2022-12-17T15:19:38.423Z</time>
      </trkpt>
      <trkpt lat="46.82961" lon="-1.93718">
        <ele>43.797333</ele>
        <time>2022-12-17T15:19:40.448Z</time>
      </trkpt>
      <trkpt lat="46.82958" lon="-1.93733">
        <ele>43.771835</ele>
        <time>2022-12-17T15:19:42.429Z</time>
      </trkpt>
      <trkpt lat="46.82955" lon="-1.93748">
        <ele>43.746017</ele>
        <time>2022-12-17T15:19:44.443Z</time>
      </trkpt>
      <trkpt lat="46.82953" lon="-1.93763">
        <ele>43.719925</ele>
        <time>2022-12-17T15:19:46.438Z</time>
      </trkpt>
      <trkpt lat="46.8295" lon="-1.93778">
        <ele>43.693876</ele>
        <time>2022-12-17T15:19:48.431Z</time>
      </trkpt>
      <trkpt lat="46.82947" lon="-1.93791">
        <ele>43.670528</ele>
        <time>2022-12-17T15:19:50.457Z</time>
      </trkpt>
      <trkpt lat="46.82945" lon="-1.93805">
        <ele>43.647403</ele>
        <time>2022-12-17T15:19:52.443Z</time>
      </trkpt>
      <trkpt lat="46.82942" lon="-1.93818">
        <ele>43.624288</ele>
        <time>2022-12-17T15:19:54.442Z</time>
      </trkpt>
      <trkpt lat="46.82939" lon="-1.93835">
        <ele>43.594182</ele>
        <time>2022-12-17T15:19:57.425Z</time>
      </trkpt>
      <trkpt lat="46.82936" lon="-1.93852">
        <ele>43.565464</ele>
        <time>2022-12-17T15:20:00.428Z</time>
      </trkpt>
      <trkpt lat="46.82932" lon="-1.93869">
        <ele>43.53575</ele>
        <time>2022-12-17T15:20:03.424Z</time>
      </trkpt>
      <trkpt lat="46.82928" lon="-1.93886">
        <ele>43.50691</ele>
        <time>2022-12-17T15:20:06.429Z</time>
      </trkpt>
      <trkpt lat="46.82925" lon="-1.93904">
        <ele>43.477154</ele>
        <time>2022-12-17T15:20:09.428Z</time>
      </trkpt>
      <trkpt lat="46.82922" lon="-1.93917">
        <ele>43.455301</ele>
        <time>2022-12-17T15:20:11.430Z</time>
      </trkpt>
      <trkpt lat="46.8292" lon="-1.9393">
        <ele>43.433323</ele>
        <time>2022-12-17T15:20:13.427Z</time>
      </trkpt>
      <trkpt lat="46.82917" lon="-1.93944">
        <ele>43.410446</ele>
        <time>2022-12-17T15:20:15.426Z</time>
      </trkpt>
      <trkpt lat="46.82915" lon="-1.93958">
        <ele>43.387664</ele>
        <time>2022-12-17T15:20:17.427Z</time>
      </trkpt>
      <trkpt lat="46.82912" lon="-1.93972">
        <ele>43.363693</ele>
        <time>2022-12-17T15:20:19.424Z</time>
      </trkpt>
      <trkpt lat="46.8291" lon="-1.93986">
        <ele>43.340852</ele>
        <time>2022-12-17T15:20:21.427Z</time>
      </trkpt>
      <trkpt lat="46.82907" lon="-1.94001">
        <ele>43.317178</ele>
        <time>2022-12-17T15:20:23.438Z</time>
      </trkpt>
      <trkpt lat="46.82905" lon="-1.94015">
        <ele>43.293905</ele>
        <time>2022-12-17T15:20:25.427Z</time>
      </trkpt>
      <trkpt lat="46.82902" lon="-1.94028">
        <ele>43.271836</ele>
        <time>2022-12-17T15:20:27.428Z</time>
      </trkpt>
      <trkpt lat="46.829" lon="-1.94041">
        <ele>43.249613</ele>
        <time>2022-12-17T15:20:29.423Z</time>
      </trkpt>
      <trkpt lat="46.82895" lon="-1.9406">
        <ele>43.218804</ele>
        <time>2022-12-17T15:20:32.448Z</time>
      </trkpt>
      <trkpt lat="46.82894" lon="-1.94073">
        <ele>43.197115</ele>
        <time>2022-12-17T15:20:34.426Z</time>
      </trkpt>
      <trkpt lat="46.82892" lon="-1.94086">
        <ele>43.175355</ele>
        <time>2022-12-17T15:20:36.426Z</time>
      </trkpt>
      <trkpt lat="46.8289" lon="-1.94099">
        <ele>43.154085</ele>
        <time>2022-12-17T15:20:38.429Z</time>
      </trkpt>
      <trkpt lat="46.82888" lon="-1.94113">
        <ele>43.130621</ele>
        <time>2022-12-17T15:20:40.425Z</time>
      </trkpt>
      <trkpt lat="46.82885" lon="-1.94128">
        <ele>43.067975</ele>
        <time>2022-12-17T15:20:42.425Z</time>
      </trkpt>
      <trkpt lat="46.82882" lon="-1.94142">
        <ele>42.998657</ele>
        <time>2022-12-17T15:20:44.430Z</time>
      </trkpt>
      <trkpt lat="46.8288" lon="-1.94157">
        <ele>42.928704</ele>
        <time>2022-12-17T15:20:46.430Z</time>
      </trkpt>
      <trkpt lat="46.82876" lon="-1.94172">
        <ele>42.855966</ele>
        <time>2022-12-17T15:20:48.429Z</time>
      </trkpt>
      <trkpt lat="46.82873" lon="-1.94185">
        <ele>42.788978</ele>
        <time>2022-12-17T15:20:50.428Z</time>
      </trkpt>
      <trkpt lat="46.82871" lon="-1.94201">
        <ele>42.712893</ele>
        <time>2022-12-17T15:20:52.426Z</time>
      </trkpt>
      <trkpt lat="46.82868" lon="-1.94216">
        <ele>42.638633</ele>
        <time>2022-12-17T15:20:54.426Z</time>
      </trkpt>
      <trkpt lat="46.82864" lon="-1.94231">
        <ele>42.564085</ele>
        <time>2022-12-17T15:20:56.425Z</time>
      </trkpt>
      <trkpt lat="46.8286" lon="-1.94246">
        <ele>42.492235</ele>
        <time>2022-12-17T15:20:58.449Z</time>
      </trkpt>
      <trkpt lat="46.82857" lon="-1.9426">
        <ele>42.420385</ele>
        <time>2022-12-17T15:21:00.436Z</time>
      </trkpt>
      <trkpt lat="46.82855" lon="-1.94274">
        <ele>42.35385</ele>
        <time>2022-12-17T15:21:02.454Z</time>
      </trkpt>
      <trkpt lat="46.82853" lon="-1.94287">
        <ele>42.290818</ele>
        <time>2022-12-17T15:21:04.450Z</time>
      </trkpt>
      <trkpt lat="46.82849" lon="-1.94305">
        <ele>42.203187</ele>
        <time>2022-12-17T15:21:07.426Z</time>
      </trkpt>
      <trkpt lat="46.82846" lon="-1.94322">
        <ele>42.123947</ele>
        <time>2022-12-17T15:21:10.450Z</time>
      </trkpt>
      <trkpt lat="46.82842" lon="-1.94337">
        <ele>42.048784</ele>
        <time>2022-12-17T15:21:13.434Z</time>
      </trkpt>
      <trkpt lat="46.8284" lon="-1.94351">
        <ele>41.981206</ele>
        <time>2022-12-17T15:21:16.421Z</time>
      </trkpt>
      <trkpt lat="46.82838" lon="-1.94365">
        <ele>41.914181</ele>
        <time>2022-12-17T15:21:19.420Z</time>
      </trkpt>
      <trkpt lat="46.82836" lon="-1.94379">
        <ele>41.924845</ele>
        <time>2022-12-17T15:21:22.427Z</time>
      </trkpt>
      <trkpt lat="46.82834" lon="-1.94392">
        <ele>41.958942</ele>
        <time>2022-12-17T15:21:26.420Z</time>
      </trkpt>
      <trkpt lat="46.82831" lon="-1.94405">
        <ele>41.995685</ele>
        <time>2022-12-17T15:21:34.426Z</time>
      </trkpt>
      <trkpt lat="46.82825" lon="-1.94427">
        <ele>42.056154</ele>
        <time>2022-12-17T15:22:59.446Z</time>
      </trkpt>
      <trkpt lat="46.82823" lon="-1.94444">
        <ele>42.098995</ele>
        <time>2022-12-17T15:23:03.426Z</time>
      </trkpt>
      <trkpt lat="46.8282" lon="-1.94458">
        <ele>42.137413</ele>
        <time>2022-12-17T15:23:06.426Z</time>
      </trkpt>
      <trkpt lat="46.82818" lon="-1.94475">
        <ele>42.180942</ele>
        <time>2022-12-17T15:23:09.436Z</time>
      </trkpt>
      <trkpt lat="46.82814" lon="-1.94493">
        <ele>42.228652</ele>
        <time>2022-12-17T15:23:12.430Z</time>
      </trkpt>
      <trkpt lat="46.82811" lon="-1.94511">
        <ele>42.277702</ele>
        <time>2022-12-17T15:23:15.443Z</time>
      </trkpt>
      <trkpt lat="46.82808" lon="-1.9453">
        <ele>42.326698</ele>
        <time>2022-12-17T15:23:18.443Z</time>
      </trkpt>
      <trkpt lat="46.82804" lon="-1.94549">
        <ele>42.376151</ele>
        <time>2022-12-17T15:23:21.429Z</time>
      </trkpt>
      <trkpt lat="46.82802" lon="-1.94562">
        <ele>42.411912</ele>
        <time>2022-12-17T15:23:23.435Z</time>
      </trkpt>
      <trkpt lat="46.82798" lon="-1.94581">
        <ele>42.461746</ele>
        <time>2022-12-17T15:23:26.428Z</time>
      </trkpt>
      <trkpt lat="46.82796" lon="-1.94595">
        <ele>42.49814</ele>
        <time>2022-12-17T15:23:28.430Z</time>
      </trkpt>
      <trkpt lat="46.82793" lon="-1.94608">
        <ele>42.53413</ele>
        <time>2022-12-17T15:23:30.449Z</time>
      </trkpt>
      <trkpt lat="46.82791" lon="-1.94621">
        <ele>42.568315</ele>
        <time>2022-12-17T15:23:32.427Z</time>
      </trkpt>
      <trkpt lat="46.82788" lon="-1.94634">
        <ele>42.559435</ele>
        <time>2022-12-17T15:23:34.419Z</time>
      </trkpt>
      <trkpt lat="46.82786" lon="-1.94648">
        <ele>42.549575</ele>
        <time>2022-12-17T15:23:36.429Z</time>
      </trkpt>
      <trkpt lat="46.82783" lon="-1.94668">
        <ele>42.534766</ele>
        <time>2022-12-17T15:23:39.433Z</time>
      </trkpt>
      <trkpt lat="46.82781" lon="-1.94682">
        <ele>42.524578</ele>
        <time>2022-12-17T15:23:41.432Z</time>
      </trkpt>
      <trkpt lat="46.82778" lon="-1.94695">
        <ele>42.514513</ele>
        <time>2022-12-17T15:23:43.440Z</time>
      </trkpt>
      <trkpt lat="46.82775" lon="-1.94709">
        <ele>42.504418</ele>
        <time>2022-12-17T15:23:45.426Z</time>
      </trkpt>
      <trkpt lat="46.82773" lon="-1.94724">
        <ele>42.49327</ele>
        <time>2022-12-17T15:23:47.430Z</time>
      </trkpt>
      <trkpt lat="46.82769" lon="-1.94738">
        <ele>42.482049</ele>
        <time>2022-12-17T15:23:49.428Z</time>
      </trkpt>
      <trkpt lat="46.82767" lon="-1.94753">
        <ele>42.47097</ele>
        <time>2022-12-17T15:23:51.430Z</time>
      </trkpt>
      <trkpt lat="46.82764" lon="-1.94769">
        <ele>42.459613</ele>
        <time>2022-12-17T15:23:53.426Z</time>
      </trkpt>
      <trkpt lat="46.82761" lon="-1.94784">
        <ele>42.448447</ele>
        <time>2022-12-17T15:23:55.430Z</time>
      </trkpt>
      <trkpt lat="46.82758" lon="-1.94798">
        <ele>42.437352</ele>
        <time>2022-12-17T15:23:57.431Z</time>
      </trkpt>
      <trkpt lat="46.82756" lon="-1.94814">
        <ele>42.426135</ele>
        <time>2022-12-17T15:23:59.427Z</time>
      </trkpt>
      <trkpt lat="46.82753" lon="-1.94828">
        <ele>42.415361</ele>
        <time>2022-12-17T15:24:01.445Z</time>
      </trkpt>
      <trkpt lat="46.8275" lon="-1.94843">
        <ele>42.404236</ele>
        <time>2022-12-17T15:24:03.434Z</time>
      </trkpt>
      <trkpt lat="46.82747" lon="-1.94858">
        <ele>42.392853</ele>
        <time>2022-12-17T15:24:05.426Z</time>
      </trkpt>
      <trkpt lat="46.82744" lon="-1.94873">
        <ele>42.38159</ele>
        <time>2022-12-17T15:24:07.428Z</time>
      </trkpt>
      <trkpt lat="46.82741" lon="-1.94888">
        <ele>42.398055</ele>
        <time>2022-12-17T15:24:09.435Z</time>
      </trkpt>
      <trkpt lat="46.82738" lon="-1.94903">
        <ele>42.418828</ele>
        <time>2022-12-17T15:24:11.428Z</time>
      </trkpt>
      <trkpt lat="46.82736" lon="-1.94918">
        <ele>42.438413</ele>
        <time>2022-12-17T15:24:13.435Z</time>
      </trkpt>
      <trkpt lat="46.82733" lon="-1.94933">
        <ele>42.459134</ele>
        <time>2022-12-17T15:24:15.446Z</time>
      </trkpt>
      <trkpt lat="46.8273" lon="-1.94948">
        <ele>42.480508</ele>
        <time>2022-12-17T15:24:17.445Z</time>
      </trkpt>
      <trkpt lat="46.82726" lon="-1.94963">
        <ele>42.50175</ele>
        <time>2022-12-17T15:24:19.435Z</time>
      </trkpt>
      <trkpt lat="46.82724" lon="-1.94978">
        <ele>42.522343</ele>
        <time>2022-12-17T15:24:21.444Z</time>
      </trkpt>
      <trkpt lat="46.82721" lon="-1.94994">
        <ele>42.543177</ele>
        <time>2022-12-17T15:24:23.430Z</time>
      </trkpt>
      <trkpt lat="46.82718" lon="-1.95008">
        <ele>42.563209</ele>
        <time>2022-12-17T15:24:25.426Z</time>
      </trkpt>
      <trkpt lat="46.82715" lon="-1.95023">
        <ele>42.583388</ele>
        <time>2022-12-17T15:24:27.436Z</time>
      </trkpt>
      <trkpt lat="46.82713" lon="-1.95037">
        <ele>42.603242</ele>
        <time>2022-12-17T15:24:29.431Z</time>
      </trkpt>
      <trkpt lat="46.8271" lon="-1.95052">
        <ele>42.62358</ele>
        <time>2022-12-17T15:24:31.437Z</time>
      </trkpt>
      <trkpt lat="46.82707" lon="-1.95067">
        <ele>42.644278</ele>
        <time>2022-12-17T15:24:33.432Z</time>
      </trkpt>
      <trkpt lat="46.82704" lon="-1.95082">
        <ele>42.664234</ele>
        <time>2022-12-17T15:24:35.431Z</time>
      </trkpt>
      <trkpt lat="46.82701" lon="-1.95096">
        <ele>42.684216</ele>
        <time>2022-12-17T15:24:37.430Z</time>
      </trkpt>
      <trkpt lat="46.82699" lon="-1.95111">
        <ele>42.704375</ele>
        <time>2022-12-17T15:24:39.439Z</time>
      </trkpt>
      <trkpt lat="46.82696" lon="-1.95125">
        <ele>42.724229</ele>
        <time>2022-12-17T15:24:41.434Z</time>
      </trkpt>
      <trkpt lat="46.82694" lon="-1.9514">
        <ele>42.748961</ele>
        <time>2022-12-17T15:24:43.434Z</time>
      </trkpt>
      <trkpt lat="46.8269" lon="-1.95154">
        <ele>42.775869</ele>
        <time>2022-12-17T15:24:45.432Z</time>
      </trkpt>
      <trkpt lat="46.82688" lon="-1.95169">
        <ele>42.802897</ele>
        <time>2022-12-17T15:24:47.431Z</time>
      </trkpt>
      <trkpt lat="46.82686" lon="-1.95183">
        <ele>42.829984</ele>
        <time>2022-12-17T15:24:49.434Z</time>
      </trkpt>
      <trkpt lat="46.82683" lon="-1.95198">
        <ele>42.857324</ele>
        <time>2022-12-17T15:24:51.428Z</time>
      </trkpt>
      <trkpt lat="46.8268" lon="-1.95212">
        <ele>42.884245</ele>
        <time>2022-12-17T15:24:53.443Z</time>
      </trkpt>
      <trkpt lat="46.82677" lon="-1.95227">
        <ele>42.911337</ele>
        <time>2022-12-17T15:24:55.432Z</time>
      </trkpt>
      <trkpt lat="46.82675" lon="-1.95242">
        <ele>42.938774</ele>
        <time>2022-12-17T15:24:57.443Z</time>
      </trkpt>
      <trkpt lat="46.82672" lon="-1.95257">
        <ele>42.967618</ele>
        <time>2022-12-17T15:24:59.458Z</time>
      </trkpt>
      <trkpt lat="46.82669" lon="-1.95273">
        <ele>42.996231</ele>
        <time>2022-12-17T15:25:01.429Z</time>
      </trkpt>
      <trkpt lat="46.82666" lon="-1.95287">
        <ele>43.023148</ele>
        <time>2022-12-17T15:25:03.438Z</time>
      </trkpt>
      <trkpt lat="46.82664" lon="-1.95302">
        <ele>43.05076</ele>
        <time>2022-12-17T15:25:05.429Z</time>
      </trkpt>
      <trkpt lat="46.82661" lon="-1.95317">
        <ele>43.07785</ele>
        <time>2022-12-17T15:25:07.438Z</time>
      </trkpt>
      <trkpt lat="46.82659" lon="-1.95332">
        <ele>43.104994</ele>
        <time>2022-12-17T15:25:09.439Z</time>
      </trkpt>
      <trkpt lat="46.82656" lon="-1.95347">
        <ele>43.13356</ele>
        <time>2022-12-17T15:25:11.428Z</time>
      </trkpt>
      <trkpt lat="46.82653" lon="-1.95363">
        <ele>43.162763</ele>
        <time>2022-12-17T15:25:13.433Z</time>
      </trkpt>
      <trkpt lat="46.8265" lon="-1.95378">
        <ele>43.190676</ele>
        <time>2022-12-17T15:25:15.437Z</time>
      </trkpt>
      <trkpt lat="46.82647" lon="-1.95392">
        <ele>43.236781</ele>
        <time>2022-12-17T15:25:17.434Z</time>
      </trkpt>
      <trkpt lat="46.82645" lon="-1.95406">
        <ele>43.286426</ele>
        <time>2022-12-17T15:25:19.429Z</time>
      </trkpt>
      <trkpt lat="46.82642" lon="-1.9542">
        <ele>43.33824</ele>
        <time>2022-12-17T15:25:21.450Z</time>
      </trkpt>
      <trkpt lat="46.8264" lon="-1.95433">
        <ele>43.387843</ele>
        <time>2022-12-17T15:25:23.426Z</time>
      </trkpt>
      <trkpt lat="46.82637" lon="-1.95447">
        <ele>43.440521</ele>
        <time>2022-12-17T15:25:25.442Z</time>
      </trkpt>
      <trkpt lat="46.82634" lon="-1.95461">
        <ele>43.495375</ele>
        <time>2022-12-17T15:25:27.449Z</time>
      </trkpt>
      <trkpt lat="46.82631" lon="-1.95475">
        <ele>43.548092</ele>
        <time>2022-12-17T15:25:29.451Z</time>
      </trkpt>
      <trkpt lat="46.82629" lon="-1.9549">
        <ele>43.603242</ele>
        <time>2022-12-17T15:25:31.448Z</time>
      </trkpt>
      <trkpt lat="46.82626" lon="-1.95505">
        <ele>43.657989</ele>
        <time>2022-12-17T15:25:33.443Z</time>
      </trkpt>
      <trkpt lat="46.82623" lon="-1.95519">
        <ele>43.712791</ele>
        <time>2022-12-17T15:25:35.430Z</time>
      </trkpt>
      <trkpt lat="46.8262" lon="-1.95535">
        <ele>43.770772</ele>
        <time>2022-12-17T15:25:37.448Z</time>
      </trkpt>
      <trkpt lat="46.82617" lon="-1.9555">
        <ele>43.826967</ele>
        <time>2022-12-17T15:25:39.429Z</time>
      </trkpt>
      <trkpt lat="46.82614" lon="-1.95565">
        <ele>43.883861</ele>
        <time>2022-12-17T15:25:41.427Z</time>
      </trkpt>
      <trkpt lat="46.82612" lon="-1.9558">
        <ele>43.939155</ele>
        <time>2022-12-17T15:25:43.441Z</time>
      </trkpt>
      <trkpt lat="46.82609" lon="-1.95595">
        <ele>43.995492</ele>
        <time>2022-12-17T15:25:45.428Z</time>
      </trkpt>
      <trkpt lat="46.82606" lon="-1.9561">
        <ele>44.05212</ele>
        <time>2022-12-17T15:25:47.426Z</time>
      </trkpt>
      <trkpt lat="46.82604" lon="-1.95625">
        <ele>44.11038</ele>
        <time>2022-12-17T15:25:49.436Z</time>
      </trkpt>
      <trkpt lat="46.826" lon="-1.95641">
        <ele>44.161961</ele>
        <time>2022-12-17T15:25:51.434Z</time>
      </trkpt>
      <trkpt lat="46.82597" lon="-1.95656">
        <ele>44.200754</ele>
        <time>2022-12-17T15:25:53.430Z</time>
      </trkpt>
      <trkpt lat="46.82594" lon="-1.95672">
        <ele>44.239202</ele>
        <time>2022-12-17T15:25:55.427Z</time>
      </trkpt>
      <trkpt lat="46.82591" lon="-1.95687">
        <ele>44.277042</ele>
        <time>2022-12-17T15:25:57.425Z</time>
      </trkpt>
      <trkpt lat="46.82589" lon="-1.95702">
        <ele>44.313921</ele>
        <time>2022-12-17T15:25:59.462Z</time>
      </trkpt>
      <trkpt lat="46.82586" lon="-1.95717">
        <ele>44.351968</ele>
        <time>2022-12-17T15:26:01.430Z</time>
      </trkpt>
      <trkpt lat="46.82584" lon="-1.95733">
        <ele>44.390417</ele>
        <time>2022-12-17T15:26:03.449Z</time>
      </trkpt>
      <trkpt lat="46.8258" lon="-1.95749">
        <ele>44.430588</ele>
        <time>2022-12-17T15:26:05.433Z</time>
      </trkpt>
      <trkpt lat="46.82577" lon="-1.95765">
        <ele>44.470633</ele>
        <time>2022-12-17T15:26:07.445Z</time>
      </trkpt>
      <trkpt lat="46.82574" lon="-1.95781">
        <ele>44.511265</ele>
        <time>2022-12-17T15:26:09.434Z</time>
      </trkpt>
      <trkpt lat="46.82571" lon="-1.95797">
        <ele>44.551645</ele>
        <time>2022-12-17T15:26:11.436Z</time>
      </trkpt>
      <trkpt lat="46.82568" lon="-1.95813">
        <ele>44.591112</ele>
        <time>2022-12-17T15:26:13.434Z</time>
      </trkpt>
      <trkpt lat="46.82564" lon="-1.95829">
        <ele>44.632515</ele>
        <time>2022-12-17T15:26:15.422Z</time>
      </trkpt>
      <trkpt lat="46.82562" lon="-1.95845">
        <ele>44.671345</ele>
        <time>2022-12-17T15:26:17.426Z</time>
      </trkpt>
      <trkpt lat="46.82559" lon="-1.95861">
        <ele>44.71026</ele>
        <time>2022-12-17T15:26:19.430Z</time>
      </trkpt>
      <trkpt lat="46.82556" lon="-1.95876">
        <ele>44.749175</ele>
        <time>2022-12-17T15:26:21.430Z</time>
      </trkpt>
      <trkpt lat="46.82553" lon="-1.95891">
        <ele>44.778082</ele>
        <time>2022-12-17T15:26:23.425Z</time>
      </trkpt>
      <trkpt lat="46.82551" lon="-1.95905">
        <ele>44.759805</ele>
        <time>2022-12-17T15:26:25.428Z</time>
      </trkpt>
      <trkpt lat="46.82548" lon="-1.95919">
        <ele>44.742171</ele>
        <time>2022-12-17T15:26:27.439Z</time>
      </trkpt>
      <trkpt lat="46.82544" lon="-1.95935">
        <ele>44.722532</ele>
        <time>2022-12-17T15:26:29.428Z</time>
      </trkpt>
      <trkpt lat="46.82541" lon="-1.9595">
        <ele>44.703604</ele>
        <time>2022-12-17T15:26:31.435Z</time>
      </trkpt>
      <trkpt lat="46.82539" lon="-1.95965">
        <ele>44.685398</ele>
        <time>2022-12-17T15:26:33.445Z</time>
      </trkpt>
      <trkpt lat="46.82536" lon="-1.9598">
        <ele>44.666191</ele>
        <time>2022-12-17T15:26:35.446Z</time>
      </trkpt>
      <trkpt lat="46.82534" lon="-1.95995">
        <ele>44.647425</ele>
        <time>2022-12-17T15:26:37.437Z</time>
      </trkpt>
      <trkpt lat="46.82532" lon="-1.96009">
        <ele>44.629801</ele>
        <time>2022-12-17T15:26:39.441Z</time>
      </trkpt>
      <trkpt lat="46.82529" lon="-1.96024">
        <ele>44.611737</ele>
        <time>2022-12-17T15:26:41.460Z</time>
      </trkpt>
      <trkpt lat="46.82526" lon="-1.96038">
        <ele>44.593304</ele>
        <time>2022-12-17T15:26:43.441Z</time>
      </trkpt>
      <trkpt lat="46.82523" lon="-1.96053">
        <ele>44.575138</ele>
        <time>2022-12-17T15:26:45.440Z</time>
      </trkpt>
      <trkpt lat="46.8252" lon="-1.96068">
        <ele>44.556114</ele>
        <time>2022-12-17T15:26:47.440Z</time>
      </trkpt>
      <trkpt lat="46.82518" lon="-1.96083">
        <ele>44.53742</ele>
        <time>2022-12-17T15:26:49.441Z</time>
      </trkpt>
      <trkpt lat="46.82515" lon="-1.96098">
        <ele>44.517582</ele>
        <time>2022-12-17T15:26:51.444Z</time>
      </trkpt>
      <trkpt lat="46.82512" lon="-1.96114">
        <ele>44.498465</ele>
        <time>2022-12-17T15:26:53.461Z</time>
      </trkpt>
      <trkpt lat="46.82509" lon="-1.96129">
        <ele>44.479209</ele>
        <time>2022-12-17T15:26:55.460Z</time>
      </trkpt>
      <trkpt lat="46.82506" lon="-1.96144">
        <ele>44.466202</ele>
        <time>2022-12-17T15:26:57.430Z</time>
      </trkpt>
      <trkpt lat="46.82503" lon="-1.96159">
        <ele>44.500336</ele>
        <time>2022-12-17T15:26:59.429Z</time>
      </trkpt>
      <trkpt lat="46.825" lon="-1.96175">
        <ele>44.535643</ele>
        <time>2022-12-17T15:27:01.462Z</time>
      </trkpt>
      <trkpt lat="46.82497" lon="-1.96191">
        <ele>44.571905</ele>
        <time>2022-12-17T15:27:03.435Z</time>
      </trkpt>
      <trkpt lat="46.82494" lon="-1.96207">
        <ele>44.608083</ele>
        <time>2022-12-17T15:27:05.428Z</time>
      </trkpt>
      <trkpt lat="46.82491" lon="-1.96223">
        <ele>44.645165</ele>
        <time>2022-12-17T15:27:07.446Z</time>
      </trkpt>
      <trkpt lat="46.82489" lon="-1.96238">
        <ele>44.679656</ele>
        <time>2022-12-17T15:27:09.430Z</time>
      </trkpt>
      <trkpt lat="46.82486" lon="-1.96254">
        <ele>44.71475</ele>
        <time>2022-12-17T15:27:11.431Z</time>
      </trkpt>
      <trkpt lat="46.82483" lon="-1.96269">
        <ele>44.749418</ele>
        <time>2022-12-17T15:27:13.430Z</time>
      </trkpt>
      <trkpt lat="46.82481" lon="-1.96283">
        <ele>44.781527</ele>
        <time>2022-12-17T15:27:15.437Z</time>
      </trkpt>
      <trkpt lat="46.82479" lon="-1.96297">
        <ele>44.811745</ele>
        <time>2022-12-17T15:27:17.437Z</time>
      </trkpt>
      <trkpt lat="46.82475" lon="-1.96316">
        <ele>44.855012</ele>
        <time>2022-12-17T15:27:20.426Z</time>
      </trkpt>
      <trkpt lat="46.82471" lon="-1.96333">
        <ele>44.893588</ele>
        <time>2022-12-17T15:27:23.439Z</time>
      </trkpt>
      <trkpt lat="46.82468" lon="-1.96351">
        <ele>44.934371</ele>
        <time>2022-12-17T15:27:26.430Z</time>
      </trkpt>
      <trkpt lat="46.82464" lon="-1.9637">
        <ele>44.978148</ele>
        <time>2022-12-17T15:27:29.433Z</time>
      </trkpt>
      <trkpt lat="46.82462" lon="-1.96383">
        <ele>45.008563</ele>
        <time>2022-12-17T15:27:31.438Z</time>
      </trkpt>
      <trkpt lat="46.82459" lon="-1.96397">
        <ele>45.035986</ele>
        <time>2022-12-17T15:27:33.424Z</time>
      </trkpt>
      <trkpt lat="46.82457" lon="-1.9641">
        <ele>45.017906</ele>
        <time>2022-12-17T15:27:35.430Z</time>
      </trkpt>
      <trkpt lat="46.82454" lon="-1.96424">
        <ele>44.999101</ele>
        <time>2022-12-17T15:27:37.427Z</time>
      </trkpt>
      <trkpt lat="46.82451" lon="-1.96439">
        <ele>44.979585</ele>
        <time>2022-12-17T15:27:39.427Z</time>
      </trkpt>
      <trkpt lat="46.82449" lon="-1.96453">
        <ele>44.960888</ele>
        <time>2022-12-17T15:27:41.429Z</time>
      </trkpt>
      <trkpt lat="46.82446" lon="-1.96467">
        <ele>44.941234</ele>
        <time>2022-12-17T15:27:43.427Z</time>
      </trkpt>
      <trkpt lat="46.82443" lon="-1.96481">
        <ele>44.922579</ele>
        <time>2022-12-17T15:27:45.438Z</time>
      </trkpt>
      <trkpt lat="46.8244" lon="-1.96495">
        <ele>44.903372</ele>
        <time>2022-12-17T15:27:47.442Z</time>
      </trkpt>
      <trkpt lat="46.82437" lon="-1.96509">
        <ele>44.884226</ele>
        <time>2022-12-17T15:27:49.423Z</time>
      </trkpt>
      <trkpt lat="46.82435" lon="-1.96524">
        <ele>44.865356</ele>
        <time>2022-12-17T15:27:51.429Z</time>
      </trkpt>
      <trkpt lat="46.82432" lon="-1.96538">
        <ele>44.846427</ele>
        <time>2022-12-17T15:27:53.421Z</time>
      </trkpt>
      <trkpt lat="46.8243" lon="-1.96552">
        <ele>44.827975</ele>
        <time>2022-12-17T15:27:55.429Z</time>
      </trkpt>
      <trkpt lat="46.82427" lon="-1.96565">
        <ele>44.809624</ele>
        <time>2022-12-17T15:27:57.430Z</time>
      </trkpt>
      <trkpt lat="46.82425" lon="-1.96578">
        <ele>44.792042</ele>
        <time>2022-12-17T15:27:59.427Z</time>
      </trkpt>
      <trkpt lat="46.82421" lon="-1.96598">
        <ele>44.76613</ele>
        <time>2022-12-17T15:28:02.429Z</time>
      </trkpt>
      <trkpt lat="46.82418" lon="-1.96612">
        <ele>44.747574</ele>
        <time>2022-12-17T15:28:04.428Z</time>
      </trkpt>
      <trkpt lat="46.82415" lon="-1.96627">
        <ele>44.727246</ele>
        <time>2022-12-17T15:28:06.448Z</time>
      </trkpt>
      <trkpt lat="46.82413" lon="-1.96641">
        <ele>44.708415</ele>
        <time>2022-12-17T15:28:08.434Z</time>
      </trkpt>
      <trkpt lat="46.8241" lon="-1.96657">
        <ele>44.696216</ele>
        <time>2022-12-17T15:28:10.430Z</time>
      </trkpt>
      <trkpt lat="46.82407" lon="-1.96672">
        <ele>44.694495</ele>
        <time>2022-12-17T15:28:12.437Z</time>
      </trkpt>
      <trkpt lat="46.82404" lon="-1.96687">
        <ele>44.692651</ele>
        <time>2022-12-17T15:28:14.446Z</time>
      </trkpt>
      <trkpt lat="46.82401" lon="-1.96702">
        <ele>44.690819</ele>
        <time>2022-12-17T15:28:16.431Z</time>
      </trkpt>
      <trkpt lat="46.82398" lon="-1.96717">
        <ele>44.689031</ele>
        <time>2022-12-17T15:28:18.434Z</time>
      </trkpt>
      <trkpt lat="46.82395" lon="-1.96731">
        <ele>44.687418</ele>
        <time>2022-12-17T15:28:20.430Z</time>
      </trkpt>
      <trkpt lat="46.82393" lon="-1.96745">
        <ele>44.685701</ele>
        <time>2022-12-17T15:28:22.441Z</time>
      </trkpt>
      <trkpt lat="46.82391" lon="-1.96759">
        <ele>44.684059</ele>
        <time>2022-12-17T15:28:24.437Z</time>
      </trkpt>
      <trkpt lat="46.82389" lon="-1.96774">
        <ele>44.682382</ele>
        <time>2022-12-17T15:28:26.441Z</time>
      </trkpt>
      <trkpt lat="46.82387" lon="-1.96789">
        <ele>44.680594</ele>
        <time>2022-12-17T15:28:28.433Z</time>
      </trkpt>
      <trkpt lat="46.82384" lon="-1.96804">
        <ele>44.678758</ele>
        <time>2022-12-17T15:28:30.437Z</time>
      </trkpt>
      <trkpt lat="46.82381" lon="-1.96819">
        <ele>44.676961</ele>
        <time>2022-12-17T15:28:32.426Z</time>
      </trkpt>
      <trkpt lat="46.82378" lon="-1.96835">
        <ele>44.675067</ele>
        <time>2022-12-17T15:28:34.428Z</time>
      </trkpt>
      <trkpt lat="46.82375" lon="-1.96851">
        <ele>44.67317</ele>
        <time>2022-12-17T15:28:36.427Z</time>
      </trkpt>
      <trkpt lat="46.82372" lon="-1.96867">
        <ele>44.671229</ele>
        <time>2022-12-17T15:28:38.436Z</time>
      </trkpt>
      <trkpt lat="46.82369" lon="-1.96883">
        <ele>44.669333</ele>
        <time>2022-12-17T15:28:40.425Z</time>
      </trkpt>
      <trkpt lat="46.82365" lon="-1.969">
        <ele>44.667285</ele>
        <time>2022-12-17T15:28:42.437Z</time>
      </trkpt>
      <trkpt lat="46.82362" lon="-1.96917">
        <ele>44.702585</ele>
        <time>2022-12-17T15:28:44.447Z</time>
      </trkpt>
      <trkpt lat="46.82359" lon="-1.96934">
        <ele>44.746181</ele>
        <time>2022-12-17T15:28:46.453Z</time>
      </trkpt>
      <trkpt lat="46.82356" lon="-1.96951">
        <ele>44.790977</ele>
        <time>2022-12-17T15:28:48.439Z</time>
      </trkpt>
      <trkpt lat="46.82353" lon="-1.96968">
        <ele>44.834055</ele>
        <time>2022-12-17T15:28:50.438Z</time>
      </trkpt>
      <trkpt lat="46.8235" lon="-1.96985">
        <ele>44.877647</ele>
        <time>2022-12-17T15:28:52.437Z</time>
      </trkpt>
      <trkpt lat="46.82347" lon="-1.97001">
        <ele>44.918012</ele>
        <time>2022-12-17T15:28:54.440Z</time>
      </trkpt>
      <trkpt lat="46.82344" lon="-1.97016">
        <ele>44.957665</ele>
        <time>2022-12-17T15:28:56.429Z</time>
      </trkpt>
      <trkpt lat="46.82342" lon="-1.97031">
        <ele>44.994595</ele>
        <time>2022-12-17T15:28:58.464Z</time>
      </trkpt>
      <trkpt lat="46.82339" lon="-1.97045">
        <ele>45.029477</ele>
        <time>2022-12-17T15:29:00.435Z</time>
      </trkpt>
      <trkpt lat="46.82337" lon="-1.97058">
        <ele>45.062596</ele>
        <time>2022-12-17T15:29:02.432Z</time>
      </trkpt>
      <trkpt lat="46.82333" lon="-1.97076">
        <ele>45.109024</ele>
        <time>2022-12-17T15:29:05.435Z</time>
      </trkpt>
      <trkpt lat="46.82329" lon="-1.97094">
        <ele>45.157298</ele>
        <time>2022-12-17T15:29:08.433Z</time>
      </trkpt>
      <trkpt lat="46.82327" lon="-1.97108">
        <ele>45.191369</ele>
        <time>2022-12-17T15:29:10.449Z</time>
      </trkpt>
      <trkpt lat="46.82324" lon="-1.97121">
        <ele>45.2253</ele>
        <time>2022-12-17T15:29:12.442Z</time>
      </trkpt>
      <trkpt lat="46.82321" lon="-1.97135">
        <ele>45.26212</ele>
        <time>2022-12-17T15:29:14.432Z</time>
      </trkpt>
      <trkpt lat="46.82319" lon="-1.9715">
        <ele>45.298909</ele>
        <time>2022-12-17T15:29:16.452Z</time>
      </trkpt>
      <trkpt lat="46.82316" lon="-1.97164">
        <ele>45.326022</ele>
        <time>2022-12-17T15:29:18.439Z</time>
      </trkpt>
      <trkpt lat="46.82313" lon="-1.97178">
        <ele>45.343811</ele>
        <time>2022-12-17T15:29:20.437Z</time>
      </trkpt>
      <trkpt lat="46.82311" lon="-1.97193">
        <ele>45.361792</ele>
        <time>2022-12-17T15:29:22.434Z</time>
      </trkpt>
      <trkpt lat="46.82307" lon="-1.97209">
        <ele>45.382186</ele>
        <time>2022-12-17T15:29:24.435Z</time>
      </trkpt>
      <trkpt lat="46.82304" lon="-1.97224">
        <ele>45.400906</ele>
        <time>2022-12-17T15:29:26.439Z</time>
      </trkpt>
      <trkpt lat="46.82302" lon="-1.9724">
        <ele>45.419558</ele>
        <time>2022-12-17T15:29:28.440Z</time>
      </trkpt>
      <trkpt lat="46.82299" lon="-1.97255">
        <ele>45.438436</ele>
        <time>2022-12-17T15:29:30.428Z</time>
      </trkpt>
      <trkpt lat="46.82296" lon="-1.9727">
        <ele>45.457815</ele>
        <time>2022-12-17T15:29:32.453Z</time>
      </trkpt>
      <trkpt lat="46.82293" lon="-1.97285">
        <ele>45.476643</ele>
        <time>2022-12-17T15:29:34.428Z</time>
      </trkpt>
      <trkpt lat="46.8229" lon="-1.97299">
        <ele>45.493506</ele>
        <time>2022-12-17T15:29:36.433Z</time>
      </trkpt>
      <trkpt lat="46.82287" lon="-1.97312">
        <ele>45.510513</ele>
        <time>2022-12-17T15:29:38.441Z</time>
      </trkpt>
      <trkpt lat="46.82283" lon="-1.9733">
        <ele>45.533344</ele>
        <time>2022-12-17T15:29:41.430Z</time>
      </trkpt>
      <trkpt lat="46.82281" lon="-1.97349">
        <ele>45.555842</ele>
        <time>2022-12-17T15:29:44.427Z</time>
      </trkpt>
      <trkpt lat="46.82278" lon="-1.97362">
        <ele>45.572914</ele>
        <time>2022-12-17T15:29:46.427Z</time>
      </trkpt>
      <trkpt lat="46.82276" lon="-1.97376">
        <ele>45.589726</ele>
        <time>2022-12-17T15:29:48.437Z</time>
      </trkpt>
      <trkpt lat="46.82273" lon="-1.97391">
        <ele>45.607707</ele>
        <time>2022-12-17T15:29:50.423Z</time>
      </trkpt>
      <trkpt lat="46.82271" lon="-1.97405">
        <ele>45.625518</ele>
        <time>2022-12-17T15:29:52.451Z</time>
      </trkpt>
      <trkpt lat="46.82267" lon="-1.97421">
        <ele>45.670768</ele>
        <time>2022-12-17T15:29:54.432Z</time>
      </trkpt>
      <trkpt lat="46.82264" lon="-1.97436">
        <ele>45.721266</ele>
        <time>2022-12-17T15:29:56.432Z</time>
      </trkpt>
      <trkpt lat="46.82262" lon="-1.9745">
        <ele>45.771775</ele>
        <time>2022-12-17T15:29:58.432Z</time>
      </trkpt>
      <trkpt lat="46.8226" lon="-1.97466">
        <ele>45.823784</ele>
        <time>2022-12-17T15:30:00.451Z</time>
      </trkpt>
      <trkpt lat="46.82257" lon="-1.97481">
        <ele>45.87595</ele>
        <time>2022-12-17T15:30:02.452Z</time>
      </trkpt>
      <trkpt lat="46.82254" lon="-1.97496">
        <ele>45.927767</ele>
        <time>2022-12-17T15:30:04.439Z</time>
      </trkpt>
      <trkpt lat="46.82251" lon="-1.97511">
        <ele>45.979263</ele>
        <time>2022-12-17T15:30:06.448Z</time>
      </trkpt>
      <trkpt lat="46.82249" lon="-1.97526">
        <ele>46.031055</ele>
        <time>2022-12-17T15:30:08.440Z</time>
      </trkpt>
      <trkpt lat="46.82246" lon="-1.97542">
        <ele>46.085047</ele>
        <time>2022-12-17T15:30:10.455Z</time>
      </trkpt>
      <trkpt lat="46.82244" lon="-1.97557">
        <ele>46.135982</ele>
        <time>2022-12-17T15:30:12.428Z</time>
      </trkpt>
      <trkpt lat="46.8224" lon="-1.97572">
        <ele>46.190537</ele>
        <time>2022-12-17T15:30:14.433Z</time>
      </trkpt>
      <trkpt lat="46.82236" lon="-1.97588">
        <ele>46.244895</ele>
        <time>2022-12-17T15:30:16.459Z</time>
      </trkpt>
      <trkpt lat="46.82233" lon="-1.97603">
        <ele>46.297286</ele>
        <time>2022-12-17T15:30:18.426Z</time>
      </trkpt>
      <trkpt lat="46.8223" lon="-1.97618">
        <ele>46.351477</ele>
        <time>2022-12-17T15:30:20.465Z</time>
      </trkpt>
      <trkpt lat="46.82227" lon="-1.97634">
        <ele>46.404595</ele>
        <time>2022-12-17T15:30:22.449Z</time>
      </trkpt>
      <trkpt lat="46.82224" lon="-1.97649">
        <ele>46.457179</ele>
        <time>2022-12-17T15:30:24.458Z</time>
      </trkpt>
      <trkpt lat="46.82222" lon="-1.97663">
        <ele>46.503722</ele>
        <time>2022-12-17T15:30:26.425Z</time>
      </trkpt>
      <trkpt lat="46.82219" lon="-1.97677">
        <ele>46.49644</ele>
        <time>2022-12-17T15:30:28.427Z</time>
      </trkpt>
      <trkpt lat="46.82216" lon="-1.97691">
        <ele>46.48952</ele>
        <time>2022-12-17T15:30:30.427Z</time>
      </trkpt>
      <trkpt lat="46.82213" lon="-1.97705">
        <ele>46.482474</ele>
        <time>2022-12-17T15:30:32.431Z</time>
      </trkpt>
      <trkpt lat="46.8221" lon="-1.97723">
        <ele>46.473417</ele>
        <time>2022-12-17T15:30:35.443Z</time>
      </trkpt>
      <trkpt lat="46.82207" lon="-1.97741">
        <ele>46.464583</ele>
        <time>2022-12-17T15:30:38.458Z</time>
      </trkpt>
      <trkpt lat="46.82204" lon="-1.97759">
        <ele>46.455582</ele>
        <time>2022-12-17T15:30:41.432Z</time>
      </trkpt>
      <trkpt lat="46.82201" lon="-1.97772">
        <ele>46.448868</ele>
        <time>2022-12-17T15:30:43.432Z</time>
      </trkpt>
      <trkpt lat="46.82198" lon="-1.97792">
        <ele>46.439251</ele>
        <time>2022-12-17T15:30:46.442Z</time>
      </trkpt>
      <trkpt lat="46.82195" lon="-1.97805">
        <ele>46.432279</ele>
        <time>2022-12-17T15:30:48.444Z</time>
      </trkpt>
      <trkpt lat="46.82192" lon="-1.9782">
        <ele>46.425111</ele>
        <time>2022-12-17T15:30:50.433Z</time>
      </trkpt>
      <trkpt lat="46.8219" lon="-1.97834">
        <ele>46.417859</ele>
        <time>2022-12-17T15:30:52.424Z</time>
      </trkpt>
      <trkpt lat="46.82186" lon="-1.97849">
        <ele>46.410554</ele>
        <time>2022-12-17T15:30:54.433Z</time>
      </trkpt>
      <trkpt lat="46.82184" lon="-1.97864">
        <ele>46.403136</ele>
        <time>2022-12-17T15:30:56.426Z</time>
      </trkpt>
      <trkpt lat="46.82182" lon="-1.97879">
        <ele>46.395763</ele>
        <time>2022-12-17T15:30:58.432Z</time>
      </trkpt>
      <trkpt lat="46.82179" lon="-1.97893">
        <ele>46.388288</ele>
        <time>2022-12-17T15:31:00.441Z</time>
      </trkpt>
      <trkpt lat="46.82176" lon="-1.97908">
        <ele>46.38086</ele>
        <time>2022-12-17T15:31:02.428Z</time>
      </trkpt>
      <trkpt lat="46.82173" lon="-1.97924">
        <ele>46.328249</ele>
        <time>2022-12-17T15:31:04.438Z</time>
      </trkpt>
      <trkpt lat="46.8217" lon="-1.97939">
        <ele>46.240635</ele>
        <time>2022-12-17T15:31:06.444Z</time>
      </trkpt>
      <trkpt lat="46.82168" lon="-1.97955">
        <ele>46.146978</ele>
        <time>2022-12-17T15:31:08.431Z</time>
      </trkpt>
      <trkpt lat="46.82164" lon="-1.9797">
        <ele>46.054003</ele>
        <time>2022-12-17T15:31:10.427Z</time>
      </trkpt>
      <trkpt lat="46.82161" lon="-1.97986">
        <ele>45.960285</ele>
        <time>2022-12-17T15:31:12.427Z</time>
      </trkpt>
      <trkpt lat="46.82158" lon="-1.98001">
        <ele>45.867123</ele>
        <time>2022-12-17T15:31:14.448Z</time>
      </trkpt>
      <trkpt lat="46.82154" lon="-1.98018">
        <ele>45.767866</ele>
        <time>2022-12-17T15:31:16.443Z</time>
      </trkpt>
      <trkpt lat="46.82152" lon="-1.98033">
        <ele>45.674572</ele>
        <time>2022-12-17T15:31:18.448Z</time>
      </trkpt>
      <trkpt lat="46.82149" lon="-1.98048">
        <ele>45.588299</ele>
        <time>2022-12-17T15:31:20.434Z</time>
      </trkpt>
      <trkpt lat="46.82147" lon="-1.98062">
        <ele>45.503642</ele>
        <time>2022-12-17T15:31:22.427Z</time>
      </trkpt>
      <trkpt lat="46.82144" lon="-1.98078">
        <ele>45.406581</ele>
        <time>2022-12-17T15:31:24.446Z</time>
      </trkpt>
      <trkpt lat="46.82141" lon="-1.98093">
        <ele>45.317681</ele>
        <time>2022-12-17T15:31:26.430Z</time>
      </trkpt>
      <trkpt lat="46.82137" lon="-1.98109">
        <ele>45.223825</ele>
        <time>2022-12-17T15:31:28.451Z</time>
      </trkpt>
      <trkpt lat="46.82134" lon="-1.98124">
        <ele>45.132101</ele>
        <time>2022-12-17T15:31:30.464Z</time>
      </trkpt>
      <trkpt lat="46.82132" lon="-1.9814">
        <ele>45.036367</ele>
        <time>2022-12-17T15:31:32.445Z</time>
      </trkpt>
      <trkpt lat="46.82129" lon="-1.98156">
        <ele>44.942425</ele>
        <time>2022-12-17T15:31:34.438Z</time>
      </trkpt>
      <trkpt lat="46.82125" lon="-1.98172">
        <ele>44.858743</ele>
        <time>2022-12-17T15:31:36.431Z</time>
      </trkpt>
      <trkpt lat="46.82123" lon="-1.98188">
        <ele>44.837167</ele>
        <time>2022-12-17T15:31:38.442Z</time>
      </trkpt>
      <trkpt lat="46.8212" lon="-1.98203">
        <ele>44.817139</ele>
        <time>2022-12-17T15:31:40.437Z</time>
      </trkpt>
      <trkpt lat="46.82118" lon="-1.98218">
        <ele>44.797488</ele>
        <time>2022-12-17T15:31:42.432Z</time>
      </trkpt>
      <trkpt lat="46.82117" lon="-1.98232">
        <ele>44.779667</ele>
        <time>2022-12-17T15:31:44.442Z</time>
      </trkpt>
      <trkpt lat="46.82114" lon="-1.98245">
        <ele>44.761395</ele>
        <time>2022-12-17T15:31:46.446Z</time>
      </trkpt>
      <trkpt lat="46.82111" lon="-1.98258">
        <ele>44.744414</ele>
        <time>2022-12-17T15:31:48.458Z</time>
      </trkpt>
      <trkpt lat="46.82109" lon="-1.98271">
        <ele>44.72731</ele>
        <time>2022-12-17T15:31:50.444Z</time>
      </trkpt>
      <trkpt lat="46.82105" lon="-1.98284">
        <ele>44.709098</ele>
        <time>2022-12-17T15:31:52.453Z</time>
      </trkpt>
      <trkpt lat="46.82102" lon="-1.98297">
        <ele>44.691508</ele>
        <time>2022-12-17T15:31:54.448Z</time>
      </trkpt>
      <trkpt lat="46.821" lon="-1.98311">
        <ele>44.673017</ele>
        <time>2022-12-17T15:31:56.438Z</time>
      </trkpt>
      <trkpt lat="46.82098" lon="-1.98325">
        <ele>44.654402</ele>
        <time>2022-12-17T15:31:58.433Z</time>
      </trkpt>
      <trkpt lat="46.82094" lon="-1.98339">
        <ele>44.635716</ele>
        <time>2022-12-17T15:32:00.459Z</time>
      </trkpt>
      <trkpt lat="46.82092" lon="-1.98353">
        <ele>44.617277</ele>
        <time>2022-12-17T15:32:02.431Z</time>
      </trkpt>
      <trkpt lat="46.8209" lon="-1.98367">
        <ele>44.597646</ele>
        <time>2022-12-17T15:32:04.436Z</time>
      </trkpt>
      <trkpt lat="46.82087" lon="-1.98382">
        <ele>44.578262</ele>
        <time>2022-12-17T15:32:06.468Z</time>
      </trkpt>
      <trkpt lat="46.82085" lon="-1.98396">
        <ele>44.559697</ele>
        <time>2022-12-17T15:32:08.431Z</time>
      </trkpt>
      <trkpt lat="46.82082" lon="-1.98411">
        <ele>44.539767</ele>
        <time>2022-12-17T15:32:10.431Z</time>
      </trkpt>
      <trkpt lat="46.82079" lon="-1.98426">
        <ele>44.521491</ele>
        <time>2022-12-17T15:32:12.430Z</time>
      </trkpt>
      <trkpt lat="46.82076" lon="-1.98441">
        <ele>44.510926</ele>
        <time>2022-12-17T15:32:14.436Z</time>
      </trkpt>
      <trkpt lat="46.82073" lon="-1.98457">
        <ele>44.500365</ele>
        <time>2022-12-17T15:32:16.439Z</time>
      </trkpt>
      <trkpt lat="46.82071" lon="-1.98472">
        <ele>44.489882</ele>
        <time>2022-12-17T15:32:18.436Z</time>
      </trkpt>
      <trkpt lat="46.82068" lon="-1.98487">
        <ele>44.479036</ele>
        <time>2022-12-17T15:32:20.449Z</time>
      </trkpt>
      <trkpt lat="46.82065" lon="-1.98503">
        <ele>44.46821</ele>
        <time>2022-12-17T15:32:22.447Z</time>
      </trkpt>
      <trkpt lat="46.82062" lon="-1.98517">
        <ele>44.458155</ele>
        <time>2022-12-17T15:32:24.457Z</time>
      </trkpt>
      <trkpt lat="46.82059" lon="-1.98532">
        <ele>44.447574</ele>
        <time>2022-12-17T15:32:26.438Z</time>
      </trkpt>
      <trkpt lat="46.82057" lon="-1.98545">
        <ele>44.43871</ele>
        <time>2022-12-17T15:32:28.448Z</time>
      </trkpt>
      <trkpt lat="46.82053" lon="-1.98558">
        <ele>44.429425</ele>
        <time>2022-12-17T15:32:30.465Z</time>
      </trkpt>
      <trkpt lat="46.82051" lon="-1.98571">
        <ele>44.420252</ele>
        <time>2022-12-17T15:32:32.448Z</time>
      </trkpt>
      <trkpt lat="46.82047" lon="-1.98589">
        <ele>44.407476</ele>
        <time>2022-12-17T15:32:35.435Z</time>
      </trkpt>
      <trkpt lat="46.82046" lon="-1.98602">
        <ele>44.398652</ele>
        <time>2022-12-17T15:32:37.439Z</time>
      </trkpt>
      <trkpt lat="46.82043" lon="-1.98616">
        <ele>44.389021</ele>
        <time>2022-12-17T15:32:39.452Z</time>
      </trkpt>
      <trkpt lat="46.8204" lon="-1.9863">
        <ele>44.379277</ele>
        <time>2022-12-17T15:32:41.445Z</time>
      </trkpt>
      <trkpt lat="46.82038" lon="-1.98643">
        <ele>44.370051</ele>
        <time>2022-12-17T15:32:43.450Z</time>
      </trkpt>
      <trkpt lat="46.82035" lon="-1.98657">
        <ele>44.360423</ele>
        <time>2022-12-17T15:32:45.446Z</time>
      </trkpt>
      <trkpt lat="46.82033" lon="-1.9867">
        <ele>44.351197</ele>
        <time>2022-12-17T15:32:47.440Z</time>
      </trkpt>
      <trkpt lat="46.82031" lon="-1.98684">
        <ele>44.360615</ele>
        <time>2022-12-17T15:32:49.442Z</time>
      </trkpt>
      <trkpt lat="46.82028" lon="-1.98697">
        <ele>44.381971</ele>
        <time>2022-12-17T15:32:51.444Z</time>
      </trkpt>
      <trkpt lat="46.82025" lon="-1.98716">
        <ele>44.412183</ele>
        <time>2022-12-17T15:32:54.434Z</time>
      </trkpt>
      <trkpt lat="46.82022" lon="-1.98734">
        <ele>44.441864</ele>
        <time>2022-12-17T15:32:57.438Z</time>
      </trkpt>
      <trkpt lat="46.82018" lon="-1.98753">
        <ele>44.472881</ele>
        <time>2022-12-17T15:33:00.428Z</time>
      </trkpt>
      <trkpt lat="46.82015" lon="-1.98766">
        <ele>44.494199</ele>
        <time>2022-12-17T15:33:02.456Z</time>
      </trkpt>
      <trkpt lat="46.82013" lon="-1.98779">
        <ele>44.515489</ele>
        <time>2022-12-17T15:33:04.435Z</time>
      </trkpt>
      <trkpt lat="46.82009" lon="-1.98798">
        <ele>44.546513</ele>
        <time>2022-12-17T15:33:07.457Z</time>
      </trkpt>
      <trkpt lat="46.82006" lon="-1.98812">
        <ele>44.56968</ele>
        <time>2022-12-17T15:33:09.437Z</time>
      </trkpt>
      <trkpt lat="46.82003" lon="-1.98832">
        <ele>44.60105</ele>
        <time>2022-12-17T15:33:12.437Z</time>
      </trkpt>
      <trkpt lat="46.81999" lon="-1.9885">
        <ele>44.631618</ele>
        <time>2022-12-17T15:33:15.441Z</time>
      </trkpt>
      <trkpt lat="46.81996" lon="-1.98868">
        <ele>44.660585</ele>
        <time>2022-12-17T15:33:18.432Z</time>
      </trkpt>
      <trkpt lat="46.81993" lon="-1.98884">
        <ele>44.687253</ele>
        <time>2022-12-17T15:33:21.437Z</time>
      </trkpt>
      <trkpt lat="46.81991" lon="-1.989">
        <ele>44.712453</ele>
        <time>2022-12-17T15:33:24.426Z</time>
      </trkpt>
      <trkpt lat="46.81988" lon="-1.98914">
        <ele>44.735444</ele>
        <time>2022-12-17T15:33:27.434Z</time>
      </trkpt>
      <trkpt lat="46.81987" lon="-1.98928">
        <ele>44.75764</ele>
        <time>2022-12-17T15:33:30.432Z</time>
      </trkpt>
      <trkpt lat="46.81985" lon="-1.98942">
        <ele>44.753203</ele>
        <time>2022-12-17T15:33:33.431Z</time>
      </trkpt>
      <trkpt lat="46.81985" lon="-1.98959">
        <ele>44.742365</ele>
        <time>2022-12-17T15:33:37.432Z</time>
      </trkpt>
      <trkpt lat="46.81984" lon="-1.98976">
        <ele>44.73178</ele>
        <time>2022-12-17T15:33:41.435Z</time>
      </trkpt>
      <trkpt lat="46.81979" lon="-1.98991">
        <ele>44.721127</ele>
        <time>2022-12-17T15:33:45.429Z</time>
      </trkpt>
      <trkpt lat="46.81976" lon="-1.99004">
        <ele>44.712507</ele>
        <time>2022-12-17T15:33:48.425Z</time>
      </trkpt>
      <trkpt lat="46.81972" lon="-1.99019">
        <ele>44.702702</ele>
        <time>2022-12-17T15:33:51.456Z</time>
      </trkpt>
      <trkpt lat="46.81968" lon="-1.99033">
        <ele>44.692843</ele>
        <time>2022-12-17T15:33:54.435Z</time>
      </trkpt>
      <trkpt lat="46.81965" lon="-1.99048">
        <ele>44.68295</ele>
        <time>2022-12-17T15:33:57.434Z</time>
      </trkpt>
      <trkpt lat="46.81961" lon="-1.99063">
        <ele>44.673369</ele>
        <time>2022-12-17T15:34:00.443Z</time>
      </trkpt>
      <trkpt lat="46.81957" lon="-1.99076">
        <ele>44.664064</ele>
        <time>2022-12-17T15:34:03.438Z</time>
      </trkpt>
      <trkpt lat="46.81953" lon="-1.99092">
        <ele>44.653958</ele>
        <time>2022-12-17T15:34:06.449Z</time>
      </trkpt>
      <trkpt lat="46.8195" lon="-1.99108">
        <ele>44.643195</ele>
        <time>2022-12-17T15:34:09.430Z</time>
      </trkpt>
      <trkpt lat="46.81947" lon="-1.99125">
        <ele>44.632371</ele>
        <time>2022-12-17T15:34:12.429Z</time>
      </trkpt>
      <trkpt lat="46.81943" lon="-1.9914">
        <ele>44.622174</ele>
        <time>2022-12-17T15:34:15.433Z</time>
      </trkpt>
      <trkpt lat="46.81941" lon="-1.99157">
        <ele>44.611591</ele>
        <time>2022-12-17T15:34:18.439Z</time>
      </trkpt>
      <trkpt lat="46.81937" lon="-1.99174">
        <ele>44.60008</ele>
        <time>2022-12-17T15:34:21.433Z</time>
      </trkpt>
      <trkpt lat="46.81934" lon="-1.99192">
        <ele>44.582997</ele>
        <time>2022-12-17T15:34:24.449Z</time>
      </trkpt>
      <trkpt lat="46.81931" lon="-1.99209">
        <ele>44.564282</ele>
        <time>2022-12-17T15:34:27.437Z</time>
      </trkpt>
      <trkpt lat="46.81928" lon="-1.99225">
        <ele>44.546259</ele>
        <time>2022-12-17T15:34:30.431Z</time>
      </trkpt>
      <trkpt lat="46.81925" lon="-1.99241">
        <ele>44.529316</ele>
        <time>2022-12-17T15:34:33.442Z</time>
      </trkpt>
      <trkpt lat="46.81923" lon="-1.99254">
        <ele>44.514007</ele>
        <time>2022-12-17T15:34:36.446Z</time>
      </trkpt>
      <trkpt lat="46.8192" lon="-1.9927">
        <ele>44.497104</ele>
        <time>2022-12-17T15:34:40.458Z</time>
      </trkpt>
      <trkpt lat="46.81918" lon="-1.99283">
        <ele>44.482497</ele>
        <time>2022-12-17T15:34:44.426Z</time>
      </trkpt>
      <trkpt lat="46.81918" lon="-1.99297">
        <ele>44.467584</ele>
        <time>2022-12-17T15:34:48.438Z</time>
      </trkpt>
      <trkpt lat="46.81915" lon="-1.99311">
        <ele>44.451796</ele>
        <time>2022-12-17T15:34:52.428Z</time>
      </trkpt>
      <trkpt lat="46.81906" lon="-1.99322">
        <ele>44.433357</ele>
        <time>2022-12-17T15:34:56.431Z</time>
      </trkpt>
      <trkpt lat="46.819" lon="-1.99333">
        <ele>44.418465</ele>
        <time>2022-12-17T15:34:59.424Z</time>
      </trkpt>
      <trkpt lat="46.81895" lon="-1.99345">
        <ele>44.403143</ele>
        <time>2022-12-17T15:35:02.442Z</time>
      </trkpt>
      <trkpt lat="46.8189" lon="-1.99359">
        <ele>44.386638</ele>
        <time>2022-12-17T15:35:05.429Z</time>
      </trkpt>
      <trkpt lat="46.81885" lon="-1.99372">
        <ele>44.370261</ele>
        <time>2022-12-17T15:35:08.447Z</time>
      </trkpt>
      <trkpt lat="46.81879" lon="-1.99384">
        <ele>44.353965</ele>
        <time>2022-12-17T15:35:11.440Z</time>
      </trkpt>
      <trkpt lat="46.81873" lon="-1.99396">
        <ele>44.338378</ele>
        <time>2022-12-17T15:35:14.431Z</time>
      </trkpt>
      <trkpt lat="46.81868" lon="-1.99408">
        <ele>44.323472</ele>
        <time>2022-12-17T15:35:17.447Z</time>
      </trkpt>
      <trkpt lat="46.81862" lon="-1.99423">
        <ele>44.248392</ele>
        <time>2022-12-17T15:35:21.428Z</time>
      </trkpt>
      <trkpt lat="46.81856" lon="-1.99437">
        <ele>44.1344</ele>
        <time>2022-12-17T15:35:24.444Z</time>
      </trkpt>
      <trkpt lat="46.81849" lon="-1.99452">
        <ele>44.004596</ele>
        <time>2022-12-17T15:35:27.425Z</time>
      </trkpt>
      <trkpt lat="46.81842" lon="-1.99467">
        <ele>43.874214</ele>
        <time>2022-12-17T15:35:30.446Z</time>
      </trkpt>
      <trkpt lat="46.81835" lon="-1.9948">
        <ele>43.757907</ele>
        <time>2022-12-17T15:35:33.428Z</time>
      </trkpt>
      <trkpt lat="46.8183" lon="-1.99493">
        <ele>43.648591</ele>
        <time>2022-12-17T15:35:36.444Z</time>
      </trkpt>
      <trkpt lat="46.81826" lon="-1.99507">
        <ele>43.540036</ele>
        <time>2022-12-17T15:35:39.430Z</time>
      </trkpt>
      <trkpt lat="46.81821" lon="-1.9952">
        <ele>43.435796</ele>
        <time>2022-12-17T15:35:42.440Z</time>
      </trkpt>
      <trkpt lat="46.81816" lon="-1.99533">
        <ele>43.332231</ele>
        <time>2022-12-17T15:35:45.440Z</time>
      </trkpt>
      <trkpt lat="46.81811" lon="-1.99544">
        <ele>43.238847</ele>
        <time>2022-12-17T15:35:48.453Z</time>
      </trkpt>
      <trkpt lat="46.81806" lon="-1.99559">
        <ele>43.118496</ele>
        <time>2022-12-17T15:35:52.451Z</time>
      </trkpt>
      <trkpt lat="46.81806" lon="-1.99575">
        <ele>43.005346</ele>
        <time>2022-12-17T15:35:57.428Z</time>
      </trkpt>
      <trkpt lat="46.8181" lon="-1.9959">
        <ele>42.889739</ele>
        <time>2022-12-17T15:36:01.434Z</time>
      </trkpt>
      <trkpt lat="46.81813" lon="-1.99605">
        <ele>42.778231</ele>
        <time>2022-12-17T15:36:04.429Z</time>
      </trkpt>
      <trkpt lat="46.81814" lon="-1.99621">
        <ele>42.661671</ele>
        <time>2022-12-17T15:36:07.432Z</time>
      </trkpt>
      <trkpt lat="46.8181" lon="-1.99637">
        <ele>42.544165</ele>
        <time>2022-12-17T15:36:10.430Z</time>
      </trkpt>
      <trkpt lat="46.81805" lon="-1.99653">
        <ele>42.451988</ele>
        <time>2022-12-17T15:36:13.446Z</time>
      </trkpt>
      <trkpt lat="46.81799" lon="-1.9967">
        <ele>42.488698</ele>
        <time>2022-12-17T15:36:16.425Z</time>
      </trkpt>
      <trkpt lat="46.81794" lon="-1.99687">
        <ele>42.525198</ele>
        <time>2022-12-17T15:36:19.440Z</time>
      </trkpt>
      <trkpt lat="46.81788" lon="-1.99703">
        <ele>42.560997</ele>
        <time>2022-12-17T15:36:22.436Z</time>
      </trkpt>
      <trkpt lat="46.81782" lon="-1.9972">
        <ele>42.597623</ele>
        <time>2022-12-17T15:36:25.458Z</time>
      </trkpt>
      <trkpt lat="46.81777" lon="-1.99736">
        <ele>42.632771</ele>
        <time>2022-12-17T15:36:28.439Z</time>
      </trkpt>
      <trkpt lat="46.81772" lon="-1.99753">
        <ele>42.668134</ele>
        <time>2022-12-17T15:36:31.447Z</time>
      </trkpt>
      <trkpt lat="46.81767" lon="-1.99769">
        <ele>42.70303</ele>
        <time>2022-12-17T15:36:34.441Z</time>
      </trkpt>
      <trkpt lat="46.81761" lon="-1.99785">
        <ele>42.738481</ele>
        <time>2022-12-17T15:36:37.446Z</time>
      </trkpt>
      <trkpt lat="46.81755" lon="-1.998">
        <ele>42.771482</ele>
        <time>2022-12-17T15:36:40.447Z</time>
      </trkpt>
      <trkpt lat="46.81749" lon="-1.99813">
        <ele>42.802597</ele>
        <time>2022-12-17T15:36:43.448Z</time>
      </trkpt>
      <trkpt lat="46.81743" lon="-1.99828">
        <ele>42.836793</ele>
        <time>2022-12-17T15:36:46.427Z</time>
      </trkpt>
      <trkpt lat="46.81737" lon="-1.99844">
        <ele>42.873252</ele>
        <time>2022-12-17T15:36:49.442Z</time>
      </trkpt>
      <trkpt lat="46.81731" lon="-1.99861">
        <ele>42.910832</ele>
        <time>2022-12-17T15:36:52.422Z</time>
      </trkpt>
      <trkpt lat="46.81724" lon="-1.99878">
        <ele>42.948048</ele>
        <time>2022-12-17T15:36:55.429Z</time>
      </trkpt>
      <trkpt lat="46.81719" lon="-1.99893">
        <ele>42.94948</ele>
        <time>2022-12-17T15:36:58.424Z</time>
      </trkpt>
      <trkpt lat="46.81715" lon="-1.99906">
        <ele>42.940176</ele>
        <time>2022-12-17T15:37:01.428Z</time>
      </trkpt>
      <trkpt lat="46.81709" lon="-1.99921">
        <ele>42.929649</ele>
        <time>2022-12-17T15:37:05.438Z</time>
      </trkpt>
      <trkpt lat="46.81703" lon="-1.99933">
        <ele>42.919994</ele>
        <time>2022-12-17T15:37:09.423Z</time>
      </trkpt>
      <trkpt lat="46.81695" lon="-1.99944">
        <ele>42.910008</ele>
        <time>2022-12-17T15:37:14.455Z</time>
      </trkpt>
      <trkpt lat="46.81687" lon="-1.99955">
        <ele>42.899738</ele>
        <time>2022-12-17T15:37:18.430Z</time>
      </trkpt>
      <trkpt lat="46.81679" lon="-1.99964">
        <ele>42.890786</ele>
        <time>2022-12-17T15:37:22.449Z</time>
      </trkpt>
      <trkpt lat="46.81668" lon="-1.99963">
        <ele>42.880307</ele>
        <time>2022-12-17T15:37:27.436Z</time>
      </trkpt>
      <trkpt lat="46.81657" lon="-1.99957">
        <ele>42.869547</ele>
        <time>2022-12-17T15:37:31.428Z</time>
      </trkpt>
      <trkpt lat="46.81647" lon="-1.99952">
        <ele>42.860212</ele>
        <time>2022-12-17T15:37:35.444Z</time>
      </trkpt>
      <trkpt lat="46.81639" lon="-1.9996">
        <ele>42.851498</ele>
        <time>2022-12-17T15:37:39.434Z</time>
      </trkpt>
      <trkpt lat="46.81634" lon="-1.99971">
        <ele>42.843244</ele>
        <time>2022-12-17T15:37:42.453Z</time>
      </trkpt>
      <trkpt lat="46.81629" lon="-1.99983">
        <ele>42.834359</ele>
        <time>2022-12-17T15:37:45.442Z</time>
      </trkpt>
      <trkpt lat="46.81623" lon="-1.99996">
        <ele>42.824393</ele>
        <time>2022-12-17T15:37:48.439Z</time>
      </trkpt>
      <trkpt lat="46.81617" lon="-2.00009">
        <ele>42.81427</ele>
        <time>2022-12-17T15:37:51.429Z</time>
      </trkpt>
      <trkpt lat="46.8161" lon="-2.00024">
        <ele>42.803262</ele>
        <time>2022-12-17T15:37:54.426Z</time>
      </trkpt>
      <trkpt lat="46.81604" lon="-2.0004">
        <ele>42.790405</ele>
        <time>2022-12-17T15:37:57.445Z</time>
      </trkpt>
      <trkpt lat="46.81597" lon="-2.00056">
        <ele>42.738323</ele>
        <time>2022-12-17T15:38:00.426Z</time>
      </trkpt>
      <trkpt lat="46.81592" lon="-2.00068">
        <ele>42.701387</ele>
        <time>2022-12-17T15:38:02.428Z</time>
      </trkpt>
      <trkpt lat="46.81586" lon="-2.0008">
        <ele>42.662761</ele>
        <time>2022-12-17T15:38:04.429Z</time>
      </trkpt>
      <trkpt lat="46.81581" lon="-2.00092">
        <ele>42.623464</ele>
        <time>2022-12-17T15:38:06.429Z</time>
      </trkpt>
      <trkpt lat="46.81576" lon="-2.00104">
        <ele>42.585249</ele>
        <time>2022-12-17T15:38:08.452Z</time>
      </trkpt>
      <trkpt lat="46.81571" lon="-2.00116">
        <ele>42.546545</ele>
        <time>2022-12-17T15:38:10.433Z</time>
      </trkpt>
      <trkpt lat="46.81566" lon="-2.00128">
        <ele>42.510275</ele>
        <time>2022-12-17T15:38:12.440Z</time>
      </trkpt>
      <trkpt lat="46.81561" lon="-2.0014">
        <ele>42.472672</ele>
        <time>2022-12-17T15:38:14.442Z</time>
      </trkpt>
      <trkpt lat="46.81557" lon="-2.00151">
        <ele>42.436869</ele>
        <time>2022-12-17T15:38:16.445Z</time>
      </trkpt>
      <trkpt lat="46.81552" lon="-2.00164">
        <ele>42.39633</ele>
        <time>2022-12-17T15:38:18.442Z</time>
      </trkpt>
      <trkpt lat="46.81546" lon="-2.00177">
        <ele>42.355473</ele>
        <time>2022-12-17T15:38:20.428Z</time>
      </trkpt>
      <trkpt lat="46.81541" lon="-2.00189">
        <ele>42.315939</ele>
        <time>2022-12-17T15:38:22.430Z</time>
      </trkpt>
      <trkpt lat="46.81535" lon="-2.00203">
        <ele>42.272735</ele>
        <time>2022-12-17T15:38:24.442Z</time>
      </trkpt>
      <trkpt lat="46.8153" lon="-2.00215">
        <ele>42.233641</ele>
        <time>2022-12-17T15:38:26.428Z</time>
      </trkpt>
      <trkpt lat="46.81525" lon="-2.00226">
        <ele>42.197403</ele>
        <time>2022-12-17T15:38:28.430Z</time>
      </trkpt>
      <trkpt lat="46.81518" lon="-2.00243">
        <ele>42.143932</ele>
        <time>2022-12-17T15:38:31.423Z</time>
      </trkpt>
      <trkpt lat="46.81511" lon="-2.0026">
        <ele>42.090973</ele>
        <time>2022-12-17T15:38:34.427Z</time>
      </trkpt>
      <trkpt lat="46.81506" lon="-2.00271">
        <ele>42.110275</ele>
        <time>2022-12-17T15:38:36.431Z</time>
      </trkpt>
      <trkpt lat="46.81501" lon="-2.00283">
        <ele>42.153035</ele>
        <time>2022-12-17T15:38:38.438Z</time>
      </trkpt>
      <trkpt lat="46.81496" lon="-2.00295">
        <ele>42.197851</ele>
        <time>2022-12-17T15:38:40.435Z</time>
      </trkpt>
      <trkpt lat="46.81491" lon="-2.00308">
        <ele>42.243456</ele>
        <time>2022-12-17T15:38:42.445Z</time>
      </trkpt>
      <trkpt lat="46.81485" lon="-2.0032">
        <ele>42.289827</ele>
        <time>2022-12-17T15:38:44.434Z</time>
      </trkpt>
      <trkpt lat="46.81479" lon="-2.00333">
        <ele>42.339242</ele>
        <time>2022-12-17T15:38:46.428Z</time>
      </trkpt>
      <trkpt lat="46.81473" lon="-2.00347">
        <ele>42.388415</ele>
        <time>2022-12-17T15:38:48.442Z</time>
      </trkpt>
      <trkpt lat="46.81468" lon="-2.00359">
        <ele>42.434048</ele>
        <time>2022-12-17T15:38:50.431Z</time>
      </trkpt>
      <trkpt lat="46.81462" lon="-2.00373">
        <ele>42.485541</ele>
        <time>2022-12-17T15:38:52.430Z</time>
      </trkpt>
      <trkpt lat="46.81456" lon="-2.00387">
        <ele>42.535481</ele>
        <time>2022-12-17T15:38:54.435Z</time>
      </trkpt>
      <trkpt lat="46.8145" lon="-2.00401">
        <ele>42.584741</ele>
        <time>2022-12-17T15:38:56.433Z</time>
      </trkpt>
      <trkpt lat="46.81445" lon="-2.00414">
        <ele>42.632683</ele>
        <time>2022-12-17T15:38:58.429Z</time>
      </trkpt>
      <trkpt lat="46.8144" lon="-2.00426">
        <ele>42.676211</ele>
        <time>2022-12-17T15:39:00.434Z</time>
      </trkpt>
      <trkpt lat="46.81433" lon="-2.00443">
        <ele>42.738275</ele>
        <time>2022-12-17T15:39:03.438Z</time>
      </trkpt>
      <trkpt lat="46.81428" lon="-2.00456">
        <ele>42.783984</ele>
        <time>2022-12-17T15:39:05.441Z</time>
      </trkpt>
      <trkpt lat="46.81423" lon="-2.00468">
        <ele>42.828785</ele>
        <time>2022-12-17T15:39:07.445Z</time>
      </trkpt>
      <trkpt lat="46.81417" lon="-2.0048">
        <ele>42.874107</ele>
        <time>2022-12-17T15:39:09.439Z</time>
      </trkpt>
      <trkpt lat="46.81412" lon="-2.00494">
        <ele>42.894804</ele>
        <time>2022-12-17T15:39:11.434Z</time>
      </trkpt>
      <trkpt lat="46.81407" lon="-2.00507">
        <ele>42.892866</ele>
        <time>2022-12-17T15:39:13.429Z</time>
      </trkpt>
      <trkpt lat="46.81401" lon="-2.00519">
        <ele>42.890984</ele>
        <time>2022-12-17T15:39:15.429Z</time>
      </trkpt>
      <trkpt lat="46.81397" lon="-2.00532">
        <ele>42.889158</ele>
        <time>2022-12-17T15:39:17.434Z</time>
      </trkpt>
      <trkpt lat="46.81391" lon="-2.00545">
        <ele>42.887242</ele>
        <time>2022-12-17T15:39:19.434Z</time>
      </trkpt>
      <trkpt lat="46.81385" lon="-2.00559">
        <ele>42.88517</ele>
        <time>2022-12-17T15:39:21.441Z</time>
      </trkpt>
      <trkpt lat="46.8138" lon="-2.00572">
        <ele>42.8832</ele>
        <time>2022-12-17T15:39:23.440Z</time>
      </trkpt>
      <trkpt lat="46.81375" lon="-2.00585">
        <ele>42.88125</ele>
        <time>2022-12-17T15:39:25.433Z</time>
      </trkpt>
      <trkpt lat="46.81369" lon="-2.00597">
        <ele>42.879504</ele>
        <time>2022-12-17T15:39:27.437Z</time>
      </trkpt>
      <trkpt lat="46.81364" lon="-2.00608">
        <ele>42.877768</ele>
        <time>2022-12-17T15:39:29.438Z</time>
      </trkpt>
      <trkpt lat="46.81358" lon="-2.0062">
        <ele>42.875969</ele>
        <time>2022-12-17T15:39:31.440Z</time>
      </trkpt>
      <trkpt lat="46.81354" lon="-2.00631">
        <ele>42.874262</ele>
        <time>2022-12-17T15:39:33.447Z</time>
      </trkpt>
      <trkpt lat="46.81348" lon="-2.00644">
        <ele>42.872369</ele>
        <time>2022-12-17T15:39:35.431Z</time>
      </trkpt>
      <trkpt lat="46.81343" lon="-2.00656">
        <ele>42.870555</ele>
        <time>2022-12-17T15:39:37.442Z</time>
      </trkpt>
      <trkpt lat="46.81338" lon="-2.00669">
        <ele>42.868703</ele>
        <time>2022-12-17T15:39:39.452Z</time>
      </trkpt>
      <trkpt lat="46.81333" lon="-2.0068">
        <ele>42.866991</ele>
        <time>2022-12-17T15:39:41.437Z</time>
      </trkpt>
      <trkpt lat="46.81327" lon="-2.00697">
        <ele>42.864566</ele>
        <time>2022-12-17T15:39:44.435Z</time>
      </trkpt>
      <trkpt lat="46.81322" lon="-2.00709">
        <ele>42.86284</ele>
        <time>2022-12-17T15:39:46.457Z</time>
      </trkpt>
      <trkpt lat="46.81314" lon="-2.00725">
        <ele>42.738129</ele>
        <time>2022-12-17T15:39:49.438Z</time>
      </trkpt>
      <trkpt lat="46.81309" lon="-2.00737">
        <ele>42.638437</ele>
        <time>2022-12-17T15:39:51.457Z</time>
      </trkpt>
      <trkpt lat="46.81305" lon="-2.0075">
        <ele>42.537656</ele>
        <time>2022-12-17T15:39:53.427Z</time>
      </trkpt>
      <trkpt lat="46.813" lon="-2.00764">
        <ele>42.43066</ele>
        <time>2022-12-17T15:39:55.442Z</time>
      </trkpt>
      <trkpt lat="46.81295" lon="-2.00776">
        <ele>42.326437</ele>
        <time>2022-12-17T15:39:57.437Z</time>
      </trkpt>
      <trkpt lat="46.81289" lon="-2.00789">
        <ele>42.21879</ele>
        <time>2022-12-17T15:39:59.433Z</time>
      </trkpt>
      <trkpt lat="46.81283" lon="-2.00803">
        <ele>42.103646</ele>
        <time>2022-12-17T15:40:01.442Z</time>
      </trkpt>
      <trkpt lat="46.81277" lon="-2.00817">
        <ele>41.988916</ele>
        <time>2022-12-17T15:40:03.435Z</time>
      </trkpt>
      <trkpt lat="46.81271" lon="-2.0083">
        <ele>41.878774</ele>
        <time>2022-12-17T15:40:05.450Z</time>
      </trkpt>
      <trkpt lat="46.81265" lon="-2.00844">
        <ele>41.768247</ele>
        <time>2022-12-17T15:40:07.438Z</time>
      </trkpt>
      <trkpt lat="46.8126" lon="-2.00858">
        <ele>41.651625</ele>
        <time>2022-12-17T15:40:09.444Z</time>
      </trkpt>
      <trkpt lat="46.81254" lon="-2.00872">
        <ele>41.532899</ele>
        <time>2022-12-17T15:40:11.456Z</time>
      </trkpt>
      <trkpt lat="46.81248" lon="-2.00887">
        <ele>41.414709</ele>
        <time>2022-12-17T15:40:13.454Z</time>
      </trkpt>
      <trkpt lat="46.81242" lon="-2.009">
        <ele>41.307021</ele>
        <time>2022-12-17T15:40:15.441Z</time>
      </trkpt>
      <trkpt lat="46.81237" lon="-2.00913">
        <ele>41.19981</ele>
        <time>2022-12-17T15:40:17.442Z</time>
      </trkpt>
      <trkpt lat="46.81231" lon="-2.00926">
        <ele>41.094447</ele>
        <time>2022-12-17T15:40:19.437Z</time>
      </trkpt>
      <trkpt lat="46.81226" lon="-2.00938">
        <ele>41.009058</ele>
        <time>2022-12-17T15:40:21.455Z</time>
      </trkpt>
      <trkpt lat="46.81221" lon="-2.0095">
        <ele>40.969057</ele>
        <time>2022-12-17T15:40:23.441Z</time>
      </trkpt>
      <trkpt lat="46.81215" lon="-2.00963">
        <ele>40.928585</ele>
        <time>2022-12-17T15:40:25.436Z</time>
      </trkpt>
      <trkpt lat="46.8121" lon="-2.00976">
        <ele>40.886991</ele>
        <time>2022-12-17T15:40:27.433Z</time>
      </trkpt>
      <trkpt lat="46.81205" lon="-2.00989">
        <ele>40.844953</ele>
        <time>2022-12-17T15:40:29.441Z</time>
      </trkpt>
      <trkpt lat="46.81199" lon="-2.01002">
        <ele>40.801942</ele>
        <time>2022-12-17T15:40:31.433Z</time>
      </trkpt>
      <trkpt lat="46.81194" lon="-2.01016">
        <ele>40.759199</ele>
        <time>2022-12-17T15:40:33.441Z</time>
      </trkpt>
      <trkpt lat="46.81187" lon="-2.01029">
        <ele>40.715615</ele>
        <time>2022-12-17T15:40:35.431Z</time>
      </trkpt>
      <trkpt lat="46.81181" lon="-2.01043">
        <ele>40.669747</ele>
        <time>2022-12-17T15:40:37.437Z</time>
      </trkpt>
      <trkpt lat="46.81176" lon="-2.01056">
        <ele>40.627728</ele>
        <time>2022-12-17T15:40:39.439Z</time>
      </trkpt>
      <trkpt lat="46.81171" lon="-2.01068">
        <ele>40.588062</ele>
        <time>2022-12-17T15:40:41.439Z</time>
      </trkpt>
      <trkpt lat="46.81166" lon="-2.0108">
        <ele>40.550541</ele>
        <time>2022-12-17T15:40:43.430Z</time>
      </trkpt>
      <trkpt lat="46.81159" lon="-2.01096">
        <ele>40.49986</ele>
        <time>2022-12-17T15:40:46.431Z</time>
      </trkpt>
      <trkpt lat="46.81155" lon="-2.01107">
        <ele>40.462102</ele>
        <time>2022-12-17T15:40:48.462Z</time>
      </trkpt>
      <trkpt lat="46.81147" lon="-2.01125">
        <ele>40.405937</ele>
        <time>2022-12-17T15:40:51.443Z</time>
      </trkpt>
      <trkpt lat="46.81142" lon="-2.01138">
        <ele>40.363326</ele>
        <time>2022-12-17T15:40:53.435Z</time>
      </trkpt>
      <trkpt lat="46.81137" lon="-2.01151">
        <ele>40.32269</ele>
        <time>2022-12-17T15:40:55.433Z</time>
      </trkpt>
      <trkpt lat="46.81131" lon="-2.01163">
        <ele>40.326659</ele>
        <time>2022-12-17T15:40:57.437Z</time>
      </trkpt>
      <trkpt lat="46.81126" lon="-2.01176">
        <ele>40.41548</ele>
        <time>2022-12-17T15:40:59.434Z</time>
      </trkpt>
      <trkpt lat="46.8112" lon="-2.0119">
        <ele>40.506066</ele>
        <time>2022-12-17T15:41:01.442Z</time>
      </trkpt>
      <trkpt lat="46.81114" lon="-2.01203">
        <ele>40.593727</ele>
        <time>2022-12-17T15:41:03.449Z</time>
      </trkpt>
      <trkpt lat="46.81109" lon="-2.01217">
        <ele>40.686903</ele>
        <time>2022-12-17T15:41:05.432Z</time>
      </trkpt>
      <trkpt lat="46.81103" lon="-2.0123">
        <ele>40.774745</ele>
        <time>2022-12-17T15:41:07.427Z</time>
      </trkpt>
      <trkpt lat="46.81098" lon="-2.01243">
        <ele>40.859451</ele>
        <time>2022-12-17T15:41:09.445Z</time>
      </trkpt>
      <trkpt lat="46.81093" lon="-2.01255">
        <ele>40.9401</ele>
        <time>2022-12-17T15:41:11.433Z</time>
      </trkpt>
      <trkpt lat="46.81088" lon="-2.01267">
        <ele>41.019374</ele>
        <time>2022-12-17T15:41:13.436Z</time>
      </trkpt>
      <trkpt lat="46.81083" lon="-2.01279">
        <ele>41.099237</ele>
        <time>2022-12-17T15:41:15.456Z</time>
      </trkpt>
      <trkpt lat="46.81078" lon="-2.01291">
        <ele>41.180989</ele>
        <time>2022-12-17T15:41:17.429Z</time>
      </trkpt>
      <trkpt lat="46.81073" lon="-2.01304">
        <ele>41.265436</ele>
        <time>2022-12-17T15:41:19.443Z</time>
      </trkpt>
      <trkpt lat="46.81067" lon="-2.01317">
        <ele>41.351878</ele>
        <time>2022-12-17T15:41:21.439Z</time>
      </trkpt>
      <trkpt lat="46.81062" lon="-2.0133">
        <ele>41.436089</ele>
        <time>2022-12-17T15:41:23.430Z</time>
      </trkpt>
      <trkpt lat="46.81057" lon="-2.01344">
        <ele>41.524495</ele>
        <time>2022-12-17T15:41:25.428Z</time>
      </trkpt>
      <trkpt lat="46.81052" lon="-2.01356">
        <ele>41.607479</ele>
        <time>2022-12-17T15:41:27.435Z</time>
      </trkpt>
      <trkpt lat="46.81046" lon="-2.01369">
        <ele>41.692521</ele>
        <time>2022-12-17T15:41:29.439Z</time>
      </trkpt>
      <trkpt lat="46.81041" lon="-2.01381">
        <ele>41.775128</ele>
        <time>2022-12-17T15:41:31.433Z</time>
      </trkpt>
      <trkpt lat="46.81035" lon="-2.01396">
        <ele>41.745299</ele>
        <time>2022-12-17T15:41:34.432Z</time>
      </trkpt>
      <trkpt lat="46.81028" lon="-2.01411">
        <ele>41.690162</ele>
        <time>2022-12-17T15:41:37.442Z</time>
      </trkpt>
      <trkpt lat="46.81021" lon="-2.01427">
        <ele>41.634964</ele>
        <time>2022-12-17T15:41:40.433Z</time>
      </trkpt>
      <trkpt lat="46.81015" lon="-2.01443">
        <ele>41.577538</ele>
        <time>2022-12-17T15:41:43.440Z</time>
      </trkpt>
      <trkpt lat="46.81009" lon="-2.01456">
        <ele>41.53146</ele>
        <time>2022-12-17T15:41:45.429Z</time>
      </trkpt>
      <trkpt lat="46.81005" lon="-2.01468">
        <ele>41.490649</ele>
        <time>2022-12-17T15:41:47.431Z</time>
      </trkpt>
      <trkpt lat="46.81" lon="-2.01479">
        <ele>41.450896</ele>
        <time>2022-12-17T15:41:49.429Z</time>
      </trkpt>
      <trkpt lat="46.80995" lon="-2.01491">
        <ele>41.408602</ele>
        <time>2022-12-17T15:41:51.429Z</time>
      </trkpt>
      <trkpt lat="46.80988" lon="-2.01508">
        <ele>41.349498</ele>
        <time>2022-12-17T15:41:54.439Z</time>
      </trkpt>
      <trkpt lat="46.80982" lon="-2.01519">
        <ele>41.308517</ele>
        <time>2022-12-17T15:41:56.429Z</time>
      </trkpt>
      <trkpt lat="46.80975" lon="-2.01536">
        <ele>41.2478</ele>
        <time>2022-12-17T15:41:59.436Z</time>
      </trkpt>
      <trkpt lat="46.8097" lon="-2.01548">
        <ele>41.205506</ele>
        <time>2022-12-17T15:42:01.431Z</time>
      </trkpt>
      <trkpt lat="46.80965" lon="-2.01561">
        <ele>41.160272</ele>
        <time>2022-12-17T15:42:03.446Z</time>
      </trkpt>
      <trkpt lat="46.8096" lon="-2.01574">
        <ele>41.115235</ele>
        <time>2022-12-17T15:42:05.433Z</time>
      </trkpt>
      <trkpt lat="46.80955" lon="-2.01587">
        <ele>41.070973</ele>
        <time>2022-12-17T15:42:07.432Z</time>
      </trkpt>
      <trkpt lat="46.80949" lon="-2.01599">
        <ele>41.027453</ele>
        <time>2022-12-17T15:42:09.439Z</time>
      </trkpt>
      <trkpt lat="46.80944" lon="-2.01612">
        <ele>41.025582</ele>
        <time>2022-12-17T15:42:11.426Z</time>
      </trkpt>
      <trkpt lat="46.80937" lon="-2.01629">
        <ele>41.115601</ele>
        <time>2022-12-17T15:42:14.450Z</time>
      </trkpt>
      <trkpt lat="46.80932" lon="-2.01641">
        <ele>41.180407</ele>
        <time>2022-12-17T15:42:16.427Z</time>
      </trkpt>
      <trkpt lat="46.80925" lon="-2.01656">
        <ele>41.263551</ele>
        <time>2022-12-17T15:42:19.438Z</time>
      </trkpt>
      <trkpt lat="46.8092" lon="-2.0167">
        <ele>41.338943</ele>
        <time>2022-12-17T15:42:22.433Z</time>
      </trkpt>
      <trkpt lat="46.80914" lon="-2.01684">
        <ele>41.414278</ele>
        <time>2022-12-17T15:42:25.438Z</time>
      </trkpt>
      <trkpt lat="46.80907" lon="-2.01698">
        <ele>41.491788</ele>
        <time>2022-12-17T15:42:28.442Z</time>
      </trkpt>
      <trkpt lat="46.80901" lon="-2.01714">
        <ele>41.577383</ele>
        <time>2022-12-17T15:42:31.451Z</time>
      </trkpt>
      <trkpt lat="46.80894" lon="-2.0173">
        <ele>41.667516</ele>
        <time>2022-12-17T15:42:34.432Z</time>
      </trkpt>
      <trkpt lat="46.80889" lon="-2.01742">
        <ele>41.729926</ele>
        <time>2022-12-17T15:42:36.453Z</time>
      </trkpt>
      <trkpt lat="46.80884" lon="-2.01753">
        <ele>41.791499</ele>
        <time>2022-12-17T15:42:38.441Z</time>
      </trkpt>
      <trkpt lat="46.80879" lon="-2.01766">
        <ele>41.857227</ele>
        <time>2022-12-17T15:42:40.436Z</time>
      </trkpt>
      <trkpt lat="46.80874" lon="-2.01777">
        <ele>41.919128</ele>
        <time>2022-12-17T15:42:42.461Z</time>
      </trkpt>
      <trkpt lat="46.80869" lon="-2.01789">
        <ele>41.983533</ele>
        <time>2022-12-17T15:42:44.442Z</time>
      </trkpt>
      <trkpt lat="46.80864" lon="-2.01801">
        <ele>42.050738</ele>
        <time>2022-12-17T15:42:46.439Z</time>
      </trkpt>
      <trkpt lat="46.80859" lon="-2.01813">
        <ele>42.114282</ele>
        <time>2022-12-17T15:42:48.468Z</time>
      </trkpt>
      <trkpt lat="46.80852" lon="-2.0183">
        <ele>42.205899</ele>
        <time>2022-12-17T15:42:51.439Z</time>
      </trkpt>
      <trkpt lat="46.80847" lon="-2.01846">
        <ele>42.130427</ele>
        <time>2022-12-17T15:42:54.438Z</time>
      </trkpt>
      <trkpt lat="46.80844" lon="-2.0186">
        <ele>42.06294</ele>
        <time>2022-12-17T15:42:57.439Z</time>
      </trkpt>
      <trkpt lat="46.80843" lon="-2.01874">
        <ele>41.99952</ele>
        <time>2022-12-17T15:43:00.437Z</time>
      </trkpt>
      <trkpt lat="46.80846" lon="-2.01887">
        <ele>41.935036</ele>
        <time>2022-12-17T15:43:03.442Z</time>
      </trkpt>
      <trkpt lat="46.80842" lon="-2.01904">
        <ele>41.857681</ele>
        <time>2022-12-17T15:43:07.439Z</time>
      </trkpt>
      <trkpt lat="46.80834" lon="-2.01908">
        <ele>41.797336</ele>
        <time>2022-12-17T15:43:10.436Z</time>
      </trkpt>
      <trkpt lat="46.80823" lon="-2.01915">
        <ele>41.720494</ele>
        <time>2022-12-17T15:43:14.442Z</time>
      </trkpt>
      <trkpt lat="46.80816" lon="-2.01929">
        <ele>41.643303</ele>
        <time>2022-12-17T15:43:18.443Z</time>
      </trkpt>
      <trkpt lat="46.80809" lon="-2.01945">
        <ele>41.555618</ele>
        <time>2022-12-17T15:43:21.463Z</time>
      </trkpt>
      <trkpt lat="46.80803" lon="-2.01956">
        <ele>41.487745</ele>
        <time>2022-12-17T15:43:23.444Z</time>
      </trkpt>
      <trkpt lat="46.80798" lon="-2.01968">
        <ele>41.42483</ele>
        <time>2022-12-17T15:43:25.441Z</time>
      </trkpt>
      <trkpt lat="46.80792" lon="-2.01981">
        <ele>41.355195</ele>
        <time>2022-12-17T15:43:27.436Z</time>
      </trkpt>
      <trkpt lat="46.80787" lon="-2.01993">
        <ele>41.289732</ele>
        <time>2022-12-17T15:43:29.443Z</time>
      </trkpt>
      <trkpt lat="46.80782" lon="-2.02005">
        <ele>41.224615</ele>
        <time>2022-12-17T15:43:31.435Z</time>
      </trkpt>
      <trkpt lat="46.80778" lon="-2.02017">
        <ele>41.164748</ele>
        <time>2022-12-17T15:43:33.427Z</time>
      </trkpt>
      <trkpt lat="46.80772" lon="-2.02027">
        <ele>41.103837</ele>
        <time>2022-12-17T15:43:35.437Z</time>
      </trkpt>
      <trkpt lat="46.80764" lon="-2.02041">
        <ele>41.01961</ele>
        <time>2022-12-17T15:43:38.455Z</time>
      </trkpt>
      <trkpt lat="46.80758" lon="-2.02054">
        <ele>40.998615</ele>
        <time>2022-12-17T15:43:41.451Z</time>
      </trkpt>
      <trkpt lat="46.80753" lon="-2.02067">
        <ele>40.990205</ele>
        <time>2022-12-17T15:43:44.437Z</time>
      </trkpt>
      <trkpt lat="46.80746" lon="-2.02083">
        <ele>40.980589</ele>
        <time>2022-12-17T15:43:47.450Z</time>
      </trkpt>
      <trkpt lat="46.80741" lon="-2.02095">
        <ele>40.973043</ele>
        <time>2022-12-17T15:43:49.442Z</time>
      </trkpt>
      <trkpt lat="46.80735" lon="-2.02108">
        <ele>40.965212</ele>
        <time>2022-12-17T15:43:51.446Z</time>
      </trkpt>
      <trkpt lat="46.8073" lon="-2.02121">
        <ele>40.957158</ele>
        <time>2022-12-17T15:43:53.446Z</time>
      </trkpt>
      <trkpt lat="46.80725" lon="-2.02133">
        <ele>40.949669</ele>
        <time>2022-12-17T15:43:55.441Z</time>
      </trkpt>
      <trkpt lat="46.8072" lon="-2.02145">
        <ele>40.942375</ele>
        <time>2022-12-17T15:43:57.438Z</time>
      </trkpt>
      <trkpt lat="46.80715" lon="-2.02157">
        <ele>40.934544</ele>
        <time>2022-12-17T15:43:59.441Z</time>
      </trkpt>
      <trkpt lat="46.8071" lon="-2.0217">
        <ele>40.92697</ele>
        <time>2022-12-17T15:44:01.463Z</time>
      </trkpt>
      <trkpt lat="46.80704" lon="-2.02182">
        <ele>40.919229</ele>
        <time>2022-12-17T15:44:03.439Z</time>
      </trkpt>
      <trkpt lat="46.80699" lon="-2.02193">
        <ele>40.912265</ele>
        <time>2022-12-17T15:44:05.433Z</time>
      </trkpt>
      <trkpt lat="46.80694" lon="-2.02206">
        <ele>40.904589</ele>
        <time>2022-12-17T15:44:07.431Z</time>
      </trkpt>
      <trkpt lat="46.80688" lon="-2.02218">
        <ele>40.896631</ele>
        <time>2022-12-17T15:44:09.448Z</time>
      </trkpt>
      <trkpt lat="46.80683" lon="-2.02231">
        <ele>40.888689</ele>
        <time>2022-12-17T15:44:11.432Z</time>
      </trkpt>
      <trkpt lat="46.80678" lon="-2.02244">
        <ele>40.880708</ele>
        <time>2022-12-17T15:44:13.441Z</time>
      </trkpt>
      <trkpt lat="46.80672" lon="-2.02258">
        <ele>40.872349</ele>
        <time>2022-12-17T15:44:15.442Z</time>
      </trkpt>
      <trkpt lat="46.80667" lon="-2.02271">
        <ele>40.855172</ele>
        <time>2022-12-17T15:44:17.433Z</time>
      </trkpt>
      <trkpt lat="46.80662" lon="-2.02284">
        <ele>40.819867</ele>
        <time>2022-12-17T15:44:19.435Z</time>
      </trkpt>
      <trkpt lat="46.80655" lon="-2.023">
        <ele>40.772955</ele>
        <time>2022-12-17T15:44:22.432Z</time>
      </trkpt>
      <trkpt lat="46.8065" lon="-2.02316">
        <ele>40.727038</ele>
        <time>2022-12-17T15:44:25.429Z</time>
      </trkpt>
      <trkpt lat="46.80645" lon="-2.02328">
        <ele>40.694164</ele>
        <time>2022-12-17T15:44:27.431Z</time>
      </trkpt>
      <trkpt lat="46.8064" lon="-2.0234">
        <ele>40.660631</ele>
        <time>2022-12-17T15:44:29.440Z</time>
      </trkpt>
      <trkpt lat="46.80635" lon="-2.02351">
        <ele>40.627322</ele>
        <time>2022-12-17T15:44:31.465Z</time>
      </trkpt>
      <trkpt lat="46.80631" lon="-2.02362">
        <ele>40.593999</ele>
        <time>2022-12-17T15:44:33.433Z</time>
      </trkpt>
      <trkpt lat="46.80623" lon="-2.02379">
        <ele>40.545155</ele>
        <time>2022-12-17T15:44:36.439Z</time>
      </trkpt>
      <trkpt lat="46.80617" lon="-2.02391">
        <ele>40.508587</ele>
        <time>2022-12-17T15:44:38.439Z</time>
      </trkpt>
      <trkpt lat="46.80611" lon="-2.02408">
        <ele>40.459689</ele>
        <time>2022-12-17T15:44:41.434Z</time>
      </trkpt>
      <trkpt lat="46.80604" lon="-2.02425">
        <ele>40.410244</ele>
        <time>2022-12-17T15:44:44.432Z</time>
      </trkpt>
      <trkpt lat="46.80598" lon="-2.02437">
        <ele>40.375098</ele>
        <time>2022-12-17T15:44:46.463Z</time>
      </trkpt>
      <trkpt lat="46.80593" lon="-2.02449">
        <ele>40.340149</ele>
        <time>2022-12-17T15:44:48.445Z</time>
      </trkpt>
      <trkpt lat="46.80588" lon="-2.02462">
        <ele>40.303302</ele>
        <time>2022-12-17T15:44:50.440Z</time>
      </trkpt>
      <trkpt lat="46.80583" lon="-2.02474">
        <ele>40.268525</ele>
        <time>2022-12-17T15:44:52.450Z</time>
      </trkpt>
      <trkpt lat="46.80578" lon="-2.02485">
        <ele>40.235552</ele>
        <time>2022-12-17T15:44:54.443Z</time>
      </trkpt>
      <trkpt lat="46.80573" lon="-2.02497">
        <ele>40.240644</ele>
        <time>2022-12-17T15:44:56.444Z</time>
      </trkpt>
      <trkpt lat="46.80568" lon="-2.02508">
        <ele>40.29275</ele>
        <time>2022-12-17T15:44:58.442Z</time>
      </trkpt>
      <trkpt lat="46.80564" lon="-2.0252">
        <ele>40.346983</ele>
        <time>2022-12-17T15:45:00.460Z</time>
      </trkpt>
      <trkpt lat="46.80559" lon="-2.02532">
        <ele>40.401331</ele>
        <time>2022-12-17T15:45:02.429Z</time>
      </trkpt>
      <trkpt lat="46.80553" lon="-2.02544">
        <ele>40.456326</ele>
        <time>2022-12-17T15:45:04.448Z</time>
      </trkpt>
      <trkpt lat="46.80548" lon="-2.02556">
        <ele>40.512104</ele>
        <time>2022-12-17T15:45:06.449Z</time>
      </trkpt>
      <trkpt lat="46.80543" lon="-2.02568">
        <ele>40.572306</ele>
        <time>2022-12-17T15:45:08.434Z</time>
      </trkpt>
      <trkpt lat="46.80537" lon="-2.02582">
        <ele>40.634016</ele>
        <time>2022-12-17T15:45:10.429Z</time>
      </trkpt>
      <trkpt lat="46.80532" lon="-2.02594">
        <ele>40.689162</ele>
        <time>2022-12-17T15:45:12.439Z</time>
      </trkpt>
      <trkpt lat="46.80528" lon="-2.02606">
        <ele>40.744022</ele>
        <time>2022-12-17T15:45:14.443Z</time>
      </trkpt>
      <trkpt lat="46.80521" lon="-2.0262">
        <ele>40.808776</ele>
        <time>2022-12-17T15:45:17.444Z</time>
      </trkpt>
      <trkpt lat="46.80516" lon="-2.02632">
        <ele>40.86443</ele>
        <time>2022-12-17T15:45:20.449Z</time>
      </trkpt>
      <trkpt lat="46.80511" lon="-2.02644">
        <ele>40.921981</ele>
        <time>2022-12-17T15:45:23.435Z</time>
      </trkpt>
      <trkpt lat="46.80506" lon="-2.02659">
        <ele>40.985758</ele>
        <time>2022-12-17T15:45:26.435Z</time>
      </trkpt>
      <trkpt lat="46.805" lon="-2.02673">
        <ele>41.053791</ele>
        <time>2022-12-17T15:45:29.433Z</time>
      </trkpt>
      <trkpt lat="46.80493" lon="-2.02688">
        <ele>41.124497</ele>
        <time>2022-12-17T15:45:32.436Z</time>
      </trkpt>
      <trkpt lat="46.80488" lon="-2.02704">
        <ele>41.192912</ele>
        <time>2022-12-17T15:45:35.433Z</time>
      </trkpt>
      <trkpt lat="46.80481" lon="-2.02719">
        <ele>41.258747</ele>
        <time>2022-12-17T15:45:38.431Z</time>
      </trkpt>
      <trkpt lat="46.80475" lon="-2.02735">
        <ele>41.30264</ele>
        <time>2022-12-17T15:45:41.432Z</time>
      </trkpt>
      <trkpt lat="46.80468" lon="-2.0275">
        <ele>41.345733</ele>
        <time>2022-12-17T15:45:44.445Z</time>
      </trkpt>
      <trkpt lat="46.80461" lon="-2.02765">
        <ele>41.389225</ele>
        <time>2022-12-17T15:45:47.431Z</time>
      </trkpt>
      <trkpt lat="46.80455" lon="-2.02779">
        <ele>41.428966</ele>
        <time>2022-12-17T15:45:50.440Z</time>
      </trkpt>
      <trkpt lat="46.80448" lon="-2.02794">
        <ele>41.472069</ele>
        <time>2022-12-17T15:45:53.429Z</time>
      </trkpt>
      <trkpt lat="46.80444" lon="-2.02806">
        <ele>41.504538</ele>
        <time>2022-12-17T15:45:56.459Z</time>
      </trkpt>
      <trkpt lat="46.80439" lon="-2.02819">
        <ele>41.539189</ele>
        <time>2022-12-17T15:45:59.427Z</time>
      </trkpt>
      <trkpt lat="46.80433" lon="-2.02833">
        <ele>41.579178</ele>
        <time>2022-12-17T15:46:02.426Z</time>
      </trkpt>
      <trkpt lat="46.80426" lon="-2.02848">
        <ele>41.622067</ele>
        <time>2022-12-17T15:46:05.435Z</time>
      </trkpt>
      <trkpt lat="46.80419" lon="-2.02864">
        <ele>41.66819</ele>
        <time>2022-12-17T15:46:08.441Z</time>
      </trkpt>
      <trkpt lat="46.80414" lon="-2.02876">
        <ele>41.69968</ele>
        <time>2022-12-17T15:46:10.432Z</time>
      </trkpt>
      <trkpt lat="46.80407" lon="-2.02892">
        <ele>41.745154</ele>
        <time>2022-12-17T15:46:13.459Z</time>
      </trkpt>
      <trkpt lat="46.80401" lon="-2.02906">
        <ele>41.786301</ele>
        <time>2022-12-17T15:46:16.434Z</time>
      </trkpt>
      <trkpt lat="46.80396" lon="-2.02919">
        <ele>41.822406</ele>
        <time>2022-12-17T15:46:19.438Z</time>
      </trkpt>
      <trkpt lat="46.8039" lon="-2.02933">
        <ele>41.861989</ele>
        <time>2022-12-17T15:46:22.431Z</time>
      </trkpt>
      <trkpt lat="46.80383" lon="-2.02949">
        <ele>41.835061</ele>
        <time>2022-12-17T15:46:25.446Z</time>
      </trkpt>
      <trkpt lat="46.80377" lon="-2.02965">
        <ele>41.764827</ele>
        <time>2022-12-17T15:46:28.435Z</time>
      </trkpt>
      <trkpt lat="46.8037" lon="-2.0298">
        <ele>41.69639</ele>
        <time>2022-12-17T15:46:31.442Z</time>
      </trkpt>
      <trkpt lat="46.80364" lon="-2.02995">
        <ele>41.635216</ele>
        <time>2022-12-17T15:46:34.447Z</time>
      </trkpt>
      <trkpt lat="46.80358" lon="-2.03008">
        <ele>41.574839</ele>
        <time>2022-12-17T15:46:37.437Z</time>
      </trkpt>
      <trkpt lat="46.80352" lon="-2.03023">
        <ele>41.50911</ele>
        <time>2022-12-17T15:46:40.463Z</time>
      </trkpt>
      <trkpt lat="46.80345" lon="-2.03039">
        <ele>41.437246</ele>
        <time>2022-12-17T15:46:43.467Z</time>
      </trkpt>
      <trkpt lat="46.80338" lon="-2.03054">
        <ele>41.368116</ele>
        <time>2022-12-17T15:46:46.468Z</time>
      </trkpt>
      <trkpt lat="46.80331" lon="-2.03071">
        <ele>41.295005</ele>
        <time>2022-12-17T15:46:49.437Z</time>
      </trkpt>
      <trkpt lat="46.80325" lon="-2.03084">
        <ele>41.236492</ele>
        <time>2022-12-17T15:46:52.435Z</time>
      </trkpt>
      <trkpt lat="46.8032" lon="-2.03097">
        <ele>41.180337</ele>
        <time>2022-12-17T15:46:55.436Z</time>
      </trkpt>
      <trkpt lat="46.80315" lon="-2.0311">
        <ele>41.120142</ele>
        <time>2022-12-17T15:46:58.435Z</time>
      </trkpt>
      <trkpt lat="46.80308" lon="-2.03126">
        <ele>41.051676</ele>
        <time>2022-12-17T15:47:01.440Z</time>
      </trkpt>
      <trkpt lat="46.80303" lon="-2.03137">
        <ele>41.002184</ele>
        <time>2022-12-17T15:47:03.443Z</time>
      </trkpt>
      <trkpt lat="46.80297" lon="-2.03149">
        <ele>40.94584</ele>
        <time>2022-12-17T15:47:05.437Z</time>
      </trkpt>
      <trkpt lat="46.80293" lon="-2.0316">
        <ele>40.896113</ele>
        <time>2022-12-17T15:47:07.430Z</time>
      </trkpt>
      <trkpt lat="46.80288" lon="-2.03172">
        <ele>40.873316</ele>
        <time>2022-12-17T15:47:09.440Z</time>
      </trkpt>
      <trkpt lat="46.80283" lon="-2.03184">
        <ele>40.855818</ele>
        <time>2022-12-17T15:47:11.425Z</time>
      </trkpt>
      <trkpt lat="46.80276" lon="-2.032">
        <ele>40.831223</ele>
        <time>2022-12-17T15:47:14.431Z</time>
      </trkpt>
      <trkpt lat="46.80272" lon="-2.03212">
        <ele>40.813866</ele>
        <time>2022-12-17T15:47:16.446Z</time>
      </trkpt>
      <trkpt lat="46.80267" lon="-2.03223">
        <ele>40.79693</ele>
        <time>2022-12-17T15:47:18.456Z</time>
      </trkpt>
      <trkpt lat="46.8026" lon="-2.03239">
        <ele>40.771913</ele>
        <time>2022-12-17T15:47:21.434Z</time>
      </trkpt>
      <trkpt lat="46.80253" lon="-2.03255">
        <ele>40.747914</ele>
        <time>2022-12-17T15:47:24.441Z</time>
      </trkpt>
      <trkpt lat="46.80248" lon="-2.03268">
        <ele>40.728217</ele>
        <time>2022-12-17T15:47:26.449Z</time>
      </trkpt>
      <trkpt lat="46.80242" lon="-2.0328">
        <ele>40.709368</ele>
        <time>2022-12-17T15:47:28.438Z</time>
      </trkpt>
      <trkpt lat="46.80235" lon="-2.03296">
        <ele>40.685223</ele>
        <time>2022-12-17T15:47:31.430Z</time>
      </trkpt>
      <trkpt lat="46.8023" lon="-2.03311">
        <ele>40.662776</ele>
        <time>2022-12-17T15:47:34.462Z</time>
      </trkpt>
      <trkpt lat="46.80225" lon="-2.03323">
        <ele>40.645484</ele>
        <time>2022-12-17T15:47:36.434Z</time>
      </trkpt>
      <trkpt lat="46.80218" lon="-2.0334">
        <ele>40.619906</ele>
        <time>2022-12-17T15:47:39.444Z</time>
      </trkpt>
      <trkpt lat="46.80211" lon="-2.03356">
        <ele>40.595573</ele>
        <time>2022-12-17T15:47:42.434Z</time>
      </trkpt>
      <trkpt lat="46.80206" lon="-2.03368">
        <ele>40.577049</ele>
        <time>2022-12-17T15:47:44.434Z</time>
      </trkpt>
      <trkpt lat="46.80201" lon="-2.0338">
        <ele>40.559122</ele>
        <time>2022-12-17T15:47:46.445Z</time>
      </trkpt>
      <trkpt lat="46.80197" lon="-2.03391">
        <ele>40.541561</ele>
        <time>2022-12-17T15:47:48.437Z</time>
      </trkpt>
      <trkpt lat="46.80191" lon="-2.03404">
        <ele>40.521534</ele>
        <time>2022-12-17T15:47:50.437Z</time>
      </trkpt>
      <trkpt lat="46.80186" lon="-2.03416">
        <ele>40.502379</ele>
        <time>2022-12-17T15:47:52.435Z</time>
      </trkpt>
      <trkpt lat="46.80181" lon="-2.03429">
        <ele>40.481428</ele>
        <time>2022-12-17T15:47:54.442Z</time>
      </trkpt>
      <trkpt lat="46.80175" lon="-2.03441">
        <ele>40.46128</ele>
        <time>2022-12-17T15:47:56.431Z</time>
      </trkpt>
      <trkpt lat="46.8017" lon="-2.03454">
        <ele>40.44069</ele>
        <time>2022-12-17T15:47:58.432Z</time>
      </trkpt>
      <trkpt lat="46.80164" lon="-2.03467">
        <ele>40.41905</ele>
        <time>2022-12-17T15:48:00.434Z</time>
      </trkpt>
      <trkpt lat="46.80159" lon="-2.03481">
        <ele>40.397694</ele>
        <time>2022-12-17T15:48:02.445Z</time>
      </trkpt>
      <trkpt lat="46.80153" lon="-2.03494">
        <ele>40.376425</ele>
        <time>2022-12-17T15:48:04.444Z</time>
      </trkpt>
      <trkpt lat="46.80148" lon="-2.03507">
        <ele>40.354652</ele>
        <time>2022-12-17T15:48:06.437Z</time>
      </trkpt>
      <trkpt lat="46.80143" lon="-2.0352">
        <ele>40.334567</ele>
        <time>2022-12-17T15:48:08.454Z</time>
      </trkpt>
      <trkpt lat="46.80135" lon="-2.03536">
        <ele>40.307756</ele>
        <time>2022-12-17T15:48:11.439Z</time>
      </trkpt>
      <trkpt lat="46.80128" lon="-2.0355">
        <ele>40.284338</ele>
        <time>2022-12-17T15:48:14.462Z</time>
      </trkpt>
      <trkpt lat="46.80123" lon="-2.03564">
        <ele>40.26258</ele>
        <time>2022-12-17T15:48:17.440Z</time>
      </trkpt>
      <trkpt lat="46.80116" lon="-2.03579">
        <ele>40.238337</ele>
        <time>2022-12-17T15:48:20.456Z</time>
      </trkpt>
      <trkpt lat="46.80109" lon="-2.03596">
        <ele>40.211036</ele>
        <time>2022-12-17T15:48:23.447Z</time>
      </trkpt>
      <trkpt lat="46.80103" lon="-2.03613">
        <ele>40.200211</ele>
        <time>2022-12-17T15:48:26.455Z</time>
      </trkpt>
      <trkpt lat="46.80097" lon="-2.03626">
        <ele>40.250917</ele>
        <time>2022-12-17T15:48:28.459Z</time>
      </trkpt>
      <trkpt lat="46.80092" lon="-2.03638">
        <ele>40.297045</ele>
        <time>2022-12-17T15:48:30.439Z</time>
      </trkpt>
      <trkpt lat="46.80087" lon="-2.03651">
        <ele>40.347244</ele>
        <time>2022-12-17T15:48:32.438Z</time>
      </trkpt>
      <trkpt lat="46.80081" lon="-2.03663">
        <ele>40.397374</ele>
        <time>2022-12-17T15:48:34.437Z</time>
      </trkpt>
      <trkpt lat="46.80076" lon="-2.03675">
        <ele>40.44464</ele>
        <time>2022-12-17T15:48:36.443Z</time>
      </trkpt>
      <trkpt lat="46.80069" lon="-2.03691">
        <ele>40.506346</ele>
        <time>2022-12-17T15:48:39.439Z</time>
      </trkpt>
      <trkpt lat="46.80062" lon="-2.03708">
        <ele>40.569644</ele>
        <time>2022-12-17T15:48:42.459Z</time>
      </trkpt>
      <trkpt lat="46.80055" lon="-2.03724">
        <ele>40.635024</ele>
        <time>2022-12-17T15:48:45.445Z</time>
      </trkpt>
      <trkpt lat="46.80048" lon="-2.03742">
        <ele>40.701506</ele>
        <time>2022-12-17T15:48:48.462Z</time>
      </trkpt>
      <trkpt lat="46.80042" lon="-2.03753">
        <ele>40.749572</ele>
        <time>2022-12-17T15:48:50.431Z</time>
      </trkpt>
      <trkpt lat="46.80037" lon="-2.03765">
        <ele>40.793589</ele>
        <time>2022-12-17T15:48:52.431Z</time>
      </trkpt>
      <trkpt lat="46.80033" lon="-2.03777">
        <ele>40.839112</ele>
        <time>2022-12-17T15:48:54.456Z</time>
      </trkpt>
      <trkpt lat="46.80028" lon="-2.03789">
        <ele>40.886907</ele>
        <time>2022-12-17T15:48:56.435Z</time>
      </trkpt>
      <trkpt lat="46.80023" lon="-2.03801">
        <ele>40.933284</ele>
        <time>2022-12-17T15:48:58.435Z</time>
      </trkpt>
      <trkpt lat="46.80018" lon="-2.03813">
        <ele>40.979354</ele>
        <time>2022-12-17T15:49:00.434Z</time>
      </trkpt>
      <trkpt lat="46.80012" lon="-2.03825">
        <ele>41.027029</ele>
        <time>2022-12-17T15:49:02.439Z</time>
      </trkpt>
      <trkpt lat="46.80006" lon="-2.03842">
        <ele>41.025648</ele>
        <time>2022-12-17T15:49:05.444Z</time>
      </trkpt>
      <trkpt lat="46.79999" lon="-2.03858">
        <ele>40.970991</ele>
        <time>2022-12-17T15:49:08.466Z</time>
      </trkpt>
      <trkpt lat="46.79992" lon="-2.03872">
        <ele>40.918168</ele>
        <time>2022-12-17T15:49:11.432Z</time>
      </trkpt>
      <trkpt lat="46.79986" lon="-2.03886">
        <ele>40.868488</ele>
        <time>2022-12-17T15:49:14.437Z</time>
      </trkpt>
      <trkpt lat="46.7998" lon="-2.03899">
        <ele>40.822291</ele>
        <time>2022-12-17T15:49:17.441Z</time>
      </trkpt>
      <trkpt lat="46.79974" lon="-2.03913">
        <ele>40.773116</ele>
        <time>2022-12-17T15:49:20.435Z</time>
      </trkpt>
      <trkpt lat="46.79969" lon="-2.03927">
        <ele>40.724585</ele>
        <time>2022-12-17T15:49:23.429Z</time>
      </trkpt>
      <trkpt lat="46.79964" lon="-2.0394">
        <ele>40.681292</ele>
        <time>2022-12-17T15:49:26.443Z</time>
      </trkpt>
      <trkpt lat="46.79958" lon="-2.03953">
        <ele>40.636723</ele>
        <time>2022-12-17T15:49:29.450Z</time>
      </trkpt>
      <trkpt lat="46.79953" lon="-2.03967">
        <ele>40.586426</ele>
        <time>2022-12-17T15:49:32.467Z</time>
      </trkpt>
      <trkpt lat="46.79947" lon="-2.03982">
        <ele>40.536646</ele>
        <time>2022-12-17T15:49:35.439Z</time>
      </trkpt>
      <trkpt lat="46.79941" lon="-2.03996">
        <ele>40.487192</ele>
        <time>2022-12-17T15:49:38.433Z</time>
      </trkpt>
      <trkpt lat="46.79936" lon="-2.04009">
        <ele>40.442488</ele>
        <time>2022-12-17T15:49:41.434Z</time>
      </trkpt>
      <trkpt lat="46.7993" lon="-2.04023">
        <ele>40.393096</ele>
        <time>2022-12-17T15:49:44.436Z</time>
      </trkpt>
      <trkpt lat="46.79924" lon="-2.04037">
        <ele>40.344656</ele>
        <time>2022-12-17T15:49:47.438Z</time>
      </trkpt>
      <trkpt lat="46.79919" lon="-2.04048">
        <ele>40.305084</ele>
        <time>2022-12-17T15:49:50.436Z</time>
      </trkpt>
      <trkpt lat="46.79912" lon="-2.04064">
        <ele>40.271959</ele>
        <time>2022-12-17T15:50:11.442Z</time>
      </trkpt>
      <trkpt lat="46.79906" lon="-2.04079">
        <ele>40.267568</ele>
        <time>2022-12-17T15:50:15.439Z</time>
      </trkpt>
      <trkpt lat="46.799" lon="-2.04093">
        <ele>40.263664</ele>
        <time>2022-12-17T15:50:18.451Z</time>
      </trkpt>
      <trkpt lat="46.79894" lon="-2.04107">
        <ele>40.259489</ele>
        <time>2022-12-17T15:50:21.437Z</time>
      </trkpt>
      <trkpt lat="46.79888" lon="-2.04123">
        <ele>40.254933</ele>
        <time>2022-12-17T15:50:24.433Z</time>
      </trkpt>
      <trkpt lat="46.79881" lon="-2.04139">
        <ele>40.250192</ele>
        <time>2022-12-17T15:50:27.431Z</time>
      </trkpt>
      <trkpt lat="46.79874" lon="-2.04156">
        <ele>40.245248</ele>
        <time>2022-12-17T15:50:30.432Z</time>
      </trkpt>
      <trkpt lat="46.7987" lon="-2.04169">
        <ele>40.241682</ele>
        <time>2022-12-17T15:50:32.456Z</time>
      </trkpt>
      <trkpt lat="46.79865" lon="-2.0418">
        <ele>40.238295</ele>
        <time>2022-12-17T15:50:34.432Z</time>
      </trkpt>
      <trkpt lat="46.7986" lon="-2.04192">
        <ele>40.234895</ele>
        <time>2022-12-17T15:50:36.434Z</time>
      </trkpt>
      <trkpt lat="46.79853" lon="-2.04208">
        <ele>40.230006</ele>
        <time>2022-12-17T15:50:39.436Z</time>
      </trkpt>
      <trkpt lat="46.79846" lon="-2.04224">
        <ele>40.225449</ele>
        <time>2022-12-17T15:50:42.434Z</time>
      </trkpt>
      <trkpt lat="46.7984" lon="-2.04237">
        <ele>40.22149</ele>
        <time>2022-12-17T15:50:45.436Z</time>
      </trkpt>
      <trkpt lat="46.79834" lon="-2.0425">
        <ele>40.217508</ele>
        <time>2022-12-17T15:50:48.431Z</time>
      </trkpt>
      <trkpt lat="46.79829" lon="-2.04263">
        <ele>40.21373</ele>
        <time>2022-12-17T15:50:51.436Z</time>
      </trkpt>
      <trkpt lat="46.79823" lon="-2.04275">
        <ele>40.210269</ele>
        <time>2022-12-17T15:50:54.431Z</time>
      </trkpt>
      <trkpt lat="46.79818" lon="-2.04287">
        <ele>40.240564</ele>
        <time>2022-12-17T15:50:57.443Z</time>
      </trkpt>
      <trkpt lat="46.79812" lon="-2.04302">
        <ele>40.302842</ele>
        <time>2022-12-17T15:51:00.440Z</time>
      </trkpt>
      <trkpt lat="46.79806" lon="-2.04317">
        <ele>40.371264</ele>
        <time>2022-12-17T15:51:03.436Z</time>
      </trkpt>
      <trkpt lat="46.79799" lon="-2.04334">
        <ele>40.443461</ele>
        <time>2022-12-17T15:51:06.437Z</time>
      </trkpt>
      <trkpt lat="46.79792" lon="-2.0435">
        <ele>40.517184</ele>
        <time>2022-12-17T15:51:09.442Z</time>
      </trkpt>
      <trkpt lat="46.79786" lon="-2.04362">
        <ele>40.572228</ele>
        <time>2022-12-17T15:51:11.440Z</time>
      </trkpt>
      <trkpt lat="46.79781" lon="-2.04374">
        <ele>40.623633</ele>
        <time>2022-12-17T15:51:13.447Z</time>
      </trkpt>
      <trkpt lat="46.79777" lon="-2.04386">
        <ele>40.675197</ele>
        <time>2022-12-17T15:51:15.440Z</time>
      </trkpt>
      <trkpt lat="46.79769" lon="-2.04401">
        <ele>40.74579</ele>
        <time>2022-12-17T15:51:18.438Z</time>
      </trkpt>
      <trkpt lat="46.79763" lon="-2.04417">
        <ele>40.814937</ele>
        <time>2022-12-17T15:51:21.433Z</time>
      </trkpt>
      <trkpt lat="46.79757" lon="-2.04432">
        <ele>40.878832</ele>
        <time>2022-12-17T15:51:24.448Z</time>
      </trkpt>
      <trkpt lat="46.79751" lon="-2.04446">
        <ele>40.940825</ele>
        <time>2022-12-17T15:51:27.447Z</time>
      </trkpt>
      <trkpt lat="46.79745" lon="-2.04461">
        <ele>41.008859</ele>
        <time>2022-12-17T15:51:30.437Z</time>
      </trkpt>
      <trkpt lat="46.79739" lon="-2.04477">
        <ele>41.077041</ele>
        <time>2022-12-17T15:51:33.438Z</time>
      </trkpt>
      <trkpt lat="46.79733" lon="-2.04492">
        <ele>41.142514</ele>
        <time>2022-12-17T15:51:36.435Z</time>
      </trkpt>
      <trkpt lat="46.79727" lon="-2.04505">
        <ele>41.199187</ele>
        <time>2022-12-17T15:51:39.449Z</time>
      </trkpt>
      <trkpt lat="46.79721" lon="-2.04517">
        <ele>41.213091</ele>
        <time>2022-12-17T15:51:42.434Z</time>
      </trkpt>
      <trkpt lat="46.79716" lon="-2.0453">
        <ele>41.227998</ele>
        <time>2022-12-17T15:51:45.434Z</time>
      </trkpt>
      <trkpt lat="46.7971" lon="-2.04545">
        <ele>41.24405</ele>
        <time>2022-12-17T15:51:48.435Z</time>
      </trkpt>
      <trkpt lat="46.79704" lon="-2.04559">
        <ele>41.260357</ele>
        <time>2022-12-17T15:51:51.448Z</time>
      </trkpt>
      <trkpt lat="46.797" lon="-2.04573">
        <ele>41.274868</ele>
        <time>2022-12-17T15:51:54.461Z</time>
      </trkpt>
      <trkpt lat="46.797" lon="-2.04587">
        <ele>41.287704</ele>
        <time>2022-12-17T15:51:57.439Z</time>
      </trkpt>
      <trkpt lat="46.79703" lon="-2.046">
        <ele>41.301391</ele>
        <time>2022-12-17T15:52:00.451Z</time>
      </trkpt>
      <trkpt lat="46.79706" lon="-2.04614">
        <ele>41.315564</ele>
        <time>2022-12-17T15:52:03.449Z</time>
      </trkpt>
      <trkpt lat="46.7971" lon="-2.04628">
        <ele>41.329977</ele>
        <time>2022-12-17T15:52:06.444Z</time>
      </trkpt>
      <trkpt lat="46.79712" lon="-2.04642">
        <ele>41.343383</ele>
        <time>2022-12-17T15:52:09.464Z</time>
      </trkpt>
      <trkpt lat="46.79714" lon="-2.04657">
        <ele>41.358328</ele>
        <time>2022-12-17T15:52:13.439Z</time>
      </trkpt>
      <trkpt lat="46.79714" lon="-2.04672">
        <ele>41.372779</ele>
        <time>2022-12-17T15:52:17.438Z</time>
      </trkpt>
      <trkpt lat="46.79711" lon="-2.04685">
        <ele>41.385757</ele>
        <time>2022-12-17T15:52:21.444Z</time>
      </trkpt>
      <trkpt lat="46.79704" lon="-2.04693">
        <ele>41.398966</ele>
        <time>2022-12-17T15:52:26.447Z</time>
      </trkpt>
      <trkpt lat="46.79697" lon="-2.04704">
        <ele>41.413061</ele>
        <time>2022-12-17T15:52:31.441Z</time>
      </trkpt>
      <trkpt lat="46.79686" lon="-2.04708">
        <ele>41.428306</ele>
        <time>2022-12-17T15:52:35.436Z</time>
      </trkpt>
      <trkpt lat="46.79676" lon="-2.0471">
        <ele>41.441975</ele>
        <time>2022-12-17T15:52:38.435Z</time>
      </trkpt>
      <trkpt lat="46.79667" lon="-2.04713">
        <ele>41.487174</ele>
        <time>2022-12-17T15:52:41.434Z</time>
      </trkpt>
      <trkpt lat="46.79656" lon="-2.04718">
        <ele>41.611236</ele>
        <time>2022-12-17T15:52:45.432Z</time>
      </trkpt>
      <trkpt lat="46.79647" lon="-2.04725">
        <ele>41.715882</ele>
        <time>2022-12-17T15:52:48.434Z</time>
      </trkpt>
      <trkpt lat="46.79641" lon="-2.04736">
        <ele>41.817874</ele>
        <time>2022-12-17T15:52:51.431Z</time>
      </trkpt>
      <trkpt lat="46.79634" lon="-2.04748">
        <ele>41.93725</ele>
        <time>2022-12-17T15:52:54.433Z</time>
      </trkpt>
      <trkpt lat="46.79628" lon="-2.04762">
        <ele>42.052792</ele>
        <time>2022-12-17T15:52:57.435Z</time>
      </trkpt>
      <trkpt lat="46.79622" lon="-2.04775">
        <ele>42.166808</ele>
        <time>2022-12-17T15:53:00.455Z</time>
      </trkpt>
      <trkpt lat="46.79617" lon="-2.0479">
        <ele>42.285031</ele>
        <time>2022-12-17T15:53:03.432Z</time>
      </trkpt>
      <trkpt lat="46.79612" lon="-2.04805">
        <ele>42.403421</ele>
        <time>2022-12-17T15:53:06.446Z</time>
      </trkpt>
      <trkpt lat="46.79609" lon="-2.04817">
        <ele>42.501537</ele>
        <time>2022-12-17T15:53:09.438Z</time>
      </trkpt>
      <trkpt lat="46.79601" lon="-2.04825">
        <ele>42.610827</ele>
        <time>2022-12-17T15:53:14.441Z</time>
      </trkpt>
      <trkpt lat="46.79591" lon="-2.04822">
        <ele>42.713073</ele>
        <time>2022-12-17T15:53:20.441Z</time>
      </trkpt>
      <trkpt lat="46.79585" lon="-2.04836">
        <ele>42.835179</ele>
        <time>2022-12-17T15:53:25.446Z</time>
      </trkpt>
      <trkpt lat="46.79585" lon="-2.0485">
        <ele>42.933083</ele>
        <time>2022-12-17T15:53:28.455Z</time>
      </trkpt>
      <trkpt lat="46.79585" lon="-2.04866">
        <ele>43.051298</ele>
        <time>2022-12-17T15:53:32.435Z</time>
      </trkpt>
      <trkpt lat="46.79578" lon="-2.04878">
        <ele>43.161919</ele>
        <time>2022-12-17T15:53:36.447Z</time>
      </trkpt>
      <trkpt lat="46.79567" lon="-2.0488">
        <ele>43.28718</ele>
        <time>2022-12-17T15:53:40.463Z</time>
      </trkpt>
      <trkpt lat="46.79557" lon="-2.04872">
        <ele>43.352594</ele>
        <time>2022-12-17T15:53:44.433Z</time>
      </trkpt>
      <trkpt lat="46.79546" lon="-2.04874">
        <ele>43.345739</ele>
        <time>2022-12-17T15:53:47.455Z</time>
      </trkpt>
      <trkpt lat="46.79538" lon="-2.0488">
        <ele>43.339822</ele>
        <time>2022-12-17T15:53:49.438Z</time>
      </trkpt>
      <trkpt lat="46.79529" lon="-2.04886">
        <ele>43.333656</ele>
        <time>2022-12-17T15:53:51.453Z</time>
      </trkpt>
      <trkpt lat="46.79521" lon="-2.04891">
        <ele>43.327562</ele>
        <time>2022-12-17T15:53:53.448Z</time>
      </trkpt>
      <trkpt lat="46.79509" lon="-2.04899">
        <ele>43.319082</ele>
        <time>2022-12-17T15:53:56.475Z</time>
      </trkpt>
      <trkpt lat="46.79497" lon="-2.04905">
        <ele>43.311181</ele>
        <time>2022-12-17T15:53:59.442Z</time>
      </trkpt>
      <trkpt lat="46.79486" lon="-2.0491">
        <ele>43.303979</ele>
        <time>2022-12-17T15:54:02.444Z</time>
      </trkpt>
      <trkpt lat="46.79477" lon="-2.04916">
        <ele>43.297216</ele>
        <time>2022-12-17T15:54:05.453Z</time>
      </trkpt>
      <trkpt lat="46.79467" lon="-2.04921">
        <ele>43.290687</ele>
        <time>2022-12-17T15:54:08.452Z</time>
      </trkpt>
      <trkpt lat="46.79456" lon="-2.04924">
        <ele>43.283572</ele>
        <time>2022-12-17T15:54:11.458Z</time>
      </trkpt>
      <trkpt lat="46.79445" lon="-2.04928">
        <ele>43.276093</ele>
        <time>2022-12-17T15:54:14.439Z</time>
      </trkpt>
      <trkpt lat="46.79433" lon="-2.04933">
        <ele>43.268327</ele>
        <time>2022-12-17T15:54:17.441Z</time>
      </trkpt>
      <trkpt lat="46.79422" lon="-2.04936">
        <ele>43.260829</ele>
        <time>2022-12-17T15:54:20.436Z</time>
      </trkpt>
      <trkpt lat="46.7941" lon="-2.0494">
        <ele>43.253017</ele>
        <time>2022-12-17T15:54:23.442Z</time>
      </trkpt>
      <trkpt lat="46.79398" lon="-2.04945">
        <ele>43.244968</ele>
        <time>2022-12-17T15:54:26.447Z</time>
      </trkpt>
      <trkpt lat="46.79385" lon="-2.0495">
        <ele>43.263301</ele>
        <time>2022-12-17T15:54:29.436Z</time>
      </trkpt>
      <trkpt lat="46.79376" lon="-2.04953">
        <ele>43.300256</ele>
        <time>2022-12-17T15:54:31.436Z</time>
      </trkpt>
      <trkpt lat="46.79367" lon="-2.04956">
        <ele>43.336994</ele>
        <time>2022-12-17T15:54:33.430Z</time>
      </trkpt>
      <trkpt lat="46.79354" lon="-2.0496">
        <ele>43.392231</ele>
        <time>2022-12-17T15:54:36.435Z</time>
      </trkpt>
      <trkpt lat="46.79345" lon="-2.04963">
        <ele>43.430951</ele>
        <time>2022-12-17T15:54:38.432Z</time>
      </trkpt>
      <trkpt lat="46.79335" lon="-2.04967">
        <ele>43.469336</ele>
        <time>2022-12-17T15:54:40.433Z</time>
      </trkpt>
      <trkpt lat="46.79326" lon="-2.0497">
        <ele>43.508851</ele>
        <time>2022-12-17T15:54:42.439Z</time>
      </trkpt>
      <trkpt lat="46.79317" lon="-2.04973">
        <ele>43.546904</ele>
        <time>2022-12-17T15:54:44.441Z</time>
      </trkpt>
      <trkpt lat="46.79307" lon="-2.04974">
        <ele>43.585348</ele>
        <time>2022-12-17T15:54:46.438Z</time>
      </trkpt>
      <trkpt lat="46.79298" lon="-2.04975">
        <ele>43.622875</ele>
        <time>2022-12-17T15:54:48.460Z</time>
      </trkpt>
      <trkpt lat="46.79289" lon="-2.04977">
        <ele>43.659886</ele>
        <time>2022-12-17T15:54:50.432Z</time>
      </trkpt>
      <trkpt lat="46.79276" lon="-2.04979">
        <ele>43.712862</ele>
        <time>2022-12-17T15:54:53.440Z</time>
      </trkpt>
      <trkpt lat="46.79266" lon="-2.04981">
        <ele>43.755667</ele>
        <time>2022-12-17T15:54:56.433Z</time>
      </trkpt>
      <trkpt lat="46.79257" lon="-2.04982">
        <ele>43.792363</ele>
        <time>2022-12-17T15:54:59.443Z</time>
      </trkpt>
      <trkpt lat="46.79245" lon="-2.04981">
        <ele>43.838811</ele>
        <time>2022-12-17T15:55:03.445Z</time>
      </trkpt>
      <trkpt lat="46.79234" lon="-2.04983">
        <ele>43.885234</ele>
        <time>2022-12-17T15:55:06.447Z</time>
      </trkpt>
      <trkpt lat="46.79223" lon="-2.04989">
        <ele>43.934405</ele>
        <time>2022-12-17T15:55:09.442Z</time>
      </trkpt>
      <trkpt lat="46.79212" lon="-2.04997">
        <ele>43.953836</ele>
        <time>2022-12-17T15:55:12.468Z</time>
      </trkpt>
      <trkpt lat="46.79201" lon="-2.05003">
        <ele>43.885337</ele>
        <time>2022-12-17T15:55:15.438Z</time>
      </trkpt>
      <trkpt lat="46.79192" lon="-2.05009">
        <ele>43.825417</ele>
        <time>2022-12-17T15:55:18.435Z</time>
      </trkpt>
      <trkpt lat="46.79181" lon="-2.05016">
        <ele>43.754518</ele>
        <time>2022-12-17T15:55:22.449Z</time>
      </trkpt>
      <trkpt lat="46.79173" lon="-2.05023">
        <ele>43.698724</ele>
        <time>2022-12-17T15:55:26.440Z</time>
      </trkpt>
      <trkpt lat="46.79163" lon="-2.05025">
        <ele>43.635712</ele>
        <time>2022-12-17T15:55:32.452Z</time>
      </trkpt>
      <trkpt lat="46.79157" lon="-2.05011">
        <ele>43.566822</ele>
        <time>2022-12-17T15:55:36.449Z</time>
      </trkpt>
      <trkpt lat="46.7915" lon="-2.05">
        <ele>43.507101</ele>
        <time>2022-12-17T15:55:40.453Z</time>
      </trkpt>
      <trkpt lat="46.7914" lon="-2.05">
        <ele>43.445567</ele>
        <time>2022-12-17T15:55:44.436Z</time>
      </trkpt>
      <trkpt lat="46.7913" lon="-2.05002">
        <ele>43.388457</ele>
        <time>2022-12-17T15:55:47.450Z</time>
      </trkpt>
      <trkpt lat="46.79121" lon="-2.05003">
        <ele>43.330916</ele>
        <time>2022-12-17T15:55:50.453Z</time>
      </trkpt>
      <trkpt lat="46.79111" lon="-2.05004">
        <ele>43.273548</ele>
        <time>2022-12-17T15:55:53.437Z</time>
      </trkpt>
      <trkpt lat="46.79102" lon="-2.05005">
        <ele>43.217077</ele>
        <time>2022-12-17T15:55:56.445Z</time>
      </trkpt>
      <trkpt lat="46.79091" lon="-2.05007">
        <ele>43.150381</ele>
        <time>2022-12-17T15:55:59.446Z</time>
      </trkpt>
      <trkpt lat="46.7908" lon="-2.05008">
        <ele>43.085101</ele>
        <time>2022-12-17T15:56:02.440Z</time>
      </trkpt>
      <trkpt lat="46.79068" lon="-2.05008">
        <ele>43.017597</ele>
        <time>2022-12-17T15:56:05.442Z</time>
      </trkpt>
      <trkpt lat="46.79056" lon="-2.05009">
        <ele>42.945294</ele>
        <time>2022-12-17T15:56:08.461Z</time>
      </trkpt>
      <trkpt lat="46.79043" lon="-2.05009">
        <ele>42.853558</ele>
        <time>2022-12-17T15:56:11.441Z</time>
      </trkpt>
      <trkpt lat="46.7903" lon="-2.05011">
        <ele>42.745826</ele>
        <time>2022-12-17T15:56:14.443Z</time>
      </trkpt>
      <trkpt lat="46.79021" lon="-2.05012">
        <ele>42.669896</ele>
        <time>2022-12-17T15:56:16.465Z</time>
      </trkpt>
      <trkpt lat="46.79009" lon="-2.05015">
        <ele>42.568241</ele>
        <time>2022-12-17T15:56:19.444Z</time>
      </trkpt>
      <trkpt lat="46.78997" lon="-2.05018">
        <ele>42.465682</ele>
        <time>2022-12-17T15:56:22.436Z</time>
      </trkpt>
      <trkpt lat="46.78988" lon="-2.05019">
        <ele>42.390883</ele>
        <time>2022-12-17T15:56:24.440Z</time>
      </trkpt>
      <trkpt lat="46.78978" lon="-2.05022">
        <ele>42.306711</ele>
        <time>2022-12-17T15:56:26.440Z</time>
      </trkpt>
      <trkpt lat="46.78969" lon="-2.05027">
        <ele>42.229684</ele>
        <time>2022-12-17T15:56:28.435Z</time>
      </trkpt>
      <trkpt lat="46.78961" lon="-2.05037">
        <ele>42.136511</ele>
        <time>2022-12-17T15:56:31.448Z</time>
      </trkpt>
      <trkpt lat="46.78954" lon="-2.05046">
        <ele>42.061254</ele>
        <time>2022-12-17T15:56:34.442Z</time>
      </trkpt>
      <trkpt lat="46.78944" lon="-2.05052">
        <ele>41.973637</ele>
        <time>2022-12-17T15:56:38.445Z</time>
      </trkpt>
      <trkpt lat="46.78935" lon="-2.05061">
        <ele>41.884202</ele>
        <time>2022-12-17T15:56:42.435Z</time>
      </trkpt>
      <trkpt lat="46.78925" lon="-2.05061">
        <ele>41.800119</ele>
        <time>2022-12-17T15:56:46.436Z</time>
      </trkpt>
      <trkpt lat="46.78916" lon="-2.0505">
        <ele>41.700568</ele>
        <time>2022-12-17T15:56:50.461Z</time>
      </trkpt>
      <trkpt lat="46.78911" lon="-2.05037">
        <ele>41.614913</ele>
        <time>2022-12-17T15:56:53.442Z</time>
      </trkpt>
      <trkpt lat="46.78906" lon="-2.05025">
        <ele>41.533</ele>
        <time>2022-12-17T15:56:56.449Z</time>
      </trkpt>
      <trkpt lat="46.789" lon="-2.05011">
        <ele>41.445701</ele>
        <time>2022-12-17T15:56:59.464Z</time>
      </trkpt>
      <trkpt lat="46.78895" lon="-2.04998">
        <ele>41.370241</ele>
        <time>2022-12-17T15:57:02.440Z</time>
      </trkpt>
      <trkpt lat="46.78889" lon="-2.04984">
        <ele>41.306876</ele>
        <time>2022-12-17T15:57:05.450Z</time>
      </trkpt>
      <trkpt lat="46.78882" lon="-2.04968">
        <ele>41.23615</ele>
        <time>2022-12-17T15:57:08.437Z</time>
      </trkpt>
      <trkpt lat="46.78875" lon="-2.04952">
        <ele>41.163799</ele>
        <time>2022-12-17T15:57:11.437Z</time>
      </trkpt>
      <trkpt lat="46.78869" lon="-2.04938">
        <ele>41.099627</ele>
        <time>2022-12-17T15:57:14.436Z</time>
      </trkpt>
      <trkpt lat="46.78863" lon="-2.04925">
        <ele>41.039326</ele>
        <time>2022-12-17T15:57:17.442Z</time>
      </trkpt>
      <trkpt lat="46.78859" lon="-2.04911">
        <ele>40.982976</ele>
        <time>2022-12-17T15:57:20.444Z</time>
      </trkpt>
      <trkpt lat="46.78855" lon="-2.04898">
        <ele>40.927489</ele>
        <time>2022-12-17T15:57:23.443Z</time>
      </trkpt>
      <trkpt lat="46.78851" lon="-2.04883">
        <ele>40.865268</ele>
        <time>2022-12-17T15:57:26.449Z</time>
      </trkpt>
      <trkpt lat="46.78847" lon="-2.04866">
        <ele>40.795189</ele>
        <time>2022-12-17T15:57:29.432Z</time>
      </trkpt>
      <trkpt lat="46.78843" lon="-2.04848">
        <ele>40.724596</ele>
        <time>2022-12-17T15:57:32.437Z</time>
      </trkpt>
      <trkpt lat="46.78838" lon="-2.0483">
        <ele>40.649706</ele>
        <time>2022-12-17T15:57:35.450Z</time>
      </trkpt>
      <trkpt lat="46.78832" lon="-2.04813">
        <ele>40.578234</ele>
        <time>2022-12-17T15:57:38.466Z</time>
      </trkpt>
      <trkpt lat="46.78825" lon="-2.04795">
        <ele>40.499081</ele>
        <time>2022-12-17T15:57:41.454Z</time>
      </trkpt>
      <trkpt lat="46.78821" lon="-2.04782">
        <ele>40.443968</ele>
        <time>2022-12-17T15:57:43.448Z</time>
      </trkpt>
      <trkpt lat="46.78817" lon="-2.0477">
        <ele>40.394739</ele>
        <time>2022-12-17T15:57:45.439Z</time>
      </trkpt>
      <trkpt lat="46.78813" lon="-2.04758">
        <ele>40.397878</ele>
        <time>2022-12-17T15:57:47.451Z</time>
      </trkpt>
      <trkpt lat="46.78809" lon="-2.04745">
        <ele>40.401121</ele>
        <time>2022-12-17T15:57:49.442Z</time>
      </trkpt>
      <trkpt lat="46.78806" lon="-2.04732">
        <ele>40.404171</ele>
        <time>2022-12-17T15:57:51.440Z</time>
      </trkpt>
      <trkpt lat="46.78802" lon="-2.0472">
        <ele>40.407292</ele>
        <time>2022-12-17T15:57:53.438Z</time>
      </trkpt>
      <trkpt lat="46.78796" lon="-2.04702">
        <ele>40.41193</ele>
        <time>2022-12-17T15:57:56.454Z</time>
      </trkpt>
      <trkpt lat="46.78791" lon="-2.0469">
        <ele>40.415123</ele>
        <time>2022-12-17T15:57:58.454Z</time>
      </trkpt>
      <trkpt lat="46.78786" lon="-2.04677">
        <ele>40.418558</ele>
        <time>2022-12-17T15:58:00.442Z</time>
      </trkpt>
      <trkpt lat="46.78782" lon="-2.04664">
        <ele>40.421885</ele>
        <time>2022-12-17T15:58:02.452Z</time>
      </trkpt>
      <trkpt lat="46.78776" lon="-2.04651">
        <ele>40.425429</ele>
        <time>2022-12-17T15:58:04.443Z</time>
      </trkpt>
      <trkpt lat="46.78771" lon="-2.04638">
        <ele>40.428726</ele>
        <time>2022-12-17T15:58:06.468Z</time>
      </trkpt>
      <trkpt lat="46.78766" lon="-2.04624">
        <ele>40.432348</ele>
        <time>2022-12-17T15:58:08.442Z</time>
      </trkpt>
      <trkpt lat="46.78761" lon="-2.04613">
        <ele>40.435402</ele>
        <time>2022-12-17T15:58:10.448Z</time>
      </trkpt>
      <trkpt lat="46.78756" lon="-2.046">
        <ele>40.438831</ele>
        <time>2022-12-17T15:58:12.460Z</time>
      </trkpt>
      <trkpt lat="46.7875" lon="-2.04588">
        <ele>40.442203</ele>
        <time>2022-12-17T15:58:14.467Z</time>
      </trkpt>
      <trkpt lat="46.78744" lon="-2.04575">
        <ele>40.445762</ele>
        <time>2022-12-17T15:58:16.446Z</time>
      </trkpt>
      <trkpt lat="46.78739" lon="-2.04562">
        <ele>40.449308</ele>
        <time>2022-12-17T15:58:18.468Z</time>
      </trkpt>
      <trkpt lat="46.78734" lon="-2.04548">
        <ele>40.452739</ele>
        <time>2022-12-17T15:58:20.465Z</time>
      </trkpt>
      <trkpt lat="46.78729" lon="-2.04537">
        <ele>40.440439</ele>
        <time>2022-12-17T15:58:22.450Z</time>
      </trkpt>
      <trkpt lat="46.78723" lon="-2.04525">
        <ele>40.396946</ele>
        <time>2022-12-17T15:58:24.468Z</time>
      </trkpt>
      <trkpt lat="46.78717" lon="-2.0451">
        <ele>40.347036</ele>
        <time>2022-12-17T15:58:27.452Z</time>
      </trkpt>
      <trkpt lat="46.78712" lon="-2.04499">
        <ele>40.307437</ele>
        <time>2022-12-17T15:58:30.466Z</time>
      </trkpt>
      <trkpt lat="46.78706" lon="-2.04478">
        <ele>40.240007</ele>
        <time>2022-12-17T15:59:12.437Z</time>
      </trkpt>
      <trkpt lat="46.78701" lon="-2.04466">
        <ele>40.199174</ele>
        <time>2022-12-17T15:59:15.442Z</time>
      </trkpt>
      <trkpt lat="46.78695" lon="-2.04453">
        <ele>40.152275</ele>
        <time>2022-12-17T15:59:18.438Z</time>
      </trkpt>
      <trkpt lat="46.78689" lon="-2.04442">
        <ele>40.109732</ele>
        <time>2022-12-17T15:59:21.436Z</time>
      </trkpt>
      <trkpt lat="46.78683" lon="-2.04429">
        <ele>40.065763</ele>
        <time>2022-12-17T15:59:24.451Z</time>
      </trkpt>
      <trkpt lat="46.78677" lon="-2.04414">
        <ele>40.013893</ele>
        <time>2022-12-17T15:59:27.436Z</time>
      </trkpt>
      <trkpt lat="46.78672" lon="-2.04399">
        <ele>39.963869</ele>
        <time>2022-12-17T15:59:30.477Z</time>
      </trkpt>
      <trkpt lat="46.78666" lon="-2.04381">
        <ele>39.907533</ele>
        <time>2022-12-17T15:59:33.443Z</time>
      </trkpt>
      <trkpt lat="46.78661" lon="-2.04362">
        <ele>39.846781</ele>
        <time>2022-12-17T15:59:36.450Z</time>
      </trkpt>
      <trkpt lat="46.78657" lon="-2.04349">
        <ele>39.802718</ele>
        <time>2022-12-17T15:59:38.439Z</time>
      </trkpt>
      <trkpt lat="46.78653" lon="-2.04336">
        <ele>39.760393</ele>
        <time>2022-12-17T15:59:40.435Z</time>
      </trkpt>
      <trkpt lat="46.78648" lon="-2.04323">
        <ele>39.71691</ele>
        <time>2022-12-17T15:59:42.436Z</time>
      </trkpt>
      <trkpt lat="46.78643" lon="-2.0431">
        <ele>39.710466</ele>
        <time>2022-12-17T15:59:44.437Z</time>
      </trkpt>
      <trkpt lat="46.78639" lon="-2.04296">
        <ele>39.881</ele>
        <time>2022-12-17T15:59:46.446Z</time>
      </trkpt>
      <trkpt lat="46.78634" lon="-2.04281">
        <ele>40.062112</ele>
        <time>2022-12-17T15:59:48.441Z</time>
      </trkpt>
      <trkpt lat="46.78629" lon="-2.04266">
        <ele>40.255243</ele>
        <time>2022-12-17T15:59:50.440Z</time>
      </trkpt>
      <trkpt lat="46.78624" lon="-2.04252">
        <ele>40.429092</ele>
        <time>2022-12-17T15:59:52.436Z</time>
      </trkpt>
      <trkpt lat="46.7862" lon="-2.04239">
        <ele>40.590692</ele>
        <time>2022-12-17T15:59:54.448Z</time>
      </trkpt>
      <trkpt lat="46.78615" lon="-2.04227">
        <ele>40.750308</ele>
        <time>2022-12-17T15:59:56.450Z</time>
      </trkpt>
      <trkpt lat="46.7861" lon="-2.04214">
        <ele>40.914722</ele>
        <time>2022-12-17T15:59:58.451Z</time>
      </trkpt>
      <trkpt lat="46.78605" lon="-2.04201">
        <ele>41.084064</ele>
        <time>2022-12-17T16:00:00.460Z</time>
      </trkpt>
      <trkpt lat="46.78599" lon="-2.04188">
        <ele>41.259097</ele>
        <time>2022-12-17T16:00:02.459Z</time>
      </trkpt>
      <trkpt lat="46.78594" lon="-2.04175">
        <ele>41.429866</ele>
        <time>2022-12-17T16:00:04.462Z</time>
      </trkpt>
      <trkpt lat="46.78588" lon="-2.04162">
        <ele>41.606203</ele>
        <time>2022-12-17T16:00:06.439Z</time>
      </trkpt>
      <trkpt lat="46.78582" lon="-2.04149">
        <ele>41.782778</ele>
        <time>2022-12-17T16:00:08.448Z</time>
      </trkpt>
      <trkpt lat="46.78577" lon="-2.04135">
        <ele>41.954637</ele>
        <time>2022-12-17T16:00:10.440Z</time>
      </trkpt>
      <trkpt lat="46.78572" lon="-2.04121">
        <ele>42.130312</ele>
        <time>2022-12-17T16:00:12.443Z</time>
      </trkpt>
      <trkpt lat="46.78568" lon="-2.04108">
        <ele>42.300516</ele>
        <time>2022-12-17T16:00:14.447Z</time>
      </trkpt>
      <trkpt lat="46.78564" lon="-2.04094">
        <ele>42.463549</ele>
        <time>2022-12-17T16:00:16.448Z</time>
      </trkpt>
      <trkpt lat="46.78561" lon="-2.04081">
        <ele>42.616511</ele>
        <time>2022-12-17T16:00:18.439Z</time>
      </trkpt>
      <trkpt lat="46.78557" lon="-2.04064">
        <ele>42.571097</ele>
        <time>2022-12-17T16:00:21.442Z</time>
      </trkpt>
      <trkpt lat="46.78552" lon="-2.04045">
        <ele>42.496162</ele>
        <time>2022-12-17T16:00:24.460Z</time>
      </trkpt>
      <trkpt lat="46.78548" lon="-2.04032">
        <ele>42.44436</ele>
        <time>2022-12-17T16:00:26.453Z</time>
      </trkpt>
      <trkpt lat="46.78545" lon="-2.04019">
        <ele>42.391176</ele>
        <time>2022-12-17T16:00:28.461Z</time>
      </trkpt>
      <trkpt lat="46.78541" lon="-2.04006">
        <ele>42.338267</ele>
        <time>2022-12-17T16:00:30.447Z</time>
      </trkpt>
      <trkpt lat="46.78536" lon="-2.03993">
        <ele>42.28162</ele>
        <time>2022-12-17T16:00:32.466Z</time>
      </trkpt>
      <trkpt lat="46.78533" lon="-2.03979">
        <ele>42.225795</ele>
        <time>2022-12-17T16:00:34.445Z</time>
      </trkpt>
      <trkpt lat="46.78528" lon="-2.03966">
        <ele>42.172488</ele>
        <time>2022-12-17T16:00:36.450Z</time>
      </trkpt>
      <trkpt lat="46.78524" lon="-2.03953">
        <ele>42.117508</ele>
        <time>2022-12-17T16:00:38.466Z</time>
      </trkpt>
      <trkpt lat="46.78518" lon="-2.0394">
        <ele>42.059048</ele>
        <time>2022-12-17T16:00:40.448Z</time>
      </trkpt>
      <trkpt lat="46.78513" lon="-2.03928">
        <ele>42.00605</ele>
        <time>2022-12-17T16:00:42.439Z</time>
      </trkpt>
      <trkpt lat="46.78509" lon="-2.03916">
        <ele>41.95338</ele>
        <time>2022-12-17T16:00:44.460Z</time>
      </trkpt>
      <trkpt lat="46.78503" lon="-2.03903">
        <ele>41.895883</ele>
        <time>2022-12-17T16:00:46.449Z</time>
      </trkpt>
      <trkpt lat="46.78498" lon="-2.03891">
        <ele>41.843672</ele>
        <time>2022-12-17T16:00:48.448Z</time>
      </trkpt>
      <trkpt lat="46.78492" lon="-2.03875">
        <ele>41.774632</ele>
        <time>2022-12-17T16:00:51.436Z</time>
      </trkpt>
      <trkpt lat="46.78489" lon="-2.03858">
        <ele>41.70856</ele>
        <time>2022-12-17T16:00:54.440Z</time>
      </trkpt>
      <trkpt lat="46.78483" lon="-2.03841">
        <ele>41.654968</ele>
        <time>2022-12-17T16:00:57.446Z</time>
      </trkpt>
      <trkpt lat="46.7848" lon="-2.03829">
        <ele>41.701636</ele>
        <time>2022-12-17T16:00:59.441Z</time>
      </trkpt>
      <trkpt lat="46.78474" lon="-2.03811">
        <ele>41.771362</ele>
        <time>2022-12-17T16:01:02.446Z</time>
      </trkpt>
      <trkpt lat="46.7847" lon="-2.03799">
        <ele>41.820693</ele>
        <time>2022-12-17T16:01:04.450Z</time>
      </trkpt>
      <trkpt lat="46.78465" lon="-2.03786">
        <ele>41.873079</ele>
        <time>2022-12-17T16:01:06.434Z</time>
      </trkpt>
      <trkpt lat="46.7846" lon="-2.03773">
        <ele>41.925515</ele>
        <time>2022-12-17T16:01:08.434Z</time>
      </trkpt>
      <trkpt lat="46.78455" lon="-2.0376">
        <ele>41.978163</ele>
        <time>2022-12-17T16:01:10.441Z</time>
      </trkpt>
      <trkpt lat="46.78449" lon="-2.03747">
        <ele>42.03147</ele>
        <time>2022-12-17T16:01:12.448Z</time>
      </trkpt>
      <trkpt lat="46.78444" lon="-2.03736">
        <ele>42.08139</ele>
        <time>2022-12-17T16:01:14.454Z</time>
      </trkpt>
      <trkpt lat="46.78439" lon="-2.03724">
        <ele>42.129638</ele>
        <time>2022-12-17T16:01:16.450Z</time>
      </trkpt>
      <trkpt lat="46.78435" lon="-2.03712">
        <ele>42.17661</ele>
        <time>2022-12-17T16:01:18.438Z</time>
      </trkpt>
      <trkpt lat="46.78429" lon="-2.03697">
        <ele>42.241208</ele>
        <time>2022-12-17T16:01:21.436Z</time>
      </trkpt>
      <trkpt lat="46.78423" lon="-2.03683">
        <ele>42.298141</ele>
        <time>2022-12-17T16:01:24.437Z</time>
      </trkpt>
      <trkpt lat="46.78418" lon="-2.0367">
        <ele>42.350885</ele>
        <time>2022-12-17T16:01:27.437Z</time>
      </trkpt>
      <trkpt lat="46.78412" lon="-2.03657">
        <ele>42.404592</ele>
        <time>2022-12-17T16:01:30.444Z</time>
      </trkpt>
      <trkpt lat="46.78404" lon="-2.03645">
        <ele>42.463851</ele>
        <time>2022-12-17T16:01:33.439Z</time>
      </trkpt>
      <trkpt lat="46.78395" lon="-2.0364">
        <ele>42.516625</ele>
        <time>2022-12-17T16:01:36.439Z</time>
      </trkpt>
      <trkpt lat="46.78384" lon="-2.03644">
        <ele>42.573684</ele>
        <time>2022-12-17T16:01:39.449Z</time>
      </trkpt>
      <trkpt lat="46.78373" lon="-2.0365">
        <ele>42.743477</ele>
        <time>2022-12-17T16:01:42.436Z</time>
      </trkpt>
      <trkpt lat="46.78362" lon="-2.03659">
        <ele>42.942405</ele>
        <time>2022-12-17T16:01:45.450Z</time>
      </trkpt>
      <trkpt lat="46.7835" lon="-2.03669">
        <ele>43.14103</ele>
        <time>2022-12-17T16:01:48.451Z</time>
      </trkpt>
      <trkpt lat="46.78343" lon="-2.03677">
        <ele>43.279842</ele>
        <time>2022-12-17T16:01:50.440Z</time>
      </trkpt>
      <trkpt lat="46.78333" lon="-2.03687">
        <ele>43.45958</ele>
        <time>2022-12-17T16:01:53.435Z</time>
      </trkpt>
      <trkpt lat="46.78324" lon="-2.03695">
        <ele>43.62689</ele>
        <time>2022-12-17T16:01:56.437Z</time>
      </trkpt>
      <trkpt lat="46.78314" lon="-2.03704">
        <ele>43.795715</ele>
        <time>2022-12-17T16:01:59.444Z</time>
      </trkpt>
      <trkpt lat="46.78305" lon="-2.03712">
        <ele>43.959744</ele>
        <time>2022-12-17T16:02:02.460Z</time>
      </trkpt>
      <trkpt lat="46.78296" lon="-2.03721">
        <ele>44.11998</ele>
        <time>2022-12-17T16:02:05.457Z</time>
      </trkpt>
      <trkpt lat="46.78287" lon="-2.03731">
        <ele>44.296675</ele>
        <time>2022-12-17T16:02:08.444Z</time>
      </trkpt>
      <trkpt lat="46.78278" lon="-2.03741">
        <ele>44.472091</ele>
        <time>2022-12-17T16:02:11.457Z</time>
      </trkpt>
      <trkpt lat="46.78269" lon="-2.03751">
        <ele>44.643295</ele>
        <time>2022-12-17T16:02:14.455Z</time>
      </trkpt>
      <trkpt lat="46.78259" lon="-2.03763">
        <ele>44.829367</ele>
        <time>2022-12-17T16:02:17.437Z</time>
      </trkpt>
      <trkpt lat="46.7825" lon="-2.03773">
        <ele>45.007472</ele>
        <time>2022-12-17T16:02:20.465Z</time>
      </trkpt>
      <trkpt lat="46.78242" lon="-2.03783">
        <ele>45.161566</ele>
        <time>2022-12-17T16:02:23.439Z</time>
      </trkpt>
      <trkpt lat="46.78236" lon="-2.03793">
        <ele>45.294447</ele>
        <time>2022-12-17T16:02:26.442Z</time>
      </trkpt>
      <trkpt lat="46.78228" lon="-2.03801">
        <ele>45.24852</ele>
        <time>2022-12-17T16:02:29.453Z</time>
      </trkpt>
      <trkpt lat="46.78217" lon="-2.03801">
        <ele>45.194739</ele>
        <time>2022-12-17T16:02:32.450Z</time>
      </trkpt>
      <trkpt lat="46.78206" lon="-2.03804">
        <ele>45.137575</ele>
        <time>2022-12-17T16:02:35.447Z</time>
      </trkpt>
      <trkpt lat="46.78195" lon="-2.0381">
        <ele>45.081115</ele>
        <time>2022-12-17T16:02:38.444Z</time>
      </trkpt>
      <trkpt lat="46.78184" lon="-2.03816">
        <ele>45.023842</ele>
        <time>2022-12-17T16:02:41.445Z</time>
      </trkpt>
      <trkpt lat="46.78174" lon="-2.0382">
        <ele>44.970234</ele>
        <time>2022-12-17T16:02:44.448Z</time>
      </trkpt>
      <trkpt lat="46.78164" lon="-2.03825">
        <ele>44.916149</ele>
        <time>2022-12-17T16:02:47.447Z</time>
      </trkpt>
      <trkpt lat="46.78155" lon="-2.03831">
        <ele>44.870801</ele>
        <time>2022-12-17T16:02:50.436Z</time>
      </trkpt>
      <trkpt lat="46.78147" lon="-2.03837">
        <ele>44.824259</ele>
        <time>2022-12-17T16:02:53.455Z</time>
      </trkpt>
      <trkpt lat="46.78136" lon="-2.03842">
        <ele>44.764713</ele>
        <time>2022-12-17T16:02:57.442Z</time>
      </trkpt>
      <trkpt lat="46.78127" lon="-2.03847">
        <ele>44.719245</ele>
        <time>2022-12-17T16:03:00.452Z</time>
      </trkpt>
      <trkpt lat="46.78117" lon="-2.03851">
        <ele>44.669166</ele>
        <time>2022-12-17T16:03:03.469Z</time>
      </trkpt>
      <trkpt lat="46.78107" lon="-2.03852">
        <ele>44.619337</ele>
        <time>2022-12-17T16:03:06.451Z</time>
      </trkpt>
      <trkpt lat="46.781" lon="-2.03839">
        <ele>44.561699</ele>
        <time>2022-12-17T16:03:09.450Z</time>
      </trkpt>
      <trkpt lat="46.7809" lon="-2.03828">
        <ele>44.498911</ele>
        <time>2022-12-17T16:03:12.450Z</time>
      </trkpt>
      <trkpt lat="46.78077" lon="-2.03821">
        <ele>44.433223</ele>
        <time>2022-12-17T16:03:15.446Z</time>
      </trkpt>
      <trkpt lat="46.78065" lon="-2.03813">
        <ele>44.242448</ele>
        <time>2022-12-17T16:03:18.449Z</time>
      </trkpt>
      <trkpt lat="46.78056" lon="-2.0381">
        <ele>44.044062</ele>
        <time>2022-12-17T16:03:20.444Z</time>
      </trkpt>
      <trkpt lat="46.78043" lon="-2.03804">
        <ele>43.755352</ele>
        <time>2022-12-17T16:03:23.437Z</time>
      </trkpt>
      <trkpt lat="46.78035" lon="-2.03799">
        <ele>43.55442</ele>
        <time>2022-12-17T16:03:25.449Z</time>
      </trkpt>
      <trkpt lat="46.78026" lon="-2.03793">
        <ele>43.339078</ele>
        <time>2022-12-17T16:03:27.442Z</time>
      </trkpt>
      <trkpt lat="46.78016" lon="-2.03788">
        <ele>43.119177</ele>
        <time>2022-12-17T16:03:29.449Z</time>
      </trkpt>
      <trkpt lat="46.78003" lon="-2.03781">
        <ele>42.826389</ele>
        <time>2022-12-17T16:03:32.439Z</time>
      </trkpt>
      <trkpt lat="46.77994" lon="-2.03776">
        <ele>42.614815</ele>
        <time>2022-12-17T16:03:34.448Z</time>
      </trkpt>
      <trkpt lat="46.77985" lon="-2.03771">
        <ele>42.409994</ele>
        <time>2022-12-17T16:03:36.464Z</time>
      </trkpt>
      <trkpt lat="46.77977" lon="-2.03767">
        <ele>42.211307</ele>
        <time>2022-12-17T16:03:38.455Z</time>
      </trkpt>
      <trkpt lat="46.77964" lon="-2.03761">
        <ele>41.927939</ele>
        <time>2022-12-17T16:03:41.439Z</time>
      </trkpt>
      <trkpt lat="46.77953" lon="-2.03757">
        <ele>41.671093</ele>
        <time>2022-12-17T16:03:44.451Z</time>
      </trkpt>
      <trkpt lat="46.77941" lon="-2.03753">
        <ele>41.407973</ele>
        <time>2022-12-17T16:03:47.444Z</time>
      </trkpt>
      <trkpt lat="46.7793" lon="-2.03748">
        <ele>41.159934</ele>
        <time>2022-12-17T16:03:50.439Z</time>
      </trkpt>
      <trkpt lat="46.77917" lon="-2.03746">
        <ele>40.880098</ele>
        <time>2022-12-17T16:03:53.438Z</time>
      </trkpt>
      <trkpt lat="46.77907" lon="-2.03743">
        <ele>40.661031</ele>
        <time>2022-12-17T16:03:55.444Z</time>
      </trkpt>
      <trkpt lat="46.77898" lon="-2.0374">
        <ele>40.534161</ele>
        <time>2022-12-17T16:03:57.440Z</time>
      </trkpt>
      <trkpt lat="46.77889" lon="-2.03736">
        <ele>40.590333</ele>
        <time>2022-12-17T16:03:59.440Z</time>
      </trkpt>
      <trkpt lat="46.77881" lon="-2.03732">
        <ele>40.647204</ele>
        <time>2022-12-17T16:04:01.466Z</time>
      </trkpt>
      <trkpt lat="46.77869" lon="-2.03728">
        <ele>40.723034</ele>
        <time>2022-12-17T16:04:04.458Z</time>
      </trkpt>
      <trkpt lat="46.77858" lon="-2.03722">
        <ele>40.795419</ele>
        <time>2022-12-17T16:04:07.437Z</time>
      </trkpt>
      <trkpt lat="46.77846" lon="-2.03715">
        <ele>40.876655</ele>
        <time>2022-12-17T16:04:10.433Z</time>
      </trkpt>
      <trkpt lat="46.77837" lon="-2.0371">
        <ele>40.934189</ele>
        <time>2022-12-17T16:04:12.467Z</time>
      </trkpt>
      <trkpt lat="46.77828" lon="-2.03705">
        <ele>40.995684</ele>
        <time>2022-12-17T16:04:14.439Z</time>
      </trkpt>
      <trkpt lat="46.77819" lon="-2.03703">
        <ele>41.053712</ele>
        <time>2022-12-17T16:04:16.439Z</time>
      </trkpt>
      <trkpt lat="46.77806" lon="-2.03696">
        <ele>41.140035</ele>
        <time>2022-12-17T16:04:19.460Z</time>
      </trkpt>
      <trkpt lat="46.77797" lon="-2.0369">
        <ele>41.19922</ele>
        <time>2022-12-17T16:04:21.442Z</time>
      </trkpt>
      <trkpt lat="46.77789" lon="-2.03683">
        <ele>41.258904</ele>
        <time>2022-12-17T16:04:23.440Z</time>
      </trkpt>
      <trkpt lat="46.77781" lon="-2.03676">
        <ele>41.316508</ele>
        <time>2022-12-17T16:04:25.442Z</time>
      </trkpt>
      <trkpt lat="46.77773" lon="-2.03669">
        <ele>41.374354</ele>
        <time>2022-12-17T16:04:27.482Z</time>
      </trkpt>
      <trkpt lat="46.77763" lon="-2.03659">
        <ele>41.451886</ele>
        <time>2022-12-17T16:04:30.438Z</time>
      </trkpt>
      <trkpt lat="46.77754" lon="-2.03653">
        <ele>41.513361</ele>
        <time>2022-12-17T16:04:33.436Z</time>
      </trkpt>
      <trkpt lat="46.77746" lon="-2.03644">
        <ele>41.574779</ele>
        <time>2022-12-17T16:04:37.093Z</time>
      </trkpt>
      <trkpt lat="46.77738" lon="-2.03635">
        <ele>41.640914</ele>
        <time>2022-12-17T16:04:39.437Z</time>
      </trkpt>
      <trkpt lat="46.77728" lon="-2.03625">
        <ele>41.666032</ele>
        <time>2022-12-17T16:04:42.436Z</time>
      </trkpt>
      <trkpt lat="46.77717" lon="-2.03615">
        <ele>41.693237</ele>
        <time>2022-12-17T16:04:45.442Z</time>
      </trkpt>
      <trkpt lat="46.77709" lon="-2.03607">
        <ele>41.713343</ele>
        <time>2022-12-17T16:04:47.440Z</time>
      </trkpt>
      <trkpt lat="46.77701" lon="-2.03599">
        <ele>41.733779</ele>
        <time>2022-12-17T16:04:49.443Z</time>
      </trkpt>
      <trkpt lat="46.77693" lon="-2.0359">
        <ele>41.754536</ele>
        <time>2022-12-17T16:04:51.443Z</time>
      </trkpt>
      <trkpt lat="46.77684" lon="-2.03583">
        <ele>41.775367</ele>
        <time>2022-12-17T16:04:53.440Z</time>
      </trkpt>
      <trkpt lat="46.77675" lon="-2.03575">
        <ele>41.797526</ele>
        <time>2022-12-17T16:04:55.443Z</time>
      </trkpt>
      <trkpt lat="46.77667" lon="-2.03566">
        <ele>41.818365</ele>
        <time>2022-12-17T16:04:57.445Z</time>
      </trkpt>
      <trkpt lat="46.77659" lon="-2.03557">
        <ele>41.838893</ele>
        <time>2022-12-17T16:04:59.439Z</time>
      </trkpt>
      <trkpt lat="46.77651" lon="-2.03548">
        <ele>41.859648</ele>
        <time>2022-12-17T16:05:01.440Z</time>
      </trkpt>
      <trkpt lat="46.77643" lon="-2.03539">
        <ele>41.88088</ele>
        <time>2022-12-17T16:05:03.447Z</time>
      </trkpt>
      <trkpt lat="46.77636" lon="-2.03529">
        <ele>41.901891</ele>
        <time>2022-12-17T16:05:05.437Z</time>
      </trkpt>
      <trkpt lat="46.77628" lon="-2.03519">
        <ele>41.923282</ele>
        <time>2022-12-17T16:05:07.442Z</time>
      </trkpt>
      <trkpt lat="46.77621" lon="-2.03507">
        <ele>41.94547</ele>
        <time>2022-12-17T16:05:09.449Z</time>
      </trkpt>
      <trkpt lat="46.77613" lon="-2.03497">
        <ele>41.965912</ele>
        <time>2022-12-17T16:05:11.442Z</time>
      </trkpt>
      <trkpt lat="46.77607" lon="-2.03487">
        <ele>41.9853</ele>
        <time>2022-12-17T16:05:13.464Z</time>
      </trkpt>
      <trkpt lat="46.77599" lon="-2.03473">
        <ele>42.012415</ele>
        <time>2022-12-17T16:05:16.469Z</time>
      </trkpt>
      <trkpt lat="46.77591" lon="-2.03464">
        <ele>42.014272</ele>
        <time>2022-12-17T16:05:18.443Z</time>
      </trkpt>
      <trkpt lat="46.77583" lon="-2.03453">
        <ele>42.014272</ele>
        <time>2022-12-17T16:05:21.442Z</time>
      </trkpt>
      <trkpt lat="46.77573" lon="-2.03441">
        <ele>42.014272</ele>
        <time>2022-12-17T16:05:24.464Z</time>
      </trkpt>
      <trkpt lat="46.77564" lon="-2.03428">
        <ele>42.014272</ele>
        <time>2022-12-17T16:05:27.449Z</time>
      </trkpt>
      <trkpt lat="46.77557" lon="-2.03418">
        <ele>42.014272</ele>
        <time>2022-12-17T16:05:29.451Z</time>
      </trkpt>
      <trkpt lat="46.77548" lon="-2.03407">
        <ele>42.014272</ele>
        <time>2022-12-17T16:05:32.470Z</time>
      </trkpt>
      <trkpt lat="46.77539" lon="-2.03396">
        <ele>42.014272</ele>
        <time>2022-12-17T16:05:35.447Z</time>
      </trkpt>
      <trkpt lat="46.77529" lon="-2.03385">
        <ele>42.014272</ele>
        <time>2022-12-17T16:05:38.472Z</time>
      </trkpt>
      <trkpt lat="46.77519" lon="-2.03373">
        <ele>42.014272</ele>
        <time>2022-12-17T16:05:41.459Z</time>
      </trkpt>
      <trkpt lat="46.77511" lon="-2.03363">
        <ele>42.014272</ele>
        <time>2022-12-17T16:05:44.442Z</time>
      </trkpt>
      <trkpt lat="46.77505" lon="-2.03352">
        <ele>42.014272</ele>
        <time>2022-12-17T16:05:47.441Z</time>
      </trkpt>
      <trkpt lat="46.77498" lon="-2.03341">
        <ele>42.014272</ele>
        <time>2022-12-17T16:05:51.442Z</time>
      </trkpt>
      <trkpt lat="46.77491" lon="-2.03331">
        <ele>42.014272</ele>
        <time>2022-12-17T16:05:55.445Z</time>
      </trkpt>
      <trkpt lat="46.77485" lon="-2.03323">
        <ele>42.014272</ele>
        <time>2022-12-17T16:06:03.475Z</time>
        <extensions>
          <visugpx:TrkExtension xmlns:visugpx="https://www.visugpx.com/editgpx/">
            <visugpx:node>1</visugpx:node>
            </visugpx:TrkExtension>
        </extensions>
      </trkpt>
    </trkseg>
  </trk>
</gpx>